<?xml version='1.0' encoding='UTF-8'?><gpx version="1.1" creator="JPX - https://github.com/jenetics/jpx" xmlns="http://www.topografix.com/GPX/1/1"><trk><trkseg><trkpt lat="44.89648998235327" lon="11.832288093815215"><ele>4.0</ele><time>2026-04-11T08:33:10.001Z</time></trkpt><trkpt lat="44.89648527360101" lon="11.832197944057627"><ele>3.9999999999999996</ele><time>2026-04-11T08:34:19.001Z</time></trkpt><trkpt lat="44.89649619607534" lon="11.832102428534098"><ele>4.0</ele><time>2026-04-11T08:34:57.001Z</time></trkpt><trkpt lat="44.89652625847977" lon="11.832193024104066"><ele>4.0</ele><time>2026-04-11T08:35:02.001Z</time></trkpt><trkpt lat="44.896586391409855" lon="11.832219605068694"><ele>3.9999999999999996</ele><time>2026-04-11T08:35:12.001Z</time></trkpt><trkpt lat="44.896637167263435" lon="11.832315389678518"><ele>4.0</ele><time>2026-04-11T08:35:14.001Z</time></trkpt><trkpt lat="44.896666943674155" lon="11.832420508013605"><ele>4.0</ele><time>2026-04-11T08:35:16.001Z</time></trkpt><trkpt lat="44.89669599457002" lon="11.832529245426997"><ele>4.0</ele><time>2026-04-11T08:35:18.001Z</time></trkpt><trkpt lat="44.89674735227797" lon="11.832596162636857"><ele>3.9999999999999996</ele><time>2026-04-11T08:35:20.001Z</time></trkpt><trkpt lat="44.89676838624919" lon="11.832681287936293"><ele>4.0</ele><time>2026-04-11T08:35:22.001Z</time></trkpt><trkpt lat="44.89682094261617" lon="11.832736107780812"><ele>4.0</ele><time>2026-04-11T08:35:26.001Z</time></trkpt><trkpt lat="44.896895432728684" lon="11.832703618239302"><ele>3.9999999999999996</ele><time>2026-04-11T08:35:28.001Z</time></trkpt><trkpt lat="44.8969608491793" lon="11.832687066418723"><ele>4.0</ele><time>2026-04-11T08:35:29.001Z</time></trkpt><trkpt lat="44.897025593666584" lon="11.83266115223251"><ele>4.0</ele><time>2026-04-11T08:35:30.001Z</time></trkpt><trkpt lat="44.897143897537106" lon="11.832611428100192"><ele>3.8000000000000003</ele><time>2026-04-11T08:35:32.001Z</time></trkpt><trkpt lat="44.8972383241422" lon="11.83255102173513"><ele>3.6000000000000005</ele><time>2026-04-11T08:35:34.001Z</time></trkpt><trkpt lat="44.897311094318546" lon="11.832508724693676"><ele>3.4</ele><time>2026-04-11T08:35:37.001Z</time></trkpt><trkpt lat="44.89738052076991" lon="11.832483769138065"><ele>3.2</ele><time>2026-04-11T08:35:45.001Z</time></trkpt><trkpt lat="44.89745582398298" lon="11.832619814535988"><ele>3.0</ele><time>2026-04-11T08:35:50.001Z</time></trkpt><trkpt lat="44.897476013282954" lon="11.832754649869111"><ele>3.0</ele><time>2026-04-11T08:35:51.001Z</time></trkpt><trkpt lat="44.89750551619647" lon="11.832933146830026"><ele>3.0</ele><time>2026-04-11T08:35:52.001Z</time></trkpt><trkpt lat="44.89752847873632" lon="11.833098093882924"><ele>3.0</ele><time>2026-04-11T08:35:53.001Z</time></trkpt><trkpt lat="44.89755833024951" lon="11.83325940392148"><ele>3.0</ele><time>2026-04-11T08:35:54.001Z</time></trkpt><trkpt lat="44.89758225302805" lon="11.833432932769764"><ele>3.25</ele><time>2026-04-11T08:35:55.001Z</time></trkpt><trkpt lat="44.89761412668057" lon="11.833619309467265"><ele>3.5</ele><time>2026-04-11T08:35:56.001Z</time></trkpt><trkpt lat="44.89764518396558" lon="11.833800871695615"><ele>3.75</ele><time>2026-04-11T08:35:57.001Z</time></trkpt><trkpt lat="44.89767244985188" lon="11.833984693650693"><ele>4.0</ele><time>2026-04-11T08:35:58.001Z</time></trkpt><trkpt lat="44.897700603545154" lon="11.834148091876207"><ele>4.0</ele><time>2026-04-11T08:35:59.001Z</time></trkpt><trkpt lat="44.8977376364672" lon="11.834296652449861"><ele>4.0</ele><time>2026-04-11T08:36:00.001Z</time></trkpt><trkpt lat="44.89775697165744" lon="11.834438017121448"><ele>4.0</ele><time>2026-04-11T08:36:01.001Z</time></trkpt><trkpt lat="44.89777971791526" lon="11.834570529025022"><ele>4.0</ele><time>2026-04-11T08:36:02.001Z</time></trkpt><trkpt lat="44.89779876135561" lon="11.834694603610611"><ele>4.0</ele><time>2026-04-11T08:36:03.001Z</time></trkpt><trkpt lat="44.89782067079022" lon="11.834810966310917"><ele>3.8000000000000003</ele><time>2026-04-11T08:36:04.001Z</time></trkpt><trkpt lat="44.89783669421879" lon="11.834913257907802"><ele>3.6000000000000005</ele><time>2026-04-11T08:36:05.001Z</time></trkpt><trkpt lat="44.89785393714132" lon="11.83504660628972"><ele>3.4</ele><time>2026-04-11T08:36:07.002Z</time></trkpt><trkpt lat="44.89781085832853" lon="11.835155115638536"><ele>3.2</ele><time>2026-04-11T08:36:10.002Z</time></trkpt><trkpt lat="44.897755088109086" lon="11.835211715007048"><ele>3.0</ele><time>2026-04-11T08:36:12.002Z</time></trkpt><trkpt lat="44.89761307052729" lon="11.835221689983051"><ele>3.0</ele><time>2026-04-11T08:36:14.002Z</time></trkpt><trkpt lat="44.89752315521268" lon="11.835211596764912"><ele>3.0</ele><time>2026-04-11T08:36:15.002Z</time></trkpt><trkpt lat="44.89743652742314" lon="11.835181781310324"><ele>3.0</ele><time>2026-04-11T08:36:16.002Z</time></trkpt><trkpt lat="44.89733385897078" lon="11.835165395871446"><ele>3.0</ele><time>2026-04-11T08:36:17.002Z</time></trkpt><trkpt lat="44.89723984384339" lon="11.835160696960042"><ele>3.0</ele><time>2026-04-11T08:36:18.002Z</time></trkpt><trkpt lat="44.89713264440508" lon="11.83513846842481"><ele>3.5</ele><time>2026-04-11T08:36:19.002Z</time></trkpt><trkpt lat="44.8970268269905" lon="11.83512324431485"><ele>4.0</ele><time>2026-04-11T08:36:20.002Z</time></trkpt><trkpt lat="44.896914387972735" lon="11.835109323607995"><ele>4.5</ele><time>2026-04-11T08:36:21.002Z</time></trkpt><trkpt lat="44.896794341099714" lon="11.835100862511727"><ele>5.0</ele><time>2026-04-11T08:36:22.002Z</time></trkpt><trkpt lat="44.89666902423793" lon="11.83510581988222"><ele>5.0</ele><time>2026-04-11T08:36:23.002Z</time></trkpt><trkpt lat="44.89654296474378" lon="11.83513512444124"><ele>5.0</ele><time>2026-04-11T08:36:24.002Z</time></trkpt><trkpt lat="44.896416023882516" lon="11.835184503313975"><ele>5.0</ele><time>2026-04-11T08:36:25.002Z</time></trkpt><trkpt lat="44.89628164303955" lon="11.8352360595359"><ele>5.0</ele><time>2026-04-11T08:36:26.002Z</time></trkpt><trkpt lat="44.896157419408546" lon="11.835282980825305"><ele>4.75</ele><time>2026-04-11T08:36:27.002Z</time></trkpt><trkpt lat="44.896024871439884" lon="11.835328656169118"><ele>4.5</ele><time>2026-04-11T08:36:28.002Z</time></trkpt><trkpt lat="44.895880457616066" lon="11.835365179576177"><ele>4.25</ele><time>2026-04-11T08:36:29.002Z</time></trkpt><trkpt lat="44.89574087475109" lon="11.835392746136106"><ele>4.0</ele><time>2026-04-11T08:36:30.002Z</time></trkpt><trkpt lat="44.89559294681722" lon="11.835420597721239"><ele>4.0</ele><time>2026-04-11T08:36:31.002Z</time></trkpt><trkpt lat="44.89545882697116" lon="11.83545186417518"><ele>4.0</ele><time>2026-04-11T08:36:32.002Z</time></trkpt><trkpt lat="44.89532792130927" lon="11.8354859849424"><ele>4.0</ele><time>2026-04-11T08:36:33.002Z</time></trkpt><trkpt lat="44.8952122828003" lon="11.835515611925388"><ele>4.0</ele><time>2026-04-11T08:36:34.002Z</time></trkpt><trkpt lat="44.89512199696008" lon="11.835554534435309"><ele>4.0</ele><time>2026-04-11T08:36:35.002Z</time></trkpt><trkpt lat="44.895030077526854" lon="11.835544481822206"><ele>4.0</ele><time>2026-04-11T08:36:36.002Z</time></trkpt><trkpt lat="44.894934176147636" lon="11.835472011590081"><ele>4.0</ele><time>2026-04-11T08:36:37.002Z</time></trkpt><trkpt lat="44.894860210016894" lon="11.835350897525702"><ele>4.0</ele><time>2026-04-11T08:36:38.002Z</time></trkpt><trkpt lat="44.894807925463304" lon="11.835182297027625"><ele>4.0</ele><time>2026-04-11T08:36:39.002Z</time></trkpt><trkpt lat="44.894757722982604" lon="11.835007686135903"><ele>4.0</ele><time>2026-04-11T08:36:40.002Z</time></trkpt><trkpt lat="44.894702922409714" lon="11.834831857026835"><ele>4.0</ele><time>2026-04-11T08:36:41.002Z</time></trkpt><trkpt lat="44.89464989457306" lon="11.834655620363"><ele>4.0</ele><time>2026-04-11T08:36:42.002Z</time></trkpt><trkpt lat="44.894594395379926" lon="11.834488383272424"><ele>4.0</ele><time>2026-04-11T08:36:43.002Z</time></trkpt><trkpt lat="44.894543120956094" lon="11.83433795630352"><ele>4.0</ele><time>2026-04-11T08:36:44.002Z</time></trkpt><trkpt lat="44.894492340222484" lon="11.834189107279185"><ele>4.0</ele><time>2026-04-11T08:36:45.002Z</time></trkpt><trkpt lat="44.894436584343346" lon="11.834041972883231"><ele>4.0</ele><time>2026-04-11T08:36:46.002Z</time></trkpt><trkpt lat="44.894384669837905" lon="11.833877568534897"><ele>4.0</ele><time>2026-04-11T08:36:47.002Z</time></trkpt><trkpt lat="44.89433057772832" lon="11.833713146716518"><ele>4.0</ele><time>2026-04-11T08:36:48.002Z</time></trkpt><trkpt lat="44.89427619617487" lon="11.833558381098905"><ele>4.0</ele><time>2026-04-11T08:36:49.002Z</time></trkpt><trkpt lat="44.894239414682865" lon="11.83343722039104"><ele>4.0</ele><time>2026-04-11T08:36:50.002Z</time></trkpt><trkpt lat="44.89418798821643" lon="11.833300696658775"><ele>4.0</ele><time>2026-04-11T08:36:51.002Z</time></trkpt><trkpt lat="44.8941519507315" lon="11.833155349191571"><ele>4.0</ele><time>2026-04-11T08:36:52.002Z</time></trkpt><trkpt lat="44.89411504009761" lon="11.833054911366984"><ele>4.0</ele><time>2026-04-11T08:36:53.002Z</time></trkpt><trkpt lat="44.89407258652516" lon="11.832938361107704"><ele>4.0</ele><time>2026-04-11T08:36:54.002Z</time></trkpt><trkpt lat="44.89402493684798" lon="11.832829962461023"><ele>4.0</ele><time>2026-04-11T08:36:55.002Z</time></trkpt><trkpt lat="44.89398977947918" lon="11.832709596785314"><ele>4.0</ele><time>2026-04-11T08:36:56.002Z</time></trkpt><trkpt lat="44.89393996207269" lon="11.832575187221297"><ele>4.0</ele><time>2026-04-11T08:36:57.002Z</time></trkpt><trkpt lat="44.89389621625796" lon="11.832438459461335"><ele>4.0</ele><time>2026-04-11T08:36:58.002Z</time></trkpt><trkpt lat="44.893852234349566" lon="11.832301666553349"><ele>4.0</ele><time>2026-04-11T08:36:59.002Z</time></trkpt><trkpt lat="44.89380071318753" lon="11.832169995495237"><ele>4.0</ele><time>2026-04-11T08:37:00.002Z</time></trkpt><trkpt lat="44.89375348142165" lon="11.832034664421094"><ele>4.0</ele><time>2026-04-11T08:37:01.002Z</time></trkpt><trkpt lat="44.89371770568162" lon="11.831897800043167"><ele>4.0</ele><time>2026-04-11T08:37:02.002Z</time></trkpt><trkpt lat="44.89367125907901" lon="11.83176788557927"><ele>4.166666666666666</ele><time>2026-04-11T08:37:03.002Z</time></trkpt><trkpt lat="44.89363367688304" lon="11.83165018059837"><ele>4.333333333333333</ele><time>2026-04-11T08:37:04.002Z</time></trkpt><trkpt lat="44.89359875363617" lon="11.831556603704662"><ele>4.5</ele><time>2026-04-11T08:37:05.002Z</time></trkpt><trkpt lat="44.89357198890553" lon="11.831469109844829"><ele>4.666666666666667</ele><time>2026-04-11T08:37:06.002Z</time></trkpt><trkpt lat="44.89352628395014" lon="11.831310909755201"><ele>4.833333333333334</ele><time>2026-04-11T08:37:08.002Z</time></trkpt><trkpt lat="44.89348218712554" lon="11.831196471480306"><ele>5.0</ele><time>2026-04-11T08:37:10.002Z</time></trkpt><trkpt lat="44.893456428437084" lon="11.831099318056058"><ele>4.8</ele><time>2026-04-11T08:37:57.002Z</time></trkpt><trkpt lat="44.89342122765175" lon="11.831015102205852"><ele>4.6</ele><time>2026-04-11T08:37:59.002Z</time></trkpt><trkpt lat="44.89335631181435" lon="11.8309047465305"><ele>4.4</ele><time>2026-04-11T08:38:01.002Z</time></trkpt><trkpt lat="44.893330735952226" lon="11.830798070679165"><ele>4.2</ele><time>2026-04-11T08:38:03.002Z</time></trkpt><trkpt lat="44.89325889445629" lon="11.830720244991488"><ele>4.0</ele><time>2026-04-11T08:38:07.002Z</time></trkpt><trkpt lat="44.89312628623395" lon="11.830786824558086"><ele>4.0</ele><time>2026-04-11T08:38:09.002Z</time></trkpt><trkpt lat="44.893044675030666" lon="11.830852926321482"><ele>4.0</ele><time>2026-04-11T08:38:10.002Z</time></trkpt><trkpt lat="44.89296255231913" lon="11.830916634431434"><ele>4.0</ele><time>2026-04-11T08:38:11.002Z</time></trkpt><trkpt lat="44.89285819070517" lon="11.830922400847754"><ele>4.0</ele><time>2026-04-11T08:38:12.002Z</time></trkpt><trkpt lat="44.89275308857839" lon="11.830994281403548"><ele>4.0</ele><time>2026-04-11T08:38:13.002Z</time></trkpt><trkpt lat="44.892638066513314" lon="11.831075470293749"><ele>4.0</ele><time>2026-04-11T08:38:14.002Z</time></trkpt><trkpt lat="44.89253633209732" lon="11.831173264436512"><ele>4.0</ele><time>2026-04-11T08:38:15.002Z</time></trkpt><trkpt lat="44.892447489732575" lon="11.831256775638536"><ele>4.0</ele><time>2026-04-11T08:38:16.002Z</time></trkpt><trkpt lat="44.89235989536956" lon="11.831341534618444"><ele>4.0</ele><time>2026-04-11T08:38:17.002Z</time></trkpt><trkpt lat="44.89226942559316" lon="11.831433409362493"><ele>4.0</ele><time>2026-04-11T08:38:18.002Z</time></trkpt><trkpt lat="44.89217427780287" lon="11.831530276143134"><ele>4.0</ele><time>2026-04-11T08:38:19.002Z</time></trkpt><trkpt lat="44.89207674606947" lon="11.831622990174385"><ele>4.0</ele><time>2026-04-11T08:38:20.002Z</time></trkpt><trkpt lat="44.89199289205647" lon="11.831710507573815"><ele>4.0</ele><time>2026-04-11T08:38:21.002Z</time></trkpt><trkpt lat="44.89191787563581" lon="11.831797422615155"><ele>4.0</ele><time>2026-04-11T08:38:22.002Z</time></trkpt><trkpt lat="44.89182736552223" lon="11.83188007867779"><ele>4.0</ele><time>2026-04-11T08:38:23.002Z</time></trkpt><trkpt lat="44.891743087324556" lon="11.831972453053512"><ele>3.75</ele><time>2026-04-11T08:38:24.002Z</time></trkpt><trkpt lat="44.89164346588105" lon="11.832074059141828"><ele>3.5</ele><time>2026-04-11T08:38:25.002Z</time></trkpt><trkpt lat="44.89153805652841" lon="11.832164285203879"><ele>3.25</ele><time>2026-04-11T08:38:26.002Z</time></trkpt><trkpt lat="44.89142734875496" lon="11.832246841404858"><ele>3.0</ele><time>2026-04-11T08:38:27.002Z</time></trkpt><trkpt lat="44.89131554663809" lon="11.832322421889838"><ele>3.0</ele><time>2026-04-11T08:38:28.002Z</time></trkpt><trkpt lat="44.89118319239213" lon="11.832381498563992"><ele>3.0</ele><time>2026-04-11T08:38:29.002Z</time></trkpt><trkpt lat="44.89105253242349" lon="11.832440802287"><ele>3.0</ele><time>2026-04-11T08:38:30.002Z</time></trkpt><trkpt lat="44.8909313109617" lon="11.83248418772897"><ele>3.0</ele><time>2026-04-11T08:38:31.002Z</time></trkpt><trkpt lat="44.89081434041246" lon="11.832528300742819"><ele>3.0</ele><time>2026-04-11T08:38:32.002Z</time></trkpt><trkpt lat="44.89069093510809" lon="11.83256910891276"><ele>3.0</ele><time>2026-04-11T08:38:33.002Z</time></trkpt><trkpt lat="44.890540042205316" lon="11.832624234809241"><ele>3.0</ele><time>2026-04-11T08:38:34.002Z</time></trkpt><trkpt lat="44.89040501819885" lon="11.832679850111443"><ele>3.0</ele><time>2026-04-11T08:38:35.002Z</time></trkpt><trkpt lat="44.89026273710059" lon="11.83273402568228"><ele>3.25</ele><time>2026-04-11T08:38:36.002Z</time></trkpt><trkpt lat="44.890134071846745" lon="11.832781846563675"><ele>3.5</ele><time>2026-04-11T08:38:37.002Z</time></trkpt><trkpt lat="44.89002212256903" lon="11.832827702350864"><ele>3.75</ele><time>2026-04-11T08:38:38.002Z</time></trkpt><trkpt lat="44.88989870046883" lon="11.832856947369413"><ele>4.0</ele><time>2026-04-11T08:38:39.002Z</time></trkpt><trkpt lat="44.88976426018396" lon="11.832919480950597"><ele>4.0</ele><time>2026-04-11T08:38:40.002Z</time></trkpt><trkpt lat="44.88961847879186" lon="11.832968233782497"><ele>4.0</ele><time>2026-04-11T08:38:41.002Z</time></trkpt><trkpt lat="44.88947275083723" lon="11.833049946702394"><ele>4.0</ele><time>2026-04-11T08:38:42.002Z</time></trkpt><trkpt lat="44.88933310994284" lon="11.83318117623384"><ele>3.6666666666666665</ele><time>2026-04-11T08:38:43.002Z</time></trkpt><trkpt lat="44.88920776387999" lon="11.833353611947214"><ele>3.333333333333333</ele><time>2026-04-11T08:38:44.002Z</time></trkpt><trkpt lat="44.88910208880359" lon="11.833549055559088"><ele>3.0</ele><time>2026-04-11T08:38:45.002Z</time></trkpt><trkpt lat="44.889013860810735" lon="11.833780736726744"><ele>2.6666666666666665</ele><time>2026-04-11T08:38:46.002Z</time></trkpt><trkpt lat="44.888945181054616" lon="11.834032137520952"><ele>2.333333333333333</ele><time>2026-04-11T08:38:47.002Z</time></trkpt><trkpt lat="44.88889206023357" lon="11.83429123143668"><ele>2.0</ele><time>2026-04-11T08:38:48.002Z</time></trkpt><trkpt lat="44.88883941025743" lon="11.834542600607767"><ele>1.6666666666666665</ele><time>2026-04-11T08:38:49.002Z</time></trkpt><trkpt lat="44.88879215270999" lon="11.834786518645524"><ele>1.3333333333333333</ele><time>2026-04-11T08:38:50.002Z</time></trkpt><trkpt lat="44.88873398993347" lon="11.83502779213887"><ele>1.0</ele><time>2026-04-11T08:38:51.002Z</time></trkpt><trkpt lat="44.88866986897972" lon="11.835262903886887"><ele>1.0</ele><time>2026-04-11T08:38:52.002Z</time></trkpt><trkpt lat="44.88858942799169" lon="11.835486187855837"><ele>1.0</ele><time>2026-04-11T08:38:53.002Z</time></trkpt><trkpt lat="44.88849163170229" lon="11.835700959251554"><ele>1.0</ele><time>2026-04-11T08:38:54.002Z</time></trkpt><trkpt lat="44.8883840021919" lon="11.835903479389545"><ele>1.0</ele><time>2026-04-11T08:38:55.002Z</time></trkpt><trkpt lat="44.88826809120305" lon="11.836093319031079"><ele>1.0</ele><time>2026-04-11T08:38:56.002Z</time></trkpt><trkpt lat="44.888155922603616" lon="11.836269463772016"><ele>1.0</ele><time>2026-04-11T08:38:57.002Z</time></trkpt><trkpt lat="44.88805409624317" lon="11.836428952197531"><ele>1.0</ele><time>2026-04-11T08:38:58.002Z</time></trkpt><trkpt lat="44.887970018931135" lon="11.836579576149191"><ele>1.0</ele><time>2026-04-11T08:38:59.002Z</time></trkpt><trkpt lat="44.88788584365529" lon="11.836703118282813"><ele>1.0</ele><time>2026-04-11T08:39:00.002Z</time></trkpt><trkpt lat="44.88779424948522" lon="11.836801159447358"><ele>1.0</ele><time>2026-04-11T08:39:01.002Z</time></trkpt><trkpt lat="44.887707304326334" lon="11.836847777728652"><ele>0.8333333333333333</ele><time>2026-04-11T08:39:02.002Z</time></trkpt><trkpt lat="44.88761189728881" lon="11.836854197086637"><ele>0.6666666666666666</ele><time>2026-04-11T08:39:03.002Z</time></trkpt><trkpt lat="44.88752318818368" lon="11.836847800870302"><ele>0.5</ele><time>2026-04-11T08:39:04.002Z</time></trkpt><trkpt lat="44.88743375972075" lon="11.83682647869104"><ele>0.3333333333333333</ele><time>2026-04-11T08:39:05.002Z</time></trkpt><trkpt lat="44.88734532944908" lon="11.836810315375525"><ele>0.16666666666666666</ele><time>2026-04-11T08:39:06.002Z</time></trkpt><trkpt lat="44.887261329912896" lon="11.836829574325975"><ele>0.0</ele><time>2026-04-11T08:39:07.002Z</time></trkpt><trkpt lat="44.88717748492915" lon="11.836910983775898"><ele>0.0</ele><time>2026-04-11T08:39:08.002Z</time></trkpt><trkpt lat="44.887080594133934" lon="11.837006487776813"><ele>0.0</ele><time>2026-04-11T08:39:09.002Z</time></trkpt><trkpt lat="44.88696270031141" lon="11.837097697939173"><ele>0.0</ele><time>2026-04-11T08:39:10.002Z</time></trkpt><trkpt lat="44.886830641801666" lon="11.837155092368564"><ele>0.0</ele><time>2026-04-11T08:39:11.002Z</time></trkpt><trkpt lat="44.886692907994956" lon="11.837180753763018"><ele>-0.2</ele><time>2026-04-11T08:39:12.002Z</time></trkpt><trkpt lat="44.886573322053515" lon="11.837210643702013"><ele>-0.4</ele><time>2026-04-11T08:39:13.002Z</time></trkpt><trkpt lat="44.88645808563198" lon="11.837228366992091"><ele>-0.6000000000000001</ele><time>2026-04-11T08:39:14.002Z</time></trkpt><trkpt lat="44.88636245073323" lon="11.837249147890677"><ele>-0.8</ele><time>2026-04-11T08:39:15.002Z</time></trkpt><trkpt lat="44.886291012625804" lon="11.83727030211185"><ele>-1.0</ele><time>2026-04-11T08:39:16.002Z</time></trkpt><trkpt lat="44.88622155478157" lon="11.83727980975976"><ele>-0.9999999999999999</ele><time>2026-04-11T08:39:17.002Z</time></trkpt><trkpt lat="44.886137121031304" lon="11.837241342604704"><ele>-1.0</ele><time>2026-04-11T08:39:19.002Z</time></trkpt><trkpt lat="44.88606167059567" lon="11.83719536742528"><ele>-1.0</ele><time>2026-04-11T08:39:22.002Z</time></trkpt><trkpt lat="44.885945642455376" lon="11.837191583514075"><ele>-1.0</ele><time>2026-04-11T08:42:46.003Z</time></trkpt><trkpt lat="44.885891060749856" lon="11.837248780021934"><ele>-0.9999999999999999</ele><time>2026-04-11T08:42:49.003Z</time></trkpt><trkpt lat="44.885853483339176" lon="11.837326789346976"><ele>-1.0</ele><time>2026-04-11T08:42:52.003Z</time></trkpt><trkpt lat="44.885796537002484" lon="11.837419794306754"><ele>-0.75</ele><time>2026-04-11T08:42:54.003Z</time></trkpt><trkpt lat="44.88571694784751" lon="11.837462654455514"><ele>-0.5</ele><time>2026-04-11T08:42:55.003Z</time></trkpt><trkpt lat="44.88560004432169" lon="11.837478584739062"><ele>-0.25</ele><time>2026-04-11T08:42:56.003Z</time></trkpt><trkpt lat="44.885470486416914" lon="11.83749856035049"><ele>0.0</ele><time>2026-04-11T08:42:57.003Z</time></trkpt><trkpt lat="44.885333292998155" lon="11.837464656021194"><ele>0.0</ele><time>2026-04-11T08:42:58.003Z</time></trkpt><trkpt lat="44.88518995356024" lon="11.837497430739443"><ele>0.0</ele><time>2026-04-11T08:42:59.003Z</time></trkpt><trkpt lat="44.88503289165808" lon="11.83753391937625"><ele>0.0</ele><time>2026-04-11T08:43:00.003Z</time></trkpt><trkpt lat="44.88486722508416" lon="11.837610064901767"><ele>0.6666666666666666</ele><time>2026-04-11T08:43:01.003Z</time></trkpt><trkpt lat="44.88467817945549" lon="11.83763847232026"><ele>1.3333333333333333</ele><time>2026-04-11T08:43:02.003Z</time></trkpt><trkpt lat="44.884485492748524" lon="11.837680322415599"><ele>2.0</ele><time>2026-04-11T08:43:03.003Z</time></trkpt><trkpt lat="44.88429117811306" lon="11.837745353646996"><ele>2.0</ele><time>2026-04-11T08:43:04.003Z</time></trkpt><trkpt lat="44.88408665378703" lon="11.837797329761656"><ele>2.0</ele><time>2026-04-11T08:43:05.003Z</time></trkpt><trkpt lat="44.88387640964085" lon="11.837845089040458"><ele>2.0</ele><time>2026-04-11T08:43:06.003Z</time></trkpt><trkpt lat="44.883663734110016" lon="11.8379012749484"><ele>2.0</ele><time>2026-04-11T08:43:07.003Z</time></trkpt><trkpt lat="44.88345184971696" lon="11.837953748926454"><ele>2.0</ele><time>2026-04-11T08:43:08.003Z</time></trkpt><trkpt lat="44.883250714323154" lon="11.83802608560786"><ele>2.0</ele><time>2026-04-11T08:43:09.003Z</time></trkpt><trkpt lat="44.88306029604887" lon="11.83811678197683"><ele>2.0</ele><time>2026-04-11T08:43:10.003Z</time></trkpt><trkpt lat="44.882862104892254" lon="11.838223109825742"><ele>2.0</ele><time>2026-04-11T08:43:11.003Z</time></trkpt><trkpt lat="44.88267033063833" lon="11.838304315484056"><ele>2.0</ele><time>2026-04-11T08:43:12.003Z</time></trkpt><trkpt lat="44.882493970902026" lon="11.83839459363121"><ele>1.6666666666666665</ele><time>2026-04-11T08:43:13.003Z</time></trkpt><trkpt lat="44.88232317733957" lon="11.83847494590803"><ele>1.3333333333333333</ele><time>2026-04-11T08:43:14.003Z</time></trkpt><trkpt lat="44.88215514609715" lon="11.838560052255435"><ele>1.0</ele><time>2026-04-11T08:43:15.003Z</time></trkpt><trkpt lat="44.881983749768835" lon="11.838654338316466"><ele>1.0</ele><time>2026-04-11T08:43:16.003Z</time></trkpt><trkpt lat="44.88181979123289" lon="11.838742854430848"><ele>1.0</ele><time>2026-04-11T08:43:17.003Z</time></trkpt><trkpt lat="44.88164083315852" lon="11.83884301948574"><ele>1.0</ele><time>2026-04-11T08:43:18.003Z</time></trkpt><trkpt lat="44.88144225735649" lon="11.838942014344092"><ele>1.0</ele><time>2026-04-11T08:43:19.003Z</time></trkpt><trkpt lat="44.88123551146839" lon="11.839036430584581"><ele>1.0</ele><time>2026-04-11T08:43:20.003Z</time></trkpt><trkpt lat="44.88103262010472" lon="11.83914063211012"><ele>1.0</ele><time>2026-04-11T08:43:21.003Z</time></trkpt><trkpt lat="44.88084049603665" lon="11.839240831101087"><ele>1.0</ele><time>2026-04-11T08:43:22.003Z</time></trkpt><trkpt lat="44.880650198741264" lon="11.83933243791625"><ele>1.0</ele><time>2026-04-11T08:43:23.003Z</time></trkpt><trkpt lat="44.88047361641157" lon="11.839425384587365"><ele>1.0</ele><time>2026-04-11T08:43:24.003Z</time></trkpt><trkpt lat="44.880298714744804" lon="11.839506998613652"><ele>1.0</ele><time>2026-04-11T08:43:25.003Z</time></trkpt><trkpt lat="44.8801314415938" lon="11.839589284405685"><ele>1.0</ele><time>2026-04-11T08:43:26.003Z</time></trkpt><trkpt lat="44.87996554244152" lon="11.839683118944071"><ele>1.0</ele><time>2026-04-11T08:43:27.003Z</time></trkpt><trkpt lat="44.879795114768434" lon="11.839775135707027"><ele>0.6666666666666666</ele><time>2026-04-11T08:43:28.003Z</time></trkpt><trkpt lat="44.87963130452984" lon="11.839850271451947"><ele>0.3333333333333333</ele><time>2026-04-11T08:43:29.003Z</time></trkpt><trkpt lat="44.87947238545043" lon="11.839903451404389"><ele>0.0</ele><time>2026-04-11T08:43:30.003Z</time></trkpt><trkpt lat="44.87930685712241" lon="11.839942844611292"><ele>-0.3333333333333333</ele><time>2026-04-11T08:43:31.003Z</time></trkpt><trkpt lat="44.87914055408539" lon="11.83999429023079"><ele>-0.6666666666666666</ele><time>2026-04-11T08:43:32.003Z</time></trkpt><trkpt lat="44.87898242077215" lon="11.84004046459887"><ele>-1.0</ele><time>2026-04-11T08:43:33.003Z</time></trkpt><trkpt lat="44.87882828089837" lon="11.840061928633409"><ele>-1.0</ele><time>2026-04-11T08:43:34.003Z</time></trkpt><trkpt lat="44.87867636663796" lon="11.840080082643594"><ele>-1.0</ele><time>2026-04-11T08:43:35.003Z</time></trkpt><trkpt lat="44.878520558683995" lon="11.840066343949617"><ele>-1.0</ele><time>2026-04-11T08:43:36.003Z</time></trkpt><trkpt lat="44.87836571557002" lon="11.840036155653136"><ele>-0.3333333333333333</ele><time>2026-04-11T08:43:37.003Z</time></trkpt><trkpt lat="44.87820712991586" lon="11.839978247774026"><ele>0.3333333333333333</ele><time>2026-04-11T08:43:38.003Z</time></trkpt><trkpt lat="44.87805475367109" lon="11.839904578278077"><ele>1.0</ele><time>2026-04-11T08:43:39.003Z</time></trkpt><trkpt lat="44.87789528779632" lon="11.839818802044196"><ele>1.0</ele><time>2026-04-11T08:43:40.003Z</time></trkpt><trkpt lat="44.877739461661925" lon="11.839710126774406"><ele>1.0</ele><time>2026-04-11T08:43:41.003Z</time></trkpt><trkpt lat="44.87758321829005" lon="11.83961115867732"><ele>1.0</ele><time>2026-04-11T08:43:42.003Z</time></trkpt><trkpt lat="44.87741800921468" lon="11.839470756125861"><ele>1.5</ele><time>2026-04-11T08:43:43.003Z</time></trkpt><trkpt lat="44.877211726725115" lon="11.839358523320977"><ele>2.0</ele><time>2026-04-11T08:43:44.003Z</time></trkpt><trkpt lat="44.87699151484152" lon="11.839267857677207"><ele>2.0</ele><time>2026-04-11T08:43:45.003Z</time></trkpt><trkpt lat="44.87676512408512" lon="11.839188651872249"><ele>2.0</ele><time>2026-04-11T08:43:46.003Z</time></trkpt><trkpt lat="44.87654409080627" lon="11.839113858411446"><ele>2.0</ele><time>2026-04-11T08:43:47.003Z</time></trkpt><trkpt lat="44.87633885732877" lon="11.839042708447646"><ele>2.0</ele><time>2026-04-11T08:43:48.003Z</time></trkpt><trkpt lat="44.876145523232445" lon="11.838953247616367"><ele>2.0</ele><time>2026-04-11T08:43:49.003Z</time></trkpt><trkpt lat="44.87595858783335" lon="11.838852613378087"><ele>1.3333333333333333</ele><time>2026-04-11T08:43:50.003Z</time></trkpt><trkpt lat="44.87579010469938" lon="11.838745020713699"><ele>0.6666666666666666</ele><time>2026-04-11T08:43:51.003Z</time></trkpt><trkpt lat="44.875631391293645" lon="11.838620557670003"><ele>0.0</ele><time>2026-04-11T08:43:52.003Z</time></trkpt><trkpt lat="44.87549259641105" lon="11.838470284525803"><ele>0.3333333333333333</ele><time>2026-04-11T08:43:53.003Z</time></trkpt><trkpt lat="44.87537729297217" lon="11.838296425109238"><ele>0.6666666666666666</ele><time>2026-04-11T08:43:54.003Z</time></trkpt><trkpt lat="44.87524934211755" lon="11.838109318206001"><ele>1.0</ele><time>2026-04-11T08:43:55.003Z</time></trkpt><trkpt lat="44.87512033518866" lon="11.837904800872085"><ele>1.3333333333333333</ele><time>2026-04-11T08:43:56.003Z</time></trkpt><trkpt lat="44.8749671150973" lon="11.837708077802603"><ele>1.6666666666666665</ele><time>2026-04-11T08:43:57.003Z</time></trkpt><trkpt lat="44.87480335716624" lon="11.83752664293485"><ele>2.0</ele><time>2026-04-11T08:43:58.003Z</time></trkpt><trkpt lat="44.87463526788038" lon="11.837347212389368"><ele>2.333333333333333</ele><time>2026-04-11T08:43:59.003Z</time></trkpt><trkpt lat="44.8744688343789" lon="11.837176327099511"><ele>2.6666666666666665</ele><time>2026-04-11T08:44:00.003Z</time></trkpt><trkpt lat="44.87431051393592" lon="11.837014833674376"><ele>3.0</ele><time>2026-04-11T08:44:01.003Z</time></trkpt><trkpt lat="44.87415273810965" lon="11.8368509268719"><ele>2.3333333333333335</ele><time>2026-04-11T08:44:02.003Z</time></trkpt><trkpt lat="44.87400473863743" lon="11.836690840663737"><ele>1.6666666666666665</ele><time>2026-04-11T08:44:03.003Z</time></trkpt><trkpt lat="44.873860325717594" lon="11.836529941390298"><ele>1.0</ele><time>2026-04-11T08:44:04.003Z</time></trkpt><trkpt lat="44.87371655067083" lon="11.836378969433063"><ele>1.0</ele><time>2026-04-11T08:44:05.003Z</time></trkpt><trkpt lat="44.87356596016991" lon="11.836230552133284"><ele>1.0</ele><time>2026-04-11T08:44:06.003Z</time></trkpt><trkpt lat="44.873408628764324" lon="11.836067375231899"><ele>1.0</ele><time>2026-04-11T08:44:07.003Z</time></trkpt><trkpt lat="44.87324086653403" lon="11.835891864441155"><ele>0.6666666666666666</ele><time>2026-04-11T08:44:08.003Z</time></trkpt><trkpt lat="44.87306902258492" lon="11.835716001464103"><ele>0.3333333333333333</ele><time>2026-04-11T08:44:09.003Z</time></trkpt><trkpt lat="44.87289813133221" lon="11.835541863211008"><ele>0.0</ele><time>2026-04-11T08:44:10.003Z</time></trkpt><trkpt lat="44.87272987190414" lon="11.83536858884812"><ele>0.0</ele><time>2026-04-11T08:44:11.003Z</time></trkpt><trkpt lat="44.87257016021037" lon="11.835185959530387"><ele>0.0</ele><time>2026-04-11T08:44:12.003Z</time></trkpt><trkpt lat="44.872401623556954" lon="11.835039150208443"><ele>0.0</ele><time>2026-04-11T08:44:13.003Z</time></trkpt><trkpt lat="44.872248134786275" lon="11.834877575144397"><ele>0.0</ele><time>2026-04-11T08:44:14.003Z</time></trkpt><trkpt lat="44.8721140610607" lon="11.83468890380603"><ele>0.0</ele><time>2026-04-11T08:44:15.003Z</time></trkpt><trkpt lat="44.87197463555718" lon="11.834547178338045"><ele>0.0</ele><time>2026-04-11T08:44:16.003Z</time></trkpt><trkpt lat="44.87184708463361" lon="11.834428621974897"><ele>0.5</ele><time>2026-04-11T08:44:17.003Z</time></trkpt><trkpt lat="44.87171789468748" lon="11.834339368258322"><ele>1.0</ele><time>2026-04-11T08:44:18.003Z</time></trkpt><trkpt lat="44.87157839349627" lon="11.83426530840033"><ele>1.5</ele><time>2026-04-11T08:44:19.003Z</time></trkpt><trkpt lat="44.87143166365927" lon="11.834201129371387"><ele>2.0</ele><time>2026-04-11T08:44:20.003Z</time></trkpt><trkpt lat="44.871292099086816" lon="11.834124936944594"><ele>2.0</ele><time>2026-04-11T08:44:21.003Z</time></trkpt><trkpt lat="44.87116303225406" lon="11.834061462209682"><ele>2.0</ele><time>2026-04-11T08:44:22.003Z</time></trkpt><trkpt lat="44.871045003103376" lon="11.833992057545046"><ele>2.0</ele><time>2026-04-11T08:44:23.003Z</time></trkpt><trkpt lat="44.8709274674023" lon="11.83391221720077"><ele>2.0</ele><time>2026-04-11T08:44:24.003Z</time></trkpt><trkpt lat="44.87082266468334" lon="11.833819804865751"><ele>2.0</ele><time>2026-04-11T08:44:25.003Z</time></trkpt><trkpt lat="44.87071395869706" lon="11.833737832046866"><ele>2.0</ele><time>2026-04-11T08:44:26.003Z</time></trkpt><trkpt lat="44.87060218851246" lon="11.833621390262572"><ele>2.0</ele><time>2026-04-11T08:44:27.003Z</time></trkpt><trkpt lat="44.870480761397666" lon="11.83351854766485"><ele>2.0</ele><time>2026-04-11T08:44:28.003Z</time></trkpt><trkpt lat="44.87036622831405" lon="11.833397916862904"><ele>2.0</ele><time>2026-04-11T08:44:29.003Z</time></trkpt><trkpt lat="44.87023893306353" lon="11.833286273486765"><ele>2.0</ele><time>2026-04-11T08:44:30.003Z</time></trkpt><trkpt lat="44.87011535374554" lon="11.833180689335745"><ele>2.0</ele><time>2026-04-11T08:44:31.003Z</time></trkpt><trkpt lat="44.86998974867648" lon="11.833074434509012"><ele>2.0</ele><time>2026-04-11T08:44:32.003Z</time></trkpt><trkpt lat="44.86986345486958" lon="11.832968353921162"><ele>2.25</ele><time>2026-04-11T08:44:33.003Z</time></trkpt><trkpt lat="44.86973412127142" lon="11.832860552491432"><ele>2.5</ele><time>2026-04-11T08:44:34.003Z</time></trkpt><trkpt lat="44.86960683196464" lon="11.832755132933585"><ele>2.75</ele><time>2026-04-11T08:44:35.003Z</time></trkpt><trkpt lat="44.869481902902486" lon="11.832653882056857"><ele>3.0</ele><time>2026-04-11T08:44:36.003Z</time></trkpt><trkpt lat="44.86935936534612" lon="11.83255593790301"><ele>2.75</ele><time>2026-04-11T08:44:37.003Z</time></trkpt><trkpt lat="44.86923672919996" lon="11.832454127055165"><ele>2.5</ele><time>2026-04-11T08:44:38.003Z</time></trkpt><trkpt lat="44.86911227955097" lon="11.832344919326497"><ele>2.25</ele><time>2026-04-11T08:44:39.003Z</time></trkpt><trkpt lat="44.86898054069195" lon="11.832223675889807"><ele>2.0</ele><time>2026-04-11T08:44:40.003Z</time></trkpt><trkpt lat="44.868857200112" lon="11.832105819881175"><ele>2.0</ele><time>2026-04-11T08:44:41.003Z</time></trkpt><trkpt lat="44.86874463405788" lon="11.831955361957053"><ele>2.0</ele><time>2026-04-11T08:44:42.003Z</time></trkpt><trkpt lat="44.86862277363696" lon="11.831808909068362"><ele>2.0</ele><time>2026-04-11T08:44:43.003Z</time></trkpt><trkpt lat="44.86849375885757" lon="11.831653246058696"><ele>2.0</ele><time>2026-04-11T08:44:44.003Z</time></trkpt><trkpt lat="44.868360143814485" lon="11.831490746302114"><ele>2.0</ele><time>2026-04-11T08:44:45.003Z</time></trkpt><trkpt lat="44.868226153938124" lon="11.831327791043895"><ele>2.0</ele><time>2026-04-11T08:44:46.003Z</time></trkpt><trkpt lat="44.86809877975935" lon="11.83117288170004"><ele>2.0</ele><time>2026-04-11T08:44:47.003Z</time></trkpt><trkpt lat="44.86797263297907" lon="11.831019734831692"><ele>2.0</ele><time>2026-04-11T08:44:48.003Z</time></trkpt><trkpt lat="44.86784685496355" lon="11.830875529448488"><ele>2.0</ele><time>2026-04-11T08:44:49.003Z</time></trkpt><trkpt lat="44.867715826768" lon="11.830744975964446"><ele>2.0</ele><time>2026-04-11T08:44:50.003Z</time></trkpt><trkpt lat="44.867568045309554" lon="11.830639254902332"><ele>2.0</ele><time>2026-04-11T08:44:51.003Z</time></trkpt><trkpt lat="44.86742276138195" lon="11.830565008325877"><ele>2.0</ele><time>2026-04-11T08:44:52.003Z</time></trkpt><trkpt lat="44.867253458818745" lon="11.83050487188895"><ele>2.0</ele><time>2026-04-11T08:44:53.003Z</time></trkpt><trkpt lat="44.86706064419862" lon="11.830504436540666"><ele>2.0</ele><time>2026-04-11T08:44:54.003Z</time></trkpt><trkpt lat="44.866866201165486" lon="11.830542936306948"><ele>2.0</ele><time>2026-04-11T08:44:55.003Z</time></trkpt><trkpt lat="44.86668129466922" lon="11.830595612542341"><ele>1.6666666666666665</ele><time>2026-04-11T08:44:56.003Z</time></trkpt><trkpt lat="44.86649927116366" lon="11.830655710483354"><ele>1.3333333333333333</ele><time>2026-04-11T08:44:57.003Z</time></trkpt><trkpt lat="44.8663035255351" lon="11.830735663089081"><ele>1.0</ele><time>2026-04-11T08:44:58.003Z</time></trkpt><trkpt lat="44.86611149348126" lon="11.83083580916048"><ele>1.0</ele><time>2026-04-11T08:44:59.003Z</time></trkpt><trkpt lat="44.86590962222534" lon="11.830943037298793"><ele>1.0</ele><time>2026-04-11T08:45:00.003Z</time></trkpt><trkpt lat="44.865718544109214" lon="11.831041760019808"><ele>1.0</ele><time>2026-04-11T08:45:01.003Z</time></trkpt><trkpt lat="44.865522679719675" lon="11.831137139812729"><ele>1.0</ele><time>2026-04-11T08:45:02.003Z</time></trkpt><trkpt lat="44.86535596467099" lon="11.831224660677853"><ele>1.0</ele><time>2026-04-11T08:45:03.003Z</time></trkpt><trkpt lat="44.86520175285042" lon="11.831253981039582"><ele>1.0</ele><time>2026-04-11T08:45:04.003Z</time></trkpt><trkpt lat="44.865079955691165" lon="11.83127265494197"><ele>0.9999999999999999</ele><time>2026-04-11T08:45:05.003Z</time></trkpt><trkpt lat="44.86496814882619" lon="11.83128528401835"><ele>1.0</ele><time>2026-04-11T08:45:06.003Z</time></trkpt><trkpt lat="44.86488196500848" lon="11.831272166529638"><ele>1.0</ele><time>2026-04-11T08:45:07.003Z</time></trkpt><trkpt lat="44.86480891930628" lon="11.83127412768696"><ele>1.0</ele><time>2026-04-11T08:45:08.003Z</time></trkpt><trkpt lat="44.86470623262485" lon="11.831260318167168"><ele>0.9999999999999999</ele><time>2026-04-11T08:45:10.003Z</time></trkpt><trkpt lat="44.864641117272974" lon="11.831251985846079"><ele>1.0</ele><time>2026-04-11T08:45:12.003Z</time></trkpt><trkpt lat="44.864560720742745" lon="11.83124177260834"><ele>1.0</ele><time>2026-04-11T08:45:38.003Z</time></trkpt><trkpt lat="44.864452883026544" lon="11.831258514239776"><ele>1.0</ele><time>2026-04-11T08:45:40.003Z</time></trkpt><trkpt lat="44.86435719978126" lon="11.831254621224467"><ele>1.0</ele><time>2026-04-11T08:45:41.003Z</time></trkpt><trkpt lat="44.86421859154876" lon="11.831237603622272"><ele>1.0</ele><time>2026-04-11T08:45:42.003Z</time></trkpt><trkpt lat="44.86407684018465" lon="11.831241552067715"><ele>1.0</ele><time>2026-04-11T08:45:43.003Z</time></trkpt><trkpt lat="44.86391318508376" lon="11.83125125315015"><ele>1.0</ele><time>2026-04-11T08:45:44.003Z</time></trkpt><trkpt lat="44.86372771332965" lon="11.831262959902848"><ele>1.0</ele><time>2026-04-11T08:45:45.003Z</time></trkpt><trkpt lat="44.863528302932664" lon="11.831271337331197"><ele>0.6666666666666666</ele><time>2026-04-11T08:45:46.003Z</time></trkpt><trkpt lat="44.86331411972049" lon="11.831277782538013"><ele>0.3333333333333333</ele><time>2026-04-11T08:45:47.003Z</time></trkpt><trkpt lat="44.86310230998102" lon="11.831283722487301"><ele>0.0</ele><time>2026-04-11T08:45:48.003Z</time></trkpt><trkpt lat="44.86288943858481" lon="11.831289863032326"><ele>0.0</ele><time>2026-04-11T08:45:49.003Z</time></trkpt><trkpt lat="44.862668169457066" lon="11.83131916476605"><ele>0.0</ele><time>2026-04-11T08:45:50.003Z</time></trkpt><trkpt lat="44.86244711663337" lon="11.831322561033968"><ele>0.0</ele><time>2026-04-11T08:45:51.003Z</time></trkpt><trkpt lat="44.86222757485808" lon="11.831327707010832"><ele>0.0</ele><time>2026-04-11T08:45:52.003Z</time></trkpt><trkpt lat="44.86201229608985" lon="11.831333166003382"><ele>0.0</ele><time>2026-04-11T08:45:53.003Z</time></trkpt><trkpt lat="44.861800384096" lon="11.831391990059501"><ele>0.0</ele><time>2026-04-11T08:45:54.003Z</time></trkpt><trkpt lat="44.86158458546956" lon="11.831490796549023"><ele>-0.5</ele><time>2026-04-11T08:45:55.003Z</time></trkpt><trkpt lat="44.861371759630686" lon="11.831627395832568"><ele>-1.0</ele><time>2026-04-11T08:45:56.003Z</time></trkpt><trkpt lat="44.86117288543284" lon="11.831806132667923"><ele>-0.5</ele><time>2026-04-11T08:45:57.003Z</time></trkpt><trkpt lat="44.86098034589659" lon="11.832025969655867"><ele>0.0</ele><time>2026-04-11T08:45:58.003Z</time></trkpt><trkpt lat="44.86078939320568" lon="11.832271926658434"><ele>0.0</ele><time>2026-04-11T08:45:59.003Z</time></trkpt><trkpt lat="44.86060019735709" lon="11.832527257660377"><ele>0.0</ele><time>2026-04-11T08:46:00.003Z</time></trkpt><trkpt lat="44.860403723202104" lon="11.832789853590628"><ele>0.0</ele><time>2026-04-11T08:46:01.003Z</time></trkpt><trkpt lat="44.86022052583006" lon="11.83306821475201"><ele>0.0</ele><time>2026-04-11T08:46:02.003Z</time></trkpt><trkpt lat="44.86002795742121" lon="11.833321398071867"><ele>0.5</ele><time>2026-04-11T08:46:03.003Z</time></trkpt><trkpt lat="44.85983558399728" lon="11.833567951701"><ele>1.0</ele><time>2026-04-11T08:46:04.003Z</time></trkpt><trkpt lat="44.85962971941174" lon="11.833796175953138"><ele>1.0</ele><time>2026-04-11T08:46:05.003Z</time></trkpt><trkpt lat="44.859402856235334" lon="11.833986921488597"><ele>1.0</ele><time>2026-04-11T08:46:06.003Z</time></trkpt><trkpt lat="44.85916909305998" lon="11.834186905886144"><ele>1.0</ele><time>2026-04-11T08:46:07.003Z</time></trkpt><trkpt lat="44.85892841490041" lon="11.834387774212987"><ele>1.0</ele><time>2026-04-11T08:46:08.003Z</time></trkpt><trkpt lat="44.85869510701783" lon="11.834583366545493"><ele>1.0</ele><time>2026-04-11T08:46:09.003Z</time></trkpt><trkpt lat="44.85847931727315" lon="11.834760916094234"><ele>1.0</ele><time>2026-04-11T08:46:10.003Z</time></trkpt><trkpt lat="44.85827486880891" lon="11.83491992661455"><ele>2.0</ele><time>2026-04-11T08:46:11.003Z</time></trkpt><trkpt lat="44.858072178207436" lon="11.835042348454083"><ele>3.0</ele><time>2026-04-11T08:46:12.003Z</time></trkpt><trkpt lat="44.85784997275252" lon="11.835131827412368"><ele>3.0</ele><time>2026-04-11T08:46:13.003Z</time></trkpt><trkpt lat="44.85761647232139" lon="11.83522076505432"><ele>3.0</ele><time>2026-04-11T08:46:14.003Z</time></trkpt><trkpt lat="44.857375448946584" lon="11.835261441915621"><ele>3.0</ele><time>2026-04-11T08:46:15.003Z</time></trkpt><trkpt lat="44.85712532636132" lon="11.83526727217486"><ele>3.0</ele><time>2026-04-11T08:46:16.003Z</time></trkpt><trkpt lat="44.8568812977758" lon="11.83523498878612"><ele>2.0</ele><time>2026-04-11T08:46:17.003Z</time></trkpt><trkpt lat="44.85663392028272" lon="11.835169180650228"><ele>1.0</ele><time>2026-04-11T08:46:18.003Z</time></trkpt><trkpt lat="44.856388361574126" lon="11.83508163403883"><ele>0.5</ele><time>2026-04-11T08:46:19.003Z</time></trkpt><trkpt lat="44.85614749391805" lon="11.834929642988303"><ele>0.0</ele><time>2026-04-11T08:46:20.003Z</time></trkpt><trkpt lat="44.85590922705414" lon="11.834755173614521"><ele>0.0</ele><time>2026-04-11T08:46:21.003Z</time></trkpt><trkpt lat="44.85567180773299" lon="11.834563934393678"><ele>0.0</ele><time>2026-04-11T08:46:22.003Z</time></trkpt><trkpt lat="44.85542429800862" lon="11.834387643642485"><ele>0.5</ele><time>2026-04-11T08:46:23.003Z</time></trkpt><trkpt lat="44.85520325117504" lon="11.834201203069018"><ele>1.0</ele><time>2026-04-11T08:46:24.003Z</time></trkpt><trkpt lat="44.85498872889287" lon="11.83402972446752"><ele>1.0</ele><time>2026-04-11T08:46:25.003Z</time></trkpt><trkpt lat="44.8547830211779" lon="11.833863246921936"><ele>1.0</ele><time>2026-04-11T08:46:26.003Z</time></trkpt><trkpt lat="44.85458162218661" lon="11.83367020106274"><ele>1.0</ele><time>2026-04-11T08:46:27.003Z</time></trkpt><trkpt lat="44.85437166287479" lon="11.833496935873988"><ele>1.0</ele><time>2026-04-11T08:46:28.003Z</time></trkpt><trkpt lat="44.85416338490568" lon="11.833325058183915"><ele>1.5</ele><time>2026-04-11T08:46:29.003Z</time></trkpt><trkpt lat="44.85395451332731" lon="11.833152690628491"><ele>2.0</ele><time>2026-04-11T08:46:30.003Z</time></trkpt><trkpt lat="44.85375382673335" lon="11.832987077585036"><ele>2.0</ele><time>2026-04-11T08:46:31.003Z</time></trkpt><trkpt lat="44.85354372237415" lon="11.8328136927006"><ele>2.0</ele><time>2026-04-11T08:46:32.003Z</time></trkpt><trkpt lat="44.85331604013732" lon="11.832625801984001"><ele>1.5</ele><time>2026-04-11T08:46:33.003Z</time></trkpt><trkpt lat="44.853076110105036" lon="11.83242921671005"><ele>1.0</ele><time>2026-04-11T08:46:34.003Z</time></trkpt><trkpt lat="44.85283258904912" lon="11.832230082210918"><ele>1.0</ele><time>2026-04-11T08:46:35.003Z</time></trkpt><trkpt lat="44.85259052225443" lon="11.832030860235541"><ele>1.0</ele><time>2026-04-11T08:46:36.003Z</time></trkpt><trkpt lat="44.8523527861729" lon="11.831835204298688"><ele>1.0</ele><time>2026-04-11T08:46:37.003Z</time></trkpt><trkpt lat="44.85212439689723" lon="11.831672279660019"><ele>1.0</ele><time>2026-04-11T08:46:38.003Z</time></trkpt><trkpt lat="44.85192013130019" lon="11.831498333891918"><ele>1.0</ele><time>2026-04-11T08:46:39.003Z</time></trkpt><trkpt lat="44.85172835910785" lon="11.831334382237653"><ele>1.0</ele><time>2026-04-11T08:46:40.003Z</time></trkpt><trkpt lat="44.851553305372136" lon="11.831184165981911"><ele>1.0</ele><time>2026-04-11T08:46:41.003Z</time></trkpt><trkpt lat="44.85138329422354" lon="11.831049799735462"><ele>1.0</ele><time>2026-04-11T08:46:42.003Z</time></trkpt><trkpt lat="44.85121421528068" lon="11.830928585132932"><ele>1.0</ele><time>2026-04-11T08:46:43.003Z</time></trkpt><trkpt lat="44.851031291607526" lon="11.830830880121207"><ele>1.0</ele><time>2026-04-11T08:46:44.003Z</time></trkpt><trkpt lat="44.85086237362444" lon="11.830761626316493"><ele>1.0</ele><time>2026-04-11T08:46:45.003Z</time></trkpt><trkpt lat="44.85070169610488" lon="11.830719218462047"><ele>1.0</ele><time>2026-04-11T08:46:46.003Z</time></trkpt><trkpt lat="44.850540583806094" lon="11.830696524548634"><ele>1.0</ele><time>2026-04-11T08:46:47.003Z</time></trkpt><trkpt lat="44.85036925445438" lon="11.83068831715923"><ele>1.0</ele><time>2026-04-11T08:46:48.003Z</time></trkpt><trkpt lat="44.85018900236614" lon="11.830706362284687"><ele>1.0</ele><time>2026-04-11T08:46:49.003Z</time></trkpt><trkpt lat="44.84998769796267" lon="11.830771521713134"><ele>1.0</ele><time>2026-04-11T08:46:50.003Z</time></trkpt><trkpt lat="44.84975790643376" lon="11.830867959261042"><ele>1.0</ele><time>2026-04-11T08:46:51.003Z</time></trkpt><trkpt lat="44.84951594395598" lon="11.830978719189115"><ele>1.0</ele><time>2026-04-11T08:46:52.003Z</time></trkpt><trkpt lat="44.84926814821714" lon="11.831091972679626"><ele>1.0</ele><time>2026-04-11T08:46:53.003Z</time></trkpt><trkpt lat="44.849015135118876" lon="11.831191413893022"><ele>1.0</ele><time>2026-04-11T08:46:54.003Z</time></trkpt><trkpt lat="44.84875886207029" lon="11.831301638296386"><ele>1.0</ele><time>2026-04-11T08:46:55.004Z</time></trkpt><trkpt lat="44.84849981779968" lon="11.831431401312184"><ele>1.0</ele><time>2026-04-11T08:46:56.004Z</time></trkpt><trkpt lat="44.84824318333478" lon="11.831588119744527"><ele>1.0</ele><time>2026-04-11T08:46:57.004Z</time></trkpt><trkpt lat="44.84798786680403" lon="11.831761968258549"><ele>1.0</ele><time>2026-04-11T08:46:58.004Z</time></trkpt><trkpt lat="44.847746820430245" lon="11.831943627223229"><ele>1.5</ele><time>2026-04-11T08:46:59.004Z</time></trkpt><trkpt lat="44.84752994407762" lon="11.832140378426546"><ele>2.0</ele><time>2026-04-11T08:47:00.004Z</time></trkpt><trkpt lat="44.8473315372288" lon="11.832334043843364"><ele>2.0</ele><time>2026-04-11T08:47:01.004Z</time></trkpt><trkpt lat="44.84714451594039" lon="11.832528149666157"><ele>2.0</ele><time>2026-04-11T08:47:02.004Z</time></trkpt><trkpt lat="44.8469776404018" lon="11.832730850638354"><ele>2.0</ele><time>2026-04-11T08:47:03.004Z</time></trkpt><trkpt lat="44.84683958870217" lon="11.832958351286502"><ele>2.0</ele><time>2026-04-11T08:47:04.004Z</time></trkpt><trkpt lat="44.846731742995914" lon="11.833227946271549"><ele>2.0</ele><time>2026-04-11T08:47:05.004Z</time></trkpt><trkpt lat="44.84666117178955" lon="11.833524691944994"><ele>2.0</ele><time>2026-04-11T08:47:06.004Z</time></trkpt><trkpt lat="44.84659667840349" lon="11.833850083415504"><ele>2.0</ele><time>2026-04-11T08:47:07.004Z</time></trkpt><trkpt lat="44.846534407981096" lon="11.834193590908033"><ele>1.5</ele><time>2026-04-11T08:47:08.004Z</time></trkpt><trkpt lat="44.84648965511629" lon="11.834547266808698"><ele>1.0</ele><time>2026-04-11T08:47:09.004Z</time></trkpt><trkpt lat="44.84646810630993" lon="11.834913936185218"><ele>0.0</ele><time>2026-04-11T08:47:10.004Z</time></trkpt><trkpt lat="44.846467985093064" lon="11.835295515592083"><ele>-1.0</ele><time>2026-04-11T08:47:11.004Z</time></trkpt><trkpt lat="44.84648234897283" lon="11.835690894771846"><ele>-0.5</ele><time>2026-04-11T08:47:12.004Z</time></trkpt><trkpt lat="44.84650534008033" lon="11.836096883914784"><ele>0.0</ele><time>2026-04-11T08:47:13.004Z</time></trkpt><trkpt lat="44.84652496714078" lon="11.836503651276844"><ele>1.0</ele><time>2026-04-11T08:47:14.004Z</time></trkpt><trkpt lat="44.84653975662657" lon="11.83690542306788"><ele>2.0</ele><time>2026-04-11T08:47:15.004Z</time></trkpt><trkpt lat="44.846552527773305" lon="11.837305665707987"><ele>2.0</ele><time>2026-04-11T08:47:16.004Z</time></trkpt><trkpt lat="44.846557017976586" lon="11.837701976203277"><ele>2.0</ele><time>2026-04-11T08:47:17.004Z</time></trkpt><trkpt lat="44.84654433783981" lon="11.838101960211674"><ele>1.5</ele><time>2026-04-11T08:47:18.004Z</time></trkpt><trkpt lat="44.84652289398724" lon="11.838501792374142"><ele>1.0</ele><time>2026-04-11T08:47:19.004Z</time></trkpt><trkpt lat="44.846488101513714" lon="11.838902856324314"><ele>1.0</ele><time>2026-04-11T08:47:20.004Z</time></trkpt><trkpt lat="44.84646370292597" lon="11.83930417519879"><ele>1.0</ele><time>2026-04-11T08:47:21.004Z</time></trkpt><trkpt lat="44.846439522447625" lon="11.839700471188046"><ele>1.0</ele><time>2026-04-11T08:47:22.004Z</time></trkpt><trkpt lat="44.84641174307384" lon="11.840091612733882"><ele>1.0</ele><time>2026-04-11T08:47:23.004Z</time></trkpt><trkpt lat="44.8463886995344" lon="11.84046402762738"><ele>0.5</ele><time>2026-04-11T08:47:24.004Z</time></trkpt><trkpt lat="44.846369695579845" lon="11.840805316955134"><ele>0.0</ele><time>2026-04-11T08:47:25.004Z</time></trkpt><trkpt lat="44.846354753206334" lon="11.841121547024445"><ele>-1.0</ele><time>2026-04-11T08:47:26.004Z</time></trkpt><trkpt lat="44.84633296257627" lon="11.841431669902235"><ele>-2.0</ele><time>2026-04-11T08:47:27.004Z</time></trkpt><trkpt lat="44.84630370068664" lon="11.841728086505148"><ele>-3.0</ele><time>2026-04-11T08:47:28.004Z</time></trkpt><trkpt lat="44.84625469770867" lon="11.842007662015115"><ele>-3.0</ele><time>2026-04-11T08:47:29.004Z</time></trkpt><trkpt lat="44.84617548411373" lon="11.8422603770786"><ele>-3.0</ele><time>2026-04-11T08:47:30.004Z</time></trkpt><trkpt lat="44.84605914590041" lon="11.84248661091143"><ele>-3.0</ele><time>2026-04-11T08:47:31.004Z</time></trkpt><trkpt lat="44.84590983284394" lon="11.842689639706977"><ele>-3.0</ele><time>2026-04-11T08:47:32.004Z</time></trkpt><trkpt lat="44.84571295035988" lon="11.842886677314569"><ele>-3.0</ele><time>2026-04-11T08:47:33.004Z</time></trkpt><trkpt lat="44.845510665000575" lon="11.843091158253833"><ele>-3.0</ele><time>2026-04-11T08:47:34.004Z</time></trkpt><trkpt lat="44.84530621021226" lon="11.843328116177483"><ele>-3.0</ele><time>2026-04-11T08:47:35.004Z</time></trkpt><trkpt lat="44.845098639709654" lon="11.84357508292119"><ele>0.0</ele><time>2026-04-11T08:47:36.004Z</time></trkpt><trkpt lat="44.844868743591455" lon="11.843813759886318"><ele>3.0</ele><time>2026-04-11T08:47:37.004Z</time></trkpt><trkpt lat="44.8446487141773" lon="11.844063800742735"><ele>3.5</ele><time>2026-04-11T08:47:38.004Z</time></trkpt><trkpt lat="44.844430850952214" lon="11.844315840562746"><ele>4.0</ele><time>2026-04-11T08:47:39.004Z</time></trkpt><trkpt lat="44.84421335240163" lon="11.844561280682953"><ele>5.0</ele><time>2026-04-11T08:47:40.004Z</time></trkpt><trkpt lat="44.84400370839544" lon="11.844795290679894"><ele>6.0</ele><time>2026-04-11T08:47:41.004Z</time></trkpt><trkpt lat="44.84377522932431" lon="11.845004538314749"><ele>4.5</ele><time>2026-04-11T08:47:42.004Z</time></trkpt><trkpt lat="44.84358041782124" lon="11.845224338511771"><ele>3.0</ele><time>2026-04-11T08:47:43.004Z</time></trkpt><trkpt lat="44.84339209055655" lon="11.84543545942426"><ele>3.0</ele><time>2026-04-11T08:47:44.004Z</time></trkpt><trkpt lat="44.84320774359275" lon="11.845641801887279"><ele>3.0</ele><time>2026-04-11T08:47:45.004Z</time></trkpt><trkpt lat="44.843029208160836" lon="11.845844102903937"><ele>3.0</ele><time>2026-04-11T08:47:46.004Z</time></trkpt><trkpt lat="44.84286456680588" lon="11.846039602987215"><ele>3.0</ele><time>2026-04-11T08:47:47.004Z</time></trkpt><trkpt lat="44.84270487451278" lon="11.846241371398555"><ele>3.0</ele><time>2026-04-11T08:47:48.004Z</time></trkpt><trkpt lat="44.842584113315915" lon="11.846491016317499"><ele>3.0</ele><time>2026-04-11T08:47:49.004Z</time></trkpt><trkpt lat="44.84247795136545" lon="11.846746985172249"><ele>3.0</ele><time>2026-04-11T08:47:50.004Z</time></trkpt><trkpt lat="44.84238890963006" lon="11.847025322495199"><ele>3.0</ele><time>2026-04-11T08:47:51.004Z</time></trkpt><trkpt lat="44.842325424331335" lon="11.847320902996039"><ele>3.5</ele><time>2026-04-11T08:47:52.004Z</time></trkpt><trkpt lat="44.84229370660999" lon="11.847641111864226"><ele>4.0</ele><time>2026-04-11T08:47:53.004Z</time></trkpt><trkpt lat="44.84229562866875" lon="11.84796733073649"><ele>4.0</ele><time>2026-04-11T08:47:54.004Z</time></trkpt><trkpt lat="44.84230975949725" lon="11.848288694857038"><ele>4.0</ele><time>2026-04-11T08:47:55.004Z</time></trkpt><trkpt lat="44.842335745642245" lon="11.848571563120984"><ele>4.0</ele><time>2026-04-11T08:47:56.004Z</time></trkpt><trkpt lat="44.84234397599875" lon="11.848798188944876"><ele>3.4000000000000004</ele><time>2026-04-11T08:47:57.004Z</time></trkpt><trkpt lat="44.84234544179529" lon="11.848988277019503"><ele>2.8000000000000003</ele><time>2026-04-11T08:47:58.004Z</time></trkpt><trkpt lat="44.84233735044006" lon="11.849118779385881"><ele>2.2</ele><time>2026-04-11T08:47:59.004Z</time></trkpt><trkpt lat="44.842301589098746" lon="11.849222108784314"><ele>1.6</ele><time>2026-04-11T08:48:00.004Z</time></trkpt><trkpt lat="44.84224900367576" lon="11.849279772349526"><ele>1.0</ele><time>2026-04-11T08:48:01.004Z</time></trkpt><trkpt lat="44.84217875564118" lon="11.849340396887463"><ele>0.75</ele><time>2026-04-11T08:48:02.004Z</time></trkpt><trkpt lat="44.84209452016407" lon="11.849436471150593"><ele>0.5</ele><time>2026-04-11T08:48:03.004Z</time></trkpt><trkpt lat="44.842040380492165" lon="11.84958301659699"><ele>0.25</ele><time>2026-04-11T08:48:04.004Z</time></trkpt><trkpt lat="44.84199749283905" lon="11.849747511955593"><ele>0.0</ele><time>2026-04-11T08:48:05.004Z</time></trkpt><trkpt lat="44.84190393422415" lon="11.849906907901527"><ele>0.3333333333333333</ele><time>2026-04-11T08:48:06.004Z</time></trkpt><trkpt lat="44.84175789432001" lon="11.850018042467669"><ele>0.6666666666666666</ele><time>2026-04-11T08:48:07.004Z</time></trkpt><trkpt lat="44.84160214305477" lon="11.850188762694987"><ele>1.0</ele><time>2026-04-11T08:48:08.004Z</time></trkpt><trkpt lat="44.84143076471996" lon="11.850376079607619"><ele>1.0</ele><time>2026-04-11T08:48:09.004Z</time></trkpt><trkpt lat="44.84125903613919" lon="11.850563779229955"><ele>1.0</ele><time>2026-04-11T08:48:10.004Z</time></trkpt><trkpt lat="44.841082626322134" lon="11.850756595600846"><ele>1.0</ele><time>2026-04-11T08:48:11.004Z</time></trkpt><trkpt lat="44.84090110596908" lon="11.850954997680489"><ele>0.0</ele><time>2026-04-11T08:48:12.004Z</time></trkpt><trkpt lat="44.84071156192011" lon="11.851162169717076"><ele>-1.0</ele><time>2026-04-11T08:48:13.004Z</time></trkpt><trkpt lat="44.840512164301956" lon="11.85138011174072"><ele>-1.0</ele><time>2026-04-11T08:48:14.004Z</time></trkpt><trkpt lat="44.84031028680871" lon="11.851600764251874"><ele>-1.0</ele><time>2026-04-11T08:48:15.004Z</time></trkpt><trkpt lat="44.840105041058955" lon="11.851826906236091"><ele>0.0</ele><time>2026-04-11T08:48:16.004Z</time></trkpt><trkpt lat="44.83989862325094" lon="11.852057423821044"><ele>1.0</ele><time>2026-04-11T08:48:17.004Z</time></trkpt><trkpt lat="44.83969752919937" lon="11.852298792873206"><ele>1.0</ele><time>2026-04-11T08:48:18.004Z</time></trkpt><trkpt lat="44.83948752395119" lon="11.852520736215233"><ele>1.0</ele><time>2026-04-11T08:48:19.004Z</time></trkpt><trkpt lat="44.83928487580668" lon="11.852743950980898"><ele>0.5</ele><time>2026-04-11T08:48:20.004Z</time></trkpt><trkpt lat="44.839083735882646" lon="11.852963004690183"><ele>0.0</ele><time>2026-04-11T08:48:21.004Z</time></trkpt><trkpt lat="44.83889484596395" lon="11.853178020144995"><ele>0.0</ele><time>2026-04-11T08:48:22.004Z</time></trkpt><trkpt lat="44.838716976600885" lon="11.853407378295223"><ele>0.0</ele><time>2026-04-11T08:48:23.004Z</time></trkpt><trkpt lat="44.838544352614534" lon="11.853664376297152"><ele>0.5</ele><time>2026-04-11T08:48:24.004Z</time></trkpt><trkpt lat="44.8383883183617" lon="11.8539434024704"><ele>1.0</ele><time>2026-04-11T08:48:25.004Z</time></trkpt><trkpt lat="44.83824351865859" lon="11.854230901435493"><ele>1.0</ele><time>2026-04-11T08:48:26.004Z</time></trkpt><trkpt lat="44.83811283161614" lon="11.854508091829386"><ele>1.0</ele><time>2026-04-11T08:48:27.004Z</time></trkpt><trkpt lat="44.83801673609802" lon="11.854775637406785"><ele>1.0</ele><time>2026-04-11T08:48:28.004Z</time></trkpt><trkpt lat="44.837929845420014" lon="11.85503867269377"><ele>0.3333333333333333</ele><time>2026-04-11T08:48:29.004Z</time></trkpt><trkpt lat="44.83785198113495" lon="11.855300298256997"><ele>-0.3333333333333333</ele><time>2026-04-11T08:48:30.004Z</time></trkpt><trkpt lat="44.837772131152434" lon="11.85555448082018"><ele>-1.0</ele><time>2026-04-11T08:48:31.004Z</time></trkpt><trkpt lat="44.83770902752147" lon="11.85579475764857"><ele>-1.0</ele><time>2026-04-11T08:48:32.004Z</time></trkpt><trkpt lat="44.83764042147252" lon="11.856022936734195"><ele>-1.0</ele><time>2026-04-11T08:48:33.004Z</time></trkpt><trkpt lat="44.837573331337445" lon="11.856253538733677"><ele>-1.0</ele><time>2026-04-11T08:48:34.004Z</time></trkpt><trkpt lat="44.837499809055366" lon="11.856485785654547"><ele>-1.3333333333333333</ele><time>2026-04-11T08:48:35.004Z</time></trkpt><trkpt lat="44.83742250657488" lon="11.856723072534793"><ele>-1.6666666666666665</ele><time>2026-04-11T08:48:36.004Z</time></trkpt><trkpt lat="44.8373547709085" lon="11.856949404773218"><ele>-2.0</ele><time>2026-04-11T08:48:37.004Z</time></trkpt><trkpt lat="44.837286794928865" lon="11.85715381429534"><ele>-2.0</ele><time>2026-04-11T08:48:38.004Z</time></trkpt><trkpt lat="44.837246389078175" lon="11.85736126593697"><ele>-2.0</ele><time>2026-04-11T08:48:39.004Z</time></trkpt><trkpt lat="44.837218887585514" lon="11.857554008410734"><ele>-2.0</ele><time>2026-04-11T08:48:40.004Z</time></trkpt><trkpt lat="44.83720823874418" lon="11.857728866430019"><ele>-2.0</ele><time>2026-04-11T08:48:41.004Z</time></trkpt><trkpt lat="44.83720229302193" lon="11.857891544859916"><ele>-1.8333333333333333</ele><time>2026-04-11T08:48:42.004Z</time></trkpt><trkpt lat="44.8372058795632" lon="11.858039252595816"><ele>-1.6666666666666665</ele><time>2026-04-11T08:48:43.004Z</time></trkpt><trkpt lat="44.83720590451218" lon="11.858159919118147"><ele>-1.5</ele><time>2026-04-11T08:48:44.004Z</time></trkpt><trkpt lat="44.837215004843735" lon="11.858258516583067"><ele>-1.3333333333333333</ele><time>2026-04-11T08:48:45.004Z</time></trkpt><trkpt lat="44.837211351597944" lon="11.85836998462666"><ele>-1.1666666666666665</ele><time>2026-04-11T08:48:47.004Z</time></trkpt><trkpt lat="44.837207975645676" lon="11.858521898174773"><ele>-1.0</ele><time>2026-04-11T08:48:51.004Z</time></trkpt><trkpt lat="44.83717016836812" lon="11.85861594528118"><ele>-0.6000000000000001</ele><time>2026-04-11T08:48:52.004Z</time></trkpt><trkpt lat="44.83712883329567" lon="11.858701734842594"><ele>-0.20000000000000007</ele><time>2026-04-11T08:48:53.004Z</time></trkpt><trkpt lat="44.83707690723259" lon="11.858803187310377"><ele>0.20000000000000007</ele><time>2026-04-11T08:48:54.004Z</time></trkpt><trkpt lat="44.83700617419071" lon="11.858893080758344"><ele>0.6000000000000001</ele><time>2026-04-11T08:48:55.004Z</time></trkpt><trkpt lat="44.83692307984903" lon="11.858969681696923"><ele>1.0</ele><time>2026-04-11T08:48:56.004Z</time></trkpt><trkpt lat="44.836817618370645" lon="11.859027911103494"><ele>1.0</ele><time>2026-04-11T08:48:57.004Z</time></trkpt><trkpt lat="44.83668474933918" lon="11.859068869997762"><ele>1.0</ele><time>2026-04-11T08:48:58.004Z</time></trkpt><trkpt lat="44.83654835862165" lon="11.859105543739005"><ele>1.0</ele><time>2026-04-11T08:48:59.004Z</time></trkpt><trkpt lat="44.83642159311156" lon="11.859131810072444"><ele>1.0</ele><time>2026-04-11T08:49:00.004Z</time></trkpt><trkpt lat="44.83630399107011" lon="11.859168357068208"><ele>1.0</ele><time>2026-04-11T08:49:01.004Z</time></trkpt><trkpt lat="44.836184533464596" lon="11.85920269441642"><ele>1.0</ele><time>2026-04-11T08:49:02.004Z</time></trkpt><trkpt lat="44.836049747255586" lon="11.859250480453499"><ele>1.0</ele><time>2026-04-11T08:49:03.004Z</time></trkpt><trkpt lat="44.83590327243375" lon="11.859300808169134"><ele>1.0</ele><time>2026-04-11T08:49:04.004Z</time></trkpt><trkpt lat="44.83574915887632" lon="11.859368435413733"><ele>0.6666666666666666</ele><time>2026-04-11T08:49:05.004Z</time></trkpt><trkpt lat="44.835590181988955" lon="11.8594577179977"><ele>0.3333333333333333</ele><time>2026-04-11T08:49:06.004Z</time></trkpt><trkpt lat="44.83543901231026" lon="11.85956425294245"><ele>0.0</ele><time>2026-04-11T08:49:07.004Z</time></trkpt><trkpt lat="44.83528689455737" lon="11.859687688935187"><ele>0.0</ele><time>2026-04-11T08:49:08.004Z</time></trkpt><trkpt lat="44.83514506452525" lon="11.859818073438891"><ele>0.0</ele><time>2026-04-11T08:49:09.004Z</time></trkpt><trkpt lat="44.83500818203071" lon="11.859958536139823"><ele>0.0</ele><time>2026-04-11T08:49:10.004Z</time></trkpt><trkpt lat="44.83486914043162" lon="11.860109837798586"><ele>0.3333333333333333</ele><time>2026-04-11T08:49:11.004Z</time></trkpt><trkpt lat="44.834730823658" lon="11.86026306299539"><ele>0.6666666666666666</ele><time>2026-04-11T08:49:12.004Z</time></trkpt><trkpt lat="44.83460906787013" lon="11.860411998910703"><ele>1.0</ele><time>2026-04-11T08:49:13.004Z</time></trkpt><trkpt lat="44.83451080962915" lon="11.860561307905307"><ele>1.0</ele><time>2026-04-11T08:49:14.004Z</time></trkpt><trkpt lat="44.83441332049786" lon="11.860705822213067"><ele>1.0</ele><time>2026-04-11T08:49:15.004Z</time></trkpt><trkpt lat="44.83430985761354" lon="11.86084613124751"><ele>1.0</ele><time>2026-04-11T08:49:16.004Z</time></trkpt><trkpt lat="44.834201234498195" lon="11.860982733221089"><ele>1.0</ele><time>2026-04-11T08:49:17.004Z</time></trkpt><trkpt lat="44.834085065336254" lon="11.861106218306302"><ele>0.75</ele><time>2026-04-11T08:49:18.004Z</time></trkpt><trkpt lat="44.83396044404055" lon="11.861178999771418"><ele>0.5</ele><time>2026-04-11T08:49:19.004Z</time></trkpt><trkpt lat="44.83384443714612" lon="11.861262002994037"><ele>0.25</ele><time>2026-04-11T08:49:20.004Z</time></trkpt><trkpt lat="44.8337209691466" lon="11.861293995587314"><ele>0.0</ele><time>2026-04-11T08:49:21.004Z</time></trkpt><trkpt lat="44.83359782971454" lon="11.861308250159041"><ele>0.0</ele><time>2026-04-11T08:49:22.004Z</time></trkpt><trkpt lat="44.83345533162517" lon="11.86130753957405"><ele>0.0</ele><time>2026-04-11T08:49:23.004Z</time></trkpt><trkpt lat="44.833302867124736" lon="11.861298408126913"><ele>0.0</ele><time>2026-04-11T08:49:24.004Z</time></trkpt><trkpt lat="44.83312528778327" lon="11.861290656183922"><ele>0.0</ele><time>2026-04-11T08:49:25.004Z</time></trkpt><trkpt lat="44.83292652165525" lon="11.861368964169836"><ele>0.0</ele><time>2026-04-11T08:49:26.004Z</time></trkpt><trkpt lat="44.8327035857831" lon="11.861421558820416"><ele>0.0</ele><time>2026-04-11T08:49:27.004Z</time></trkpt><trkpt lat="44.83247365836563" lon="11.86149248350083"><ele>0.0</ele><time>2026-04-11T08:49:28.004Z</time></trkpt><trkpt lat="44.8322272467871" lon="11.861560809972566"><ele>0.0</ele><time>2026-04-11T08:49:29.004Z</time></trkpt><trkpt lat="44.83198512013747" lon="11.861630523416054"><ele>-0.6666666666666666</ele><time>2026-04-11T08:49:30.004Z</time></trkpt><trkpt lat="44.83175947091675" lon="11.861677028640358"><ele>-1.3333333333333333</ele><time>2026-04-11T08:49:31.004Z</time></trkpt><trkpt lat="44.83154504230294" lon="11.861754324626006"><ele>-2.0</ele><time>2026-04-11T08:49:32.004Z</time></trkpt><trkpt lat="44.83135522721861" lon="11.861817300060059"><ele>-2.0</ele><time>2026-04-11T08:49:33.004Z</time></trkpt><trkpt lat="44.83116632463442" lon="11.861874321785285"><ele>-2.0</ele><time>2026-04-11T08:49:34.004Z</time></trkpt><trkpt lat="44.83096449082614" lon="11.86191566457492"><ele>-2.0</ele><time>2026-04-11T08:49:35.004Z</time></trkpt><trkpt lat="44.83074689518777" lon="11.861962051435043"><ele>-2.0</ele><time>2026-04-11T08:49:36.004Z</time></trkpt><trkpt lat="44.83051276247744" lon="11.861998111857178"><ele>-2.0</ele><time>2026-04-11T08:49:37.004Z</time></trkpt><trkpt lat="44.83026017142573" lon="11.86202327329916"><ele>-1.0</ele><time>2026-04-11T08:49:38.004Z</time></trkpt><trkpt lat="44.829985036002476" lon="11.862048204155805"><ele>0.0</ele><time>2026-04-11T08:49:39.004Z</time></trkpt><trkpt lat="44.82970031113046" lon="11.8620887129209"><ele>0.0</ele><time>2026-04-11T08:49:40.004Z</time></trkpt><trkpt lat="44.82941678535269" lon="11.862105890248534"><ele>0.0</ele><time>2026-04-11T08:49:41.004Z</time></trkpt><trkpt lat="44.829131825694574" lon="11.862112948774847"><ele>-0.5</ele><time>2026-04-11T08:49:42.004Z</time></trkpt><trkpt lat="44.82885737846866" lon="11.862123257453465"><ele>-1.0</ele><time>2026-04-11T08:49:43.004Z</time></trkpt><trkpt lat="44.82859350238268" lon="11.862134466521903"><ele>-1.0</ele><time>2026-04-11T08:49:44.004Z</time></trkpt><trkpt lat="44.82833232633099" lon="11.86214270834621"><ele>-1.0</ele><time>2026-04-11T08:49:45.004Z</time></trkpt><trkpt lat="44.828083215986375" lon="11.862148307703391"><ele>-1.0</ele><time>2026-04-11T08:49:46.004Z</time></trkpt><trkpt lat="44.82784044933461" lon="11.86215296813464"><ele>-1.0</ele><time>2026-04-11T08:49:47.004Z</time></trkpt><trkpt lat="44.827602229765986" lon="11.862160490847263"><ele>-0.5</ele><time>2026-04-11T08:49:48.004Z</time></trkpt><trkpt lat="44.82736168556345" lon="11.86217501808292"><ele>0.0</ele><time>2026-04-11T08:49:49.004Z</time></trkpt><trkpt lat="44.82712111645451" lon="11.862224012068797"><ele>0.0</ele><time>2026-04-11T08:49:50.004Z</time></trkpt><trkpt lat="44.82687459993559" lon="11.86231510828299"><ele>0.0</ele><time>2026-04-11T08:49:51.004Z</time></trkpt><trkpt lat="44.8266249433203" lon="11.862436374040954"><ele>0.0</ele><time>2026-04-11T08:49:52.004Z</time></trkpt><trkpt lat="44.8263727531175" lon="11.8625613218974"><ele>0.0</ele><time>2026-04-11T08:49:53.004Z</time></trkpt><trkpt lat="44.82612621270315" lon="11.862684130904851"><ele>0.0</ele><time>2026-04-11T08:49:54.004Z</time></trkpt><trkpt lat="44.82589344746286" lon="11.86281493865174"><ele>0.0</ele><time>2026-04-11T08:49:55.004Z</time></trkpt><trkpt lat="44.82567569610028" lon="11.862970392895976"><ele>0.0</ele><time>2026-04-11T08:49:56.004Z</time></trkpt><trkpt lat="44.82547643228157" lon="11.863132393110853"><ele>0.0</ele><time>2026-04-11T08:49:57.004Z</time></trkpt><trkpt lat="44.825276232602384" lon="11.863298782086426"><ele>0.0</ele><time>2026-04-11T08:49:58.004Z</time></trkpt><trkpt lat="44.82511864876567" lon="11.86354208476649"><ele>0.0</ele><time>2026-04-11T08:49:59.004Z</time></trkpt><trkpt lat="44.82498048363902" lon="11.863791309786796"><ele>0.0</ele><time>2026-04-11T08:50:00.004Z</time></trkpt><trkpt lat="44.82485358850501" lon="11.864073868302352"><ele>0.0</ele><time>2026-04-11T08:50:01.004Z</time></trkpt><trkpt lat="44.82470621753158" lon="11.864356440622883"><ele>-0.5</ele><time>2026-04-11T08:50:02.004Z</time></trkpt><trkpt lat="44.824568912233204" lon="11.8646606806302"><ele>-1.0</ele><time>2026-04-11T08:50:03.004Z</time></trkpt><trkpt lat="44.82442573199076" lon="11.864969387956044"><ele>-0.5</ele><time>2026-04-11T08:50:04.004Z</time></trkpt><trkpt lat="44.824283048961895" lon="11.865275422536486"><ele>0.0</ele><time>2026-04-11T08:50:05.004Z</time></trkpt><trkpt lat="44.8241428868488" lon="11.865576375118382"><ele>0.0</ele><time>2026-04-11T08:50:06.004Z</time></trkpt><trkpt lat="44.824011879100595" lon="11.865854421093667"><ele>0.0</ele><time>2026-04-11T08:50:07.004Z</time></trkpt><trkpt lat="44.82388861424469" lon="11.866116034058159"><ele>0.0</ele><time>2026-04-11T08:50:08.004Z</time></trkpt><trkpt lat="44.82376446042364" lon="11.866368473897403"><ele>0.0</ele><time>2026-04-11T08:50:09.004Z</time></trkpt><trkpt lat="44.82363975463445" lon="11.866620364736338"><ele>0.0</ele><time>2026-04-11T08:50:10.004Z</time></trkpt><trkpt lat="44.82346355256473" lon="11.866819074343134"><ele>0.5</ele><time>2026-04-11T08:50:11.004Z</time></trkpt><trkpt lat="44.823275764444396" lon="11.867015668731678"><ele>1.0</ele><time>2026-04-11T08:50:12.004Z</time></trkpt><trkpt lat="44.82307466240818" lon="11.867222021792314"><ele>1.0</ele><time>2026-04-11T08:50:13.004Z</time></trkpt><trkpt lat="44.82288367494021" lon="11.86744974106748"><ele>1.0</ele><time>2026-04-11T08:50:14.004Z</time></trkpt><trkpt lat="44.82268497500819" lon="11.867634359417714"><ele>1.0</ele><time>2026-04-11T08:50:15.004Z</time></trkpt><trkpt lat="44.82251041124154" lon="11.867828210998166"><ele>1.0</ele><time>2026-04-11T08:50:16.004Z</time></trkpt><trkpt lat="44.82234592520222" lon="11.86801748290425"><ele>1.0</ele><time>2026-04-11T08:50:17.004Z</time></trkpt><trkpt lat="44.82219738781013" lon="11.868211762210798"><ele>1.0</ele><time>2026-04-11T08:50:18.004Z</time></trkpt><trkpt lat="44.82206066958103" lon="11.868374375913428"><ele>1.0</ele><time>2026-04-11T08:50:19.004Z</time></trkpt><trkpt lat="44.82193262699002" lon="11.868517772778718"><ele>1.0</ele><time>2026-04-11T08:50:20.004Z</time></trkpt><trkpt lat="44.821812495836554" lon="11.868660690718094"><ele>0.3333333333333333</ele><time>2026-04-11T08:50:21.004Z</time></trkpt><trkpt lat="44.8216898690376" lon="11.868803030015451"><ele>-0.3333333333333333</ele><time>2026-04-11T08:50:22.004Z</time></trkpt><trkpt lat="44.821563576889574" lon="11.868954208313378"><ele>-1.0</ele><time>2026-04-11T08:50:23.004Z</time></trkpt><trkpt lat="44.82143281465789" lon="11.869116856434072"><ele>-1.0</ele><time>2026-04-11T08:50:24.004Z</time></trkpt><trkpt lat="44.82130292138823" lon="11.869289577300984"><ele>-1.0</ele><time>2026-04-11T08:50:25.004Z</time></trkpt><trkpt lat="44.821180526502694" lon="11.869456516130375"><ele>-1.0</ele><time>2026-04-11T08:50:26.018Z</time></trkpt><trkpt lat="44.821066877511456" lon="11.869618857105852"><ele>-1.0</ele><time>2026-04-11T08:50:27.018Z</time></trkpt><trkpt lat="44.820968810952394" lon="11.869770787827537"><ele>-1.0</ele><time>2026-04-11T08:50:28.018Z</time></trkpt><trkpt lat="44.820878490275305" lon="11.869931084124982"><ele>-1.0</ele><time>2026-04-11T08:50:29.018Z</time></trkpt><trkpt lat="44.82078598344517" lon="11.870088299081953"><ele>-1.0</ele><time>2026-04-11T08:50:30.018Z</time></trkpt><trkpt lat="44.82069037915209" lon="11.870259896619922"><ele>-1.3333333333333333</ele><time>2026-04-11T08:50:31.018Z</time></trkpt><trkpt lat="44.82058592932275" lon="11.87043085090507"><ele>-1.6666666666666665</ele><time>2026-04-11T08:50:32.018Z</time></trkpt><trkpt lat="44.82046274292468" lon="11.87060160709893"><ele>-2.0</ele><time>2026-04-11T08:50:33.018Z</time></trkpt><trkpt lat="44.82033804015915" lon="11.87078003001722"><ele>-2.0</ele><time>2026-04-11T08:50:34.018Z</time></trkpt><trkpt lat="44.82020108104971" lon="11.870944215456104"><ele>-2.0</ele><time>2026-04-11T08:50:35.018Z</time></trkpt><trkpt lat="44.82004859254232" lon="11.871076608095539"><ele>-2.0</ele><time>2026-04-11T08:50:36.018Z</time></trkpt><trkpt lat="44.819870450236806" lon="11.871174429900407"><ele>-1.6666666666666665</ele><time>2026-04-11T08:50:37.018Z</time></trkpt><trkpt lat="44.819678577238484" lon="11.87120353891196"><ele>-1.3333333333333333</ele><time>2026-04-11T08:50:38.018Z</time></trkpt><trkpt lat="44.81947466247376" lon="11.871188611336992"><ele>-1.0</ele><time>2026-04-11T08:50:39.018Z</time></trkpt><trkpt lat="44.819258684464415" lon="11.871149281307014"><ele>-1.0</ele><time>2026-04-11T08:50:40.018Z</time></trkpt><trkpt lat="44.819034281405756" lon="11.871096668408608"><ele>-1.0</ele><time>2026-04-11T08:50:41.018Z</time></trkpt><trkpt lat="44.81880234661047" lon="11.871036845131071"><ele>-1.0</ele><time>2026-04-11T08:50:42.018Z</time></trkpt><trkpt lat="44.81857030111437" lon="11.870976498728542"><ele>-1.0</ele><time>2026-04-11T08:50:43.018Z</time></trkpt><trkpt lat="44.81834295043894" lon="11.870914676379526"><ele>-0.6666666666666666</ele><time>2026-04-11T08:50:44.018Z</time></trkpt><trkpt lat="44.8181167285339" lon="11.870859220650557"><ele>-0.3333333333333333</ele><time>2026-04-11T08:50:45.018Z</time></trkpt><trkpt lat="44.81789981398398" lon="11.87082993215454"><ele>0.0</ele><time>2026-04-11T08:50:46.018Z</time></trkpt><trkpt lat="44.81768491284525" lon="11.87084385714218"><ele>0.0</ele><time>2026-04-11T08:50:47.018Z</time></trkpt><trkpt lat="44.81746248336851" lon="11.87092538909636"><ele>0.0</ele><time>2026-04-11T08:50:48.018Z</time></trkpt><trkpt lat="44.81724084088119" lon="11.87106522394823"><ele>0.0</ele><time>2026-04-11T08:50:49.018Z</time></trkpt><trkpt lat="44.81700911477949" lon="11.871241780281824"><ele>0.0</ele><time>2026-04-11T08:50:50.018Z</time></trkpt><trkpt lat="44.816770868180555" lon="11.87143400459838"><ele>-0.5</ele><time>2026-04-11T08:50:51.018Z</time></trkpt><trkpt lat="44.81652704208256" lon="11.871628867183507"><ele>-1.0</ele><time>2026-04-11T08:50:52.018Z</time></trkpt><trkpt lat="44.81628116646185" lon="11.871825367838998"><ele>-1.0</ele><time>2026-04-11T08:50:53.018Z</time></trkpt><trkpt lat="44.81603299650162" lon="11.872019062152793"><ele>-1.0</ele><time>2026-04-11T08:50:54.018Z</time></trkpt><trkpt lat="44.81577367140496" lon="11.87221302268707"><ele>-0.5</ele><time>2026-04-11T08:50:55.018Z</time></trkpt><trkpt lat="44.815511626905206" lon="11.872401001838703"><ele>0.0</ele><time>2026-04-11T08:50:56.018Z</time></trkpt><trkpt lat="44.81524598427826" lon="11.872588003448366"><ele>0.0</ele><time>2026-04-11T08:50:57.018Z</time></trkpt><trkpt lat="44.81496998721438" lon="11.872782294095499"><ele>0.0</ele><time>2026-04-11T08:50:58.018Z</time></trkpt><trkpt lat="44.81469342250914" lon="11.872977641302931"><ele>0.0</ele><time>2026-04-11T08:50:59.018Z</time></trkpt><trkpt lat="44.81442043091632" lon="11.87317094118481"><ele>0.0</ele><time>2026-04-11T08:51:00.018Z</time></trkpt><trkpt lat="44.814155561760856" lon="11.873382408348998"><ele>1.5</ele><time>2026-04-11T08:51:01.018Z</time></trkpt><trkpt lat="44.81387522449007" lon="11.873556758120841"><ele>3.0</ele><time>2026-04-11T08:51:02.018Z</time></trkpt><trkpt lat="44.81360545489901" lon="11.873748523219037"><ele>2.0</ele><time>2026-04-11T08:51:03.018Z</time></trkpt><trkpt lat="44.813340627838215" lon="11.87393771982799"><ele>1.0</ele><time>2026-04-11T08:51:04.018Z</time></trkpt><trkpt lat="44.813083385345045" lon="11.874121176122854"><ele>1.0</ele><time>2026-04-11T08:51:05.018Z</time></trkpt><trkpt lat="44.81282993639494" lon="11.874300944071294"><ele>1.0</ele><time>2026-04-11T08:51:06.018Z</time></trkpt><trkpt lat="44.812580276111106" lon="11.87447267651451"><ele>1.0</ele><time>2026-04-11T08:51:07.018Z</time></trkpt><trkpt lat="44.81233026408486" lon="11.874635142000571"><ele>1.0</ele><time>2026-04-11T08:51:08.018Z</time></trkpt><trkpt lat="44.81209456829387" lon="11.874797995115923"><ele>1.0</ele><time>2026-04-11T08:51:09.018Z</time></trkpt><trkpt lat="44.81187365080031" lon="11.874954587432086"><ele>1.0</ele><time>2026-04-11T08:51:10.018Z</time></trkpt><trkpt lat="44.81166601697966" lon="11.875090706838503"><ele>1.0</ele><time>2026-04-11T08:51:11.018Z</time></trkpt><trkpt lat="44.81147846507769" lon="11.875222613592406"><ele>1.0</ele><time>2026-04-11T08:51:12.018Z</time></trkpt><trkpt lat="44.81129175760613" lon="11.875336226369305"><ele>1.0</ele><time>2026-04-11T08:51:13.02Z</time></trkpt><trkpt lat="44.81112701511028" lon="11.875443216629996"><ele>1.6666666666666665</ele><time>2026-04-11T08:51:14.02Z</time></trkpt><trkpt lat="44.81097322671348" lon="11.87553136064332"><ele>2.3333333333333335</ele><time>2026-04-11T08:51:15.02Z</time></trkpt><trkpt lat="44.810823699859654" lon="11.875599436600043"><ele>3.0</ele><time>2026-04-11T08:51:16.02Z</time></trkpt><trkpt lat="44.81067902302097" lon="11.875607969208577"><ele>3.0</ele><time>2026-04-11T08:51:17.02Z</time></trkpt><trkpt lat="44.81053571440025" lon="11.875603867196226"><ele>3.0</ele><time>2026-04-11T08:51:18.02Z</time></trkpt><trkpt lat="44.810402916273496" lon="11.875577798783644"><ele>3.0</ele><time>2026-04-11T08:51:19.021Z</time></trkpt><trkpt lat="44.81027845718626" lon="11.875533161539378"><ele>3.0</ele><time>2026-04-11T08:51:20.02Z</time></trkpt><trkpt lat="44.81016459927298" lon="11.875478682639448"><ele>2.75</ele><time>2026-04-11T08:51:21.02Z</time></trkpt><trkpt lat="44.810049680008824" lon="11.875437510689437"><ele>2.5</ele><time>2026-04-11T08:51:22.021Z</time></trkpt><trkpt lat="44.80995100189066" lon="11.875311430319307"><ele>2.25</ele><time>2026-04-11T08:51:23.02Z</time></trkpt><trkpt lat="44.80984053570791" lon="11.875191554713572"><ele>2.0</ele><time>2026-04-11T08:51:24.02Z</time></trkpt><trkpt lat="44.80973126301911" lon="11.875059141336468"><ele>2.0</ele><time>2026-04-11T08:51:25.02Z</time></trkpt><trkpt lat="44.809621879757294" lon="11.874923636778313"><ele>2.0</ele><time>2026-04-11T08:51:26.02Z</time></trkpt><trkpt lat="44.809525157234205" lon="11.874803816388136"><ele>2.0</ele><time>2026-04-11T08:51:27.02Z</time></trkpt><trkpt lat="44.80943561874369" lon="11.87469376470285"><ele>2.0</ele><time>2026-04-11T08:51:28.02Z</time></trkpt><trkpt lat="44.8093360016847" lon="11.874599678773878"><ele>2.0</ele><time>2026-04-11T08:51:29.02Z</time></trkpt><trkpt lat="44.8092613281648" lon="11.874487054763518"><ele>2.0</ele><time>2026-04-11T08:51:30.02Z</time></trkpt><trkpt lat="44.8091812655155" lon="11.874389956854019"><ele>2.0</ele><time>2026-04-11T08:51:31.02Z</time></trkpt><trkpt lat="44.80909555195184" lon="11.874299058461833"><ele>2.0</ele><time>2026-04-11T08:51:32.02Z</time></trkpt><trkpt lat="44.809002489490254" lon="11.874209129121848"><ele>2.0</ele><time>2026-04-11T08:51:33.02Z</time></trkpt><trkpt lat="44.80891500994291" lon="11.874133369057576"><ele>2.0</ele><time>2026-04-11T08:51:34.02Z</time></trkpt><trkpt lat="44.80882278965124" lon="11.874062884165465"><ele>2.0</ele><time>2026-04-11T08:51:35.02Z</time></trkpt><trkpt lat="44.80873194460377" lon="11.873990422984562"><ele>2.0</ele><time>2026-04-11T08:51:36.02Z</time></trkpt><trkpt lat="44.80863289935832" lon="11.873931709077038"><ele>2.0</ele><time>2026-04-11T08:51:37.02Z</time></trkpt><trkpt lat="44.808519548606306" lon="11.873884055434786"><ele>2.0</ele><time>2026-04-11T08:51:38.02Z</time></trkpt><trkpt lat="44.80839396907455" lon="11.873843597077526"><ele>2.0</ele><time>2026-04-11T08:51:39.02Z</time></trkpt><trkpt lat="44.808264561669056" lon="11.873821432897106"><ele>2.0</ele><time>2026-04-11T08:51:40.02Z</time></trkpt><trkpt lat="44.8081434673772" lon="11.873798039683773"><ele>2.0</ele><time>2026-04-11T08:51:41.02Z</time></trkpt><trkpt lat="44.80803086676943" lon="11.873807406294022"><ele>2.0</ele><time>2026-04-11T08:51:42.02Z</time></trkpt><trkpt lat="44.807920690146865" lon="11.873840692029672"><ele>2.0</ele><time>2026-04-11T08:51:43.02Z</time></trkpt><trkpt lat="44.807822410029225" lon="11.87390676973171"><ele>2.0</ele><time>2026-04-11T08:51:44.02Z</time></trkpt><trkpt lat="44.80773594213325" lon="11.873986421707304"><ele>2.0</ele><time>2026-04-11T08:51:45.02Z</time></trkpt><trkpt lat="44.80765812804618" lon="11.8740667711141"><ele>2.0</ele><time>2026-04-11T08:51:46.02Z</time></trkpt><trkpt lat="44.807621041404595" lon="11.874181765786082"><ele>2.0</ele><time>2026-04-11T08:51:47.02Z</time></trkpt><trkpt lat="44.80758129560198" lon="11.874275055149216"><ele>2.333333333333333</ele><time>2026-04-11T08:51:48.02Z</time></trkpt><trkpt lat="44.80752396938559" lon="11.87439925613734"><ele>2.6666666666666665</ele><time>2026-04-11T08:51:50.02Z</time></trkpt><trkpt lat="44.80748793187317" lon="11.874483091969864"><ele>3.0</ele><time>2026-04-11T08:51:53.02Z</time></trkpt><trkpt lat="44.807390797069495" lon="11.874592724248863"><ele>3.333333333333333</ele><time>2026-04-11T08:51:55.021Z</time></trkpt><trkpt lat="44.80733789070567" lon="11.874643930415377"><ele>3.6666666666666665</ele><time>2026-04-11T08:51:56.021Z</time></trkpt><trkpt lat="44.80728820850494" lon="11.87472242403894"><ele>4.0</ele><time>2026-04-11T08:51:57.021Z</time></trkpt><trkpt lat="44.807243014182546" lon="11.874797759084455"><ele>4.0</ele><time>2026-04-11T08:51:58.021Z</time></trkpt><trkpt lat="44.80723115580256" lon="11.874941505920837"><ele>4.0</ele><time>2026-04-11T08:52:00.021Z</time></trkpt><trkpt lat="44.80714290448351" lon="11.875020514483321"><ele>4.0</ele><time>2026-04-11T08:52:01.021Z</time></trkpt><trkpt lat="44.807099474772734" lon="11.87512845477411"><ele>4.0</ele><time>2026-04-11T08:52:02.021Z</time></trkpt><trkpt lat="44.807054085978166" lon="11.875238178592216"><ele>4.0</ele><time>2026-04-11T08:52:03.021Z</time></trkpt><trkpt lat="44.80700516186934" lon="11.875361036508034"><ele>3.5</ele><time>2026-04-11T08:52:04.021Z</time></trkpt><trkpt lat="44.80695010909893" lon="11.875494340772585"><ele>3.0</ele><time>2026-04-11T08:52:05.021Z</time></trkpt><trkpt lat="44.80696136285144" lon="11.875663323340007"><ele>2.5</ele><time>2026-04-11T08:52:06.021Z</time></trkpt><trkpt lat="44.80699255444922" lon="11.875847304055053"><ele>2.0</ele><time>2026-04-11T08:52:07.021Z</time></trkpt><trkpt lat="44.807043663700256" lon="11.876056084089669"><ele>2.0</ele><time>2026-04-11T08:52:08.021Z</time></trkpt><trkpt lat="44.807104363917375" lon="11.876274189700679"><ele>2.0</ele><time>2026-04-11T08:52:09.021Z</time></trkpt><trkpt lat="44.8071616044343" lon="11.876515045138254"><ele>2.0</ele><time>2026-04-11T08:52:10.021Z</time></trkpt><trkpt lat="44.80717986995744" lon="11.876773955269398"><ele>2.0</ele><time>2026-04-11T08:52:11.021Z</time></trkpt><trkpt lat="44.807186526251435" lon="11.877045128732082"><ele>2.0</ele><time>2026-04-11T08:52:12.021Z</time></trkpt><trkpt lat="44.80718419374588" lon="11.877329675160947"><ele>2.0</ele><time>2026-04-11T08:52:13.021Z</time></trkpt><trkpt lat="44.80718154228105" lon="11.877626030879478"><ele>1.6666666666666665</ele><time>2026-04-11T08:52:14.021Z</time></trkpt><trkpt lat="44.807178672487616" lon="11.877918495783762"><ele>1.3333333333333333</ele><time>2026-04-11T08:52:15.021Z</time></trkpt><trkpt lat="44.8071742440805" lon="11.878223298126876"><ele>1.0</ele><time>2026-04-11T08:52:16.021Z</time></trkpt><trkpt lat="44.807171338707235" lon="11.878526919029703"><ele>1.0</ele><time>2026-04-11T08:52:17.021Z</time></trkpt><trkpt lat="44.80716885406588" lon="11.87882568630393"><ele>1.0</ele><time>2026-04-11T08:52:18.021Z</time></trkpt><trkpt lat="44.80716494142756" lon="11.879113801288113"><ele>1.0</ele><time>2026-04-11T08:52:19.021Z</time></trkpt><trkpt lat="44.80715771188501" lon="11.879406059792888"><ele>1.0</ele><time>2026-04-11T08:52:20.021Z</time></trkpt><trkpt lat="44.807130019992606" lon="11.879713440656902"><ele>1.0</ele><time>2026-04-11T08:52:21.021Z</time></trkpt><trkpt lat="44.80707511844919" lon="11.880024757126415"><ele>1.0</ele><time>2026-04-11T08:52:22.021Z</time></trkpt><trkpt lat="44.807004455239834" lon="11.880348975602164"><ele>1.5</ele><time>2026-04-11T08:52:23.021Z</time></trkpt><trkpt lat="44.806935527567724" lon="11.880679699302322"><ele>2.0</ele><time>2026-04-11T08:52:24.021Z</time></trkpt><trkpt lat="44.806862834769255" lon="11.881018364193926"><ele>1.5</ele><time>2026-04-11T08:52:25.021Z</time></trkpt><trkpt lat="44.806788014445374" lon="11.881362639088278"><ele>1.0</ele><time>2026-04-11T08:52:26.021Z</time></trkpt><trkpt lat="44.806714264186326" lon="11.881707093549302"><ele>1.0</ele><time>2026-04-11T08:52:27.021Z</time></trkpt><trkpt lat="44.806641172511846" lon="11.882050159405521"><ele>1.0</ele><time>2026-04-11T08:52:28.021Z</time></trkpt><trkpt lat="44.806571440883275" lon="11.882378878430492"><ele>0.5</ele><time>2026-04-11T08:52:29.021Z</time></trkpt><trkpt lat="44.806507576769874" lon="11.882688494394559"><ele>0.0</ele><time>2026-04-11T08:52:30.021Z</time></trkpt><trkpt lat="44.806458625410805" lon="11.882993241864893"><ele>0.0</ele><time>2026-04-11T08:52:31.021Z</time></trkpt><trkpt lat="44.806385699942915" lon="11.883279031931107"><ele>0.0</ele><time>2026-04-11T08:52:32.021Z</time></trkpt><trkpt lat="44.8062956145669" lon="11.88353542542906"><ele>0.0</ele><time>2026-04-11T08:52:33.021Z</time></trkpt><trkpt lat="44.806185430238195" lon="11.883784767041998"><ele>0.0</ele><time>2026-04-11T08:52:34.021Z</time></trkpt><trkpt lat="44.80605754573227" lon="11.884050204395498"><ele>0.0</ele><time>2026-04-11T08:52:35.021Z</time></trkpt><trkpt lat="44.80592092306857" lon="11.884313082127735"><ele>0.0</ele><time>2026-04-11T08:52:36.021Z</time></trkpt><trkpt lat="44.80577768334065" lon="11.88456402913563"><ele>0.0</ele><time>2026-04-11T08:52:37.021Z</time></trkpt><trkpt lat="44.8056230140821" lon="11.884801924990603"><ele>0.0</ele><time>2026-04-11T08:52:38.021Z</time></trkpt><trkpt lat="44.805481765786396" lon="11.885036827724631"><ele>0.0</ele><time>2026-04-11T08:52:39.021Z</time></trkpt><trkpt lat="44.805339731584205" lon="11.885233292354902"><ele>0.0</ele><time>2026-04-11T08:52:40.021Z</time></trkpt><trkpt lat="44.80519541953335" lon="11.885398326308895"><ele>0.3333333333333333</ele><time>2026-04-11T08:52:41.021Z</time></trkpt><trkpt lat="44.80507611144308" lon="11.885601294001713"><ele>0.6666666666666666</ele><time>2026-04-11T08:52:42.021Z</time></trkpt><trkpt lat="44.80498070419965" lon="11.8858606089268"><ele>1.0</ele><time>2026-04-11T08:52:43.021Z</time></trkpt><trkpt lat="44.80489063796025" lon="11.886146644481425"><ele>0.0</ele><time>2026-04-11T08:52:44.021Z</time></trkpt><trkpt lat="44.8047701350502" lon="11.886427436927459"><ele>-1.0</ele><time>2026-04-11T08:52:45.021Z</time></trkpt><trkpt lat="44.80465111620174" lon="11.88670916561101"><ele>-1.0</ele><time>2026-04-11T08:52:46.021Z</time></trkpt><trkpt lat="44.80454318964805" lon="11.887013859452017"><ele>-1.0</ele><time>2026-04-11T08:52:47.021Z</time></trkpt><trkpt lat="44.80444276374999" lon="11.887329385867258"><ele>-1.0</ele><time>2026-04-11T08:52:48.021Z</time></trkpt><trkpt lat="44.804346890071365" lon="11.887650041953421"><ele>-1.0</ele><time>2026-04-11T08:52:49.021Z</time></trkpt><trkpt lat="44.80426019044945" lon="11.887979057422983"><ele>0.5</ele><time>2026-04-11T08:52:50.021Z</time></trkpt><trkpt lat="44.804183694730284" lon="11.888316985487316"><ele>2.0</ele><time>2026-04-11T08:52:51.021Z</time></trkpt><trkpt lat="44.80409644685234" lon="11.888654572249887"><ele>2.0</ele><time>2026-04-11T08:52:52.021Z</time></trkpt><trkpt lat="44.80402238220618" lon="11.888987726548272"><ele>2.0</ele><time>2026-04-11T08:52:53.021Z</time></trkpt><trkpt lat="44.8039427032464" lon="11.889310145728972"><ele>1.5</ele><time>2026-04-11T08:52:54.021Z</time></trkpt><trkpt lat="44.80385141379219" lon="11.889610809597658"><ele>1.0</ele><time>2026-04-11T08:52:55.021Z</time></trkpt><trkpt lat="44.80374792037673" lon="11.889891164335406"><ele>1.0</ele><time>2026-04-11T08:52:56.021Z</time></trkpt><trkpt lat="44.8036256218517" lon="11.890168452497035"><ele>1.0</ele><time>2026-04-11T08:52:57.021Z</time></trkpt><trkpt lat="44.8034947124414" lon="11.890445426010233"><ele>1.0</ele><time>2026-04-11T08:52:58.021Z</time></trkpt><trkpt lat="44.80335466848794" lon="11.89070843994823"><ele>1.0</ele><time>2026-04-11T08:52:59.021Z</time></trkpt><trkpt lat="44.80318078795323" lon="11.890949018992952"><ele>0.5</ele><time>2026-04-11T08:53:00.021Z</time></trkpt><trkpt lat="44.80299834308376" lon="11.891169512816623"><ele>0.0</ele><time>2026-04-11T08:53:01.021Z</time></trkpt><trkpt lat="44.802808953397104" lon="11.89138573867877"><ele>0.0</ele><time>2026-04-11T08:53:02.021Z</time></trkpt><trkpt lat="44.80262160440842" lon="11.89161477743035"><ele>0.0</ele><time>2026-04-11T08:53:03.021Z</time></trkpt><trkpt lat="44.8024403845569" lon="11.89185544854682"><ele>-0.5</ele><time>2026-04-11T08:53:04.021Z</time></trkpt><trkpt lat="44.80225584909991" lon="11.892109000572393"><ele>-1.0</ele><time>2026-04-11T08:53:05.021Z</time></trkpt><trkpt lat="44.80207017001578" lon="11.892364716823835"><ele>-1.5</ele><time>2026-04-11T08:53:06.021Z</time></trkpt><trkpt lat="44.80188550019261" lon="11.892624888153438"><ele>-2.0</ele><time>2026-04-11T08:53:07.021Z</time></trkpt><trkpt lat="44.80170825929148" lon="11.892879061733584"><ele>-1.3333333333333333</ele><time>2026-04-11T08:53:08.021Z</time></trkpt><trkpt lat="44.801553497798785" lon="11.893092632701403"><ele>-0.6666666666666666</ele><time>2026-04-11T08:53:09.021Z</time></trkpt><trkpt lat="44.8014250285988" lon="11.893277000656376"><ele>0.0</ele><time>2026-04-11T08:53:10.021Z</time></trkpt><trkpt lat="44.80130147953654" lon="11.89345487504576"><ele>0.0</ele><time>2026-04-11T08:53:11.021Z</time></trkpt><trkpt lat="44.80119589569811" lon="11.893617533378327"><ele>0.0</ele><time>2026-04-11T08:53:12.021Z</time></trkpt><trkpt lat="44.80111151540307" lon="11.89374948296242"><ele>0.0</ele><time>2026-04-11T08:53:13.021Z</time></trkpt><trkpt lat="44.80103927603722" lon="11.89383860038681"><ele>0.0</ele><time>2026-04-11T08:53:14.021Z</time></trkpt><trkpt lat="44.800967608914966" lon="11.893855629761122"><ele>0.2</ele><time>2026-04-11T08:53:15.021Z</time></trkpt><trkpt lat="44.800858402119815" lon="11.893807270178668"><ele>0.4</ele><time>2026-04-11T08:53:17.021Z</time></trkpt><trkpt lat="44.800810710796384" lon="11.89372567318434"><ele>0.6000000000000001</ele><time>2026-04-11T08:53:18.021Z</time></trkpt><trkpt lat="44.80074292097969" lon="11.89361064680616"><ele>0.8</ele><time>2026-04-11T08:53:19.022Z</time></trkpt><trkpt lat="44.80066953964182" lon="11.893452902131726"><ele>1.0</ele><time>2026-04-11T08:53:20.022Z</time></trkpt><trkpt lat="44.8005653162022" lon="11.89328406347619"><ele>1.0</ele><time>2026-04-11T08:53:21.022Z</time></trkpt><trkpt lat="44.800445696051675" lon="11.893094121336741"><ele>1.0</ele><time>2026-04-11T08:53:22.022Z</time></trkpt><trkpt lat="44.80032362321254" lon="11.892893483126997"><ele>1.0</ele><time>2026-04-11T08:53:23.022Z</time></trkpt><trkpt lat="44.80020266381053" lon="11.892695331630653"><ele>1.0</ele><time>2026-04-11T08:53:24.022Z</time></trkpt><trkpt lat="44.80007764490146" lon="11.89248308230814"><ele>1.0</ele><time>2026-04-11T08:53:25.022Z</time></trkpt><trkpt lat="44.79994622176766" lon="11.892269725569186"><ele>1.0</ele><time>2026-04-11T08:53:26.022Z</time></trkpt><trkpt lat="44.799815360951726" lon="11.892051394620982"><ele>1.0</ele><time>2026-04-11T08:53:27.022Z</time></trkpt><trkpt lat="44.799687890719795" lon="11.89183547496694"><ele>1.0</ele><time>2026-04-11T08:53:28.022Z</time></trkpt><trkpt lat="44.79956687769011" lon="11.891626038717886"><ele>1.0</ele><time>2026-04-11T08:53:29.022Z</time></trkpt><trkpt lat="44.799451928090335" lon="11.891423747093503"><ele>1.0</ele><time>2026-04-11T08:53:30.022Z</time></trkpt><trkpt lat="44.79933230030825" lon="11.891237172398286"><ele>1.0</ele><time>2026-04-11T08:53:31.022Z</time></trkpt><trkpt lat="44.79920928557411" lon="11.891072785721452"><ele>1.0</ele><time>2026-04-11T08:53:32.022Z</time></trkpt><trkpt lat="44.79907441347948" lon="11.890949316096398"><ele>1.3333333333333333</ele><time>2026-04-11T08:53:33.022Z</time></trkpt><trkpt lat="44.7989264899127" lon="11.890856418244587"><ele>1.6666666666666665</ele><time>2026-04-11T08:53:34.022Z</time></trkpt><trkpt lat="44.798768535079866" lon="11.890771754622927"><ele>2.0</ele><time>2026-04-11T08:53:35.022Z</time></trkpt><trkpt lat="44.798614855806676" lon="11.890689042640945"><ele>2.0</ele><time>2026-04-11T08:53:36.022Z</time></trkpt><trkpt lat="44.79847350100607" lon="11.890614702265243"><ele>2.0</ele><time>2026-04-11T08:53:37.022Z</time></trkpt><trkpt lat="44.79833979069263" lon="11.890557941561163"><ele>2.0</ele><time>2026-04-11T08:53:38.022Z</time></trkpt><trkpt lat="44.798224396851275" lon="11.890466057940232"><ele>2.0</ele><time>2026-04-11T08:53:39.022Z</time></trkpt><trkpt lat="44.7981202621093" lon="11.890402060792033"><ele>2.0</ele><time>2026-04-11T08:53:40.022Z</time></trkpt><trkpt lat="44.79801145201399" lon="11.890344086344747"><ele>2.0</ele><time>2026-04-11T08:53:41.022Z</time></trkpt><trkpt lat="44.79790459276883" lon="11.890275906837447"><ele>2.0</ele><time>2026-04-11T08:53:42.022Z</time></trkpt><trkpt lat="44.797800510783624" lon="11.890205177028239"><ele>2.0</ele><time>2026-04-11T08:53:43.022Z</time></trkpt><trkpt lat="44.797692591263484" lon="11.890135661558116"><ele>2.4000000000000004</ele><time>2026-04-11T08:53:44.022Z</time></trkpt><trkpt lat="44.79759452283849" lon="11.890070674200835"><ele>2.8000000000000003</ele><time>2026-04-11T08:53:45.022Z</time></trkpt><trkpt lat="44.797503901943855" lon="11.88997474583952"><ele>3.2</ele><time>2026-04-11T08:53:46.022Z</time></trkpt><trkpt lat="44.797411382195385" lon="11.889903933894931"><ele>3.6</ele><time>2026-04-11T08:53:47.022Z</time></trkpt><trkpt lat="44.797326694727225" lon="11.889838808508337"><ele>4.0</ele><time>2026-04-11T08:53:48.022Z</time></trkpt><trkpt lat="44.79724894176397" lon="11.889777664573579"><ele>4.0</ele><time>2026-04-11T08:53:49.022Z</time></trkpt><trkpt lat="44.797173715635076" lon="11.889721600660993"><ele>4.0</ele><time>2026-04-11T08:53:50.022Z</time></trkpt><trkpt lat="44.79709093118143" lon="11.889685234502103"><ele>4.0</ele><time>2026-04-11T08:53:51.022Z</time></trkpt><trkpt lat="44.79700879661619" lon="11.88968833347523"><ele>4.0</ele><time>2026-04-11T08:53:52.022Z</time></trkpt><trkpt lat="44.796880122112974" lon="11.889832000599432"><ele>4.0</ele><time>2026-04-11T08:53:53.022Z</time></trkpt><trkpt lat="44.79678079805773" lon="11.889939684285169"><ele>3.6666666666666665</ele><time>2026-04-11T08:53:54.022Z</time></trkpt><trkpt lat="44.79666651942645" lon="11.890075441437515"><ele>3.333333333333333</ele><time>2026-04-11T08:53:55.022Z</time></trkpt><trkpt lat="44.79656318441701" lon="11.890237418536918"><ele>3.0</ele><time>2026-04-11T08:53:56.022Z</time></trkpt><trkpt lat="44.796469094152684" lon="11.890409422268627"><ele>2.3333333333333335</ele><time>2026-04-11T08:53:57.022Z</time></trkpt><trkpt lat="44.79636575941459" lon="11.890604003051722"><ele>1.6666666666666665</ele><time>2026-04-11T08:53:58.022Z</time></trkpt><trkpt lat="44.79625653133615" lon="11.890812777425431"><ele>1.0</ele><time>2026-04-11T08:53:59.022Z</time></trkpt><trkpt lat="44.79614523035003" lon="11.891025513822427"><ele>0.6666666666666666</ele><time>2026-04-11T08:54:00.022Z</time></trkpt><trkpt lat="44.79603377701223" lon="11.891238541518034"><ele>0.3333333333333333</ele><time>2026-04-11T08:54:01.022Z</time></trkpt><trkpt lat="44.79592676498097" lon="11.891441634168306"><ele>0.0</ele><time>2026-04-11T08:54:02.022Z</time></trkpt><trkpt lat="44.795815671432756" lon="11.891644601546451"><ele>0.3333333333333333</ele><time>2026-04-11T08:54:03.022Z</time></trkpt><trkpt lat="44.795705508295974" lon="11.891845015412787"><ele>0.6666666666666666</ele><time>2026-04-11T08:54:04.022Z</time></trkpt><trkpt lat="44.79558873438973" lon="11.892057455934172"><ele>1.0</ele><time>2026-04-11T08:54:05.022Z</time></trkpt><trkpt lat="44.7954846283163" lon="11.89227434228886"><ele>1.0</ele><time>2026-04-11T08:54:06.022Z</time></trkpt><trkpt lat="44.795363589704806" lon="11.89245973831618"><ele>1.0</ele><time>2026-04-11T08:54:07.022Z</time></trkpt><trkpt lat="44.79525722717363" lon="11.892640128600139"><ele>1.0</ele><time>2026-04-11T08:54:08.022Z</time></trkpt><trkpt lat="44.79515306817452" lon="11.89282106993948"><ele>1.0</ele><time>2026-04-11T08:54:09.022Z</time></trkpt><trkpt lat="44.795046123313284" lon="11.893017400393989"><ele>1.0</ele><time>2026-04-11T08:54:10.022Z</time></trkpt><trkpt lat="44.794930158978936" lon="11.893218863592711"><ele>1.0</ele><time>2026-04-11T08:54:11.022Z</time></trkpt><trkpt lat="44.794812325617336" lon="11.893422341098454"><ele>1.0</ele><time>2026-04-11T08:54:12.022Z</time></trkpt><trkpt lat="44.79470023801453" lon="11.893631740330852"><ele>1.0</ele><time>2026-04-11T08:54:13.022Z</time></trkpt><trkpt lat="44.794595572689" lon="11.893837256159863"><ele>1.0</ele><time>2026-04-11T08:54:14.022Z</time></trkpt><trkpt lat="44.79449508206333" lon="11.894044466281118"><ele>1.0</ele><time>2026-04-11T08:54:15.022Z</time></trkpt><trkpt lat="44.794406314903085" lon="11.894250037259095"><ele>1.0</ele><time>2026-04-11T08:54:16.022Z</time></trkpt><trkpt lat="44.794317437510564" lon="11.89446308241064"><ele>1.0</ele><time>2026-04-11T08:54:17.022Z</time></trkpt><trkpt lat="44.794225007960144" lon="11.894673567531921"><ele>1.0</ele><time>2026-04-11T08:54:18.022Z</time></trkpt><trkpt lat="44.7941308100751" lon="11.894880098353147"><ele>1.0</ele><time>2026-04-11T08:54:19.022Z</time></trkpt><trkpt lat="44.79404106228987" lon="11.89509289285549"><ele>1.0</ele><time>2026-04-11T08:54:20.022Z</time></trkpt><trkpt lat="44.79394090684336" lon="11.895292707200904"><ele>0.3333333333333333</ele><time>2026-04-11T08:54:21.022Z</time></trkpt><trkpt lat="44.79385737837061" lon="11.895500227646268"><ele>-0.3333333333333333</ele><time>2026-04-11T08:54:22.022Z</time></trkpt><trkpt lat="44.79376709304624" lon="11.895721771909288"><ele>-1.0</ele><time>2026-04-11T08:54:23.022Z</time></trkpt><trkpt lat="44.79365612112847" lon="11.89593948218709"><ele>-1.0</ele><time>2026-04-11T08:54:24.022Z</time></trkpt><trkpt lat="44.793544486108495" lon="11.896168787890455"><ele>-1.0</ele><time>2026-04-11T08:54:25.022Z</time></trkpt><trkpt lat="44.79343191830811" lon="11.89639632515006"><ele>-1.0</ele><time>2026-04-11T08:54:26.022Z</time></trkpt><trkpt lat="44.79333976778654" lon="11.896623244479592"><ele>-0.6666666666666666</ele><time>2026-04-11T08:54:27.022Z</time></trkpt><trkpt lat="44.79322702046262" lon="11.89681247379015"><ele>-0.3333333333333333</ele><time>2026-04-11T08:54:28.022Z</time></trkpt><trkpt lat="44.793127883659466" lon="11.897016032625277"><ele>0.0</ele><time>2026-04-11T08:54:29.022Z</time></trkpt><trkpt lat="44.7930251289002" lon="11.89722870892914"><ele>0.0</ele><time>2026-04-11T08:54:30.022Z</time></trkpt><trkpt lat="44.792923805350206" lon="11.897437340891198"><ele>0.0</ele><time>2026-04-11T08:54:31.022Z</time></trkpt><trkpt lat="44.79282425197342" lon="11.897639998546435"><ele>0.0</ele><time>2026-04-11T08:54:32.022Z</time></trkpt><trkpt lat="44.79272315027842" lon="11.897836508252297"><ele>0.3333333333333333</ele><time>2026-04-11T08:54:33.022Z</time></trkpt><trkpt lat="44.79261827560497" lon="11.898026904463977"><ele>0.6666666666666666</ele><time>2026-04-11T08:54:34.022Z</time></trkpt><trkpt lat="44.79250163341651" lon="11.898223706001321"><ele>1.0</ele><time>2026-04-11T08:54:35.022Z</time></trkpt><trkpt lat="44.792385318246026" lon="11.898439972414327"><ele>0.3333333333333333</ele><time>2026-04-11T08:54:36.022Z</time></trkpt><trkpt lat="44.792249317472326" lon="11.898635112426057"><ele>-0.3333333333333333</ele><time>2026-04-11T08:54:37.022Z</time></trkpt><trkpt lat="44.79210567703339" lon="11.898823029208554"><ele>-1.0</ele><time>2026-04-11T08:54:38.022Z</time></trkpt><trkpt lat="44.791925612093166" lon="11.898986922274275"><ele>-1.0</ele><time>2026-04-11T08:54:39.022Z</time></trkpt><trkpt lat="44.791729455691296" lon="11.899158653585081"><ele>-1.0</ele><time>2026-04-11T08:54:40.022Z</time></trkpt><trkpt lat="44.79151278757652" lon="11.899336451164762"><ele>-1.5</ele><time>2026-04-11T08:54:41.022Z</time></trkpt><trkpt lat="44.791285176267586" lon="11.899524552493249"><ele>-2.0</ele><time>2026-04-11T08:54:42.022Z</time></trkpt><trkpt lat="44.791060502004555" lon="11.899712137669571"><ele>-1.5</ele><time>2026-04-11T08:54:43.022Z</time></trkpt><trkpt lat="44.79085206501572" lon="11.899882348404313"><ele>-1.0</ele><time>2026-04-11T08:54:44.022Z</time></trkpt><trkpt lat="44.790650842067656" lon="11.90005132489862"><ele>-0.5</ele><time>2026-04-11T08:54:45.022Z</time></trkpt><trkpt lat="44.79045769882684" lon="11.900221822563525"><ele>0.0</ele><time>2026-04-11T08:54:46.022Z</time></trkpt><trkpt lat="44.79027459212278" lon="11.90041896351652"><ele>0.0</ele><time>2026-04-11T08:54:47.022Z</time></trkpt><trkpt lat="44.79010831043587" lon="11.900655360102439"><ele>0.0</ele><time>2026-04-11T08:54:48.022Z</time></trkpt><trkpt lat="44.789961811365075" lon="11.900934428776944"><ele>0.0</ele><time>2026-04-11T08:54:49.022Z</time></trkpt><trkpt lat="44.78980075354045" lon="11.901218184297779"><ele>0.0</ele><time>2026-04-11T08:54:50.022Z</time></trkpt><trkpt lat="44.78963665783926" lon="11.9015133208148"><ele>0.5</ele><time>2026-04-11T08:54:51.022Z</time></trkpt><trkpt lat="44.78947299331176" lon="11.90180850545961"><ele>1.0</ele><time>2026-04-11T08:54:52.022Z</time></trkpt><trkpt lat="44.7893141462782" lon="11.902105609326025"><ele>0.5</ele><time>2026-04-11T08:54:53.022Z</time></trkpt><trkpt lat="44.78916096177215" lon="11.902402644090284"><ele>0.0</ele><time>2026-04-11T08:54:54.022Z</time></trkpt><trkpt lat="44.788999158371325" lon="11.90268404152337"><ele>0.0</ele><time>2026-04-11T08:54:55.022Z</time></trkpt><trkpt lat="44.78887581109187" lon="11.902999108339625"><ele>0.0</ele><time>2026-04-11T08:54:56.022Z</time></trkpt><trkpt lat="44.78874310727327" lon="11.903302656057562"><ele>0.0</ele><time>2026-04-11T08:54:57.022Z</time></trkpt><trkpt lat="44.78863784991185" lon="11.90362938098263"><ele>0.0</ele><time>2026-04-11T08:54:58.022Z</time></trkpt><trkpt lat="44.78848333098559" lon="11.903931364454811"><ele>0.0</ele><time>2026-04-11T08:54:59.022Z</time></trkpt><trkpt lat="44.78833610032981" lon="11.904242724402051"><ele>0.0</ele><time>2026-04-11T08:55:00.022Z</time></trkpt><trkpt lat="44.78817248373707" lon="11.904554727860015"><ele>0.0</ele><time>2026-04-11T08:55:01.022Z</time></trkpt><trkpt lat="44.78800477262922" lon="11.904871928573462"><ele>0.0</ele><time>2026-04-11T08:55:02.022Z</time></trkpt><trkpt lat="44.78783391791412" lon="11.905192209532853"><ele>-0.5</ele><time>2026-04-11T08:55:03.022Z</time></trkpt><trkpt lat="44.7876581708834" lon="11.90551372524543"><ele>-1.0</ele><time>2026-04-11T08:55:04.022Z</time></trkpt><trkpt lat="44.787477196541026" lon="11.905847896000544"><ele>-0.5</ele><time>2026-04-11T08:55:05.022Z</time></trkpt><trkpt lat="44.787290975096376" lon="11.906184837268965"><ele>0.0</ele><time>2026-04-11T08:55:06.022Z</time></trkpt><trkpt lat="44.78710936756414" lon="11.90652618698266"><ele>0.0</ele><time>2026-04-11T08:55:07.022Z</time></trkpt><trkpt lat="44.78692834537873" lon="11.906861097207196"><ele>0.0</ele><time>2026-04-11T08:55:08.022Z</time></trkpt><trkpt lat="44.78674352656683" lon="11.90719089517599"><ele>-0.5</ele><time>2026-04-11T08:55:09.022Z</time></trkpt><trkpt lat="44.7865564575867" lon="11.907521841218323"><ele>-1.0</ele><time>2026-04-11T08:55:10.022Z</time></trkpt><trkpt lat="44.78636932340069" lon="11.907857165282389"><ele>-1.0</ele><time>2026-04-11T08:55:11.022Z</time></trkpt><trkpt lat="44.78618123400089" lon="11.908199733603055"><ele>-1.0</ele><time>2026-04-11T08:55:12.022Z</time></trkpt><trkpt lat="44.78599284950185" lon="11.908546497142341"><ele>-1.0</ele><time>2026-04-11T08:55:13.022Z</time></trkpt><trkpt lat="44.785803478007104" lon="11.90889360102872"><ele>-1.0</ele><time>2026-04-11T08:55:14.022Z</time></trkpt><trkpt lat="44.7856158414878" lon="11.909243704021492"><ele>-1.5</ele><time>2026-04-11T08:55:15.022Z</time></trkpt><trkpt lat="44.78542563224757" lon="11.909588448956162"><ele>-2.0</ele><time>2026-04-11T08:55:16.022Z</time></trkpt><trkpt lat="44.7852216463787" lon="11.909924408378236"><ele>-2.5</ele><time>2026-04-11T08:55:17.022Z</time></trkpt><trkpt lat="44.785036132186036" lon="11.910265851853195"><ele>-3.0</ele><time>2026-04-11T08:55:18.022Z</time></trkpt><trkpt lat="44.784852316945845" lon="11.910605551398874"><ele>-3.0</ele><time>2026-04-11T08:55:19.022Z</time></trkpt><trkpt lat="44.78467272117295" lon="11.910939897090472"><ele>-3.0</ele><time>2026-04-11T08:55:20.022Z</time></trkpt><trkpt lat="44.78449719267471" lon="11.911263644677408"><ele>-2.0</ele><time>2026-04-11T08:55:21.022Z</time></trkpt><trkpt lat="44.784325232879944" lon="11.911586833420012"><ele>-1.0</ele><time>2026-04-11T08:55:22.022Z</time></trkpt><trkpt lat="44.784154562216386" lon="11.911904348448962"><ele>-1.0</ele><time>2026-04-11T08:55:23.023Z</time></trkpt><trkpt lat="44.783985392352896" lon="11.912215438028188"><ele>-1.0</ele><time>2026-04-11T08:55:24.023Z</time></trkpt><trkpt lat="44.783810511936146" lon="11.912526220384901"><ele>-1.0</ele><time>2026-04-11T08:55:25.023Z</time></trkpt><trkpt lat="44.78362540046506" lon="11.912827682008134"><ele>-1.0</ele><time>2026-04-11T08:55:26.023Z</time></trkpt><trkpt lat="44.78342898122755" lon="11.913128334305648"><ele>-0.5</ele><time>2026-04-11T08:55:27.023Z</time></trkpt><trkpt lat="44.783231987814716" lon="11.913435097760694"><ele>0.0</ele><time>2026-04-11T08:55:28.024Z</time></trkpt><trkpt lat="44.78303089420044" lon="11.91374160961486"><ele>0.0</ele><time>2026-04-11T08:55:29.024Z</time></trkpt><trkpt lat="44.78283500731229" lon="11.914047976767035"><ele>0.0</ele><time>2026-04-11T08:55:30.024Z</time></trkpt><trkpt lat="44.78264357626414" lon="11.914348243866087"><ele>0.0</ele><time>2026-04-11T08:55:31.024Z</time></trkpt><trkpt lat="44.782454954232" lon="11.914635388851448"><ele>0.0</ele><time>2026-04-11T08:55:32.024Z</time></trkpt><trkpt lat="44.782270681274206" lon="11.914925153167058"><ele>-1.0</ele><time>2026-04-11T08:55:33.024Z</time></trkpt><trkpt lat="44.7820994134261" lon="11.91522983099316"><ele>-2.0</ele><time>2026-04-11T08:55:34.024Z</time></trkpt><trkpt lat="44.781932948733655" lon="11.915558034755593"><ele>-2.0</ele><time>2026-04-11T08:55:35.024Z</time></trkpt><trkpt lat="44.78177650961395" lon="11.915903540932854"><ele>-2.0</ele><time>2026-04-11T08:55:36.024Z</time></trkpt><trkpt lat="44.78161644169248" lon="11.916254508409695"><ele>-2.0</ele><time>2026-04-11T08:55:37.024Z</time></trkpt><trkpt lat="44.7814541632471" lon="11.916603322166806"><ele>-2.0</ele><time>2026-04-11T08:55:38.024Z</time></trkpt><trkpt lat="44.781294046404604" lon="11.916947854613145"><ele>-2.0</ele><time>2026-04-11T08:55:39.024Z</time></trkpt><trkpt lat="44.78114043595296" lon="11.91728366350675"><ele>-2.0</ele><time>2026-04-11T08:55:40.024Z</time></trkpt><trkpt lat="44.780991299080604" lon="11.917619782354386"><ele>-1.0</ele><time>2026-04-11T08:55:41.024Z</time></trkpt><trkpt lat="44.78085074718503" lon="11.917960799886428"><ele>0.0</ele><time>2026-04-11T08:55:42.024Z</time></trkpt><trkpt lat="44.780727466268964" lon="11.918306723939175"><ele>-1.0</ele><time>2026-04-11T08:55:43.024Z</time></trkpt><trkpt lat="44.78060799054437" lon="11.918654383927743"><ele>-2.0</ele><time>2026-04-11T08:55:44.024Z</time></trkpt><trkpt lat="44.78050054873594" lon="11.918990046869041"><ele>-1.5</ele><time>2026-04-11T08:55:45.024Z</time></trkpt><trkpt lat="44.78040584131154" lon="11.91931051422634"><ele>-1.0</ele><time>2026-04-11T08:55:46.024Z</time></trkpt><trkpt lat="44.78031599729548" lon="11.919611294389238"><ele>-1.0</ele><time>2026-04-11T08:55:47.024Z</time></trkpt><trkpt lat="44.78024141849229" lon="11.919896807714334"><ele>-1.0</ele><time>2026-04-11T08:55:48.024Z</time></trkpt><trkpt lat="44.78018580057997" lon="11.92019206182076"><ele>-1.0</ele><time>2026-04-11T08:55:49.024Z</time></trkpt><trkpt lat="44.78014255121594" lon="11.920482160027632"><ele>-1.0</ele><time>2026-04-11T08:55:50.024Z</time></trkpt><trkpt lat="44.78011657683153" lon="11.920765934698702"><ele>-1.0</ele><time>2026-04-11T08:55:51.024Z</time></trkpt><trkpt lat="44.7801084641906" lon="11.921033257581177"><ele>-1.0</ele><time>2026-04-11T08:55:52.024Z</time></trkpt><trkpt lat="44.7801293841088" lon="11.92131497965706"><ele>-0.6666666666666666</ele><time>2026-04-11T08:55:53.024Z</time></trkpt><trkpt lat="44.78018925642843" lon="11.921596688077468"><ele>-0.3333333333333333</ele><time>2026-04-11T08:55:54.024Z</time></trkpt><trkpt lat="44.780273954385365" lon="11.92186447204049"><ele>0.0</ele><time>2026-04-11T08:55:55.024Z</time></trkpt><trkpt lat="44.78034491127162" lon="11.922087399483956"><ele>0.0</ele><time>2026-04-11T08:55:56.024Z</time></trkpt><trkpt lat="44.780416968555706" lon="11.92229656406696"><ele>0.0</ele><time>2026-04-11T08:55:57.024Z</time></trkpt><trkpt lat="44.78048989563804" lon="11.922504641175488"><ele>0.0</ele><time>2026-04-11T08:55:58.024Z</time></trkpt><trkpt lat="44.780569978813425" lon="11.922719131079715"><ele>0.0</ele><time>2026-04-11T08:55:59.024Z</time></trkpt><trkpt lat="44.78064814083828" lon="11.922922437845086"><ele>0.0</ele><time>2026-04-11T08:56:00.024Z</time></trkpt><trkpt lat="44.78071212249716" lon="11.923124008879268"><ele>0.0</ele><time>2026-04-11T08:56:01.024Z</time></trkpt><trkpt lat="44.78077998077343" lon="11.923307169629844"><ele>-0.3333333333333333</ele><time>2026-04-11T08:56:02.024Z</time></trkpt><trkpt lat="44.780836313014014" lon="11.92350050839793"><ele>-0.6666666666666666</ele><time>2026-04-11T08:56:03.024Z</time></trkpt><trkpt lat="44.78087380252475" lon="11.923712284553982"><ele>-1.0</ele><time>2026-04-11T08:56:04.024Z</time></trkpt><trkpt lat="44.78089887290991" lon="11.923917838113534"><ele>-1.0</ele><time>2026-04-11T08:56:05.024Z</time></trkpt><trkpt lat="44.78092421614555" lon="11.924107530764534"><ele>-1.0</ele><time>2026-04-11T08:56:06.024Z</time></trkpt><trkpt lat="44.780937026899956" lon="11.924307461067269"><ele>-1.0</ele><time>2026-04-11T08:56:07.024Z</time></trkpt><trkpt lat="44.780945868964494" lon="11.924504698168173"><ele>-1.0</ele><time>2026-04-11T08:56:08.024Z</time></trkpt><trkpt lat="44.78096257925549" lon="11.924704635936859"><ele>-1.0</ele><time>2026-04-11T08:56:09.024Z</time></trkpt><trkpt lat="44.78097839447432" lon="11.924904567206745"><ele>-1.0</ele><time>2026-04-11T08:56:10.024Z</time></trkpt><trkpt lat="44.78098861575335" lon="11.925092261896388"><ele>-1.0</ele><time>2026-04-11T08:56:11.024Z</time></trkpt><trkpt lat="44.78100513494458" lon="11.92526418408724"><ele>-1.0</ele><time>2026-04-11T08:56:12.024Z</time></trkpt><trkpt lat="44.78101422047711" lon="11.925429577403918"><ele>-1.0</ele><time>2026-04-11T08:56:13.024Z</time></trkpt><trkpt lat="44.781016103092895" lon="11.92560204101815"><ele>-1.0</ele><time>2026-04-11T08:56:14.024Z</time></trkpt><trkpt lat="44.781021008951015" lon="11.925758365062881"><ele>-1.0</ele><time>2026-04-11T08:56:15.024Z</time></trkpt><trkpt lat="44.78102378895691" lon="11.925903829854592"><ele>-1.0</ele><time>2026-04-11T08:56:16.024Z</time></trkpt><trkpt lat="44.78102066781986" lon="11.926046090391926"><ele>-1.0</ele><time>2026-04-11T08:56:17.024Z</time></trkpt><trkpt lat="44.78101868613876" lon="11.926202238449156"><ele>-1.0</ele><time>2026-04-11T08:56:18.024Z</time></trkpt><trkpt lat="44.78099834259468" lon="11.926350512928094"><ele>-1.0</ele><time>2026-04-11T08:56:19.024Z</time></trkpt><trkpt lat="44.78096016051249" lon="11.926477243819665"><ele>-1.0</ele><time>2026-04-11T08:56:20.024Z</time></trkpt><trkpt lat="44.78089127610122" lon="11.92659739798083"><ele>-1.0</ele><time>2026-04-11T08:56:21.024Z</time></trkpt><trkpt lat="44.78079790527215" lon="11.926707169696542"><ele>-1.0</ele><time>2026-04-11T08:56:22.024Z</time></trkpt><trkpt lat="44.780672674133626" lon="11.926822111744988"><ele>-1.0</ele><time>2026-04-11T08:56:23.024Z</time></trkpt><trkpt lat="44.78049535017093" lon="11.926922678024422"><ele>-1.0</ele><time>2026-04-11T08:56:24.024Z</time></trkpt><trkpt lat="44.78030734562782" lon="11.927081216550722"><ele>-1.0</ele><time>2026-04-11T08:56:25.024Z</time></trkpt><trkpt lat="44.7801072319207" lon="11.927247207955396"><ele>-1.0</ele><time>2026-04-11T08:56:26.024Z</time></trkpt><trkpt lat="44.779898557703106" lon="11.92742009767202"><ele>-1.0</ele><time>2026-04-11T08:56:27.024Z</time></trkpt><trkpt lat="44.779687621062735" lon="11.927594475083957"><ele>-1.0</ele><time>2026-04-11T08:56:28.024Z</time></trkpt><trkpt lat="44.77946133385522" lon="11.927780198216444"><ele>-1.0</ele><time>2026-04-11T08:56:29.024Z</time></trkpt><trkpt lat="44.779246856724825" lon="11.927982228832649"><ele>-1.0</ele><time>2026-04-11T08:56:30.024Z</time></trkpt><trkpt lat="44.77901150982055" lon="11.928152233416995"><ele>-1.0</ele><time>2026-04-11T08:56:31.024Z</time></trkpt><trkpt lat="44.77878177953649" lon="11.92834053035079"><ele>-1.5</ele><time>2026-04-11T08:56:32.024Z</time></trkpt><trkpt lat="44.77855113227956" lon="11.928532751774075"><ele>-2.0</ele><time>2026-04-11T08:56:33.024Z</time></trkpt><trkpt lat="44.778309115380054" lon="11.928730573303774"><ele>-2.0</ele><time>2026-04-11T08:56:34.024Z</time></trkpt><trkpt lat="44.778063522926075" lon="11.928938667231115"><ele>-2.0</ele><time>2026-04-11T08:56:35.024Z</time></trkpt><trkpt lat="44.777814170425714" lon="11.9291463382261"><ele>-2.0</ele><time>2026-04-11T08:56:36.024Z</time></trkpt><trkpt lat="44.7775610100428" lon="11.929351493728962"><ele>-2.0</ele><time>2026-04-11T08:56:37.024Z</time></trkpt><trkpt lat="44.777307487742746" lon="11.929559762023095"><ele>-2.0</ele><time>2026-04-11T08:56:38.025Z</time></trkpt><trkpt lat="44.777056044396595" lon="11.929772248296374"><ele>-2.0</ele><time>2026-04-11T08:56:39.025Z</time></trkpt><trkpt lat="44.776801500168304" lon="11.929981394403208"><ele>0.0</ele><time>2026-04-11T08:56:40.025Z</time></trkpt><trkpt lat="44.776547776261886" lon="11.930190487691625"><ele>2.0</ele><time>2026-04-11T08:56:41.025Z</time></trkpt><trkpt lat="44.776302163176155" lon="11.93040543810986"><ele>2.0</ele><time>2026-04-11T08:56:42.025Z</time></trkpt><trkpt lat="44.77604598437432" lon="11.930615454984954"><ele>2.0</ele><time>2026-04-11T08:56:43.025Z</time></trkpt><trkpt lat="44.77580016958046" lon="11.930826778002194"><ele>0.5</ele><time>2026-04-11T08:56:44.025Z</time></trkpt><trkpt lat="44.7755554143367" lon="11.93104130890355"><ele>-1.0</ele><time>2026-04-11T08:56:45.025Z</time></trkpt><trkpt lat="44.775301346092704" lon="11.931234215210225"><ele>-1.0</ele><time>2026-04-11T08:56:46.025Z</time></trkpt><trkpt lat="44.77505573874127" lon="11.931441189690453"><ele>-1.0</ele><time>2026-04-11T08:56:47.025Z</time></trkpt><trkpt lat="44.77481711174806" lon="11.931642282130086"><ele>-1.0</ele><time>2026-04-11T08:56:48.025Z</time></trkpt><trkpt lat="44.774587841932494" lon="11.931835488654675"><ele>-1.0</ele><time>2026-04-11T08:56:49.025Z</time></trkpt><trkpt lat="44.77437160883734" lon="11.932016186530468"><ele>0.5</ele><time>2026-04-11T08:56:50.025Z</time></trkpt><trkpt lat="44.774168031653986" lon="11.932186279019408"><ele>2.0</ele><time>2026-04-11T08:56:51.025Z</time></trkpt><trkpt lat="44.773977483220946" lon="11.932345410636406"><ele>2.0</ele><time>2026-04-11T08:56:52.025Z</time></trkpt><trkpt lat="44.773799533925114" lon="11.93249401874958"><ele>2.0</ele><time>2026-04-11T08:56:53.025Z</time></trkpt><trkpt lat="44.77364691734166" lon="11.93264237645799"><ele>2.0</ele><time>2026-04-11T08:56:54.025Z</time></trkpt><trkpt lat="44.773508148495196" lon="11.932749960029772"><ele>2.0</ele><time>2026-04-11T08:56:55.025Z</time></trkpt><trkpt lat="44.77338802687729" lon="11.93284730165287"><ele>2.0</ele><time>2026-04-11T08:56:56.025Z</time></trkpt><trkpt lat="44.7732891769184" lon="11.93293439440101"><ele>2.0</ele><time>2026-04-11T08:56:57.025Z</time></trkpt><trkpt lat="44.773204484811785" lon="11.933022684291673"><ele>2.0</ele><time>2026-04-11T08:56:58.025Z</time></trkpt><trkpt lat="44.77313830234156" lon="11.933137151480706"><ele>2.0</ele><time>2026-04-11T08:56:59.025Z</time></trkpt><trkpt lat="44.77310592312195" lon="11.93328544464394"><ele>2.0</ele><time>2026-04-11T08:57:00.025Z</time></trkpt><trkpt lat="44.77310870414962" lon="11.933441586668634"><ele>2.0</ele><time>2026-04-11T08:57:01.025Z</time></trkpt><trkpt lat="44.773153145091676" lon="11.933606404776793"><ele>2.0</ele><time>2026-04-11T08:57:02.025Z</time></trkpt><trkpt lat="44.773231964183935" lon="11.933791771046058"><ele>2.0</ele><time>2026-04-11T08:57:03.025Z</time></trkpt><trkpt lat="44.7733274152277" lon="11.934000811295093"><ele>2.0</ele><time>2026-04-11T08:57:04.025Z</time></trkpt><trkpt lat="44.77343688443486" lon="11.934231758038925"><ele>2.0</ele><time>2026-04-11T08:57:05.025Z</time></trkpt><trkpt lat="44.77355248621648" lon="11.934463011841496"><ele>2.0</ele><time>2026-04-11T08:57:06.025Z</time></trkpt><trkpt lat="44.773675021092686" lon="11.934703225295312"><ele>2.0</ele><time>2026-04-11T08:57:07.025Z</time></trkpt><trkpt lat="44.773801584811466" lon="11.93494367576621"><ele>2.0</ele><time>2026-04-11T08:57:08.025Z</time></trkpt><trkpt lat="44.773928125477006" lon="11.935186208505545"><ele>2.333333333333333</ele><time>2026-04-11T08:57:09.025Z</time></trkpt><trkpt lat="44.77405361513016" lon="11.935430688531307"><ele>2.6666666666666665</ele><time>2026-04-11T08:57:10.025Z</time></trkpt><trkpt lat="44.774181425172664" lon="11.935683656055227"><ele>3.0</ele><time>2026-04-11T08:57:11.025Z</time></trkpt><trkpt lat="44.774300584007754" lon="11.93593595343238"><ele>2.6666666666666665</ele><time>2026-04-11T08:57:12.025Z</time></trkpt><trkpt lat="44.77441954334775" lon="11.936152880148017"><ele>2.333333333333333</ele><time>2026-04-11T08:57:13.025Z</time></trkpt><trkpt lat="44.77452948471885" lon="11.936349466716973"><ele>2.0</ele><time>2026-04-11T08:57:14.025Z</time></trkpt><trkpt lat="44.774607254496594" lon="11.936540037010488"><ele>2.0</ele><time>2026-04-11T08:57:15.025Z</time></trkpt><trkpt lat="44.774686692327286" lon="11.936703177120222"><ele>2.0</ele><time>2026-04-11T08:57:16.025Z</time></trkpt><trkpt lat="44.77476323691176" lon="11.936860375562084"><ele>2.0</ele><time>2026-04-11T08:57:17.025Z</time></trkpt><trkpt lat="44.77483080705399" lon="11.936999142819698"><ele>2.0</ele><time>2026-04-11T08:57:18.025Z</time></trkpt><trkpt lat="44.77488754547403" lon="11.937115335195907"><ele>2.0</ele><time>2026-04-11T08:57:19.025Z</time></trkpt><trkpt lat="44.77493583331955" lon="11.93721277908548"><ele>2.0</ele><time>2026-04-11T08:57:20.025Z</time></trkpt><trkpt lat="44.77498042941169" lon="11.937304857565824"><ele>2.0</ele><time>2026-04-11T08:57:21.025Z</time></trkpt><trkpt lat="44.774995375575074" lon="11.937400195271133"><ele>2.0</ele><time>2026-04-11T08:57:22.025Z</time></trkpt><trkpt lat="44.77502860737849" lon="11.937527607152843"><ele>2.0</ele><time>2026-04-11T08:57:24.025Z</time></trkpt><trkpt lat="44.77488426398575" lon="11.937701408118816"><ele>2.0</ele><time>2026-04-11T08:57:25.025Z</time></trkpt><trkpt lat="44.77479387327556" lon="11.937790009014634"><ele>2.0</ele><time>2026-04-11T08:57:26.025Z</time></trkpt><trkpt lat="44.77468564344286" lon="11.937890536178154"><ele>2.0</ele><time>2026-04-11T08:57:27.025Z</time></trkpt><trkpt lat="44.774571471155106" lon="11.937993515582287"><ele>2.0</ele><time>2026-04-11T08:57:28.025Z</time></trkpt><trkpt lat="44.77445519555016" lon="11.9380916948187"><ele>2.0</ele><time>2026-04-11T08:57:29.025Z</time></trkpt><trkpt lat="44.77435858676105" lon="11.938172814125064"><ele>2.0</ele><time>2026-04-11T08:57:30.025Z</time></trkpt><trkpt lat="44.7742708651451" lon="11.938249566488532"><ele>2.0</ele><time>2026-04-11T08:57:31.026Z</time></trkpt><trkpt lat="44.77418490463528" lon="11.938328996432062"><ele>2.0</ele><time>2026-04-11T08:57:32.026Z</time></trkpt><trkpt lat="44.77410917838129" lon="11.938410495548906"><ele>2.0</ele><time>2026-04-11T08:57:33.026Z</time></trkpt><trkpt lat="44.774014012367815" lon="11.938461969309152"><ele>2.5</ele><time>2026-04-11T08:57:34.025Z</time></trkpt><trkpt lat="44.77394605905114" lon="11.938517954989367"><ele>3.0</ele><time>2026-04-11T08:57:35.026Z</time></trkpt><trkpt lat="44.773890281758284" lon="11.938566066881206"><ele>3.5</ele><time>2026-04-11T08:57:36.026Z</time></trkpt><trkpt lat="44.773815149095526" lon="11.938651420953676"><ele>4.0</ele><time>2026-04-11T08:57:38.026Z</time></trkpt><trkpt lat="44.77377838262919" lon="11.938749922901945"><ele>4.5</ele><time>2026-04-11T08:57:40.026Z</time></trkpt><trkpt lat="44.7737738885266" lon="11.938848027809506"><ele>5.0</ele><time>2026-04-11T08:57:41.026Z</time></trkpt><trkpt lat="44.77377498533453" lon="11.938987508531884"><ele>5.0</ele><time>2026-04-11T08:57:42.026Z</time></trkpt><trkpt lat="44.77375148430978" lon="11.939147084383304"><ele>5.0</ele><time>2026-04-11T08:57:43.026Z</time></trkpt><trkpt lat="44.77373199557257" lon="11.939314344944341"><ele>5.0</ele><time>2026-04-11T08:57:44.026Z</time></trkpt><trkpt lat="44.77370079675356" lon="11.939511618230444"><ele>5.0</ele><time>2026-04-11T08:57:45.026Z</time></trkpt><trkpt lat="44.773678845541156" lon="11.939731183863454"><ele>5.0</ele><time>2026-04-11T08:57:46.026Z</time></trkpt><trkpt lat="44.77363311093595" lon="11.939909350741246"><ele>5.0</ele><time>2026-04-11T08:57:47.026Z</time></trkpt><trkpt lat="44.77360542771669" lon="11.940069897846062"><ele>5.0</ele><time>2026-04-11T08:57:48.026Z</time></trkpt><trkpt lat="44.77358415126495" lon="11.940193288691205"><ele>5.0</ele><time>2026-04-11T08:57:49.026Z</time></trkpt><trkpt lat="44.77356188491521" lon="11.940322421349242"><ele>5.0</ele><time>2026-04-11T08:57:50.026Z</time></trkpt><trkpt lat="44.773538062319965" lon="11.940460578699064"><ele>4.6</ele><time>2026-04-11T08:57:51.026Z</time></trkpt><trkpt lat="44.773527843962114" lon="11.940615296630478"><ele>4.2</ele><time>2026-04-11T08:57:52.026Z</time></trkpt><trkpt lat="44.77349136554535" lon="11.940780660295763"><ele>3.8</ele><time>2026-04-11T08:57:53.026Z</time></trkpt><trkpt lat="44.773481907136635" lon="11.940931613354557"><ele>3.4</ele><time>2026-04-11T08:57:54.026Z</time></trkpt><trkpt lat="44.7734751868023" lon="11.941064138746214"><ele>3.0</ele><time>2026-04-11T08:57:55.026Z</time></trkpt><trkpt lat="44.7734677080241" lon="11.941180786137163"><ele>2.6</ele><time>2026-04-11T08:57:56.026Z</time></trkpt><trkpt lat="44.7734458539461" lon="11.94129317486395"><ele>2.1999999999999997</ele><time>2026-04-11T08:57:57.026Z</time></trkpt><trkpt lat="44.773402628376516" lon="11.941404207030065"><ele>1.8</ele><time>2026-04-11T08:57:58.026Z</time></trkpt><trkpt lat="44.7733389099542" lon="11.941501416176182"><ele>1.4</ele><time>2026-04-11T08:57:59.026Z</time></trkpt><trkpt lat="44.77325361969644" lon="11.941579254459814"><ele>1.0</ele><time>2026-04-11T08:58:00.026Z</time></trkpt><trkpt lat="44.77313522376846" lon="11.941612869284322"><ele>1.0</ele><time>2026-04-11T08:58:01.026Z</time></trkpt><trkpt lat="44.77299553414772" lon="11.94161145166627"><ele>1.0</ele><time>2026-04-11T08:58:02.026Z</time></trkpt><trkpt lat="44.77284512161862" lon="11.9415747387327"><ele>1.0</ele><time>2026-04-11T08:58:03.026Z</time></trkpt><trkpt lat="44.77268885724769" lon="11.941506648525976"><ele>0.3333333333333333</ele><time>2026-04-11T08:58:04.026Z</time></trkpt><trkpt lat="44.77252717979808" lon="11.941415862136939"><ele>-0.3333333333333333</ele><time>2026-04-11T08:58:05.026Z</time></trkpt><trkpt lat="44.77234630285543" lon="11.941326595197186"><ele>-1.0</ele><time>2026-04-11T08:58:06.026Z</time></trkpt><trkpt lat="44.77216665240372" lon="11.941229475539211"><ele>-1.0</ele><time>2026-04-11T08:58:07.026Z</time></trkpt><trkpt lat="44.77198234966101" lon="11.9411668228592"><ele>-1.0</ele><time>2026-04-11T08:58:08.026Z</time></trkpt><trkpt lat="44.77181142925125" lon="11.941123704111982"><ele>-1.0</ele><time>2026-04-11T08:58:09.026Z</time></trkpt><trkpt lat="44.771665542871595" lon="11.941100955317891"><ele>-1.25</ele><time>2026-04-11T08:58:10.026Z</time></trkpt><trkpt lat="44.771530915215926" lon="11.941087801005487"><ele>-1.5</ele><time>2026-04-11T08:58:11.026Z</time></trkpt><trkpt lat="44.77138586275285" lon="11.941087681413709"><ele>-1.75</ele><time>2026-04-11T08:58:12.026Z</time></trkpt><trkpt lat="44.77122984945591" lon="11.94109764691262"><ele>-2.0</ele><time>2026-04-11T08:58:13.026Z</time></trkpt><trkpt lat="44.771061515727425" lon="11.941122255578076"><ele>-2.0</ele><time>2026-04-11T08:58:14.026Z</time></trkpt><trkpt lat="44.770878436645226" lon="11.941152994562987"><ele>-2.0</ele><time>2026-04-11T08:58:15.026Z</time></trkpt><trkpt lat="44.77068782930739" lon="11.941185945199225"><ele>-2.0</ele><time>2026-04-11T08:58:16.026Z</time></trkpt><trkpt lat="44.77048713432382" lon="11.941219060822196"><ele>-2.0</ele><time>2026-04-11T08:58:17.026Z</time></trkpt><trkpt lat="44.77028057469247" lon="11.941253144176972"><ele>-2.0</ele><time>2026-04-11T08:58:18.026Z</time></trkpt><trkpt lat="44.77007407629198" lon="11.941287466930333"><ele>-2.0</ele><time>2026-04-11T08:58:19.026Z</time></trkpt><trkpt lat="44.76986146149649" lon="11.941323422477282"><ele>-2.0</ele><time>2026-04-11T08:58:20.026Z</time></trkpt><trkpt lat="44.76964278022311" lon="11.94136040393014"><ele>-2.0</ele><time>2026-04-11T08:58:21.026Z</time></trkpt><trkpt lat="44.769438029225576" lon="11.94139493046575"><ele>-2.0</ele><time>2026-04-11T08:58:22.026Z</time></trkpt><trkpt lat="44.76923592494401" lon="11.941428816552875"><ele>-2.0</ele><time>2026-04-11T08:58:23.026Z</time></trkpt><trkpt lat="44.769036367436044" lon="11.941462669992656"><ele>-2.0</ele><time>2026-04-11T08:58:24.026Z</time></trkpt><trkpt lat="44.76884595400913" lon="11.941494988151838"><ele>-2.0</ele><time>2026-04-11T08:58:25.026Z</time></trkpt><trkpt lat="44.76866953463809" lon="11.94152518305167"><ele>-2.0</ele><time>2026-04-11T08:58:26.026Z</time></trkpt><trkpt lat="44.76850055318816" lon="11.941554104930226"><ele>-2.0</ele><time>2026-04-11T08:58:27.026Z</time></trkpt><trkpt lat="44.768337187159716" lon="11.941582062660485"><ele>-2.0</ele><time>2026-04-11T08:58:28.026Z</time></trkpt><trkpt lat="44.76819465344765" lon="11.941606433696547"><ele>-2.0</ele><time>2026-04-11T08:58:29.026Z</time></trkpt><trkpt lat="44.76807335038363" lon="11.94162717464197"><ele>-2.0</ele><time>2026-04-11T08:58:30.026Z</time></trkpt><trkpt lat="44.76796594776084" lon="11.941645538812063"><ele>-2.0</ele><time>2026-04-11T08:58:31.026Z</time></trkpt><trkpt lat="44.76787887743784" lon="11.941660426484788"><ele>-2.0</ele><time>2026-04-11T08:58:32.026Z</time></trkpt><trkpt lat="44.767813762645325" lon="11.94167043167581"><ele>-2.0</ele><time>2026-04-11T08:58:33.026Z</time></trkpt><trkpt lat="44.76770276144031" lon="11.941597713593929"><ele>-1.8</ele><time>2026-04-11T08:58:35.026Z</time></trkpt><trkpt lat="44.76762845381443" lon="11.941546021687477"><ele>-1.6</ele><time>2026-04-11T08:58:36.026Z</time></trkpt><trkpt lat="44.76753210262277" lon="11.941514124538"><ele>-1.4000000000000001</ele><time>2026-04-11T08:58:37.026Z</time></trkpt><trkpt lat="44.76742699739586" lon="11.94157104698405"><ele>-1.2000000000000002</ele><time>2026-04-11T08:58:38.026Z</time></trkpt><trkpt lat="44.76735852818305" lon="11.941720556034316"><ele>-1.0</ele><time>2026-04-11T08:58:39.026Z</time></trkpt><trkpt lat="44.76724761082482" lon="11.941767104478869"><ele>-1.0</ele><time>2026-04-11T08:58:40.026Z</time></trkpt><trkpt lat="44.767108068550066" lon="11.94179289814339"><ele>-1.0</ele><time>2026-04-11T08:58:41.026Z</time></trkpt><trkpt lat="44.766950417782304" lon="11.941820219546535"><ele>-1.0</ele><time>2026-04-11T08:58:42.026Z</time></trkpt><trkpt lat="44.76678251793214" lon="11.941845286607103"><ele>-1.3333333333333333</ele><time>2026-04-11T08:58:43.026Z</time></trkpt><trkpt lat="44.76659472145915" lon="11.941853062011123"><ele>-1.6666666666666665</ele><time>2026-04-11T08:58:44.026Z</time></trkpt><trkpt lat="44.76639745444546" lon="11.941842053264065"><ele>-2.0</ele><time>2026-04-11T08:58:45.026Z</time></trkpt><trkpt lat="44.76619492680419" lon="11.941813415482631"><ele>-1.3333333333333333</ele><time>2026-04-11T08:58:46.026Z</time></trkpt><trkpt lat="44.76598138308729" lon="11.941753764956912"><ele>-0.6666666666666666</ele><time>2026-04-11T08:58:47.026Z</time></trkpt><trkpt lat="44.76576581055876" lon="11.941668998585692"><ele>0.0</ele><time>2026-04-11T08:58:48.026Z</time></trkpt><trkpt lat="44.76554513511383" lon="11.941572536806074"><ele>0.0</ele><time>2026-04-11T08:58:49.026Z</time></trkpt><trkpt lat="44.76533167136803" lon="11.941431361422525"><ele>0.0</ele><time>2026-04-11T08:58:50.026Z</time></trkpt><trkpt lat="44.765124148217595" lon="11.941255831348371"><ele>-0.5</ele><time>2026-04-11T08:58:51.026Z</time></trkpt><trkpt lat="44.76492511517105" lon="11.9410565585482"><ele>-1.0</ele><time>2026-04-11T08:58:52.026Z</time></trkpt><trkpt lat="44.76473601716798" lon="11.940832515903752"><ele>-2.0</ele><time>2026-04-11T08:58:53.026Z</time></trkpt><trkpt lat="44.76456385402902" lon="11.940571608391059"><ele>-3.0</ele><time>2026-04-11T08:58:54.026Z</time></trkpt><trkpt lat="44.76440708153105" lon="11.94028744564452"><ele>-2.0</ele><time>2026-04-11T08:58:55.026Z</time></trkpt><trkpt lat="44.76426541743097" lon="11.939991189059823"><ele>-1.0</ele><time>2026-04-11T08:58:56.026Z</time></trkpt><trkpt lat="44.764146115770714" lon="11.939672702428187"><ele>-1.0</ele><time>2026-04-11T08:58:57.026Z</time></trkpt><trkpt lat="44.764052403417175" lon="11.939336179864352"><ele>-1.0</ele><time>2026-04-11T08:58:58.026Z</time></trkpt><trkpt lat="44.76397478564819" lon="11.938987103798208"><ele>-0.5</ele><time>2026-04-11T08:58:59.026Z</time></trkpt><trkpt lat="44.76391236716924" lon="11.938642775265231"><ele>0.0</ele><time>2026-04-11T08:59:00.026Z</time></trkpt><trkpt lat="44.763865677561256" lon="11.938331952501681"><ele>0.0</ele><time>2026-04-11T08:59:01.026Z</time></trkpt><trkpt lat="44.76382258012175" lon="11.938086382564492"><ele>0.0</ele><time>2026-04-11T08:59:02.026Z</time></trkpt><trkpt lat="44.76379656204267" lon="11.937887853835168"><ele>0.0</ele><time>2026-04-11T08:59:03.026Z</time></trkpt><trkpt lat="44.76378043121142" lon="11.937728538030447"><ele>0.0</ele><time>2026-04-11T08:59:04.026Z</time></trkpt><trkpt lat="44.76377702828896" lon="11.93758154736441"><ele>-0.16666666666666666</ele><time>2026-04-11T08:59:05.026Z</time></trkpt><trkpt lat="44.76379397692324" lon="11.937442592184158"><ele>-0.3333333333333333</ele><time>2026-04-11T08:59:06.026Z</time></trkpt><trkpt lat="44.763814359162815" lon="11.937331453736494"><ele>-0.5</ele><time>2026-04-11T08:59:07.026Z</time></trkpt><trkpt lat="44.76381070357459" lon="11.937203342644265"><ele>-0.6666666666666666</ele><time>2026-04-11T08:59:08.026Z</time></trkpt><trkpt lat="44.763771652236755" lon="11.93709563540138"><ele>-0.8333333333333333</ele><time>2026-04-11T08:59:09.026Z</time></trkpt><trkpt lat="44.76371700079029" lon="11.937039332817362"><ele>-1.0</ele><time>2026-04-11T08:59:10.026Z</time></trkpt><trkpt lat="44.76365452549597" lon="11.937026897809124"><ele>-1.0</ele><time>2026-04-11T08:59:11.026Z</time></trkpt><trkpt lat="44.763506300885" lon="11.93716191374427"><ele>-1.0</ele><time>2026-04-11T08:59:13.026Z</time></trkpt><trkpt lat="44.763445042357034" lon="11.93727144342396"><ele>-1.0</ele><time>2026-04-11T08:59:14.026Z</time></trkpt><trkpt lat="44.76336169189631" lon="11.937374438432371"><ele>-1.0</ele><time>2026-04-11T08:59:15.026Z</time></trkpt><trkpt lat="44.763259565737364" lon="11.937415851607067"><ele>-1.0</ele><time>2026-04-11T08:59:16.026Z</time></trkpt><trkpt lat="44.76316246804837" lon="11.937514406508226"><ele>-1.0</ele><time>2026-04-11T08:59:17.026Z</time></trkpt><trkpt lat="44.76309899133401" lon="11.9376794676775"><ele>-1.0</ele><time>2026-04-11T08:59:18.026Z</time></trkpt><trkpt lat="44.76307649852941" lon="11.93788743797076"><ele>-1.0</ele><time>2026-04-11T08:59:19.026Z</time></trkpt><trkpt lat="44.76302647466635" lon="11.93811943284973"><ele>-1.0</ele><time>2026-04-11T08:59:20.026Z</time></trkpt><trkpt lat="44.762982464781075" lon="11.938373550060513"><ele>-1.0</ele><time>2026-04-11T08:59:21.026Z</time></trkpt><trkpt lat="44.76293634660667" lon="11.938637742319358"><ele>-1.0</ele><time>2026-04-11T08:59:22.026Z</time></trkpt><trkpt lat="44.762889545512024" lon="11.938920407456543"><ele>-1.3333333333333333</ele><time>2026-04-11T08:59:23.026Z</time></trkpt><trkpt lat="44.76283974961272" lon="11.939216924604432"><ele>-1.6666666666666665</ele><time>2026-04-11T08:59:24.026Z</time></trkpt><trkpt lat="44.76279006959498" lon="11.939512751722933"><ele>-2.0</ele><time>2026-04-11T08:59:25.026Z</time></trkpt><trkpt lat="44.76274037379549" lon="11.939812091498268"><ele>-1.6666666666666665</ele><time>2026-04-11T08:59:26.026Z</time></trkpt><trkpt lat="44.76270497986163" lon="11.940116473403105"><ele>-1.3333333333333333</ele><time>2026-04-11T08:59:27.026Z</time></trkpt><trkpt lat="44.76263431529824" lon="11.940388946753881"><ele>-1.0</ele><time>2026-04-11T08:59:28.026Z</time></trkpt><trkpt lat="44.762573015708774" lon="11.940633200793986"><ele>-1.0</ele><time>2026-04-11T08:59:29.026Z</time></trkpt><trkpt lat="44.76251272913679" lon="11.940847937914821"><ele>-1.0</ele><time>2026-04-11T08:59:30.026Z</time></trkpt><trkpt lat="44.76245500968045" lon="11.941042581507196"><ele>-1.0</ele><time>2026-04-11T08:59:31.026Z</time></trkpt><trkpt lat="44.76239725177285" lon="11.94121568431138"><ele>-1.0</ele><time>2026-04-11T08:59:32.026Z</time></trkpt><trkpt lat="44.76232510415289" lon="11.941388696559283"><ele>-1.0</ele><time>2026-04-11T08:59:33.026Z</time></trkpt><trkpt lat="44.7622205505009" lon="11.941557581038364"><ele>-1.0</ele><time>2026-04-11T08:59:34.026Z</time></trkpt><trkpt lat="44.762097037316096" lon="11.941725471645304"><ele>-1.0</ele><time>2026-04-11T08:59:35.026Z</time></trkpt><trkpt lat="44.76196565496244" lon="11.941910897737564"><ele>-1.0</ele><time>2026-04-11T08:59:36.026Z</time></trkpt><trkpt lat="44.76182281286661" lon="11.942112743017093"><ele>-1.0</ele><time>2026-04-11T08:59:37.028Z</time></trkpt><trkpt lat="44.76167244927084" lon="11.942320630805611"><ele>-1.0</ele><time>2026-04-11T08:59:38.028Z</time></trkpt><trkpt lat="44.76152427594263" lon="11.94253045653791"><ele>-1.0</ele><time>2026-04-11T08:59:39.028Z</time></trkpt><trkpt lat="44.761382009886844" lon="11.942733912735568"><ele>-1.0</ele><time>2026-04-11T08:59:40.028Z</time></trkpt><trkpt lat="44.761249239309194" lon="11.94292349999599"><ele>-1.0</ele><time>2026-04-11T08:59:41.028Z</time></trkpt><trkpt lat="44.761136853032255" lon="11.943109275610242"><ele>-1.0</ele><time>2026-04-11T08:59:42.028Z</time></trkpt><trkpt lat="44.761049593892885" lon="11.943293969825937"><ele>-1.0</ele><time>2026-04-11T08:59:43.028Z</time></trkpt><trkpt lat="44.76098184658372" lon="11.94347248820714"><ele>-0.75</ele><time>2026-04-11T08:59:44.028Z</time></trkpt><trkpt lat="44.76091641205071" lon="11.943624412594449"><ele>-0.5</ele><time>2026-04-11T08:59:45.028Z</time></trkpt><trkpt lat="44.76083762891511" lon="11.9437699097948"><ele>-0.25</ele><time>2026-04-11T08:59:46.028Z</time></trkpt><trkpt lat="44.76073702388614" lon="11.943884881035745"><ele>0.0</ele><time>2026-04-11T08:59:47.028Z</time></trkpt><trkpt lat="44.760605094703024" lon="11.943977755708845"><ele>0.0</ele><time>2026-04-11T08:59:48.028Z</time></trkpt><trkpt lat="44.760455926737556" lon="11.944071212392062"><ele>0.0</ele><time>2026-04-11T08:59:49.028Z</time></trkpt><trkpt lat="44.76028124068576" lon="11.944161464578158"><ele>0.0</ele><time>2026-04-11T08:59:50.028Z</time></trkpt><trkpt lat="44.7600897414054" lon="11.944233443888022"><ele>-0.6666666666666666</ele><time>2026-04-11T08:59:51.028Z</time></trkpt><trkpt lat="44.75989743153433" lon="11.94431897617241"><ele>-1.3333333333333333</ele><time>2026-04-11T08:59:52.028Z</time></trkpt><trkpt lat="44.7597035576991" lon="11.944421578471914"><ele>-2.0</ele><time>2026-04-11T08:59:53.028Z</time></trkpt><trkpt lat="44.75951181509093" lon="11.944493048653111"><ele>-2.333333333333333</ele><time>2026-04-11T08:59:54.028Z</time></trkpt><trkpt lat="44.75931194299169" lon="11.944532003923522"><ele>-2.6666666666666665</ele><time>2026-04-11T08:59:55.028Z</time></trkpt><trkpt lat="44.75911322537014" lon="11.94456918433371"><ele>-3.0</ele><time>2026-04-11T08:59:56.028Z</time></trkpt><trkpt lat="44.758911993316644" lon="11.944621276100065"><ele>-3.0</ele><time>2026-04-11T08:59:57.028Z</time></trkpt><trkpt lat="44.75870635948954" lon="11.944653708982036"><ele>-3.0</ele><time>2026-04-11T08:59:58.028Z</time></trkpt><trkpt lat="44.75850678598242" lon="11.944665171421056"><ele>-3.0</ele><time>2026-04-11T08:59:59.028Z</time></trkpt><trkpt lat="44.758310298745954" lon="11.94469450427728"><ele>-2.6666666666666665</ele><time>2026-04-11T09:00:00.028Z</time></trkpt><trkpt lat="44.7581221223501" lon="11.944732953935958"><ele>-2.333333333333333</ele><time>2026-04-11T09:00:01.028Z</time></trkpt><trkpt lat="44.7579488347916" lon="11.944811331597604"><ele>-2.0</ele><time>2026-04-11T09:00:02.028Z</time></trkpt><trkpt lat="44.757767410387366" lon="11.944857276879796"><ele>-2.333333333333333</ele><time>2026-04-11T09:00:03.028Z</time></trkpt><trkpt lat="44.757590114776576" lon="11.944948086574922"><ele>-2.6666666666666665</ele><time>2026-04-11T09:00:04.028Z</time></trkpt><trkpt lat="44.75741687369611" lon="11.945070972554324"><ele>-3.0</ele><time>2026-04-11T09:00:05.028Z</time></trkpt><trkpt lat="44.75724287626438" lon="11.945201400364548"><ele>-3.0</ele><time>2026-04-11T09:00:06.028Z</time></trkpt><trkpt lat="44.7570741004266" lon="11.945327061248356"><ele>-3.0</ele><time>2026-04-11T09:00:07.028Z</time></trkpt><trkpt lat="44.75691460697995" lon="11.945443471445902"><ele>-3.0</ele><time>2026-04-11T09:00:08.028Z</time></trkpt><trkpt lat="44.75677457650044" lon="11.945546916280595"><ele>-3.0</ele><time>2026-04-11T09:00:09.028Z</time></trkpt><trkpt lat="44.75665707992718" lon="11.945634331603822"><ele>-3.0</ele><time>2026-04-11T09:00:10.028Z</time></trkpt><trkpt lat="44.75655390998915" lon="11.9456795869882"><ele>-3.0</ele><time>2026-04-11T09:00:11.028Z</time></trkpt><trkpt lat="44.75644711194199" lon="11.945676505847404"><ele>-3.0</ele><time>2026-04-11T09:00:12.028Z</time></trkpt><trkpt lat="44.756345116198275" lon="11.945630306381837"><ele>-3.0</ele><time>2026-04-11T09:00:13.028Z</time></trkpt><trkpt lat="44.75622148938421" lon="11.945584838910444"><ele>-3.0</ele><time>2026-04-11T09:00:14.028Z</time></trkpt><trkpt lat="44.75608433772032" lon="11.945543998513541"><ele>-3.0</ele><time>2026-04-11T09:00:15.028Z</time></trkpt><trkpt lat="44.75593939220129" lon="11.945504335552076"><ele>-3.0</ele><time>2026-04-11T09:00:16.028Z</time></trkpt><trkpt lat="44.7557908929539" lon="11.945462693320284"><ele>-2.6666666666666665</ele><time>2026-04-11T09:00:17.028Z</time></trkpt><trkpt lat="44.75563813295846" lon="11.94543048109181"><ele>-2.333333333333333</ele><time>2026-04-11T09:00:18.028Z</time></trkpt><trkpt lat="44.75549105120512" lon="11.945365284663426"><ele>-2.0</ele><time>2026-04-11T09:00:19.028Z</time></trkpt><trkpt lat="44.75534719142395" lon="11.94531048910809"><ele>-2.0</ele><time>2026-04-11T09:00:20.028Z</time></trkpt><trkpt lat="44.75521125440541" lon="11.945226522538249"><ele>-2.0</ele><time>2026-04-11T09:00:21.028Z</time></trkpt><trkpt lat="44.75507282367976" lon="11.945161920989614"><ele>-2.0</ele><time>2026-04-11T09:00:22.028Z</time></trkpt><trkpt lat="44.754935820558345" lon="11.945113661548545"><ele>-2.0</ele><time>2026-04-11T09:00:23.028Z</time></trkpt><trkpt lat="44.754797507468304" lon="11.945128166164878"><ele>-2.0</ele><time>2026-04-11T09:00:24.028Z</time></trkpt><trkpt lat="44.754673614691825" lon="11.945183085837304"><ele>-2.0</ele><time>2026-04-11T09:00:25.028Z</time></trkpt><trkpt lat="44.75453636766218" lon="11.94525827307166"><ele>-2.0</ele><time>2026-04-11T09:00:26.028Z</time></trkpt><trkpt lat="44.75439775868221" lon="11.94533130734768"><ele>-2.0</ele><time>2026-04-11T09:00:27.028Z</time></trkpt><trkpt lat="44.754254703103065" lon="11.945392765530904"><ele>-2.0</ele><time>2026-04-11T09:00:28.028Z</time></trkpt><trkpt lat="44.75410942564629" lon="11.945434332450228"><ele>-2.0</ele><time>2026-04-11T09:00:29.028Z</time></trkpt><trkpt lat="44.75396001709277" lon="11.945424120894286"><ele>-2.0</ele><time>2026-04-11T09:00:30.028Z</time></trkpt><trkpt lat="44.75378430274149" lon="11.945375776642154"><ele>-2.0</ele><time>2026-04-11T09:00:31.028Z</time></trkpt><trkpt lat="44.75359676098548" lon="11.945309904543445"><ele>-2.0</ele><time>2026-04-11T09:00:32.028Z</time></trkpt><trkpt lat="44.75339145447884" lon="11.945230168423304"><ele>-2.0</ele><time>2026-04-11T09:00:33.028Z</time></trkpt><trkpt lat="44.753172852802116" lon="11.945143737014355"><ele>-2.0</ele><time>2026-04-11T09:00:34.028Z</time></trkpt><trkpt lat="44.752961399945384" lon="11.9450613732555"><ele>-2.0</ele><time>2026-04-11T09:00:35.028Z</time></trkpt><trkpt lat="44.75274368341378" lon="11.944972560434307"><ele>-2.0</ele><time>2026-04-11T09:00:36.028Z</time></trkpt><trkpt lat="44.752525665842036" lon="11.944882441783896"><ele>-2.333333333333333</ele><time>2026-04-11T09:00:37.028Z</time></trkpt><trkpt lat="44.75232191882967" lon="11.944793724618819"><ele>-2.6666666666666665</ele><time>2026-04-11T09:00:38.028Z</time></trkpt><trkpt lat="44.75212824149411" lon="11.944706200500885"><ele>-3.0</ele><time>2026-04-11T09:00:39.028Z</time></trkpt><trkpt lat="44.75195521885127" lon="11.944625715807131"><ele>-2.6666666666666665</ele><time>2026-04-11T09:00:40.028Z</time></trkpt><trkpt lat="44.75179428320707" lon="11.94454825641513"><ele>-2.333333333333333</ele><time>2026-04-11T09:00:41.028Z</time></trkpt><trkpt lat="44.751641807694526" lon="11.944464129211573"><ele>-2.0</ele><time>2026-04-11T09:00:42.028Z</time></trkpt><trkpt lat="44.751503673175414" lon="11.944384700758585"><ele>-2.0</ele><time>2026-04-11T09:00:43.028Z</time></trkpt><trkpt lat="44.751373644110764" lon="11.94430960278688"><ele>-2.0</ele><time>2026-04-11T09:00:44.028Z</time></trkpt><trkpt lat="44.751265826739385" lon="11.94426700169032"><ele>-2.0</ele><time>2026-04-11T09:00:45.028Z</time></trkpt><trkpt lat="44.751182397634295" lon="11.944199100688547"><ele>-2.0</ele><time>2026-04-11T09:00:46.028Z</time></trkpt><trkpt lat="44.7511177869597" lon="11.944167701130203"><ele>-2.0</ele><time>2026-04-11T09:00:47.028Z</time></trkpt><trkpt lat="44.75102142150598" lon="11.94421070565774"><ele>-2.0</ele><time>2026-04-11T09:00:49.028Z</time></trkpt><trkpt lat="44.75098363532419" lon="11.944291621362513"><ele>-2.0</ele><time>2026-04-11T09:00:50.028Z</time></trkpt><trkpt lat="44.750959476050205" lon="11.94444425609741"><ele>-2.0</ele><time>2026-04-11T09:00:51.028Z</time></trkpt><trkpt lat="44.75091596878064" lon="11.944631531499393"><ele>-2.0</ele><time>2026-04-11T09:00:52.028Z</time></trkpt><trkpt lat="44.75084615875091" lon="11.944833081655423"><ele>-2.0</ele><time>2026-04-11T09:00:53.028Z</time></trkpt><trkpt lat="44.750744948225154" lon="11.945038491422112"><ele>-2.0</ele><time>2026-04-11T09:00:54.028Z</time></trkpt><trkpt lat="44.750646059449714" lon="11.945261774003942"><ele>-2.0</ele><time>2026-04-11T09:00:55.028Z</time></trkpt><trkpt lat="44.75054108514919" lon="11.94548720062422"><ele>-2.0</ele><time>2026-04-11T09:00:56.028Z</time></trkpt><trkpt lat="44.750427496092094" lon="11.945716819700452"><ele>-2.0</ele><time>2026-04-11T09:00:57.028Z</time></trkpt><trkpt lat="44.75030543573778" lon="11.945958663927222"><ele>-2.0</ele><time>2026-04-11T09:00:58.028Z</time></trkpt><trkpt lat="44.7501810649283" lon="11.946203701376128"><ele>-1.6666666666666665</ele><time>2026-04-11T09:00:59.028Z</time></trkpt><trkpt lat="44.75006568884725" lon="11.946444826871737"><ele>-1.3333333333333333</ele><time>2026-04-11T09:01:00.028Z</time></trkpt><trkpt lat="44.74998170183831" lon="11.94666334271756"><ele>-1.0</ele><time>2026-04-11T09:01:01.028Z</time></trkpt><trkpt lat="44.749900616276335" lon="11.94680789159639"><ele>-1.0</ele><time>2026-04-11T09:01:02.028Z</time></trkpt><trkpt lat="44.74984733190392" lon="11.946925599934977"><ele>-1.0</ele><time>2026-04-11T09:01:03.028Z</time></trkpt><trkpt lat="44.749810370891225" lon="11.947014089307318"><ele>-1.0</ele><time>2026-04-11T09:01:04.028Z</time></trkpt><trkpt lat="44.7497315478704" lon="11.94708956450001"><ele>-1.0</ele><time>2026-04-11T09:01:06.028Z</time></trkpt><trkpt lat="44.74961650390864" lon="11.947013962197435"><ele>-1.0</ele><time>2026-04-11T09:01:08.028Z</time></trkpt><trkpt lat="44.74951693478596" lon="11.946973078357304"><ele>-1.0</ele><time>2026-04-11T09:01:09.028Z</time></trkpt><trkpt lat="44.74940107205801" lon="11.94692384980845"><ele>-1.0</ele><time>2026-04-11T09:01:10.028Z</time></trkpt><trkpt lat="44.749274423664346" lon="11.94687003855907"><ele>-1.0</ele><time>2026-04-11T09:01:11.028Z</time></trkpt><trkpt lat="44.74913716534091" lon="11.946811719305872"><ele>-1.0</ele><time>2026-04-11T09:01:12.028Z</time></trkpt><trkpt lat="44.748992087801284" lon="11.94675007776327"><ele>-1.6666666666666665</ele><time>2026-04-11T09:01:13.028Z</time></trkpt><trkpt lat="44.748840317884216" lon="11.94668503379311"><ele>-2.3333333333333335</ele><time>2026-04-11T09:01:14.028Z</time></trkpt><trkpt lat="44.748695608246486" lon="11.946621626264852"><ele>-3.0</ele><time>2026-04-11T09:01:15.028Z</time></trkpt><trkpt lat="44.74855394895847" lon="11.946563785309536"><ele>-2.75</ele><time>2026-04-11T09:01:16.028Z</time></trkpt><trkpt lat="44.74841862459516" lon="11.946509041083981"><ele>-2.5</ele><time>2026-04-11T09:01:17.028Z</time></trkpt><trkpt lat="44.74829623714655" lon="11.946457688343902"><ele>-2.25</ele><time>2026-04-11T09:01:18.028Z</time></trkpt><trkpt lat="44.74817700085667" lon="11.946407657798115"><ele>-2.0</ele><time>2026-04-11T09:01:19.028Z</time></trkpt><trkpt lat="44.74806416521095" lon="11.946358777298723"><ele>-1.9999999999999998</ele><time>2026-04-11T09:01:20.028Z</time></trkpt><trkpt lat="44.74796440608799" lon="11.946314619847454"><ele>-2.0</ele><time>2026-04-11T09:01:21.028Z</time></trkpt><trkpt lat="44.747880300013705" lon="11.946277391077508"><ele>-2.0</ele><time>2026-04-11T09:01:22.028Z</time></trkpt><trkpt lat="44.74780597367789" lon="11.946267622110284"><ele>-2.0</ele><time>2026-04-11T09:01:23.028Z</time></trkpt><trkpt lat="44.747712776915336" lon="11.946189479985572"><ele>-1.9999999999999998</ele><time>2026-04-11T09:01:25.028Z</time></trkpt><trkpt lat="44.74765954202215" lon="11.946138920746549"><ele>-2.0</ele><time>2026-04-11T09:01:27.029Z</time></trkpt><trkpt lat="44.747597554195856" lon="11.946168593979191"><ele>-2.0</ele><time>2026-04-11T09:01:52.03Z</time></trkpt><trkpt lat="44.74749631269098" lon="11.946250095836904"><ele>-2.0</ele><time>2026-04-11T09:01:54.03Z</time></trkpt><trkpt lat="44.74746178408161" lon="11.94637581682994"><ele>-2.0</ele><time>2026-04-11T09:01:55.03Z</time></trkpt><trkpt lat="44.747429795556315" lon="11.946521269679696"><ele>-2.0</ele><time>2026-04-11T09:01:56.03Z</time></trkpt><trkpt lat="44.7473994531364" lon="11.946697251978751"><ele>-2.0</ele><time>2026-04-11T09:01:57.03Z</time></trkpt><trkpt lat="44.74736764931482" lon="11.946904334429624"><ele>-2.0</ele><time>2026-04-11T09:01:58.03Z</time></trkpt><trkpt lat="44.74734648362046" lon="11.947127355883833"><ele>-2.0</ele><time>2026-04-11T09:01:59.03Z</time></trkpt><trkpt lat="44.74734766512251" lon="11.947635797103413"><ele>-2.0</ele><time>2026-04-11T09:02:01.03Z</time></trkpt><trkpt lat="44.747353809649674" lon="11.947906039596738"><ele>-2.0</ele><time>2026-04-11T09:02:02.03Z</time></trkpt><trkpt lat="44.74735717022826" lon="11.94817604849196"><ele>-2.0</ele><time>2026-04-11T09:02:03.03Z</time></trkpt><trkpt lat="44.747363440722076" lon="11.948425362733698"><ele>-2.0</ele><time>2026-04-11T09:02:04.03Z</time></trkpt><trkpt lat="44.74735160358679" lon="11.948657214252973"><ele>-2.0</ele><time>2026-04-11T09:02:05.03Z</time></trkpt><trkpt lat="44.74735576335324" lon="11.948897099074284"><ele>-2.0</ele><time>2026-04-11T09:02:06.03Z</time></trkpt><trkpt lat="44.747374275597764" lon="11.949141660884877"><ele>-2.0</ele><time>2026-04-11T09:02:07.03Z</time></trkpt><trkpt lat="44.747378183696355" lon="11.949396426682346"><ele>-2.0</ele><time>2026-04-11T09:02:08.03Z</time></trkpt><trkpt lat="44.74738160075356" lon="11.949652720664785"><ele>-2.0</ele><time>2026-04-11T09:02:09.03Z</time></trkpt><trkpt lat="44.74737717108823" lon="11.949884215333142"><ele>-1.75</ele><time>2026-04-11T09:02:10.03Z</time></trkpt><trkpt lat="44.74736629991658" lon="11.950091396869016"><ele>-1.5</ele><time>2026-04-11T09:02:11.03Z</time></trkpt><trkpt lat="44.74734684496488" lon="11.95029082705093"><ele>-1.25</ele><time>2026-04-11T09:02:12.03Z</time></trkpt><trkpt lat="44.74731872387535" lon="11.950491430186563"><ele>-1.0</ele><time>2026-04-11T09:02:13.03Z</time></trkpt><trkpt lat="44.74728394003197" lon="11.950678040809441"><ele>-1.0</ele><time>2026-04-11T09:02:14.03Z</time></trkpt><trkpt lat="44.747239579515586" lon="11.950853526717141"><ele>-1.0</ele><time>2026-04-11T09:02:15.03Z</time></trkpt><trkpt lat="44.747175606298086" lon="11.95103289559264"><ele>-1.0</ele><time>2026-04-11T09:02:16.03Z</time></trkpt><trkpt lat="44.74709791375184" lon="11.951207443074283"><ele>-1.0</ele><time>2026-04-11T09:02:17.03Z</time></trkpt><trkpt lat="44.74701407954276" lon="11.951366511303652"><ele>-1.0</ele><time>2026-04-11T09:02:18.03Z</time></trkpt><trkpt lat="44.746918331549985" lon="11.951511465761605"><ele>-1.0</ele><time>2026-04-11T09:02:19.03Z</time></trkpt><trkpt lat="44.7468127448177" lon="11.951651123445066"><ele>-1.0</ele><time>2026-04-11T09:02:20.03Z</time></trkpt><trkpt lat="44.746695236767614" lon="11.951774930178678"><ele>-1.0</ele><time>2026-04-11T09:02:21.03Z</time></trkpt><trkpt lat="44.746554701151695" lon="11.951881913207743"><ele>-1.3333333333333333</ele><time>2026-04-11T09:02:22.03Z</time></trkpt><trkpt lat="44.74641720874031" lon="11.951975230201949"><ele>-1.6666666666666665</ele><time>2026-04-11T09:02:23.03Z</time></trkpt><trkpt lat="44.74626594121186" lon="11.952065199160067"><ele>-2.0</ele><time>2026-04-11T09:02:24.03Z</time></trkpt><trkpt lat="44.74611249728509" lon="11.952155116885562"><ele>-1.6666666666666665</ele><time>2026-04-11T09:02:25.03Z</time></trkpt><trkpt lat="44.7459597068085" lon="11.952254617995846"><ele>-1.3333333333333333</ele><time>2026-04-11T09:02:26.03Z</time></trkpt><trkpt lat="44.745817175483225" lon="11.95238453009099"><ele>-1.0</ele><time>2026-04-11T09:02:27.03Z</time></trkpt><trkpt lat="44.74568577138601" lon="11.952542672616941"><ele>-0.6666666666666666</ele><time>2026-04-11T09:02:28.03Z</time></trkpt><trkpt lat="44.745567668451656" lon="11.952728241976637"><ele>-0.3333333333333333</ele><time>2026-04-11T09:02:29.03Z</time></trkpt><trkpt lat="44.74546878640587" lon="11.952939417120215"><ele>0.0</ele><time>2026-04-11T09:02:30.03Z</time></trkpt><trkpt lat="44.74538037185554" lon="11.953183044050888"><ele>0.3333333333333333</ele><time>2026-04-11T09:02:31.03Z</time></trkpt><trkpt lat="44.74531532653724" lon="11.953443182511522"><ele>0.6666666666666666</ele><time>2026-04-11T09:02:32.03Z</time></trkpt><trkpt lat="44.74527654361703" lon="11.953718845500294"><ele>1.0</ele><time>2026-04-11T09:02:33.03Z</time></trkpt><trkpt lat="44.745248788255566" lon="11.953996121979237"><ele>0.3333333333333333</ele><time>2026-04-11T09:02:34.03Z</time></trkpt><trkpt lat="44.7452495854143" lon="11.954274909192431"><ele>-0.3333333333333333</ele><time>2026-04-11T09:02:35.03Z</time></trkpt><trkpt lat="44.745241595657326" lon="11.9545565577832"><ele>-1.0</ele><time>2026-04-11T09:02:36.03Z</time></trkpt><trkpt lat="44.745237477075186" lon="11.954844735998519"><ele>-1.3333333333333333</ele><time>2026-04-11T09:02:37.03Z</time></trkpt><trkpt lat="44.745240591310235" lon="11.955135074632675"><ele>-1.6666666666666665</ele><time>2026-04-11T09:02:38.03Z</time></trkpt><trkpt lat="44.745254895734654" lon="11.95542402387473"><ele>-2.0</ele><time>2026-04-11T09:02:39.03Z</time></trkpt><trkpt lat="44.74526812250742" lon="11.955708780603757"><ele>-1.3333333333333333</ele><time>2026-04-11T09:02:40.03Z</time></trkpt><trkpt lat="44.74528858057661" lon="11.955986113078227"><ele>-0.6666666666666666</ele><time>2026-04-11T09:02:41.03Z</time></trkpt><trkpt lat="44.74531019472982" lon="11.95625336127934"><ele>0.0</ele><time>2026-04-11T09:02:42.03Z</time></trkpt><trkpt lat="44.745333318149314" lon="11.956497393085417"><ele>0.0</ele><time>2026-04-11T09:02:43.03Z</time></trkpt><trkpt lat="44.7453558867446" lon="11.956721326422706"><ele>0.0</ele><time>2026-04-11T09:02:44.03Z</time></trkpt><trkpt lat="44.74538069851717" lon="11.956911726152157"><ele>0.0</ele><time>2026-04-11T09:02:45.03Z</time></trkpt><trkpt lat="44.74538482535291" lon="11.957096338604128"><ele>0.0</ele><time>2026-04-11T09:02:46.03Z</time></trkpt><trkpt lat="44.74541832545675" lon="11.957270079620189"><ele>0.0</ele><time>2026-04-11T09:02:47.03Z</time></trkpt><trkpt lat="44.7454687056596" lon="11.957436279863652"><ele>0.0</ele><time>2026-04-11T09:02:48.03Z</time></trkpt><trkpt lat="44.74553345294413" lon="11.957604278983014"><ele>0.0</ele><time>2026-04-11T09:02:49.03Z</time></trkpt><trkpt lat="44.745616722741296" lon="11.95777167903099"><ele>0.0</ele><time>2026-04-11T09:02:50.03Z</time></trkpt><trkpt lat="44.74570864341473" lon="11.957928838520992"><ele>-0.25</ele><time>2026-04-11T09:02:51.03Z</time></trkpt><trkpt lat="44.745811032519576" lon="11.95806157980637"><ele>-0.5</ele><time>2026-04-11T09:02:52.03Z</time></trkpt><trkpt lat="44.745867690581285" lon="11.958230805641152"><ele>-0.75</ele><time>2026-04-11T09:02:53.03Z</time></trkpt><trkpt lat="44.74591629985017" lon="11.958403520452292"><ele>-1.0</ele><time>2026-04-11T09:02:54.03Z</time></trkpt><trkpt lat="44.74596215430683" lon="11.958593382650887"><ele>-1.0</ele><time>2026-04-11T09:02:55.03Z</time></trkpt><trkpt lat="44.746008542558386" lon="11.95880234126871"><ele>-1.0</ele><time>2026-04-11T09:02:56.03Z</time></trkpt><trkpt lat="44.74605131947824" lon="11.959000452005833"><ele>-1.0</ele><time>2026-04-11T09:02:57.03Z</time></trkpt><trkpt lat="44.746094579940305" lon="11.959211525017013"><ele>-1.0</ele><time>2026-04-11T09:02:58.03Z</time></trkpt><trkpt lat="44.74613783311052" lon="11.95945167426778"><ele>-1.0</ele><time>2026-04-11T09:02:59.03Z</time></trkpt><trkpt lat="44.74618501042304" lon="11.959721680709434"><ele>-1.0</ele><time>2026-04-11T09:03:00.03Z</time></trkpt><trkpt lat="44.74623619781133" lon="11.960015462271032"><ele>-0.5</ele><time>2026-04-11T09:03:01.03Z</time></trkpt><trkpt lat="44.74629015118992" lon="11.96032511887104"><ele>0.0</ele><time>2026-04-11T09:03:02.03Z</time></trkpt><trkpt lat="44.746397397504786" lon="11.960628705914868"><ele>0.0</ele><time>2026-04-11T09:03:03.03Z</time></trkpt><trkpt lat="44.74645287389454" lon="11.960964803220488"><ele>0.0</ele><time>2026-04-11T09:03:04.03Z</time></trkpt><trkpt lat="44.746510726609" lon="11.961306360633369"><ele>0.0</ele><time>2026-04-11T09:03:05.03Z</time></trkpt><trkpt lat="44.746568090804644" lon="11.961651477064182"><ele>0.0</ele><time>2026-04-11T09:03:06.03Z</time></trkpt><trkpt lat="44.74658690616979" lon="11.962008777366542"><ele>0.0</ele><time>2026-04-11T09:03:07.03Z</time></trkpt><trkpt lat="44.74664569756921" lon="11.96235075774975"><ele>0.0</ele><time>2026-04-11T09:03:08.03Z</time></trkpt><trkpt lat="44.74670327715066" lon="11.962689463487486"><ele>0.0</ele><time>2026-04-11T09:03:09.03Z</time></trkpt><trkpt lat="44.74676034316545" lon="11.963015969230032"><ele>0.0</ele><time>2026-04-11T09:03:10.03Z</time></trkpt><trkpt lat="44.74681837657543" lon="11.963345189900101"><ele>-0.5</ele><time>2026-04-11T09:03:11.03Z</time></trkpt><trkpt lat="44.74687572842898" lon="11.963677968584555"><ele>-1.0</ele><time>2026-04-11T09:03:12.03Z</time></trkpt><trkpt lat="44.746932200648374" lon="11.964009755593972"><ele>-0.5</ele><time>2026-04-11T09:03:13.03Z</time></trkpt><trkpt lat="44.74700366669712" lon="11.964338799781725"><ele>0.0</ele><time>2026-04-11T09:03:14.03Z</time></trkpt><trkpt lat="44.74706505912259" lon="11.964702842742092"><ele>0.0</ele><time>2026-04-11T09:03:15.03Z</time></trkpt><trkpt lat="44.74713052694052" lon="11.96507008851354"><ele>0.0</ele><time>2026-04-11T09:03:16.03Z</time></trkpt><trkpt lat="44.74719465730158" lon="11.96544397340708"><ele>0.0</ele><time>2026-04-11T09:03:17.03Z</time></trkpt><trkpt lat="44.74726259612168" lon="11.965822015066164"><ele>0.0</ele><time>2026-04-11T09:03:18.03Z</time></trkpt><trkpt lat="44.747325825075606" lon="11.966211292909213"><ele>0.0</ele><time>2026-04-11T09:03:19.03Z</time></trkpt><trkpt lat="44.74739341432748" lon="11.966602696924694"><ele>0.0</ele><time>2026-04-11T09:03:20.03Z</time></trkpt><trkpt lat="44.747459893141986" lon="11.966991174316636"><ele>0.0</ele><time>2026-04-11T09:03:21.03Z</time></trkpt><trkpt lat="44.74752357135317" lon="11.967374822253364"><ele>0.0</ele><time>2026-04-11T09:03:22.03Z</time></trkpt><trkpt lat="44.747584692583786" lon="11.967755298936005"><ele>-0.5</ele><time>2026-04-11T09:03:23.03Z</time></trkpt><trkpt lat="44.74764732050331" lon="11.968130308974716"><ele>-1.0</ele><time>2026-04-11T09:03:24.03Z</time></trkpt><trkpt lat="44.74770263326336" lon="11.968508312634114"><ele>-1.5</ele><time>2026-04-11T09:03:25.03Z</time></trkpt><trkpt lat="44.74775520653745" lon="11.968889229447505"><ele>-2.0</ele><time>2026-04-11T09:03:26.03Z</time></trkpt><trkpt lat="44.74780735927448" lon="11.969267579104967"><ele>-2.0</ele><time>2026-04-11T09:03:27.03Z</time></trkpt><trkpt lat="44.7478544327041" lon="11.969643475921252"><ele>-2.0</ele><time>2026-04-11T09:03:28.03Z</time></trkpt><trkpt lat="44.74790405347288" lon="11.970012903722049"><ele>-2.0</ele><time>2026-04-11T09:03:29.03Z</time></trkpt><trkpt lat="44.74795472670321" lon="11.970368821908274"><ele>-2.0</ele><time>2026-04-11T09:03:30.03Z</time></trkpt><trkpt lat="44.74800236989939" lon="11.97071160763443"><ele>-1.5</ele><time>2026-04-11T09:03:31.03Z</time></trkpt><trkpt lat="44.74804583454103" lon="11.971059899646647"><ele>-1.0</ele><time>2026-04-11T09:03:32.03Z</time></trkpt><trkpt lat="44.7480699936842" lon="11.9714100494586"><ele>-1.0</ele><time>2026-04-11T09:03:33.03Z</time></trkpt><trkpt lat="44.74807936295864" lon="11.971773468531053"><ele>-1.0</ele><time>2026-04-11T09:03:34.03Z</time></trkpt><trkpt lat="44.7480486690562" lon="11.972140244488989"><ele>-1.0</ele><time>2026-04-11T09:03:35.03Z</time></trkpt><trkpt lat="44.74802449450417" lon="11.972494480355426"><ele>-1.0</ele><time>2026-04-11T09:03:36.03Z</time></trkpt><trkpt lat="44.747996440795156" lon="11.972856991801182"><ele>-1.0</ele><time>2026-04-11T09:03:37.03Z</time></trkpt><trkpt lat="44.74795682355635" lon="11.973207343453621"><ele>-1.0</ele><time>2026-04-11T09:03:38.03Z</time></trkpt><trkpt lat="44.747897784007506" lon="11.97354848677514"><ele>-1.5</ele><time>2026-04-11T09:03:39.03Z</time></trkpt><trkpt lat="44.74780876468434" lon="11.973858218189738"><ele>-2.0</ele><time>2026-04-11T09:03:40.03Z</time></trkpt><trkpt lat="44.74769275535416" lon="11.974165804794934"><ele>-2.0</ele><time>2026-04-11T09:03:41.03Z</time></trkpt><trkpt lat="44.74756229671711" lon="11.974485446481191"><ele>-2.0</ele><time>2026-04-11T09:03:42.03Z</time></trkpt><trkpt lat="44.74742736631865" lon="11.974816294156348"><ele>-2.0</ele><time>2026-04-11T09:03:43.031Z</time></trkpt><trkpt lat="44.74729190752475" lon="11.975153529493825"><ele>-2.0</ele><time>2026-04-11T09:03:44.031Z</time></trkpt><trkpt lat="44.747154271479836" lon="11.975496726473267"><ele>-2.0</ele><time>2026-04-11T09:03:45.031Z</time></trkpt><trkpt lat="44.74701612289828" lon="11.975845087506228"><ele>-2.0</ele><time>2026-04-11T09:03:46.031Z</time></trkpt><trkpt lat="44.746897512526616" lon="11.97620937332988"><ele>-1.5</ele><time>2026-04-11T09:03:47.031Z</time></trkpt><trkpt lat="44.746755271937154" lon="11.97656923575976"><ele>-1.0</ele><time>2026-04-11T09:03:48.031Z</time></trkpt><trkpt lat="44.74661202535503" lon="11.97693241673359"><ele>-0.5</ele><time>2026-04-11T09:03:49.032Z</time></trkpt><trkpt lat="44.74646265741691" lon="11.977300916969499"><ele>0.0</ele><time>2026-04-11T09:03:50.032Z</time></trkpt><trkpt lat="44.74631341982936" lon="11.977670800857515"><ele>0.0</ele><time>2026-04-11T09:03:51.032Z</time></trkpt><trkpt lat="44.74617140901725" lon="11.978039152449021"><ele>0.0</ele><time>2026-04-11T09:03:52.032Z</time></trkpt><trkpt lat="44.74602461644288" lon="11.978414592970601"><ele>0.5</ele><time>2026-04-11T09:03:53.032Z</time></trkpt><trkpt lat="44.74588359796786" lon="11.97878453922433"><ele>1.0</ele><time>2026-04-11T09:03:54.032Z</time></trkpt><trkpt lat="44.74574364018204" lon="11.979153653163245"><ele>0.5</ele><time>2026-04-11T09:03:55.032Z</time></trkpt><trkpt lat="44.745600116772756" lon="11.979522498220978"><ele>0.0</ele><time>2026-04-11T09:03:56.032Z</time></trkpt><trkpt lat="44.74545553222694" lon="11.979885270388086"><ele>0.0</ele><time>2026-04-11T09:03:57.032Z</time></trkpt><trkpt lat="44.74531470355303" lon="11.980246250405107"><ele>0.0</ele><time>2026-04-11T09:03:58.032Z</time></trkpt><trkpt lat="44.74518333977933" lon="11.98060118598139"><ele>0.0</ele><time>2026-04-11T09:03:59.032Z</time></trkpt><trkpt lat="44.74505344500757" lon="11.980956946328513"><ele>0.0</ele><time>2026-04-11T09:04:00.032Z</time></trkpt><trkpt lat="44.74492433026049" lon="11.981329715588181"><ele>-0.5</ele><time>2026-04-11T09:04:01.032Z</time></trkpt><trkpt lat="44.744805762692785" lon="11.981718872457575"><ele>-1.0</ele><time>2026-04-11T09:04:02.032Z</time></trkpt><trkpt lat="44.74469386145233" lon="11.982113445673068"><ele>-1.0</ele><time>2026-04-11T09:04:03.032Z</time></trkpt><trkpt lat="44.74459522893257" lon="11.982507689999107"><ele>-1.0</ele><time>2026-04-11T09:04:04.032Z</time></trkpt><trkpt lat="44.74449839667454" lon="11.982909427450132"><ele>-1.0</ele><time>2026-04-11T09:04:05.032Z</time></trkpt><trkpt lat="44.744410798306696" lon="11.983318521368878"><ele>-1.0</ele><time>2026-04-11T09:04:06.032Z</time></trkpt><trkpt lat="44.74432924915657" lon="11.983725195195557"><ele>-0.5</ele><time>2026-04-11T09:04:07.032Z</time></trkpt><trkpt lat="44.7442641271924" lon="11.984133615913526"><ele>0.0</ele><time>2026-04-11T09:04:08.032Z</time></trkpt><trkpt lat="44.744192355088146" lon="11.984547304106504"><ele>0.0</ele><time>2026-04-11T09:04:09.032Z</time></trkpt><trkpt lat="44.744117265962835" lon="11.984945436721436"><ele>0.0</ele><time>2026-04-11T09:04:10.032Z</time></trkpt><trkpt lat="44.74403787704169" lon="11.985337142276766"><ele>0.0</ele><time>2026-04-11T09:04:11.032Z</time></trkpt><trkpt lat="44.74394548321545" lon="11.985712849734409"><ele>0.0</ele><time>2026-04-11T09:04:12.032Z</time></trkpt><trkpt lat="44.74384530399341" lon="11.986071163739247"><ele>-0.5</ele><time>2026-04-11T09:04:13.032Z</time></trkpt><trkpt lat="44.7437396742368" lon="11.986417620252247"><ele>-1.0</ele><time>2026-04-11T09:04:14.032Z</time></trkpt><trkpt lat="44.74364334119298" lon="11.986776696470091"><ele>-1.0</ele><time>2026-04-11T09:04:15.032Z</time></trkpt><trkpt lat="44.743569984775185" lon="11.987127317201379"><ele>-1.0</ele><time>2026-04-11T09:04:16.032Z</time></trkpt><trkpt lat="44.74350748414019" lon="11.987481748582887"><ele>-1.5</ele><time>2026-04-11T09:04:17.032Z</time></trkpt><trkpt lat="44.74343598646415" lon="11.98784130096106"><ele>-2.0</ele><time>2026-04-11T09:04:18.032Z</time></trkpt><trkpt lat="44.743352936971164" lon="11.98818472900193"><ele>-2.0</ele><time>2026-04-11T09:04:19.032Z</time></trkpt><trkpt lat="44.743253256743145" lon="11.988510521581148"><ele>-2.0</ele><time>2026-04-11T09:04:20.032Z</time></trkpt><trkpt lat="44.743140728212076" lon="11.98882585792704"><ele>-2.0</ele><time>2026-04-11T09:04:21.032Z</time></trkpt><trkpt lat="44.7430165514394" lon="11.989128829575858"><ele>-2.0</ele><time>2026-04-11T09:04:22.032Z</time></trkpt><trkpt lat="44.74289261271774" lon="11.9894230116431"><ele>-2.0</ele><time>2026-04-11T09:04:23.032Z</time></trkpt><trkpt lat="44.742784734646335" lon="11.989708881452378"><ele>-2.0</ele><time>2026-04-11T09:04:24.032Z</time></trkpt><trkpt lat="44.74269803940118" lon="11.990019192211923"><ele>-2.0</ele><time>2026-04-11T09:04:25.032Z</time></trkpt><trkpt lat="44.742630000143194" lon="11.990362977593419"><ele>-2.0</ele><time>2026-04-11T09:04:26.032Z</time></trkpt><trkpt lat="44.7425675906178" lon="11.990729130200496"><ele>-2.0</ele><time>2026-04-11T09:04:27.032Z</time></trkpt><trkpt lat="44.742515730852965" lon="11.991108745805192"><ele>-2.0</ele><time>2026-04-11T09:04:28.032Z</time></trkpt><trkpt lat="44.74246684896143" lon="11.991494062454093"><ele>-2.0</ele><time>2026-04-11T09:04:29.032Z</time></trkpt><trkpt lat="44.742428311116925" lon="11.991891126123068"><ele>-2.0</ele><time>2026-04-11T09:04:30.032Z</time></trkpt><trkpt lat="44.742406821936235" lon="11.99228913581752"><ele>-3.0</ele><time>2026-04-11T09:04:31.032Z</time></trkpt><trkpt lat="44.74238284639973" lon="11.992697582310484"><ele>-4.0</ele><time>2026-04-11T09:04:32.032Z</time></trkpt><trkpt lat="44.7423544554872" lon="11.99311042906257"><ele>-4.0</ele><time>2026-04-11T09:04:33.032Z</time></trkpt><trkpt lat="44.74233815400876" lon="11.993503476655277"><ele>-4.0</ele><time>2026-04-11T09:04:34.032Z</time></trkpt><trkpt lat="44.74231319097947" lon="11.993879291561795"><ele>-3.5</ele><time>2026-04-11T09:04:35.032Z</time></trkpt><trkpt lat="44.74228711780581" lon="11.994232887215604"><ele>-3.0</ele><time>2026-04-11T09:04:36.032Z</time></trkpt><trkpt lat="44.74226132176148" lon="11.994578983709545"><ele>-3.0</ele><time>2026-04-11T09:04:37.032Z</time></trkpt><trkpt lat="44.74222628951358" lon="11.99490241783154"><ele>-3.0</ele><time>2026-04-11T09:04:38.032Z</time></trkpt><trkpt lat="44.74218957887861" lon="11.995231612368267"><ele>-3.0</ele><time>2026-04-11T09:04:39.032Z</time></trkpt><trkpt lat="44.74214855563221" lon="11.995556592747224"><ele>-3.0</ele><time>2026-04-11T09:04:40.032Z</time></trkpt><trkpt lat="44.74210534553168" lon="11.995870215325938"><ele>-2.6666666666666665</ele><time>2026-04-11T09:04:41.032Z</time></trkpt><trkpt lat="44.74206938049805" lon="11.996167719466206"><ele>-2.333333333333333</ele><time>2026-04-11T09:04:42.032Z</time></trkpt><trkpt lat="44.74202984452043" lon="11.996445402451261"><ele>-2.0</ele><time>2026-04-11T09:04:43.032Z</time></trkpt><trkpt lat="44.741995269397655" lon="11.996718003465539"><ele>-1.6666666666666665</ele><time>2026-04-11T09:04:44.032Z</time></trkpt><trkpt lat="44.74196304921397" lon="11.996996904679476"><ele>-1.3333333333333333</ele><time>2026-04-11T09:04:45.032Z</time></trkpt><trkpt lat="44.741928650024406" lon="11.99728130614343"><ele>-1.0</ele><time>2026-04-11T09:04:46.032Z</time></trkpt><trkpt lat="44.74189131554853" lon="11.997569024901543"><ele>-0.6666666666666666</ele><time>2026-04-11T09:04:47.032Z</time></trkpt><trkpt lat="44.741829744029026" lon="11.99785593197487"><ele>-0.3333333333333333</ele><time>2026-04-11T09:04:48.032Z</time></trkpt><trkpt lat="44.74179493791995" lon="11.998139046152533"><ele>0.0</ele><time>2026-04-11T09:04:49.032Z</time></trkpt><trkpt lat="44.74176408779499" lon="11.998417224004326"><ele>0.0</ele><time>2026-04-11T09:04:50.032Z</time></trkpt><trkpt lat="44.7417299082712" lon="11.998706766799009"><ele>0.0</ele><time>2026-04-11T09:04:51.032Z</time></trkpt><trkpt lat="44.741692379341586" lon="11.998998878501657"><ele>0.0</ele><time>2026-04-11T09:04:52.032Z</time></trkpt><trkpt lat="44.741639421360155" lon="11.999295149075726"><ele>0.0</ele><time>2026-04-11T09:04:53.032Z</time></trkpt><trkpt lat="44.74158289881852" lon="11.999591391199678"><ele>0.0</ele><time>2026-04-11T09:04:54.032Z</time></trkpt><trkpt lat="44.74152565979067" lon="11.999876117092256"><ele>0.0</ele><time>2026-04-11T09:04:55.032Z</time></trkpt><trkpt lat="44.74146389380557" lon="12.000154734170824"><ele>0.0</ele><time>2026-04-11T09:04:56.032Z</time></trkpt><trkpt lat="44.741404303858445" lon="12.000439804916384"><ele>0.0</ele><time>2026-04-11T09:04:57.032Z</time></trkpt><trkpt lat="44.74134311503003" lon="12.000727021544348"><ele>0.0</ele><time>2026-04-11T09:04:58.032Z</time></trkpt><trkpt lat="44.74128312343754" lon="12.001022192671705"><ele>-0.5</ele><time>2026-04-11T09:04:59.032Z</time></trkpt><trkpt lat="44.74121568897078" lon="12.00132261941746"><ele>-1.0</ele><time>2026-04-11T09:05:00.032Z</time></trkpt><trkpt lat="44.74114629220869" lon="12.001631919465403"><ele>-1.0</ele><time>2026-04-11T09:05:01.032Z</time></trkpt><trkpt lat="44.74107768927565" lon="12.001942399374682"><ele>-1.0</ele><time>2026-04-11T09:05:02.032Z</time></trkpt><trkpt lat="44.74101354983355" lon="12.00225515766306"><ele>0.0</ele><time>2026-04-11T09:05:03.032Z</time></trkpt><trkpt lat="44.7409491375453" lon="12.002570182904133"><ele>1.0</ele><time>2026-04-11T09:05:04.032Z</time></trkpt><trkpt lat="44.74086012038596" lon="12.002890556444509"><ele>1.0</ele><time>2026-04-11T09:05:05.032Z</time></trkpt><trkpt lat="44.74080129286475" lon="12.003220907579454"><ele>1.0</ele><time>2026-04-11T09:05:06.032Z</time></trkpt><trkpt lat="44.74074131290714" lon="12.003553273261243"><ele>0.0</ele><time>2026-04-11T09:05:07.032Z</time></trkpt><trkpt lat="44.740684503621054" lon="12.00389215341615"><ele>-1.0</ele><time>2026-04-11T09:05:08.032Z</time></trkpt><trkpt lat="44.74062987020018" lon="12.004231181713157"><ele>-1.0</ele><time>2026-04-11T09:05:09.032Z</time></trkpt><trkpt lat="44.74057282245399" lon="12.004580721262768"><ele>-1.0</ele><time>2026-04-11T09:05:10.032Z</time></trkpt><trkpt lat="44.740507493054544" lon="12.004923396082857"><ele>-1.0</ele><time>2026-04-11T09:05:11.032Z</time></trkpt><trkpt lat="44.74044148743555" lon="12.00526847030055"><ele>-1.0</ele><time>2026-04-11T09:05:12.032Z</time></trkpt><trkpt lat="44.74037745533408" lon="12.005605266789415"><ele>-1.0</ele><time>2026-04-11T09:05:13.032Z</time></trkpt><trkpt lat="44.74030522755284" lon="12.005950035143348"><ele>-1.0</ele><time>2026-04-11T09:05:14.032Z</time></trkpt><trkpt lat="44.740230768107644" lon="12.006294736189982"><ele>-1.0</ele><time>2026-04-11T09:05:15.032Z</time></trkpt><trkpt lat="44.7401613026343" lon="12.00663975919543"><ele>-1.0</ele><time>2026-04-11T09:05:16.032Z</time></trkpt><trkpt lat="44.740093865353074" lon="12.006995259312257"><ele>-1.0</ele><time>2026-04-11T09:05:17.032Z</time></trkpt><trkpt lat="44.740043576406606" lon="12.007346049470838"><ele>-1.0</ele><time>2026-04-11T09:05:18.032Z</time></trkpt><trkpt lat="44.739996272408455" lon="12.00770218147639"><ele>-1.0</ele><time>2026-04-11T09:05:19.032Z</time></trkpt><trkpt lat="44.73995918795644" lon="12.008053127790035"><ele>-1.0</ele><time>2026-04-11T09:05:20.032Z</time></trkpt><trkpt lat="44.7399323536945" lon="12.008410019672949"><ele>-1.0</ele><time>2026-04-11T09:05:21.032Z</time></trkpt><trkpt lat="44.739906990406816" lon="12.008782342127127"><ele>-1.0</ele><time>2026-04-11T09:05:22.032Z</time></trkpt><trkpt lat="44.739888971322124" lon="12.009155756920517"><ele>-1.5</ele><time>2026-04-11T09:05:23.032Z</time></trkpt><trkpt lat="44.739873402098276" lon="12.009525790071796"><ele>-2.0</ele><time>2026-04-11T09:05:24.032Z</time></trkpt><trkpt lat="44.73986052697796" lon="12.009888891282802"><ele>-2.0</ele><time>2026-04-11T09:05:25.032Z</time></trkpt><trkpt lat="44.7398541422958" lon="12.010251785872745"><ele>-2.0</ele><time>2026-04-11T09:05:26.032Z</time></trkpt><trkpt lat="44.739856777914625" lon="12.01061444106873"><ele>-2.5</ele><time>2026-04-11T09:05:27.032Z</time></trkpt><trkpt lat="44.73986507616217" lon="12.010970130300015"><ele>-3.0</ele><time>2026-04-11T09:05:28.032Z</time></trkpt><trkpt lat="44.739887686963215" lon="12.011322787332837"><ele>-1.0</ele><time>2026-04-11T09:05:29.032Z</time></trkpt><trkpt lat="44.739916419715485" lon="12.011680408887585"><ele>1.0</ele><time>2026-04-11T09:05:30.032Z</time></trkpt><trkpt lat="44.739941593535754" lon="12.012036497083578"><ele>1.0</ele><time>2026-04-11T09:05:31.032Z</time></trkpt><trkpt lat="44.73997004237167" lon="12.012394026772816"><ele>1.0</ele><time>2026-04-11T09:05:32.032Z</time></trkpt><trkpt lat="44.739990501183485" lon="12.012746008863804"><ele>1.5</ele><time>2026-04-11T09:05:33.032Z</time></trkpt><trkpt lat="44.740000057167705" lon="12.013113332647086"><ele>2.0</ele><time>2026-04-11T09:05:34.032Z</time></trkpt><trkpt lat="44.73996706323667" lon="12.013470887185758"><ele>2.0</ele><time>2026-04-11T09:05:35.032Z</time></trkpt><trkpt lat="44.73994195805246" lon="12.013822407652452"><ele>2.0</ele><time>2026-04-11T09:05:36.032Z</time></trkpt><trkpt lat="44.73991741439877" lon="12.014164730276347"><ele>1.6666666666666665</ele><time>2026-04-11T09:05:37.032Z</time></trkpt><trkpt lat="44.73989219013701" lon="12.014485010356733"><ele>1.3333333333333333</ele><time>2026-04-11T09:05:38.032Z</time></trkpt><trkpt lat="44.73985949755491" lon="12.014784772158212"><ele>1.0</ele><time>2026-04-11T09:05:39.032Z</time></trkpt><trkpt lat="44.73981281278413" lon="12.015050111635626"><ele>0.3333333333333333</ele><time>2026-04-11T09:05:40.032Z</time></trkpt><trkpt lat="44.73976024363872" lon="12.015278913861525"><ele>-0.3333333333333333</ele><time>2026-04-11T09:05:41.032Z</time></trkpt><trkpt lat="44.73969313976512" lon="12.015507143726012"><ele>-1.0</ele><time>2026-04-11T09:05:42.032Z</time></trkpt><trkpt lat="44.73961008808504" lon="12.015731181729734"><ele>-1.0</ele><time>2026-04-11T09:05:43.032Z</time></trkpt><trkpt lat="44.739508309235916" lon="12.01594614602575"><ele>-1.0</ele><time>2026-04-11T09:05:44.032Z</time></trkpt><trkpt lat="44.73939145153766" lon="12.016175282804397"><ele>-1.0</ele><time>2026-04-11T09:05:45.032Z</time></trkpt><trkpt lat="44.73926578090415" lon="12.016420267086273"><ele>-1.0</ele><time>2026-04-11T09:05:46.032Z</time></trkpt><trkpt lat="44.73913593336512" lon="12.016673779239975"><ele>-1.0</ele><time>2026-04-11T09:05:47.032Z</time></trkpt><trkpt lat="44.73899998961766" lon="12.016939713377596"><ele>-1.0</ele><time>2026-04-11T09:05:48.032Z</time></trkpt><trkpt lat="44.73885679694229" lon="12.017220341179042"><ele>-1.0</ele><time>2026-04-11T09:05:49.032Z</time></trkpt><trkpt lat="44.738702095948454" lon="12.017524297668578"><ele>-1.0</ele><time>2026-04-11T09:05:50.032Z</time></trkpt><trkpt lat="44.7385551956439" lon="12.01784216151136"><ele>-1.0</ele><time>2026-04-11T09:05:51.032Z</time></trkpt><trkpt lat="44.73837977994129" lon="12.018151396553204"><ele>0.0</ele><time>2026-04-11T09:05:52.032Z</time></trkpt><trkpt lat="44.738216654197764" lon="12.018464345955898"><ele>1.0</ele><time>2026-04-11T09:05:53.032Z</time></trkpt><trkpt lat="44.73805897492657" lon="12.018775885322205"><ele>1.0</ele><time>2026-04-11T09:05:54.032Z</time></trkpt><trkpt lat="44.73789695864274" lon="12.019091985997441"><ele>1.0</ele><time>2026-04-11T09:05:55.033Z</time></trkpt><trkpt lat="44.73773901526488" lon="12.019400094509503"><ele>0.5</ele><time>2026-04-11T09:05:56.033Z</time></trkpt><trkpt lat="44.73758752580257" lon="12.019687094705208"><ele>0.0</ele><time>2026-04-11T09:05:57.033Z</time></trkpt><trkpt lat="44.73743931643151" lon="12.019970419117124"><ele>-1.0</ele><time>2026-04-11T09:05:58.033Z</time></trkpt><trkpt lat="44.73729006689642" lon="12.020259950541409"><ele>-2.0</ele><time>2026-04-11T09:05:59.034Z</time></trkpt><trkpt lat="44.73714119620986" lon="12.020559753922495"><ele>-1.5</ele><time>2026-04-11T09:06:00.034Z</time></trkpt><trkpt lat="44.736985165031555" lon="12.020865018350873"><ele>-1.0</ele><time>2026-04-11T09:06:01.034Z</time></trkpt><trkpt lat="44.736829607991446" lon="12.021167440109275"><ele>-0.5</ele><time>2026-04-11T09:06:02.034Z</time></trkpt><trkpt lat="44.736690175213866" lon="12.021453632001974"><ele>0.0</ele><time>2026-04-11T09:06:03.034Z</time></trkpt><trkpt lat="44.736559292911785" lon="12.021716966618975"><ele>0.3333333333333333</ele><time>2026-04-11T09:06:04.034Z</time></trkpt><trkpt lat="44.73644122059231" lon="12.021963920244657"><ele>0.6666666666666666</ele><time>2026-04-11T09:06:05.034Z</time></trkpt><trkpt lat="44.73632544570779" lon="12.022190718103925"><ele>1.0</ele><time>2026-04-11T09:06:06.034Z</time></trkpt><trkpt lat="44.73621832747851" lon="12.022406063225004"><ele>0.6666666666666666</ele><time>2026-04-11T09:06:07.034Z</time></trkpt><trkpt lat="44.73611560197686" lon="12.022621732666796"><ele>0.3333333333333333</ele><time>2026-04-11T09:06:08.034Z</time></trkpt><trkpt lat="44.73601515584369" lon="12.02285882266484"><ele>0.0</ele><time>2026-04-11T09:06:09.034Z</time></trkpt><trkpt lat="44.73591811364972" lon="12.023123029176004"><ele>0.3333333333333333</ele><time>2026-04-11T09:06:10.034Z</time></trkpt><trkpt lat="44.735832474124045" lon="12.02340529349567"><ele>0.6666666666666666</ele><time>2026-04-11T09:06:11.034Z</time></trkpt><trkpt lat="44.73575552004939" lon="12.023657354515498"><ele>1.0</ele><time>2026-04-11T09:06:12.034Z</time></trkpt><trkpt lat="44.73568170904569" lon="12.023866797938375"><ele>1.0</ele><time>2026-04-11T09:06:13.034Z</time></trkpt><trkpt lat="44.735620306601504" lon="12.024069967011943"><ele>1.0</ele><time>2026-04-11T09:06:14.034Z</time></trkpt><trkpt lat="44.73556303420906" lon="12.02427124310915"><ele>1.0</ele><time>2026-04-11T09:06:15.034Z</time></trkpt><trkpt lat="44.73550840420281" lon="12.024487197988648"><ele>1.0</ele><time>2026-04-11T09:06:16.034Z</time></trkpt><trkpt lat="44.73544491199626" lon="12.024703994765597"><ele>1.0</ele><time>2026-04-11T09:06:17.034Z</time></trkpt><trkpt lat="44.73537863893512" lon="12.024924186706022"><ele>1.0</ele><time>2026-04-11T09:06:18.034Z</time></trkpt><trkpt lat="44.73531225793878" lon="12.025143649613076"><ele>1.0</ele><time>2026-04-11T09:06:19.034Z</time></trkpt><trkpt lat="44.73524715788152" lon="12.025358151025198"><ele>1.0</ele><time>2026-04-11T09:06:20.034Z</time></trkpt><trkpt lat="44.73518255682868" lon="12.025568658341193"><ele>1.0</ele><time>2026-04-11T09:06:21.034Z</time></trkpt><trkpt lat="44.7351093296839" lon="12.025781937602375"><ele>1.0</ele><time>2026-04-11T09:06:22.034Z</time></trkpt><trkpt lat="44.73503954658059" lon="12.025996560689924"><ele>1.0</ele><time>2026-04-11T09:06:23.034Z</time></trkpt><trkpt lat="44.73495697161941" lon="12.026218435608246"><ele>1.0</ele><time>2026-04-11T09:06:24.034Z</time></trkpt><trkpt lat="44.73486811980156" lon="12.026441790092688"><ele>0.3333333333333333</ele><time>2026-04-11T09:06:25.034Z</time></trkpt><trkpt lat="44.73477797526708" lon="12.0266830628782"><ele>-0.3333333333333333</ele><time>2026-04-11T09:06:26.034Z</time></trkpt><trkpt lat="44.734693706349994" lon="12.026919691005853"><ele>-1.0</ele><time>2026-04-11T09:06:27.034Z</time></trkpt><trkpt lat="44.73461331493668" lon="12.027142822893424"><ele>-1.0</ele><time>2026-04-11T09:06:28.034Z</time></trkpt><trkpt lat="44.73453218848841" lon="12.027363905748215"><ele>-1.0</ele><time>2026-04-11T09:06:29.034Z</time></trkpt><trkpt lat="44.73444267897157" lon="12.027598784353598"><ele>-1.0</ele><time>2026-04-11T09:06:30.034Z</time></trkpt><trkpt lat="44.73434837711537" lon="12.0278552651502"><ele>-1.0</ele><time>2026-04-11T09:06:31.034Z</time></trkpt><trkpt lat="44.73424999332185" lon="12.028149629583805"><ele>-1.0</ele><time>2026-04-11T09:06:32.034Z</time></trkpt><trkpt lat="44.73413275556107" lon="12.028475342220174"><ele>-1.0</ele><time>2026-04-11T09:06:33.034Z</time></trkpt><trkpt lat="44.73401572767496" lon="12.028785643958097"><ele>-1.0</ele><time>2026-04-11T09:06:34.034Z</time></trkpt><trkpt lat="44.733887595481264" lon="12.029094762358916"><ele>-1.0</ele><time>2026-04-11T09:06:35.034Z</time></trkpt><trkpt lat="44.73377819360129" lon="12.029386664570005"><ele>-1.0</ele><time>2026-04-11T09:06:36.034Z</time></trkpt><trkpt lat="44.73368265163179" lon="12.029661522205364"><ele>-1.0</ele><time>2026-04-11T09:06:37.034Z</time></trkpt><trkpt lat="44.733590236173555" lon="12.029961204607043"><ele>-1.0</ele><time>2026-04-11T09:06:38.034Z</time></trkpt><trkpt lat="44.73348805235494" lon="12.030280553933087"><ele>-1.0</ele><time>2026-04-11T09:06:39.034Z</time></trkpt><trkpt lat="44.73337131633522" lon="12.030620352879044"><ele>-1.0</ele><time>2026-04-11T09:06:40.034Z</time></trkpt><trkpt lat="44.73324751849276" lon="12.030980156007136"><ele>-1.0</ele><time>2026-04-11T09:06:41.034Z</time></trkpt><trkpt lat="44.733121941316334" lon="12.031348161130177"><ele>-1.0</ele><time>2026-04-11T09:06:42.034Z</time></trkpt><trkpt lat="44.73299043422204" lon="12.031714502625322"><ele>-2.0</ele><time>2026-04-11T09:06:43.034Z</time></trkpt><trkpt lat="44.732857571821036" lon="12.03208008180658"><ele>-3.0</ele><time>2026-04-11T09:06:44.034Z</time></trkpt><trkpt lat="44.73273050156859" lon="12.032455244316994"><ele>-2.5</ele><time>2026-04-11T09:06:45.034Z</time></trkpt><trkpt lat="44.73259910885873" lon="12.032837467133023"><ele>-2.0</ele><time>2026-04-11T09:06:46.034Z</time></trkpt><trkpt lat="44.73247126075343" lon="12.033229425868251"><ele>-2.5</ele><time>2026-04-11T09:06:47.034Z</time></trkpt><trkpt lat="44.732338601831245" lon="12.03362929259903"><ele>-3.0</ele><time>2026-04-11T09:06:48.034Z</time></trkpt><trkpt lat="44.73219930174347" lon="12.034033637891502"><ele>-2.5</ele><time>2026-04-11T09:06:49.034Z</time></trkpt><trkpt lat="44.73205341487706" lon="12.034439053912417"><ele>-2.0</ele><time>2026-04-11T09:06:50.034Z</time></trkpt><trkpt lat="44.73190840693056" lon="12.03484693225175"><ele>-3.0</ele><time>2026-04-11T09:06:51.034Z</time></trkpt><trkpt lat="44.73176705410839" lon="12.035251438011366"><ele>-4.0</ele><time>2026-04-11T09:06:52.034Z</time></trkpt><trkpt lat="44.731623543254095" lon="12.035662045529177"><ele>-3.5</ele><time>2026-04-11T09:06:53.034Z</time></trkpt><trkpt lat="44.731480101073394" lon="12.036067561744629"><ele>-3.0</ele><time>2026-04-11T09:06:54.034Z</time></trkpt><trkpt lat="44.73133904570749" lon="12.036473557555626"><ele>-3.0</ele><time>2026-04-11T09:06:55.034Z</time></trkpt><trkpt lat="44.73119998199504" lon="12.036883866838917"><ele>-3.0</ele><time>2026-04-11T09:06:56.034Z</time></trkpt><trkpt lat="44.7310608047381" lon="12.037294606063806"><ele>-2.5</ele><time>2026-04-11T09:06:57.034Z</time></trkpt><trkpt lat="44.730925317442" lon="12.037711087296127"><ele>-2.0</ele><time>2026-04-11T09:06:58.034Z</time></trkpt><trkpt lat="44.730783904125" lon="12.038118986945973"><ele>-2.0</ele><time>2026-04-11T09:06:59.034Z</time></trkpt><trkpt lat="44.730642188952864" lon="12.038525330904207"><ele>-2.0</ele><time>2026-04-11T09:07:00.034Z</time></trkpt><trkpt lat="44.73050501766101" lon="12.03892636722747"><ele>-1.5</ele><time>2026-04-11T09:07:01.034Z</time></trkpt><trkpt lat="44.73037615199739" lon="12.039314610222844"><ele>-1.0</ele><time>2026-04-11T09:07:02.034Z</time></trkpt><trkpt lat="44.73026099615602" lon="12.039666278412945"><ele>-0.5</ele><time>2026-04-11T09:07:03.034Z</time></trkpt><trkpt lat="44.73015452591849" lon="12.039984921683526"><ele>0.0</ele><time>2026-04-11T09:07:04.034Z</time></trkpt><trkpt lat="44.730056776990146" lon="12.040272850618438"><ele>0.0</ele><time>2026-04-11T09:07:05.034Z</time></trkpt><trkpt lat="44.72996994513206" lon="12.040529780653213"><ele>0.0</ele><time>2026-04-11T09:07:06.034Z</time></trkpt><trkpt lat="44.729881561184015" lon="12.040737588391217"><ele>0.0</ele><time>2026-04-11T09:07:07.034Z</time></trkpt><trkpt lat="44.72981610683602" lon="12.0409288797389"><ele>0.25</ele><time>2026-04-11T09:07:08.034Z</time></trkpt><trkpt lat="44.729774113580255" lon="12.041108428124724"><ele>0.5</ele><time>2026-04-11T09:07:09.034Z</time></trkpt><trkpt lat="44.729683203898034" lon="12.041267972121116"><ele>0.75</ele><time>2026-04-11T09:07:10.034Z</time></trkpt><trkpt lat="44.72963833351715" lon="12.041405762887674"><ele>1.0</ele><time>2026-04-11T09:07:11.034Z</time></trkpt><trkpt lat="44.72959502069259" lon="12.041553484349958"><ele>0.75</ele><time>2026-04-11T09:07:12.034Z</time></trkpt><trkpt lat="44.72954512267145" lon="12.041700412931569"><ele>0.5</ele><time>2026-04-11T09:07:13.034Z</time></trkpt><trkpt lat="44.72949744926427" lon="12.041848399016722"><ele>0.25</ele><time>2026-04-11T09:07:14.034Z</time></trkpt><trkpt lat="44.729450382834145" lon="12.041996421317537"><ele>0.0</ele><time>2026-04-11T09:07:15.034Z</time></trkpt><trkpt lat="44.72940130362848" lon="12.042150161898535"><ele>0.0</ele><time>2026-04-11T09:07:16.034Z</time></trkpt><trkpt lat="44.729347680167" lon="12.042325089673353"><ele>0.0</ele><time>2026-04-11T09:07:17.034Z</time></trkpt><trkpt lat="44.72929140446694" lon="12.04251810093323"><ele>0.0</ele><time>2026-04-11T09:07:18.034Z</time></trkpt><trkpt lat="44.7292074224103" lon="12.04271218539423"><ele>0.0</ele><time>2026-04-11T09:07:19.034Z</time></trkpt><trkpt lat="44.72913629566531" lon="12.042920603259752"><ele>0.0</ele><time>2026-04-11T09:07:20.034Z</time></trkpt><trkpt lat="44.72906218136604" lon="12.043137775359572"><ele>0.0</ele><time>2026-04-11T09:07:21.034Z</time></trkpt><trkpt lat="44.72898793300393" lon="12.043356584723178"><ele>0.0</ele><time>2026-04-11T09:07:22.034Z</time></trkpt><trkpt lat="44.72891195871282" lon="12.043580632190928"><ele>-0.3333333333333333</ele><time>2026-04-11T09:07:23.034Z</time></trkpt><trkpt lat="44.72883458212609" lon="12.043808815010784"><ele>-0.6666666666666666</ele><time>2026-04-11T09:07:24.034Z</time></trkpt><trkpt lat="44.72876001523395" lon="12.04402871204518"><ele>-1.0</ele><time>2026-04-11T09:07:25.034Z</time></trkpt><trkpt lat="44.7286885319454" lon="12.044239515538244"><ele>-0.75</ele><time>2026-04-11T09:07:26.034Z</time></trkpt><trkpt lat="44.72862380865178" lon="12.044430383921036"><ele>-0.5</ele><time>2026-04-11T09:07:27.034Z</time></trkpt><trkpt lat="44.7285651100003" lon="12.044603485150368"><ele>-0.25</ele><time>2026-04-11T09:07:28.034Z</time></trkpt><trkpt lat="44.728505410761315" lon="12.044780234522728"><ele>0.0</ele><time>2026-04-11T09:07:29.034Z</time></trkpt><trkpt lat="44.72844081362113" lon="12.044968943567703"><ele>0.0</ele><time>2026-04-11T09:07:30.034Z</time></trkpt><trkpt lat="44.72837827749921" lon="12.045154961317714"><ele>0.0</ele><time>2026-04-11T09:07:31.034Z</time></trkpt><trkpt lat="44.728316197255104" lon="12.04533857055517"><ele>0.0</ele><time>2026-04-11T09:07:32.034Z</time></trkpt><trkpt lat="44.728254328079146" lon="12.045521278900909"><ele>0.0</ele><time>2026-04-11T09:07:33.034Z</time></trkpt><trkpt lat="44.72819173269396" lon="12.045706062450641"><ele>0.25</ele><time>2026-04-11T09:07:34.034Z</time></trkpt><trkpt lat="44.72812791560343" lon="12.045894452507236"><ele>0.5</ele><time>2026-04-11T09:07:35.034Z</time></trkpt><trkpt lat="44.72806126980522" lon="12.046082265127358"><ele>0.75</ele><time>2026-04-11T09:07:36.034Z</time></trkpt><trkpt lat="44.72798782449776" lon="12.046267474193373"><ele>1.0</ele><time>2026-04-11T09:07:37.034Z</time></trkpt><trkpt lat="44.72790569166631" lon="12.046447936884437"><ele>1.0</ele><time>2026-04-11T09:07:38.034Z</time></trkpt><trkpt lat="44.72781550525128" lon="12.04663191032541"><ele>1.0</ele><time>2026-04-11T09:07:39.034Z</time></trkpt><trkpt lat="44.727623447232425" lon="12.046993620890365"><ele>1.0</ele><time>2026-04-11T09:07:41.034Z</time></trkpt><trkpt lat="44.72752902050513" lon="12.047171883896343"><ele>1.0</ele><time>2026-04-11T09:07:42.034Z</time></trkpt><trkpt lat="44.72743555193706" lon="12.047348296174645"><ele>1.0</ele><time>2026-04-11T09:07:43.034Z</time></trkpt><trkpt lat="44.72734680467879" lon="12.04751657518836"><ele>1.0</ele><time>2026-04-11T09:07:44.034Z</time></trkpt><trkpt lat="44.727257862999224" lon="12.047685357381646"><ele>1.0</ele><time>2026-04-11T09:07:45.034Z</time></trkpt><trkpt lat="44.72716585060881" lon="12.047859982906955"><ele>1.0</ele><time>2026-04-11T09:07:46.034Z</time></trkpt><trkpt lat="44.72707402364222" lon="12.048036648003928"><ele>1.0</ele><time>2026-04-11T09:07:47.034Z</time></trkpt><trkpt lat="44.72697765382417" lon="12.048222148837997"><ele>1.0</ele><time>2026-04-11T09:07:48.034Z</time></trkpt><trkpt lat="44.72689927909444" lon="12.04840969821777"><ele>1.0</ele><time>2026-04-11T09:07:49.034Z</time></trkpt><trkpt lat="44.72680056023829" lon="12.048575503505242"><ele>0.5</ele><time>2026-04-11T09:07:50.034Z</time></trkpt><trkpt lat="44.72671599015775" lon="12.048743562312708"><ele>0.0</ele><time>2026-04-11T09:07:51.034Z</time></trkpt><trkpt lat="44.72662935079874" lon="12.048912333604868"><ele>-0.5</ele><time>2026-04-11T09:07:52.034Z</time></trkpt><trkpt lat="44.72653778681252" lon="12.049085088203718"><ele>-1.0</ele><time>2026-04-11T09:07:53.034Z</time></trkpt><trkpt lat="44.72644752331181" lon="12.049263939175887"><ele>-1.0</ele><time>2026-04-11T09:07:54.034Z</time></trkpt><trkpt lat="44.7263494257807" lon="12.049451428657294"><ele>-1.0</ele><time>2026-04-11T09:07:55.034Z</time></trkpt><trkpt lat="44.726255326602114" lon="12.049640797830394"><ele>-1.0</ele><time>2026-04-11T09:07:56.034Z</time></trkpt><trkpt lat="44.72616338022466" lon="12.049827856502091"><ele>-1.0</ele><time>2026-04-11T09:07:57.034Z</time></trkpt><trkpt lat="44.72605480223294" lon="12.050002101969326"><ele>-1.0</ele><time>2026-04-11T09:07:58.034Z</time></trkpt><trkpt lat="44.72595616923344" lon="12.050192876717107"><ele>-1.0</ele><time>2026-04-11T09:07:59.034Z</time></trkpt><trkpt lat="44.72585835656999" lon="12.050382079293923"><ele>-1.0</ele><time>2026-04-11T09:08:00.034Z</time></trkpt><trkpt lat="44.72576141293576" lon="12.050569600835063"><ele>-1.0</ele><time>2026-04-11T09:08:01.036Z</time></trkpt><trkpt lat="44.72567347853762" lon="12.050770729772207"><ele>-1.0</ele><time>2026-04-11T09:08:02.035Z</time></trkpt><trkpt lat="44.725579120445595" lon="12.05095941938654"><ele>-0.75</ele><time>2026-04-11T09:08:03.035Z</time></trkpt><trkpt lat="44.72548519228793" lon="12.051139168716423"><ele>-0.5</ele><time>2026-04-11T09:08:04.035Z</time></trkpt><trkpt lat="44.72539886510983" lon="12.051305081107136"><ele>-0.25</ele><time>2026-04-11T09:08:05.035Z</time></trkpt><trkpt lat="44.725303331711224" lon="12.051447884402181"><ele>0.0</ele><time>2026-04-11T09:08:06.035Z</time></trkpt><trkpt lat="44.7252225800148" lon="12.051602978902414"><ele>0.3333333333333333</ele><time>2026-04-11T09:08:07.036Z</time></trkpt><trkpt lat="44.72513844047573" lon="12.051764628410766"><ele>0.6666666666666666</ele><time>2026-04-11T09:08:08.036Z</time></trkpt><trkpt lat="44.72504650443349" lon="12.051941256630732"><ele>1.0</ele><time>2026-04-11T09:08:09.036Z</time></trkpt><trkpt lat="44.7249450153068" lon="12.052135896247822"><ele>1.0</ele><time>2026-04-11T09:08:10.036Z</time></trkpt><trkpt lat="44.72483316576136" lon="12.05235028590245"><ele>1.0</ele><time>2026-04-11T09:08:11.036Z</time></trkpt><trkpt lat="44.7247107452278" lon="12.052584937736853"><ele>1.0</ele><time>2026-04-11T09:08:12.036Z</time></trkpt><trkpt lat="44.72458350789939" lon="12.052828822206136"><ele>0.6666666666666666</ele><time>2026-04-11T09:08:13.036Z</time></trkpt><trkpt lat="44.72445090615503" lon="12.053079897886555"><ele>0.3333333333333333</ele><time>2026-04-11T09:08:14.036Z</time></trkpt><trkpt lat="44.72431651991582" lon="12.05333220080648"><ele>0.0</ele><time>2026-04-11T09:08:15.036Z</time></trkpt><trkpt lat="44.7241848321105" lon="12.053579437457884"><ele>0.0</ele><time>2026-04-11T09:08:16.036Z</time></trkpt><trkpt lat="44.724053976301974" lon="12.05382469449007"><ele>0.0</ele><time>2026-04-11T09:08:17.036Z</time></trkpt><trkpt lat="44.72392086581962" lon="12.054070894338121"><ele>0.0</ele><time>2026-04-11T09:08:18.036Z</time></trkpt><trkpt lat="44.72379906566468" lon="12.054336121930772"><ele>-1.0</ele><time>2026-04-11T09:08:19.036Z</time></trkpt><trkpt lat="44.72369795614914" lon="12.054614857639889"><ele>-2.0</ele><time>2026-04-11T09:08:20.036Z</time></trkpt><trkpt lat="44.72362992308595" lon="12.054937864418214"><ele>-1.5</ele><time>2026-04-11T09:08:21.036Z</time></trkpt><trkpt lat="44.723587425332134" lon="12.055259365941719"><ele>-1.0</ele><time>2026-04-11T09:08:22.036Z</time></trkpt><trkpt lat="44.72354824190325" lon="12.055617450066414"><ele>-1.0</ele><time>2026-04-11T09:08:23.036Z</time></trkpt><trkpt lat="44.723511042848024" lon="12.055982097873903"><ele>-1.0</ele><time>2026-04-11T09:08:24.036Z</time></trkpt><trkpt lat="44.723473194518114" lon="12.05635311043728"><ele>-0.5</ele><time>2026-04-11T09:08:25.036Z</time></trkpt><trkpt lat="44.7234344768133" lon="12.056732644867905"><ele>0.0</ele><time>2026-04-11T09:08:26.036Z</time></trkpt><trkpt lat="44.72339595276359" lon="12.0571102809637"><ele>-1.0</ele><time>2026-04-11T09:08:27.036Z</time></trkpt><trkpt lat="44.72335874042599" lon="12.057473736575886"><ele>-2.0</ele><time>2026-04-11T09:08:28.036Z</time></trkpt><trkpt lat="44.72332240911808" lon="12.057827113659762"><ele>-2.0</ele><time>2026-04-11T09:08:29.036Z</time></trkpt><trkpt lat="44.72328588913159" lon="12.05818184033036"><ele>-2.0</ele><time>2026-04-11T09:08:30.036Z</time></trkpt><trkpt lat="44.723248686249725" lon="12.058541651554899"><ele>-1.5</ele><time>2026-04-11T09:08:31.036Z</time></trkpt><trkpt lat="44.72320947042337" lon="12.058918942386123"><ele>-1.0</ele><time>2026-04-11T09:08:32.036Z</time></trkpt><trkpt lat="44.72316907051247" lon="12.059307625269293"><ele>-1.5</ele><time>2026-04-11T09:08:33.036Z</time></trkpt><trkpt lat="44.723126810904525" lon="12.059714200101684"><ele>-2.0</ele><time>2026-04-11T09:08:34.036Z</time></trkpt><trkpt lat="44.72308399162333" lon="12.060126159399443"><ele>-2.0</ele><time>2026-04-11T09:08:35.036Z</time></trkpt><trkpt lat="44.723041563257034" lon="12.060532124994399"><ele>-2.0</ele><time>2026-04-11T09:08:36.036Z</time></trkpt><trkpt lat="44.72299754306013" lon="12.060941328367717"><ele>-1.5</ele><time>2026-04-11T09:08:37.036Z</time></trkpt><trkpt lat="44.722952168601005" lon="12.061361848734148"><ele>-1.0</ele><time>2026-04-11T09:08:38.036Z</time></trkpt><trkpt lat="44.72290634446545" lon="12.061786536722892"><ele>-1.0</ele><time>2026-04-11T09:08:39.036Z</time></trkpt><trkpt lat="44.722862700835876" lon="12.062191016247194"><ele>-1.0</ele><time>2026-04-11T09:08:40.036Z</time></trkpt><trkpt lat="44.72282720313491" lon="12.06252000114226"><ele>-1.6666666666666665</ele><time>2026-04-11T09:08:41.036Z</time></trkpt><trkpt lat="44.72279909695154" lon="12.062780482715914"><ele>-2.3333333333333335</ele><time>2026-04-11T09:08:42.036Z</time></trkpt><trkpt lat="44.72277579627066" lon="12.06300296595831"><ele>-3.0</ele><time>2026-04-11T09:08:43.036Z</time></trkpt><trkpt lat="44.722755696413564" lon="12.063201039746533"><ele>-3.0</ele><time>2026-04-11T09:08:44.036Z</time></trkpt><trkpt lat="44.72273673294499" lon="12.063387915592049"><ele>-3.0</ele><time>2026-04-11T09:08:45.036Z</time></trkpt><trkpt lat="44.72273195650819" lon="12.063599629942775"><ele>-3.0</ele><time>2026-04-11T09:08:46.036Z</time></trkpt><trkpt lat="44.72270324646334" lon="12.06383156213698"><ele>-3.0</ele><time>2026-04-11T09:08:47.036Z</time></trkpt><trkpt lat="44.7226704174729" lon="12.064100053744543"><ele>-3.0</ele><time>2026-04-11T09:08:48.036Z</time></trkpt><trkpt lat="44.72264022074276" lon="12.064390042940465"><ele>-3.0</ele><time>2026-04-11T09:08:49.036Z</time></trkpt><trkpt lat="44.7226101576687" lon="12.064702537128424"><ele>-2.0</ele><time>2026-04-11T09:08:50.036Z</time></trkpt><trkpt lat="44.72258410709647" lon="12.065020138430645"><ele>-1.0</ele><time>2026-04-11T09:08:51.036Z</time></trkpt><trkpt lat="44.7225317390118" lon="12.065351531968062"><ele>-1.0</ele><time>2026-04-11T09:08:52.036Z</time></trkpt><trkpt lat="44.722493953513045" lon="12.065701013431871"><ele>-1.0</ele><time>2026-04-11T09:08:53.036Z</time></trkpt><trkpt lat="44.722453122007956" lon="12.06607951175319"><ele>-0.5</ele><time>2026-04-11T09:08:54.036Z</time></trkpt><trkpt lat="44.72241251008414" lon="12.066469354977498"><ele>0.0</ele><time>2026-04-11T09:08:55.036Z</time></trkpt><trkpt lat="44.7223705030885" lon="12.066872590530004"><ele>0.0</ele><time>2026-04-11T09:08:56.036Z</time></trkpt><trkpt lat="44.722328329998405" lon="12.067277419549805"><ele>0.0</ele><time>2026-04-11T09:08:57.036Z</time></trkpt><trkpt lat="44.72229703218412" lon="12.067697012273163"><ele>-1.0</ele><time>2026-04-11T09:08:58.036Z</time></trkpt><trkpt lat="44.72224748612559" lon="12.068118482303234"><ele>-2.0</ele><time>2026-04-11T09:08:59.036Z</time></trkpt><trkpt lat="44.722211083105655" lon="12.068537206812127"><ele>-2.5</ele><time>2026-04-11T09:09:00.036Z</time></trkpt><trkpt lat="44.722172536426726" lon="12.068936085688906"><ele>-3.0</ele><time>2026-04-11T09:09:01.036Z</time></trkpt><trkpt lat="44.72211509154139" lon="12.069326528755088"><ele>-3.0</ele><time>2026-04-11T09:09:02.036Z</time></trkpt><trkpt lat="44.722074013654925" lon="12.06971749271836"><ele>-3.0</ele><time>2026-04-11T09:09:03.036Z</time></trkpt><trkpt lat="44.7220335315011" lon="12.070102786864643"><ele>-3.0</ele><time>2026-04-11T09:09:04.036Z</time></trkpt><trkpt lat="44.721992692479546" lon="12.070491477742975"><ele>-3.0</ele><time>2026-04-11T09:09:05.036Z</time></trkpt><trkpt lat="44.72195158870834" lon="12.070881478100517"><ele>-3.0</ele><time>2026-04-11T09:09:06.036Z</time></trkpt><trkpt lat="44.72190902125154" lon="12.071282979484398"><ele>-3.0</ele><time>2026-04-11T09:09:07.036Z</time></trkpt><trkpt lat="44.72186603199924" lon="12.07168845840307"><ele>-2.0</ele><time>2026-04-11T09:09:08.036Z</time></trkpt><trkpt lat="44.72182304829257" lon="12.072093884920564"><ele>-1.0</ele><time>2026-04-11T09:09:09.036Z</time></trkpt><trkpt lat="44.72177948809626" lon="12.07250474916328"><ele>-1.0</ele><time>2026-04-11T09:09:10.036Z</time></trkpt><trkpt lat="44.72173677772663" lon="12.072913031774618"><ele>-1.0</ele><time>2026-04-11T09:09:11.036Z</time></trkpt><trkpt lat="44.721695858417654" lon="12.073305422157848"><ele>-1.0</ele><time>2026-04-11T09:09:12.036Z</time></trkpt><trkpt lat="44.72165599062405" lon="12.073687728904527"><ele>-1.0</ele><time>2026-04-11T09:09:13.036Z</time></trkpt><trkpt lat="44.72161677088214" lon="12.074063828190829"><ele>-1.0</ele><time>2026-04-11T09:09:14.036Z</time></trkpt><trkpt lat="44.72159269979256" lon="12.074448395996992"><ele>-1.0</ele><time>2026-04-11T09:09:15.036Z</time></trkpt><trkpt lat="44.72153827898497" lon="12.074831216363753"><ele>-0.5</ele><time>2026-04-11T09:09:16.036Z</time></trkpt><trkpt lat="44.72150119749285" lon="12.075211034714185"><ele>0.0</ele><time>2026-04-11T09:09:17.036Z</time></trkpt><trkpt lat="44.72146655397785" lon="12.075583120344834"><ele>-0.5</ele><time>2026-04-11T09:09:18.036Z</time></trkpt><trkpt lat="44.72143296410241" lon="12.075951753055762"><ele>-1.0</ele><time>2026-04-11T09:09:19.036Z</time></trkpt><trkpt lat="44.721400160450855" lon="12.076321961554896"><ele>-1.5</ele><time>2026-04-11T09:09:20.036Z</time></trkpt><trkpt lat="44.72136736928058" lon="12.076693068317532"><ele>-2.0</ele><time>2026-04-11T09:09:21.035Z</time></trkpt><trkpt lat="44.72132871857034" lon="12.077059966287527"><ele>-2.0</ele><time>2026-04-11T09:09:22.034Z</time></trkpt><trkpt lat="44.72128093709619" lon="12.077432243779727"><ele>-2.0</ele><time>2026-04-11T09:09:23.034Z</time></trkpt><trkpt lat="44.72123528009521" lon="12.077807446520902"><ele>-2.0</ele><time>2026-04-11T09:09:24.033Z</time></trkpt><trkpt lat="44.72118816359675" lon="12.078177761587904"><ele>-2.0</ele><time>2026-04-11T09:09:25.033Z</time></trkpt><trkpt lat="44.721151321208296" lon="12.0785538141257"><ele>-2.0</ele><time>2026-04-11T09:09:26.032Z</time></trkpt><trkpt lat="44.72111712366163" lon="12.07892841075766"><ele>-2.0</ele><time>2026-04-11T09:09:27.032Z</time></trkpt><trkpt lat="44.72107647047911" lon="12.079299947269211"><ele>-2.0</ele><time>2026-04-11T09:09:28.031Z</time></trkpt><trkpt lat="44.72103494500142" lon="12.079677783578175"><ele>-2.0</ele><time>2026-04-11T09:09:29.031Z</time></trkpt><trkpt lat="44.72098773335256" lon="12.080054678360334"><ele>-1.5</ele><time>2026-04-11T09:09:30.031Z</time></trkpt><trkpt lat="44.720930044248625" lon="12.080428452997298"><ele>-1.0</ele><time>2026-04-11T09:09:31.03Z</time></trkpt><trkpt lat="44.72086565114493" lon="12.080799931808313"><ele>-1.0</ele><time>2026-04-11T09:09:32.03Z</time></trkpt><trkpt lat="44.720797008707144" lon="12.081169088627936"><ele>-1.0</ele><time>2026-04-11T09:09:33.03Z</time></trkpt><trkpt lat="44.7207127943769" lon="12.081530360356245"><ele>-2.0</ele><time>2026-04-11T09:09:34.029Z</time></trkpt><trkpt lat="44.72062066592311" lon="12.081881280815285"><ele>-3.0</ele><time>2026-04-11T09:09:35.029Z</time></trkpt><trkpt lat="44.72051161329678" lon="12.08221636615085"><ele>-3.0</ele><time>2026-04-11T09:09:36.029Z</time></trkpt><trkpt lat="44.72038611261399" lon="12.082547529141014"><ele>-3.0</ele><time>2026-04-11T09:09:37.029Z</time></trkpt><trkpt lat="44.720251036953606" lon="12.082873998689536"><ele>-2.5</ele><time>2026-04-11T09:09:38.028Z</time></trkpt><trkpt lat="44.720111242918726" lon="12.083197653513672"><ele>-2.0</ele><time>2026-04-11T09:09:39.028Z</time></trkpt><trkpt lat="44.71996447451671" lon="12.08351832235827"><ele>-2.0</ele><time>2026-04-11T09:09:40.028Z</time></trkpt><trkpt lat="44.71980714673384" lon="12.083831605175915"><ele>-2.0</ele><time>2026-04-11T09:09:41.028Z</time></trkpt><trkpt lat="44.719630444624634" lon="12.084144486308176"><ele>-2.0</ele><time>2026-04-11T09:09:42.028Z</time></trkpt><trkpt lat="44.719459404483345" lon="12.084455742855631"><ele>-2.0</ele><time>2026-04-11T09:09:43.027Z</time></trkpt><trkpt lat="44.71928028245708" lon="12.084756827410997"><ele>-2.0</ele><time>2026-04-11T09:09:44.027Z</time></trkpt><trkpt lat="44.71909513617162" lon="12.085054975870346"><ele>-2.0</ele><time>2026-04-11T09:09:45.027Z</time></trkpt><trkpt lat="44.71890821962591" lon="12.085362050235485"><ele>-2.0</ele><time>2026-04-11T09:09:46.027Z</time></trkpt><trkpt lat="44.71870772367544" lon="12.085667646349442"><ele>-2.0</ele><time>2026-04-11T09:09:47.027Z</time></trkpt><trkpt lat="44.718508730880195" lon="12.085966816966549"><ele>-1.5</ele><time>2026-04-11T09:09:48.027Z</time></trkpt><trkpt lat="44.718309416724615" lon="12.086267275138237"><ele>-1.0</ele><time>2026-04-11T09:09:49.027Z</time></trkpt><trkpt lat="44.718102126759725" lon="12.086562677483396"><ele>-1.0</ele><time>2026-04-11T09:09:50.026Z</time></trkpt><trkpt lat="44.71789385814452" lon="12.086857627344694"><ele>-1.0</ele><time>2026-04-11T09:09:51.026Z</time></trkpt><trkpt lat="44.71768098813194" lon="12.087146349655809"><ele>-1.0</ele><time>2026-04-11T09:09:52.026Z</time></trkpt><trkpt lat="44.717461806643804" lon="12.087426624327424"><ele>-1.0</ele><time>2026-04-11T09:09:53.026Z</time></trkpt><trkpt lat="44.717241973219174" lon="12.0876964224158"><ele>-1.0</ele><time>2026-04-11T09:09:54.026Z</time></trkpt><trkpt lat="44.717020074953275" lon="12.087957079179052"><ele>-1.0</ele><time>2026-04-11T09:09:55.026Z</time></trkpt><trkpt lat="44.71678952569509" lon="12.088213052243281"><ele>-1.0</ele><time>2026-04-11T09:09:56.026Z</time></trkpt><trkpt lat="44.71656161033525" lon="12.088462953436316"><ele>-1.0</ele><time>2026-04-11T09:09:57.026Z</time></trkpt><trkpt lat="44.71632922319497" lon="12.088704355721484"><ele>-1.0</ele><time>2026-04-11T09:09:58.026Z</time></trkpt><trkpt lat="44.71609629137542" lon="12.088931812894854"><ele>-1.0</ele><time>2026-04-11T09:09:59.026Z</time></trkpt><trkpt lat="44.71586062758049" lon="12.089142922435476"><ele>-2.0</ele><time>2026-04-11T09:10:00.026Z</time></trkpt><trkpt lat="44.715614618349974" lon="12.08932347123753"><ele>-3.0</ele><time>2026-04-11T09:10:01.026Z</time></trkpt><trkpt lat="44.715360684842445" lon="12.08948800630807"><ele>-2.5</ele><time>2026-04-11T09:10:02.026Z</time></trkpt><trkpt lat="44.71511206912726" lon="12.089651360456832"><ele>-2.0</ele><time>2026-04-11T09:10:03.026Z</time></trkpt><trkpt lat="44.7148575840979" lon="12.08980912641512"><ele>-1.5</ele><time>2026-04-11T09:10:04.026Z</time></trkpt><trkpt lat="44.71460363698468" lon="12.089968007969121"><ele>-1.0</ele><time>2026-04-11T09:10:05.026Z</time></trkpt><trkpt lat="44.71434593290334" lon="12.090128160819763"><ele>-1.0</ele><time>2026-04-11T09:10:06.025Z</time></trkpt><trkpt lat="44.7140991751595" lon="12.09029529529274"><ele>-1.0</ele><time>2026-04-11T09:10:07.026Z</time></trkpt><trkpt lat="44.71384678829476" lon="12.090448855087134"><ele>-1.0</ele><time>2026-04-11T09:10:08.026Z</time></trkpt><trkpt lat="44.71359599024245" lon="12.090599455085592"><ele>-1.0</ele><time>2026-04-11T09:10:09.026Z</time></trkpt><trkpt lat="44.713341825899455" lon="12.09075892350926"><ele>-1.5</ele><time>2026-04-11T09:10:10.026Z</time></trkpt><trkpt lat="44.71308303956223" lon="12.090917384771366"><ele>-2.0</ele><time>2026-04-11T09:10:11.027Z</time></trkpt><trkpt lat="44.71282979162008" lon="12.091081014599084"><ele>-2.0</ele><time>2026-04-11T09:10:12.027Z</time></trkpt><trkpt lat="44.712566746578254" lon="12.091244766338612"><ele>-2.0</ele><time>2026-04-11T09:10:13.026Z</time></trkpt><trkpt lat="44.71230399657264" lon="12.091414497244608"><ele>-2.0</ele><time>2026-04-11T09:10:14.026Z</time></trkpt><trkpt lat="44.71204270215958" lon="12.09159060917035"><ele>-2.0</ele><time>2026-04-11T09:10:15.026Z</time></trkpt><trkpt lat="44.71177573390129" lon="12.091759503821594"><ele>-2.0</ele><time>2026-04-11T09:10:16.027Z</time></trkpt><trkpt lat="44.71151105429321" lon="12.091931066189748"><ele>-2.0</ele><time>2026-04-11T09:10:17.026Z</time></trkpt><trkpt lat="44.71124266360606" lon="12.092099053400265"><ele>-2.0</ele><time>2026-04-11T09:10:18.026Z</time></trkpt><trkpt lat="44.71097489183325" lon="12.092269518932099"><ele>-2.0</ele><time>2026-04-11T09:10:19.026Z</time></trkpt><trkpt lat="44.710707715733015" lon="12.092438574727849"><ele>-2.0</ele><time>2026-04-11T09:10:20.026Z</time></trkpt><trkpt lat="44.7104386393128" lon="12.092609085710638"><ele>-2.0</ele><time>2026-04-11T09:10:21.026Z</time></trkpt><trkpt lat="44.710154040275526" lon="12.092743291493887"><ele>-2.0</ele><time>2026-04-11T09:10:22.026Z</time></trkpt><trkpt lat="44.70988064586415" lon="12.092919046215778"><ele>-2.0</ele><time>2026-04-11T09:10:23.026Z</time></trkpt><trkpt lat="44.7096052997403" lon="12.093096055615048"><ele>-1.0</ele><time>2026-04-11T09:10:24.026Z</time></trkpt><trkpt lat="44.70932728060083" lon="12.09327478339718"><ele>0.0</ele><time>2026-04-11T09:10:25.026Z</time></trkpt><trkpt lat="44.70905397642804" lon="12.093450480107746"><ele>0.0</ele><time>2026-04-11T09:10:26.026Z</time></trkpt><trkpt lat="44.708780940743026" lon="12.093626004216139"><ele>0.0</ele><time>2026-04-11T09:10:27.026Z</time></trkpt><trkpt lat="44.70850355042584" lon="12.09380432775533"><ele>0.0</ele><time>2026-04-11T09:10:28.026Z</time></trkpt><trkpt lat="44.708223044189644" lon="12.0939835471971"><ele>0.0</ele><time>2026-04-11T09:10:29.026Z</time></trkpt><trkpt lat="44.707935399928054" lon="12.094167284521959"><ele>0.0</ele><time>2026-04-11T09:10:30.026Z</time></trkpt><trkpt lat="44.70764663338443" lon="12.094352628570428"><ele>0.0</ele><time>2026-04-11T09:10:31.026Z</time></trkpt><trkpt lat="44.70736343788473" lon="12.094532632452164"><ele>0.0</ele><time>2026-04-11T09:10:32.026Z</time></trkpt><trkpt lat="44.70707944586453" lon="12.094714561853442"><ele>0.0</ele><time>2026-04-11T09:10:33.026Z</time></trkpt><trkpt lat="44.70679670768542" lon="12.094894791528143"><ele>-1.0</ele><time>2026-04-11T09:10:34.026Z</time></trkpt><trkpt lat="44.70651186616902" lon="12.095076463389615"><ele>-2.0</ele><time>2026-04-11T09:10:35.026Z</time></trkpt><trkpt lat="44.7062292580223" lon="12.095256710807165"><ele>-1.5</ele><time>2026-04-11T09:10:36.026Z</time></trkpt><trkpt lat="44.705944628237546" lon="12.095438247620736"><ele>-1.0</ele><time>2026-04-11T09:10:37.026Z</time></trkpt><trkpt lat="44.70566187843593" lon="12.095618585389616"><ele>-1.0</ele><time>2026-04-11T09:10:38.026Z</time></trkpt><trkpt lat="44.705380449838316" lon="12.095798080488818"><ele>-1.0</ele><time>2026-04-11T09:10:39.026Z</time></trkpt><trkpt lat="44.70509223338367" lon="12.095981939142607"><ele>-1.0</ele><time>2026-04-11T09:10:40.026Z</time></trkpt><trkpt lat="44.70480402140647" lon="12.096165873415279"><ele>-1.0</ele><time>2026-04-11T09:10:41.026Z</time></trkpt><trkpt lat="44.70451447192458" lon="12.096350810506056"><ele>-1.0</ele><time>2026-04-11T09:10:42.026Z</time></trkpt><trkpt lat="44.70422588952946" lon="12.096536491715664"><ele>-1.0</ele><time>2026-04-11T09:10:43.026Z</time></trkpt><trkpt lat="44.70394162440625" lon="12.096719395082495"><ele>-1.0</ele><time>2026-04-11T09:10:44.026Z</time></trkpt><trkpt lat="44.703660876275265" lon="12.096898893958485"><ele>-1.0</ele><time>2026-04-11T09:10:45.026Z</time></trkpt><trkpt lat="44.70338976094004" lon="12.097069345304494"><ele>-1.0</ele><time>2026-04-11T09:10:46.026Z</time></trkpt><trkpt lat="44.70313675110049" lon="12.097228413646855"><ele>-1.0</ele><time>2026-04-11T09:10:47.026Z</time></trkpt><trkpt lat="44.702893490256564" lon="12.0973813527616"><ele>-1.5</ele><time>2026-04-11T09:10:48.026Z</time></trkpt><trkpt lat="44.70264782105449" lon="12.097536662450327"><ele>-2.0</ele><time>2026-04-11T09:10:49.026Z</time></trkpt><trkpt lat="44.702410862935444" lon="12.097687302439446"><ele>-2.0</ele><time>2026-04-11T09:10:50.026Z</time></trkpt><trkpt lat="44.70220411588809" lon="12.097849901979805"><ele>-2.0</ele><time>2026-04-11T09:10:51.026Z</time></trkpt><trkpt lat="44.702036281910004" lon="12.09807306535603"><ele>-2.0</ele><time>2026-04-11T09:10:52.026Z</time></trkpt><trkpt lat="44.70186099988166" lon="12.098305095807174"><ele>-2.0</ele><time>2026-04-11T09:10:53.026Z</time></trkpt><trkpt lat="44.701692453622265" lon="12.098577930103204"><ele>-2.0</ele><time>2026-04-11T09:10:54.026Z</time></trkpt><trkpt lat="44.701514494579584" lon="12.09886602586008"><ele>-2.0</ele><time>2026-04-11T09:10:55.026Z</time></trkpt><trkpt lat="44.70132779933137" lon="12.099168264606732"><ele>-2.5</ele><time>2026-04-11T09:10:56.026Z</time></trkpt><trkpt lat="44.701134226690435" lon="12.099481637043597"><ele>-3.0</ele><time>2026-04-11T09:10:57.026Z</time></trkpt><trkpt lat="44.70093495598463" lon="12.099812563969627"><ele>-3.0</ele><time>2026-04-11T09:10:58.026Z</time></trkpt><trkpt lat="44.700728912004124" lon="12.100148382131767"><ele>-3.0</ele><time>2026-04-11T09:10:59.026Z</time></trkpt><trkpt lat="44.70052210840909" lon="12.100486540017554"><ele>-3.0</ele><time>2026-04-11T09:11:00.026Z</time></trkpt><trkpt lat="44.70031562861623" lon="12.100824694011871"><ele>-3.0</ele><time>2026-04-11T09:11:01.026Z</time></trkpt><trkpt lat="44.70010953250905" lon="12.101155023893599"><ele>-3.0</ele><time>2026-04-11T09:11:02.026Z</time></trkpt><trkpt lat="44.69991475319749" lon="12.101465144927268"><ele>-3.0</ele><time>2026-04-11T09:11:03.026Z</time></trkpt><trkpt lat="44.69972003360804" lon="12.101764690797365"><ele>-3.0</ele><time>2026-04-11T09:11:04.026Z</time></trkpt><trkpt lat="44.6995424662811" lon="12.10205801182558"><ele>-3.0</ele><time>2026-04-11T09:11:05.026Z</time></trkpt><trkpt lat="44.69937252894326" lon="12.102338709668757"><ele>-2.5</ele><time>2026-04-11T09:11:06.026Z</time></trkpt><trkpt lat="44.69920788200468" lon="12.102615719716376"><ele>-2.0</ele><time>2026-04-11T09:11:07.026Z</time></trkpt><trkpt lat="44.69904081165105" lon="12.102894950339403"><ele>-2.0</ele><time>2026-04-11T09:11:08.026Z</time></trkpt><trkpt lat="44.69888735758535" lon="12.103145980428154"><ele>-2.0</ele><time>2026-04-11T09:11:09.026Z</time></trkpt><trkpt lat="44.698745252757945" lon="12.103389915687758"><ele>-2.0</ele><time>2026-04-11T09:11:10.026Z</time></trkpt><trkpt lat="44.698604260179536" lon="12.103613633047347"><ele>-2.0</ele><time>2026-04-11T09:11:11.026Z</time></trkpt><trkpt lat="44.69847027803287" lon="12.103838850443843"><ele>-2.0</ele><time>2026-04-11T09:11:12.026Z</time></trkpt><trkpt lat="44.69835486350501" lon="12.104077038607441"><ele>-1.0</ele><time>2026-04-11T09:11:13.026Z</time></trkpt><trkpt lat="44.69825783998935" lon="12.104320035838644"><ele>0.0</ele><time>2026-04-11T09:11:14.026Z</time></trkpt><trkpt lat="44.69819681836402" lon="12.10458142572323"><ele>1.0</ele><time>2026-04-11T09:11:15.026Z</time></trkpt><trkpt lat="44.6981698922476" lon="12.1048648607801"><ele>0.5</ele><time>2026-04-11T09:11:16.026Z</time></trkpt><trkpt lat="44.69818530684015" lon="12.105201240913859"><ele>0.0</ele><time>2026-04-11T09:11:17.026Z</time></trkpt><trkpt lat="44.69820473474422" lon="12.105547903505755"><ele>0.5</ele><time>2026-04-11T09:11:18.026Z</time></trkpt><trkpt lat="44.69822367807392" lon="12.105918662195409"><ele>1.0</ele><time>2026-04-11T09:11:19.026Z</time></trkpt><trkpt lat="44.69825399081256" lon="12.106313726190672"><ele>1.0</ele><time>2026-04-11T09:11:20.026Z</time></trkpt><trkpt lat="44.698271497212836" lon="12.106711469474279"><ele>1.0</ele><time>2026-04-11T09:11:21.026Z</time></trkpt><trkpt lat="44.69828886700214" lon="12.10709724337681"><ele>0.0</ele><time>2026-04-11T09:11:22.026Z</time></trkpt><trkpt lat="44.698304221508316" lon="12.10743451488596"><ele>-1.0</ele><time>2026-04-11T09:11:23.026Z</time></trkpt><trkpt lat="44.69831405173154" lon="12.10777096219748"><ele>-1.0</ele><time>2026-04-11T09:11:24.026Z</time></trkpt><trkpt lat="44.698315214629574" lon="12.108085574625463"><ele>-1.0</ele><time>2026-04-11T09:11:25.026Z</time></trkpt><trkpt lat="44.69833084466444" lon="12.108372265610848"><ele>-1.0</ele><time>2026-04-11T09:11:26.026Z</time></trkpt><trkpt lat="44.69833313132906" lon="12.108645689441714"><ele>-1.25</ele><time>2026-04-11T09:11:27.026Z</time></trkpt><trkpt lat="44.69834087393634" lon="12.108873489185275"><ele>-1.5</ele><time>2026-04-11T09:11:28.026Z</time></trkpt><trkpt lat="44.69832804946962" lon="12.10907429141735"><ele>-1.75</ele><time>2026-04-11T09:11:29.026Z</time></trkpt><trkpt lat="44.698311480773626" lon="12.109245521270083"><ele>-2.0</ele><time>2026-04-11T09:11:30.026Z</time></trkpt><trkpt lat="44.698277477208975" lon="12.10938268127658"><ele>-2.2</ele><time>2026-04-11T09:11:31.026Z</time></trkpt><trkpt lat="44.698232758641836" lon="12.109477195692197"><ele>-2.4000000000000004</ele><time>2026-04-11T09:11:32.026Z</time></trkpt><trkpt lat="44.6981506401696" lon="12.109618201349665"><ele>-2.5999999999999996</ele><time>2026-04-11T09:11:34.026Z</time></trkpt><trkpt lat="44.69811748673976" lon="12.109717236948358"><ele>-2.8</ele><time>2026-04-11T09:11:35.026Z</time></trkpt><trkpt lat="44.69810977784708" lon="12.109842811755646"><ele>-3.0</ele><time>2026-04-11T09:11:36.026Z</time></trkpt><trkpt lat="44.69812596236955" lon="12.10998308067658"><ele>-3.0</ele><time>2026-04-11T09:11:37.026Z</time></trkpt><trkpt lat="44.69812796792818" lon="12.110145388339806"><ele>-3.0</ele><time>2026-04-11T09:11:38.026Z</time></trkpt><trkpt lat="44.698102124136796" lon="12.110315307469751"><ele>-3.0</ele><time>2026-04-11T09:11:39.026Z</time></trkpt><trkpt lat="44.698016679874705" lon="12.110479268992728"><ele>-3.0</ele><time>2026-04-11T09:11:40.026Z</time></trkpt><trkpt lat="44.697920745312416" lon="12.110651509442015"><ele>-3.333333333333333</ele><time>2026-04-11T09:11:41.026Z</time></trkpt><trkpt lat="44.69781708621143" lon="12.110836913551974"><ele>-3.6666666666666665</ele><time>2026-04-11T09:11:42.026Z</time></trkpt><trkpt lat="44.69770302012057" lon="12.111042645071912"><ele>-4.0</ele><time>2026-04-11T09:11:43.026Z</time></trkpt><trkpt lat="44.69758141285644" lon="12.11126197952477"><ele>-3.6666666666666665</ele><time>2026-04-11T09:11:44.026Z</time></trkpt><trkpt lat="44.69745764630255" lon="12.111485206813102"><ele>-3.333333333333333</ele><time>2026-04-11T09:11:45.026Z</time></trkpt><trkpt lat="44.69733114322674" lon="12.111712958188894"><ele>-3.0</ele><time>2026-04-11T09:11:46.026Z</time></trkpt><trkpt lat="44.69719968987684" lon="12.111948287671185"><ele>-3.0</ele><time>2026-04-11T09:11:47.026Z</time></trkpt><trkpt lat="44.69707874319597" lon="12.112166416434647"><ele>-3.0</ele><time>2026-04-11T09:11:48.026Z</time></trkpt><trkpt lat="44.69697457167934" lon="12.112373485831952"><ele>-3.0</ele><time>2026-04-11T09:11:49.026Z</time></trkpt><trkpt lat="44.69688612448596" lon="12.11258590016464"><ele>-1.6666666666666667</ele><time>2026-04-11T09:11:50.026Z</time></trkpt><trkpt lat="44.69683387892284" lon="12.112833847752885"><ele>-0.33333333333333337</ele><time>2026-04-11T09:11:51.026Z</time></trkpt><trkpt lat="44.69678501481222" lon="12.113087820822273"><ele>1.0</ele><time>2026-04-11T09:11:52.026Z</time></trkpt><trkpt lat="44.6967832933082" lon="12.11337832417049"><ele>1.3333333333333333</ele><time>2026-04-11T09:11:53.026Z</time></trkpt><trkpt lat="44.69682128798167" lon="12.113673155680223"><ele>1.6666666666666665</ele><time>2026-04-11T09:11:54.026Z</time></trkpt><trkpt lat="44.69689168533169" lon="12.113962956155563"><ele>2.0</ele><time>2026-04-11T09:11:55.026Z</time></trkpt><trkpt lat="44.69698463765954" lon="12.114267562486027"><ele>0.0</ele><time>2026-04-11T09:11:56.026Z</time></trkpt><trkpt lat="44.69708399816683" lon="12.114586273058773"><ele>-2.0</ele><time>2026-04-11T09:11:57.026Z</time></trkpt><trkpt lat="44.69718714900272" lon="12.114917141480296"><ele>-2.0</ele><time>2026-04-11T09:11:58.026Z</time></trkpt><trkpt lat="44.6972927697444" lon="12.115256145689873"><ele>-2.0</ele><time>2026-04-11T09:11:59.026Z</time></trkpt><trkpt lat="44.697414197988586" lon="12.115592234770293"><ele>-1.5</ele><time>2026-04-11T09:12:00.026Z</time></trkpt><trkpt lat="44.69750642745166" lon="12.115945049219638"><ele>-1.0</ele><time>2026-04-11T09:12:01.026Z</time></trkpt><trkpt lat="44.697603716502286" lon="12.116260991761772"><ele>-1.0</ele><time>2026-04-11T09:12:02.025Z</time></trkpt><trkpt lat="44.69769740289661" lon="12.116566423560567"><ele>-1.0</ele><time>2026-04-11T09:12:03.025Z</time></trkpt><trkpt lat="44.69779661506851" lon="12.116852142147511"><ele>-1.5</ele><time>2026-04-11T09:12:04.025Z</time></trkpt><trkpt lat="44.69785484679344" lon="12.117161834114386"><ele>-2.0</ele><time>2026-04-11T09:12:05.025Z</time></trkpt><trkpt lat="44.69790732839211" lon="12.117470675403881"><ele>-2.0</ele><time>2026-04-11T09:12:06.025Z</time></trkpt><trkpt lat="44.6979498868438" lon="12.117806694294167"><ele>-2.0</ele><time>2026-04-11T09:12:07.025Z</time></trkpt><trkpt lat="44.69798842572755" lon="12.118148827318736"><ele>-2.0</ele><time>2026-04-11T09:12:08.025Z</time></trkpt><trkpt lat="44.69802826991014" lon="12.118501259650474"><ele>-2.0</ele><time>2026-04-11T09:12:09.025Z</time></trkpt><trkpt lat="44.69806851621755" lon="12.118857248859014"><ele>-2.0</ele><time>2026-04-11T09:12:10.025Z</time></trkpt><trkpt lat="44.69810959049775" lon="12.119219379791936"><ele>-2.0</ele><time>2026-04-11T09:12:11.025Z</time></trkpt><trkpt lat="44.698152048729916" lon="12.119588909365294"><ele>-1.5</ele><time>2026-04-11T09:12:12.025Z</time></trkpt><trkpt lat="44.698194154532615" lon="12.119965407624175"><ele>-1.0</ele><time>2026-04-11T09:12:13.028Z</time></trkpt><trkpt lat="44.69823557742568" lon="12.120328191046745"><ele>-1.0</ele><time>2026-04-11T09:12:14.027Z</time></trkpt><trkpt lat="44.69827534673304" lon="12.120690495035028"><ele>-1.0</ele><time>2026-04-11T09:12:15.027Z</time></trkpt><trkpt lat="44.69831551431372" lon="12.121056427336814"><ele>-1.0</ele><time>2026-04-11T09:12:16.027Z</time></trkpt><trkpt lat="44.698354674673666" lon="12.121420949400363"><ele>-1.0</ele><time>2026-04-11T09:12:17.027Z</time></trkpt><trkpt lat="44.69839626893663" lon="12.121784565261352"><ele>-1.0</ele><time>2026-04-11T09:12:18.027Z</time></trkpt><trkpt lat="44.69843425580526" lon="12.122125587671288"><ele>-1.0</ele><time>2026-04-11T09:12:19.028Z</time></trkpt><trkpt lat="44.69847099550945" lon="12.122452395620066"><ele>-1.5</ele><time>2026-04-11T09:12:20.027Z</time></trkpt><trkpt lat="44.69850563247352" lon="12.122777225593106"><ele>-2.0</ele><time>2026-04-11T09:12:21.027Z</time></trkpt><trkpt lat="44.69854015376788" lon="12.123096523880358"><ele>-2.5</ele><time>2026-04-11T09:12:22.028Z</time></trkpt><trkpt lat="44.69857952169609" lon="12.123416569977206"><ele>-3.0</ele><time>2026-04-11T09:12:23.028Z</time></trkpt><trkpt lat="44.69863774525447" lon="12.123723460226389"><ele>-2.6666666666666665</ele><time>2026-04-11T09:12:24.028Z</time></trkpt><trkpt lat="44.69872462489164" lon="12.123994688195426"><ele>-2.333333333333333</ele><time>2026-04-11T09:12:25.027Z</time></trkpt><trkpt lat="44.69883157297703" lon="12.124256961124741"><ele>-2.0</ele><time>2026-04-11T09:12:26.027Z</time></trkpt><trkpt lat="44.69896720268304" lon="12.12451343624611"><ele>-2.0</ele><time>2026-04-11T09:12:27.027Z</time></trkpt><trkpt lat="44.69912510701039" lon="12.124772477967436"><ele>-2.0</ele><time>2026-04-11T09:12:28.027Z</time></trkpt><trkpt lat="44.69929982339578" lon="12.125039931472797"><ele>-2.5</ele><time>2026-04-11T09:12:29.027Z</time></trkpt><trkpt lat="44.69948708537269" lon="12.125309929509577"><ele>-3.0</ele><time>2026-04-11T09:12:30.027Z</time></trkpt><trkpt lat="44.69967239771268" lon="12.125587815145261"><ele>-2.5</ele><time>2026-04-11T09:12:31.027Z</time></trkpt><trkpt lat="44.69984444534774" lon="12.125850099940074"><ele>-2.0</ele><time>2026-04-11T09:12:32.027Z</time></trkpt><trkpt lat="44.699996466957316" lon="12.126091495949956"><ele>-2.0</ele><time>2026-04-11T09:12:33.027Z</time></trkpt><trkpt lat="44.70013648769098" lon="12.126291460837566"><ele>-2.0</ele><time>2026-04-11T09:12:34.027Z</time></trkpt><trkpt lat="44.7002779012832" lon="12.126479042915054"><ele>-2.0</ele><time>2026-04-11T09:12:35.027Z</time></trkpt><trkpt lat="44.700372261374646" lon="12.126716245570554"><ele>-2.6666666666666665</ele><time>2026-04-11T09:12:36.027Z</time></trkpt><trkpt lat="44.7004558472166" lon="12.12695610916801"><ele>-3.333333333333333</ele><time>2026-04-11T09:12:37.027Z</time></trkpt><trkpt lat="44.70050226052936" lon="12.127193538947191"><ele>-4.0</ele><time>2026-04-11T09:12:38.027Z</time></trkpt><trkpt lat="44.70051451783036" lon="12.12743221939788"><ele>-4.0</ele><time>2026-04-11T09:12:39.027Z</time></trkpt><trkpt lat="44.70048590324164" lon="12.127678774474825"><ele>-4.0</ele><time>2026-04-11T09:12:40.027Z</time></trkpt><trkpt lat="44.700461670564756" lon="12.127954078433504"><ele>-4.0</ele><time>2026-04-11T09:12:41.027Z</time></trkpt><trkpt lat="44.700428307662754" lon="12.128253123936133"><ele>-3.0</ele><time>2026-04-11T09:12:42.027Z</time></trkpt><trkpt lat="44.70038425248063" lon="12.128572806483323"><ele>-2.0</ele><time>2026-04-11T09:12:43.027Z</time></trkpt><trkpt lat="44.7003510934881" lon="12.12890400608576"><ele>-2.5</ele><time>2026-04-11T09:12:44.027Z</time></trkpt><trkpt lat="44.70032097824758" lon="12.12923402344053"><ele>-3.0</ele><time>2026-04-11T09:12:45.027Z</time></trkpt><trkpt lat="44.70027710924059" lon="12.129566805593788"><ele>-2.5</ele><time>2026-04-11T09:12:46.027Z</time></trkpt><trkpt lat="44.70022917364958" lon="12.129922142019185"><ele>-2.0</ele><time>2026-04-11T09:12:47.027Z</time></trkpt><trkpt lat="44.70018181852619" lon="12.130274625244672"><ele>-2.0</ele><time>2026-04-11T09:12:48.027Z</time></trkpt><trkpt lat="44.700129806587704" lon="12.130621277204375"><ele>-2.0</ele><time>2026-04-11T09:12:49.027Z</time></trkpt><trkpt lat="44.700083949032724" lon="12.130950739040172"><ele>-2.0</ele><time>2026-04-11T09:12:50.027Z</time></trkpt><trkpt lat="44.70003953406365" lon="12.131280710835567"><ele>-2.0</ele><time>2026-04-11T09:12:51.027Z</time></trkpt><trkpt lat="44.69998949439815" lon="12.131623517380424"><ele>-2.0</ele><time>2026-04-11T09:12:52.027Z</time></trkpt><trkpt lat="44.69994394830894" lon="12.13196259732219"><ele>-2.0</ele><time>2026-04-11T09:12:53.027Z</time></trkpt><trkpt lat="44.69989469570877" lon="12.132305814465147"><ele>-1.5</ele><time>2026-04-11T09:12:54.027Z</time></trkpt><trkpt lat="44.699852349047305" lon="12.132631092464312"><ele>-1.0</ele><time>2026-04-11T09:12:55.027Z</time></trkpt><trkpt lat="44.69981389404928" lon="12.132944764386759"><ele>-0.6666666666666666</ele><time>2026-04-11T09:12:56.027Z</time></trkpt><trkpt lat="44.69977098710088" lon="12.133237602924938"><ele>-0.3333333333333333</ele><time>2026-04-11T09:12:57.027Z</time></trkpt><trkpt lat="44.69973325771497" lon="12.133547009476592"><ele>0.0</ele><time>2026-04-11T09:12:58.027Z</time></trkpt><trkpt lat="44.69970637972346" lon="12.133862084285283"><ele>-0.5</ele><time>2026-04-11T09:12:59.027Z</time></trkpt><trkpt lat="44.69970796085663" lon="12.134167220933294"><ele>-1.0</ele><time>2026-04-11T09:13:00.027Z</time></trkpt><trkpt lat="44.69974487382418" lon="12.134495932845722"><ele>-1.0</ele><time>2026-04-11T09:13:01.027Z</time></trkpt><trkpt lat="44.69980259491091" lon="12.13483166750725"><ele>-1.0</ele><time>2026-04-11T09:13:02.027Z</time></trkpt><trkpt lat="44.699857954754584" lon="12.135176230623594"><ele>-1.0</ele><time>2026-04-11T09:13:03.027Z</time></trkpt><trkpt lat="44.699915091608624" lon="12.135522953919525"><ele>-1.0</ele><time>2026-04-11T09:13:04.027Z</time></trkpt><trkpt lat="44.69995145670445" lon="12.135871067703361"><ele>-1.0</ele><time>2026-04-11T09:13:05.027Z</time></trkpt><trkpt lat="44.69996548202584" lon="12.136220092391538"><ele>-1.0</ele><time>2026-04-11T09:13:06.027Z</time></trkpt><trkpt lat="44.699971869806134" lon="12.136560881640705"><ele>-2.0</ele><time>2026-04-11T09:13:07.027Z</time></trkpt><trkpt lat="44.69996180883846" lon="12.136901048711836"><ele>-3.0</ele><time>2026-04-11T09:13:08.027Z</time></trkpt><trkpt lat="44.69993642363968" lon="12.137246114189182"><ele>-2.5</ele><time>2026-04-11T09:13:09.027Z</time></trkpt><trkpt lat="44.69990783429764" lon="12.137598356675191"><ele>-2.0</ele><time>2026-04-11T09:13:10.027Z</time></trkpt><trkpt lat="44.6998883537291" lon="12.137937497453835"><ele>-2.0</ele><time>2026-04-11T09:13:11.027Z</time></trkpt><trkpt lat="44.69987505689784" lon="12.138257271595958"><ele>-2.0</ele><time>2026-04-11T09:13:12.027Z</time></trkpt><trkpt lat="44.69986357366003" lon="12.138565015512139"><ele>-2.0</ele><time>2026-04-11T09:13:13.027Z</time></trkpt><trkpt lat="44.69987094503828" lon="12.13885506795954"><ele>-2.0</ele><time>2026-04-11T09:13:14.027Z</time></trkpt><trkpt lat="44.69989331196446" lon="12.139143403410417"><ele>-2.0</ele><time>2026-04-11T09:13:15.027Z</time></trkpt><trkpt lat="44.69993777921489" lon="12.139412482618937"><ele>-2.0</ele><time>2026-04-11T09:13:16.027Z</time></trkpt><trkpt lat="44.70000528087007" lon="12.139676786936992"><ele>-2.0</ele><time>2026-04-11T09:13:17.027Z</time></trkpt><trkpt lat="44.700111642855106" lon="12.139922324664273"><ele>-2.0</ele><time>2026-04-11T09:13:18.027Z</time></trkpt><trkpt lat="44.7002444222519" lon="12.14015504953125"><ele>-2.0</ele><time>2026-04-11T09:13:19.027Z</time></trkpt><trkpt lat="44.70040811665111" lon="12.140377823868246"><ele>-2.5</ele><time>2026-04-11T09:13:20.027Z</time></trkpt><trkpt lat="44.7005649725386" lon="12.14061000571079"><ele>-3.0</ele><time>2026-04-11T09:13:21.027Z</time></trkpt><trkpt lat="44.700719392731045" lon="12.140851478613053"><ele>-3.0</ele><time>2026-04-11T09:13:22.027Z</time></trkpt><trkpt lat="44.70086150876991" lon="12.14109459270333"><ele>-3.0</ele><time>2026-04-11T09:13:23.027Z</time></trkpt><trkpt lat="44.700993295306525" lon="12.141346455538434"><ele>-3.0</ele><time>2026-04-11T09:13:24.027Z</time></trkpt><trkpt lat="44.70110823820577" lon="12.141621165394879"><ele>-3.0</ele><time>2026-04-11T09:13:25.027Z</time></trkpt><trkpt lat="44.70124325607765" lon="12.141876052469872"><ele>-3.0</ele><time>2026-04-11T09:13:26.027Z</time></trkpt><trkpt lat="44.70134261779012" lon="12.142158930502847"><ele>-3.0</ele><time>2026-04-11T09:13:27.027Z</time></trkpt><trkpt lat="44.70143320069424" lon="12.142445943145345"><ele>-3.0</ele><time>2026-04-11T09:13:28.027Z</time></trkpt><trkpt lat="44.70151105729567" lon="12.1427334638054"><ele>-3.0</ele><time>2026-04-11T09:13:29.027Z</time></trkpt><trkpt lat="44.70157340063002" lon="12.143008699800498"><ele>-3.0</ele><time>2026-04-11T09:13:30.027Z</time></trkpt><trkpt lat="44.70162984360604" lon="12.143266256104578"><ele>-3.0</ele><time>2026-04-11T09:13:31.027Z</time></trkpt><trkpt lat="44.701674420959584" lon="12.143505237256383"><ele>-3.0</ele><time>2026-04-11T09:13:32.027Z</time></trkpt><trkpt lat="44.70169819526442" lon="12.14374444170338"><ele>-3.0</ele><time>2026-04-11T09:13:33.027Z</time></trkpt><trkpt lat="44.70170214551529" lon="12.143999004880381"><ele>-3.0</ele><time>2026-04-11T09:13:34.027Z</time></trkpt><trkpt lat="44.70168518319369" lon="12.144285436864537"><ele>-3.0</ele><time>2026-04-11T09:13:35.027Z</time></trkpt><trkpt lat="44.70165284837709" lon="12.144567319166875"><ele>-3.666666666666667</ele><time>2026-04-11T09:13:36.027Z</time></trkpt><trkpt lat="44.701615219842665" lon="12.14485593830796"><ele>-4.333333333333334</ele><time>2026-04-11T09:13:37.027Z</time></trkpt><trkpt lat="44.70156352973744" lon="12.145146950682859"><ele>-5.0</ele><time>2026-04-11T09:13:38.027Z</time></trkpt><trkpt lat="44.701495235823245" lon="12.145445039169928"><ele>-4.666666666666667</ele><time>2026-04-11T09:13:39.027Z</time></trkpt><trkpt lat="44.701420618240924" lon="12.14573350845352"><ele>-4.333333333333333</ele><time>2026-04-11T09:13:40.027Z</time></trkpt><trkpt lat="44.701331696160295" lon="12.146027659086531"><ele>-4.0</ele><time>2026-04-11T09:13:41.027Z</time></trkpt><trkpt lat="44.70125497162603" lon="12.146323283437809"><ele>-4.0</ele><time>2026-04-11T09:13:42.027Z</time></trkpt><trkpt lat="44.70118218287756" lon="12.146624843013715"><ele>-4.0</ele><time>2026-04-11T09:13:43.027Z</time></trkpt><trkpt lat="44.701134847710264" lon="12.146937799314651"><ele>-4.0</ele><time>2026-04-11T09:13:44.027Z</time></trkpt><trkpt lat="44.701106461714396" lon="12.147292383467288"><ele>-4.0</ele><time>2026-04-11T09:13:45.027Z</time></trkpt><trkpt lat="44.701114693528595" lon="12.147642867990506"><ele>-4.0</ele><time>2026-04-11T09:13:46.027Z</time></trkpt><trkpt lat="44.70110979087958" lon="12.147993109263394"><ele>-4.0</ele><time>2026-04-11T09:13:47.027Z</time></trkpt><trkpt lat="44.70110647127587" lon="12.148321909484542"><ele>-4.0</ele><time>2026-04-11T09:13:48.027Z</time></trkpt><trkpt lat="44.70110992638719" lon="12.148652275381151"><ele>-4.0</ele><time>2026-04-11T09:13:49.027Z</time></trkpt><trkpt lat="44.70109750818092" lon="12.148968526436203"><ele>-3.333333333333333</ele><time>2026-04-11T09:13:50.027Z</time></trkpt><trkpt lat="44.70106024053279" lon="12.149275838835122"><ele>-2.6666666666666665</ele><time>2026-04-11T09:13:51.027Z</time></trkpt><trkpt lat="44.701005748519" lon="12.149558420796893"><ele>-2.0</ele><time>2026-04-11T09:13:52.027Z</time></trkpt><trkpt lat="44.70094474609973" lon="12.149832976704488"><ele>-2.0</ele><time>2026-04-11T09:13:53.027Z</time></trkpt><trkpt lat="44.700887533050675" lon="12.150099372482783"><ele>-2.0</ele><time>2026-04-11T09:13:54.027Z</time></trkpt><trkpt lat="44.700846106480576" lon="12.150367938917185"><ele>-2.0</ele><time>2026-04-11T09:13:55.027Z</time></trkpt><trkpt lat="44.70081951631584" lon="12.150644755877245"><ele>-2.333333333333333</ele><time>2026-04-11T09:13:56.027Z</time></trkpt><trkpt lat="44.7007974782198" lon="12.150924418930543"><ele>-2.6666666666666665</ele><time>2026-04-11T09:13:57.027Z</time></trkpt><trkpt lat="44.700781779545956" lon="12.151200438663238"><ele>-3.0</ele><time>2026-04-11T09:13:58.027Z</time></trkpt><trkpt lat="44.700767100297476" lon="12.151470501348415"><ele>-3.333333333333333</ele><time>2026-04-11T09:13:59.027Z</time></trkpt><trkpt lat="44.700715534226624" lon="12.151747339207539"><ele>-3.6666666666666665</ele><time>2026-04-11T09:14:00.027Z</time></trkpt><trkpt lat="44.70067866252753" lon="12.152042400615867"><ele>-4.0</ele><time>2026-04-11T09:14:01.027Z</time></trkpt><trkpt lat="44.700625414209284" lon="12.152314887385096"><ele>-3.6666666666666665</ele><time>2026-04-11T09:14:02.027Z</time></trkpt><trkpt lat="44.70058167707987" lon="12.152592393031998"><ele>-3.333333333333333</ele><time>2026-04-11T09:14:03.027Z</time></trkpt><trkpt lat="44.700534018531485" lon="12.152857260305796"><ele>-3.0</ele><time>2026-04-11T09:14:04.027Z</time></trkpt><trkpt lat="44.70048535666394" lon="12.153117798125573"><ele>-2.6666666666666665</ele><time>2026-04-11T09:14:05.027Z</time></trkpt><trkpt lat="44.70043697661118" lon="12.153386080886351"><ele>-2.333333333333333</ele><time>2026-04-11T09:14:06.027Z</time></trkpt><trkpt lat="44.700390979588306" lon="12.15365936302566"><ele>-2.0</ele><time>2026-04-11T09:14:07.027Z</time></trkpt><trkpt lat="44.7003440287118" lon="12.153946046077397"><ele>-2.5</ele><time>2026-04-11T09:14:08.027Z</time></trkpt><trkpt lat="44.70028324700322" lon="12.154243745503745"><ele>-3.0</ele><time>2026-04-11T09:14:09.027Z</time></trkpt><trkpt lat="44.70021956145147" lon="12.154556589511857"><ele>-2.0</ele><time>2026-04-11T09:14:10.027Z</time></trkpt><trkpt lat="44.70011411569853" lon="12.154866440227154"><ele>-1.0</ele><time>2026-04-11T09:14:11.027Z</time></trkpt><trkpt lat="44.69999886279466" lon="12.155198225154948"><ele>-1.0</ele><time>2026-04-11T09:14:12.027Z</time></trkpt><trkpt lat="44.69987609417194" lon="12.155542465959797"><ele>-1.0</ele><time>2026-04-11T09:14:13.027Z</time></trkpt><trkpt lat="44.69974613767188" lon="12.155900573210118"><ele>-1.5</ele><time>2026-04-11T09:14:14.027Z</time></trkpt><trkpt lat="44.69961661776869" lon="12.156257477076172"><ele>-2.0</ele><time>2026-04-11T09:14:15.027Z</time></trkpt><trkpt lat="44.699487824340444" lon="12.156612379758615"><ele>-1.0</ele><time>2026-04-11T09:14:16.027Z</time></trkpt><trkpt lat="44.69936026875186" lon="12.15696598637248"><ele>0.0</ele><time>2026-04-11T09:14:17.027Z</time></trkpt><trkpt lat="44.69923408482419" lon="12.15731619285509"><ele>0.0</ele><time>2026-04-11T09:14:18.027Z</time></trkpt><trkpt lat="44.69910991954314" lon="12.157660798422103"><ele>0.0</ele><time>2026-04-11T09:14:19.028Z</time></trkpt><trkpt lat="44.6989870169685" lon="12.157999571392434"><ele>-1.0</ele><time>2026-04-11T09:14:20.028Z</time></trkpt><trkpt lat="44.69886404675336" lon="12.158337876072496"><ele>-2.0</ele><time>2026-04-11T09:14:21.028Z</time></trkpt><trkpt lat="44.698744581976676" lon="12.158666536965294"><ele>-2.0</ele><time>2026-04-11T09:14:22.029Z</time></trkpt><trkpt lat="44.698624360846146" lon="12.158997443202159"><ele>-2.0</ele><time>2026-04-11T09:14:23.029Z</time></trkpt><trkpt lat="44.69850973224075" lon="12.159314993916249"><ele>-2.0</ele><time>2026-04-11T09:14:24.029Z</time></trkpt><trkpt lat="44.69839915549754" lon="12.15962131998769"><ele>-2.0</ele><time>2026-04-11T09:14:25.028Z</time></trkpt><trkpt lat="44.6982926161004" lon="12.159923464186244"><ele>-2.0</ele><time>2026-04-11T09:14:26.029Z</time></trkpt><trkpt lat="44.698222746172576" lon="12.16021995660176"><ele>-2.0</ele><time>2026-04-11T09:14:27.029Z</time></trkpt><trkpt lat="44.69817661924195" lon="12.160497827918718"><ele>-2.0</ele><time>2026-04-11T09:14:28.029Z</time></trkpt><trkpt lat="44.69814014797295" lon="12.160763903857772"><ele>-2.0</ele><time>2026-04-11T09:14:29.028Z</time></trkpt><trkpt lat="44.698163592716234" lon="12.161056953730116"><ele>-2.0</ele><time>2026-04-11T09:14:30.028Z</time></trkpt><trkpt lat="44.69820465388154" lon="12.161367183874246"><ele>-2.0</ele><time>2026-04-11T09:14:31.028Z</time></trkpt><trkpt lat="44.69824047670805" lon="12.161719263108445"><ele>-2.0</ele><time>2026-04-11T09:14:32.029Z</time></trkpt><trkpt lat="44.69829482184538" lon="12.162077430247423"><ele>-2.0</ele><time>2026-04-11T09:14:33.029Z</time></trkpt><trkpt lat="44.69835059049242" lon="12.162446855002278"><ele>-2.5</ele><time>2026-04-11T09:14:34.029Z</time></trkpt><trkpt lat="44.6984067456654" lon="12.162819131003575"><ele>-3.0</ele><time>2026-04-11T09:14:35.029Z</time></trkpt><trkpt lat="44.69846108855457" lon="12.163179461864418"><ele>-2.5</ele><time>2026-04-11T09:14:36.029Z</time></trkpt><trkpt lat="44.6985139251831" lon="12.163529805473086"><ele>-2.0</ele><time>2026-04-11T09:14:37.029Z</time></trkpt><trkpt lat="44.6985638635317" lon="12.163860931239663"><ele>-2.0</ele><time>2026-04-11T09:14:38.029Z</time></trkpt><trkpt lat="44.69861386625416" lon="12.164192483899823"><ele>-2.0</ele><time>2026-04-11T09:14:39.029Z</time></trkpt><trkpt lat="44.698662446659064" lon="12.164514605615144"><ele>-2.0</ele><time>2026-04-11T09:14:40.029Z</time></trkpt><trkpt lat="44.69870975234818" lon="12.16482827509256"><ele>-2.0</ele><time>2026-04-11T09:14:41.029Z</time></trkpt><trkpt lat="44.698754270859325" lon="12.16512331378599"><ele>-2.0</ele><time>2026-04-11T09:14:42.029Z</time></trkpt><trkpt lat="44.698795493653506" lon="12.165398840611568"><ele>-1.3333333333333333</ele><time>2026-04-11T09:14:43.029Z</time></trkpt><trkpt lat="44.69883261180601" lon="12.16566751215981"><ele>-0.6666666666666666</ele><time>2026-04-11T09:14:44.029Z</time></trkpt><trkpt lat="44.69886766375635" lon="12.16592122794976"><ele>0.0</ele><time>2026-04-11T09:14:45.029Z</time></trkpt><trkpt lat="44.69889996060949" lon="12.166155001491074"><ele>0.3333333333333333</ele><time>2026-04-11T09:14:46.029Z</time></trkpt><trkpt lat="44.69893005048954" lon="12.166372800531876"><ele>0.6666666666666666</ele><time>2026-04-11T09:14:47.029Z</time></trkpt><trkpt lat="44.698958556882516" lon="12.16657913755129"><ele>1.0</ele><time>2026-04-11T09:14:48.029Z</time></trkpt><trkpt lat="44.69898871852547" lon="12.166797455955967"><ele>1.0</ele><time>2026-04-11T09:14:49.029Z</time></trkpt><trkpt lat="44.69901806221413" lon="12.167009853693335"><ele>1.0</ele><time>2026-04-11T09:14:50.029Z</time></trkpt><trkpt lat="44.69904574492355" lon="12.167208247240673"><ele>1.0</ele><time>2026-04-11T09:14:51.029Z</time></trkpt><trkpt lat="44.69907470675513" lon="12.167417459684733"><ele>1.0</ele><time>2026-04-11T09:14:52.029Z</time></trkpt><trkpt lat="44.69910019613861" lon="12.167603117170986"><ele>1.0</ele><time>2026-04-11T09:14:53.029Z</time></trkpt><trkpt lat="44.699128601042325" lon="12.167810216739044"><ele>1.0</ele><time>2026-04-11T09:14:54.029Z</time></trkpt><trkpt lat="44.69915764893197" lon="12.168022003151238"><ele>1.0</ele><time>2026-04-11T09:14:55.029Z</time></trkpt><trkpt lat="44.69922590839897" lon="12.168231530643794"><ele>1.0</ele><time>2026-04-11T09:14:56.029Z</time></trkpt><trkpt lat="44.69925361222566" lon="12.168441728091409"><ele>1.0</ele><time>2026-04-11T09:14:57.029Z</time></trkpt><trkpt lat="44.69927300281238" lon="12.168643563682018"><ele>1.0</ele><time>2026-04-11T09:14:58.029Z</time></trkpt><trkpt lat="44.69928416848641" lon="12.168850619173117"><ele>1.0</ele><time>2026-04-11T09:14:59.029Z</time></trkpt><trkpt lat="44.69924029024035" lon="12.169035148788112"><ele>1.0</ele><time>2026-04-11T09:15:00.029Z</time></trkpt><trkpt lat="44.69922937025199" lon="12.169219710675803"><ele>1.0</ele><time>2026-04-11T09:15:01.029Z</time></trkpt><trkpt lat="44.69920972618137" lon="12.169400628575675"><ele>1.0</ele><time>2026-04-11T09:15:02.029Z</time></trkpt><trkpt lat="44.69918445357481" lon="12.169578739119194"><ele>1.0</ele><time>2026-04-11T09:15:03.029Z</time></trkpt><trkpt lat="44.699150506576494" lon="12.169743226430938"><ele>1.0</ele><time>2026-04-11T09:15:04.029Z</time></trkpt><trkpt lat="44.699107482671835" lon="12.169907956402193"><ele>1.0</ele><time>2026-04-11T09:15:05.029Z</time></trkpt><trkpt lat="44.699059785286856" lon="12.170069407124423"><ele>1.0</ele><time>2026-04-11T09:15:06.029Z</time></trkpt><trkpt lat="44.69901062869834" lon="12.170221342069983"><ele>1.0</ele><time>2026-04-11T09:15:07.029Z</time></trkpt><trkpt lat="44.69895772046764" lon="12.170373599897523"><ele>1.0</ele><time>2026-04-11T09:15:08.029Z</time></trkpt><trkpt lat="44.698906513363006" lon="12.170516747579654"><ele>1.0</ele><time>2026-04-11T09:15:09.029Z</time></trkpt><trkpt lat="44.69885554020245" lon="12.170660163646657"><ele>1.0</ele><time>2026-04-11T09:15:10.029Z</time></trkpt><trkpt lat="44.69880616673683" lon="12.170799485357248"><ele>1.0</ele><time>2026-04-11T09:15:11.029Z</time></trkpt><trkpt lat="44.69875421461278" lon="12.170945452371637"><ele>0.75</ele><time>2026-04-11T09:15:12.029Z</time></trkpt><trkpt lat="44.69870047607442" lon="12.171097098731806"><ele>0.5</ele><time>2026-04-11T09:15:13.029Z</time></trkpt><trkpt lat="44.69864159688875" lon="12.171263790468032"><ele>0.25</ele><time>2026-04-11T09:15:14.029Z</time></trkpt><trkpt lat="44.69857848878913" lon="12.171442454616097"><ele>0.0</ele><time>2026-04-11T09:15:15.029Z</time></trkpt><trkpt lat="44.69851496501879" lon="12.17162229543471"><ele>-0.25</ele><time>2026-04-11T09:15:16.029Z</time></trkpt><trkpt lat="44.698452960316" lon="12.171797835864568"><ele>-0.5</ele><time>2026-04-11T09:15:17.029Z</time></trkpt><trkpt lat="44.698395281456385" lon="12.171960848034061"><ele>-0.75</ele><time>2026-04-11T09:15:18.029Z</time></trkpt><trkpt lat="44.69833893834949" lon="12.17211998333956"><ele>-1.0</ele><time>2026-04-11T09:15:19.029Z</time></trkpt><trkpt lat="44.69828575014717" lon="12.172269966650337"><ele>-1.0</ele><time>2026-04-11T09:15:20.029Z</time></trkpt><trkpt lat="44.69823338378723" lon="12.172417319417171"><ele>-1.0</ele><time>2026-04-11T09:15:21.029Z</time></trkpt><trkpt lat="44.69818111941833" lon="12.172564384988567"><ele>-1.0</ele><time>2026-04-11T09:15:22.029Z</time></trkpt><trkpt lat="44.69813939537142" lon="12.17272997746888"><ele>-1.0</ele><time>2026-04-11T09:15:23.029Z</time></trkpt><trkpt lat="44.6980831017981" lon="12.172883225685494"><ele>-1.0</ele><time>2026-04-11T09:15:24.029Z</time></trkpt><trkpt lat="44.698009251359586" lon="12.17303617525115"><ele>-1.0</ele><time>2026-04-11T09:15:25.029Z</time></trkpt><trkpt lat="44.697941606546024" lon="12.173207524448046"><ele>-1.0</ele><time>2026-04-11T09:15:26.029Z</time></trkpt><trkpt lat="44.69785898170789" lon="12.173396361373365"><ele>-1.0</ele><time>2026-04-11T09:15:27.029Z</time></trkpt><trkpt lat="44.69776119706505" lon="12.173619420194868"><ele>-1.0</ele><time>2026-04-11T09:15:28.029Z</time></trkpt><trkpt lat="44.697634746944914" lon="12.173818297826994"><ele>-1.0</ele><time>2026-04-11T09:15:29.029Z</time></trkpt><trkpt lat="44.69752501627492" lon="12.173997217732087"><ele>-1.0</ele><time>2026-04-11T09:15:30.029Z</time></trkpt><trkpt lat="44.69742318453373" lon="12.174165058394657"><ele>-0.75</ele><time>2026-04-11T09:15:31.029Z</time></trkpt><trkpt lat="44.69732441028781" lon="12.174325895874196"><ele>-0.5</ele><time>2026-04-11T09:15:32.029Z</time></trkpt><trkpt lat="44.69723149407971" lon="12.174479076331302"><ele>-0.25</ele><time>2026-04-11T09:15:33.029Z</time></trkpt><trkpt lat="44.697134799786504" lon="12.174648167166572"><ele>0.0</ele><time>2026-04-11T09:15:34.029Z</time></trkpt><trkpt lat="44.69704027528934" lon="12.174811147064007"><ele>0.0</ele><time>2026-04-11T09:15:35.029Z</time></trkpt><trkpt lat="44.696944904047506" lon="12.174971413051866"><ele>0.0</ele><time>2026-04-11T09:15:36.028Z</time></trkpt><trkpt lat="44.69684550245958" lon="12.175129229922458"><ele>0.0</ele><time>2026-04-11T09:15:37.028Z</time></trkpt><trkpt lat="44.69675022203981" lon="12.175280242005655"><ele>0.0</ele><time>2026-04-11T09:15:38.028Z</time></trkpt><trkpt lat="44.696658516569734" lon="12.175429501878758"><ele>0.0</ele><time>2026-04-11T09:15:39.028Z</time></trkpt><trkpt lat="44.696580251795154" lon="12.175571001381737"><ele>0.0</ele><time>2026-04-11T09:15:40.028Z</time></trkpt><trkpt lat="44.69649245006026" lon="12.175682937344776"><ele>0.0</ele><time>2026-04-11T09:15:41.028Z</time></trkpt><trkpt lat="44.69641612659615" lon="12.175806796743752"><ele>0.0</ele><time>2026-04-11T09:15:42.028Z</time></trkpt><trkpt lat="44.69635671818602" lon="12.17593865290071"><ele>0.0</ele><time>2026-04-11T09:15:43.028Z</time></trkpt><trkpt lat="44.69628480345192" lon="12.176054483809153"><ele>0.0</ele><time>2026-04-11T09:15:44.028Z</time></trkpt><trkpt lat="44.6961949789965" lon="12.176166455677137"><ele>0.0</ele><time>2026-04-11T09:15:45.028Z</time></trkpt><trkpt lat="44.69610856462016" lon="12.176306689207566"><ele>0.0</ele><time>2026-04-11T09:15:46.028Z</time></trkpt><trkpt lat="44.69602121326884" lon="12.176449772861357"><ele>0.0</ele><time>2026-04-11T09:15:47.028Z</time></trkpt><trkpt lat="44.69593821216941" lon="12.176585730663268"><ele>0.0</ele><time>2026-04-11T09:15:48.028Z</time></trkpt><trkpt lat="44.695856453689736" lon="12.176723052308459"><ele>0.0</ele><time>2026-04-11T09:15:49.028Z</time></trkpt><trkpt lat="44.695777643724014" lon="12.176845992078745"><ele>0.0</ele><time>2026-04-11T09:15:50.028Z</time></trkpt><trkpt lat="44.695696122103996" lon="12.176969732167878"><ele>0.0</ele><time>2026-04-11T09:15:51.028Z</time></trkpt><trkpt lat="44.69561369279042" lon="12.177104364588496"><ele>0.0</ele><time>2026-04-11T09:15:52.028Z</time></trkpt><trkpt lat="44.69553006415166" lon="12.177243514772837"><ele>0.0</ele><time>2026-04-11T09:15:53.028Z</time></trkpt><trkpt lat="44.69544929187668" lon="12.177385452502106"><ele>0.0</ele><time>2026-04-11T09:15:54.028Z</time></trkpt><trkpt lat="44.695366805128074" lon="12.177531451493055"><ele>0.0</ele><time>2026-04-11T09:15:55.028Z</time></trkpt><trkpt lat="44.69528524564147" lon="12.17766665851653"><ele>0.0</ele><time>2026-04-11T09:15:56.028Z</time></trkpt><trkpt lat="44.695199600507195" lon="12.177801387106419"><ele>0.0</ele><time>2026-04-11T09:15:57.028Z</time></trkpt><trkpt lat="44.69511128776624" lon="12.177925751084073"><ele>0.0</ele><time>2026-04-11T09:15:58.028Z</time></trkpt><trkpt lat="44.69504066968172" lon="12.17805782959763"><ele>0.25</ele><time>2026-04-11T09:15:59.028Z</time></trkpt><trkpt lat="44.69496396241537" lon="12.178198684117858"><ele>0.5</ele><time>2026-04-11T09:16:00.028Z</time></trkpt><trkpt lat="44.694885446348195" lon="12.178334997362029"><ele>0.75</ele><time>2026-04-11T09:16:01.028Z</time></trkpt><trkpt lat="44.69480964699235" lon="12.178464422478717"><ele>1.0</ele><time>2026-04-11T09:16:02.028Z</time></trkpt><trkpt lat="44.69470918491931" lon="12.178581461306027"><ele>1.0</ele><time>2026-04-11T09:16:03.028Z</time></trkpt><trkpt lat="44.69463253579334" lon="12.17870129750407"><ele>1.0</ele><time>2026-04-11T09:16:04.028Z</time></trkpt><trkpt lat="44.69456059193317" lon="12.178809941265891"><ele>1.0</ele><time>2026-04-11T09:16:05.028Z</time></trkpt><trkpt lat="44.69449447941787" lon="12.178908251780113"><ele>1.0</ele><time>2026-04-11T09:16:06.028Z</time></trkpt><trkpt lat="44.69444442537269" lon="12.178995778780827"><ele>1.0</ele><time>2026-04-11T09:16:07.028Z</time></trkpt><trkpt lat="44.694402404887846" lon="12.17906988194197"><ele>1.0</ele><time>2026-04-11T09:16:08.028Z</time></trkpt><trkpt lat="44.69432800937271" lon="12.179198065246291"><ele>1.0</ele><time>2026-04-11T09:16:10.028Z</time></trkpt><trkpt lat="44.694213498853514" lon="12.179269858560588"><ele>1.0</ele><time>2026-04-11T09:16:12.028Z</time></trkpt><trkpt lat="44.69412705410792" lon="12.179311869546735"><ele>1.0</ele><time>2026-04-11T09:16:13.028Z</time></trkpt><trkpt lat="44.69404116902381" lon="12.17937755895174"><ele>1.0</ele><time>2026-04-11T09:16:14.028Z</time></trkpt><trkpt lat="44.69396031866588" lon="12.179468104117564"><ele>1.0</ele><time>2026-04-11T09:16:15.028Z</time></trkpt><trkpt lat="44.69388152308661" lon="12.179554358434338"><ele>1.0</ele><time>2026-04-11T09:16:16.028Z</time></trkpt><trkpt lat="44.69379394883075" lon="12.179507626223593"><ele>1.0</ele><time>2026-04-11T09:16:17.028Z</time></trkpt><trkpt lat="44.69366874966897" lon="12.179523813137129"><ele>1.0</ele><time>2026-04-11T09:16:19.028Z</time></trkpt><trkpt lat="44.69360254243695" lon="12.179521453643451"><ele>1.0</ele><time>2026-04-11T09:16:20.028Z</time></trkpt><trkpt lat="44.69352064251976" lon="12.179513919556348"><ele>1.2000000000000002</ele><time>2026-04-11T09:16:21.028Z</time></trkpt><trkpt lat="44.69343325429669" lon="12.179519444631957"><ele>1.4000000000000001</ele><time>2026-04-11T09:16:22.028Z</time></trkpt><trkpt lat="44.69335138181102" lon="12.179487226078368"><ele>1.6</ele><time>2026-04-11T09:16:23.028Z</time></trkpt><trkpt lat="44.693281764997124" lon="12.179467155178694"><ele>1.8</ele><time>2026-04-11T09:16:24.028Z</time></trkpt><trkpt lat="44.693175524762175" lon="12.17940431578726"><ele>2.0</ele><time>2026-04-11T09:16:26.03Z</time></trkpt><trkpt lat="44.693072491103486" lon="12.179354815532516"><ele>1.9999999999999998</ele><time>2026-04-11T09:16:28.03Z</time></trkpt><trkpt lat="44.69295094327909" lon="12.179290842000338"><ele>2.0</ele><time>2026-04-11T09:16:30.03Z</time></trkpt><trkpt lat="44.69288333736992" lon="12.179257127034772"><ele>2.0</ele><time>2026-04-11T09:16:31.03Z</time></trkpt><trkpt lat="44.692813800401225" lon="12.179222449058733"><ele>2.0</ele><time>2026-04-11T09:16:32.03Z</time></trkpt><trkpt lat="44.69274487831573" lon="12.179188077886051"><ele>1.9999999999999998</ele><time>2026-04-11T09:16:33.03Z</time></trkpt><trkpt lat="44.69268120196817" lon="12.179156381754447"><ele>2.0</ele><time>2026-04-11T09:16:34.029Z</time></trkpt><trkpt lat="44.692595631069544" lon="12.179113772787407"><ele>1.6666666666666665</ele><time>2026-04-11T09:16:36.03Z</time></trkpt><trkpt lat="44.692504478873836" lon="12.179068782627223"><ele>1.3333333333333333</ele><time>2026-04-11T09:16:38.03Z</time></trkpt><trkpt lat="44.69242390245326" lon="12.179029037799728"><ele>1.0</ele><time>2026-04-11T09:16:41.03Z</time></trkpt><trkpt lat="44.69236365746789" lon="12.178999321720754"><ele>0.6666666666666666</ele><time>2026-04-11T09:16:43.03Z</time></trkpt><trkpt lat="44.69224927927618" lon="12.178942904272995"><ele>0.3333333333333333</ele><time>2026-04-11T09:16:45.03Z</time></trkpt><trkpt lat="44.6921762063171" lon="12.178906860529708"><ele>0.0</ele><time>2026-04-11T09:16:46.03Z</time></trkpt><trkpt lat="44.692098074367635" lon="12.17886832036436"><ele>0.0</ele><time>2026-04-11T09:16:47.03Z</time></trkpt><trkpt lat="44.69201808790116" lon="12.178827894060843"><ele>0.0</ele><time>2026-04-11T09:16:48.03Z</time></trkpt><trkpt lat="44.69192116150921" lon="12.178783251171655"><ele>0.0</ele><time>2026-04-11T09:16:49.03Z</time></trkpt><trkpt lat="44.69181601435845" lon="12.178742469650729"><ele>0.0</ele><time>2026-04-11T09:16:50.03Z</time></trkpt><trkpt lat="44.69169197923028" lon="12.178781185524642"><ele>0.0</ele><time>2026-04-11T09:16:51.03Z</time></trkpt><trkpt lat="44.69157504819058" lon="12.17879986999641"><ele>-0.4</ele><time>2026-04-11T09:16:52.03Z</time></trkpt><trkpt lat="44.691464346095884" lon="12.178836012258023"><ele>-0.8</ele><time>2026-04-11T09:16:53.03Z</time></trkpt><trkpt lat="44.69136707702161" lon="12.178882972913664"><ele>-1.2000000000000002</ele><time>2026-04-11T09:16:54.03Z</time></trkpt><trkpt lat="44.69125148950991" lon="12.178853856868283"><ele>-1.6</ele><time>2026-04-11T09:16:55.03Z</time></trkpt><trkpt lat="44.69117590840819" lon="12.17892534361859"><ele>-2.0</ele><time>2026-04-11T09:16:56.03Z</time></trkpt><trkpt lat="44.691102411959136" lon="12.179028902307127"><ele>-2.0</ele><time>2026-04-11T09:16:57.03Z</time></trkpt><trkpt lat="44.69104210365523" lon="12.17913782126611"><ele>-2.0</ele><time>2026-04-11T09:16:58.03Z</time></trkpt><trkpt lat="44.69099038230453" lon="12.179242733409003"><ele>-2.0</ele><time>2026-04-11T09:16:59.03Z</time></trkpt><trkpt lat="44.69094309908366" lon="12.179374195681438"><ele>-2.0</ele><time>2026-04-11T09:17:00.03Z</time></trkpt><trkpt lat="44.6909151699368" lon="12.179484913431489"><ele>-2.0</ele><time>2026-04-11T09:17:01.03Z</time></trkpt><trkpt lat="44.690897355056805" lon="12.179597079192273"><ele>-1.9999999999999998</ele><time>2026-04-11T09:17:02.03Z</time></trkpt><trkpt lat="44.690889480187394" lon="12.179709989996992"><ele>-2.0</ele><time>2026-04-11T09:17:03.03Z</time></trkpt><trkpt lat="44.690891426831236" lon="12.179823008869013"><ele>-2.0</ele><time>2026-04-11T09:17:04.03Z</time></trkpt><trkpt lat="44.69091699247247" lon="12.179932648876836"><ele>-2.0</ele><time>2026-04-11T09:17:05.03Z</time></trkpt><trkpt lat="44.690921816684494" lon="12.180057980550444"><ele>-1.9999999999999998</ele><time>2026-04-11T09:17:06.03Z</time></trkpt><trkpt lat="44.690954206614336" lon="12.180181835690112"><ele>-2.0</ele><time>2026-04-11T09:17:07.03Z</time></trkpt><trkpt lat="44.690990647372764" lon="12.180294398081815"><ele>-1.8333333333333333</ele><time>2026-04-11T09:17:08.03Z</time></trkpt><trkpt lat="44.69102743618108" lon="12.180402016166681"><ele>-1.6666666666666665</ele><time>2026-04-11T09:17:09.029Z</time></trkpt><trkpt lat="44.69106334774035" lon="12.180506123141377"><ele>-1.5</ele><time>2026-04-11T09:17:10.029Z</time></trkpt><trkpt lat="44.69109667035281" lon="12.180602724765622"><ele>-1.3333333333333333</ele><time>2026-04-11T09:17:11.029Z</time></trkpt><trkpt lat="44.69113431412618" lon="12.180711573411731"><ele>-1.1666666666666665</ele><time>2026-04-11T09:17:12.029Z</time></trkpt><trkpt lat="44.69117280152592" lon="12.180822167130533"><ele>-1.0</ele><time>2026-04-11T09:17:13.029Z</time></trkpt><trkpt lat="44.69120989146868" lon="12.180928745258223"><ele>-0.8333333333333333</ele><time>2026-04-11T09:17:14.029Z</time></trkpt><trkpt lat="44.69124715548768" lon="12.18103582354649"><ele>-0.6666666666666666</ele><time>2026-04-11T09:17:15.029Z</time></trkpt><trkpt lat="44.69131492439179" lon="12.181140534999756"><ele>-0.5</ele><time>2026-04-11T09:17:16.029Z</time></trkpt><trkpt lat="44.69135141348721" lon="12.181253537280362"><ele>-0.3333333333333333</ele><time>2026-04-11T09:17:17.029Z</time></trkpt><trkpt lat="44.69139328080238" lon="12.181358786861717"><ele>-0.16666666666666666</ele><time>2026-04-11T09:17:18.029Z</time></trkpt><trkpt lat="44.69143223737769" lon="12.181467187707906"><ele>0.0</ele><time>2026-04-11T09:17:19.029Z</time></trkpt><trkpt lat="44.69144015623356" lon="12.181593127687446"><ele>0.16666666666666666</ele><time>2026-04-11T09:17:20.029Z</time></trkpt><trkpt lat="44.69148209759017" lon="12.181708457306252"><ele>0.3333333333333333</ele><time>2026-04-11T09:17:21.029Z</time></trkpt><trkpt lat="44.691522891525715" lon="12.181821206477158"><ele>0.5</ele><time>2026-04-11T09:17:22.029Z</time></trkpt><trkpt lat="44.69156593831269" lon="12.181930878890332"><ele>0.6666666666666666</ele><time>2026-04-11T09:17:23.029Z</time></trkpt><trkpt lat="44.69160678252656" lon="12.18202559376177"><ele>0.8333333333333333</ele><time>2026-04-11T09:17:24.029Z</time></trkpt><trkpt lat="44.6916485412515" lon="12.182112649069131"><ele>1.0</ele><time>2026-04-11T09:17:25.029Z</time></trkpt><trkpt lat="44.69169891788479" lon="12.182180036507479"><ele>0.9999999999999999</ele><time>2026-04-11T09:17:26.029Z</time></trkpt><trkpt lat="44.69171362683827" lon="12.182267956179993"><ele>1.0</ele><time>2026-04-11T09:17:27.029Z</time></trkpt><trkpt lat="44.69173791683776" lon="12.18240569274386"><ele>1.0</ele><time>2026-04-11T09:17:29.029Z</time></trkpt><trkpt lat="44.691782257047656" lon="12.182485935898443"><ele>1.0</ele><time>2026-04-11T09:17:31.029Z</time></trkpt><trkpt lat="44.6918862170095" lon="12.182468008926948"><ele>0.9999999999999999</ele><time>2026-04-11T09:18:05.029Z</time></trkpt><trkpt lat="44.691872560689326" lon="12.18256497329244"><ele>1.0</ele><time>2026-04-11T09:18:33.031Z</time></trkpt><trkpt lat="44.6918815223071" lon="12.182658369881096"><ele>1.3333333333333333</ele><time>2026-04-11T09:18:51.031Z</time></trkpt><trkpt lat="44.69181175331613" lon="12.182640881696623"><ele>1.6666666666666665</ele><time>2026-04-11T09:19:54.031Z</time></trkpt><trkpt lat="44.691807755378356" lon="12.182542782468607"><ele>2.0</ele><time>2026-04-11T09:20:03.031Z</time></trkpt><trkpt lat="44.69173961294384" lon="12.182500061871123"><ele>2.3333333333333335</ele><time>2026-04-11T09:20:45.176Z</time></trkpt><trkpt lat="44.69168204651382" lon="12.182553818548088"><ele>2.6666666666666665</ele><time>2026-04-11T09:20:56.032Z</time></trkpt><trkpt lat="44.69180333744523" lon="12.182562569348361"><ele>3.0</ele><time>2026-04-11T09:25:09.034Z</time></trkpt><trkpt lat="44.691887148231594" lon="12.18255309474463"><ele>2.75</ele><time>2026-04-11T09:25:52.035Z</time></trkpt><trkpt lat="44.69193783032605" lon="12.182445836935061"><ele>2.5</ele><time>2026-04-11T09:26:50.035Z</time></trkpt><trkpt lat="44.69191935775768" lon="12.182261983131799"><ele>2.25</ele><time>2026-04-11T09:27:07.035Z</time></trkpt><trkpt lat="44.69193885210324" lon="12.182502679890321"><ele>2.0</ele><time>2026-04-11T09:28:35.037Z</time></trkpt><trkpt lat="44.691966112679395" lon="12.182589412697741"><ele>2.0</ele><time>2026-04-11T09:31:16.037Z</time></trkpt><trkpt lat="44.69202327176643" lon="12.18265753092973"><ele>2.0</ele><time>2026-04-11T09:31:20.037Z</time></trkpt><trkpt lat="44.69218117392307" lon="12.182858584946521"><ele>2.0</ele><time>2026-04-11T09:31:31.039Z</time></trkpt><trkpt lat="44.69224154761212" lon="12.182960699689202"><ele>2.0</ele><time>2026-04-11T09:31:32.039Z</time></trkpt><trkpt lat="44.69230245644858" lon="12.183060763071227"><ele>1.8</ele><time>2026-04-11T09:31:33.039Z</time></trkpt><trkpt lat="44.69236501483591" lon="12.183189881205951"><ele>1.6</ele><time>2026-04-11T09:31:34.039Z</time></trkpt><trkpt lat="44.692437633295775" lon="12.183301842198047"><ele>1.4000000000000001</ele><time>2026-04-11T09:31:35.039Z</time></trkpt><trkpt lat="44.69251113653637" lon="12.183420732493882"><ele>1.2000000000000002</ele><time>2026-04-11T09:31:36.039Z</time></trkpt><trkpt lat="44.69258432070851" lon="12.183533179718633"><ele>1.0</ele><time>2026-04-11T09:31:37.038Z</time></trkpt><trkpt lat="44.69265467247014" lon="12.183661445424523"><ele>1.0</ele><time>2026-04-11T09:31:38.039Z</time></trkpt><trkpt lat="44.692714321201784" lon="12.18376796667512"><ele>1.0</ele><time>2026-04-11T09:31:39.039Z</time></trkpt><trkpt lat="44.69276924923852" lon="12.183875114804495"><ele>1.0</ele><time>2026-04-11T09:31:40.039Z</time></trkpt><trkpt lat="44.69282276470171" lon="12.18397142489596"><ele>1.0</ele><time>2026-04-11T09:31:41.039Z</time></trkpt><trkpt lat="44.692864994095686" lon="12.184050579015581"><ele>1.0</ele><time>2026-04-11T09:31:42.039Z</time></trkpt><trkpt lat="44.69292557437614" lon="12.184202942769659"><ele>1.2000000000000002</ele><time>2026-04-11T09:31:44.039Z</time></trkpt><trkpt lat="44.692888593101216" lon="12.184308040017495"><ele>1.4000000000000001</ele><time>2026-04-11T09:31:45.039Z</time></trkpt><trkpt lat="44.692910539028524" lon="12.18446133842918"><ele>1.6</ele><time>2026-04-11T09:31:47.039Z</time></trkpt><trkpt lat="44.69289672823204" lon="12.184617910314392"><ele>1.8</ele><time>2026-04-11T09:31:49.039Z</time></trkpt><trkpt lat="44.69284841412103" lon="12.184705446519105"><ele>2.0</ele><time>2026-04-11T09:31:50.039Z</time></trkpt><trkpt lat="44.692791186957784" lon="12.184775380533996"><ele>1.75</ele><time>2026-04-11T09:31:51.039Z</time></trkpt><trkpt lat="44.692708158043416" lon="12.184862599879413"><ele>1.5</ele><time>2026-04-11T09:31:52.039Z</time></trkpt><trkpt lat="44.69258146199821" lon="12.184960783561289"><ele>1.25</ele><time>2026-04-11T09:31:53.039Z</time></trkpt><trkpt lat="44.692458640626946" lon="12.185058586694721"><ele>1.0</ele><time>2026-04-11T09:31:54.039Z</time></trkpt><trkpt lat="44.69233267923978" lon="12.185151339469117"><ele>1.0</ele><time>2026-04-11T09:31:55.039Z</time></trkpt><trkpt lat="44.69219002942918" lon="12.185261317837035"><ele>1.0</ele><time>2026-04-11T09:31:56.039Z</time></trkpt><trkpt lat="44.69204059890969" lon="12.185344427680855"><ele>1.0</ele><time>2026-04-11T09:31:57.039Z</time></trkpt><trkpt lat="44.69190225877651" lon="12.185461066312508"><ele>1.0</ele><time>2026-04-11T09:31:58.039Z</time></trkpt><trkpt lat="44.69174389824484" lon="12.185535086950754"><ele>1.0</ele><time>2026-04-11T09:31:59.039Z</time></trkpt><trkpt lat="44.691496014755515" lon="12.185749839510425"><ele>0.9999999999999999</ele><time>2026-04-11T09:32:01.039Z</time></trkpt><trkpt lat="44.691409407755586" lon="12.185847478441707"><ele>1.0</ele><time>2026-04-11T09:32:02.039Z</time></trkpt><trkpt lat="44.691359519989355" lon="12.185915731260657"><ele>1.0</ele><time>2026-04-11T09:32:03.039Z</time></trkpt><trkpt lat="44.69130968739121" lon="12.185996992265084"><ele>1.0</ele><time>2026-04-11T09:32:05.039Z</time></trkpt><trkpt lat="44.6912242449288" lon="12.186057642991889"><ele>0.9999999999999999</ele><time>2026-04-11T09:32:19.039Z</time></trkpt><trkpt lat="44.69116492549402" lon="12.186092138912175"><ele>1.0</ele><time>2026-04-11T09:32:20.039Z</time></trkpt><trkpt lat="44.69115171532867" lon="12.186334850177914"><ele>1.25</ele><time>2026-04-11T09:32:21.039Z</time></trkpt><trkpt lat="44.69107219881524" lon="12.186439956667614"><ele>1.5</ele><time>2026-04-11T09:32:22.039Z</time></trkpt><trkpt lat="44.69097439431116" lon="12.186570226954291"><ele>1.75</ele><time>2026-04-11T09:32:23.039Z</time></trkpt><trkpt lat="44.69088114874314" lon="12.186708379471046"><ele>2.0</ele><time>2026-04-11T09:32:24.039Z</time></trkpt><trkpt lat="44.69072583584399" lon="12.18678631986495"><ele>1.3333333333333333</ele><time>2026-04-11T09:32:25.039Z</time></trkpt><trkpt lat="44.69061356802105" lon="12.186952166945991"><ele>0.6666666666666666</ele><time>2026-04-11T09:32:26.039Z</time></trkpt><trkpt lat="44.69049893271055" lon="12.187122003627573"><ele>0.0</ele><time>2026-04-11T09:32:27.039Z</time></trkpt><trkpt lat="44.69037686356761" lon="12.187302853810317"><ele>-0.6666666666666666</ele><time>2026-04-11T09:32:28.039Z</time></trkpt><trkpt lat="44.69024962352252" lon="12.187490273204856"><ele>-1.3333333333333333</ele><time>2026-04-11T09:32:29.039Z</time></trkpt><trkpt lat="44.69012605650137" lon="12.187672195465243"><ele>-2.0</ele><time>2026-04-11T09:32:30.039Z</time></trkpt><trkpt lat="44.689992447805366" lon="12.187868263908618"><ele>-2.0</ele><time>2026-04-11T09:32:31.039Z</time></trkpt><trkpt lat="44.68984286139835" lon="12.188087747509792"><ele>-2.0</ele><time>2026-04-11T09:32:32.039Z</time></trkpt><trkpt lat="44.68969956202858" lon="12.188298006319823"><ele>-2.0</ele><time>2026-04-11T09:32:33.039Z</time></trkpt><trkpt lat="44.6895515407861" lon="12.188512908929638"><ele>-2.0</ele><time>2026-04-11T09:32:34.039Z</time></trkpt><trkpt lat="44.68940975885001" lon="12.188722679361655"><ele>-2.0</ele><time>2026-04-11T09:32:35.039Z</time></trkpt><trkpt lat="44.689275240810545" lon="12.188911117766942"><ele>-2.0</ele><time>2026-04-11T09:32:36.039Z</time></trkpt><trkpt lat="44.689151693676045" lon="12.189084840812816"><ele>-2.0</ele><time>2026-04-11T09:32:37.039Z</time></trkpt><trkpt lat="44.68903902354045" lon="12.189249899240684"><ele>-2.0</ele><time>2026-04-11T09:32:38.039Z</time></trkpt><trkpt lat="44.688930041079026" lon="12.189404860188343"><ele>-2.0</ele><time>2026-04-11T09:32:39.039Z</time></trkpt><trkpt lat="44.68881980515486" lon="12.189563742459887"><ele>-2.0</ele><time>2026-04-11T09:32:40.039Z</time></trkpt><trkpt lat="44.68870920941812" lon="12.189728558721312"><ele>-2.0</ele><time>2026-04-11T09:32:41.039Z</time></trkpt><trkpt lat="44.68859548769747" lon="12.189908749085925"><ele>-2.0</ele><time>2026-04-11T09:32:42.039Z</time></trkpt><trkpt lat="44.68847731142823" lon="12.190088545905779"><ele>-1.3333333333333333</ele><time>2026-04-11T09:32:43.039Z</time></trkpt><trkpt lat="44.688349152288936" lon="12.190275499766148"><ele>-0.6666666666666666</ele><time>2026-04-11T09:32:44.039Z</time></trkpt><trkpt lat="44.68822484754155" lon="12.190454144269179"><ele>0.0</ele><time>2026-04-11T09:32:45.039Z</time></trkpt><trkpt lat="44.688094307266894" lon="12.190643840041762"><ele>-0.6666666666666666</ele><time>2026-04-11T09:32:46.039Z</time></trkpt><trkpt lat="44.68796865130554" lon="12.190842002486296"><ele>-1.3333333333333333</ele><time>2026-04-11T09:32:47.039Z</time></trkpt><trkpt lat="44.68781843470959" lon="12.191032135639633"><ele>-2.0</ele><time>2026-04-11T09:32:48.039Z</time></trkpt><trkpt lat="44.68767148164555" lon="12.191245213743997"><ele>-2.0</ele><time>2026-04-11T09:32:49.039Z</time></trkpt><trkpt lat="44.68753259710074" lon="12.191477426315814"><ele>-2.0</ele><time>2026-04-11T09:32:50.039Z</time></trkpt><trkpt lat="44.68738282430705" lon="12.191687850542925"><ele>-2.0</ele><time>2026-04-11T09:32:51.039Z</time></trkpt><trkpt lat="44.68723874131329" lon="12.191891188010128"><ele>-2.0</ele><time>2026-04-11T09:32:52.039Z</time></trkpt><trkpt lat="44.687099288919036" lon="12.192096525926184"><ele>-2.0</ele><time>2026-04-11T09:32:53.039Z</time></trkpt><trkpt lat="44.686957430386265" lon="12.192288396885145"><ele>-2.0</ele><time>2026-04-11T09:32:54.039Z</time></trkpt><trkpt lat="44.68681932149159" lon="12.192487131721592"><ele>-2.333333333333333</ele><time>2026-04-11T09:32:55.039Z</time></trkpt><trkpt lat="44.686678963169506" lon="12.192696924817469"><ele>-2.6666666666666665</ele><time>2026-04-11T09:32:56.039Z</time></trkpt><trkpt lat="44.686540770788916" lon="12.192900675239665"><ele>-3.0</ele><time>2026-04-11T09:32:57.039Z</time></trkpt><trkpt lat="44.68640354676218" lon="12.19310753065641"><ele>-3.0</ele><time>2026-04-11T09:32:58.039Z</time></trkpt><trkpt lat="44.68626240520405" lon="12.193316901229482"><ele>-3.0</ele><time>2026-04-11T09:32:59.039Z</time></trkpt><trkpt lat="44.686124042331684" lon="12.193513723368863"><ele>-3.0</ele><time>2026-04-11T09:33:00.039Z</time></trkpt><trkpt lat="44.68599055285917" lon="12.193708726374936"><ele>-3.0</ele><time>2026-04-11T09:33:01.039Z</time></trkpt><trkpt lat="44.68586672961972" lon="12.193894704409622"><ele>-3.0</ele><time>2026-04-11T09:33:02.039Z</time></trkpt><trkpt lat="44.68575423158471" lon="12.194056459600274"><ele>-3.0</ele><time>2026-04-11T09:33:03.039Z</time></trkpt><trkpt lat="44.685632820422235" lon="12.194204880987584"><ele>-2.6666666666666665</ele><time>2026-04-11T09:33:04.039Z</time></trkpt><trkpt lat="44.685520616109734" lon="12.194367252438644"><ele>-2.333333333333333</ele><time>2026-04-11T09:33:05.039Z</time></trkpt><trkpt lat="44.6854150646268" lon="12.194519998395288"><ele>-2.0</ele><time>2026-04-11T09:33:06.039Z</time></trkpt><trkpt lat="44.68531315036932" lon="12.194667537299921"><ele>-2.0</ele><time>2026-04-11T09:33:07.039Z</time></trkpt><trkpt lat="44.68521873838127" lon="12.194804204647888"><ele>-2.0</ele><time>2026-04-11T09:33:08.039Z</time></trkpt><trkpt lat="44.685127971831946" lon="12.19493543241342"><ele>-2.0</ele><time>2026-04-11T09:33:09.039Z</time></trkpt><trkpt lat="44.68502976159051" lon="12.195077416662528"><ele>-2.0</ele><time>2026-04-11T09:33:10.039Z</time></trkpt><trkpt lat="44.68493227299288" lon="12.19521835769041"><ele>-1.5</ele><time>2026-04-11T09:33:11.039Z</time></trkpt><trkpt lat="44.68483805676333" lon="12.19535456779642"><ele>-1.0</ele><time>2026-04-11T09:33:12.039Z</time></trkpt><trkpt lat="44.684750577423344" lon="12.195481038229497"><ele>-0.5</ele><time>2026-04-11T09:33:13.039Z</time></trkpt><trkpt lat="44.684658586546945" lon="12.195613780894288"><ele>0.0</ele><time>2026-04-11T09:33:14.039Z</time></trkpt><trkpt lat="44.68456204472805" lon="12.19573735670466"><ele>0.0</ele><time>2026-04-11T09:33:15.039Z</time></trkpt><trkpt lat="44.68445677362284" lon="12.195846472909057"><ele>0.0</ele><time>2026-04-11T09:33:16.039Z</time></trkpt><trkpt lat="44.68434227980089" lon="12.195932384874432"><ele>0.0</ele><time>2026-04-11T09:33:17.039Z</time></trkpt><trkpt lat="44.68425866653187" lon="12.196116276228286"><ele>0.0</ele><time>2026-04-11T09:33:18.039Z</time></trkpt><trkpt lat="44.68416362649483" lon="12.196290734642284"><ele>-0.6666666666666666</ele><time>2026-04-11T09:33:19.039Z</time></trkpt><trkpt lat="44.68406919836302" lon="12.196476806744856"><ele>-1.3333333333333333</ele><time>2026-04-11T09:33:20.039Z</time></trkpt><trkpt lat="44.683975441796136" lon="12.196649174553913"><ele>-2.0</ele><time>2026-04-11T09:33:21.039Z</time></trkpt><trkpt lat="44.68385333435891" lon="12.19678422037149"><ele>-2.0</ele><time>2026-04-11T09:33:22.039Z</time></trkpt><trkpt lat="44.68374017187951" lon="12.196950626069453"><ele>-2.0</ele><time>2026-04-11T09:33:23.039Z</time></trkpt><trkpt lat="44.68362915831425" lon="12.197113871364195"><ele>-2.0</ele><time>2026-04-11T09:33:24.039Z</time></trkpt><trkpt lat="44.68351406773324" lon="12.197283112349655"><ele>-2.0</ele><time>2026-04-11T09:33:25.039Z</time></trkpt><trkpt lat="44.68340947587488" lon="12.19746467586385"><ele>-2.0</ele><time>2026-04-11T09:33:26.039Z</time></trkpt><trkpt lat="44.68330051121295" lon="12.197623939913736"><ele>-2.0</ele><time>2026-04-11T09:33:27.039Z</time></trkpt><trkpt lat="44.68319333358756" lon="12.197780581234372"><ele>-2.0</ele><time>2026-04-11T09:33:28.039Z</time></trkpt><trkpt lat="44.68307352077141" lon="12.19793093724568"><ele>-2.0</ele><time>2026-04-11T09:33:29.039Z</time></trkpt><trkpt lat="44.68294287367473" lon="12.198123054024661"><ele>-2.0</ele><time>2026-04-11T09:33:30.039Z</time></trkpt><trkpt lat="44.68278884459491" lon="12.198349554104027"><ele>-2.5</ele><time>2026-04-11T09:33:31.039Z</time></trkpt><trkpt lat="44.682629409695416" lon="12.198584003235018"><ele>-3.0</ele><time>2026-04-11T09:33:32.039Z</time></trkpt><trkpt lat="44.68246639614992" lon="12.19882246004177"><ele>-3.0</ele><time>2026-04-11T09:33:33.039Z</time></trkpt><trkpt lat="44.68231341161189" lon="12.199073535767662"><ele>-3.0</ele><time>2026-04-11T09:33:34.04Z</time></trkpt><trkpt lat="44.68215773803001" lon="12.199294967075254"><ele>-3.0</ele><time>2026-04-11T09:33:35.041Z</time></trkpt><trkpt lat="44.6820049939165" lon="12.199510799052671"><ele>-3.0</ele><time>2026-04-11T09:33:36.041Z</time></trkpt><trkpt lat="44.68184017654333" lon="12.199728655699433"><ele>-3.0</ele><time>2026-04-11T09:33:37.04Z</time></trkpt><trkpt lat="44.68168306940941" lon="12.199950132330832"><ele>-2.0</ele><time>2026-04-11T09:33:38.04Z</time></trkpt><trkpt lat="44.68150854431672" lon="12.200148736513547"><ele>-1.0</ele><time>2026-04-11T09:33:39.04Z</time></trkpt><trkpt lat="44.68131276667834" lon="12.20033339548691"><ele>-1.0</ele><time>2026-04-11T09:33:40.04Z</time></trkpt><trkpt lat="44.68111932498227" lon="12.200538656663612"><ele>-1.0</ele><time>2026-04-11T09:33:41.04Z</time></trkpt><trkpt lat="44.68090753815984" lon="12.200723292385767"><ele>-1.5</ele><time>2026-04-11T09:33:42.04Z</time></trkpt><trkpt lat="44.68070023218776" lon="12.200908117211121"><ele>-2.0</ele><time>2026-04-11T09:33:43.04Z</time></trkpt><trkpt lat="44.68048753789304" lon="12.201101760725106"><ele>-2.0</ele><time>2026-04-11T09:33:44.04Z</time></trkpt><trkpt lat="44.68027538765174" lon="12.201295611877091"><ele>-2.0</ele><time>2026-04-11T09:33:45.04Z</time></trkpt><trkpt lat="44.68006820875545" lon="12.201488486250502"><ele>-2.0</ele><time>2026-04-11T09:33:46.04Z</time></trkpt><trkpt lat="44.67986741759455" lon="12.201674667585586"><ele>-2.0</ele><time>2026-04-11T09:33:47.04Z</time></trkpt><trkpt lat="44.67966999527984" lon="12.201856703276606"><ele>-2.0</ele><time>2026-04-11T09:33:48.04Z</time></trkpt><trkpt lat="44.67947755159059" lon="12.202034010989053"><ele>-2.0</ele><time>2026-04-11T09:33:49.04Z</time></trkpt><trkpt lat="44.67929438499912" lon="12.202209283462725"><ele>-2.0</ele><time>2026-04-11T09:33:50.04Z</time></trkpt><trkpt lat="44.679122205363804" lon="12.202385211849636"><ele>-2.0</ele><time>2026-04-11T09:33:51.04Z</time></trkpt><trkpt lat="44.678963057487515" lon="12.202561263030963"><ele>-2.0</ele><time>2026-04-11T09:33:52.04Z</time></trkpt><trkpt lat="44.67881400148174" lon="12.202751136877364"><ele>-2.0</ele><time>2026-04-11T09:33:53.04Z</time></trkpt><trkpt lat="44.67867470596086" lon="12.202956767578927"><ele>-2.0</ele><time>2026-04-11T09:33:54.04Z</time></trkpt><trkpt lat="44.678545532292276" lon="12.203171580950876"><ele>-2.0</ele><time>2026-04-11T09:33:55.04Z</time></trkpt><trkpt lat="44.678422009516524" lon="12.20340184885643"><ele>-2.333333333333333</ele><time>2026-04-11T09:33:56.04Z</time></trkpt><trkpt lat="44.67830855174049" lon="12.203640064555337"><ele>-2.6666666666666665</ele><time>2026-04-11T09:33:57.04Z</time></trkpt><trkpt lat="44.67820623091215" lon="12.20387687238218"><ele>-3.0</ele><time>2026-04-11T09:33:58.04Z</time></trkpt><trkpt lat="44.6781125467839" lon="12.204122259382721"><ele>-3.0</ele><time>2026-04-11T09:33:59.04Z</time></trkpt><trkpt lat="44.678032595435184" lon="12.204381709377305"><ele>-3.0</ele><time>2026-04-11T09:34:00.04Z</time></trkpt><trkpt lat="44.67795673788392" lon="12.204638083144907"><ele>-3.0</ele><time>2026-04-11T09:34:01.04Z</time></trkpt><trkpt lat="44.67788688051301" lon="12.204897736444961"><ele>-3.0</ele><time>2026-04-11T09:34:02.04Z</time></trkpt><trkpt lat="44.67784076523843" lon="12.205149194353952"><ele>-3.0</ele><time>2026-04-11T09:34:03.04Z</time></trkpt><trkpt lat="44.67781161019925" lon="12.205409534914596"><ele>-3.0</ele><time>2026-04-11T09:34:04.04Z</time></trkpt><trkpt lat="44.67779100419726" lon="12.205686329418361"><ele>-3.666666666666667</ele><time>2026-04-11T09:34:05.04Z</time></trkpt><trkpt lat="44.677762279924785" lon="12.2059735811248"><ele>-4.333333333333334</ele><time>2026-04-11T09:34:06.04Z</time></trkpt><trkpt lat="44.6777113838742" lon="12.206231877971879"><ele>-5.0</ele><time>2026-04-11T09:34:07.04Z</time></trkpt><trkpt lat="44.67768287203771" lon="12.206510643155939"><ele>-5.0</ele><time>2026-04-11T09:34:08.04Z</time></trkpt><trkpt lat="44.677653607940016" lon="12.206796763791132"><ele>-5.0</ele><time>2026-04-11T09:34:09.04Z</time></trkpt><trkpt lat="44.67761971082669" lon="12.207129051901944"><ele>-5.0</ele><time>2026-04-11T09:34:10.04Z</time></trkpt><trkpt lat="44.67758525407006" lon="12.207472592600203"><ele>-5.0</ele><time>2026-04-11T09:34:11.04Z</time></trkpt><trkpt lat="44.6775484163712" lon="12.207839871733073"><ele>-5.0</ele><time>2026-04-11T09:34:12.04Z</time></trkpt><trkpt lat="44.67750991487243" lon="12.208223739041138"><ele>-5.0</ele><time>2026-04-11T09:34:13.04Z</time></trkpt><trkpt lat="44.67747087484105" lon="12.208612976063542"><ele>-5.0</ele><time>2026-04-11T09:34:14.04Z</time></trkpt><trkpt lat="44.67743145611901" lon="12.209005988365915"><ele>-4.5</ele><time>2026-04-11T09:34:15.04Z</time></trkpt><trkpt lat="44.67739292092592" lon="12.209390191660889"><ele>-4.0</ele><time>2026-04-11T09:34:16.04Z</time></trkpt><trkpt lat="44.6773547701445" lon="12.209770562514576"><ele>-2.5</ele><time>2026-04-11T09:34:17.04Z</time></trkpt><trkpt lat="44.67731754336178" lon="12.21014387553485"><ele>-1.0</ele><time>2026-04-11T09:34:18.04Z</time></trkpt><trkpt lat="44.67728096228899" lon="12.210512267088179"><ele>-0.5</ele><time>2026-04-11T09:34:19.04Z</time></trkpt><trkpt lat="44.67724442394234" lon="12.210880228243237"><ele>0.0</ele><time>2026-04-11T09:34:20.04Z</time></trkpt><trkpt lat="44.6772077307645" lon="12.211249748670195"><ele>0.0</ele><time>2026-04-11T09:34:21.04Z</time></trkpt><trkpt lat="44.6771717606791" lon="12.211612051741252"><ele>0.0</ele><time>2026-04-11T09:34:22.04Z</time></trkpt><trkpt lat="44.67713634946832" lon="12.211968839183161"><ele>0.0</ele><time>2026-04-11T09:34:23.04Z</time></trkpt><trkpt lat="44.677100630799615" lon="12.212324602195944"><ele>0.0</ele><time>2026-04-11T09:34:24.04Z</time></trkpt><trkpt lat="44.677064466137075" lon="12.21268296169993"><ele>0.0</ele><time>2026-04-11T09:34:25.04Z</time></trkpt><trkpt lat="44.67702908737899" lon="12.213031707020464"><ele>0.0</ele><time>2026-04-11T09:34:26.04Z</time></trkpt><trkpt lat="44.67702724948575" lon="12.213387334662894"><ele>0.0</ele><time>2026-04-11T09:34:27.04Z</time></trkpt><trkpt lat="44.676995686009136" lon="12.213746322312472"><ele>0.0</ele><time>2026-04-11T09:34:28.04Z</time></trkpt><trkpt lat="44.676961741020726" lon="12.214102383643844"><ele>0.5</ele><time>2026-04-11T09:34:29.04Z</time></trkpt><trkpt lat="44.676925474712895" lon="12.214463112642328"><ele>1.0</ele><time>2026-04-11T09:34:30.04Z</time></trkpt><trkpt lat="44.67684979266595" lon="12.214816800687016"><ele>0.5</ele><time>2026-04-11T09:34:31.04Z</time></trkpt><trkpt lat="44.67681292174781" lon="12.215181937004592"><ele>0.0</ele><time>2026-04-11T09:34:32.039Z</time></trkpt><trkpt lat="44.67677536349929" lon="12.215553808237535"><ele>1.0</ele><time>2026-04-11T09:34:33.037Z</time></trkpt><trkpt lat="44.67673793487434" lon="12.21592336768101"><ele>2.0</ele><time>2026-04-11T09:34:34.036Z</time></trkpt><trkpt lat="44.67669967150116" lon="12.216301523046884"><ele>2.5</ele><time>2026-04-11T09:34:35.035Z</time></trkpt><trkpt lat="44.67666072466423" lon="12.216682897775065"><ele>3.0</ele><time>2026-04-11T09:34:36.034Z</time></trkpt><trkpt lat="44.67662277667146" lon="12.217057509487597"><ele>2.0</ele><time>2026-04-11T09:34:37.033Z</time></trkpt><trkpt lat="44.67658496634754" lon="12.217432038325494"><ele>1.0</ele><time>2026-04-11T09:34:38.032Z</time></trkpt><trkpt lat="44.67654712524007" lon="12.217806872102573"><ele>1.0</ele><time>2026-04-11T09:34:39.032Z</time></trkpt><trkpt lat="44.6765099102953" lon="12.218175502260246"><ele>1.0</ele><time>2026-04-11T09:34:40.031Z</time></trkpt><trkpt lat="44.676472548492754" lon="12.218541075307522"><ele>1.0</ele><time>2026-04-11T09:34:41.03Z</time></trkpt><trkpt lat="44.676436185896314" lon="12.2188972982922"><ele>1.0</ele><time>2026-04-11T09:34:42.029Z</time></trkpt><trkpt lat="44.676401676930446" lon="12.219236873404004"><ele>0.6666666666666666</ele><time>2026-04-11T09:34:43.029Z</time></trkpt><trkpt lat="44.67637066834796" lon="12.219542100338257"><ele>0.3333333333333333</ele><time>2026-04-11T09:34:44.028Z</time></trkpt><trkpt lat="44.67634207409317" lon="12.21982356242573"><ele>0.0</ele><time>2026-04-11T09:34:45.027Z</time></trkpt><trkpt lat="44.67631509331256" lon="12.220089142132489"><ele>-0.3333333333333333</ele><time>2026-04-11T09:34:46.027Z</time></trkpt><trkpt lat="44.67628891084901" lon="12.220346864170615"><ele>-0.6666666666666666</ele><time>2026-04-11T09:34:47.026Z</time></trkpt><trkpt lat="44.67626402074063" lon="12.220591865167801"><ele>-1.0</ele><time>2026-04-11T09:34:48.026Z</time></trkpt><trkpt lat="44.67624016178605" lon="12.220822685020751"><ele>-1.3333333333333333</ele><time>2026-04-11T09:34:49.026Z</time></trkpt><trkpt lat="44.67621819689348" lon="12.221043867405603"><ele>-1.6666666666666665</ele><time>2026-04-11T09:34:50.025Z</time></trkpt><trkpt lat="44.67622349342381" lon="12.221260614605498"><ele>-2.0</ele><time>2026-04-11T09:34:51.025Z</time></trkpt><trkpt lat="44.67620279748719" lon="12.221476503424073"><ele>-2.25</ele><time>2026-04-11T09:34:52.024Z</time></trkpt><trkpt lat="44.67617832550659" lon="12.221683235055949"><ele>-2.5</ele><time>2026-04-11T09:34:53.024Z</time></trkpt><trkpt lat="44.67615462547168" lon="12.221877228180878"><ele>-2.75</ele><time>2026-04-11T09:34:54.024Z</time></trkpt><trkpt lat="44.67611587600368" lon="12.222058097452557"><ele>-3.0</ele><time>2026-04-11T09:34:55.023Z</time></trkpt><trkpt lat="44.676098180965525" lon="12.222233114673612"><ele>-2.6</ele><time>2026-04-11T09:34:56.023Z</time></trkpt><trkpt lat="44.67609515782291" lon="12.22240542811307"><ele>-2.1999999999999997</ele><time>2026-04-11T09:34:57.023Z</time></trkpt><trkpt lat="44.676061587698655" lon="12.222557263565994"><ele>-1.8</ele><time>2026-04-11T09:34:58.023Z</time></trkpt><trkpt lat="44.67604524492001" lon="12.222700070571483"><ele>-1.4</ele><time>2026-04-11T09:34:59.022Z</time></trkpt><trkpt lat="44.67602841861103" lon="12.222844000134666"><ele>-1.0</ele><time>2026-04-11T09:35:00.022Z</time></trkpt><trkpt lat="44.676018109537836" lon="12.222997305469713"><ele>-0.5</ele><time>2026-04-11T09:35:01.022Z</time></trkpt><trkpt lat="44.67600092790936" lon="12.223168785830216"><ele>0.0</ele><time>2026-04-11T09:35:02.022Z</time></trkpt><trkpt lat="44.67598101400043" lon="12.223355339378724"><ele>0.5</ele><time>2026-04-11T09:35:03.022Z</time></trkpt><trkpt lat="44.67596264268196" lon="12.223539472746014"><ele>1.0</ele><time>2026-04-11T09:35:04.021Z</time></trkpt><trkpt lat="44.67594390193048" lon="12.223727389099867"><ele>1.0</ele><time>2026-04-11T09:35:05.021Z</time></trkpt><trkpt lat="44.67592803532677" lon="12.223907380062881"><ele>1.0</ele><time>2026-04-11T09:35:06.021Z</time></trkpt><trkpt lat="44.67591546162854" lon="12.224075995004037"><ele>1.0</ele><time>2026-04-11T09:35:07.021Z</time></trkpt><trkpt lat="44.67590090676561" lon="12.224248114594086"><ele>1.0</ele><time>2026-04-11T09:35:08.021Z</time></trkpt><trkpt lat="44.67588187697304" lon="12.224430418444767"><ele>1.0</ele><time>2026-04-11T09:35:09.021Z</time></trkpt><trkpt lat="44.67586198431154" lon="12.224620291790828"><ele>1.0</ele><time>2026-04-11T09:35:10.021Z</time></trkpt><trkpt lat="44.675847485998844" lon="12.22480414274321"><ele>1.0</ele><time>2026-04-11T09:35:11.02Z</time></trkpt><trkpt lat="44.67583336782832" lon="12.224978281406488"><ele>1.0</ele><time>2026-04-11T09:35:12.02Z</time></trkpt><trkpt lat="44.67579264685582" lon="12.225145726240457"><ele>1.0</ele><time>2026-04-11T09:35:13.02Z</time></trkpt><trkpt lat="44.675778191441665" lon="12.225306942065814"><ele>1.0</ele><time>2026-04-11T09:35:14.02Z</time></trkpt><trkpt lat="44.67576716819855" lon="12.225455724546872"><ele>1.0</ele><time>2026-04-11T09:35:15.02Z</time></trkpt><trkpt lat="44.67575869588779" lon="12.225583958318664"><ele>1.0</ele><time>2026-04-11T09:35:16.02Z</time></trkpt><trkpt lat="44.67574877674169" lon="12.225705454561767"><ele>1.0</ele><time>2026-04-11T09:35:17.02Z</time></trkpt><trkpt lat="44.675740235103525" lon="12.225805618640273"><ele>0.9999999999999999</ele><time>2026-04-11T09:35:18.02Z</time></trkpt><trkpt lat="44.675734944757835" lon="12.225895968950134"><ele>1.0</ele><time>2026-04-11T09:35:19.02Z</time></trkpt><trkpt lat="44.675722821439734" lon="12.226056532364113"><ele>1.0</ele><time>2026-04-11T09:35:21.02Z</time></trkpt><trkpt lat="44.67570664289121" lon="12.226207974442218"><ele>1.0</ele><time>2026-04-11T09:35:23.019Z</time></trkpt><trkpt lat="44.675701242882916" lon="12.226297626266486"><ele>0.9999999999999999</ele><time>2026-04-11T09:35:24.019Z</time></trkpt><trkpt lat="44.675708626914435" lon="12.226415268309102"><ele>1.0</ele><time>2026-04-11T09:35:25.019Z</time></trkpt><trkpt lat="44.675722658537985" lon="12.226557816541003"><ele>1.2000000000000002</ele><time>2026-04-11T09:35:26.019Z</time></trkpt><trkpt lat="44.67573641136515" lon="12.226711295712612"><ele>1.4000000000000001</ele><time>2026-04-11T09:35:27.019Z</time></trkpt><trkpt lat="44.67574886710465" lon="12.226867430999775"><ele>1.6</ele><time>2026-04-11T09:35:28.019Z</time></trkpt><trkpt lat="44.67576245759071" lon="12.227012396367071"><ele>1.8</ele><time>2026-04-11T09:35:29.019Z</time></trkpt><trkpt lat="44.67577214499271" lon="12.227147125902869"><ele>2.0</ele><time>2026-04-11T09:35:30.019Z</time></trkpt><trkpt lat="44.675782923419476" lon="12.22728799600599"><ele>1.9999999999999998</ele><time>2026-04-11T09:35:31.019Z</time></trkpt><trkpt lat="44.67580073875069" lon="12.22743079431987"><ele>2.0</ele><time>2026-04-11T09:35:32.019Z</time></trkpt><trkpt lat="44.67581741893424" lon="12.227553678218072"><ele>2.0</ele><time>2026-04-11T09:35:33.019Z</time></trkpt><trkpt lat="44.67583053276427" lon="12.227655910377328"><ele>2.0</ele><time>2026-04-11T09:35:34.019Z</time></trkpt><trkpt lat="44.675846040115815" lon="12.227748340835188"><ele>1.9999999999999998</ele><time>2026-04-11T09:35:35.019Z</time></trkpt><trkpt lat="44.67585989285429" lon="12.227859283181514"><ele>2.0</ele><time>2026-04-11T09:35:36.019Z</time></trkpt><trkpt lat="44.67585283734771" lon="12.227971208998115"><ele>2.0</ele><time>2026-04-11T09:35:37.019Z</time></trkpt><trkpt lat="44.67586699092401" lon="12.228094884086287"><ele>2.0</ele><time>2026-04-11T09:35:38.019Z</time></trkpt><trkpt lat="44.67588148262776" lon="12.228220464738646"><ele>2.0</ele><time>2026-04-11T09:35:39.019Z</time></trkpt><trkpt lat="44.67589802149441" lon="12.228364862747057"><ele>2.0</ele><time>2026-04-11T09:35:40.021Z</time></trkpt><trkpt lat="44.67594537767753" lon="12.228481080384585"><ele>2.0</ele><time>2026-04-11T09:35:41.021Z</time></trkpt><trkpt lat="44.675968268226484" lon="12.228603587897998"><ele>1.9999999999999998</ele><time>2026-04-11T09:35:42.021Z</time></trkpt><trkpt lat="44.67598285358637" lon="12.22871878044531"><ele>2.0</ele><time>2026-04-11T09:35:43.021Z</time></trkpt><trkpt lat="44.675992177767405" lon="12.22883378428344"><ele>2.0</ele><time>2026-04-11T09:35:44.021Z</time></trkpt><trkpt lat="44.67600196285479" lon="12.228935457170167"><ele>2.0</ele><time>2026-04-11T09:35:45.021Z</time></trkpt><trkpt lat="44.67601590879265" lon="12.229042791712647"><ele>1.9999999999999998</ele><time>2026-04-11T09:35:46.021Z</time></trkpt><trkpt lat="44.67602453076257" lon="12.229159635583034"><ele>2.0</ele><time>2026-04-11T09:35:47.02Z</time></trkpt><trkpt lat="44.67603785425375" lon="12.22926704337411"><ele>1.9999999999999998</ele><time>2026-04-11T09:35:48.02Z</time></trkpt><trkpt lat="44.67601375705663" lon="12.22938336697165"><ele>2.0</ele><time>2026-04-11T09:35:49.021Z</time></trkpt><trkpt lat="44.676024413052204" lon="12.229480668080962"><ele>2.0</ele><time>2026-04-11T09:35:50.021Z</time></trkpt><trkpt lat="44.67607439815098" lon="12.229554607579109"><ele>2.0</ele><time>2026-04-11T09:35:51.021Z</time></trkpt><trkpt lat="44.67610247895794" lon="12.22971570045233"><ele>1.9999999999999998</ele><time>2026-04-11T09:35:53.021Z</time></trkpt><trkpt lat="44.676116608090936" lon="12.229833825668953"><ele>2.0</ele><time>2026-04-11T09:35:55.021Z</time></trkpt><trkpt lat="44.67614087982684" lon="12.229924962821238"><ele>1.5</ele><time>2026-04-11T09:35:57.021Z</time></trkpt><trkpt lat="44.676181349466546" lon="12.230050438538422"><ele>1.0</ele><time>2026-04-11T09:35:59.021Z</time></trkpt><trkpt lat="44.67610993975662" lon="12.230117830215018"><ele>0.5</ele><time>2026-04-11T09:36:00.021Z</time></trkpt><trkpt lat="44.67631344610495" lon="12.230194047865767"><ele>0.0</ele><time>2026-04-11T09:36:01.021Z</time></trkpt><trkpt lat="44.676391913539575" lon="12.230204995210395"><ele>0.0</ele><time>2026-04-11T09:36:02.021Z</time></trkpt><trkpt lat="44.676482575731654" lon="12.23021765920657"><ele>0.0</ele><time>2026-04-11T09:36:03.021Z</time></trkpt><trkpt lat="44.67658217721167" lon="12.23023092109454"><ele>0.0</ele><time>2026-04-11T09:36:04.021Z</time></trkpt><trkpt lat="44.67665805202827" lon="12.230238876780692"><ele>0.0</ele><time>2026-04-11T09:36:05.021Z</time></trkpt><trkpt lat="44.67676450800016" lon="12.230250376223704"><ele>0.0</ele><time>2026-04-11T09:36:07.021Z</time></trkpt><trkpt lat="44.676838212227246" lon="12.230258388491748"><ele>0.0</ele><time>2026-04-11T09:36:09.021Z</time></trkpt><trkpt lat="44.67691385010874" lon="12.230266610957688"><ele>0.2</ele><time>2026-04-11T09:36:12.021Z</time></trkpt><trkpt lat="44.67698603850285" lon="12.230274458428521"><ele>0.4</ele><time>2026-04-11T09:36:17.021Z</time></trkpt><trkpt lat="44.67705604614428" lon="12.230282068845256"><ele>0.6000000000000001</ele><time>2026-04-11T09:36:38.02Z</time></trkpt><trkpt lat="44.67713183378709" lon="12.230290307594734"><ele>0.8</ele><time>2026-04-11T09:37:17.02Z</time></trkpt><trkpt lat="44.67721393927841" lon="12.230032252623483"><ele>1.0</ele><time>2026-04-11T09:37:19.02Z</time></trkpt><trkpt lat="44.67722324831573" lon="12.229937714176327"><ele>0.9999999999999999</ele><time>2026-04-11T09:37:20.02Z</time></trkpt><trkpt lat="44.67723187847058" lon="12.229845646279061"><ele>1.0</ele><time>2026-04-11T09:37:21.02Z</time></trkpt><trkpt lat="44.67724203701724" lon="12.229738619801656"><ele>1.0</ele><time>2026-04-11T09:37:22.02Z</time></trkpt><trkpt lat="44.6772555743333" lon="12.229612780429353"><ele>1.0</ele><time>2026-04-11T09:37:23.02Z</time></trkpt><trkpt lat="44.677273805649456" lon="12.229469843042311"><ele>0.9999999999999999</ele><time>2026-04-11T09:37:24.02Z</time></trkpt><trkpt lat="44.677296509597845" lon="12.229316982771502"><ele>1.0</ele><time>2026-04-11T09:37:25.02Z</time></trkpt><trkpt lat="44.677322983914515" lon="12.229163438083322"><ele>1.25</ele><time>2026-04-11T09:37:26.02Z</time></trkpt><trkpt lat="44.67735350779104" lon="12.229011579690962"><ele>1.5</ele><time>2026-04-11T09:37:27.02Z</time></trkpt><trkpt lat="44.67739352383733" lon="12.22885828374104"><ele>1.75</ele><time>2026-04-11T09:37:28.02Z</time></trkpt><trkpt lat="44.677436660036086" lon="12.228698323891576"><ele>2.0</ele><time>2026-04-11T09:37:29.02Z</time></trkpt><trkpt lat="44.67748063589967" lon="12.228536136456613"><ele>2.4000000000000004</ele><time>2026-04-11T09:37:30.02Z</time></trkpt><trkpt lat="44.6775205699977" lon="12.228388854147552"><ele>2.8000000000000003</ele><time>2026-04-11T09:37:31.02Z</time></trkpt><trkpt lat="44.67755390652462" lon="12.22826459050776"><ele>3.2</ele><time>2026-04-11T09:37:32.02Z</time></trkpt><trkpt lat="44.677583316118394" lon="12.228155150879457"><ele>3.6</ele><time>2026-04-11T09:37:33.02Z</time></trkpt><trkpt lat="44.67760798336444" lon="12.228067330757888"><ele>4.0</ele><time>2026-04-11T09:37:34.02Z</time></trkpt><trkpt lat="44.677695956229684" lon="12.227958561049984"><ele>3.75</ele><time>2026-04-11T09:37:36.02Z</time></trkpt><trkpt lat="44.67783241938964" lon="12.22797839016085"><ele>3.5</ele><time>2026-04-11T09:37:38.02Z</time></trkpt><trkpt lat="44.677910573482464" lon="12.228067763701338"><ele>3.25</ele><time>2026-04-11T09:37:39.02Z</time></trkpt><trkpt lat="44.67797945759878" lon="12.228214739136803"><ele>3.0</ele><time>2026-04-11T09:37:40.02Z</time></trkpt><trkpt lat="44.67807412763615" lon="12.228386346066436"><ele>3.0</ele><time>2026-04-11T09:37:41.02Z</time></trkpt><trkpt lat="44.67816077756767" lon="12.228560769401712"><ele>3.0</ele><time>2026-04-11T09:37:42.02Z</time></trkpt><trkpt lat="44.678260842326054" lon="12.228741032028978"><ele>3.0</ele><time>2026-04-11T09:37:43.02Z</time></trkpt><trkpt lat="44.67837277166767" lon="12.228937164574898"><ele>3.0</ele><time>2026-04-11T09:37:44.02Z</time></trkpt><trkpt lat="44.678509327285894" lon="12.229091172455357"><ele>3.0</ele><time>2026-04-11T09:37:45.02Z</time></trkpt><trkpt lat="44.67865882940857" lon="12.229233070182861"><ele>3.0</ele><time>2026-04-11T09:37:46.021Z</time></trkpt><trkpt lat="44.67880571461091" lon="12.229358525269884"><ele>3.0</ele><time>2026-04-11T09:37:47.021Z</time></trkpt><trkpt lat="44.6789497136594" lon="12.229475098754596"><ele>3.0</ele><time>2026-04-11T09:37:48.021Z</time></trkpt><trkpt lat="44.67910244776352" lon="12.22955893976432"><ele>3.0</ele><time>2026-04-11T09:37:49.021Z</time></trkpt><trkpt lat="44.679264378473746" lon="12.229599061762745"><ele>2.6666666666666665</ele><time>2026-04-11T09:37:50.021Z</time></trkpt><trkpt lat="44.67945685280013" lon="12.229602635412075"><ele>2.333333333333333</ele><time>2026-04-11T09:37:51.021Z</time></trkpt><trkpt lat="44.679662002462486" lon="12.229597188628967"><ele>2.0</ele><time>2026-04-11T09:37:52.021Z</time></trkpt><trkpt lat="44.679873419195175" lon="12.229607169030688"><ele>2.0</ele><time>2026-04-11T09:37:53.021Z</time></trkpt><trkpt lat="44.68009070424443" lon="12.22962123904452"><ele>2.0</ele><time>2026-04-11T09:37:54.021Z</time></trkpt><trkpt lat="44.680321109154036" lon="12.229641867157683"><ele>2.0</ele><time>2026-04-11T09:37:55.021Z</time></trkpt><trkpt lat="44.68055091128235" lon="12.229668262359887"><ele>2.0</ele><time>2026-04-11T09:37:56.021Z</time></trkpt><trkpt lat="44.68078728162078" lon="12.229694573304743"><ele>2.0</ele><time>2026-04-11T09:37:57.021Z</time></trkpt><trkpt lat="44.68102631006954" lon="12.22971992339766"><ele>2.5</ele><time>2026-04-11T09:37:58.021Z</time></trkpt><trkpt lat="44.68126372263676" lon="12.229746347508375"><ele>3.0</ele><time>2026-04-11T09:37:59.021Z</time></trkpt><trkpt lat="44.68150499633376" lon="12.229775140662836"><ele>3.0</ele><time>2026-04-11T09:38:00.021Z</time></trkpt><trkpt lat="44.68175247472512" lon="12.229803590726533"><ele>3.0</ele><time>2026-04-11T09:38:01.021Z</time></trkpt><trkpt lat="44.68198731454053" lon="12.229829046367021"><ele>2.3333333333333335</ele><time>2026-04-11T09:38:02.021Z</time></trkpt><trkpt lat="44.68220889426751" lon="12.229852916702967"><ele>1.6666666666666665</ele><time>2026-04-11T09:38:03.021Z</time></trkpt><trkpt lat="44.68241446308072" lon="12.229874565243747"><ele>1.0</ele><time>2026-04-11T09:38:04.021Z</time></trkpt><trkpt lat="44.68260641638912" lon="12.229894787349894"><ele>1.0</ele><time>2026-04-11T09:38:05.021Z</time></trkpt><trkpt lat="44.682799440888026" lon="12.229890667524012"><ele>1.0</ele><time>2026-04-11T09:38:06.021Z</time></trkpt><trkpt lat="44.68300075384376" lon="12.229937395774222"><ele>1.0</ele><time>2026-04-11T09:38:07.021Z</time></trkpt><trkpt lat="44.683205579180076" lon="12.229946615410816"><ele>1.0</ele><time>2026-04-11T09:38:08.021Z</time></trkpt><trkpt lat="44.68341593883189" lon="12.229948051133633"><ele>1.0</ele><time>2026-04-11T09:38:09.021Z</time></trkpt><trkpt lat="44.68359059373378" lon="12.229941443665759"><ele>1.0</ele><time>2026-04-11T09:38:10.021Z</time></trkpt><trkpt lat="44.68374757645622" lon="12.22993752486413"><ele>1.0</ele><time>2026-04-11T09:38:11.021Z</time></trkpt><trkpt lat="44.68390341086461" lon="12.229918565613213"><ele>1.0</ele><time>2026-04-11T09:38:12.021Z</time></trkpt><trkpt lat="44.6840579871225" lon="12.229896282959793"><ele>1.0</ele><time>2026-04-11T09:38:13.021Z</time></trkpt><trkpt lat="44.68420742894576" lon="12.229893092723536"><ele>1.0</ele><time>2026-04-11T09:38:14.021Z</time></trkpt><trkpt lat="44.68435594137066" lon="12.229891070750403"><ele>1.0</ele><time>2026-04-11T09:38:15.021Z</time></trkpt><trkpt lat="44.68452426797576" lon="12.229874136222795"><ele>1.0</ele><time>2026-04-11T09:38:16.021Z</time></trkpt><trkpt lat="44.68470411615232" lon="12.229850994419829"><ele>1.0</ele><time>2026-04-11T09:38:17.021Z</time></trkpt><trkpt lat="44.684900866750226" lon="12.229863058362103"><ele>1.0</ele><time>2026-04-11T09:38:18.021Z</time></trkpt><trkpt lat="44.68510340537205" lon="12.2298407212969"><ele>1.0</ele><time>2026-04-11T09:38:19.021Z</time></trkpt><trkpt lat="44.68532140147594" lon="12.229821040332626"><ele>2.0</ele><time>2026-04-11T09:38:20.021Z</time></trkpt><trkpt lat="44.68554680818117" lon="12.229797400220711"><ele>3.0</ele><time>2026-04-11T09:38:21.021Z</time></trkpt><trkpt lat="44.68577989784771" lon="12.229773778614733"><ele>3.0</ele><time>2026-04-11T09:38:22.021Z</time></trkpt><trkpt lat="44.68600927501141" lon="12.229759368597202"><ele>3.0</ele><time>2026-04-11T09:38:23.021Z</time></trkpt><trkpt lat="44.686234972608275" lon="12.229741744272598"><ele>2.0</ele><time>2026-04-11T09:38:24.021Z</time></trkpt><trkpt lat="44.68646211368276" lon="12.229722203368794"><ele>1.0</ele><time>2026-04-11T09:38:25.021Z</time></trkpt><trkpt lat="44.68668561328329" lon="12.229700198391717"><ele>1.0</ele><time>2026-04-11T09:38:26.021Z</time></trkpt><trkpt lat="44.686910780007395" lon="12.229707477479053"><ele>1.0</ele><time>2026-04-11T09:38:27.021Z</time></trkpt><trkpt lat="44.68713250578316" lon="12.22969203689694"><ele>1.0</ele><time>2026-04-11T09:38:28.021Z</time></trkpt><trkpt lat="44.68734888700077" lon="12.229676749268162"><ele>1.0</ele><time>2026-04-11T09:38:29.021Z</time></trkpt><trkpt lat="44.68755492088991" lon="12.229625534733524"><ele>1.0</ele><time>2026-04-11T09:38:30.021Z</time></trkpt><trkpt lat="44.68773696100952" lon="12.22961630985927"><ele>1.0</ele><time>2026-04-11T09:38:31.021Z</time></trkpt><trkpt lat="44.68790291406142" lon="12.22961027274225"><ele>1.0</ele><time>2026-04-11T09:38:32.021Z</time></trkpt><trkpt lat="44.68805356456398" lon="12.229599935422682"><ele>1.0</ele><time>2026-04-11T09:38:33.021Z</time></trkpt><trkpt lat="44.68818222709433" lon="12.229598647259174"><ele>1.0</ele><time>2026-04-11T09:38:34.021Z</time></trkpt><trkpt lat="44.6882887960169" lon="12.229598343000657"><ele>1.0</ele><time>2026-04-11T09:38:35.021Z</time></trkpt><trkpt lat="44.68837974866059" lon="12.229599097887407"><ele>0.9999999999999999</ele><time>2026-04-11T09:38:36.021Z</time></trkpt><trkpt lat="44.688449210416614" lon="12.22960562475047"><ele>1.0</ele><time>2026-04-11T09:38:37.021Z</time></trkpt><trkpt lat="44.68853013344292" lon="12.229615007588135"><ele>1.0</ele><time>2026-04-11T09:38:39.021Z</time></trkpt><trkpt lat="44.68860571670406" lon="12.229620121738597"><ele>1.0</ele><time>2026-04-11T09:39:11.021Z</time></trkpt><trkpt lat="44.688709437310095" lon="12.229628194217845"><ele>0.9999999999999999</ele><time>2026-04-11T09:39:13.021Z</time></trkpt><trkpt lat="44.688774339661094" lon="12.229632588872901"><ele>1.0</ele><time>2026-04-11T09:39:14.021Z</time></trkpt><trkpt lat="44.688849838733724" lon="12.229633087944947"><ele>1.4</ele><time>2026-04-11T09:39:15.021Z</time></trkpt><trkpt lat="44.6889396556697" lon="12.229635624693111"><ele>1.8</ele><time>2026-04-11T09:39:16.021Z</time></trkpt><trkpt lat="44.68903137953109" lon="12.229633470266005"><ele>2.1999999999999997</ele><time>2026-04-11T09:39:17.021Z</time></trkpt><trkpt lat="44.68911617253854" lon="12.229658424817595"><ele>2.6</ele><time>2026-04-11T09:39:18.021Z</time></trkpt><trkpt lat="44.68920528902073" lon="12.229664106681236"><ele>3.0</ele><time>2026-04-11T09:39:19.021Z</time></trkpt><trkpt lat="44.689302003520744" lon="12.229669447603763"><ele>3.0</ele><time>2026-04-11T09:39:20.021Z</time></trkpt><trkpt lat="44.68940262406203" lon="12.229675004228842"><ele>3.0</ele><time>2026-04-11T09:39:21.021Z</time></trkpt><trkpt lat="44.68951048535828" lon="12.229680960713427"><ele>3.0</ele><time>2026-04-11T09:39:22.021Z</time></trkpt><trkpt lat="44.68962758736407" lon="12.22968754296928"><ele>3.0</ele><time>2026-04-11T09:39:23.021Z</time></trkpt><trkpt lat="44.689745739431565" lon="12.229694484137305"><ele>3.0</ele><time>2026-04-11T09:39:24.021Z</time></trkpt><trkpt lat="44.68987013703514" lon="12.22970179220921"><ele>3.0</ele><time>2026-04-11T09:39:25.021Z</time></trkpt><trkpt lat="44.69000388273644" lon="12.229709362571086"><ele>3.0</ele><time>2026-04-11T09:39:26.021Z</time></trkpt><trkpt lat="44.69013974385687" lon="12.229715478916946"><ele>3.0</ele><time>2026-04-11T09:39:27.021Z</time></trkpt><trkpt lat="44.69028653670137" lon="12.229722207821617"><ele>3.0</ele><time>2026-04-11T09:39:28.021Z</time></trkpt><trkpt lat="44.69044522061135" lon="12.229729553447168"><ele>2.6666666666666665</ele><time>2026-04-11T09:39:29.021Z</time></trkpt><trkpt lat="44.690606300393306" lon="12.229737009989812"><ele>2.333333333333333</ele><time>2026-04-11T09:39:30.021Z</time></trkpt><trkpt lat="44.69077090711059" lon="12.22974462979308"><ele>2.0</ele><time>2026-04-11T09:39:31.021Z</time></trkpt><trkpt lat="44.690937776503006" lon="12.229752354340338"><ele>1.6666666666666665</ele><time>2026-04-11T09:39:32.021Z</time></trkpt><trkpt lat="44.69110592390133" lon="12.229760138045476"><ele>1.3333333333333333</ele><time>2026-04-11T09:39:33.021Z</time></trkpt><trkpt lat="44.69126764585662" lon="12.229767624304337"><ele>1.0</ele><time>2026-04-11T09:39:34.021Z</time></trkpt><trkpt lat="44.69144110592606" lon="12.229775653949696"><ele>1.0</ele><time>2026-04-11T09:39:35.021Z</time></trkpt><trkpt lat="44.691607804983434" lon="12.229783370547871"><ele>1.0</ele><time>2026-04-11T09:39:36.021Z</time></trkpt><trkpt lat="44.69177320337436" lon="12.229791310127169"><ele>1.0</ele><time>2026-04-11T09:39:37.021Z</time></trkpt><trkpt lat="44.69195225729298" lon="12.229799865241533"><ele>1.0</ele><time>2026-04-11T09:39:38.02Z</time></trkpt><trkpt lat="44.692155637750474" lon="12.229809864900506"><ele>1.0</ele><time>2026-04-11T09:39:39.02Z</time></trkpt><trkpt lat="44.692384271555774" lon="12.229821734693871"><ele>1.0</ele><time>2026-04-11T09:39:40.02Z</time></trkpt><trkpt lat="44.69262750202834" lon="12.229834362283245"><ele>0.5</ele><time>2026-04-11T09:39:41.02Z</time></trkpt><trkpt lat="44.692868763789704" lon="12.229846887671341"><ele>0.0</ele><time>2026-04-11T09:39:42.02Z</time></trkpt><trkpt lat="44.69310977364795" lon="12.229859399983589"><ele>0.0</ele><time>2026-04-11T09:39:43.02Z</time></trkpt><trkpt lat="44.693362316744334" lon="12.22987306366797"><ele>0.0</ele><time>2026-04-11T09:39:44.02Z</time></trkpt><trkpt lat="44.69360963095188" lon="12.22989786997333"><ele>1.0</ele><time>2026-04-11T09:39:45.02Z</time></trkpt><trkpt lat="44.69385646838497" lon="12.22992872377293"><ele>2.0</ele><time>2026-04-11T09:39:46.02Z</time></trkpt><trkpt lat="44.694098568861854" lon="12.229958913107438"><ele>2.0</ele><time>2026-04-11T09:39:47.02Z</time></trkpt><trkpt lat="44.69434513060079" lon="12.229987429632374"><ele>2.0</ele><time>2026-04-11T09:39:48.02Z</time></trkpt><trkpt lat="44.69459026470713" lon="12.230006339681317"><ele>2.0</ele><time>2026-04-11T09:39:49.02Z</time></trkpt><trkpt lat="44.69483177843871" lon="12.23001045538797"><ele>2.0</ele><time>2026-04-11T09:39:50.02Z</time></trkpt><trkpt lat="44.6950770546923" lon="12.230019296716009"><ele>2.0</ele><time>2026-04-11T09:39:51.02Z</time></trkpt><trkpt lat="44.695314359763145" lon="12.230027950069124"><ele>2.0</ele><time>2026-04-11T09:39:52.021Z</time></trkpt><trkpt lat="44.69554951790835" lon="12.230024242881983"><ele>2.0</ele><time>2026-04-11T09:39:53.022Z</time></trkpt><trkpt lat="44.695780056988085" lon="12.230022076591315"><ele>2.0</ele><time>2026-04-11T09:39:54.022Z</time></trkpt><trkpt lat="44.69600671925137" lon="12.230024132767205"><ele>2.0</ele><time>2026-04-11T09:39:55.021Z</time></trkpt><trkpt lat="44.69623183711842" lon="12.230030104628906"><ele>2.0</ele><time>2026-04-11T09:39:56.022Z</time></trkpt><trkpt lat="44.69644924427055" lon="12.23006210737678"><ele>2.0</ele><time>2026-04-11T09:39:57.022Z</time></trkpt><trkpt lat="44.6966602367623" lon="12.230055624222754"><ele>2.0</ele><time>2026-04-11T09:39:58.021Z</time></trkpt><trkpt lat="44.69686303214848" lon="12.230065773013447"><ele>2.0</ele><time>2026-04-11T09:39:59.021Z</time></trkpt><trkpt lat="44.69706862927291" lon="12.230118179048343"><ele>2.0</ele><time>2026-04-11T09:40:00.021Z</time></trkpt><trkpt lat="44.697289661791615" lon="12.230144126064463"><ele>2.5</ele><time>2026-04-11T09:40:01.021Z</time></trkpt><trkpt lat="44.697518719524666" lon="12.230165510021003"><ele>3.0</ele><time>2026-04-11T09:40:02.022Z</time></trkpt><trkpt lat="44.6977523377759" lon="12.23018385049563"><ele>3.0</ele><time>2026-04-11T09:40:03.022Z</time></trkpt><trkpt lat="44.69799435417804" lon="12.230211542171725"><ele>3.0</ele><time>2026-04-11T09:40:04.021Z</time></trkpt><trkpt lat="44.69824368321362" lon="12.230235790753353"><ele>3.0</ele><time>2026-04-11T09:40:05.021Z</time></trkpt><trkpt lat="44.69849566294939" lon="12.230261100977328"><ele>3.0</ele><time>2026-04-11T09:40:06.021Z</time></trkpt><trkpt lat="44.69875574127613" lon="12.230287282640179"><ele>2.5</ele><time>2026-04-11T09:40:07.021Z</time></trkpt><trkpt lat="44.69901184184747" lon="12.230323554407947"><ele>2.0</ele><time>2026-04-11T09:40:08.021Z</time></trkpt><trkpt lat="44.699271267420976" lon="12.230342022656613"><ele>2.0</ele><time>2026-04-11T09:40:09.021Z</time></trkpt><trkpt lat="44.699533328582696" lon="12.230356155029348"><ele>2.0</ele><time>2026-04-11T09:40:10.021Z</time></trkpt><trkpt lat="44.699800192366865" lon="12.23036891325827"><ele>2.0</ele><time>2026-04-11T09:40:11.021Z</time></trkpt><trkpt lat="44.700066663364694" lon="12.230392622182132"><ele>2.0</ele><time>2026-04-11T09:40:12.021Z</time></trkpt><trkpt lat="44.7003299536459" lon="12.230398952079783"><ele>1.0</ele><time>2026-04-11T09:40:13.021Z</time></trkpt><trkpt lat="44.70059380801617" lon="12.230438470960678"><ele>0.0</ele><time>2026-04-11T09:40:14.021Z</time></trkpt><trkpt lat="44.70084817213023" lon="12.230462311556693"><ele>0.0</ele><time>2026-04-11T09:40:15.021Z</time></trkpt><trkpt lat="44.70110894995152" lon="12.230486753292128"><ele>0.0</ele><time>2026-04-11T09:40:16.021Z</time></trkpt><trkpt lat="44.701367823593735" lon="12.230511016546767"><ele>0.0</ele><time>2026-04-11T09:40:17.021Z</time></trkpt><trkpt lat="44.70163272835498" lon="12.230535641396258"><ele>0.0</ele><time>2026-04-11T09:40:18.021Z</time></trkpt><trkpt lat="44.70189420012086" lon="12.230558852663522"><ele>0.5</ele><time>2026-04-11T09:40:19.021Z</time></trkpt><trkpt lat="44.70215817695429" lon="12.23058228630362"><ele>1.0</ele><time>2026-04-11T09:40:20.021Z</time></trkpt><trkpt lat="44.70243005537225" lon="12.230606421374873"><ele>1.0</ele><time>2026-04-11T09:40:21.021Z</time></trkpt><trkpt lat="44.70270642824024" lon="12.2306309550544"><ele>1.0</ele><time>2026-04-11T09:40:22.021Z</time></trkpt><trkpt lat="44.70298069538112" lon="12.23065193155014"><ele>1.5</ele><time>2026-04-11T09:40:23.021Z</time></trkpt><trkpt lat="44.70325382951112" lon="12.230666081027845"><ele>2.0</ele><time>2026-04-11T09:40:24.021Z</time></trkpt><trkpt lat="44.70351440865427" lon="12.230684183557416"><ele>3.5</ele><time>2026-04-11T09:40:25.021Z</time></trkpt><trkpt lat="44.703768552349445" lon="12.230701850091288"><ele>5.0</ele><time>2026-04-11T09:40:26.021Z</time></trkpt><trkpt lat="44.70401690542365" lon="12.230723528669673"><ele>5.0</ele><time>2026-04-11T09:40:27.021Z</time></trkpt><trkpt lat="44.70425965408287" lon="12.23074568315548"><ele>5.0</ele><time>2026-04-11T09:40:28.021Z</time></trkpt><trkpt lat="44.70449512583105" lon="12.230770095359388"><ele>4.0</ele><time>2026-04-11T09:40:29.021Z</time></trkpt><trkpt lat="44.704724558032204" lon="12.230798151689818"><ele>3.0</ele><time>2026-04-11T09:40:30.021Z</time></trkpt><trkpt lat="44.70494127853453" lon="12.230824653543255"><ele>2.0</ele><time>2026-04-11T09:40:31.021Z</time></trkpt><trkpt lat="44.70514994184615" lon="12.230850170144347"><ele>1.6666666666666665</ele><time>2026-04-11T09:40:32.021Z</time></trkpt><trkpt lat="44.70535398789533" lon="12.230875122105115"><ele>1.3333333333333333</ele><time>2026-04-11T09:40:33.021Z</time></trkpt><trkpt lat="44.70554114152058" lon="12.230897661208969"><ele>1.0</ele><time>2026-04-11T09:40:34.021Z</time></trkpt><trkpt lat="44.70571221638442" lon="12.23091335002356"><ele>1.0</ele><time>2026-04-11T09:40:35.021Z</time></trkpt><trkpt lat="44.705874675143235" lon="12.230921893973724"><ele>1.0</ele><time>2026-04-11T09:40:36.021Z</time></trkpt><trkpt lat="44.7060199216692" lon="12.23092301355011"><ele>1.0</ele><time>2026-04-11T09:40:37.021Z</time></trkpt><trkpt lat="44.70615007624616" lon="12.230898722868544"><ele>1.0</ele><time>2026-04-11T09:40:38.021Z</time></trkpt><trkpt lat="44.70626887848047" lon="12.230922114212683"><ele>1.0</ele><time>2026-04-11T09:40:39.021Z</time></trkpt><trkpt lat="44.70637104755941" lon="12.230919884184694"><ele>1.0</ele><time>2026-04-11T09:40:40.021Z</time></trkpt><trkpt lat="44.70645429436751" lon="12.230915068466386"><ele>1.0</ele><time>2026-04-11T09:40:41.021Z</time></trkpt><trkpt lat="44.70653172949382" lon="12.23090911376982"><ele>1.0</ele><time>2026-04-11T09:40:42.021Z</time></trkpt><trkpt lat="44.7066874397203" lon="12.230887888956078"><ele>1.0</ele><time>2026-04-11T09:40:45.021Z</time></trkpt><trkpt lat="44.70676283929766" lon="12.230875236269481"><ele>1.0</ele><time>2026-04-11T09:40:48.021Z</time></trkpt><trkpt lat="44.70687301601032" lon="12.230847888884831"><ele>1.0</ele><time>2026-04-11T09:41:09.021Z</time></trkpt><trkpt lat="44.706941842327296" lon="12.230849163754764"><ele>1.0</ele><time>2026-04-11T09:41:10.021Z</time></trkpt><trkpt lat="44.707014242119136" lon="12.230845067356643"><ele>1.0</ele><time>2026-04-11T09:41:11.021Z</time></trkpt><trkpt lat="44.70711892315685" lon="12.230836505226888"><ele>1.0</ele><time>2026-04-11T09:41:12.021Z</time></trkpt><trkpt lat="44.70724176588934" lon="12.230832794001993"><ele>1.3333333333333333</ele><time>2026-04-11T09:41:13.021Z</time></trkpt><trkpt lat="44.707381832196454" lon="12.230848465307181"><ele>1.6666666666666665</ele><time>2026-04-11T09:41:14.021Z</time></trkpt><trkpt lat="44.707529126313425" lon="12.230874007770066"><ele>2.0</ele><time>2026-04-11T09:41:15.021Z</time></trkpt><trkpt lat="44.70769625477271" lon="12.230923715285154"><ele>2.0</ele><time>2026-04-11T09:41:16.021Z</time></trkpt><trkpt lat="44.70786348476582" lon="12.231031232618129"><ele>2.0</ele><time>2026-04-11T09:41:17.021Z</time></trkpt><trkpt lat="44.7080535277643" lon="12.231135698557281"><ele>2.0</ele><time>2026-04-11T09:41:18.021Z</time></trkpt><trkpt lat="44.70825640000811" lon="12.231217134981861"><ele>2.0</ele><time>2026-04-11T09:41:19.02Z</time></trkpt><trkpt lat="44.708479004102" lon="12.231277900872229"><ele>2.0</ele><time>2026-04-11T09:41:20.02Z</time></trkpt><trkpt lat="44.70872001010289" lon="12.23131450742209"><ele>2.0</ele><time>2026-04-11T09:41:21.02Z</time></trkpt><trkpt lat="44.70897514686368" lon="12.231349689225704"><ele>2.0</ele><time>2026-04-11T09:41:22.02Z</time></trkpt><trkpt lat="44.709236357567974" lon="12.231385708591674"><ele>1.0</ele><time>2026-04-11T09:41:23.02Z</time></trkpt><trkpt lat="44.70950181083833" lon="12.231422312979577"><ele>0.0</ele><time>2026-04-11T09:41:24.02Z</time></trkpt><trkpt lat="44.709767490901" lon="12.231459625288535"><ele>0.5</ele><time>2026-04-11T09:41:25.02Z</time></trkpt><trkpt lat="44.71002013644619" lon="12.2314959079835"><ele>1.0</ele><time>2026-04-11T09:41:26.02Z</time></trkpt><trkpt lat="44.71026322937982" lon="12.23153081882141"><ele>1.0</ele><time>2026-04-11T09:41:27.02Z</time></trkpt><trkpt lat="44.71050052242508" lon="12.231565096943667"><ele>1.0</ele><time>2026-04-11T09:41:28.02Z</time></trkpt><trkpt lat="44.71073465090594" lon="12.231599268228543"><ele>1.0</ele><time>2026-04-11T09:41:29.02Z</time></trkpt><trkpt lat="44.71097188928982" lon="12.231635973213185"><ele>1.0</ele><time>2026-04-11T09:41:30.02Z</time></trkpt><trkpt lat="44.71120764152297" lon="12.231672566988092"><ele>1.0</ele><time>2026-04-11T09:41:31.02Z</time></trkpt><trkpt lat="44.71144446133994" lon="12.231704235354854"><ele>1.0</ele><time>2026-04-11T09:41:32.02Z</time></trkpt><trkpt lat="44.711667518216316" lon="12.231734063293855"><ele>1.0</ele><time>2026-04-11T09:41:33.02Z</time></trkpt><trkpt lat="44.71188801687216" lon="12.231770446548891"><ele>1.0</ele><time>2026-04-11T09:41:34.02Z</time></trkpt><trkpt lat="44.71210767806338" lon="12.231789250498528"><ele>1.0</ele><time>2026-04-11T09:41:35.02Z</time></trkpt><trkpt lat="44.71232008792807" lon="12.231758912613918"><ele>1.0</ele><time>2026-04-11T09:41:36.02Z</time></trkpt><trkpt lat="44.712510949429614" lon="12.231692335418128"><ele>1.0</ele><time>2026-04-11T09:41:37.02Z</time></trkpt><trkpt lat="44.7127125420065" lon="12.231628142608113"><ele>1.0</ele><time>2026-04-11T09:41:38.02Z</time></trkpt><trkpt lat="44.71292933692079" lon="12.231582560558081"><ele>2.5</ele><time>2026-04-11T09:41:39.02Z</time></trkpt><trkpt lat="44.71316163348877" lon="12.231587712986665"><ele>4.0</ele><time>2026-04-11T09:41:40.02Z</time></trkpt><trkpt lat="44.71340409712751" lon="12.231619944001313"><ele>3.5</ele><time>2026-04-11T09:41:41.02Z</time></trkpt><trkpt lat="44.71364602147977" lon="12.231653127234487"><ele>3.0</ele><time>2026-04-11T09:41:42.02Z</time></trkpt><trkpt lat="44.71386920602772" lon="12.231690346252709"><ele>3.0</ele><time>2026-04-11T09:41:43.02Z</time></trkpt><trkpt lat="44.71407524517838" lon="12.231735375681573"><ele>3.0</ele><time>2026-04-11T09:41:44.02Z</time></trkpt><trkpt lat="44.714259801365976" lon="12.231815336815583"><ele>3.0</ele><time>2026-04-11T09:41:45.02Z</time></trkpt><trkpt lat="44.7144296417124" lon="12.231937650144019"><ele>3.0</ele><time>2026-04-11T09:41:46.02Z</time></trkpt><trkpt lat="44.71459756499143" lon="12.232100940290803"><ele>3.0</ele><time>2026-04-11T09:41:47.02Z</time></trkpt><trkpt lat="44.71475500041752" lon="12.232288496241804"><ele>3.0</ele><time>2026-04-11T09:41:48.02Z</time></trkpt><trkpt lat="44.71491929208934" lon="12.23248908672077"><ele>3.333333333333333</ele><time>2026-04-11T09:41:49.02Z</time></trkpt><trkpt lat="44.715095030228525" lon="12.232654095065653"><ele>3.6666666666666665</ele><time>2026-04-11T09:41:50.02Z</time></trkpt><trkpt lat="44.715296174520965" lon="12.232779506056009"><ele>4.0</ele><time>2026-04-11T09:41:51.02Z</time></trkpt><trkpt lat="44.71551618771153" lon="12.232857658693314"><ele>6.0</ele><time>2026-04-11T09:41:52.02Z</time></trkpt><trkpt lat="44.71575630723071" lon="12.232893956236891"><ele>8.0</ele><time>2026-04-11T09:41:53.02Z</time></trkpt><trkpt lat="44.71601430188833" lon="12.232979937844528"><ele>4.0</ele><time>2026-04-11T09:41:54.02Z</time></trkpt><trkpt lat="44.71628038020972" lon="12.233042967806798"><ele>0.0</ele><time>2026-04-11T09:41:55.02Z</time></trkpt><trkpt lat="44.71654852772867" lon="12.233106487937283"><ele>2.0</ele><time>2026-04-11T09:41:56.02Z</time></trkpt><trkpt lat="44.71681886144427" lon="12.233171326339427"><ele>4.0</ele><time>2026-04-11T09:41:57.02Z</time></trkpt><trkpt lat="44.71710125418752" lon="12.233239183765713"><ele>4.5</ele><time>2026-04-11T09:41:58.022Z</time></trkpt><trkpt lat="44.71737345390634" lon="12.233303747294604"><ele>5.0</ele><time>2026-04-11T09:41:59.022Z</time></trkpt><trkpt lat="44.71763052090323" lon="12.23336438678047"><ele>3.5</ele><time>2026-04-11T09:42:00.022Z</time></trkpt><trkpt lat="44.71787065997045" lon="12.233421032998466"><ele>2.0</ele><time>2026-04-11T09:42:01.022Z</time></trkpt><trkpt lat="44.71809048501082" lon="12.233450542607411"><ele>2.0</ele><time>2026-04-11T09:42:02.022Z</time></trkpt><trkpt lat="44.71829187500704" lon="12.233517912898177"><ele>2.0</ele><time>2026-04-11T09:42:03.022Z</time></trkpt><trkpt lat="44.71848240004196" lon="12.233568368898464"><ele>2.0</ele><time>2026-04-11T09:42:04.022Z</time></trkpt><trkpt lat="44.71865105485721" lon="12.233617972836692"><ele>2.0</ele><time>2026-04-11T09:42:05.022Z</time></trkpt><trkpt lat="44.7187996026337" lon="12.233662713213386"><ele>2.0</ele><time>2026-04-11T09:42:06.022Z</time></trkpt><trkpt lat="44.71892734318238" lon="12.233698869387377"><ele>2.0</ele><time>2026-04-11T09:42:07.022Z</time></trkpt><trkpt lat="44.719040285439384" lon="12.233731104376593"><ele>2.0</ele><time>2026-04-11T09:42:08.022Z</time></trkpt><trkpt lat="44.719137833438985" lon="12.23374982419988"><ele>1.9999999999999998</ele><time>2026-04-11T09:42:09.022Z</time></trkpt><trkpt lat="44.71921064244925" lon="12.233747996967365"><ele>2.0</ele><time>2026-04-11T09:42:10.021Z</time></trkpt><trkpt lat="44.71930525556505" lon="12.23377124282291"><ele>2.0</ele><time>2026-04-11T09:42:12.022Z</time></trkpt><trkpt lat="44.71935760095701" lon="12.233676374973118"><ele>2.0</ele><time>2026-04-11T09:42:38.021Z</time></trkpt><trkpt lat="44.71943892814751" lon="12.233706159544179"><ele>1.9999999999999998</ele><time>2026-04-11T09:42:40.021Z</time></trkpt><trkpt lat="44.71952783868043" lon="12.233733189667506"><ele>2.0</ele><time>2026-04-11T09:42:41.021Z</time></trkpt><trkpt lat="44.719637014671434" lon="12.233766671430018"><ele>1.6666666666666665</ele><time>2026-04-11T09:42:42.021Z</time></trkpt><trkpt lat="44.71976922032216" lon="12.233800604814235"><ele>1.3333333333333333</ele><time>2026-04-11T09:42:43.021Z</time></trkpt><trkpt lat="44.7199261371175" lon="12.233846358539616"><ele>1.0</ele><time>2026-04-11T09:42:44.021Z</time></trkpt><trkpt lat="44.72009835808996" lon="12.233904519795345"><ele>1.3333333333333333</ele><time>2026-04-11T09:42:45.021Z</time></trkpt><trkpt lat="44.72028072815839" lon="12.233965066650688"><ele>1.6666666666666665</ele><time>2026-04-11T09:42:46.021Z</time></trkpt><trkpt lat="44.72047818077903" lon="12.234025171202436"><ele>2.0</ele><time>2026-04-11T09:42:47.021Z</time></trkpt><trkpt lat="44.72067214079754" lon="12.234173556747653"><ele>2.0</ele><time>2026-04-11T09:42:48.021Z</time></trkpt><trkpt lat="44.7208802873145" lon="12.234238381951267"><ele>2.0</ele><time>2026-04-11T09:42:49.021Z</time></trkpt><trkpt lat="44.72109422775226" lon="12.234305011608722"><ele>2.0</ele><time>2026-04-11T09:42:50.021Z</time></trkpt><trkpt lat="44.7213076092601" lon="12.234371473386513"><ele>1.6666666666666665</ele><time>2026-04-11T09:42:51.021Z</time></trkpt><trkpt lat="44.72151474531349" lon="12.2344359940797"><ele>1.3333333333333333</ele><time>2026-04-11T09:42:52.021Z</time></trkpt><trkpt lat="44.72171722366443" lon="12.234499063836655"><ele>1.0</ele><time>2026-04-11T09:42:53.021Z</time></trkpt><trkpt lat="44.72191008906933" lon="12.234564964736933"><ele>0.6666666666666666</ele><time>2026-04-11T09:42:54.021Z</time></trkpt><trkpt lat="44.72209549446657" lon="12.234632510327009"><ele>0.3333333333333333</ele><time>2026-04-11T09:42:55.021Z</time></trkpt><trkpt lat="44.72226971305077" lon="12.234690855937918"><ele>0.0</ele><time>2026-04-11T09:42:56.021Z</time></trkpt><trkpt lat="44.72244306135171" lon="12.234746752537612"><ele>0.0</ele><time>2026-04-11T09:42:57.021Z</time></trkpt><trkpt lat="44.72262154689106" lon="12.23479303412976"><ele>0.0</ele><time>2026-04-11T09:42:58.021Z</time></trkpt><trkpt lat="44.72280264125766" lon="12.23482859458581"><ele>0.0</ele><time>2026-04-11T09:42:59.021Z</time></trkpt><trkpt lat="44.72299072303808" lon="12.23483419356282"><ele>0.3333333333333333</ele><time>2026-04-11T09:43:00.021Z</time></trkpt><trkpt lat="44.723168709031754" lon="12.23479684179989"><ele>0.6666666666666666</ele><time>2026-04-11T09:43:01.021Z</time></trkpt><trkpt lat="44.72334435553631" lon="12.234738079578209"><ele>1.0</ele><time>2026-04-11T09:43:02.021Z</time></trkpt><trkpt lat="44.723529838498855" lon="12.234619844390048"><ele>2.3333333333333335</ele><time>2026-04-11T09:43:03.021Z</time></trkpt><trkpt lat="44.72370287082752" lon="12.234445344497127"><ele>3.666666666666667</ele><time>2026-04-11T09:43:04.021Z</time></trkpt><trkpt lat="44.72387699077822" lon="12.234262539004543"><ele>5.0</ele><time>2026-04-11T09:43:05.021Z</time></trkpt><trkpt lat="44.724016364472575" lon="12.234044552131405"><ele>5.0</ele><time>2026-04-11T09:43:06.021Z</time></trkpt><trkpt lat="44.72411785693137" lon="12.233786406487052"><ele>5.0</ele><time>2026-04-11T09:43:07.021Z</time></trkpt><trkpt lat="44.72419711102906" lon="12.233509365369189"><ele>5.0</ele><time>2026-04-11T09:43:08.021Z</time></trkpt><trkpt lat="44.72426126503133" lon="12.23321032299676"><ele>4.0</ele><time>2026-04-11T09:43:09.021Z</time></trkpt><trkpt lat="44.724324336817155" lon="12.232869701633687"><ele>3.0</ele><time>2026-04-11T09:43:10.021Z</time></trkpt><trkpt lat="44.72438996330867" lon="12.232514510223272"><ele>1.5</ele><time>2026-04-11T09:43:11.021Z</time></trkpt><trkpt lat="44.72445991704627" lon="12.23213267972596"><ele>0.0</ele><time>2026-04-11T09:43:12.021Z</time></trkpt><trkpt lat="44.724530216326535" lon="12.231746275157603"><ele>0.0</ele><time>2026-04-11T09:43:13.021Z</time></trkpt><trkpt lat="44.724602958533985" lon="12.231346443083645"><ele>0.0</ele><time>2026-04-11T09:43:14.021Z</time></trkpt><trkpt lat="44.724680604344655" lon="12.23092643692427"><ele>-0.5</ele><time>2026-04-11T09:43:15.021Z</time></trkpt><trkpt lat="44.72475827681321" lon="12.230509099316235"><ele>-1.0</ele><time>2026-04-11T09:43:16.021Z</time></trkpt><trkpt lat="44.72483460621602" lon="12.230098893200404"><ele>-1.5</ele><time>2026-04-11T09:43:17.021Z</time></trkpt><trkpt lat="44.72490992366347" lon="12.229690324298481"><ele>-2.0</ele><time>2026-04-11T09:43:18.021Z</time></trkpt><trkpt lat="44.72498293701272" lon="12.229292295375483"><ele>-2.0</ele><time>2026-04-11T09:43:19.021Z</time></trkpt><trkpt lat="44.72505146220617" lon="12.228915852925677"><ele>-2.0</ele><time>2026-04-11T09:43:20.021Z</time></trkpt><trkpt lat="44.725115272361485" lon="12.228563064330187"><ele>-2.0</ele><time>2026-04-11T09:43:21.021Z</time></trkpt><trkpt lat="44.72517443440144" lon="12.228230999138235"><ele>-2.0</ele><time>2026-04-11T09:43:22.021Z</time></trkpt><trkpt lat="44.72523223113306" lon="12.227906809038132"><ele>-2.333333333333333</ele><time>2026-04-11T09:43:23.021Z</time></trkpt><trkpt lat="44.725286838203225" lon="12.227595069658163"><ele>-2.6666666666666665</ele><time>2026-04-11T09:43:24.021Z</time></trkpt><trkpt lat="44.72531466827694" lon="12.227293725541305"><ele>-3.0</ele><time>2026-04-11T09:43:25.021Z</time></trkpt><trkpt lat="44.72536841329138" lon="12.227032665903765"><ele>-2.0</ele><time>2026-04-11T09:43:26.021Z</time></trkpt><trkpt lat="44.72543002999609" lon="12.226781744917675"><ele>-1.0</ele><time>2026-04-11T09:43:27.021Z</time></trkpt><trkpt lat="44.72551715595726" lon="12.226542911883495"><ele>0.0</ele><time>2026-04-11T09:43:28.021Z</time></trkpt><trkpt lat="44.72562970343309" lon="12.226320839266782"><ele>0.0</ele><time>2026-04-11T09:43:29.021Z</time></trkpt><trkpt lat="44.72577572768723" lon="12.226127128540837"><ele>0.0</ele><time>2026-04-11T09:43:30.021Z</time></trkpt><trkpt lat="44.72593754052369" lon="12.225951523041253"><ele>0.0</ele><time>2026-04-11T09:43:31.021Z</time></trkpt><trkpt lat="44.72612871824457" lon="12.225829475636257"><ele>0.0</ele><time>2026-04-11T09:43:32.021Z</time></trkpt><trkpt lat="44.726328366759034" lon="12.225738658688565"><ele>0.0</ele><time>2026-04-11T09:43:33.021Z</time></trkpt><trkpt lat="44.72654956851926" lon="12.225679160089106"><ele>0.0</ele><time>2026-04-11T09:43:34.021Z</time></trkpt><trkpt lat="44.7267816548876" lon="12.225658710165652"><ele>0.0</ele><time>2026-04-11T09:43:35.021Z</time></trkpt><trkpt lat="44.72701890705613" lon="12.225694161662878"><ele>0.0</ele><time>2026-04-11T09:43:36.021Z</time></trkpt><trkpt lat="44.72725370279235" lon="12.225775138939607"><ele>0.0</ele><time>2026-04-11T09:43:37.021Z</time></trkpt><trkpt lat="44.72749699375068" lon="12.225851245096658"><ele>0.0</ele><time>2026-04-11T09:43:38.021Z</time></trkpt><trkpt lat="44.727746368752804" lon="12.22594693087495"><ele>-0.5</ele><time>2026-04-11T09:43:39.021Z</time></trkpt><trkpt lat="44.7280155286712" lon="12.226082178899826"><ele>-1.0</ele><time>2026-04-11T09:43:40.021Z</time></trkpt><trkpt lat="44.72829587098503" lon="12.22615825226278"><ele>-0.5</ele><time>2026-04-11T09:43:41.021Z</time></trkpt><trkpt lat="44.72856041590379" lon="12.226230038817713"><ele>0.0</ele><time>2026-04-11T09:43:42.021Z</time></trkpt><trkpt lat="44.728846595927294" lon="12.226307696397052"><ele>0.0</ele><time>2026-04-11T09:43:43.021Z</time></trkpt><trkpt lat="44.72912536408381" lon="12.22638334262177"><ele>0.0</ele><time>2026-04-11T09:43:44.021Z</time></trkpt><trkpt lat="44.72940365777659" lon="12.226458860665739"><ele>0.0</ele><time>2026-04-11T09:43:45.021Z</time></trkpt><trkpt lat="44.72968564785085" lon="12.22653552358189"><ele>0.0</ele><time>2026-04-11T09:43:46.021Z</time></trkpt><trkpt lat="44.72996454918579" lon="12.226611592079779"><ele>1.0</ele><time>2026-04-11T09:43:47.021Z</time></trkpt><trkpt lat="44.73023756056945" lon="12.226686088920646"><ele>2.0</ele><time>2026-04-11T09:43:48.021Z</time></trkpt><trkpt lat="44.73049955200321" lon="12.226756305082397"><ele>2.0</ele><time>2026-04-11T09:43:49.021Z</time></trkpt><trkpt lat="44.73075128362818" lon="12.226825789976285"><ele>2.0</ele><time>2026-04-11T09:43:50.021Z</time></trkpt><trkpt lat="44.730997479861976" lon="12.226893341816616"><ele>1.5</ele><time>2026-04-11T09:43:51.021Z</time></trkpt><trkpt lat="44.7312397296382" lon="12.226959599309378"><ele>1.0</ele><time>2026-04-11T09:43:52.021Z</time></trkpt><trkpt lat="44.731473986599255" lon="12.227023933544562"><ele>1.0</ele><time>2026-04-11T09:43:53.021Z</time></trkpt><trkpt lat="44.731706912813856" lon="12.227096154263078"><ele>1.0</ele><time>2026-04-11T09:43:54.021Z</time></trkpt><trkpt lat="44.73193515848739" lon="12.227178184826933"><ele>1.0</ele><time>2026-04-11T09:43:55.021Z</time></trkpt><trkpt lat="44.73215053162279" lon="12.227266419151512"><ele>1.0</ele><time>2026-04-11T09:43:56.021Z</time></trkpt><trkpt lat="44.732357352087185" lon="12.227353126780093"><ele>1.0</ele><time>2026-04-11T09:43:57.021Z</time></trkpt><trkpt lat="44.732548212904106" lon="12.22743386470387"><ele>1.3333333333333333</ele><time>2026-04-11T09:43:58.021Z</time></trkpt><trkpt lat="44.73272626597621" lon="12.227509184529547"><ele>1.6666666666666665</ele><time>2026-04-11T09:43:59.021Z</time></trkpt><trkpt lat="44.732895684442326" lon="12.227581927703321"><ele>2.0</ele><time>2026-04-11T09:44:00.021Z</time></trkpt><trkpt lat="44.73307390535613" lon="12.227658928153767"><ele>2.0</ele><time>2026-04-11T09:44:01.021Z</time></trkpt><trkpt lat="44.73325952742397" lon="12.227739126204273"><ele>2.0</ele><time>2026-04-11T09:44:02.021Z</time></trkpt><trkpt lat="44.73343432084226" lon="12.227814776404049"><ele>2.0</ele><time>2026-04-11T09:44:03.021Z</time></trkpt><trkpt lat="44.73359987306199" lon="12.227876660802321"><ele>1.5</ele><time>2026-04-11T09:44:04.023Z</time></trkpt><trkpt lat="44.733747726091885" lon="12.22795123835256"><ele>1.0</ele><time>2026-04-11T09:44:05.022Z</time></trkpt><trkpt lat="44.73388280268366" lon="12.22801525000651"><ele>0.5</ele><time>2026-04-11T09:44:06.022Z</time></trkpt><trkpt lat="44.734010705470084" lon="12.228075060463254"><ele>0.0</ele><time>2026-04-11T09:44:07.023Z</time></trkpt><trkpt lat="44.73413353287085" lon="12.228129382515336"><ele>0.2</ele><time>2026-04-11T09:44:08.022Z</time></trkpt><trkpt lat="44.73425001557052" lon="12.228180172969813"><ele>0.4</ele><time>2026-04-11T09:44:09.022Z</time></trkpt><trkpt lat="44.73434963989688" lon="12.22821522243396"><ele>0.6000000000000001</ele><time>2026-04-11T09:44:10.022Z</time></trkpt><trkpt lat="44.734438846960124" lon="12.228247636046397"><ele>0.8</ele><time>2026-04-11T09:44:11.022Z</time></trkpt><trkpt lat="44.734519488859135" lon="12.228287888585657"><ele>1.0</ele><time>2026-04-11T09:44:12.022Z</time></trkpt><trkpt lat="44.73459038166286" lon="12.228313288894682"><ele>1.0</ele><time>2026-04-11T09:44:13.022Z</time></trkpt><trkpt lat="44.7346520376473" lon="12.228337796455488"><ele>1.0</ele><time>2026-04-11T09:44:14.022Z</time></trkpt><trkpt lat="44.734751858359246" lon="12.228380472744432"><ele>1.0</ele><time>2026-04-11T09:44:16.022Z</time></trkpt><trkpt lat="44.73487110502922" lon="12.228437575204463"><ele>1.0</ele><time>2026-04-11T09:44:18.022Z</time></trkpt><trkpt lat="44.73498025589782" lon="12.228485842808517"><ele>1.0</ele><time>2026-04-11T09:44:19.022Z</time></trkpt><trkpt lat="44.73510250580059" lon="12.228539392859176"><ele>1.0</ele><time>2026-04-11T09:44:20.022Z</time></trkpt><trkpt lat="44.73521783761593" lon="12.228589774112704"><ele>1.0</ele><time>2026-04-11T09:44:21.022Z</time></trkpt><trkpt lat="44.73532033871024" lon="12.228609132253496"><ele>1.0</ele><time>2026-04-11T09:44:22.022Z</time></trkpt><trkpt lat="44.73542586721851" lon="12.22865800648936"><ele>1.0</ele><time>2026-04-11T09:44:23.022Z</time></trkpt><trkpt lat="44.73555155036689" lon="12.228712782782049"><ele>1.0</ele><time>2026-04-11T09:44:24.022Z</time></trkpt><trkpt lat="44.73568819322565" lon="12.228792018286951"><ele>1.0</ele><time>2026-04-11T09:44:25.022Z</time></trkpt><trkpt lat="44.73584519191277" lon="12.228860933141593"><ele>1.0</ele><time>2026-04-11T09:44:26.022Z</time></trkpt><trkpt lat="44.73602890622149" lon="12.228941659008393"><ele>0.3333333333333333</ele><time>2026-04-11T09:44:27.022Z</time></trkpt><trkpt lat="44.73622302781954" lon="12.229026957881976"><ele>-0.3333333333333333</ele><time>2026-04-11T09:44:28.022Z</time></trkpt><trkpt lat="44.73644761662312" lon="12.229125066450122"><ele>-1.0</ele><time>2026-04-11T09:44:29.022Z</time></trkpt><trkpt lat="44.7366833564602" lon="12.229226813160786"><ele>-1.0</ele><time>2026-04-11T09:44:30.022Z</time></trkpt><trkpt lat="44.7369288743537" lon="12.22933278034251"><ele>-1.0</ele><time>2026-04-11T09:44:31.022Z</time></trkpt><trkpt lat="44.737176281232436" lon="12.229439562583563"><ele>-1.0</ele><time>2026-04-11T09:44:32.022Z</time></trkpt><trkpt lat="44.737432986668395" lon="12.22955035834625"><ele>-1.0</ele><time>2026-04-11T09:44:33.022Z</time></trkpt><trkpt lat="44.73768474369584" lon="12.22965902000846"><ele>-0.5</ele><time>2026-04-11T09:44:34.022Z</time></trkpt><trkpt lat="44.737945901424546" lon="12.229771737344468"><ele>0.0</ele><time>2026-04-11T09:44:35.022Z</time></trkpt><trkpt lat="44.73820419579577" lon="12.229883218771379"><ele>0.0</ele><time>2026-04-11T09:44:36.022Z</time></trkpt><trkpt lat="44.73846023194537" lon="12.229993724667137"><ele>0.0</ele><time>2026-04-11T09:44:37.022Z</time></trkpt><trkpt lat="44.73871672038689" lon="12.230104426665164"><ele>-0.5</ele><time>2026-04-11T09:44:38.022Z</time></trkpt><trkpt lat="44.738976963136025" lon="12.230216044823562"><ele>-1.0</ele><time>2026-04-11T09:44:39.022Z</time></trkpt><trkpt lat="44.73922640976352" lon="12.230324288858972"><ele>-1.0</ele><time>2026-04-11T09:44:40.022Z</time></trkpt><trkpt lat="44.73947119108002" lon="12.23043141925169"><ele>-1.0</ele><time>2026-04-11T09:44:41.022Z</time></trkpt><trkpt lat="44.739711186493444" lon="12.230542304602027"><ele>0.0</ele><time>2026-04-11T09:44:42.022Z</time></trkpt><trkpt lat="44.73995382235677" lon="12.230664506172976"><ele>1.0</ele><time>2026-04-11T09:44:43.022Z</time></trkpt><trkpt lat="44.74019751202561" lon="12.230801697814895"><ele>-0.5</ele><time>2026-04-11T09:44:44.022Z</time></trkpt><trkpt lat="44.7404420412386" lon="12.230959845497791"><ele>-2.0</ele><time>2026-04-11T09:44:45.022Z</time></trkpt><trkpt lat="44.74069504199041" lon="12.231133983970455"><ele>-2.0</ele><time>2026-04-11T09:44:46.022Z</time></trkpt><trkpt lat="44.740957950647555" lon="12.23131414301352"><ele>-2.0</ele><time>2026-04-11T09:44:47.022Z</time></trkpt><trkpt lat="44.741220325034774" lon="12.23149364074788"><ele>-1.0</ele><time>2026-04-11T09:44:48.022Z</time></trkpt><trkpt lat="44.74148505248577" lon="12.23167699143736"><ele>0.0</ele><time>2026-04-11T09:44:49.022Z</time></trkpt><trkpt lat="44.74175076537279" lon="12.231861646998684"><ele>-1.0</ele><time>2026-04-11T09:44:50.022Z</time></trkpt><trkpt lat="44.742016832426486" lon="12.232046548719836"><ele>-2.0</ele><time>2026-04-11T09:44:51.022Z</time></trkpt><trkpt lat="44.7422862942401" lon="12.232233809640123"><ele>-2.0</ele><time>2026-04-11T09:44:52.022Z</time></trkpt><trkpt lat="44.74255936825056" lon="12.232422424101127"><ele>-2.0</ele><time>2026-04-11T09:44:53.022Z</time></trkpt><trkpt lat="44.742843534247015" lon="12.232617902007295"><ele>-2.0</ele><time>2026-04-11T09:44:54.022Z</time></trkpt><trkpt lat="44.74312225304296" lon="12.232809632930321"><ele>-2.0</ele><time>2026-04-11T09:44:55.022Z</time></trkpt><trkpt lat="44.743399311956004" lon="12.233000221930887"><ele>-1.5</ele><time>2026-04-11T09:44:56.022Z</time></trkpt><trkpt lat="44.74367928317756" lon="12.233192814237782"><ele>-1.0</ele><time>2026-04-11T09:44:57.022Z</time></trkpt><trkpt lat="44.7439621492459" lon="12.233387398135157"><ele>-1.0</ele><time>2026-04-11T09:44:58.022Z</time></trkpt><trkpt lat="44.744249372051975" lon="12.233584978915745"><ele>-1.0</ele><time>2026-04-11T09:44:59.022Z</time></trkpt><trkpt lat="44.74453548161511" lon="12.23378223132703"><ele>-1.5</ele><time>2026-04-11T09:45:00.022Z</time></trkpt><trkpt lat="44.744827350230395" lon="12.233983738354997"><ele>-2.0</ele><time>2026-04-11T09:45:01.022Z</time></trkpt><trkpt lat="44.74511637512676" lon="12.234183283424658"><ele>-2.0</ele><time>2026-04-11T09:45:02.022Z</time></trkpt><trkpt lat="44.745412928329124" lon="12.234388142440459"><ele>-2.0</ele><time>2026-04-11T09:45:03.022Z</time></trkpt><trkpt lat="44.74570359247629" lon="12.234590636154786"><ele>-2.0</ele><time>2026-04-11T09:45:04.022Z</time></trkpt><trkpt lat="44.74599389586505" lon="12.23479287856374"><ele>-2.0</ele><time>2026-04-11T09:45:05.022Z</time></trkpt><trkpt lat="44.746282208396835" lon="12.234992893104815"><ele>-2.0</ele><time>2026-04-11T09:45:06.022Z</time></trkpt><trkpt lat="44.74656581150243" lon="12.235186951813631"><ele>-2.0</ele><time>2026-04-11T09:45:07.022Z</time></trkpt><trkpt lat="44.746844034976405" lon="12.235377529350755"><ele>-2.0</ele><time>2026-04-11T09:45:08.022Z</time></trkpt><trkpt lat="44.74712195622164" lon="12.235568479898703"><ele>-2.0</ele><time>2026-04-11T09:45:09.022Z</time></trkpt><trkpt lat="44.747382379771736" lon="12.235750408034818"><ele>-2.0</ele><time>2026-04-11T09:45:10.022Z</time></trkpt><trkpt lat="44.74762290572171" lon="12.235918036840342"><ele>-2.0</ele><time>2026-04-11T09:45:11.022Z</time></trkpt><trkpt lat="44.74785022717753" lon="12.236074439430963"><ele>-2.0</ele><time>2026-04-11T09:45:12.022Z</time></trkpt><trkpt lat="44.74807440051799" lon="12.236228676054642"><ele>-2.0</ele><time>2026-04-11T09:45:13.022Z</time></trkpt><trkpt lat="44.74828941506925" lon="12.236364228612377"><ele>-1.0</ele><time>2026-04-11T09:45:14.022Z</time></trkpt><trkpt lat="44.74849437364751" lon="12.236504758700987"><ele>0.0</ele><time>2026-04-11T09:45:15.022Z</time></trkpt><trkpt lat="44.74869822646976" lon="12.236644895523664"><ele>0.0</ele><time>2026-04-11T09:45:16.022Z</time></trkpt><trkpt lat="44.748893212916855" lon="12.23678381971391"><ele>0.0</ele><time>2026-04-11T09:45:17.022Z</time></trkpt><trkpt lat="44.74906999667281" lon="12.23691902034349"><ele>0.0</ele><time>2026-04-11T09:45:18.022Z</time></trkpt><trkpt lat="44.749248730926986" lon="12.237046941612816"><ele>0.0</ele><time>2026-04-11T09:45:19.022Z</time></trkpt><trkpt lat="44.74941930136622" lon="12.237137597444493"><ele>0.0</ele><time>2026-04-11T09:45:20.022Z</time></trkpt><trkpt lat="44.749590212291" lon="12.237194953289215"><ele>0.0</ele><time>2026-04-11T09:45:21.022Z</time></trkpt><trkpt lat="44.74974947260128" lon="12.237213880218246"><ele>0.0</ele><time>2026-04-11T09:45:22.022Z</time></trkpt><trkpt lat="44.749931262239954" lon="12.237210784740816"><ele>0.0</ele><time>2026-04-11T09:45:23.022Z</time></trkpt><trkpt lat="44.7501205590915" lon="12.237159836426631"><ele>0.0</ele><time>2026-04-11T09:45:24.022Z</time></trkpt><trkpt lat="44.75030568032997" lon="12.23706885897719"><ele>0.3333333333333333</ele><time>2026-04-11T09:45:25.022Z</time></trkpt><trkpt lat="44.75048150994294" lon="12.236952445051061"><ele>0.6666666666666666</ele><time>2026-04-11T09:45:26.022Z</time></trkpt><trkpt lat="44.7506443431975" lon="12.236795538202953"><ele>1.0</ele><time>2026-04-11T09:45:27.022Z</time></trkpt><trkpt lat="44.750795145028995" lon="12.236612307289203"><ele>1.0</ele><time>2026-04-11T09:45:28.022Z</time></trkpt><trkpt lat="44.75092832336485" lon="12.236387582117471"><ele>1.0</ele><time>2026-04-11T09:45:29.022Z</time></trkpt><trkpt lat="44.75105779973365" lon="12.236120940786103"><ele>1.0</ele><time>2026-04-11T09:45:30.022Z</time></trkpt><trkpt lat="44.75119630439258" lon="12.235817274222098"><ele>0.0</ele><time>2026-04-11T09:45:31.022Z</time></trkpt><trkpt lat="44.751335086550206" lon="12.23549560421376"><ele>-1.0</ele><time>2026-04-11T09:45:32.022Z</time></trkpt><trkpt lat="44.75148548456801" lon="12.235168354755048"><ele>-1.0</ele><time>2026-04-11T09:45:33.022Z</time></trkpt><trkpt lat="44.75164245021241" lon="12.234834299412771"><ele>-1.0</ele><time>2026-04-11T09:45:34.022Z</time></trkpt><trkpt lat="44.75180025088832" lon="12.234500074159936"><ele>-0.5</ele><time>2026-04-11T09:45:35.022Z</time></trkpt><trkpt lat="44.75196264849214" lon="12.234163112257553"><ele>0.0</ele><time>2026-04-11T09:45:36.022Z</time></trkpt><trkpt lat="44.752121353580534" lon="12.233827336350332"><ele>0.0</ele><time>2026-04-11T09:45:37.022Z</time></trkpt><trkpt lat="44.752269526216175" lon="12.233514767204115"><ele>0.0</ele><time>2026-04-11T09:45:38.022Z</time></trkpt><trkpt lat="44.7524049678183" lon="12.23321071888935"><ele>-0.5</ele><time>2026-04-11T09:45:39.022Z</time></trkpt><trkpt lat="44.752523199223496" lon="12.232925777039156"><ele>-1.0</ele><time>2026-04-11T09:45:40.022Z</time></trkpt><trkpt lat="44.752623940997545" lon="12.232632077854598"><ele>-1.0</ele><time>2026-04-11T09:45:41.022Z</time></trkpt><trkpt lat="44.75272689642668" lon="12.232323584974726"><ele>-1.0</ele><time>2026-04-11T09:45:42.022Z</time></trkpt><trkpt lat="44.75282885724322" lon="12.231993235925948"><ele>-1.0</ele><time>2026-04-11T09:45:43.022Z</time></trkpt><trkpt lat="44.75292712644155" lon="12.231661427377578"><ele>-1.0</ele><time>2026-04-11T09:45:44.022Z</time></trkpt><trkpt lat="44.75303242005016" lon="12.231328439521665"><ele>-1.0</ele><time>2026-04-11T09:45:45.022Z</time></trkpt><trkpt lat="44.75314047279611" lon="12.230993140659992"><ele>-1.0</ele><time>2026-04-11T09:45:46.022Z</time></trkpt><trkpt lat="44.75324812660152" lon="12.230664795419207"><ele>-1.5</ele><time>2026-04-11T09:45:47.022Z</time></trkpt><trkpt lat="44.75335652082197" lon="12.230343617955839"><ele>-2.0</ele><time>2026-04-11T09:45:48.022Z</time></trkpt><trkpt lat="44.75345320145391" lon="12.23003496030504"><ele>-0.5</ele><time>2026-04-11T09:45:49.022Z</time></trkpt><trkpt lat="44.753556472995356" lon="12.229740185235489"><ele>1.0</ele><time>2026-04-11T09:45:50.022Z</time></trkpt><trkpt lat="44.75366514863252" lon="12.229470493049527"><ele>1.0</ele><time>2026-04-11T09:45:51.022Z</time></trkpt><trkpt lat="44.753798064234374" lon="12.229235030770193"><ele>1.0</ele><time>2026-04-11T09:45:52.022Z</time></trkpt><trkpt lat="44.75395661058515" lon="12.2290391045525"><ele>1.0</ele><time>2026-04-11T09:45:53.022Z</time></trkpt><trkpt lat="44.7541339530905" lon="12.228884279568852"><ele>1.0</ele><time>2026-04-11T09:45:54.022Z</time></trkpt><trkpt lat="44.754333659526615" lon="12.22877276171601"><ele>1.0</ele><time>2026-04-11T09:45:55.022Z</time></trkpt><trkpt lat="44.754549785826164" lon="12.22869308650497"><ele>1.0</ele><time>2026-04-11T09:45:56.022Z</time></trkpt><trkpt lat="44.75477449985791" lon="12.228668090076997"><ele>1.0</ele><time>2026-04-11T09:45:57.022Z</time></trkpt><trkpt lat="44.75500031114237" lon="12.22872090743134"><ele>1.0</ele><time>2026-04-11T09:45:58.022Z</time></trkpt><trkpt lat="44.7552052658725" lon="12.228854084827653"><ele>1.0</ele><time>2026-04-11T09:45:59.022Z</time></trkpt><trkpt lat="44.755425744344144" lon="12.22894466871363"><ele>1.0</ele><time>2026-04-11T09:46:00.022Z</time></trkpt><trkpt lat="44.755660805581776" lon="12.229044755749307"><ele>1.0</ele><time>2026-04-11T09:46:01.022Z</time></trkpt><trkpt lat="44.755899557093976" lon="12.229146414084372"><ele>1.0</ele><time>2026-04-11T09:46:02.022Z</time></trkpt><trkpt lat="44.75614179022405" lon="12.229249554683191"><ele>1.5</ele><time>2026-04-11T09:46:03.022Z</time></trkpt><trkpt lat="44.756381944613" lon="12.229330274311554"><ele>2.0</ele><time>2026-04-11T09:46:04.022Z</time></trkpt><trkpt lat="44.75660229578437" lon="12.229422346484961"><ele>2.0</ele><time>2026-04-11T09:46:05.022Z</time></trkpt><trkpt lat="44.75680591706426" lon="12.229516802422948"><ele>2.0</ele><time>2026-04-11T09:46:06.022Z</time></trkpt><trkpt lat="44.757001025621044" lon="12.229603484889303"><ele>2.0</ele><time>2026-04-11T09:46:07.022Z</time></trkpt><trkpt lat="44.75718775082215" lon="12.229697497653403"><ele>1.6666666666666665</ele><time>2026-04-11T09:46:08.021Z</time></trkpt><trkpt lat="44.75734502393868" lon="12.229762042932064"><ele>1.3333333333333333</ele><time>2026-04-11T09:46:09.021Z</time></trkpt><trkpt lat="44.757491714899004" lon="12.229807999473557"><ele>1.0</ele><time>2026-04-11T09:46:10.022Z</time></trkpt><trkpt lat="44.75762982453344" lon="12.229873372248202"><ele>1.0</ele><time>2026-04-11T09:46:11.023Z</time></trkpt><trkpt lat="44.75775349973114" lon="12.229924419087439"><ele>1.0</ele><time>2026-04-11T09:46:12.023Z</time></trkpt><trkpt lat="44.75786330946035" lon="12.229958510963463"><ele>1.0</ele><time>2026-04-11T09:46:13.023Z</time></trkpt><trkpt lat="44.75796858977645" lon="12.230041988539567"><ele>1.0</ele><time>2026-04-11T09:46:14.022Z</time></trkpt><trkpt lat="44.758067253832586" lon="12.230088766763048"><ele>0.9999999999999999</ele><time>2026-04-11T09:46:15.022Z</time></trkpt><trkpt lat="44.758144979250645" lon="12.23012320483118"><ele>1.0</ele><time>2026-04-11T09:46:16.023Z</time></trkpt><trkpt lat="44.75821063514052" lon="12.230163256101784"><ele>1.0</ele><time>2026-04-11T09:46:17.022Z</time></trkpt><trkpt lat="44.758265203052936" lon="12.230215672302155"><ele>1.0</ele><time>2026-04-11T09:46:18.022Z</time></trkpt><trkpt lat="44.75831707193807" lon="12.230367418361435"><ele>0.9999999999999999</ele><time>2026-04-11T09:46:20.023Z</time></trkpt><trkpt lat="44.75830476424912" lon="12.230472077033022"><ele>1.0</ele><time>2026-04-11T09:46:21.023Z</time></trkpt><trkpt lat="44.758253783490694" lon="12.230555820434997"><ele>1.0</ele><time>2026-04-11T09:46:22.023Z</time></trkpt><trkpt lat="44.75817959926808" lon="12.230613959754415"><ele>1.0</ele><time>2026-04-11T09:46:23.022Z</time></trkpt><trkpt lat="44.7580786836553" lon="12.23064240873755"><ele>1.0</ele><time>2026-04-11T09:46:24.022Z</time></trkpt><trkpt lat="44.75795087076888" lon="12.23065660972621"><ele>1.0</ele><time>2026-04-11T09:46:25.022Z</time></trkpt><trkpt lat="44.75781055671087" lon="12.230658415072627"><ele>1.0</ele><time>2026-04-11T09:46:26.022Z</time></trkpt><trkpt lat="44.75766574388646" lon="12.230640731386446"><ele>1.0</ele><time>2026-04-11T09:46:27.022Z</time></trkpt><trkpt lat="44.757511448961445" lon="12.230604376632066"><ele>1.0</ele><time>2026-04-11T09:46:28.022Z</time></trkpt><trkpt lat="44.757360664798185" lon="12.230565868288235"><ele>1.0</ele><time>2026-04-11T09:46:29.022Z</time></trkpt><trkpt lat="44.75720792282915" lon="12.230529527743787"><ele>1.0</ele><time>2026-04-11T09:46:30.022Z</time></trkpt><trkpt lat="44.75706604120305" lon="12.230504894474977"><ele>1.0</ele><time>2026-04-11T09:46:31.022Z</time></trkpt><trkpt lat="44.75693076746975" lon="12.2305061497674"><ele>1.0</ele><time>2026-04-11T09:46:32.022Z</time></trkpt><trkpt lat="44.756796527508804" lon="12.230533363200532"><ele>0.75</ele><time>2026-04-11T09:46:33.022Z</time></trkpt><trkpt lat="44.75665901124457" lon="12.230576693426254"><ele>0.5</ele><time>2026-04-11T09:46:34.022Z</time></trkpt><trkpt lat="44.75653428566472" lon="12.230629657727587"><ele>0.25</ele><time>2026-04-11T09:46:35.022Z</time></trkpt><trkpt lat="44.75641692909912" lon="12.23068347525554"><ele>0.0</ele><time>2026-04-11T09:46:36.022Z</time></trkpt><trkpt lat="44.7563111732865" lon="12.230744463318112"><ele>0.0</ele><time>2026-04-11T09:46:37.022Z</time></trkpt><trkpt lat="44.756220372540994" lon="12.230820418367646"><ele>0.0</ele><time>2026-04-11T09:46:38.022Z</time></trkpt><trkpt lat="44.756128395872445" lon="12.230874931514395"><ele>0.0</ele><time>2026-04-11T09:46:39.022Z</time></trkpt><trkpt lat="44.75604818231005" lon="12.230953922996719"><ele>0.0</ele><time>2026-04-11T09:46:40.022Z</time></trkpt><trkpt lat="44.75598889295908" lon="12.231016742174303"><ele>0.0</ele><time>2026-04-11T09:46:41.022Z</time></trkpt><trkpt lat="44.755937358705985" lon="12.231077698030496"><ele>0.0</ele><time>2026-04-11T09:46:42.022Z</time></trkpt><trkpt lat="44.75585526232194" lon="12.231181623874766"><ele>0.2</ele><time>2026-04-11T09:46:44.022Z</time></trkpt><trkpt lat="44.75578844106652" lon="12.231279697675003"><ele>0.4</ele><time>2026-04-11T09:46:46.022Z</time></trkpt><trkpt lat="44.75583137503307" lon="12.231413697011341"><ele>0.6000000000000001</ele><time>2026-04-11T09:46:47.022Z</time></trkpt><trkpt lat="44.755848835999664" lon="12.231554814826081"><ele>0.8</ele><time>2026-04-11T09:46:49.022Z</time></trkpt><trkpt lat="44.75589356710576" lon="12.231617950324598"><ele>1.0</ele><time>2026-04-11T09:46:52.022Z</time></trkpt><trkpt lat="44.75576648006032" lon="12.2316968064837"><ele>1.0</ele><time>2026-04-11T09:46:53.022Z</time></trkpt><trkpt lat="44.75585665746525" lon="12.231786571563955"><ele>1.0</ele><time>2026-04-11T09:46:54.022Z</time></trkpt><trkpt lat="44.75575665328777" lon="12.23169806323579"><ele>1.0</ele><time>2026-04-11T09:54:12.99Z</time></trkpt><trkpt lat="44.75581104704676" lon="12.231762658736864"><ele>1.0</ele><time>2026-04-11T09:55:12.992Z</time></trkpt><trkpt lat="44.755884646291" lon="12.231771770047267"><ele>1.0</ele><time>2026-04-11T10:06:18.988Z</time></trkpt><trkpt lat="44.75592068083598" lon="12.23164733249867"><ele>1.0</ele><time>2026-04-11T10:06:20.988Z</time></trkpt><trkpt lat="44.75590271709129" lon="12.231535258140841"><ele>1.0</ele><time>2026-04-11T10:06:22.988Z</time></trkpt><trkpt lat="44.75586722217036" lon="12.231458127256527"><ele>1.0</ele><time>2026-04-11T10:06:24.988Z</time></trkpt><trkpt lat="44.75564470386934" lon="12.231582689368464"><ele>1.0</ele><time>2026-04-11T10:06:35.987Z</time></trkpt><trkpt lat="44.75559581539434" lon="12.231701863661886"><ele>1.0</ele><time>2026-04-11T10:06:36.987Z</time></trkpt><trkpt lat="44.75552180754962" lon="12.231868078197728"><ele>1.0</ele><time>2026-04-11T10:06:37.987Z</time></trkpt><trkpt lat="44.755453656921944" lon="12.232036985647373"><ele>1.0</ele><time>2026-04-11T10:06:38.987Z</time></trkpt><trkpt lat="44.75540153953387" lon="12.232213324316634"><ele>1.0</ele><time>2026-04-11T10:06:39.987Z</time></trkpt><trkpt lat="44.75533189443935" lon="12.232370309000714"><ele>1.0</ele><time>2026-04-11T10:06:40.987Z</time></trkpt><trkpt lat="44.755256410783076" lon="12.23255334950155"><ele>1.0</ele><time>2026-04-11T10:06:41.987Z</time></trkpt><trkpt lat="44.75514755291969" lon="12.23270082848608"><ele>1.0</ele><time>2026-04-11T10:06:42.987Z</time></trkpt><trkpt lat="44.755071790707696" lon="12.232882196074407"><ele>1.0</ele><time>2026-04-11T10:06:43.987Z</time></trkpt><trkpt lat="44.75500179609017" lon="12.233050388963928"><ele>1.0</ele><time>2026-04-11T10:06:44.987Z</time></trkpt><trkpt lat="44.75493664045147" lon="12.23320682298506"><ele>1.0</ele><time>2026-04-11T10:06:45.987Z</time></trkpt><trkpt lat="44.75486924631321" lon="12.233368814505745"><ele>1.0</ele><time>2026-04-11T10:06:46.987Z</time></trkpt><trkpt lat="44.75480164958488" lon="12.233531533897905"><ele>1.25</ele><time>2026-04-11T10:06:47.987Z</time></trkpt><trkpt lat="44.75472129656961" lon="12.233724960645915"><ele>1.5</ele><time>2026-04-11T10:06:48.987Z</time></trkpt><trkpt lat="44.754650222409836" lon="12.233896051289314"><ele>1.75</ele><time>2026-04-11T10:06:49.987Z</time></trkpt><trkpt lat="44.75457904580128" lon="12.234067388377133"><ele>2.0</ele><time>2026-04-11T10:06:50.987Z</time></trkpt><trkpt lat="44.75451126590298" lon="12.234230524070576"><ele>2.0</ele><time>2026-04-11T10:06:51.987Z</time></trkpt><trkpt lat="44.75443513943644" lon="12.234413586017453"><ele>2.0</ele><time>2026-04-11T10:06:52.987Z</time></trkpt><trkpt lat="44.75436142617029" lon="12.234590844841918"><ele>2.0</ele><time>2026-04-11T10:06:53.987Z</time></trkpt><trkpt lat="44.75428322708524" lon="12.234778890607712"><ele>1.3333333333333333</ele><time>2026-04-11T10:06:54.987Z</time></trkpt><trkpt lat="44.75420498036756" lon="12.234967051096218"><ele>0.6666666666666666</ele><time>2026-04-11T10:06:55.987Z</time></trkpt><trkpt lat="44.754122882779015" lon="12.2351644716671"><ele>0.0</ele><time>2026-04-11T10:06:56.987Z</time></trkpt><trkpt lat="44.75403353912186" lon="12.23538107516345"><ele>0.0</ele><time>2026-04-11T10:06:57.987Z</time></trkpt><trkpt lat="44.75394650615154" lon="12.23559318923057"><ele>0.0</ele><time>2026-04-11T10:06:58.987Z</time></trkpt><trkpt lat="44.753858457977564" lon="12.235811503172982"><ele>0.0</ele><time>2026-04-11T10:06:59.987Z</time></trkpt><trkpt lat="44.75377006902736" lon="12.236033933482737"><ele>0.0</ele><time>2026-04-11T10:07:00.987Z</time></trkpt><trkpt lat="44.753685115659295" lon="12.23625254078683"><ele>0.0</ele><time>2026-04-11T10:07:01.987Z</time></trkpt><trkpt lat="44.75359228099557" lon="12.236493314048648"><ele>0.0</ele><time>2026-04-11T10:07:02.987Z</time></trkpt><trkpt lat="44.75350705458172" lon="12.236715138557994"><ele>0.3333333333333333</ele><time>2026-04-11T10:07:03.987Z</time></trkpt><trkpt lat="44.7534162107059" lon="12.236956180743423"><ele>0.6666666666666666</ele><time>2026-04-11T10:07:04.987Z</time></trkpt><trkpt lat="44.753342137809966" lon="12.237213534318682"><ele>1.0</ele><time>2026-04-11T10:07:05.987Z</time></trkpt><trkpt lat="44.75325511316001" lon="12.237464669087384"><ele>1.0</ele><time>2026-04-11T10:07:06.987Z</time></trkpt><trkpt lat="44.75317019751405" lon="12.237715058299516"><ele>1.0</ele><time>2026-04-11T10:07:07.987Z</time></trkpt><trkpt lat="44.75307304330182" lon="12.237958800958644"><ele>1.0</ele><time>2026-04-11T10:07:08.987Z</time></trkpt><trkpt lat="44.753007696521635" lon="12.238202893910525"><ele>0.0</ele><time>2026-04-11T10:07:09.989Z</time></trkpt><trkpt lat="44.75291667877298" lon="12.238442316470113"><ele>-1.0</ele><time>2026-04-11T10:07:10.988Z</time></trkpt><trkpt lat="44.75284625478592" lon="12.238674620750537"><ele>-2.0</ele><time>2026-04-11T10:07:11.988Z</time></trkpt><trkpt lat="44.75279642096231" lon="12.238903206134516"><ele>-2.0</ele><time>2026-04-11T10:07:12.988Z</time></trkpt><trkpt lat="44.75272497268398" lon="12.23910172000423"><ele>-2.0</ele><time>2026-04-11T10:07:13.988Z</time></trkpt><trkpt lat="44.752684577619924" lon="12.239296701893757"><ele>-2.0</ele><time>2026-04-11T10:07:14.988Z</time></trkpt><trkpt lat="44.75263000725801" lon="12.23946601585214"><ele>-2.0</ele><time>2026-04-11T10:07:15.988Z</time></trkpt><trkpt lat="44.752589149608845" lon="12.239620271171109"><ele>-1.6</ele><time>2026-04-11T10:07:16.988Z</time></trkpt><trkpt lat="44.75255637565069" lon="12.239752900830936"><ele>-1.2000000000000002</ele><time>2026-04-11T10:07:17.988Z</time></trkpt><trkpt lat="44.75252716189548" lon="12.23986527409115"><ele>-0.8</ele><time>2026-04-11T10:07:18.989Z</time></trkpt><trkpt lat="44.75250297458337" lon="12.239957052331105"><ele>-0.4</ele><time>2026-04-11T10:07:19.988Z</time></trkpt><trkpt lat="44.75246255636942" lon="12.240089168835603"><ele>0.0</ele><time>2026-04-11T10:07:21.988Z</time></trkpt><trkpt lat="44.75242112950772" lon="12.240232032291155"><ele>0.0</ele><time>2026-04-11T10:07:23.988Z</time></trkpt><trkpt lat="44.75238985625826" lon="12.240359094484699"><ele>0.0</ele><time>2026-04-11T10:07:25.988Z</time></trkpt><trkpt lat="44.75236439299545" lon="12.24046255446625"><ele>0.0</ele><time>2026-04-11T10:07:28.988Z</time></trkpt><trkpt lat="44.752525195818045" lon="12.24054498316079"><ele>0.0</ele><time>2026-04-11T10:08:56.982Z</time></trkpt><trkpt lat="44.75255838207984" lon="12.240637810708245"><ele>0.0</ele><time>2026-04-11T10:09:19.983Z</time></trkpt><trkpt lat="44.7524905302358" lon="12.240637066916314"><ele>0.0</ele><time>2026-04-11T10:09:52.982Z</time></trkpt><trkpt lat="44.752456564357345" lon="12.240540452814573"><ele>0.0</ele><time>2026-04-11T10:16:15.981Z</time></trkpt><trkpt lat="44.752530535988" lon="12.240560944028633"><ele>0.0</ele><time>2026-04-11T10:26:40.971Z</time></trkpt><trkpt lat="44.75255816076063" lon="12.240645547915172"><ele>0.0</ele><time>2026-04-11T10:26:47.971Z</time></trkpt><trkpt lat="44.75255725652023" lon="12.2407479764443"><ele>0.0</ele><time>2026-04-11T10:27:27.97Z</time></trkpt><trkpt lat="44.75257270041777" lon="12.240892554506264"><ele>0.0</ele><time>2026-04-11T10:29:30.97Z</time></trkpt><trkpt lat="44.752502764506936" lon="12.240905125229864"><ele>0.0</ele><time>2026-04-11T10:58:38.972Z</time></trkpt><trkpt lat="44.75254863882046" lon="12.240838109424171"><ele>0.0</ele><time>2026-04-11T11:04:16.971Z</time></trkpt><trkpt lat="44.752596997736234" lon="12.24076254375828"><ele>0.0</ele><time>2026-04-11T11:04:32.971Z</time></trkpt><trkpt lat="44.75255758439159" lon="12.240833855955467"><ele>0.0</ele><time>2026-04-11T11:05:21.97Z</time></trkpt><trkpt lat="44.752587523980864" lon="12.24075113552384"><ele>0.0</ele><time>2026-04-11T11:06:12.97Z</time></trkpt><trkpt lat="44.75254114804286" lon="12.240683069406902"><ele>0.0</ele><time>2026-04-11T11:06:20.97Z</time></trkpt><trkpt lat="44.7525054464081" lon="12.240593077884375"><ele>0.0</ele><time>2026-04-11T11:06:31.97Z</time></trkpt><trkpt lat="44.75243922654587" lon="12.240620954164184"><ele>0.0</ele><time>2026-04-11T11:06:41.969Z</time></trkpt><trkpt lat="44.75239202536752" lon="12.240480558919653"><ele>0.0</ele><time>2026-04-11T11:09:01.969Z</time></trkpt><trkpt lat="44.752414642700764" lon="12.240251595924159"><ele>0.0</ele><time>2026-04-11T11:09:44.968Z</time></trkpt><trkpt lat="44.75244682752985" lon="12.240132181492996"><ele>0.0</ele><time>2026-04-11T11:09:45.968Z</time></trkpt><trkpt lat="44.75248434098746" lon="12.240003241190346"><ele>0.0</ele><time>2026-04-11T11:09:46.968Z</time></trkpt><trkpt lat="44.75255135110472" lon="12.239863428018772"><ele>0.0</ele><time>2026-04-11T11:09:47.968Z</time></trkpt><trkpt lat="44.75259788648727" lon="12.239693369414432"><ele>0.0</ele><time>2026-04-11T11:09:48.968Z</time></trkpt><trkpt lat="44.752647549945344" lon="12.239511880529044"><ele>0.0</ele><time>2026-04-11T11:09:49.968Z</time></trkpt><trkpt lat="44.7526973507423" lon="12.239329889177128"><ele>-0.5</ele><time>2026-04-11T11:09:50.968Z</time></trkpt><trkpt lat="44.75273614982745" lon="12.23913472979678"><ele>-1.0</ele><time>2026-04-11T11:09:51.968Z</time></trkpt><trkpt lat="44.75279370844716" lon="12.23894360933756"><ele>-1.5</ele><time>2026-04-11T11:09:52.968Z</time></trkpt><trkpt lat="44.75285918850342" lon="12.238741758525892"><ele>-2.0</ele><time>2026-04-11T11:09:53.968Z</time></trkpt><trkpt lat="44.752917811486775" lon="12.238529011261145"><ele>-2.0</ele><time>2026-04-11T11:09:54.968Z</time></trkpt><trkpt lat="44.75297998600518" lon="12.238317181950773"><ele>-2.0</ele><time>2026-04-11T11:09:55.968Z</time></trkpt><trkpt lat="44.7530544762157" lon="12.238098877973645"><ele>-2.0</ele><time>2026-04-11T11:09:56.968Z</time></trkpt><trkpt lat="44.753124864602945" lon="12.237876527693556"><ele>-1.0</ele><time>2026-04-11T11:09:57.968Z</time></trkpt><trkpt lat="44.75320364480271" lon="12.237649889993412"><ele>0.0</ele><time>2026-04-11T11:09:58.968Z</time></trkpt><trkpt lat="44.75328532176621" lon="12.23741307383419"><ele>1.0</ele><time>2026-04-11T11:09:59.968Z</time></trkpt><trkpt lat="44.75336728802006" lon="12.23717513298015"><ele>1.0</ele><time>2026-04-11T11:10:00.968Z</time></trkpt><trkpt lat="44.75345356078688" lon="12.236932675890747"><ele>1.0</ele><time>2026-04-11T11:10:01.968Z</time></trkpt><trkpt lat="44.753545641497105" lon="12.236688398404134"><ele>1.0</ele><time>2026-04-11T11:10:02.968Z</time></trkpt><trkpt lat="44.753643188845" lon="12.236443279296271"><ele>0.6666666666666666</ele><time>2026-04-11T11:10:03.968Z</time></trkpt><trkpt lat="44.753742923519546" lon="12.23620042899091"><ele>0.3333333333333333</ele><time>2026-04-11T11:10:04.968Z</time></trkpt><trkpt lat="44.75384407456985" lon="12.235950277027245"><ele>0.0</ele><time>2026-04-11T11:10:05.968Z</time></trkpt><trkpt lat="44.75393788532393" lon="12.23569609794328"><ele>0.0</ele><time>2026-04-11T11:10:06.968Z</time></trkpt><trkpt lat="44.75403331695323" lon="12.235441769230762"><ele>0.0</ele><time>2026-04-11T11:10:07.968Z</time></trkpt><trkpt lat="44.75413463793758" lon="12.23519056498004"><ele>0.0</ele><time>2026-04-11T11:10:08.968Z</time></trkpt><trkpt lat="44.75423822023938" lon="12.234946742975746"><ele>0.0</ele><time>2026-04-11T11:10:09.97Z</time></trkpt><trkpt lat="44.75434760719358" lon="12.23471677894821"><ele>0.0</ele><time>2026-04-11T11:10:10.97Z</time></trkpt><trkpt lat="44.75443198838093" lon="12.234469204538513"><ele>0.0</ele><time>2026-04-11T11:10:11.97Z</time></trkpt><trkpt lat="44.75453125935794" lon="12.23422896552845"><ele>0.6666666666666666</ele><time>2026-04-11T11:10:12.969Z</time></trkpt><trkpt lat="44.75463406659722" lon="12.233993017512473"><ele>1.3333333333333333</ele><time>2026-04-11T11:10:13.969Z</time></trkpt><trkpt lat="44.75473659155545" lon="12.233763954497451"><ele>2.0</ele><time>2026-04-11T11:10:14.969Z</time></trkpt><trkpt lat="44.754833676440484" lon="12.233539789369921"><ele>1.6666666666666665</ele><time>2026-04-11T11:10:15.969Z</time></trkpt><trkpt lat="44.75492365681754" lon="12.23332207135129"><ele>1.3333333333333333</ele><time>2026-04-11T11:10:16.969Z</time></trkpt><trkpt lat="44.75500794963305" lon="12.233101682342847"><ele>1.0</ele><time>2026-04-11T11:10:17.969Z</time></trkpt><trkpt lat="44.75510301616328" lon="12.232882755788387"><ele>1.0</ele><time>2026-04-11T11:10:18.969Z</time></trkpt><trkpt lat="44.75519357955064" lon="12.23266217435836"><ele>1.0</ele><time>2026-04-11T11:10:19.969Z</time></trkpt><trkpt lat="44.75528579419709" lon="12.232440470529681"><ele>1.0</ele><time>2026-04-11T11:10:20.969Z</time></trkpt><trkpt lat="44.75537324258616" lon="12.232222038156435"><ele>1.0</ele><time>2026-04-11T11:10:21.969Z</time></trkpt><trkpt lat="44.755460827848864" lon="12.232020853323743"><ele>1.0</ele><time>2026-04-11T11:10:22.969Z</time></trkpt><trkpt lat="44.75554834353202" lon="12.231829205205008"><ele>1.0</ele><time>2026-04-11T11:10:23.969Z</time></trkpt><trkpt lat="44.75563694640887" lon="12.23163622618695"><ele>1.0</ele><time>2026-04-11T11:10:24.969Z</time></trkpt><trkpt lat="44.7557302461388" lon="12.231444633463996"><ele>1.0</ele><time>2026-04-11T11:10:25.969Z</time></trkpt><trkpt lat="44.755837313650986" lon="12.23126080214868"><ele>1.0</ele><time>2026-04-11T11:10:26.969Z</time></trkpt><trkpt lat="44.75595910229575" lon="12.2310997777018"><ele>0.6666666666666666</ele><time>2026-04-11T11:10:27.969Z</time></trkpt><trkpt lat="44.756092114610375" lon="12.230956064469153"><ele>0.3333333333333333</ele><time>2026-04-11T11:10:28.969Z</time></trkpt><trkpt lat="44.756235207761854" lon="12.23083103514094"><ele>0.0</ele><time>2026-04-11T11:10:29.969Z</time></trkpt><trkpt lat="44.75638702376633" lon="12.23071493548763"><ele>0.0</ele><time>2026-04-11T11:10:30.969Z</time></trkpt><trkpt lat="44.75654743428418" lon="12.230630895784184"><ele>0.0</ele><time>2026-04-11T11:10:31.969Z</time></trkpt><trkpt lat="44.75671814061849" lon="12.230573353147419"><ele>0.0</ele><time>2026-04-11T11:10:32.969Z</time></trkpt><trkpt lat="44.756890960156134" lon="12.23056637477009"><ele>0.3333333333333333</ele><time>2026-04-11T11:10:33.969Z</time></trkpt><trkpt lat="44.75706097491099" lon="12.230544097750776"><ele>0.6666666666666666</ele><time>2026-04-11T11:10:34.969Z</time></trkpt><trkpt lat="44.757228412591004" lon="12.23055666903598"><ele>1.0</ele><time>2026-04-11T11:10:35.969Z</time></trkpt><trkpt lat="44.757383547358415" lon="12.230582992400912"><ele>1.0</ele><time>2026-04-11T11:10:36.969Z</time></trkpt><trkpt lat="44.75753986628989" lon="12.23062619318396"><ele>1.0</ele><time>2026-04-11T11:10:37.969Z</time></trkpt><trkpt lat="44.75769184781951" lon="12.230655937706857"><ele>1.0</ele><time>2026-04-11T11:10:38.969Z</time></trkpt><trkpt lat="44.757836253594206" lon="12.2306818983439"><ele>1.0</ele><time>2026-04-11T11:10:39.969Z</time></trkpt><trkpt lat="44.75796785731527" lon="12.23069292189049"><ele>1.0</ele><time>2026-04-11T11:10:40.969Z</time></trkpt><trkpt lat="44.758082827311206" lon="12.230683544877747"><ele>1.0</ele><time>2026-04-11T11:10:41.969Z</time></trkpt><trkpt lat="44.758191036451066" lon="12.230664420173168"><ele>1.0</ele><time>2026-04-11T11:10:42.969Z</time></trkpt><trkpt lat="44.75828971070074" lon="12.230638954353388"><ele>0.9999999999999999</ele><time>2026-04-11T11:10:43.969Z</time></trkpt><trkpt lat="44.75838203811034" lon="12.230603695411844"><ele>1.0</ele><time>2026-04-11T11:10:44.969Z</time></trkpt><trkpt lat="44.75844785663307" lon="12.23055568876981"><ele>1.0</ele><time>2026-04-11T11:10:45.969Z</time></trkpt><trkpt lat="44.75851527652279" lon="12.230436957806926"><ele>1.0</ele><time>2026-04-11T11:10:47.969Z</time></trkpt><trkpt lat="44.758521936421104" lon="12.230334277589927"><ele>0.9999999999999999</ele><time>2026-04-11T11:10:49.969Z</time></trkpt><trkpt lat="44.758528427784114" lon="12.230244031770473"><ele>1.0</ele><time>2026-04-11T11:10:53.968Z</time></trkpt><trkpt lat="44.75858547150862" lon="12.230075541019632"><ele>1.0</ele><time>2026-04-11T11:10:55.968Z</time></trkpt><trkpt lat="44.758636413104405" lon="12.229993683565565"><ele>1.0</ele><time>2026-04-11T11:10:56.968Z</time></trkpt><trkpt lat="44.75866999803968" lon="12.229892729848372"><ele>1.0</ele><time>2026-04-11T11:10:57.968Z</time></trkpt><trkpt lat="44.758708195570414" lon="12.229773675545358"><ele>1.0</ele><time>2026-04-11T11:10:58.968Z</time></trkpt><trkpt lat="44.758731141812994" lon="12.229611586569998"><ele>1.0</ele><time>2026-04-11T11:10:59.968Z</time></trkpt><trkpt lat="44.75880560804568" lon="12.22947495210831"><ele>1.0</ele><time>2026-04-11T11:11:00.968Z</time></trkpt><trkpt lat="44.75885888627154" lon="12.229308969171045"><ele>1.0</ele><time>2026-04-11T11:11:01.968Z</time></trkpt><trkpt lat="44.75891643854665" lon="12.22912202731133"><ele>1.0</ele><time>2026-04-11T11:11:02.968Z</time></trkpt><trkpt lat="44.758980797889635" lon="12.228915340833685"><ele>1.0</ele><time>2026-04-11T11:11:03.968Z</time></trkpt><trkpt lat="44.75905248463164" lon="12.228686101207561"><ele>1.0</ele><time>2026-04-11T11:11:04.968Z</time></trkpt><trkpt lat="44.75913378243185" lon="12.22842653322233"><ele>1.0</ele><time>2026-04-11T11:11:05.968Z</time></trkpt><trkpt lat="44.759216828420676" lon="12.228162192784197"><ele>1.0</ele><time>2026-04-11T11:11:06.968Z</time></trkpt><trkpt lat="44.75927394290463" lon="12.22786679475308"><ele>-0.33333333333333337</ele><time>2026-04-11T11:11:07.968Z</time></trkpt><trkpt lat="44.75937178684607" lon="12.227594547618153"><ele>-1.6666666666666667</ele><time>2026-04-11T11:11:08.968Z</time></trkpt><trkpt lat="44.759463664512396" lon="12.227313281611464"><ele>-3.0</ele><time>2026-04-11T11:11:09.968Z</time></trkpt><trkpt lat="44.75955086276054" lon="12.227035473162456"><ele>-3.666666666666667</ele><time>2026-04-11T11:11:10.968Z</time></trkpt><trkpt lat="44.759633637722565" lon="12.226753323695979"><ele>-4.333333333333334</ele><time>2026-04-11T11:11:11.968Z</time></trkpt><trkpt lat="44.75971537412438" lon="12.226477740395891"><ele>-5.0</ele><time>2026-04-11T11:11:12.968Z</time></trkpt><trkpt lat="44.759786768824185" lon="12.226199029271484"><ele>-5.0</ele><time>2026-04-11T11:11:13.968Z</time></trkpt><trkpt lat="44.7598413965968" lon="12.225925837284509"><ele>-5.0</ele><time>2026-04-11T11:11:14.968Z</time></trkpt><trkpt lat="44.759864578729655" lon="12.22563916742583"><ele>-5.0</ele><time>2026-04-11T11:11:15.968Z</time></trkpt><trkpt lat="44.75986273958974" lon="12.225323794024602"><ele>-4.0</ele><time>2026-04-11T11:11:16.968Z</time></trkpt><trkpt lat="44.75986532016996" lon="12.224989112111935"><ele>-3.0</ele><time>2026-04-11T11:11:17.968Z</time></trkpt><trkpt lat="44.75988320812269" lon="12.224666749133574"><ele>-3.0</ele><time>2026-04-11T11:11:18.968Z</time></trkpt><trkpt lat="44.75989998223723" lon="12.224358061667298"><ele>-3.0</ele><time>2026-04-11T11:11:19.968Z</time></trkpt><trkpt lat="44.759929101518615" lon="12.224051367258731"><ele>-3.0</ele><time>2026-04-11T11:11:20.968Z</time></trkpt><trkpt lat="44.759940642377295" lon="12.223739727422014"><ele>-3.0</ele><time>2026-04-11T11:11:21.968Z</time></trkpt><trkpt lat="44.75995511824746" lon="12.223438592239152"><ele>-3.0</ele><time>2026-04-11T11:11:22.968Z</time></trkpt><trkpt lat="44.759966280662745" lon="12.223149782916675"><ele>-3.0</ele><time>2026-04-11T11:11:23.968Z</time></trkpt><trkpt lat="44.75998974042581" lon="12.222885125268"><ele>-3.0</ele><time>2026-04-11T11:11:24.968Z</time></trkpt><trkpt lat="44.76001067594032" lon="12.222607939555987"><ele>-3.0</ele><time>2026-04-11T11:11:25.968Z</time></trkpt><trkpt lat="44.76005593282812" lon="12.222353763977779"><ele>-3.0</ele><time>2026-04-11T11:11:26.968Z</time></trkpt><trkpt lat="44.76007296813929" lon="12.222071787869687"><ele>-2.6666666666666665</ele><time>2026-04-11T11:11:27.968Z</time></trkpt><trkpt lat="44.760089111093485" lon="12.221804956495674"><ele>-2.333333333333333</ele><time>2026-04-11T11:11:28.968Z</time></trkpt><trkpt lat="44.76010514786193" lon="12.221539880017916"><ele>-2.0</ele><time>2026-04-11T11:11:29.968Z</time></trkpt><trkpt lat="44.76012101599802" lon="12.22128632492398"><ele>-2.0</ele><time>2026-04-11T11:11:30.968Z</time></trkpt><trkpt lat="44.760137329996354" lon="12.221026539853673"><ele>-2.0</ele><time>2026-04-11T11:11:31.968Z</time></trkpt><trkpt lat="44.760154396600875" lon="12.220754770695146"><ele>-2.0</ele><time>2026-04-11T11:11:32.968Z</time></trkpt><trkpt lat="44.760172015283324" lon="12.22047420989608"><ele>-2.0</ele><time>2026-04-11T11:11:33.968Z</time></trkpt><trkpt lat="44.760189662125406" lon="12.220193200879942"><ele>-2.0</ele><time>2026-04-11T11:11:34.968Z</time></trkpt><trkpt lat="44.760207172952086" lon="12.21991435811327"><ele>-2.0</ele><time>2026-04-11T11:11:35.968Z</time></trkpt><trkpt lat="44.760225211368116" lon="12.219627112867869"><ele>-3.0</ele><time>2026-04-11T11:11:36.968Z</time></trkpt><trkpt lat="44.760245084540664" lon="12.219310651821589"><ele>-4.0</ele><time>2026-04-11T11:11:37.968Z</time></trkpt><trkpt lat="44.76026641398201" lon="12.218971001097138"><ele>-4.0</ele><time>2026-04-11T11:11:38.968Z</time></trkpt><trkpt lat="44.76028949259089" lon="12.218603495993802"><ele>-4.0</ele><time>2026-04-11T11:11:39.968Z</time></trkpt><trkpt lat="44.76031388677154" lon="12.218215041245008"><ele>-4.0</ele><time>2026-04-11T11:11:40.968Z</time></trkpt><trkpt lat="44.76033900521815" lon="12.217824094191839"><ele>-4.0</ele><time>2026-04-11T11:11:41.968Z</time></trkpt><trkpt lat="44.76036521566486" lon="12.217414967109207"><ele>-3.5</ele><time>2026-04-11T11:11:42.968Z</time></trkpt><trkpt lat="44.76039137340944" lon="12.217006694406466"><ele>-3.0</ele><time>2026-04-11T11:11:43.968Z</time></trkpt><trkpt lat="44.7604180657119" lon="12.216590298767311"><ele>-3.0</ele><time>2026-04-11T11:11:44.968Z</time></trkpt><trkpt lat="44.76044440940191" lon="12.216175099058152"><ele>-3.0</ele><time>2026-04-11T11:11:45.968Z</time></trkpt><trkpt lat="44.76047071997743" lon="12.215759187626047"><ele>-3.5</ele><time>2026-04-11T11:11:46.968Z</time></trkpt><trkpt lat="44.76049711986557" lon="12.215341864187543"><ele>-4.0</ele><time>2026-04-11T11:11:47.968Z</time></trkpt><trkpt lat="44.76052341273752" lon="12.214926232537968"><ele>-4.0</ele><time>2026-04-11T11:11:48.968Z</time></trkpt><trkpt lat="44.76054978379928" lon="12.214509364765686"><ele>-4.0</ele><time>2026-04-11T11:11:49.968Z</time></trkpt><trkpt lat="44.760576111549014" lon="12.214093176212252"><ele>-3.5</ele><time>2026-04-11T11:11:50.968Z</time></trkpt><trkpt lat="44.76060187549103" lon="12.213681969434807"><ele>-3.0</ele><time>2026-04-11T11:11:51.968Z</time></trkpt><trkpt lat="44.76062745029982" lon="12.213268934050237"><ele>-2.5</ele><time>2026-04-11T11:11:52.967Z</time></trkpt><trkpt lat="44.76065228099212" lon="12.21285485604511"><ele>-2.0</ele><time>2026-04-11T11:11:53.967Z</time></trkpt><trkpt lat="44.76067720382532" lon="12.212439241307294"><ele>-2.0</ele><time>2026-04-11T11:11:54.967Z</time></trkpt><trkpt lat="44.760701857749254" lon="12.212030317488814"><ele>-2.0</ele><time>2026-04-11T11:11:55.967Z</time></trkpt><trkpt lat="44.76069693054634" lon="12.211622732008347"><ele>-1.5</ele><time>2026-04-11T11:11:56.967Z</time></trkpt><trkpt lat="44.76072103653977" lon="12.211223194360604"><ele>-1.0</ele><time>2026-04-11T11:11:57.967Z</time></trkpt><trkpt lat="44.76074379776548" lon="12.21083549380012"><ele>-1.0</ele><time>2026-04-11T11:11:58.967Z</time></trkpt><trkpt lat="44.760767818418756" lon="12.210466160344648"><ele>-1.0</ele><time>2026-04-11T11:11:59.967Z</time></trkpt><trkpt lat="44.76079694714064" lon="12.210124990380004"><ele>-1.3333333333333333</ele><time>2026-04-11T11:12:00.967Z</time></trkpt><trkpt lat="44.760815475988394" lon="12.209806130684322"><ele>-1.6666666666666665</ele><time>2026-04-11T11:12:01.967Z</time></trkpt><trkpt lat="44.76083051555083" lon="12.209502879846463"><ele>-2.0</ele><time>2026-04-11T11:12:02.967Z</time></trkpt><trkpt lat="44.76084457477215" lon="12.209222039584672"><ele>-2.333333333333333</ele><time>2026-04-11T11:12:03.967Z</time></trkpt><trkpt lat="44.76086741335487" lon="12.208969891838054"><ele>-2.6666666666666665</ele><time>2026-04-11T11:12:04.967Z</time></trkpt><trkpt lat="44.760882093913445" lon="12.208717714073336"><ele>-3.0</ele><time>2026-04-11T11:12:05.967Z</time></trkpt><trkpt lat="44.76089572674741" lon="12.208460762980053"><ele>-3.0</ele><time>2026-04-11T11:12:06.967Z</time></trkpt><trkpt lat="44.76091199194805" lon="12.208213226128535"><ele>-3.0</ele><time>2026-04-11T11:12:07.967Z</time></trkpt><trkpt lat="44.760929717967066" lon="12.207970109474337"><ele>-3.0</ele><time>2026-04-11T11:12:08.967Z</time></trkpt><trkpt lat="44.7609446876944" lon="12.20774137874413"><ele>-3.0</ele><time>2026-04-11T11:12:09.967Z</time></trkpt><trkpt lat="44.760957280729926" lon="12.207528032173895"><ele>-3.0</ele><time>2026-04-11T11:12:10.967Z</time></trkpt><trkpt lat="44.76096978735076" lon="12.207328894776177"><ele>-3.0</ele><time>2026-04-11T11:12:11.967Z</time></trkpt><trkpt lat="44.76097912152923" lon="12.207145437206803"><ele>-3.0</ele><time>2026-04-11T11:12:12.967Z</time></trkpt><trkpt lat="44.76098856669056" lon="12.206967135111343"><ele>-3.0</ele><time>2026-04-11T11:12:13.967Z</time></trkpt><trkpt lat="44.76100565695745" lon="12.206793502059803"><ele>-3.0</ele><time>2026-04-11T11:12:14.967Z</time></trkpt><trkpt lat="44.761015974175095" lon="12.206613045146165"><ele>-3.0</ele><time>2026-04-11T11:12:15.969Z</time></trkpt><trkpt lat="44.76102433050023" lon="12.206414013991193"><ele>-3.0</ele><time>2026-04-11T11:12:16.969Z</time></trkpt><trkpt lat="44.76104040541172" lon="12.206207884310711"><ele>-3.0</ele><time>2026-04-11T11:12:17.969Z</time></trkpt><trkpt lat="44.76104917787298" lon="12.206007225923193"><ele>-3.0</ele><time>2026-04-11T11:12:18.969Z</time></trkpt><trkpt lat="44.76106630694029" lon="12.205821108994233"><ele>-3.0</ele><time>2026-04-11T11:12:19.969Z</time></trkpt><trkpt lat="44.761102145825646" lon="12.205639329017353"><ele>-3.0</ele><time>2026-04-11T11:12:20.969Z</time></trkpt><trkpt lat="44.761114139031726" lon="12.205446298358261"><ele>-3.0</ele><time>2026-04-11T11:12:21.969Z</time></trkpt><trkpt lat="44.76112594091081" lon="12.205256347072268"><ele>-3.0</ele><time>2026-04-11T11:12:22.969Z</time></trkpt><trkpt lat="44.7611373827058" lon="12.205072195283565"><ele>-3.0</ele><time>2026-04-11T11:12:23.969Z</time></trkpt><trkpt lat="44.76114938161242" lon="12.204881499416347"><ele>-3.0</ele><time>2026-04-11T11:12:24.969Z</time></trkpt><trkpt lat="44.76116149764811" lon="12.204688127950776"><ele>-3.0</ele><time>2026-04-11T11:12:25.969Z</time></trkpt><trkpt lat="44.76117419944059" lon="12.204485407897531"><ele>-3.0</ele><time>2026-04-11T11:12:26.969Z</time></trkpt><trkpt lat="44.76118776537795" lon="12.204268896038915"><ele>-3.0</ele><time>2026-04-11T11:12:27.968Z</time></trkpt><trkpt lat="44.761203092313956" lon="12.204024278752772"><ele>-3.0</ele><time>2026-04-11T11:12:28.969Z</time></trkpt><trkpt lat="44.76122088748141" lon="12.2037402685399"><ele>-3.0</ele><time>2026-04-11T11:12:29.969Z</time></trkpt><trkpt lat="44.76124076335689" lon="12.203423050252159"><ele>-3.0</ele><time>2026-04-11T11:12:30.969Z</time></trkpt><trkpt lat="44.761262729649516" lon="12.20307246920688"><ele>-3.0</ele><time>2026-04-11T11:12:31.969Z</time></trkpt><trkpt lat="44.76128522735264" lon="12.202713406687016"><ele>-3.0</ele><time>2026-04-11T11:12:32.969Z</time></trkpt><trkpt lat="44.761309209290594" lon="12.202330655757004"><ele>-2.5</ele><time>2026-04-11T11:12:33.969Z</time></trkpt><trkpt lat="44.76133306681558" lon="12.201949890869221"><ele>-2.0</ele><time>2026-04-11T11:12:34.969Z</time></trkpt><trkpt lat="44.76135785740707" lon="12.201554414326298"><ele>-2.5</ele><time>2026-04-11T11:12:35.969Z</time></trkpt><trkpt lat="44.761383029566254" lon="12.20115287698807"><ele>-3.0</ele><time>2026-04-11T11:12:36.969Z</time></trkpt><trkpt lat="44.76140860453308" lon="12.200744914424707"><ele>-2.5</ele><time>2026-04-11T11:12:37.969Z</time></trkpt><trkpt lat="44.76143391310172" lon="12.200341201273384"><ele>-2.0</ele><time>2026-04-11T11:12:38.969Z</time></trkpt><trkpt lat="44.76145919060559" lon="12.199937983733353"><ele>-1.5</ele><time>2026-04-11T11:12:39.969Z</time></trkpt><trkpt lat="44.761484674900046" lon="12.199531467547835"><ele>-1.0</ele><time>2026-04-11T11:12:40.969Z</time></trkpt><trkpt lat="44.76151035034063" lon="12.199121902216751"><ele>-1.5</ele><time>2026-04-11T11:12:41.969Z</time></trkpt><trkpt lat="44.76153572412582" lon="12.198717671090487"><ele>-2.0</ele><time>2026-04-11T11:12:42.969Z</time></trkpt><trkpt lat="44.76156104824808" lon="12.198315536881218"><ele>-2.0</ele><time>2026-04-11T11:12:43.969Z</time></trkpt><trkpt lat="44.76158602343845" lon="12.197918943488855"><ele>-2.0</ele><time>2026-04-11T11:12:44.969Z</time></trkpt><trkpt lat="44.76158848945439" lon="12.197528211057664"><ele>-1.5</ele><time>2026-04-11T11:12:45.969Z</time></trkpt><trkpt lat="44.761614839713495" lon="12.197143089761079"><ele>-1.0</ele><time>2026-04-11T11:12:46.969Z</time></trkpt><trkpt lat="44.76163636582671" lon="12.196755886512673"><ele>-1.5</ele><time>2026-04-11T11:12:47.968Z</time></trkpt><trkpt lat="44.761662485356524" lon="12.196366200404263"><ele>-2.0</ele><time>2026-04-11T11:12:48.968Z</time></trkpt><trkpt lat="44.761686191261255" lon="12.19596783483351"><ele>-2.5</ele><time>2026-04-11T11:12:49.968Z</time></trkpt><trkpt lat="44.76170666869775" lon="12.195573453230212"><ele>-3.0</ele><time>2026-04-11T11:12:50.968Z</time></trkpt><trkpt lat="44.76173073698729" lon="12.195212399468373"><ele>-3.0</ele><time>2026-04-11T11:12:51.968Z</time></trkpt><trkpt lat="44.761750064408666" lon="12.19486901453503"><ele>-3.0</ele><time>2026-04-11T11:12:52.968Z</time></trkpt><trkpt lat="44.76176466592352" lon="12.194524183867001"><ele>-2.5</ele><time>2026-04-11T11:12:53.968Z</time></trkpt><trkpt lat="44.761787603153586" lon="12.19418947066133"><ele>-2.0</ele><time>2026-04-11T11:12:54.968Z</time></trkpt><trkpt lat="44.761810177103875" lon="12.19387502870121"><ele>-2.0</ele><time>2026-04-11T11:12:55.968Z</time></trkpt><trkpt lat="44.76183038702241" lon="12.19358336380303"><ele>-2.0</ele><time>2026-04-11T11:12:56.968Z</time></trkpt><trkpt lat="44.761848426958885" lon="12.193331623875947"><ele>-2.0</ele><time>2026-04-11T11:12:57.968Z</time></trkpt><trkpt lat="44.7618589708411" lon="12.193096119627864"><ele>-1.75</ele><time>2026-04-11T11:12:58.968Z</time></trkpt><trkpt lat="44.76187110103308" lon="12.192876256373282"><ele>-1.5</ele><time>2026-04-11T11:12:59.968Z</time></trkpt><trkpt lat="44.761884251618206" lon="12.192680930772264"><ele>-1.25</ele><time>2026-04-11T11:13:00.968Z</time></trkpt><trkpt lat="44.761901764711034" lon="12.192531460186283"><ele>-1.0</ele><time>2026-04-11T11:13:01.966Z</time></trkpt><trkpt lat="44.76191034467019" lon="12.19242672625853"><ele>-0.6000000000000001</ele><time>2026-04-11T11:13:02.964Z</time></trkpt><trkpt lat="44.7619145997551" lon="12.192332923308765"><ele>-0.20000000000000007</ele><time>2026-04-11T11:13:04.96Z</time></trkpt><trkpt lat="44.7619436879464" lon="12.19223515062781"><ele>0.20000000000000007</ele><time>2026-04-11T11:13:08.955Z</time></trkpt><trkpt lat="44.762050124858035" lon="12.19213295880953"><ele>0.6000000000000001</ele><time>2026-04-11T11:13:10.952Z</time></trkpt><trkpt lat="44.76213344649775" lon="12.192121064343727"><ele>1.0</ele><time>2026-04-11T11:13:11.951Z</time></trkpt><trkpt lat="44.76225322821776" lon="12.192063128344621"><ele>1.0</ele><time>2026-04-11T11:13:12.95Z</time></trkpt><trkpt lat="44.76240191475319" lon="12.191991550363529"><ele>1.0</ele><time>2026-04-11T11:13:13.949Z</time></trkpt><trkpt lat="44.76258229686271" lon="12.191904843179277"><ele>1.0</ele><time>2026-04-11T11:13:14.948Z</time></trkpt><trkpt lat="44.762773469856924" lon="12.191830519120458"><ele>0.3333333333333333</ele><time>2026-04-11T11:13:15.948Z</time></trkpt><trkpt lat="44.76296872151163" lon="12.191746552903103"><ele>-0.3333333333333333</ele><time>2026-04-11T11:13:16.947Z</time></trkpt><trkpt lat="44.7631699381896" lon="12.19165145579605"><ele>-1.0</ele><time>2026-04-11T11:13:17.946Z</time></trkpt><trkpt lat="44.763382393557606" lon="12.191546166851317"><ele>-1.0</ele><time>2026-04-11T11:13:18.945Z</time></trkpt><trkpt lat="44.76360455184415" lon="12.191440797696151"><ele>-1.0</ele><time>2026-04-11T11:13:19.945Z</time></trkpt><trkpt lat="44.76382057329921" lon="12.191335192022965"><ele>-1.0</ele><time>2026-04-11T11:13:20.944Z</time></trkpt><trkpt lat="44.76403768549135" lon="12.191224169648653"><ele>-1.0</ele><time>2026-04-11T11:13:21.944Z</time></trkpt><trkpt lat="44.76425696581642" lon="12.191116522649464"><ele>-1.5</ele><time>2026-04-11T11:13:22.943Z</time></trkpt><trkpt lat="44.76448049097543" lon="12.191004356818922"><ele>-2.0</ele><time>2026-04-11T11:13:23.942Z</time></trkpt><trkpt lat="44.764699555241876" lon="12.190895668574225"><ele>-2.0</ele><time>2026-04-11T11:13:24.942Z</time></trkpt><trkpt lat="44.76491448051308" lon="12.190787844130313"><ele>-2.0</ele><time>2026-04-11T11:13:25.942Z</time></trkpt><trkpt lat="44.765121258131366" lon="12.190682235512632"><ele>-2.0</ele><time>2026-04-11T11:13:26.941Z</time></trkpt><trkpt lat="44.765332433673336" lon="12.190580009634907"><ele>-2.0</ele><time>2026-04-11T11:13:27.941Z</time></trkpt><trkpt lat="44.765532266341744" lon="12.190484293916553"><ele>-2.0</ele><time>2026-04-11T11:13:28.94Z</time></trkpt><trkpt lat="44.76573489799638" lon="12.190382663199776"><ele>-2.0</ele><time>2026-04-11T11:13:29.94Z</time></trkpt><trkpt lat="44.76593156447947" lon="12.190277384540396"><ele>-1.6666666666666665</ele><time>2026-04-11T11:13:30.94Z</time></trkpt><trkpt lat="44.766125559144186" lon="12.190184666504896"><ele>-1.3333333333333333</ele><time>2026-04-11T11:13:31.939Z</time></trkpt><trkpt lat="44.766310835975744" lon="12.190093717965176"><ele>-1.0</ele><time>2026-04-11T11:13:32.939Z</time></trkpt><trkpt lat="44.766481376530606" lon="12.190011507744"><ele>-1.0</ele><time>2026-04-11T11:13:33.939Z</time></trkpt><trkpt lat="44.76664521416184" lon="12.189932294397787"><ele>-1.0</ele><time>2026-04-11T11:13:34.939Z</time></trkpt><trkpt lat="44.76681652669976" lon="12.18989627765725"><ele>-1.0</ele><time>2026-04-11T11:13:35.938Z</time></trkpt><trkpt lat="44.76695652072963" lon="12.189823265081445"><ele>-1.0</ele><time>2026-04-11T11:13:36.938Z</time></trkpt><trkpt lat="44.76709135277956" lon="12.18976873436807"><ele>-1.0</ele><time>2026-04-11T11:13:37.938Z</time></trkpt><trkpt lat="44.7672292203529" lon="12.189703743243268"><ele>-1.0</ele><time>2026-04-11T11:13:38.938Z</time></trkpt><trkpt lat="44.76737762539963" lon="12.189623470137795"><ele>-1.0</ele><time>2026-04-11T11:13:39.937Z</time></trkpt><trkpt lat="44.76754741832401" lon="12.189529201248197"><ele>-0.6666666666666666</ele><time>2026-04-11T11:13:40.937Z</time></trkpt><trkpt lat="44.767736024885366" lon="12.189433732809656"><ele>-0.3333333333333333</ele><time>2026-04-11T11:13:41.937Z</time></trkpt><trkpt lat="44.76794542225157" lon="12.189325001863294"><ele>0.0</ele><time>2026-04-11T11:13:42.937Z</time></trkpt><trkpt lat="44.768175403415704" lon="12.18921103864161"><ele>0.0</ele><time>2026-04-11T11:13:43.937Z</time></trkpt><trkpt lat="44.7684163319346" lon="12.189085523384518"><ele>0.0</ele><time>2026-04-11T11:13:44.937Z</time></trkpt><trkpt lat="44.76866549058314" lon="12.188953027489585"><ele>1.0</ele><time>2026-04-11T11:13:45.936Z</time></trkpt><trkpt lat="44.768920421613046" lon="12.188827813870105"><ele>2.0</ele><time>2026-04-11T11:13:46.936Z</time></trkpt><trkpt lat="44.76917719774932" lon="12.1886999036585"><ele>1.0</ele><time>2026-04-11T11:13:47.936Z</time></trkpt><trkpt lat="44.76943623969923" lon="12.188577698664508"><ele>0.0</ele><time>2026-04-11T11:13:48.936Z</time></trkpt><trkpt lat="44.76968747905599" lon="12.188449932916804"><ele>0.0</ele><time>2026-04-11T11:13:49.936Z</time></trkpt><trkpt lat="44.76994190147401" lon="12.188353386546588"><ele>0.0</ele><time>2026-04-11T11:13:50.936Z</time></trkpt><trkpt lat="44.770184171619405" lon="12.188245662030482"><ele>1.0</ele><time>2026-04-11T11:13:51.936Z</time></trkpt><trkpt lat="44.770425136033744" lon="12.188143972784157"><ele>2.0</ele><time>2026-04-11T11:13:52.936Z</time></trkpt><trkpt lat="44.77066046384304" lon="12.188044173670951"><ele>2.0</ele><time>2026-04-11T11:13:53.936Z</time></trkpt><trkpt lat="44.77089417964342" lon="12.18794359877546"><ele>2.0</ele><time>2026-04-11T11:13:54.935Z</time></trkpt><trkpt lat="44.77112921793438" lon="12.18784279744969"><ele>0.5</ele><time>2026-04-11T11:13:55.935Z</time></trkpt><trkpt lat="44.77136675872039" lon="12.187743845562174"><ele>-1.0</ele><time>2026-04-11T11:13:56.935Z</time></trkpt><trkpt lat="44.771602891841454" lon="12.187645628879027"><ele>-1.0</ele><time>2026-04-11T11:13:57.935Z</time></trkpt><trkpt lat="44.771838053018065" lon="12.187547886046238"><ele>-1.0</ele><time>2026-04-11T11:13:58.935Z</time></trkpt><trkpt lat="44.77207725240044" lon="12.187446790683815"><ele>-1.5</ele><time>2026-04-11T11:13:59.935Z</time></trkpt><trkpt lat="44.77231928379167" lon="12.18734441826247"><ele>-2.0</ele><time>2026-04-11T11:14:00.935Z</time></trkpt><trkpt lat="44.77255927981022" lon="12.187245375704418"><ele>-1.5</ele><time>2026-04-11T11:14:01.935Z</time></trkpt><trkpt lat="44.772790620949124" lon="12.187153916147132"><ele>-1.0</ele><time>2026-04-11T11:14:02.935Z</time></trkpt><trkpt lat="44.7730085216881" lon="12.18707097208032"><ele>-1.0</ele><time>2026-04-11T11:14:03.935Z</time></trkpt><trkpt lat="44.773221377628445" lon="12.186976018582838"><ele>-1.0</ele><time>2026-04-11T11:14:04.935Z</time></trkpt><trkpt lat="44.77343429480165" lon="12.186900021435306"><ele>-1.0</ele><time>2026-04-11T11:14:05.935Z</time></trkpt><trkpt lat="44.77364619375725" lon="12.186827793407963"><ele>-0.3333333333333333</ele><time>2026-04-11T11:14:06.935Z</time></trkpt><trkpt lat="44.77386108823161" lon="12.186749007342879"><ele>0.3333333333333333</ele><time>2026-04-11T11:14:07.935Z</time></trkpt><trkpt lat="44.77407590552188" lon="12.186676157215775"><ele>1.0</ele><time>2026-04-11T11:14:08.935Z</time></trkpt><trkpt lat="44.77429277056474" lon="12.186594291812614"><ele>1.0</ele><time>2026-04-11T11:14:09.934Z</time></trkpt><trkpt lat="44.77451313590232" lon="12.186534895708348"><ele>1.0</ele><time>2026-04-11T11:14:10.934Z</time></trkpt><trkpt lat="44.7747261280895" lon="12.186459787265015"><ele>1.0</ele><time>2026-04-11T11:14:11.934Z</time></trkpt><trkpt lat="44.77493985521463" lon="12.186384418901161"><ele>0.5</ele><time>2026-04-11T11:14:12.934Z</time></trkpt><trkpt lat="44.77516469890977" lon="12.186265035137534"><ele>0.0</ele><time>2026-04-11T11:14:13.934Z</time></trkpt><trkpt lat="44.77540289376775" lon="12.186174916889494"><ele>0.0</ele><time>2026-04-11T11:14:14.934Z</time></trkpt><trkpt lat="44.77565843710498" lon="12.186060768857159"><ele>0.0</ele><time>2026-04-11T11:14:15.934Z</time></trkpt><trkpt lat="44.775933291137115" lon="12.185960522138496"><ele>0.0</ele><time>2026-04-11T11:14:16.934Z</time></trkpt><trkpt lat="44.776234905892466" lon="12.18592230419808"><ele>0.0</ele><time>2026-04-11T11:14:17.934Z</time></trkpt><trkpt lat="44.77652703402943" lon="12.185818175678586"><ele>0.0</ele><time>2026-04-11T11:14:18.934Z</time></trkpt><trkpt lat="44.77682107268887" lon="12.185715022344255"><ele>0.0</ele><time>2026-04-11T11:14:19.934Z</time></trkpt><trkpt lat="44.77711355009085" lon="12.185612416547418"><ele>-0.5</ele><time>2026-04-11T11:14:20.934Z</time></trkpt><trkpt lat="44.77739868562873" lon="12.185512400019753"><ele>-1.0</ele><time>2026-04-11T11:14:21.935Z</time></trkpt><trkpt lat="44.77768146135403" lon="12.1854132257959"><ele>0.0</ele><time>2026-04-11T11:14:22.936Z</time></trkpt><trkpt lat="44.7779598691242" lon="12.185315583984824"><ele>1.0</ele><time>2026-04-11T11:14:23.936Z</time></trkpt><trkpt lat="44.778233173482135" lon="12.185219736573776"><ele>1.0</ele><time>2026-04-11T11:14:24.935Z</time></trkpt><trkpt lat="44.778505354556046" lon="12.185122733440782"><ele>1.0</ele><time>2026-04-11T11:14:25.936Z</time></trkpt><trkpt lat="44.77877624365916" lon="12.185019890379477"><ele>0.5</ele><time>2026-04-11T11:14:26.936Z</time></trkpt><trkpt lat="44.77905115224973" lon="12.184917714589854"><ele>0.0</ele><time>2026-04-11T11:14:27.935Z</time></trkpt><trkpt lat="44.779329170601585" lon="12.184816391868214"><ele>-1.5</ele><time>2026-04-11T11:14:28.935Z</time></trkpt><trkpt lat="44.77961008674504" lon="12.184717754205113"><ele>-3.0</ele><time>2026-04-11T11:14:29.935Z</time></trkpt><trkpt lat="44.77989335291561" lon="12.184620774609478"><ele>-3.0</ele><time>2026-04-11T11:14:30.935Z</time></trkpt><trkpt lat="44.78017380552827" lon="12.1845212498808"><ele>-3.0</ele><time>2026-04-11T11:14:31.935Z</time></trkpt><trkpt lat="44.78045530166009" lon="12.184418892080238"><ele>-2.5</ele><time>2026-04-11T11:14:32.935Z</time></trkpt><trkpt lat="44.780735490762275" lon="12.184316656234701"><ele>-2.0</ele><time>2026-04-11T11:14:33.935Z</time></trkpt><trkpt lat="44.78101411487776" lon="12.184207132791986"><ele>-1.5</ele><time>2026-04-11T11:14:34.935Z</time></trkpt><trkpt lat="44.781287778254594" lon="12.184095011609177"><ele>-1.0</ele><time>2026-04-11T11:14:35.935Z</time></trkpt><trkpt lat="44.78156068042254" lon="12.183982058843537"><ele>-1.0</ele><time>2026-04-11T11:14:36.935Z</time></trkpt><trkpt lat="44.78182699069211" lon="12.183861498576183"><ele>-1.0</ele><time>2026-04-11T11:14:37.935Z</time></trkpt><trkpt lat="44.78208944900816" lon="12.183733023775956"><ele>-1.0</ele><time>2026-04-11T11:14:38.935Z</time></trkpt><trkpt lat="44.78235441111364" lon="12.18361123836972"><ele>-1.0</ele><time>2026-04-11T11:14:39.935Z</time></trkpt><trkpt lat="44.782615752808276" lon="12.183480364400571"><ele>-1.5</ele><time>2026-04-11T11:14:40.935Z</time></trkpt><trkpt lat="44.78286980861657" lon="12.183335966188675"><ele>-2.0</ele><time>2026-04-11T11:14:41.935Z</time></trkpt><trkpt lat="44.78312317412048" lon="12.183199850334356"><ele>-1.5</ele><time>2026-04-11T11:14:42.935Z</time></trkpt><trkpt lat="44.78337736454996" lon="12.18306254313642"><ele>-1.0</ele><time>2026-04-11T11:14:43.935Z</time></trkpt><trkpt lat="44.78362770232526" lon="12.182934230964129"><ele>-1.0</ele><time>2026-04-11T11:14:44.935Z</time></trkpt><trkpt lat="44.78387010432593" lon="12.18281440742356"><ele>-1.0</ele><time>2026-04-11T11:14:45.935Z</time></trkpt><trkpt lat="44.784107610841126" lon="12.182708102315527"><ele>-1.0</ele><time>2026-04-11T11:14:46.935Z</time></trkpt><trkpt lat="44.784342220617326" lon="12.18261737004179"><ele>-1.0</ele><time>2026-04-11T11:14:47.935Z</time></trkpt><trkpt lat="44.7845810255189" lon="12.182534099760232"><ele>-0.5</ele><time>2026-04-11T11:14:48.935Z</time></trkpt><trkpt lat="44.784819562174214" lon="12.182455659207845"><ele>0.0</ele><time>2026-04-11T11:14:49.935Z</time></trkpt><trkpt lat="44.78506946659158" lon="12.182386292997851"><ele>0.5</ele><time>2026-04-11T11:14:50.935Z</time></trkpt><trkpt lat="44.7853216778225" lon="12.182319409639405"><ele>1.0</ele><time>2026-04-11T11:14:51.935Z</time></trkpt><trkpt lat="44.78558156321514" lon="12.1822643733364"><ele>1.0</ele><time>2026-04-11T11:14:52.935Z</time></trkpt><trkpt lat="44.78585417169855" lon="12.182194954705047"><ele>1.0</ele><time>2026-04-11T11:14:53.935Z</time></trkpt><trkpt lat="44.78612703652901" lon="12.182111723620864"><ele>1.0</ele><time>2026-04-11T11:14:54.935Z</time></trkpt><trkpt lat="44.786399615526165" lon="12.182036044976092"><ele>1.0</ele><time>2026-04-11T11:14:55.935Z</time></trkpt><trkpt lat="44.786685714764694" lon="12.181968133502087"><ele>1.0</ele><time>2026-04-11T11:14:56.935Z</time></trkpt><trkpt lat="44.7869737339261" lon="12.18189737586152"><ele>1.0</ele><time>2026-04-11T11:14:57.935Z</time></trkpt><trkpt lat="44.787259995375756" lon="12.181824389125568"><ele>1.0</ele><time>2026-04-11T11:14:58.935Z</time></trkpt><trkpt lat="44.787541184841615" lon="12.181746288070778"><ele>1.0</ele><time>2026-04-11T11:14:59.935Z</time></trkpt><trkpt lat="44.78781846988097" lon="12.181669952918499"><ele>-0.5</ele><time>2026-04-11T11:15:00.935Z</time></trkpt><trkpt lat="44.78809408044707" lon="12.181595495084526"><ele>-2.0</ele><time>2026-04-11T11:15:01.935Z</time></trkpt><trkpt lat="44.78836991535074" lon="12.18151633470711"><ele>-1.0</ele><time>2026-04-11T11:15:02.935Z</time></trkpt><trkpt lat="44.78864230640726" lon="12.181439094921593"><ele>0.0</ele><time>2026-04-11T11:15:03.935Z</time></trkpt><trkpt lat="44.78891610075325" lon="12.18135934934439"><ele>0.0</ele><time>2026-04-11T11:15:04.935Z</time></trkpt><trkpt lat="44.789181015339686" lon="12.181273701331913"><ele>0.0</ele><time>2026-04-11T11:15:05.935Z</time></trkpt><trkpt lat="44.78944563942964" lon="12.181180743461733"><ele>-0.5</ele><time>2026-04-11T11:15:06.935Z</time></trkpt><trkpt lat="44.78971119924649" lon="12.181092832157072"><ele>-1.0</ele><time>2026-04-11T11:15:07.935Z</time></trkpt><trkpt lat="44.789976691252896" lon="12.180998062710033"><ele>-0.5</ele><time>2026-04-11T11:15:08.935Z</time></trkpt><trkpt lat="44.790244647177644" lon="12.180897984682064"><ele>0.0</ele><time>2026-04-11T11:15:09.934Z</time></trkpt><trkpt lat="44.790511977122584" lon="12.18080321582302"><ele>0.0</ele><time>2026-04-11T11:15:10.934Z</time></trkpt><trkpt lat="44.790785184081365" lon="12.18070945010369"><ele>0.0</ele><time>2026-04-11T11:15:11.934Z</time></trkpt><trkpt lat="44.79105733010711" lon="12.180618729639383"><ele>0.0</ele><time>2026-04-11T11:15:12.934Z</time></trkpt><trkpt lat="44.791333929633296" lon="12.180523006150342"><ele>0.0</ele><time>2026-04-11T11:15:13.934Z</time></trkpt><trkpt lat="44.79161507628616" lon="12.180422285656656"><ele>0.5</ele><time>2026-04-11T11:15:14.934Z</time></trkpt><trkpt lat="44.791901908647965" lon="12.180337804286223"><ele>1.0</ele><time>2026-04-11T11:15:15.934Z</time></trkpt><trkpt lat="44.7921878686353" lon="12.180263338791972"><ele>1.0</ele><time>2026-04-11T11:15:16.934Z</time></trkpt><trkpt lat="44.79247299419679" lon="12.18019693818661"><ele>1.0</ele><time>2026-04-11T11:15:17.934Z</time></trkpt><trkpt lat="44.79275574142082" lon="12.180142561196641"><ele>0.0</ele><time>2026-04-11T11:15:18.934Z</time></trkpt><trkpt lat="44.79302851620608" lon="12.180084701741333"><ele>-1.0</ele><time>2026-04-11T11:15:19.934Z</time></trkpt><trkpt lat="44.79329206588289" lon="12.180034664357203"><ele>-1.5</ele><time>2026-04-11T11:15:20.934Z</time></trkpt><trkpt lat="44.79354878241222" lon="12.179984516058386"><ele>-2.0</ele><time>2026-04-11T11:15:21.934Z</time></trkpt><trkpt lat="44.7937960661883" lon="12.179934717971399"><ele>-2.0</ele><time>2026-04-11T11:15:22.934Z</time></trkpt><trkpt lat="44.79403894320173" lon="12.179882619073586"><ele>-2.0</ele><time>2026-04-11T11:15:23.934Z</time></trkpt><trkpt lat="44.794277271670815" lon="12.179832237587325"><ele>-2.0</ele><time>2026-04-11T11:15:24.934Z</time></trkpt><trkpt lat="44.79450530886993" lon="12.17978839053704"><ele>-2.0</ele><time>2026-04-11T11:15:25.934Z</time></trkpt><trkpt lat="44.79472464739297" lon="12.179743043124748"><ele>-2.0</ele><time>2026-04-11T11:15:26.934Z</time></trkpt><trkpt lat="44.794927384907645" lon="12.17970194343046"><ele>-2.0</ele><time>2026-04-11T11:15:27.934Z</time></trkpt><trkpt lat="44.79512585062246" lon="12.179668550080352"><ele>-2.0</ele><time>2026-04-11T11:15:28.934Z</time></trkpt><trkpt lat="44.795315990925204" lon="12.179635937567996"><ele>-2.333333333333333</ele><time>2026-04-11T11:15:29.934Z</time></trkpt><trkpt lat="44.79550949018047" lon="12.179600849903448"><ele>-2.6666666666666665</ele><time>2026-04-11T11:15:30.934Z</time></trkpt><trkpt lat="44.79569735271977" lon="12.179564273499206"><ele>-3.0</ele><time>2026-04-11T11:15:31.934Z</time></trkpt><trkpt lat="44.795882532740954" lon="12.179525992154902"><ele>-3.0</ele><time>2026-04-11T11:15:32.934Z</time></trkpt><trkpt lat="44.7960645131254" lon="12.179493593967345"><ele>-3.0</ele><time>2026-04-11T11:15:33.934Z</time></trkpt><trkpt lat="44.796244215695666" lon="12.179459706673134"><ele>-3.0</ele><time>2026-04-11T11:15:34.934Z</time></trkpt><trkpt lat="44.79642198607096" lon="12.17942165404664"><ele>-3.0</ele><time>2026-04-11T11:15:35.934Z</time></trkpt><trkpt lat="44.796602735410644" lon="12.179393757287114"><ele>-3.0</ele><time>2026-04-11T11:15:36.934Z</time></trkpt><trkpt lat="44.79678643798496" lon="12.179364683505955"><ele>-3.0</ele><time>2026-04-11T11:15:37.934Z</time></trkpt><trkpt lat="44.7969696449261" lon="12.179332367401551"><ele>-2.6666666666666665</ele><time>2026-04-11T11:15:38.934Z</time></trkpt><trkpt lat="44.79715158560287" lon="12.179297591907815"><ele>-2.333333333333333</ele><time>2026-04-11T11:15:39.934Z</time></trkpt><trkpt lat="44.79732916297506" lon="12.179263625551497"><ele>-2.0</ele><time>2026-04-11T11:15:40.934Z</time></trkpt><trkpt lat="44.79749985996453" lon="12.17923784234337"><ele>-2.0</ele><time>2026-04-11T11:15:41.934Z</time></trkpt><trkpt lat="44.797665099890985" lon="12.179206807425603"><ele>-2.0</ele><time>2026-04-11T11:15:42.934Z</time></trkpt><trkpt lat="44.79782799097523" lon="12.179185703039481"><ele>-2.0</ele><time>2026-04-11T11:15:43.934Z</time></trkpt><trkpt lat="44.79799752150055" lon="12.179153754883695"><ele>-1.3333333333333333</ele><time>2026-04-11T11:15:44.934Z</time></trkpt><trkpt lat="44.798167995034305" lon="12.179122796463105"><ele>-0.6666666666666666</ele><time>2026-04-11T11:15:45.934Z</time></trkpt><trkpt lat="44.798344281124" lon="12.179077033664056"><ele>0.0</ele><time>2026-04-11T11:15:46.934Z</time></trkpt><trkpt lat="44.79851673462893" lon="12.179035707340164"><ele>0.3333333333333333</ele><time>2026-04-11T11:15:47.934Z</time></trkpt><trkpt lat="44.79868860148471" lon="12.178991846199525"><ele>0.6666666666666666</ele><time>2026-04-11T11:15:48.934Z</time></trkpt><trkpt lat="44.798857512409974" lon="12.178959303494501"><ele>1.0</ele><time>2026-04-11T11:15:49.934Z</time></trkpt><trkpt lat="44.799024374298504" lon="12.178934577344867"><ele>1.0</ele><time>2026-04-11T11:15:50.933Z</time></trkpt><trkpt lat="44.799180014670426" lon="12.178911307229423"><ele>1.0</ele><time>2026-04-11T11:15:51.933Z</time></trkpt><trkpt lat="44.799338894980664" lon="12.17889050503353"><ele>1.0</ele><time>2026-04-11T11:15:52.933Z</time></trkpt><trkpt lat="44.799504613508276" lon="12.178871098794094"><ele>0.6666666666666666</ele><time>2026-04-11T11:15:53.933Z</time></trkpt><trkpt lat="44.79966894586102" lon="12.178860329331323"><ele>0.3333333333333333</ele><time>2026-04-11T11:15:54.933Z</time></trkpt><trkpt lat="44.79982675681134" lon="12.178849273026445"><ele>0.0</ele><time>2026-04-11T11:15:55.933Z</time></trkpt><trkpt lat="44.79997990403171" lon="12.178846766778447"><ele>0.0</ele><time>2026-04-11T11:15:56.933Z</time></trkpt><trkpt lat="44.80012249764829" lon="12.17884191606496"><ele>0.0</ele><time>2026-04-11T11:15:57.933Z</time></trkpt><trkpt lat="44.800253141564454" lon="12.178838406275082"><ele>0.0</ele><time>2026-04-11T11:15:58.933Z</time></trkpt><trkpt lat="44.800377647207284" lon="12.17883376041388"><ele>0.0</ele><time>2026-04-11T11:15:59.933Z</time></trkpt><trkpt lat="44.800493276806186" lon="12.178830875142483"><ele>0.0</ele><time>2026-04-11T11:16:00.933Z</time></trkpt><trkpt lat="44.80059652742703" lon="12.178814847323148"><ele>0.0</ele><time>2026-04-11T11:16:01.933Z</time></trkpt><trkpt lat="44.80069185614345" lon="12.178800880806795"><ele>0.0</ele><time>2026-04-11T11:16:02.933Z</time></trkpt><trkpt lat="44.80076746776511" lon="12.178761983304152"><ele>0.0</ele><time>2026-04-11T11:16:03.933Z</time></trkpt><trkpt lat="44.800813079601795" lon="12.178698945584497"><ele>0.0</ele><time>2026-04-11T11:16:04.933Z</time></trkpt><trkpt lat="44.80083534657709" lon="12.178600244436709"><ele>0.0</ele><time>2026-04-11T11:16:05.933Z</time></trkpt><trkpt lat="44.800840862420934" lon="12.178479289059688"><ele>0.0</ele><time>2026-04-11T11:16:06.933Z</time></trkpt><trkpt lat="44.80082860193793" lon="12.178313279397006"><ele>0.0</ele><time>2026-04-11T11:16:07.933Z</time></trkpt><trkpt lat="44.80082543971064" lon="12.17810051862448"><ele>0.0</ele><time>2026-04-11T11:16:08.933Z</time></trkpt><trkpt lat="44.80083823733047" lon="12.177887564205237"><ele>0.0</ele><time>2026-04-11T11:16:09.933Z</time></trkpt><trkpt lat="44.80085739476948" lon="12.177670738561499"><ele>0.0</ele><time>2026-04-11T11:16:10.933Z</time></trkpt><trkpt lat="44.80088524561104" lon="12.177446566818407"><ele>0.0</ele><time>2026-04-11T11:16:11.933Z</time></trkpt><trkpt lat="44.80090911518765" lon="12.177225875369409"><ele>0.0</ele><time>2026-04-11T11:16:12.933Z</time></trkpt><trkpt lat="44.800931920385445" lon="12.17698324315091"><ele>0.0</ele><time>2026-04-11T11:16:13.933Z</time></trkpt><trkpt lat="44.80095346675731" lon="12.176709228909367"><ele>0.0</ele><time>2026-04-11T11:16:14.933Z</time></trkpt><trkpt lat="44.80096374406766" lon="12.176415005571151"><ele>0.0</ele><time>2026-04-11T11:16:15.933Z</time></trkpt><trkpt lat="44.80100250039713" lon="12.176090699773571"><ele>-1.0</ele><time>2026-04-11T11:16:16.933Z</time></trkpt><trkpt lat="44.801005674161885" lon="12.175742522281206"><ele>-2.0</ele><time>2026-04-11T11:16:17.933Z</time></trkpt><trkpt lat="44.801038167470494" lon="12.175398916979013"><ele>-2.0</ele><time>2026-04-11T11:16:18.933Z</time></trkpt><trkpt lat="44.80107113069476" lon="12.175039143981868"><ele>-2.0</ele><time>2026-04-11T11:16:19.933Z</time></trkpt><trkpt lat="44.80110308685906" lon="12.174672539394265"><ele>-2.5</ele><time>2026-04-11T11:16:20.933Z</time></trkpt><trkpt lat="44.801157657350934" lon="12.17429167212297"><ele>-3.0</ele><time>2026-04-11T11:16:21.933Z</time></trkpt><trkpt lat="44.80119068934756" lon="12.173907326211362"><ele>-3.0</ele><time>2026-04-11T11:16:22.933Z</time></trkpt><trkpt lat="44.80122526256951" lon="12.173513075212048"><ele>-3.0</ele><time>2026-04-11T11:16:23.933Z</time></trkpt><trkpt lat="44.801260914995375" lon="12.173107018620932"><ele>-3.5</ele><time>2026-04-11T11:16:24.933Z</time></trkpt><trkpt lat="44.80129701004965" lon="12.172695946769075"><ele>-4.0</ele><time>2026-04-11T11:16:25.933Z</time></trkpt><trkpt lat="44.80133163661244" lon="12.172291989448428"><ele>-4.0</ele><time>2026-04-11T11:16:26.933Z</time></trkpt><trkpt lat="44.80136623038854" lon="12.17188561807353"><ele>-4.0</ele><time>2026-04-11T11:16:27.933Z</time></trkpt><trkpt lat="44.801400104134274" lon="12.171486306740809"><ele>-4.0</ele><time>2026-04-11T11:16:28.933Z</time></trkpt><trkpt lat="44.80143305770354" lon="12.171097842631365"><ele>-4.0</ele><time>2026-04-11T11:16:29.933Z</time></trkpt><trkpt lat="44.80146505732873" lon="12.170720623821923"><ele>-3.5</ele><time>2026-04-11T11:16:30.934Z</time></trkpt><trkpt lat="44.801496707883246" lon="12.17034751998164"><ele>-3.0</ele><time>2026-04-11T11:16:31.933Z</time></trkpt><trkpt lat="44.80152758265221" lon="12.169983561241107"><ele>-2.5</ele><time>2026-04-11T11:16:32.933Z</time></trkpt><trkpt lat="44.801557370046" lon="12.169632420740555"><ele>-2.0</ele><time>2026-04-11T11:16:33.934Z</time></trkpt><trkpt lat="44.801554076534636" lon="12.16928063018728"><ele>-2.0</ele><time>2026-04-11T11:16:34.934Z</time></trkpt><trkpt lat="44.80158595808438" lon="12.16894276786481"><ele>-2.0</ele><time>2026-04-11T11:16:35.934Z</time></trkpt><trkpt lat="44.801614223495925" lon="12.16860895262948"><ele>-2.0</ele><time>2026-04-11T11:16:36.934Z</time></trkpt><trkpt lat="44.80164287710777" lon="12.168292153277347"><ele>-2.0</ele><time>2026-04-11T11:16:37.933Z</time></trkpt><trkpt lat="44.80166843577163" lon="12.167977981852497"><ele>-2.0</ele><time>2026-04-11T11:16:38.933Z</time></trkpt><trkpt lat="44.80169533195718" lon="12.16767155379598"><ele>-2.0</ele><time>2026-04-11T11:16:39.933Z</time></trkpt><trkpt lat="44.80171819877964" lon="12.167388803758175"><ele>-2.0</ele><time>2026-04-11T11:16:40.934Z</time></trkpt><trkpt lat="44.80173591808027" lon="12.167132200024632"><ele>-1.6666666666666665</ele><time>2026-04-11T11:16:41.934Z</time></trkpt><trkpt lat="44.801742825158115" lon="12.166902628187039"><ele>-1.3333333333333333</ele><time>2026-04-11T11:16:42.934Z</time></trkpt><trkpt lat="44.801692958345924" lon="12.166696710055042"><ele>-1.0</ele><time>2026-04-11T11:16:43.934Z</time></trkpt><trkpt lat="44.80161575973116" lon="12.166495278313166"><ele>-2.0</ele><time>2026-04-11T11:16:44.934Z</time></trkpt><trkpt lat="44.80151509452016" lon="12.1663107336312"><ele>-3.0</ele><time>2026-04-11T11:16:45.934Z</time></trkpt><trkpt lat="44.80137128185084" lon="12.166155433468585"><ele>-4.0</ele><time>2026-04-11T11:16:46.934Z</time></trkpt><trkpt lat="44.80122302992074" lon="12.166022679037354"><ele>-4.0</ele><time>2026-04-11T11:16:47.934Z</time></trkpt><trkpt lat="44.80106653781691" lon="12.165902346589785"><ele>-4.0</ele><time>2026-04-11T11:16:48.934Z</time></trkpt><trkpt lat="44.80089585792632" lon="12.165804851204266"><ele>-4.0</ele><time>2026-04-11T11:16:49.934Z</time></trkpt><trkpt lat="44.800691280007335" lon="12.165815526272722"><ele>-3.6666666666666665</ele><time>2026-04-11T11:16:50.934Z</time></trkpt><trkpt lat="44.800473780675176" lon="12.165832298152631"><ele>-3.333333333333333</ele><time>2026-04-11T11:16:51.933Z</time></trkpt><trkpt lat="44.80026313370415" lon="12.165840260948379"><ele>-3.0</ele><time>2026-04-11T11:16:52.933Z</time></trkpt><trkpt lat="44.80007028287862" lon="12.165833665129824"><ele>-3.0</ele><time>2026-04-11T11:16:53.933Z</time></trkpt><trkpt lat="44.79988539084039" lon="12.165823055992972"><ele>-3.0</ele><time>2026-04-11T11:16:54.933Z</time></trkpt><trkpt lat="44.79969217264413" lon="12.16582436780434"><ele>-3.0</ele><time>2026-04-11T11:16:55.933Z</time></trkpt><trkpt lat="44.799502866066064" lon="12.165853640384096"><ele>-3.0</ele><time>2026-04-11T11:16:56.933Z</time></trkpt><trkpt lat="44.79931713102735" lon="12.16589054283782"><ele>-3.0</ele><time>2026-04-11T11:16:57.933Z</time></trkpt><trkpt lat="44.799133199914195" lon="12.165926121119778"><ele>-3.0</ele><time>2026-04-11T11:16:58.933Z</time></trkpt><trkpt lat="44.79895705299372" lon="12.165963746916287"><ele>-3.0</ele><time>2026-04-11T11:16:59.933Z</time></trkpt><trkpt lat="44.79876729667504" lon="12.165999582336951"><ele>-3.0</ele><time>2026-04-11T11:17:00.933Z</time></trkpt><trkpt lat="44.798578289564766" lon="12.166050078554328"><ele>-3.0</ele><time>2026-04-11T11:17:01.933Z</time></trkpt><trkpt lat="44.798388043200035" lon="12.16608921523518"><ele>-2.6666666666666665</ele><time>2026-04-11T11:17:02.933Z</time></trkpt><trkpt lat="44.79818896244562" lon="12.166141079225438"><ele>-2.333333333333333</ele><time>2026-04-11T11:17:03.933Z</time></trkpt><trkpt lat="44.79799318939522" lon="12.166172905654369"><ele>-2.0</ele><time>2026-04-11T11:17:04.933Z</time></trkpt><trkpt lat="44.79779531322171" lon="12.166183308857246"><ele>-1.6666666666666665</ele><time>2026-04-11T11:17:05.933Z</time></trkpt><trkpt lat="44.79759680961351" lon="12.166178324908909"><ele>-1.3333333333333333</ele><time>2026-04-11T11:17:06.933Z</time></trkpt><trkpt lat="44.797394208428415" lon="12.166141350629966"><ele>-1.0</ele><time>2026-04-11T11:17:07.933Z</time></trkpt><trkpt lat="44.79718320938964" lon="12.166114574433237"><ele>-1.0</ele><time>2026-04-11T11:17:08.933Z</time></trkpt><trkpt lat="44.79696602060894" lon="12.166049315554123"><ele>-1.0</ele><time>2026-04-11T11:17:09.933Z</time></trkpt><trkpt lat="44.79674118961866" lon="12.165990067055725"><ele>-1.3333333333333333</ele><time>2026-04-11T11:17:10.933Z</time></trkpt><trkpt lat="44.79652577779155" lon="12.165925072735629"><ele>-1.6666666666666665</ele><time>2026-04-11T11:17:11.933Z</time></trkpt><trkpt lat="44.796315034963094" lon="12.165879791361112"><ele>-2.0</ele><time>2026-04-11T11:17:12.933Z</time></trkpt><trkpt lat="44.79610822149586" lon="12.165810170718354"><ele>-2.0</ele><time>2026-04-11T11:17:13.933Z</time></trkpt><trkpt lat="44.795909961690136" lon="12.165767411315622"><ele>-2.0</ele><time>2026-04-11T11:17:14.933Z</time></trkpt><trkpt lat="44.795708678448705" lon="12.165732821798866"><ele>-2.0</ele><time>2026-04-11T11:17:15.933Z</time></trkpt><trkpt lat="44.795514903376095" lon="12.165709836996212"><ele>-2.0</ele><time>2026-04-11T11:17:16.933Z</time></trkpt><trkpt lat="44.795331072492054" lon="12.165689470866914"><ele>-2.0</ele><time>2026-04-11T11:17:17.933Z</time></trkpt><trkpt lat="44.79516494323172" lon="12.165668671682717"><ele>-2.0</ele><time>2026-04-11T11:17:18.933Z</time></trkpt><trkpt lat="44.79499537720016" lon="12.165647442221866"><ele>-2.0</ele><time>2026-04-11T11:17:19.933Z</time></trkpt><trkpt lat="44.79481428780105" lon="12.165624770052712"><ele>-2.0</ele><time>2026-04-11T11:17:20.933Z</time></trkpt><trkpt lat="44.79463362156387" lon="12.165602150861226"><ele>-2.0</ele><time>2026-04-11T11:17:21.933Z</time></trkpt><trkpt lat="44.79445920500036" lon="12.165580314123195"><ele>-2.0</ele><time>2026-04-11T11:17:22.933Z</time></trkpt><trkpt lat="44.79429111434793" lon="12.165558659639885"><ele>-2.0</ele><time>2026-04-11T11:17:23.933Z</time></trkpt><trkpt lat="44.79410940969036" lon="12.165534922949782"><ele>-2.0</ele><time>2026-04-11T11:17:24.933Z</time></trkpt><trkpt lat="44.79391463910285" lon="12.165500144663076"><ele>-2.0</ele><time>2026-04-11T11:17:25.933Z</time></trkpt><trkpt lat="44.79372721915952" lon="12.165436686780073"><ele>-2.0</ele><time>2026-04-11T11:17:26.933Z</time></trkpt><trkpt lat="44.793525821566796" lon="12.16535708834129"><ele>-2.0</ele><time>2026-04-11T11:17:27.933Z</time></trkpt><trkpt lat="44.793322895975386" lon="12.16527654463349"><ele>-2.0</ele><time>2026-04-11T11:17:28.933Z</time></trkpt><trkpt lat="44.79313024466271" lon="12.165200078915447"><ele>-2.0</ele><time>2026-04-11T11:17:29.933Z</time></trkpt><trkpt lat="44.79294774554378" lon="12.165127642730281"><ele>-2.0</ele><time>2026-04-11T11:17:30.933Z</time></trkpt><trkpt lat="44.792773054026675" lon="12.165058305478835"><ele>-2.0</ele><time>2026-04-11T11:17:31.933Z</time></trkpt><trkpt lat="44.79259491858003" lon="12.164987601289598"><ele>-2.0</ele><time>2026-04-11T11:17:32.933Z</time></trkpt><trkpt lat="44.7924125469536" lon="12.164915215708545"><ele>-2.0</ele><time>2026-04-11T11:17:33.932Z</time></trkpt><trkpt lat="44.79223105400316" lon="12.164840894660733"><ele>-2.333333333333333</ele><time>2026-04-11T11:17:34.932Z</time></trkpt><trkpt lat="44.792041871378856" lon="12.164763649949041"><ele>-2.6666666666666665</ele><time>2026-04-11T11:17:35.932Z</time></trkpt><trkpt lat="44.79185308975401" lon="12.164690317069992"><ele>-3.0</ele><time>2026-04-11T11:17:36.932Z</time></trkpt><trkpt lat="44.79167339628225" lon="12.16462309549412"><ele>-3.333333333333333</ele><time>2026-04-11T11:17:37.932Z</time></trkpt><trkpt lat="44.79149591864877" lon="12.164556702840395"><ele>-3.6666666666666665</ele><time>2026-04-11T11:17:38.932Z</time></trkpt><trkpt lat="44.79131087156208" lon="12.164496668326061"><ele>-4.0</ele><time>2026-04-11T11:17:39.932Z</time></trkpt><trkpt lat="44.791114414136665" lon="12.164469728327493"><ele>-4.0</ele><time>2026-04-11T11:17:40.932Z</time></trkpt><trkpt lat="44.7909216597135" lon="12.164419068511688"><ele>-4.0</ele><time>2026-04-11T11:17:41.932Z</time></trkpt><trkpt lat="44.7907134006097" lon="12.164420844328165"><ele>-4.0</ele><time>2026-04-11T11:17:42.932Z</time></trkpt><trkpt lat="44.79051039631275" lon="12.16438946029736"><ele>-4.0</ele><time>2026-04-11T11:17:43.932Z</time></trkpt><trkpt lat="44.790312648939036" lon="12.16438272791745"><ele>-4.0</ele><time>2026-04-11T11:17:44.932Z</time></trkpt><trkpt lat="44.79012346315569" lon="12.164372980598218"><ele>-4.0</ele><time>2026-04-11T11:17:45.932Z</time></trkpt><trkpt lat="44.789937957536566" lon="12.164367458279198"><ele>-3.333333333333333</ele><time>2026-04-11T11:17:46.932Z</time></trkpt><trkpt lat="44.78974969383841" lon="12.164359208975869"><ele>-2.6666666666666665</ele><time>2026-04-11T11:17:47.932Z</time></trkpt><trkpt lat="44.789558262618684" lon="12.16434691091488"><ele>-2.0</ele><time>2026-04-11T11:17:48.932Z</time></trkpt><trkpt lat="44.78936480562462" lon="12.164337133236959"><ele>-2.333333333333333</ele><time>2026-04-11T11:17:49.932Z</time></trkpt><trkpt lat="44.78917654643024" lon="12.164321558401321"><ele>-2.6666666666666665</ele><time>2026-04-11T11:17:50.932Z</time></trkpt><trkpt lat="44.78898368930139" lon="12.164296907126095"><ele>-3.0</ele><time>2026-04-11T11:17:51.932Z</time></trkpt><trkpt lat="44.78878546767925" lon="12.164269233223878"><ele>-3.0</ele><time>2026-04-11T11:17:52.932Z</time></trkpt><trkpt lat="44.78858651800331" lon="12.164247523019883"><ele>-3.0</ele><time>2026-04-11T11:17:53.932Z</time></trkpt><trkpt lat="44.78838158362919" lon="12.16421763119865"><ele>-3.0</ele><time>2026-04-11T11:17:54.932Z</time></trkpt><trkpt lat="44.78818470455672" lon="12.164187822414638"><ele>-3.0</ele><time>2026-04-11T11:17:55.932Z</time></trkpt><trkpt lat="44.787989250277995" lon="12.164158660781654"><ele>-3.0</ele><time>2026-04-11T11:17:56.932Z</time></trkpt><trkpt lat="44.78779559171892" lon="12.164110432838028"><ele>-3.0</ele><time>2026-04-11T11:17:57.932Z</time></trkpt><trkpt lat="44.787602455559636" lon="12.164079260103712"><ele>-3.0</ele><time>2026-04-11T11:17:58.932Z</time></trkpt><trkpt lat="44.78740989711432" lon="12.164048180612479"><ele>-3.0</ele><time>2026-04-11T11:17:59.932Z</time></trkpt><trkpt lat="44.787209482073564" lon="12.164016265204705"><ele>-3.0</ele><time>2026-04-11T11:18:00.932Z</time></trkpt><trkpt lat="44.78701017901084" lon="12.163987237490062"><ele>-3.666666666666667</ele><time>2026-04-11T11:18:01.932Z</time></trkpt><trkpt lat="44.78680784839283" lon="12.16396159837063"><ele>-4.333333333333334</ele><time>2026-04-11T11:18:02.932Z</time></trkpt><trkpt lat="44.786600124450594" lon="12.16394904871858"><ele>-5.0</ele><time>2026-04-11T11:18:03.932Z</time></trkpt><trkpt lat="44.786396839669976" lon="12.163976214041535"><ele>-5.0</ele><time>2026-04-11T11:18:04.932Z</time></trkpt><trkpt lat="44.786201516441956" lon="12.163968327260825"><ele>-5.0</ele><time>2026-04-11T11:18:05.932Z</time></trkpt><trkpt lat="44.786009193710065" lon="12.163963781428484"><ele>-5.0</ele><time>2026-04-11T11:18:06.932Z</time></trkpt><trkpt lat="44.78581648117384" lon="12.163966460126911"><ele>-5.0</ele><time>2026-04-11T11:18:07.932Z</time></trkpt><trkpt lat="44.78561166867403" lon="12.16396758557472"><ele>-5.0</ele><time>2026-04-11T11:18:08.932Z</time></trkpt><trkpt lat="44.78537982667551" lon="12.163953493231533"><ele>-5.0</ele><time>2026-04-11T11:18:09.932Z</time></trkpt><trkpt lat="44.78515194553062" lon="12.163940021296153"><ele>-4.5</ele><time>2026-04-11T11:18:10.932Z</time></trkpt><trkpt lat="44.78492349711295" lon="12.16390711724766"><ele>-4.0</ele><time>2026-04-11T11:18:11.932Z</time></trkpt><trkpt lat="44.78469919204663" lon="12.163883316217328"><ele>-4.0</ele><time>2026-04-11T11:18:12.932Z</time></trkpt><trkpt lat="44.78447287021533" lon="12.163862691683255"><ele>-4.0</ele><time>2026-04-11T11:18:13.932Z</time></trkpt><trkpt lat="44.78426549624647" lon="12.163795565698505"><ele>-4.0</ele><time>2026-04-11T11:18:14.932Z</time></trkpt><trkpt lat="44.784051446005336" lon="12.163780590673413"><ele>-4.0</ele><time>2026-04-11T11:18:15.931Z</time></trkpt><trkpt lat="44.783841254670655" lon="12.16375926811092"><ele>-4.0</ele><time>2026-04-11T11:18:16.931Z</time></trkpt><trkpt lat="44.78364492302856" lon="12.163724664349724"><ele>-4.0</ele><time>2026-04-11T11:18:17.931Z</time></trkpt><trkpt lat="44.78344988897969" lon="12.163695213669536"><ele>-3.6666666666666665</ele><time>2026-04-11T11:18:18.931Z</time></trkpt><trkpt lat="44.78325711524727" lon="12.163682937498606"><ele>-3.333333333333333</ele><time>2026-04-11T11:18:19.931Z</time></trkpt><trkpt lat="44.78305505703466" lon="12.1636641229375"><ele>-3.0</ele><time>2026-04-11T11:18:20.931Z</time></trkpt><trkpt lat="44.78284778371894" lon="12.163637157788399"><ele>-3.0</ele><time>2026-04-11T11:18:21.931Z</time></trkpt><trkpt lat="44.78262900199491" lon="12.163614740160877"><ele>-3.0</ele><time>2026-04-11T11:18:22.931Z</time></trkpt><trkpt lat="44.78240876205017" lon="12.16358102820507"><ele>-3.0</ele><time>2026-04-11T11:18:23.931Z</time></trkpt><trkpt lat="44.78219222556434" lon="12.16353575560851"><ele>-3.0</ele><time>2026-04-11T11:18:24.931Z</time></trkpt><trkpt lat="44.78197761503613" lon="12.163492168666632"><ele>-3.0</ele><time>2026-04-11T11:18:25.931Z</time></trkpt><trkpt lat="44.781765568280825" lon="12.163435355672977"><ele>-3.0</ele><time>2026-04-11T11:18:26.931Z</time></trkpt><trkpt lat="44.78155611117732" lon="12.163361267420271"><ele>-3.0</ele><time>2026-04-11T11:18:27.931Z</time></trkpt><trkpt lat="44.78134785503799" lon="12.163282748147092"><ele>-3.0</ele><time>2026-04-11T11:18:28.931Z</time></trkpt><trkpt lat="44.78114938511589" lon="12.163167658901367"><ele>-3.0</ele><time>2026-04-11T11:18:29.931Z</time></trkpt><trkpt lat="44.78094910511673" lon="12.163088653049197"><ele>-3.0</ele><time>2026-04-11T11:18:30.931Z</time></trkpt><trkpt lat="44.78076074310538" lon="12.163002420561076"><ele>-3.0</ele><time>2026-04-11T11:18:31.931Z</time></trkpt><trkpt lat="44.78057182066291" lon="12.162888239997676"><ele>-3.0</ele><time>2026-04-11T11:18:32.931Z</time></trkpt><trkpt lat="44.78038150554882" lon="12.162792698053838"><ele>-3.0</ele><time>2026-04-11T11:18:33.999Z</time></trkpt><trkpt lat="44.78019889161625" lon="12.162695302270285"><ele>-3.0</ele><time>2026-04-11T11:18:34.999Z</time></trkpt><trkpt lat="44.780007946130546" lon="12.16259101826701"><ele>-3.0</ele><time>2026-04-11T11:18:35.999Z</time></trkpt><trkpt lat="44.77980435613794" lon="12.162474895332425"><ele>-3.5</ele><time>2026-04-11T11:18:36.999Z</time></trkpt><trkpt lat="44.77959509777041" lon="12.162347554008635"><ele>-4.0</ele><time>2026-04-11T11:18:37.999Z</time></trkpt><trkpt lat="44.77935448442621" lon="12.16219934469405"><ele>-3.0</ele><time>2026-04-11T11:18:38.999Z</time></trkpt><trkpt lat="44.77909482897995" lon="12.162041553071608"><ele>-2.0</ele><time>2026-04-11T11:18:39.999Z</time></trkpt><trkpt lat="44.77881952920259" lon="12.161873089879963"><ele>-2.0</ele><time>2026-04-11T11:18:40.999Z</time></trkpt><trkpt lat="44.7785411506029" lon="12.161696916266422"><ele>-2.0</ele><time>2026-04-11T11:18:41.999Z</time></trkpt><trkpt lat="44.778257383781494" lon="12.161521490481793"><ele>-2.5</ele><time>2026-04-11T11:18:43Z</time></trkpt><trkpt lat="44.77797798303419" lon="12.161351614785653"><ele>-3.0</ele><time>2026-04-11T11:18:44Z</time></trkpt><trkpt lat="44.77770417715746" lon="12.161186240793064"><ele>-2.0</ele><time>2026-04-11T11:18:45Z</time></trkpt><trkpt lat="44.77742959872012" lon="12.161020563207314"><ele>-1.0</ele><time>2026-04-11T11:18:46Z</time></trkpt><trkpt lat="44.777159784678915" lon="12.160857648591067"><ele>-1.5</ele><time>2026-04-11T11:18:47Z</time></trkpt><trkpt lat="44.77688035904099" lon="12.160684254261888"><ele>-2.0</ele><time>2026-04-11T11:18:48Z</time></trkpt><trkpt lat="44.776615243896444" lon="12.160523279509725"><ele>-2.0</ele><time>2026-04-11T11:18:49Z</time></trkpt><trkpt lat="44.776350543768004" lon="12.160362220265647"><ele>-2.0</ele><time>2026-04-11T11:18:50Z</time></trkpt><trkpt lat="44.77609027901641" lon="12.160200558935138"><ele>-2.5</ele><time>2026-04-11T11:18:51Z</time></trkpt><trkpt lat="44.775820862704066" lon="12.160045470886592"><ele>-3.0</ele><time>2026-04-11T11:18:52Z</time></trkpt><trkpt lat="44.77554494781813" lon="12.159901490373086"><ele>-3.5</ele><time>2026-04-11T11:18:53Z</time></trkpt><trkpt lat="44.7752657942922" lon="12.1597717220397"><ele>-4.0</ele><time>2026-04-11T11:18:54Z</time></trkpt><trkpt lat="44.77498881079405" lon="12.159645229041026"><ele>-3.0</ele><time>2026-04-11T11:18:55Z</time></trkpt><trkpt lat="44.774706703670056" lon="12.159515579258608"><ele>-2.0</ele><time>2026-04-11T11:18:56Z</time></trkpt><trkpt lat="44.774425476927654" lon="12.159386334140045"><ele>-2.0</ele><time>2026-04-11T11:18:57Z</time></trkpt><trkpt lat="44.774143951127435" lon="12.159256760030129"><ele>-2.0</ele><time>2026-04-11T11:18:58Z</time></trkpt><trkpt lat="44.773860431322106" lon="12.159124925291842"><ele>-2.5</ele><time>2026-04-11T11:18:59Z</time></trkpt><trkpt lat="44.7735828920479" lon="12.158995871426209"><ele>-3.0</ele><time>2026-04-11T11:19:00Z</time></trkpt><trkpt lat="44.773303684597934" lon="12.158866155561677"><ele>-3.0</ele><time>2026-04-11T11:19:01Z</time></trkpt><trkpt lat="44.7730262673514" lon="12.158741775337287"><ele>-3.0</ele><time>2026-04-11T11:19:02Z</time></trkpt><trkpt lat="44.77275188248412" lon="12.158618850153282"><ele>-2.0</ele><time>2026-04-11T11:19:03Z</time></trkpt><trkpt lat="44.77247548476749" lon="12.158496526083649"><ele>-1.0</ele><time>2026-04-11T11:19:04Z</time></trkpt><trkpt lat="44.7721948680324" lon="12.158387365674391"><ele>-1.0</ele><time>2026-04-11T11:19:05Z</time></trkpt><trkpt lat="44.77191190759935" lon="12.158292474077147"><ele>-1.0</ele><time>2026-04-11T11:19:06Z</time></trkpt><trkpt lat="44.771621659275716" lon="12.158242526078709"><ele>-3.0</ele><time>2026-04-11T11:19:07Z</time></trkpt><trkpt lat="44.77134144732934" lon="12.158161072516712"><ele>-5.0</ele><time>2026-04-11T11:19:08Z</time></trkpt><trkpt lat="44.77106545080052" lon="12.158070337000943"><ele>-4.0</ele><time>2026-04-11T11:19:09Z</time></trkpt><trkpt lat="44.77080720822938" lon="12.157984425442454"><ele>-3.0</ele><time>2026-04-11T11:19:10Z</time></trkpt><trkpt lat="44.77054297869701" lon="12.157895346528923"><ele>-3.0</ele><time>2026-04-11T11:19:11Z</time></trkpt><trkpt lat="44.77028499183427" lon="12.157809937475946"><ele>-3.0</ele><time>2026-04-11T11:19:12Z</time></trkpt><trkpt lat="44.770030247805515" lon="12.157736341935284"><ele>-2.0</ele><time>2026-04-11T11:19:13Z</time></trkpt><trkpt lat="44.76979221552159" lon="12.157664483143774"><ele>-1.0</ele><time>2026-04-11T11:19:14Z</time></trkpt><trkpt lat="44.76957865644224" lon="12.157576437347617"><ele>-1.0</ele><time>2026-04-11T11:19:15Z</time></trkpt><trkpt lat="44.76937713763441" lon="12.157488669156562"><ele>-1.0</ele><time>2026-04-11T11:19:16Z</time></trkpt><trkpt lat="44.769186557724204" lon="12.157381436689713"><ele>-1.0</ele><time>2026-04-11T11:19:17Z</time></trkpt><trkpt lat="44.76900829343387" lon="12.157250754680616"><ele>-1.3333333333333333</ele><time>2026-04-11T11:19:18Z</time></trkpt><trkpt lat="44.768843345456546" lon="12.157079104123769"><ele>-1.6666666666666665</ele><time>2026-04-11T11:19:19Z</time></trkpt><trkpt lat="44.768703202362865" lon="12.156866669748426"><ele>-2.0</ele><time>2026-04-11T11:19:20Z</time></trkpt><trkpt lat="44.76859497180878" lon="12.156606051998546"><ele>-2.0</ele><time>2026-04-11T11:19:21Z</time></trkpt><trkpt lat="44.76850376737033" lon="12.15632484732418"><ele>-2.0</ele><time>2026-04-11T11:19:22Z</time></trkpt><trkpt lat="44.76844311158127" lon="12.156006903611058"><ele>-2.5</ele><time>2026-04-11T11:19:23Z</time></trkpt><trkpt lat="44.76841055384731" lon="12.155678158077809"><ele>-3.0</ele><time>2026-04-11T11:19:24Z</time></trkpt><trkpt lat="44.76839326641893" lon="12.155334543412721"><ele>-3.0</ele><time>2026-04-11T11:19:25Z</time></trkpt><trkpt lat="44.76839113849239" lon="12.154972838831936"><ele>-3.0</ele><time>2026-04-11T11:19:26Z</time></trkpt><trkpt lat="44.768390734790195" lon="12.154594083020426"><ele>-3.0</ele><time>2026-04-11T11:19:27Z</time></trkpt><trkpt lat="44.76838139023852" lon="12.154209126280886"><ele>-3.0</ele><time>2026-04-11T11:19:28Z</time></trkpt><trkpt lat="44.768376289620726" lon="12.153833044437397"><ele>-3.0</ele><time>2026-04-11T11:19:29Z</time></trkpt><trkpt lat="44.7683726483041" lon="12.153448173624428"><ele>-3.0</ele><time>2026-04-11T11:19:30Z</time></trkpt><trkpt lat="44.7683549342638" lon="12.153096781453476"><ele>-3.333333333333333</ele><time>2026-04-11T11:19:31Z</time></trkpt><trkpt lat="44.768342599553925" lon="12.152766423796267"><ele>-3.6666666666666665</ele><time>2026-04-11T11:19:32Z</time></trkpt><trkpt lat="44.7683303344997" lon="12.152465152946402"><ele>-4.0</ele><time>2026-04-11T11:19:33Z</time></trkpt><trkpt lat="44.76832436259818" lon="12.152183964802699"><ele>-2.6666666666666665</ele><time>2026-04-11T11:19:34Z</time></trkpt><trkpt lat="44.76832737426094" lon="12.151922776425979"><ele>-1.3333333333333333</ele><time>2026-04-11T11:19:35Z</time></trkpt><trkpt lat="44.76832259770949" lon="12.151681722371983"><ele>0.0</ele><time>2026-04-11T11:19:36Z</time></trkpt><trkpt lat="44.768319390871945" lon="12.151472459909236"><ele>0.4</ele><time>2026-04-11T11:19:37Z</time></trkpt><trkpt lat="44.76831679216769" lon="12.151300022193722"><ele>0.8</ele><time>2026-04-11T11:19:38Z</time></trkpt><trkpt lat="44.7683145029569" lon="12.151148121173234"><ele>1.2000000000000002</ele><time>2026-04-11T11:19:39Z</time></trkpt><trkpt lat="44.76832092705137" lon="12.150999523786513"><ele>1.6</ele><time>2026-04-11T11:19:40Z</time></trkpt><trkpt lat="44.76836905695208" lon="12.150861948690842"><ele>2.0</ele><time>2026-04-11T11:19:41Z</time></trkpt><trkpt lat="44.76842028235742" lon="12.15072155141992"><ele>1.75</ele><time>2026-04-11T11:19:42Z</time></trkpt><trkpt lat="44.76850428497151" lon="12.150581280058933"><ele>1.5</ele><time>2026-04-11T11:19:43Z</time></trkpt><trkpt lat="44.76859912860918" lon="12.150482831310073"><ele>1.25</ele><time>2026-04-11T11:19:44Z</time></trkpt><trkpt lat="44.76871022251097" lon="12.150412327311475"><ele>1.0</ele><time>2026-04-11T11:19:45Z</time></trkpt><trkpt lat="44.768856794948185" lon="12.150390691090141"><ele>1.0</ele><time>2026-04-11T11:19:46Z</time></trkpt><trkpt lat="44.76903118852675" lon="12.15036240095064"><ele>1.0</ele><time>2026-04-11T11:19:47Z</time></trkpt><trkpt lat="44.769219453341336" lon="12.150317530339624"><ele>1.0</ele><time>2026-04-11T11:19:48Z</time></trkpt><trkpt lat="44.76941471566334" lon="12.150282798415654"><ele>-0.33333333333333337</ele><time>2026-04-11T11:19:49Z</time></trkpt><trkpt lat="44.76961339310675" lon="12.15024174764028"><ele>-1.6666666666666667</ele><time>2026-04-11T11:19:50Z</time></trkpt><trkpt lat="44.7698152298881" lon="12.150193128375381"><ele>-3.0</ele><time>2026-04-11T11:19:51Z</time></trkpt><trkpt lat="44.77002456846483" lon="12.150106612363881"><ele>-3.0</ele><time>2026-04-11T11:19:52Z</time></trkpt><trkpt lat="44.7702337890344" lon="12.149994169318406"><ele>-3.0</ele><time>2026-04-11T11:19:53Z</time></trkpt><trkpt lat="44.77043759105028" lon="12.149843014367065"><ele>-3.0</ele><time>2026-04-11T11:19:54Z</time></trkpt><trkpt lat="44.77064610889352" lon="12.149682130451797"><ele>-3.0</ele><time>2026-04-11T11:19:55Z</time></trkpt><trkpt lat="44.77083634693142" lon="12.1494717314934"><ele>-3.0</ele><time>2026-04-11T11:19:56Z</time></trkpt><trkpt lat="44.7710184612001" lon="12.149224820334501"><ele>-3.0</ele><time>2026-04-11T11:19:57Z</time></trkpt><trkpt lat="44.77118582465475" lon="12.14893354171956"><ele>-3.0</ele><time>2026-04-11T11:19:58Z</time></trkpt><trkpt lat="44.771348054295665" lon="12.148604695440412"><ele>-3.0</ele><time>2026-04-11T11:19:58.999Z</time></trkpt><trkpt lat="44.771502416684896" lon="12.148261744425271"><ele>-2.5</ele><time>2026-04-11T11:19:59.999Z</time></trkpt><trkpt lat="44.7716601204529" lon="12.147911369167325"><ele>-2.0</ele><time>2026-04-11T11:20:00.999Z</time></trkpt><trkpt lat="44.77181578418442" lon="12.147565526780904"><ele>-2.5</ele><time>2026-04-11T11:20:01.999Z</time></trkpt><trkpt lat="44.77197094541333" lon="12.147220800128906"><ele>-3.0</ele><time>2026-04-11T11:20:02.999Z</time></trkpt><trkpt lat="44.77212360306908" lon="12.146881636297179"><ele>-2.5</ele><time>2026-04-11T11:20:03.999Z</time></trkpt><trkpt lat="44.77227737919206" lon="12.14653998735106"><ele>-2.0</ele><time>2026-04-11T11:20:04.999Z</time></trkpt><trkpt lat="44.772431270641384" lon="12.14619888638671"><ele>-2.0</ele><time>2026-04-11T11:20:05.999Z</time></trkpt><trkpt lat="44.772580712031" lon="12.145868093306323"><ele>-2.0</ele><time>2026-04-11T11:20:06.999Z</time></trkpt><trkpt lat="44.77271794606233" lon="12.145528833860661"><ele>-2.5</ele><time>2026-04-11T11:20:07.999Z</time></trkpt><trkpt lat="44.772863707335794" lon="12.145216883319272"><ele>-3.0</ele><time>2026-04-11T11:20:08.999Z</time></trkpt><trkpt lat="44.7730091740691" lon="12.144905335315407"><ele>-2.5</ele><time>2026-04-11T11:20:09.999Z</time></trkpt><trkpt lat="44.773146849520145" lon="12.144603548737107"><ele>-2.0</ele><time>2026-04-11T11:20:10.999Z</time></trkpt><trkpt lat="44.77327526420294" lon="12.144324766371557"><ele>-2.0</ele><time>2026-04-11T11:20:11.999Z</time></trkpt><trkpt lat="44.77339471037652" lon="12.144057994524363"><ele>-2.0</ele><time>2026-04-11T11:20:12.999Z</time></trkpt><trkpt lat="44.77349836772992" lon="12.143779134195107"><ele>-2.0</ele><time>2026-04-11T11:20:13.999Z</time></trkpt><trkpt lat="44.77359455542734" lon="12.143479146742356"><ele>-2.5</ele><time>2026-04-11T11:20:14.999Z</time></trkpt><trkpt lat="44.77366550704559" lon="12.143157545289577"><ele>-3.0</ele><time>2026-04-11T11:20:15.999Z</time></trkpt><trkpt lat="44.77371908791756" lon="12.142816010459072"><ele>-3.0</ele><time>2026-04-11T11:20:16.999Z</time></trkpt><trkpt lat="44.7737391215045" lon="12.142458089091582"><ele>-3.0</ele><time>2026-04-11T11:20:17.999Z</time></trkpt><trkpt lat="44.77372996286255" lon="12.14207383626561"><ele>-2.5</ele><time>2026-04-11T11:20:18.999Z</time></trkpt><trkpt lat="44.773697737000234" lon="12.14165046037038"><ele>-2.0</ele><time>2026-04-11T11:20:19.999Z</time></trkpt><trkpt lat="44.77366553583751" lon="12.1412037479781"><ele>-2.0</ele><time>2026-04-11T11:20:20.999Z</time></trkpt><trkpt lat="44.77363837124343" lon="12.140755746779266"><ele>-2.0</ele><time>2026-04-11T11:20:21.999Z</time></trkpt><trkpt lat="44.77359825950273" lon="12.14029791016175"><ele>-2.0</ele><time>2026-04-11T11:20:22.999Z</time></trkpt><trkpt lat="44.77355985562484" lon="12.139841662203226"><ele>-2.0</ele><time>2026-04-11T11:20:23.999Z</time></trkpt><trkpt lat="44.77352181591085" lon="12.139370631967994"><ele>-2.5</ele><time>2026-04-11T11:20:24.999Z</time></trkpt><trkpt lat="44.77349832764054" lon="12.138917439971573"><ele>-3.0</ele><time>2026-04-11T11:20:25.999Z</time></trkpt><trkpt lat="44.7734599074555" lon="12.138461313275101"><ele>-2.5</ele><time>2026-04-11T11:20:26.999Z</time></trkpt><trkpt lat="44.773430913808824" lon="12.138012120715343"><ele>-2.0</ele><time>2026-04-11T11:20:27.999Z</time></trkpt><trkpt lat="44.77340573965329" lon="12.137568470577236"><ele>-2.0</ele><time>2026-04-11T11:20:28.999Z</time></trkpt><trkpt lat="44.773375955321335" lon="12.137140875331433"><ele>-2.0</ele><time>2026-04-11T11:20:29.999Z</time></trkpt><trkpt lat="44.77334208579019" lon="12.136704522246193"><ele>-3.0</ele><time>2026-04-11T11:20:30.999Z</time></trkpt><trkpt lat="44.77330992294404" lon="12.136269784905792"><ele>-4.0</ele><time>2026-04-11T11:20:31.999Z</time></trkpt><trkpt lat="44.77327743245623" lon="12.135829653360037"><ele>-3.0</ele><time>2026-04-11T11:20:32.999Z</time></trkpt><trkpt lat="44.77324362464835" lon="12.135398875282418"><ele>-2.0</ele><time>2026-04-11T11:20:33.999Z</time></trkpt><trkpt lat="44.77321713896009" lon="12.134977619747923"><ele>-2.0</ele><time>2026-04-11T11:20:34.999Z</time></trkpt><trkpt lat="44.77318455221281" lon="12.134568364578318"><ele>-2.0</ele><time>2026-04-11T11:20:35.999Z</time></trkpt><trkpt lat="44.773156500638386" lon="12.13417109997518"><ele>-3.0</ele><time>2026-04-11T11:20:36.999Z</time></trkpt><trkpt lat="44.77312589735854" lon="12.133785988517591"><ele>-4.0</ele><time>2026-04-11T11:20:37.999Z</time></trkpt><trkpt lat="44.77309971331722" lon="12.133414507129755"><ele>-4.0</ele><time>2026-04-11T11:20:38.999Z</time></trkpt><trkpt lat="44.77307393980485" lon="12.13305574583751"><ele>-4.0</ele><time>2026-04-11T11:20:40.001Z</time></trkpt><trkpt lat="44.77304822081493" lon="12.132705577044325"><ele>-4.0</ele><time>2026-04-11T11:20:41.001Z</time></trkpt><trkpt lat="44.77302450048816" lon="12.132372482893414"><ele>-4.0</ele><time>2026-04-11T11:20:42.001Z</time></trkpt><trkpt lat="44.7730089919591" lon="12.132069431990432"><ele>-4.0</ele><time>2026-04-11T11:20:43.001Z</time></trkpt><trkpt lat="44.772994313295264" lon="12.131817527787002"><ele>-4.0</ele><time>2026-04-11T11:20:44.001Z</time></trkpt><trkpt lat="44.77298052349466" lon="12.131600605794311"><ele>-4.0</ele><time>2026-04-11T11:20:45.001Z</time></trkpt><trkpt lat="44.77297221586753" lon="12.131400115466558"><ele>-3.75</ele><time>2026-04-11T11:20:46.001Z</time></trkpt><trkpt lat="44.77297426203591" lon="12.131226497690495"><ele>-3.5</ele><time>2026-04-11T11:20:47.001Z</time></trkpt><trkpt lat="44.77298770227405" lon="12.131067538545233"><ele>-3.25</ele><time>2026-04-11T11:20:48.001Z</time></trkpt><trkpt lat="44.77302427047079" lon="12.130915761717452"><ele>-3.0</ele><time>2026-04-11T11:20:49.001Z</time></trkpt><trkpt lat="44.77308636392109" lon="12.130771738247557"><ele>-3.0</ele><time>2026-04-11T11:20:50.001Z</time></trkpt><trkpt lat="44.77318161967747" lon="12.130635331743287"><ele>-3.0</ele><time>2026-04-11T11:20:51Z</time></trkpt><trkpt lat="44.773292848184056" lon="12.13050774879111"><ele>-3.0</ele><time>2026-04-11T11:20:52.001Z</time></trkpt><trkpt lat="44.77341882851642" lon="12.130401362344292"><ele>-3.0</ele><time>2026-04-11T11:20:53Z</time></trkpt><trkpt lat="44.77357497141645" lon="12.130310636725444"><ele>-2.6666666666666665</ele><time>2026-04-11T11:20:54Z</time></trkpt><trkpt lat="44.77375231750726" lon="12.130238165064055"><ele>-2.333333333333333</ele><time>2026-04-11T11:20:55Z</time></trkpt><trkpt lat="44.77392224766961" lon="12.130160629802084"><ele>-2.0</ele><time>2026-04-11T11:20:56Z</time></trkpt><trkpt lat="44.7740876992313" lon="12.130065336489032"><ele>-2.0</ele><time>2026-04-11T11:20:57Z</time></trkpt><trkpt lat="44.77424572576245" lon="12.129958014653653"><ele>-2.0</ele><time>2026-04-11T11:20:58Z</time></trkpt><trkpt lat="44.77441395961715" lon="12.129805165147959"><ele>-2.0</ele><time>2026-04-11T11:20:59Z</time></trkpt><trkpt lat="44.77459977501802" lon="12.129750596903452"><ele>-2.0</ele><time>2026-04-11T11:21:00Z</time></trkpt><trkpt lat="44.774793666296915" lon="12.129668944813458"><ele>-2.0</ele><time>2026-04-11T11:21:01Z</time></trkpt><trkpt lat="44.77499351727958" lon="12.129561756255434"><ele>-2.0</ele><time>2026-04-11T11:21:02Z</time></trkpt><trkpt lat="44.77519534251308" lon="12.129409831660364"><ele>-1.0</ele><time>2026-04-11T11:21:03Z</time></trkpt><trkpt lat="44.77540843744513" lon="12.129236829513745"><ele>0.0</ele><time>2026-04-11T11:21:04Z</time></trkpt><trkpt lat="44.77562310483842" lon="12.129064391788436"><ele>-0.5</ele><time>2026-04-11T11:21:05Z</time></trkpt><trkpt lat="44.77583641752937" lon="12.128891384773905"><ele>-1.0</ele><time>2026-04-11T11:21:06Z</time></trkpt><trkpt lat="44.77604112378855" lon="12.128713402186724"><ele>0.5</ele><time>2026-04-11T11:21:07Z</time></trkpt><trkpt lat="44.7762402608812" lon="12.128516273709494"><ele>2.0</ele><time>2026-04-11T11:21:08Z</time></trkpt><trkpt lat="44.7764260611566" lon="12.12832244360466"><ele>0.6666666666666666</ele><time>2026-04-11T11:21:09Z</time></trkpt><trkpt lat="44.77659773849787" lon="12.128132543870047"><ele>-0.6666666666666666</ele><time>2026-04-11T11:21:10Z</time></trkpt><trkpt lat="44.776750377530476" lon="12.127954715740026"><ele>-2.0</ele><time>2026-04-11T11:21:11Z</time></trkpt><trkpt lat="44.77688492498959" lon="12.127796124350176"><ele>-2.0</ele><time>2026-04-11T11:21:12Z</time></trkpt><trkpt lat="44.77702001298503" lon="12.127662411875534"><ele>-2.0</ele><time>2026-04-11T11:21:13Z</time></trkpt><trkpt lat="44.77716850652879" lon="12.127578481013654"><ele>-2.0</ele><time>2026-04-11T11:21:14Z</time></trkpt><trkpt lat="44.777328614456934" lon="12.127544042463589"><ele>-2.0</ele><time>2026-04-11T11:21:15Z</time></trkpt><trkpt lat="44.777524021716864" lon="12.127546406909312"><ele>-2.0</ele><time>2026-04-11T11:21:16Z</time></trkpt><trkpt lat="44.77773252132966" lon="12.127580006738924"><ele>-2.0</ele><time>2026-04-11T11:21:17Z</time></trkpt><trkpt lat="44.777943730634945" lon="12.12762835900001"><ele>-2.0</ele><time>2026-04-11T11:21:18Z</time></trkpt><trkpt lat="44.77815242461762" lon="12.12768572544938"><ele>-2.0</ele><time>2026-04-11T11:21:19Z</time></trkpt><trkpt lat="44.778349527144" lon="12.127742647832966"><ele>-2.0</ele><time>2026-04-11T11:21:20Z</time></trkpt><trkpt lat="44.77854513161143" lon="12.127779631649275"><ele>-2.0</ele><time>2026-04-11T11:21:21Z</time></trkpt><trkpt lat="44.77872830316447" lon="12.127783109782955"><ele>-2.0</ele><time>2026-04-11T11:21:22Z</time></trkpt><trkpt lat="44.77891239779499" lon="12.12776787050174"><ele>-2.0</ele><time>2026-04-11T11:21:23Z</time></trkpt><trkpt lat="44.77909790514371" lon="12.127748428840484"><ele>-2.0</ele><time>2026-04-11T11:21:24Z</time></trkpt><trkpt lat="44.779276546899524" lon="12.127730960335011"><ele>-2.0</ele><time>2026-04-11T11:21:25Z</time></trkpt><trkpt lat="44.77944932042965" lon="12.127721627571656"><ele>-2.0</ele><time>2026-04-11T11:21:26Z</time></trkpt><trkpt lat="44.779616809282615" lon="12.127741420526776"><ele>-2.0</ele><time>2026-04-11T11:21:27Z</time></trkpt><trkpt lat="44.77979390956551" lon="12.127784853137712"><ele>-2.0</ele><time>2026-04-11T11:21:28Z</time></trkpt><trkpt lat="44.77997197563486" lon="12.127828761705096"><ele>-2.0</ele><time>2026-04-11T11:21:29Z</time></trkpt><trkpt lat="44.78015329188465" lon="12.127878064924637"><ele>-1.6666666666666665</ele><time>2026-04-11T11:21:30Z</time></trkpt><trkpt lat="44.78032599540828" lon="12.12792190546988"><ele>-1.3333333333333333</ele><time>2026-04-11T11:21:31Z</time></trkpt><trkpt lat="44.7804908331965" lon="12.127959017047939"><ele>-1.0</ele><time>2026-04-11T11:21:32Z</time></trkpt><trkpt lat="44.78065110451176" lon="12.127990026195313"><ele>-1.0</ele><time>2026-04-11T11:21:33Z</time></trkpt><trkpt lat="44.78081119897166" lon="12.127976422309295"><ele>-1.0</ele><time>2026-04-11T11:21:34Z</time></trkpt><trkpt lat="44.780966240965284" lon="12.127956120377469"><ele>-1.0</ele><time>2026-04-11T11:21:35Z</time></trkpt><trkpt lat="44.78110483525757" lon="12.127914557017279"><ele>-0.75</ele><time>2026-04-11T11:21:36Z</time></trkpt><trkpt lat="44.78122703840784" lon="12.127863615942198"><ele>-0.5</ele><time>2026-04-11T11:21:37Z</time></trkpt><trkpt lat="44.78134427879801" lon="12.127784589128227"><ele>-0.25</ele><time>2026-04-11T11:21:38Z</time></trkpt><trkpt lat="44.78145118689634" lon="12.127682933438457"><ele>0.0</ele><time>2026-04-11T11:21:39Z</time></trkpt><trkpt lat="44.78153771505401" lon="12.127537755832803"><ele>-0.6666666666666666</ele><time>2026-04-11T11:21:40Z</time></trkpt><trkpt lat="44.781607112346514" lon="12.12735174388141"><ele>-1.3333333333333333</ele><time>2026-04-11T11:21:41Z</time></trkpt><trkpt lat="44.78165781422329" lon="12.127143272316108"><ele>-2.0</ele><time>2026-04-11T11:21:42Z</time></trkpt><trkpt lat="44.78169605758812" lon="12.126927477386218"><ele>-2.0</ele><time>2026-04-11T11:21:43Z</time></trkpt><trkpt lat="44.78174340027515" lon="12.126716441378464"><ele>-2.0</ele><time>2026-04-11T11:21:44Z</time></trkpt><trkpt lat="44.78178805388632" lon="12.126511320991254"><ele>-2.0</ele><time>2026-04-11T11:21:45Z</time></trkpt><trkpt lat="44.7818342714543" lon="12.126320496618034"><ele>-1.6666666666666665</ele><time>2026-04-11T11:21:46Z</time></trkpt><trkpt lat="44.78188216396724" lon="12.126104633771472"><ele>-1.3333333333333333</ele><time>2026-04-11T11:21:47Z</time></trkpt><trkpt lat="44.7819546497248" lon="12.125889280527181"><ele>-1.0</ele><time>2026-04-11T11:21:48Z</time></trkpt><trkpt lat="44.78203833360799" lon="12.125668899243612"><ele>-0.6666666666666666</ele><time>2026-04-11T11:21:49Z</time></trkpt><trkpt lat="44.782128856130825" lon="12.12545102849582"><ele>-0.3333333333333333</ele><time>2026-04-11T11:21:50Z</time></trkpt><trkpt lat="44.78222306890781" lon="12.125232713249789"><ele>0.0</ele><time>2026-04-11T11:21:51Z</time></trkpt><trkpt lat="44.78232226805096" lon="12.125013395735435"><ele>-0.3333333333333333</ele><time>2026-04-11T11:21:52Z</time></trkpt><trkpt lat="44.78242173348407" lon="12.124800515706367"><ele>-0.6666666666666666</ele><time>2026-04-11T11:21:53Z</time></trkpt><trkpt lat="44.78252002835016" lon="12.124569928208977"><ele>-1.0</ele><time>2026-04-11T11:21:54Z</time></trkpt><trkpt lat="44.78262907390076" lon="12.12432227589172"><ele>-1.0</ele><time>2026-04-11T11:21:55Z</time></trkpt><trkpt lat="44.78270631161215" lon="12.124039287740759"><ele>-1.0</ele><time>2026-04-11T11:21:56Z</time></trkpt><trkpt lat="44.78279648752367" lon="12.123760523022241"><ele>-1.0</ele><time>2026-04-11T11:21:57Z</time></trkpt><trkpt lat="44.78288877793528" lon="12.123488363714802"><ele>-1.0</ele><time>2026-04-11T11:21:58Z</time></trkpt><trkpt lat="44.782986423044406" lon="12.123233383134465"><ele>-1.0</ele><time>2026-04-11T11:21:59Z</time></trkpt><trkpt lat="44.78311167194623" lon="12.123010873695417"><ele>-1.0</ele><time>2026-04-11T11:22:00Z</time></trkpt><trkpt lat="44.783236142209276" lon="12.122792774497114"><ele>-1.0</ele><time>2026-04-11T11:22:01Z</time></trkpt><trkpt lat="44.78336956435138" lon="12.122591712515224"><ele>-1.0</ele><time>2026-04-11T11:22:02Z</time></trkpt><trkpt lat="44.783509847363625" lon="12.122403349980969"><ele>-1.0</ele><time>2026-04-11T11:22:03Z</time></trkpt><trkpt lat="44.78365140011124" lon="12.122231325566897"><ele>-1.3333333333333333</ele><time>2026-04-11T11:22:04Z</time></trkpt><trkpt lat="44.78378509837357" lon="12.122064441568764"><ele>-1.6666666666666665</ele><time>2026-04-11T11:22:05Z</time></trkpt><trkpt lat="44.7839107478425" lon="12.121874976410899"><ele>-2.0</ele><time>2026-04-11T11:22:06Z</time></trkpt><trkpt lat="44.7840093556186" lon="12.121656131870449"><ele>-1.6666666666666665</ele><time>2026-04-11T11:22:07Z</time></trkpt><trkpt lat="44.784074826981865" lon="12.1214326333259"><ele>-1.3333333333333333</ele><time>2026-04-11T11:22:08Z</time></trkpt><trkpt lat="44.78412666181761" lon="12.121223197078232"><ele>-1.0</ele><time>2026-04-11T11:22:09Z</time></trkpt><trkpt lat="44.784175742666136" lon="12.120996357436159"><ele>-1.0</ele><time>2026-04-11T11:22:10Z</time></trkpt><trkpt lat="44.78430574932677" lon="12.120816969933525"><ele>-1.0</ele><time>2026-04-11T11:22:11Z</time></trkpt><trkpt lat="44.78442377334443" lon="12.120659153166532"><ele>-1.0</ele><time>2026-04-11T11:22:12Z</time></trkpt><trkpt lat="44.78452548576246" lon="12.12049390415893"><ele>-1.3333333333333333</ele><time>2026-04-11T11:22:13Z</time></trkpt><trkpt lat="44.78468106517871" lon="12.12045514767086"><ele>-1.6666666666666665</ele><time>2026-04-11T11:22:14Z</time></trkpt><trkpt lat="44.78485428705066" lon="12.120350431047765"><ele>-2.0</ele><time>2026-04-11T11:22:14.999Z</time></trkpt><trkpt lat="44.78503754020741" lon="12.120225177766642"><ele>-1.6666666666666665</ele><time>2026-04-11T11:22:15.999Z</time></trkpt><trkpt lat="44.78523933883016" lon="12.120092642244128"><ele>-1.3333333333333333</ele><time>2026-04-11T11:22:16.999Z</time></trkpt><trkpt lat="44.785433641243166" lon="12.119928151269553"><ele>-1.0</ele><time>2026-04-11T11:22:17.999Z</time></trkpt><trkpt lat="44.785641078978394" lon="12.119809490719211"><ele>-1.0</ele><time>2026-04-11T11:22:18.999Z</time></trkpt><trkpt lat="44.78583502725375" lon="12.11970068167661"><ele>-1.0</ele><time>2026-04-11T11:22:19.999Z</time></trkpt><trkpt lat="44.78601645258239" lon="12.119602631701202"><ele>-1.0</ele><time>2026-04-11T11:22:20.999Z</time></trkpt><trkpt lat="44.78618426841849" lon="12.119518225465033"><ele>-1.0</ele><time>2026-04-11T11:22:21.999Z</time></trkpt><trkpt lat="44.78634493101366" lon="12.119428510795831"><ele>-1.0</ele><time>2026-04-11T11:22:22.999Z</time></trkpt><trkpt lat="44.78650063630618" lon="12.119332718570167"><ele>-1.0</ele><time>2026-04-11T11:22:23.999Z</time></trkpt><trkpt lat="44.78665143459836" lon="12.119241387866392"><ele>-1.0</ele><time>2026-04-11T11:22:24.999Z</time></trkpt><trkpt lat="44.78681428721644" lon="12.11914791246245"><ele>-1.0</ele><time>2026-04-11T11:22:25.999Z</time></trkpt><trkpt lat="44.787004284018856" lon="12.119034999452904"><ele>-1.0</ele><time>2026-04-11T11:22:26.999Z</time></trkpt><trkpt lat="44.78721098943752" lon="12.118912045605143"><ele>-2.0</ele><time>2026-04-11T11:22:27.999Z</time></trkpt><trkpt lat="44.787441927145586" lon="12.118779271639964"><ele>-3.0</ele><time>2026-04-11T11:22:28.999Z</time></trkpt><trkpt lat="44.7876847062291" lon="12.118652232755524"><ele>-3.0</ele><time>2026-04-11T11:22:29.999Z</time></trkpt><trkpt lat="44.787944110350246" lon="12.118514206015135"><ele>-3.0</ele><time>2026-04-11T11:22:30.999Z</time></trkpt><trkpt lat="44.78819987574858" lon="12.118401636681321"><ele>-3.0</ele><time>2026-04-11T11:22:31.999Z</time></trkpt><trkpt lat="44.78846627521294" lon="12.118258458949613"><ele>-3.0</ele><time>2026-04-11T11:22:32.999Z</time></trkpt><trkpt lat="44.78871793455176" lon="12.118133145194163"><ele>-3.5</ele><time>2026-04-11T11:22:33.999Z</time></trkpt><trkpt lat="44.7889751496176" lon="12.118018910985622"><ele>-4.0</ele><time>2026-04-11T11:22:34.999Z</time></trkpt><trkpt lat="44.78925100697201" lon="12.117903819245809"><ele>-3.5</ele><time>2026-04-11T11:22:35.999Z</time></trkpt><trkpt lat="44.78952001049448" lon="12.117799122515045"><ele>-3.0</ele><time>2026-04-11T11:22:36.999Z</time></trkpt><trkpt lat="44.78977164367772" lon="12.117705756816699"><ele>-3.0</ele><time>2026-04-11T11:22:37.999Z</time></trkpt><trkpt lat="44.79002116125203" lon="12.117626047617206"><ele>-3.0</ele><time>2026-04-11T11:22:38.999Z</time></trkpt><trkpt lat="44.79027281045658" lon="12.11753501675084"><ele>-2.5</ele><time>2026-04-11T11:22:39.999Z</time></trkpt><trkpt lat="44.790526866226564" lon="12.117455270766815"><ele>-2.0</ele><time>2026-04-11T11:22:40.999Z</time></trkpt><trkpt lat="44.79077374280377" lon="12.11737551279654"><ele>-2.0</ele><time>2026-04-11T11:22:41.999Z</time></trkpt><trkpt lat="44.79102009855316" lon="12.117297099475884"><ele>-2.0</ele><time>2026-04-11T11:22:42.999Z</time></trkpt><trkpt lat="44.79125379100221" lon="12.11724171585178"><ele>-2.0</ele><time>2026-04-11T11:22:43.999Z</time></trkpt><trkpt lat="44.791490297674756" lon="12.117194465495428"><ele>-2.0</ele><time>2026-04-11T11:22:44.999Z</time></trkpt><trkpt lat="44.791732152300135" lon="12.11716664222371"><ele>-2.0</ele><time>2026-04-11T11:22:46.001Z</time></trkpt><trkpt lat="44.791977864182485" lon="12.117165682867919"><ele>-2.0</ele><time>2026-04-11T11:22:47.001Z</time></trkpt><trkpt lat="44.792221648912076" lon="12.117155161771406"><ele>-2.0</ele><time>2026-04-11T11:22:48.001Z</time></trkpt><trkpt lat="44.79245522521242" lon="12.117122017625324"><ele>-2.0</ele><time>2026-04-11T11:22:49.001Z</time></trkpt><trkpt lat="44.79269185606809" lon="12.117025186460522"><ele>-2.5</ele><time>2026-04-11T11:22:50.001Z</time></trkpt><trkpt lat="44.792931053923354" lon="12.116894429687415"><ele>-3.0</ele><time>2026-04-11T11:22:51.001Z</time></trkpt><trkpt lat="44.79317251440362" lon="12.116782900265212"><ele>-3.0</ele><time>2026-04-11T11:22:52.001Z</time></trkpt><trkpt lat="44.79342009307028" lon="12.116691929122831"><ele>-3.0</ele><time>2026-04-11T11:22:53.001Z</time></trkpt><trkpt lat="44.79366245542777" lon="12.116610866649552"><ele>-3.0</ele><time>2026-04-11T11:22:54.001Z</time></trkpt><trkpt lat="44.79390465275903" lon="12.116539973813152"><ele>-3.0</ele><time>2026-04-11T11:22:55.001Z</time></trkpt><trkpt lat="44.79415683473223" lon="12.116483983738126"><ele>-3.0</ele><time>2026-04-11T11:22:56.001Z</time></trkpt><trkpt lat="44.79439619733163" lon="12.116421903810814"><ele>-3.0</ele><time>2026-04-11T11:22:57.001Z</time></trkpt><trkpt lat="44.79464190048628" lon="12.116350354913374"><ele>-3.0</ele><time>2026-04-11T11:22:58Z</time></trkpt><trkpt lat="44.79488212279276" lon="12.116271349231372"><ele>-3.0</ele><time>2026-04-11T11:22:59Z</time></trkpt><trkpt lat="44.79511444551707" lon="12.116211425699237"><ele>-2.5</ele><time>2026-04-11T11:23:00Z</time></trkpt><trkpt lat="44.79534150200942" lon="12.116154827406643"><ele>-2.0</ele><time>2026-04-11T11:23:01Z</time></trkpt><trkpt lat="44.79555697384905" lon="12.116100086751848"><ele>-2.0</ele><time>2026-04-11T11:23:02Z</time></trkpt><trkpt lat="44.79577784132233" lon="12.116061333526671"><ele>-2.0</ele><time>2026-04-11T11:23:03Z</time></trkpt><trkpt lat="44.79600749255131" lon="12.116019513387837"><ele>-2.0</ele><time>2026-04-11T11:23:04Z</time></trkpt><trkpt lat="44.79624231726049" lon="12.115973566895125"><ele>-2.0</ele><time>2026-04-11T11:23:05Z</time></trkpt><trkpt lat="44.79647786112748" lon="12.115939461780764"><ele>-2.0</ele><time>2026-04-11T11:23:06Z</time></trkpt><trkpt lat="44.79669477597222" lon="12.115905513148668"><ele>-2.0</ele><time>2026-04-11T11:23:07Z</time></trkpt><trkpt lat="44.796901468701094" lon="12.115856490122853"><ele>-2.0</ele><time>2026-04-11T11:23:08Z</time></trkpt><trkpt lat="44.79709774204409" lon="12.115797765606317"><ele>-2.0</ele><time>2026-04-11T11:23:09Z</time></trkpt><trkpt lat="44.79729946729847" lon="12.115734387976739"><ele>-2.0</ele><time>2026-04-11T11:23:10Z</time></trkpt><trkpt lat="44.79751352161154" lon="12.115676899033792"><ele>-2.0</ele><time>2026-04-11T11:23:11Z</time></trkpt><trkpt lat="44.79772295499656" lon="12.11560166736909"><ele>-1.6666666666666665</ele><time>2026-04-11T11:23:12Z</time></trkpt><trkpt lat="44.797934118283976" lon="12.115531582799607"><ele>-1.3333333333333333</ele><time>2026-04-11T11:23:13Z</time></trkpt><trkpt lat="44.798138494910376" lon="12.1154553503639"><ele>-1.0</ele><time>2026-04-11T11:23:14Z</time></trkpt><trkpt lat="44.79835142430891" lon="12.115386937503075"><ele>-1.3333333333333333</ele><time>2026-04-11T11:23:15Z</time></trkpt><trkpt lat="44.798566099559714" lon="12.115307723425182"><ele>-1.6666666666666665</ele><time>2026-04-11T11:23:16Z</time></trkpt><trkpt lat="44.7987715506105" lon="12.115221718526087"><ele>-2.0</ele><time>2026-04-11T11:23:17Z</time></trkpt><trkpt lat="44.79897648822962" lon="12.115114968050614"><ele>-2.0</ele><time>2026-04-11T11:23:18Z</time></trkpt><trkpt lat="44.79917805555141" lon="12.114996504923562"><ele>-2.0</ele><time>2026-04-11T11:23:19Z</time></trkpt><trkpt lat="44.799378329101074" lon="12.114875480192824"><ele>-2.0</ele><time>2026-04-11T11:23:20Z</time></trkpt><trkpt lat="44.79957516246209" lon="12.114763901556714"><ele>-1.6666666666666665</ele><time>2026-04-11T11:23:21Z</time></trkpt><trkpt lat="44.799765415899124" lon="12.114639130597151"><ele>-1.3333333333333333</ele><time>2026-04-11T11:23:22Z</time></trkpt><trkpt lat="44.79995914965066" lon="12.114518387655977"><ele>-1.0</ele><time>2026-04-11T11:23:23Z</time></trkpt><trkpt lat="44.800148266350305" lon="12.114378458478374"><ele>-2.0</ele><time>2026-04-11T11:23:24Z</time></trkpt><trkpt lat="44.80034136932128" lon="12.114205686888166"><ele>-3.0</ele><time>2026-04-11T11:23:25Z</time></trkpt><trkpt lat="44.800522650096056" lon="12.113978011523411"><ele>-3.0</ele><time>2026-04-11T11:23:26Z</time></trkpt><trkpt lat="44.800737808735285" lon="12.11374844142818"><ele>-3.0</ele><time>2026-04-11T11:23:27Z</time></trkpt><trkpt lat="44.80095644377542" lon="12.113494187599533"><ele>-2.0</ele><time>2026-04-11T11:23:28Z</time></trkpt><trkpt lat="44.8011712481128" lon="12.113217311082408"><ele>-1.0</ele><time>2026-04-11T11:23:29Z</time></trkpt><trkpt lat="44.80139624481511" lon="12.112965360636066"><ele>-1.0</ele><time>2026-04-11T11:23:30Z</time></trkpt><trkpt lat="44.80162357847726" lon="12.112724015105309"><ele>-1.0</ele><time>2026-04-11T11:23:31Z</time></trkpt><trkpt lat="44.80184055375939" lon="12.112483582640786"><ele>-1.0</ele><time>2026-04-11T11:23:32Z</time></trkpt><trkpt lat="44.8020631567861" lon="12.112240825363743"><ele>-1.0</ele><time>2026-04-11T11:23:33Z</time></trkpt><trkpt lat="44.80228548729302" lon="12.112002912016338"><ele>-1.0</ele><time>2026-04-11T11:23:34Z</time></trkpt><trkpt lat="44.80251337538832" lon="12.111770987103116"><ele>-1.0</ele><time>2026-04-11T11:23:35Z</time></trkpt><trkpt lat="44.802740792207004" lon="12.111549800715137"><ele>-1.0</ele><time>2026-04-11T11:23:36Z</time></trkpt><trkpt lat="44.802966759778734" lon="12.111335060493932"><ele>-1.0</ele><time>2026-04-11T11:23:37Z</time></trkpt><trkpt lat="44.80318230915754" lon="12.111129914045316"><ele>-1.0</ele><time>2026-04-11T11:23:38Z</time></trkpt><trkpt lat="44.80339182719867" lon="12.110911941657028"><ele>-1.0</ele><time>2026-04-11T11:23:39Z</time></trkpt><trkpt lat="44.803601442687395" lon="12.110680452443859"><ele>-1.5</ele><time>2026-04-11T11:23:40Z</time></trkpt><trkpt lat="44.803803342080414" lon="12.11045180528839"><ele>-2.0</ele><time>2026-04-11T11:23:41Z</time></trkpt><trkpt lat="44.80399970054028" lon="12.110231822166261"><ele>-2.0</ele><time>2026-04-11T11:23:42Z</time></trkpt><trkpt lat="44.80419385978142" lon="12.11000612419019"><ele>-2.0</ele><time>2026-04-11T11:23:43Z</time></trkpt><trkpt lat="44.8043897157089" lon="12.109791311864951"><ele>-1.5</ele><time>2026-04-11T11:23:44Z</time></trkpt><trkpt lat="44.80459327026982" lon="12.109591358590277"><ele>-1.0</ele><time>2026-04-11T11:23:45Z</time></trkpt><trkpt lat="44.80479973061657" lon="12.109393928862776"><ele>-1.0</ele><time>2026-04-11T11:23:46Z</time></trkpt><trkpt lat="44.805017427767645" lon="12.10921179010464"><ele>-1.0</ele><time>2026-04-11T11:23:47Z</time></trkpt><trkpt lat="44.80523699640655" lon="12.109039461456163"><ele>-2.0</ele><time>2026-04-11T11:23:48Z</time></trkpt><trkpt lat="44.80545539969358" lon="12.10888209304949"><ele>-3.0</ele><time>2026-04-11T11:23:49Z</time></trkpt><trkpt lat="44.8056612193805" lon="12.108718786213325"><ele>-3.0</ele><time>2026-04-11T11:23:50Z</time></trkpt><trkpt lat="44.805873518207875" lon="12.10855747561553"><ele>-3.0</ele><time>2026-04-11T11:23:51Z</time></trkpt><trkpt lat="44.806079874998204" lon="12.108408888288597"><ele>-3.0</ele><time>2026-04-11T11:23:52Z</time></trkpt><trkpt lat="44.80629865030224" lon="12.108333724878433"><ele>-3.0</ele><time>2026-04-11T11:23:53Z</time></trkpt><trkpt lat="44.80652875115781" lon="12.108278881036117"><ele>-3.0</ele><time>2026-04-11T11:23:54Z</time></trkpt><trkpt lat="44.80676643629859" lon="12.108229115521498"><ele>-3.0</ele><time>2026-04-11T11:23:55Z</time></trkpt><trkpt lat="44.80700710343775" lon="12.108175678877265"><ele>-3.0</ele><time>2026-04-11T11:23:56Z</time></trkpt><trkpt lat="44.80724932215408" lon="12.10819175685419"><ele>-3.0</ele><time>2026-04-11T11:23:57Z</time></trkpt><trkpt lat="44.807501915608256" lon="12.108203069557122"><ele>-3.5</ele><time>2026-04-11T11:23:58Z</time></trkpt><trkpt lat="44.80775490230084" lon="12.108203033286788"><ele>-4.0</ele><time>2026-04-11T11:23:59Z</time></trkpt><trkpt lat="44.808006549273884" lon="12.108238757296693"><ele>-3.5</ele><time>2026-04-11T11:24:00Z</time></trkpt><trkpt lat="44.80825727239262" lon="12.108285683114856"><ele>-3.0</ele><time>2026-04-11T11:24:01Z</time></trkpt><trkpt lat="44.80850378384664" lon="12.108375915729608"><ele>-3.0</ele><time>2026-04-11T11:24:02Z</time></trkpt><trkpt lat="44.80875178333073" lon="12.108462309291589"><ele>-3.0</ele><time>2026-04-11T11:24:03Z</time></trkpt><trkpt lat="44.80899493949346" lon="12.108566315029465"><ele>-3.0</ele><time>2026-04-11T11:24:04Z</time></trkpt><trkpt lat="44.80923391171239" lon="12.108669901004514"><ele>-3.0</ele><time>2026-04-11T11:24:05Z</time></trkpt><trkpt lat="44.809449640154625" lon="12.108802999166565"><ele>-3.333333333333333</ele><time>2026-04-11T11:24:06Z</time></trkpt><trkpt lat="44.8096402006551" lon="12.108960282727727"><ele>-3.6666666666666665</ele><time>2026-04-11T11:24:07Z</time></trkpt><trkpt lat="44.8098096225147" lon="12.10914234228162"><ele>-4.0</ele><time>2026-04-11T11:24:08Z</time></trkpt><trkpt lat="44.80995317169587" lon="12.109357498243916"><ele>-3.6666666666666665</ele><time>2026-04-11T11:24:09Z</time></trkpt><trkpt lat="44.81008169649802" lon="12.109606121944966"><ele>-3.333333333333333</ele><time>2026-04-11T11:24:10Z</time></trkpt><trkpt lat="44.8101989138267" lon="12.109875794562834"><ele>-3.0</ele><time>2026-04-11T11:24:11Z</time></trkpt><trkpt lat="44.81032252890889" lon="12.110143888451047"><ele>-2.6666666666666665</ele><time>2026-04-11T11:24:12Z</time></trkpt><trkpt lat="44.81043918107398" lon="12.110403316123394"><ele>-2.333333333333333</ele><time>2026-04-11T11:24:12.999Z</time></trkpt><trkpt lat="44.81055864936476" lon="12.110642526833773"><ele>-2.0</ele><time>2026-04-11T11:24:13.999Z</time></trkpt><trkpt lat="44.810667784118024" lon="12.110857366846869"><ele>-2.0</ele><time>2026-04-11T11:24:14.999Z</time></trkpt><trkpt lat="44.81076092813448" lon="12.111056487887929"><ele>-2.0</ele><time>2026-04-11T11:24:15.999Z</time></trkpt><trkpt lat="44.81086372853439" lon="12.11125408005157"><ele>-2.0</ele><time>2026-04-11T11:24:16.999Z</time></trkpt><trkpt lat="44.810967166437784" lon="12.111449915782362"><ele>-1.6666666666666665</ele><time>2026-04-11T11:24:17.999Z</time></trkpt><trkpt lat="44.81107243452299" lon="12.111659135982087"><ele>-1.3333333333333333</ele><time>2026-04-11T11:24:18.999Z</time></trkpt><trkpt lat="44.81117863966231" lon="12.111861975460371"><ele>-1.0</ele><time>2026-04-11T11:24:19.999Z</time></trkpt><trkpt lat="44.81128428832065" lon="12.112059958162378"><ele>-1.0</ele><time>2026-04-11T11:24:20.999Z</time></trkpt><trkpt lat="44.81138455687951" lon="12.112244929317933"><ele>-1.0</ele><time>2026-04-11T11:24:21.999Z</time></trkpt><trkpt lat="44.811474090376166" lon="12.112411022760622"><ele>-1.0</ele><time>2026-04-11T11:24:22.999Z</time></trkpt><trkpt lat="44.81155695164435" lon="12.112564652695326"><ele>-1.0</ele><time>2026-04-11T11:24:23.999Z</time></trkpt><trkpt lat="44.811634336369835" lon="12.11270186935972"><ele>-1.0</ele><time>2026-04-11T11:24:24.999Z</time></trkpt><trkpt lat="44.81170270031285" lon="12.112828445887255"><ele>-1.0</ele><time>2026-04-11T11:24:25.999Z</time></trkpt><trkpt lat="44.81177594951169" lon="12.112968353698037"><ele>-1.0</ele><time>2026-04-11T11:24:26.999Z</time></trkpt><trkpt lat="44.81186383257649" lon="12.113129382003038"><ele>-1.3333333333333333</ele><time>2026-04-11T11:24:27.999Z</time></trkpt><trkpt lat="44.81196081426683" lon="12.113301638424579"><ele>-1.6666666666666665</ele><time>2026-04-11T11:24:28.999Z</time></trkpt><trkpt lat="44.81206180809182" lon="12.113480287160458"><ele>-2.0</ele><time>2026-04-11T11:24:29.999Z</time></trkpt><trkpt lat="44.8121628321239" lon="12.113658987048783"><ele>-2.0</ele><time>2026-04-11T11:24:30.999Z</time></trkpt><trkpt lat="44.812260018493404" lon="12.113836262082222"><ele>-2.0</ele><time>2026-04-11T11:24:31.999Z</time></trkpt><trkpt lat="44.812356779273976" lon="12.114005750651728"><ele>-2.0</ele><time>2026-04-11T11:24:32.999Z</time></trkpt><trkpt lat="44.81246097778334" lon="12.114183619577306"><ele>-1.6666666666666665</ele><time>2026-04-11T11:24:33.999Z</time></trkpt><trkpt lat="44.812564047141514" lon="12.114367154722016"><ele>-1.3333333333333333</ele><time>2026-04-11T11:24:34.999Z</time></trkpt><trkpt lat="44.81266823461436" lon="12.114553919552844"><ele>-1.0</ele><time>2026-04-11T11:24:35.999Z</time></trkpt><trkpt lat="44.81277296215559" lon="12.114732873987297"><ele>-1.0</ele><time>2026-04-11T11:24:36.999Z</time></trkpt><trkpt lat="44.81288162543511" lon="12.1149005854548"><ele>-1.0</ele><time>2026-04-11T11:24:37.999Z</time></trkpt><trkpt lat="44.81300574016704" lon="12.115034102634354"><ele>-1.0</ele><time>2026-04-11T11:24:38.999Z</time></trkpt><trkpt lat="44.81315169439995" lon="12.115142230282315"><ele>-0.6666666666666666</ele><time>2026-04-11T11:24:39.999Z</time></trkpt><trkpt lat="44.81331394866838" lon="12.115236089301506"><ele>-0.3333333333333333</ele><time>2026-04-11T11:24:40.999Z</time></trkpt><trkpt lat="44.81348406671138" lon="12.11532482353275"><ele>0.0</ele><time>2026-04-11T11:24:41.999Z</time></trkpt><trkpt lat="44.813664418955426" lon="12.115418347330346"><ele>0.0</ele><time>2026-04-11T11:24:42.999Z</time></trkpt><trkpt lat="44.81384800114795" lon="12.115512028988128"><ele>0.0</ele><time>2026-04-11T11:24:43.999Z</time></trkpt><trkpt lat="44.81403318489721" lon="12.115609684852377"><ele>0.0</ele><time>2026-04-11T11:24:44.999Z</time></trkpt><trkpt lat="44.81422043733173" lon="12.115694829819379"><ele>-0.3333333333333333</ele><time>2026-04-11T11:24:45.999Z</time></trkpt><trkpt lat="44.814404276775015" lon="12.115754961979091"><ele>-0.6666666666666666</ele><time>2026-04-11T11:24:46.999Z</time></trkpt><trkpt lat="44.814582972917336" lon="12.11579894337592"><ele>-1.0</ele><time>2026-04-11T11:24:47.999Z</time></trkpt><trkpt lat="44.81475132027579" lon="12.115829399642164"><ele>-1.0</ele><time>2026-04-11T11:24:48.999Z</time></trkpt><trkpt lat="44.81491794307144" lon="12.115853621007139"><ele>-1.0</ele><time>2026-04-11T11:24:49.999Z</time></trkpt><trkpt lat="44.8150780733298" lon="12.115873109150705"><ele>-1.0</ele><time>2026-04-11T11:24:50.999Z</time></trkpt><trkpt lat="44.81524185352049" lon="12.115886074065521"><ele>-0.6666666666666666</ele><time>2026-04-11T11:24:52Z</time></trkpt><trkpt lat="44.81540329894513" lon="12.115870326728432"><ele>-0.3333333333333333</ele><time>2026-04-11T11:24:53Z</time></trkpt><trkpt lat="44.81556860199782" lon="12.11584143801887"><ele>0.0</ele><time>2026-04-11T11:24:54Z</time></trkpt><trkpt lat="44.815732101894184" lon="12.115791876114278"><ele>0.0</ele><time>2026-04-11T11:24:55Z</time></trkpt><trkpt lat="44.81589451716743" lon="12.115744331302784"><ele>0.0</ele><time>2026-04-11T11:24:56Z</time></trkpt><trkpt lat="44.81604963219393" lon="12.115693793107296"><ele>0.0</ele><time>2026-04-11T11:24:57Z</time></trkpt><trkpt lat="44.81620352125381" lon="12.115662772642146"><ele>-0.6666666666666666</ele><time>2026-04-11T11:24:58Z</time></trkpt><trkpt lat="44.81636112220564" lon="12.115640079930932"><ele>-1.3333333333333333</ele><time>2026-04-11T11:24:59Z</time></trkpt><trkpt lat="44.81652052302686" lon="12.115608761353295"><ele>-2.0</ele><time>2026-04-11T11:25:00Z</time></trkpt><trkpt lat="44.81668195581925" lon="12.115565241700873"><ele>-1.6666666666666665</ele><time>2026-04-11T11:25:01Z</time></trkpt><trkpt lat="44.81684252342999" lon="12.115508409813685"><ele>-1.3333333333333333</ele><time>2026-04-11T11:25:02Z</time></trkpt><trkpt lat="44.81700140449975" lon="12.115440119219876"><ele>-1.0</ele><time>2026-04-11T11:25:03Z</time></trkpt><trkpt lat="44.817157321342826" lon="12.115364235973045"><ele>-1.0</ele><time>2026-04-11T11:25:04Z</time></trkpt><trkpt lat="44.817306764987265" lon="12.11528795579221"><ele>-1.0</ele><time>2026-04-11T11:25:05Z</time></trkpt><trkpt lat="44.817451788620474" lon="12.115210960971922"><ele>-1.0</ele><time>2026-04-11T11:25:06Z</time></trkpt><trkpt lat="44.81759586235362" lon="12.115128982489798"><ele>-1.0</ele><time>2026-04-11T11:25:07Z</time></trkpt><trkpt lat="44.81774353400867" lon="12.115039259001835"><ele>-1.0</ele><time>2026-04-11T11:25:08Z</time></trkpt><trkpt lat="44.817892189921004" lon="12.114938818070165"><ele>-1.0</ele><time>2026-04-11T11:25:09Z</time></trkpt><trkpt lat="44.8180369665943" lon="12.114836575280679"><ele>-1.3333333333333333</ele><time>2026-04-11T11:25:10Z</time></trkpt><trkpt lat="44.81817794640536" lon="12.114733194511228"><ele>-1.6666666666666665</ele><time>2026-04-11T11:25:11Z</time></trkpt><trkpt lat="44.81832568110011" lon="12.11462320033531"><ele>-2.0</ele><time>2026-04-11T11:25:12Z</time></trkpt><trkpt lat="44.818479635161495" lon="12.11451660517839"><ele>-1.6666666666666665</ele><time>2026-04-11T11:25:13Z</time></trkpt><trkpt lat="44.818635002999066" lon="12.114403957633693"><ele>-1.3333333333333333</ele><time>2026-04-11T11:25:14Z</time></trkpt><trkpt lat="44.818796599196254" lon="12.114287712768164"><ele>-1.0</ele><time>2026-04-11T11:25:15Z</time></trkpt><trkpt lat="44.81895312690228" lon="12.114173319733533"><ele>-1.0</ele><time>2026-04-11T11:25:16Z</time></trkpt><trkpt lat="44.81910678775415" lon="12.114057171943694"><ele>-1.0</ele><time>2026-04-11T11:25:17Z</time></trkpt><trkpt lat="44.81925153783715" lon="12.113930674130373"><ele>-1.0</ele><time>2026-04-11T11:25:18Z</time></trkpt><trkpt lat="44.819378767576346" lon="12.113792139819433"><ele>-1.0</ele><time>2026-04-11T11:25:19Z</time></trkpt><trkpt lat="44.8194876639194" lon="12.113645885207667"><ele>-1.0</ele><time>2026-04-11T11:25:20Z</time></trkpt><trkpt lat="44.81960115650762" lon="12.113478211183356"><ele>-1.0</ele><time>2026-04-11T11:25:21Z</time></trkpt><trkpt lat="44.81971531238765" lon="12.113317476579542"><ele>-1.3333333333333333</ele><time>2026-04-11T11:25:22Z</time></trkpt><trkpt lat="44.819828592373305" lon="12.113162905948728"><ele>-1.6666666666666665</ele><time>2026-04-11T11:25:23Z</time></trkpt><trkpt lat="44.81993859154801" lon="12.113006759442607"><ele>-2.0</ele><time>2026-04-11T11:25:24Z</time></trkpt><trkpt lat="44.82005436920379" lon="12.112847034757781"><ele>-1.6666666666666665</ele><time>2026-04-11T11:25:25Z</time></trkpt><trkpt lat="44.82017376382134" lon="12.112685505111427"><ele>-1.3333333333333333</ele><time>2026-04-11T11:25:26Z</time></trkpt><trkpt lat="44.82030060685515" lon="12.112524974354768"><ele>-1.0</ele><time>2026-04-11T11:25:27Z</time></trkpt><trkpt lat="44.820436440043615" lon="12.112366782273384"><ele>-0.6666666666666666</ele><time>2026-04-11T11:25:28Z</time></trkpt><trkpt lat="44.82058124069217" lon="12.112211616995463"><ele>-0.3333333333333333</ele><time>2026-04-11T11:25:29Z</time></trkpt><trkpt lat="44.82072051930908" lon="12.112062643334715"><ele>0.0</ele><time>2026-04-11T11:25:30Z</time></trkpt><trkpt lat="44.82085529609571" lon="12.111924030679813"><ele>0.0</ele><time>2026-04-11T11:25:31Z</time></trkpt><trkpt lat="44.82098434732145" lon="12.111785887482606"><ele>0.0</ele><time>2026-04-11T11:25:32Z</time></trkpt><trkpt lat="44.82110672666756" lon="12.111651683699506"><ele>0.0</ele><time>2026-04-11T11:25:33Z</time></trkpt><trkpt lat="44.82122990082291" lon="12.111516000211127"><ele>0.0</ele><time>2026-04-11T11:25:34Z</time></trkpt><trkpt lat="44.82134783559079" lon="12.111381737777796"><ele>0.0</ele><time>2026-04-11T11:25:35Z</time></trkpt><trkpt lat="44.82145758394072" lon="12.111235078505084"><ele>0.0</ele><time>2026-04-11T11:25:36Z</time></trkpt><trkpt lat="44.821560037751574" lon="12.111095024784476"><ele>0.0</ele><time>2026-04-11T11:25:37Z</time></trkpt><trkpt lat="44.821667662230304" lon="12.110979510459781"><ele>0.0</ele><time>2026-04-11T11:25:38Z</time></trkpt><trkpt lat="44.82176908763556" lon="12.110843080371977"><ele>0.0</ele><time>2026-04-11T11:25:39Z</time></trkpt><trkpt lat="44.821878732383695" lon="12.110717461855936"><ele>0.0</ele><time>2026-04-11T11:25:40Z</time></trkpt><trkpt lat="44.82199813301048" lon="12.110603803113472"><ele>0.0</ele><time>2026-04-11T11:25:41Z</time></trkpt><trkpt lat="44.82212752121312" lon="12.110505875204485"><ele>-0.6666666666666666</ele><time>2026-04-11T11:25:42Z</time></trkpt><trkpt lat="44.82226998539262" lon="12.110428953341065"><ele>-1.3333333333333333</ele><time>2026-04-11T11:25:43Z</time></trkpt><trkpt lat="44.8224186909569" lon="12.11036381842393"><ele>-2.0</ele><time>2026-04-11T11:25:44Z</time></trkpt><trkpt lat="44.82257759924076" lon="12.110301675384676"><ele>-1.6666666666666665</ele><time>2026-04-11T11:25:45Z</time></trkpt><trkpt lat="44.82274253340133" lon="12.110252598625522"><ele>-1.3333333333333333</ele><time>2026-04-11T11:25:46Z</time></trkpt><trkpt lat="44.82289720684249" lon="12.11017506616581"><ele>-1.0</ele><time>2026-04-11T11:25:47Z</time></trkpt><trkpt lat="44.823052360551934" lon="12.110109210207648"><ele>-1.0</ele><time>2026-04-11T11:25:48Z</time></trkpt><trkpt lat="44.82320807219453" lon="12.109997208251661"><ele>-1.0</ele><time>2026-04-11T11:25:49Z</time></trkpt><trkpt lat="44.823380910173704" lon="12.109879404243207"><ele>-1.0</ele><time>2026-04-11T11:25:50Z</time></trkpt><trkpt lat="44.823579564635175" lon="12.109745230734939"><ele>-1.5</ele><time>2026-04-11T11:25:51Z</time></trkpt><trkpt lat="44.82378917077724" lon="12.109568672048312"><ele>-2.0</ele><time>2026-04-11T11:25:52Z</time></trkpt><trkpt lat="44.82402102482681" lon="12.10941776594551"><ele>-2.0</ele><time>2026-04-11T11:25:53Z</time></trkpt><trkpt lat="44.82426148273627" lon="12.109274070943334"><ele>-2.0</ele><time>2026-04-11T11:25:54Z</time></trkpt><trkpt lat="44.82449426210033" lon="12.10913091930476"><ele>-3.0</ele><time>2026-04-11T11:25:55Z</time></trkpt><trkpt lat="44.82471838374722" lon="12.108991622121751"><ele>-4.0</ele><time>2026-04-11T11:25:56Z</time></trkpt><trkpt lat="44.82493839456601" lon="12.108861734338314"><ele>-3.0</ele><time>2026-04-11T11:25:57Z</time></trkpt><trkpt lat="44.825151407126874" lon="12.108731247572706"><ele>-2.0</ele><time>2026-04-11T11:25:58Z</time></trkpt><trkpt lat="44.82536760009804" lon="12.108622546428244"><ele>-2.0</ele><time>2026-04-11T11:25:59Z</time></trkpt><trkpt lat="44.825573815797476" lon="12.108496204728695"><ele>-2.0</ele><time>2026-04-11T11:26:00Z</time></trkpt><trkpt lat="44.82577375667556" lon="12.108352952359285"><ele>-2.0</ele><time>2026-04-11T11:26:01Z</time></trkpt><trkpt lat="44.82597391628609" lon="12.108230021888717"><ele>-2.0</ele><time>2026-04-11T11:26:02Z</time></trkpt><trkpt lat="44.826175898177915" lon="12.108106817126304"><ele>-2.0</ele><time>2026-04-11T11:26:03Z</time></trkpt><trkpt lat="44.8263765644692" lon="12.107990936608653"><ele>-2.0</ele><time>2026-04-11T11:26:04Z</time></trkpt><trkpt lat="44.82657207881686" lon="12.107874392926096"><ele>-2.0</ele><time>2026-04-11T11:26:05Z</time></trkpt><trkpt lat="44.82675587146204" lon="12.107763208181684"><ele>-2.0</ele><time>2026-04-11T11:26:06Z</time></trkpt><trkpt lat="44.826928235215206" lon="12.107657436399062"><ele>-2.0</ele><time>2026-04-11T11:26:07Z</time></trkpt><trkpt lat="44.82709389249037" lon="12.107558049771617"><ele>-2.0</ele><time>2026-04-11T11:26:08Z</time></trkpt><trkpt lat="44.82727136093804" lon="12.1074938647905"><ele>-2.0</ele><time>2026-04-11T11:26:09Z</time></trkpt><trkpt lat="44.82742817392201" lon="12.107389592613668"><ele>-2.0</ele><time>2026-04-11T11:26:10Z</time></trkpt><trkpt lat="44.82757629664391" lon="12.107276761767112"><ele>-1.3333333333333333</ele><time>2026-04-11T11:26:10.999Z</time></trkpt><trkpt lat="44.82770912662674" lon="12.107145360422962"><ele>-0.6666666666666666</ele><time>2026-04-11T11:26:11.999Z</time></trkpt><trkpt lat="44.827841875571025" lon="12.107010846219193"><ele>0.0</ele><time>2026-04-11T11:26:12.999Z</time></trkpt><trkpt lat="44.82797298010888" lon="12.106872168242733"><ele>0.0</ele><time>2026-04-11T11:26:13.999Z</time></trkpt><trkpt lat="44.82809799652684" lon="12.106718499077383"><ele>0.0</ele><time>2026-04-11T11:26:14.999Z</time></trkpt><trkpt lat="44.82820716075563" lon="12.106568251326664"><ele>0.0</ele><time>2026-04-11T11:26:15.999Z</time></trkpt><trkpt lat="44.828306360569556" lon="12.106421714486121"><ele>0.0</ele><time>2026-04-11T11:26:16.999Z</time></trkpt><trkpt lat="44.82839761433948" lon="12.106277631489144"><ele>0.0</ele><time>2026-04-11T11:26:17.999Z</time></trkpt><trkpt lat="44.828474580239416" lon="12.106151433529446"><ele>0.0</ele><time>2026-04-11T11:26:18.999Z</time></trkpt><trkpt lat="44.82853769767691" lon="12.10604591393019"><ele>0.0</ele><time>2026-04-11T11:26:19.999Z</time></trkpt><trkpt lat="44.82859418567448" lon="12.105952122948018"><ele>0.0</ele><time>2026-04-11T11:26:20.999Z</time></trkpt><trkpt lat="44.82865005256405" lon="12.105883076230294"><ele>0.16666666666666666</ele><time>2026-04-11T11:26:21.999Z</time></trkpt><trkpt lat="44.82871381564625" lon="12.105838040152182"><ele>0.3333333333333333</ele><time>2026-04-11T11:26:22.999Z</time></trkpt><trkpt lat="44.82877726358538" lon="12.105835796556788"><ele>0.5</ele><time>2026-04-11T11:26:23.999Z</time></trkpt><trkpt lat="44.828843288214294" lon="12.10587808283279"><ele>0.6666666666666666</ele><time>2026-04-11T11:26:24.999Z</time></trkpt><trkpt lat="44.828912433504875" lon="12.105957333545637"><ele>0.8333333333333333</ele><time>2026-04-11T11:26:25.999Z</time></trkpt><trkpt lat="44.82899056077481" lon="12.106043029181015"><ele>1.0</ele><time>2026-04-11T11:26:26.999Z</time></trkpt><trkpt lat="44.82907826573197" lon="12.106135236366601"><ele>1.0</ele><time>2026-04-11T11:26:27.999Z</time></trkpt><trkpt lat="44.829163166749126" lon="12.106223455666584"><ele>1.0</ele><time>2026-04-11T11:26:28.999Z</time></trkpt><trkpt lat="44.82924440296083" lon="12.10631681865323"><ele>1.0</ele><time>2026-04-11T11:26:29.999Z</time></trkpt><trkpt lat="44.82932625364869" lon="12.106404927560979"><ele>1.0</ele><time>2026-04-11T11:26:30.999Z</time></trkpt><trkpt lat="44.82940908128171" lon="12.106505197152648"><ele>1.0</ele><time>2026-04-11T11:26:31.999Z</time></trkpt><trkpt lat="44.829498546667644" lon="12.106598535105359"><ele>1.0</ele><time>2026-04-11T11:26:32.999Z</time></trkpt><trkpt lat="44.829573064697016" lon="12.10673095131845"><ele>1.0</ele><time>2026-04-11T11:26:33.999Z</time></trkpt><trkpt lat="44.82964938971081" lon="12.106816680110416"><ele>1.0</ele><time>2026-04-11T11:26:34.999Z</time></trkpt><trkpt lat="44.829721621038686" lon="12.106899900396659"><ele>1.0</ele><time>2026-04-11T11:26:35.999Z</time></trkpt><trkpt lat="44.829788174828415" lon="12.106971254837942"><ele>1.0</ele><time>2026-04-11T11:26:36.999Z</time></trkpt><trkpt lat="44.829845307416925" lon="12.107040171956724"><ele>0.9999999999999999</ele><time>2026-04-11T11:26:37.999Z</time></trkpt><trkpt lat="44.82993476770057" lon="12.107146293058921"><ele>1.0</ele><time>2026-04-11T11:26:39.999Z</time></trkpt><trkpt lat="44.830012944863476" lon="12.107239128623213"><ele>1.0</ele><time>2026-04-11T11:26:41.999Z</time></trkpt><trkpt lat="44.83007315011704" lon="12.107273346796587"><ele>1.0</ele><time>2026-04-11T11:27:05Z</time></trkpt><trkpt lat="44.83013936317834" lon="12.107347854877535"><ele>0.9999999999999999</ele><time>2026-04-11T11:27:07Z</time></trkpt><trkpt lat="44.830198666412095" lon="12.107409437125625"><ele>1.0</ele><time>2026-04-11T11:27:08Z</time></trkpt><trkpt lat="44.830255255250755" lon="12.10748016401406"><ele>1.0</ele><time>2026-04-11T11:27:09Z</time></trkpt><trkpt lat="44.8303107557283" lon="12.107566223024204"><ele>1.0</ele><time>2026-04-11T11:27:10Z</time></trkpt><trkpt lat="44.83037435493484" lon="12.107691983696466"><ele>1.0</ele><time>2026-04-11T11:27:11Z</time></trkpt><trkpt lat="44.83044249846214" lon="12.107846830797198"><ele>1.0</ele><time>2026-04-11T11:27:12Z</time></trkpt><trkpt lat="44.83050552648905" lon="12.107985636069683"><ele>1.0</ele><time>2026-04-11T11:27:13Z</time></trkpt><trkpt lat="44.83057416907393" lon="12.10813514997753"><ele>1.0</ele><time>2026-04-11T11:27:14Z</time></trkpt><trkpt lat="44.83061697784831" lon="12.108301654378243"><ele>1.0</ele><time>2026-04-11T11:27:15Z</time></trkpt><trkpt lat="44.83068290901003" lon="12.108439409300281"><ele>1.0</ele><time>2026-04-11T11:27:16Z</time></trkpt><trkpt lat="44.83074557282339" lon="12.108565561018327"><ele>1.0</ele><time>2026-04-11T11:27:17Z</time></trkpt><trkpt lat="44.83080764076353" lon="12.10868990341391"><ele>1.0</ele><time>2026-04-11T11:27:18Z</time></trkpt><trkpt lat="44.83087739964297" lon="12.108806832002104"><ele>1.0</ele><time>2026-04-11T11:27:19Z</time></trkpt><trkpt lat="44.830940173475916" lon="12.108919345214234"><ele>1.0</ele><time>2026-04-11T11:27:20Z</time></trkpt><trkpt lat="44.831003608316244" lon="12.109040435183484"><ele>1.0</ele><time>2026-04-11T11:27:21Z</time></trkpt><trkpt lat="44.83106304821722" lon="12.109156064725475"><ele>1.0</ele><time>2026-04-11T11:27:22Z</time></trkpt><trkpt lat="44.83112126409037" lon="12.109261681104217"><ele>0.6666666666666666</ele><time>2026-04-11T11:27:23Z</time></trkpt><trkpt lat="44.83117680881262" lon="12.109364760694634"><ele>0.3333333333333333</ele><time>2026-04-11T11:27:24Z</time></trkpt><trkpt lat="44.831230024176556" lon="12.109472628469307"><ele>0.0</ele><time>2026-04-11T11:27:25Z</time></trkpt><trkpt lat="44.83127887227444" lon="12.109572835398797"><ele>-0.3333333333333333</ele><time>2026-04-11T11:27:26Z</time></trkpt><trkpt lat="44.83133124042297" lon="12.10965716986413"><ele>-0.6666666666666666</ele><time>2026-04-11T11:27:27Z</time></trkpt><trkpt lat="44.83137823413585" lon="12.109721434947938"><ele>-1.0</ele><time>2026-04-11T11:27:28Z</time></trkpt><trkpt lat="44.83145397896543" lon="12.109829230213174"><ele>-1.0</ele><time>2026-04-11T11:27:30Z</time></trkpt><trkpt lat="44.83151245791762" lon="12.109943380636594"><ele>-1.0</ele><time>2026-04-11T11:27:32Z</time></trkpt><trkpt lat="44.83171567020269" lon="12.109792404849143"><ele>-1.0</ele><time>2026-04-11T11:27:34Z</time></trkpt><trkpt lat="44.83180225352737" lon="12.109689285145706"><ele>-1.0</ele><time>2026-04-11T11:27:35Z</time></trkpt><trkpt lat="44.831899658965746" lon="12.109573276608495"><ele>-1.0</ele><time>2026-04-11T11:27:36Z</time></trkpt><trkpt lat="44.832004515463694" lon="12.109448393841163"><ele>-1.0</ele><time>2026-04-11T11:27:37Z</time></trkpt><trkpt lat="44.83209654971483" lon="12.109307874268543"><ele>-1.0</ele><time>2026-04-11T11:27:38Z</time></trkpt><trkpt lat="44.832212727764116" lon="12.109210109869"><ele>-1.0</ele><time>2026-04-11T11:27:39Z</time></trkpt><trkpt lat="44.83232126510646" lon="12.109090420346048"><ele>-1.0</ele><time>2026-04-11T11:27:40Z</time></trkpt><trkpt lat="44.83242963900385" lon="12.108959485122455"><ele>-1.0</ele><time>2026-04-11T11:27:41Z</time></trkpt><trkpt lat="44.83252925450937" lon="12.108824609477503"><ele>-1.0</ele><time>2026-04-11T11:27:42Z</time></trkpt><trkpt lat="44.832634450109566" lon="12.108691758022767"><ele>-1.0</ele><time>2026-04-11T11:27:43Z</time></trkpt><trkpt lat="44.83273579781151" lon="12.108556391264091"><ele>-1.0</ele><time>2026-04-11T11:27:44Z</time></trkpt><trkpt lat="44.83283011195448" lon="12.108429020226845"><ele>-1.0</ele><time>2026-04-11T11:27:45Z</time></trkpt><trkpt lat="44.83293265741879" lon="12.108310386523991"><ele>-1.0</ele><time>2026-04-11T11:27:46Z</time></trkpt><trkpt lat="44.83303713939699" lon="12.108189360869902"><ele>-1.0</ele><time>2026-04-11T11:27:47Z</time></trkpt><trkpt lat="44.83314960360988" lon="12.108091308208788"><ele>-0.75</ele><time>2026-04-11T11:27:48Z</time></trkpt><trkpt lat="44.8332515356441" lon="12.10798156165003"><ele>-0.5</ele><time>2026-04-11T11:27:49Z</time></trkpt><trkpt lat="44.83334903234647" lon="12.10787177869351"><ele>-0.25</ele><time>2026-04-11T11:27:50Z</time></trkpt><trkpt lat="44.83344213525615" lon="12.107759815559024"><ele>0.0</ele><time>2026-04-11T11:27:51Z</time></trkpt><trkpt lat="44.83352166774944" lon="12.10764085019222"><ele>0.0</ele><time>2026-04-11T11:27:52Z</time></trkpt><trkpt lat="44.83358151088916" lon="12.107520455570375"><ele>0.0</ele><time>2026-04-11T11:27:53Z</time></trkpt><trkpt lat="44.83361419007861" lon="12.107380475254837"><ele>0.0</ele><time>2026-04-11T11:27:54Z</time></trkpt><trkpt lat="44.833665498443175" lon="12.107270324852742"><ele>0.0</ele><time>2026-04-11T11:27:55Z</time></trkpt><trkpt lat="44.83369787696754" lon="12.107166895573833"><ele>0.0</ele><time>2026-04-11T11:27:56Z</time></trkpt><trkpt lat="44.83374142269983" lon="12.107027431530069"><ele>0.0</ele><time>2026-04-11T11:27:58Z</time></trkpt><trkpt lat="44.83377006822519" lon="12.106931450662797"><ele>0.0</ele><time>2026-04-11T11:28:00Z</time></trkpt><trkpt lat="44.83381428766841" lon="12.10680405592718"><ele>0.0</ele><time>2026-04-11T11:28:02Z</time></trkpt><trkpt lat="44.83385408547387" lon="12.106689393454081"><ele>0.0</ele><time>2026-04-11T11:28:03Z</time></trkpt><trkpt lat="44.83390107831587" lon="12.106551911266758"><ele>0.0</ele><time>2026-04-11T11:28:04Z</time></trkpt><trkpt lat="44.833954817233554" lon="12.10639549015129"><ele>0.25</ele><time>2026-04-11T11:28:05Z</time></trkpt><trkpt lat="44.83401798801477" lon="12.106213352671753"><ele>0.5</ele><time>2026-04-11T11:28:06Z</time></trkpt><trkpt lat="44.8340837802251" lon="12.1060266238015"><ele>0.75</ele><time>2026-04-11T11:28:07Z</time></trkpt><trkpt lat="44.83415253310023" lon="12.105831491852669"><ele>1.0</ele><time>2026-04-11T11:28:08Z</time></trkpt><trkpt lat="44.834222682862986" lon="12.105624907012112"><ele>1.0</ele><time>2026-04-11T11:28:09Z</time></trkpt><trkpt lat="44.83427969261249" lon="12.105409249880509"><ele>1.0</ele><time>2026-04-11T11:28:10Z</time></trkpt><trkpt lat="44.834349828883695" lon="12.10519765742479"><ele>1.0</ele><time>2026-04-11T11:28:11Z</time></trkpt><trkpt lat="44.834418560591594" lon="12.104990139608425"><ele>0.3333333333333333</ele><time>2026-04-11T11:28:11.999Z</time></trkpt><trkpt lat="44.83450251528533" lon="12.104797621238665"><ele>-0.3333333333333333</ele><time>2026-04-11T11:28:12.999Z</time></trkpt><trkpt lat="44.834555880408985" lon="12.104589439611694"><ele>-1.0</ele><time>2026-04-11T11:28:13.999Z</time></trkpt><trkpt lat="44.834624644443494" lon="12.104391781352215"><ele>-1.0</ele><time>2026-04-11T11:28:14.999Z</time></trkpt><trkpt lat="44.83470728468201" lon="12.104207337998199"><ele>-1.0</ele><time>2026-04-11T11:28:15.999Z</time></trkpt><trkpt lat="44.83477458649776" lon="12.104014268271854"><ele>-1.0</ele><time>2026-04-11T11:28:16.999Z</time></trkpt><trkpt lat="44.83484299672496" lon="12.103825269025457"><ele>-1.0</ele><time>2026-04-11T11:28:17.999Z</time></trkpt><trkpt lat="44.83491122455359" lon="12.10362893070755"><ele>-1.0</ele><time>2026-04-11T11:28:18.999Z</time></trkpt><trkpt lat="44.834976029068045" lon="12.103432899795697"><ele>-1.0</ele><time>2026-04-11T11:28:19.999Z</time></trkpt><trkpt lat="44.83503952551492" lon="12.1032344669408"><ele>-1.0</ele><time>2026-04-11T11:28:20.999Z</time></trkpt><trkpt lat="44.8351040560394" lon="12.10301452058286"><ele>-1.0</ele><time>2026-04-11T11:28:21.999Z</time></trkpt><trkpt lat="44.835156311534206" lon="12.102793531613797"><ele>-1.0</ele><time>2026-04-11T11:28:22.999Z</time></trkpt><trkpt lat="44.83519637695029" lon="12.102566917239608"><ele>-1.6666666666666665</ele><time>2026-04-11T11:28:23.999Z</time></trkpt><trkpt lat="44.83523833694256" lon="12.102335532449384"><ele>-2.3333333333333335</ele><time>2026-04-11T11:28:24.999Z</time></trkpt><trkpt lat="44.835276202520106" lon="12.102120270013808"><ele>-3.0</ele><time>2026-04-11T11:28:25.999Z</time></trkpt><trkpt lat="44.83530775869293" lon="12.101900206578518"><ele>-3.0</ele><time>2026-04-11T11:28:26.999Z</time></trkpt><trkpt lat="44.83533986706598" lon="12.101692485493619"><ele>-3.0</ele><time>2026-04-11T11:28:27.999Z</time></trkpt><trkpt lat="44.83536119026349" lon="12.10149012592729"><ele>-3.0</ele><time>2026-04-11T11:28:28.999Z</time></trkpt><trkpt lat="44.83538225438973" lon="12.10130678097281"><ele>-3.0</ele><time>2026-04-11T11:28:29.999Z</time></trkpt><trkpt lat="44.83540054736206" lon="12.101121918438775"><ele>-3.0</ele><time>2026-04-11T11:28:30.999Z</time></trkpt><trkpt lat="44.835424355793734" lon="12.100931366404467"><ele>-3.0</ele><time>2026-04-11T11:28:31.999Z</time></trkpt><trkpt lat="44.83543223073834" lon="12.100738583830477"><ele>-3.0</ele><time>2026-04-11T11:28:32.999Z</time></trkpt><trkpt lat="44.83545310009423" lon="12.100545476572632"><ele>-3.0</ele><time>2026-04-11T11:28:33.999Z</time></trkpt><trkpt lat="44.83548447201012" lon="12.100380782480082"><ele>-3.2</ele><time>2026-04-11T11:28:34.999Z</time></trkpt><trkpt lat="44.83548745432435" lon="12.100214246465432"><ele>-3.4</ele><time>2026-04-11T11:28:35.999Z</time></trkpt><trkpt lat="44.83547970044533" lon="12.100052295354507"><ele>-3.6000000000000005</ele><time>2026-04-11T11:28:36.999Z</time></trkpt><trkpt lat="44.83544774957324" lon="12.099917186102424"><ele>-3.8000000000000003</ele><time>2026-04-11T11:28:37.999Z</time></trkpt><trkpt lat="44.83538416786415" lon="12.099800282581613"><ele>-4.0</ele><time>2026-04-11T11:28:38.999Z</time></trkpt><trkpt lat="44.83528252628682" lon="12.09971779226625"><ele>-4.333333333333333</ele><time>2026-04-11T11:28:39.999Z</time></trkpt><trkpt lat="44.835142400286394" lon="12.099645862339344"><ele>-4.666666666666667</ele><time>2026-04-11T11:28:40.999Z</time></trkpt><trkpt lat="44.835001430080546" lon="12.099589773482986"><ele>-5.0</ele><time>2026-04-11T11:28:41.999Z</time></trkpt><trkpt lat="44.83483720076314" lon="12.099552750649083"><ele>-5.0</ele><time>2026-04-11T11:28:42.999Z</time></trkpt><trkpt lat="44.83467164955965" lon="12.099474408376363"><ele>-5.0</ele><time>2026-04-11T11:28:43.999Z</time></trkpt><trkpt lat="44.83451222944084" lon="12.09940893561554"><ele>-5.0</ele><time>2026-04-11T11:28:44.999Z</time></trkpt><trkpt lat="44.83435964012779" lon="12.099346268288796"><ele>-3.3333333333333335</ele><time>2026-04-11T11:28:45.999Z</time></trkpt><trkpt lat="44.83420498014378" lon="12.099284855776691"><ele>-1.6666666666666667</ele><time>2026-04-11T11:28:46.999Z</time></trkpt><trkpt lat="44.83404923583495" lon="12.0992269851719"><ele>0.0</ele><time>2026-04-11T11:28:47.999Z</time></trkpt><trkpt lat="44.83389770585623" lon="12.099186022233628"><ele>0.0</ele><time>2026-04-11T11:28:48.999Z</time></trkpt><trkpt lat="44.83374939916569" lon="12.099159730344951"><ele>0.0</ele><time>2026-04-11T11:28:49.999Z</time></trkpt><trkpt lat="44.83360415134661" lon="12.099141403556672"><ele>0.0</ele><time>2026-04-11T11:28:50.999Z</time></trkpt><trkpt lat="44.833459910159426" lon="12.099126307099965"><ele>0.0</ele><time>2026-04-11T11:28:51.999Z</time></trkpt><trkpt lat="44.833330142239156" lon="12.099133240731732"><ele>0.0</ele><time>2026-04-11T11:28:52.999Z</time></trkpt><trkpt lat="44.83322172840395" lon="12.099094303419387"><ele>0.0</ele><time>2026-04-11T11:28:53.999Z</time></trkpt><trkpt lat="44.833120570051044" lon="12.09907102456161"><ele>0.0</ele><time>2026-04-11T11:28:54.999Z</time></trkpt><trkpt lat="44.833040886224424" lon="12.099042555090405"><ele>0.0</ele><time>2026-04-11T11:28:55.999Z</time></trkpt><trkpt lat="44.83295915435036" lon="12.098959798628162"><ele>0.0</ele><time>2026-04-11T11:28:57.999Z</time></trkpt><trkpt lat="44.83295821633992" lon="12.098867141053464"><ele>0.0</ele><time>2026-04-11T11:28:58.999Z</time></trkpt><trkpt lat="44.83298706199357" lon="12.098763563869694"><ele>0.0</ele><time>2026-04-11T11:28:59.999Z</time></trkpt><trkpt lat="44.833018171995725" lon="12.09861160819895"><ele>0.0</ele><time>2026-04-11T11:29:00.999Z</time></trkpt><trkpt lat="44.83305673371468" lon="12.098432372435854"><ele>0.0</ele><time>2026-04-11T11:29:01.999Z</time></trkpt><trkpt lat="44.833099096442076" lon="12.098236857834598"><ele>0.6666666666666666</ele><time>2026-04-11T11:29:02.999Z</time></trkpt><trkpt lat="44.83314394746014" lon="12.098031795749922"><ele>1.3333333333333333</ele><time>2026-04-11T11:29:04Z</time></trkpt><trkpt lat="44.8331900729077" lon="12.097817023121369"><ele>2.0</ele><time>2026-04-11T11:29:05Z</time></trkpt><trkpt lat="44.83323851530392" lon="12.097589499600538"><ele>1.3333333333333333</ele><time>2026-04-11T11:29:06Z</time></trkpt><trkpt lat="44.83328826650047" lon="12.097355828947151"><ele>0.6666666666666666</ele><time>2026-04-11T11:29:07Z</time></trkpt><trkpt lat="44.83334182099068" lon="12.097104295270205"><ele>0.0</ele><time>2026-04-11T11:29:08Z</time></trkpt><trkpt lat="44.83339478693138" lon="12.096850975711424"><ele>0.0</ele><time>2026-04-11T11:29:09Z</time></trkpt><trkpt lat="44.83344773744375" lon="12.09659373164677"><ele>0.0</ele><time>2026-04-11T11:29:10Z</time></trkpt><trkpt lat="44.83349375586011" lon="12.096350142515366"><ele>0.0</ele><time>2026-04-11T11:29:11Z</time></trkpt><trkpt lat="44.833536361315346" lon="12.096106420459998"><ele>0.0</ele><time>2026-04-11T11:29:12Z</time></trkpt><trkpt lat="44.83357670736942" lon="12.095868378705621"><ele>0.0</ele><time>2026-04-11T11:29:13Z</time></trkpt><trkpt lat="44.83361672277082" lon="12.095631883192437"><ele>0.0</ele><time>2026-04-11T11:29:14Z</time></trkpt><trkpt lat="44.833656059889115" lon="12.095399396452763"><ele>0.0</ele><time>2026-04-11T11:29:15Z</time></trkpt><trkpt lat="44.83369544632411" lon="12.095165860092973"><ele>0.0</ele><time>2026-04-11T11:29:16Z</time></trkpt><trkpt lat="44.833732332505924" lon="12.094941696956079"><ele>0.0</ele><time>2026-04-11T11:29:17Z</time></trkpt><trkpt lat="44.83377025490538" lon="12.094711236684796"><ele>0.0</ele><time>2026-04-11T11:29:18Z</time></trkpt><trkpt lat="44.833807773967635" lon="12.094483227487412"><ele>0.0</ele><time>2026-04-11T11:29:19Z</time></trkpt><trkpt lat="44.833844956270525" lon="12.094254983858628"><ele>0.0</ele><time>2026-04-11T11:29:20Z</time></trkpt><trkpt lat="44.833884992283885" lon="12.094006161542497"><ele>0.6666666666666666</ele><time>2026-04-11T11:29:21Z</time></trkpt><trkpt lat="44.83392819190365" lon="12.09373344038373"><ele>1.3333333333333333</ele><time>2026-04-11T11:29:22Z</time></trkpt><trkpt lat="44.83397398064386" lon="12.093444836823283"><ele>2.0</ele><time>2026-04-11T11:29:23Z</time></trkpt><trkpt lat="44.83402188693398" lon="12.093148175555953"><ele>2.0</ele><time>2026-04-11T11:29:24Z</time></trkpt><trkpt lat="44.834073716883886" lon="12.09282442108175"><ele>2.0</ele><time>2026-04-11T11:29:25Z</time></trkpt><trkpt lat="44.83412777597558" lon="12.09248674236794"><ele>1.0</ele><time>2026-04-11T11:29:26Z</time></trkpt><trkpt lat="44.83418431399618" lon="12.092133579085738"><ele>0.0</ele><time>2026-04-11T11:29:27Z</time></trkpt><trkpt lat="44.834242174925265" lon="12.09177215225288"><ele>0.0</ele><time>2026-04-11T11:29:28Z</time></trkpt><trkpt lat="44.83430165517856" lon="12.091400610346765"><ele>0.0</ele><time>2026-04-11T11:29:29Z</time></trkpt><trkpt lat="44.83437621994612" lon="12.091035343488631"><ele>1.0</ele><time>2026-04-11T11:29:30Z</time></trkpt><trkpt lat="44.834434759391776" lon="12.090673326082776"><ele>2.0</ele><time>2026-04-11T11:29:31Z</time></trkpt><trkpt lat="44.83450126223565" lon="12.090309675733815"><ele>2.0</ele><time>2026-04-11T11:29:32Z</time></trkpt><trkpt lat="44.83457128486018" lon="12.089950441090492"><ele>2.0</ele><time>2026-04-11T11:29:33Z</time></trkpt><trkpt lat="44.83464543560414" lon="12.089586998874227"><ele>1.5</ele><time>2026-04-11T11:29:34Z</time></trkpt><trkpt lat="44.83472347260476" lon="12.089226301178769"><ele>1.0</ele><time>2026-04-11T11:29:35Z</time></trkpt><trkpt lat="44.83479953732386" lon="12.088862455305565"><ele>-0.5</ele><time>2026-04-11T11:29:36Z</time></trkpt><trkpt lat="44.83487084994755" lon="12.08849895693947"><ele>-2.0</ele><time>2026-04-11T11:29:37Z</time></trkpt><trkpt lat="44.83494247760256" lon="12.088142717709822"><ele>-2.0</ele><time>2026-04-11T11:29:38Z</time></trkpt><trkpt lat="44.83500173438344" lon="12.087772822654221"><ele>-2.0</ele><time>2026-04-11T11:29:39Z</time></trkpt><trkpt lat="44.83504173464869" lon="12.087398891757907"><ele>-2.0</ele><time>2026-04-11T11:29:40Z</time></trkpt><trkpt lat="44.83506102283668" lon="12.08702602918143"><ele>-2.0</ele><time>2026-04-11T11:29:41Z</time></trkpt><trkpt lat="44.835072343351285" lon="12.086639185490695"><ele>-2.0</ele><time>2026-04-11T11:29:42Z</time></trkpt><trkpt lat="44.83507641214056" lon="12.086251099254362"><ele>-2.0</ele><time>2026-04-11T11:29:43Z</time></trkpt><trkpt lat="44.83508629967403" lon="12.085875776655136"><ele>-2.0</ele><time>2026-04-11T11:29:44Z</time></trkpt><trkpt lat="44.83511180913704" lon="12.085514655813148"><ele>-2.0</ele><time>2026-04-11T11:29:45Z</time></trkpt><trkpt lat="44.83510758610695" lon="12.085166460779355"><ele>-2.5</ele><time>2026-04-11T11:29:46Z</time></trkpt><trkpt lat="44.83511905822406" lon="12.084823618933257"><ele>-3.0</ele><time>2026-04-11T11:29:47Z</time></trkpt><trkpt lat="44.83514706991604" lon="12.084472359745664"><ele>-3.0</ele><time>2026-04-11T11:29:48Z</time></trkpt><trkpt lat="44.83516018758514" lon="12.084112894152682"><ele>-3.0</ele><time>2026-04-11T11:29:49Z</time></trkpt><trkpt lat="44.835171220388595" lon="12.083762725619595"><ele>-2.6666666666666665</ele><time>2026-04-11T11:29:50Z</time></trkpt><trkpt lat="44.83518138855574" lon="12.083439999585677"><ele>-2.333333333333333</ele><time>2026-04-11T11:29:51Z</time></trkpt><trkpt lat="44.83519084790441" lon="12.08313977077122"><ele>-2.0</ele><time>2026-04-11T11:29:52Z</time></trkpt><trkpt lat="44.83520029410166" lon="12.082832073932286"><ele>-2.0</ele><time>2026-04-11T11:29:53Z</time></trkpt><trkpt lat="44.83521066784846" lon="12.082493695948598"><ele>-2.0</ele><time>2026-04-11T11:29:54Z</time></trkpt><trkpt lat="44.83518556528885" lon="12.082114614908214"><ele>-2.0</ele><time>2026-04-11T11:29:55Z</time></trkpt><trkpt lat="44.83520196401434" lon="12.081721282513225"><ele>-2.0</ele><time>2026-04-11T11:29:56Z</time></trkpt><trkpt lat="44.835230075512165" lon="12.081320473411528"><ele>-2.0</ele><time>2026-04-11T11:29:57Z</time></trkpt><trkpt lat="44.835254350054186" lon="12.080912927157335"><ele>-2.0</ele><time>2026-04-11T11:29:58Z</time></trkpt><trkpt lat="44.83526666871619" lon="12.080498035342464"><ele>-2.5</ele><time>2026-04-11T11:29:59Z</time></trkpt><trkpt lat="44.835275475392926" lon="12.080080198357383"><ele>-3.0</ele><time>2026-04-11T11:30:00Z</time></trkpt><trkpt lat="44.83528214775794" lon="12.079664867930395"><ele>-3.0</ele><time>2026-04-11T11:30:01Z</time></trkpt><trkpt lat="44.83528880336295" lon="12.079248998743106"><ele>-3.0</ele><time>2026-04-11T11:30:02Z</time></trkpt><trkpt lat="44.83529888715171" lon="12.07883202588473"><ele>-3.0</ele><time>2026-04-11T11:30:03Z</time></trkpt><trkpt lat="44.835310925627" lon="12.07840596972403"><ele>-3.0</ele><time>2026-04-11T11:30:04Z</time></trkpt><trkpt lat="44.83532237493704" lon="12.077977467723306"><ele>-2.0</ele><time>2026-04-11T11:30:05Z</time></trkpt><trkpt lat="44.83532938878375" lon="12.077546593256102"><ele>-1.0</ele><time>2026-04-11T11:30:06Z</time></trkpt><trkpt lat="44.83533615405583" lon="12.077112911811401"><ele>-1.0</ele><time>2026-04-11T11:30:07Z</time></trkpt><trkpt lat="44.83535170822154" lon="12.07668027957981"><ele>-1.0</ele><time>2026-04-11T11:30:08Z</time></trkpt><trkpt lat="44.83535463443234" lon="12.076239970612148"><ele>-1.0</ele><time>2026-04-11T11:30:09Z</time></trkpt><trkpt lat="44.83535868619711" lon="12.075806219867042"><ele>-1.0</ele><time>2026-04-11T11:30:10Z</time></trkpt><trkpt lat="44.83535971940874" lon="12.075373341526884"><ele>-1.0</ele><time>2026-04-11T11:30:11Z</time></trkpt><trkpt lat="44.835360173088205" lon="12.074946254919011"><ele>-1.0</ele><time>2026-04-11T11:30:12Z</time></trkpt><trkpt lat="44.83535747165785" lon="12.074519877975087"><ele>2.0</ele><time>2026-04-11T11:30:13Z</time></trkpt><trkpt lat="44.83534859055568" lon="12.074094788355852"><ele>5.0</ele><time>2026-04-11T11:30:14Z</time></trkpt><trkpt lat="44.83533010251848" lon="12.07367553002824"><ele>3.5</ele><time>2026-04-11T11:30:15Z</time></trkpt><trkpt lat="44.835310920514104" lon="12.073263066971398"><ele>2.0</ele><time>2026-04-11T11:30:15.999Z</time></trkpt><trkpt lat="44.83527989099248" lon="12.072839616059937"><ele>0.5</ele><time>2026-04-11T11:30:16.999Z</time></trkpt><trkpt lat="44.83524963599211" lon="12.072437559195164"><ele>-1.0</ele><time>2026-04-11T11:30:17.999Z</time></trkpt><trkpt lat="44.83521641796071" lon="12.07206811130809"><ele>-1.0</ele><time>2026-04-11T11:30:18.999Z</time></trkpt><trkpt lat="44.83518795242041" lon="12.071732699738469"><ele>-1.0</ele><time>2026-04-11T11:30:19.999Z</time></trkpt><trkpt lat="44.83515640314992" lon="12.071438232748884"><ele>-0.6666666666666666</ele><time>2026-04-11T11:30:20.999Z</time></trkpt><trkpt lat="44.83512950703697" lon="12.071186763355602"><ele>-0.3333333333333333</ele><time>2026-04-11T11:30:21.999Z</time></trkpt><trkpt lat="44.835099277146824" lon="12.070950416576663"><ele>0.0</ele><time>2026-04-11T11:30:22.999Z</time></trkpt><trkpt lat="44.83507520920319" lon="12.07073380113094"><ele>0.0</ele><time>2026-04-11T11:30:23.999Z</time></trkpt><trkpt lat="44.835063649550605" lon="12.07050863844474"><ele>0.0</ele><time>2026-04-11T11:30:24.999Z</time></trkpt><trkpt lat="44.83506863994139" lon="12.07028136147678"><ele>0.0</ele><time>2026-04-11T11:30:25.999Z</time></trkpt><trkpt lat="44.835100673043755" lon="12.070048842893408"><ele>-0.3333333333333333</ele><time>2026-04-11T11:30:26.999Z</time></trkpt><trkpt lat="44.835180267971964" lon="12.069807266918414"><ele>-0.6666666666666666</ele><time>2026-04-11T11:30:27.999Z</time></trkpt><trkpt lat="44.83526746115656" lon="12.069533067874048"><ele>-1.0</ele><time>2026-04-11T11:30:28.999Z</time></trkpt><trkpt lat="44.8353678664173" lon="12.06923126183728"><ele>-1.5</ele><time>2026-04-11T11:30:29.999Z</time></trkpt><trkpt lat="44.835462810193874" lon="12.068903283741511"><ele>-2.0</ele><time>2026-04-11T11:30:30.999Z</time></trkpt><trkpt lat="44.8355776760982" lon="12.068588433707026"><ele>-1.5</ele><time>2026-04-11T11:30:31.999Z</time></trkpt><trkpt lat="44.83568359580018" lon="12.06826705940286"><ele>-1.0</ele><time>2026-04-11T11:30:32.999Z</time></trkpt><trkpt lat="44.835785442985234" lon="12.067944950835221"><ele>-1.0</ele><time>2026-04-11T11:30:33.999Z</time></trkpt><trkpt lat="44.83588238689376" lon="12.06764965857242"><ele>-1.0</ele><time>2026-04-11T11:30:34.999Z</time></trkpt><trkpt lat="44.83598191852377" lon="12.067368253696884"><ele>-1.6666666666666665</ele><time>2026-04-11T11:30:35.999Z</time></trkpt><trkpt lat="44.83606800706576" lon="12.067098471608737"><ele>-2.3333333333333335</ele><time>2026-04-11T11:30:36.999Z</time></trkpt><trkpt lat="44.83614239844793" lon="12.066843523462547"><ele>-3.0</ele><time>2026-04-11T11:30:37.999Z</time></trkpt><trkpt lat="44.83619161682299" lon="12.066599065884112"><ele>-3.0</ele><time>2026-04-11T11:30:38.999Z</time></trkpt><trkpt lat="44.83621061907821" lon="12.066362832090803"><ele>-3.0</ele><time>2026-04-11T11:30:39.999Z</time></trkpt><trkpt lat="44.83619022877869" lon="12.066105170322507"><ele>-3.0</ele><time>2026-04-11T11:30:40.999Z</time></trkpt><trkpt lat="44.8361296043251" lon="12.065818560199553"><ele>-3.0</ele><time>2026-04-11T11:30:41.999Z</time></trkpt><trkpt lat="44.83604940192906" lon="12.065507333135198"><ele>-3.0</ele><time>2026-04-11T11:30:42.999Z</time></trkpt><trkpt lat="44.83598800999999" lon="12.065162433942321"><ele>-2.0</ele><time>2026-04-11T11:30:43.999Z</time></trkpt><trkpt lat="44.83591202139271" lon="12.0648162416276"><ele>-1.0</ele><time>2026-04-11T11:30:44.999Z</time></trkpt><trkpt lat="44.8358294167367" lon="12.06447301982419"><ele>-1.0</ele><time>2026-04-11T11:30:45.999Z</time></trkpt><trkpt lat="44.835755850424626" lon="12.064137980905622"><ele>-1.0</ele><time>2026-04-11T11:30:46.999Z</time></trkpt><trkpt lat="44.83567915381349" lon="12.063827532195857"><ele>-1.5</ele><time>2026-04-11T11:30:47.999Z</time></trkpt><trkpt lat="44.83562424094408" lon="12.063507642819548"><ele>-2.0</ele><time>2026-04-11T11:30:48.999Z</time></trkpt><trkpt lat="44.83555930304796" lon="12.063210573234661"><ele>-2.0</ele><time>2026-04-11T11:30:49.999Z</time></trkpt><trkpt lat="44.83548043738359" lon="12.062912649388595"><ele>-2.0</ele><time>2026-04-11T11:30:50.999Z</time></trkpt><trkpt lat="44.835454479566835" lon="12.062592855678625"><ele>-2.0</ele><time>2026-04-11T11:30:51.999Z</time></trkpt><trkpt lat="44.83541642814851" lon="12.062278135067066"><ele>-2.0</ele><time>2026-04-11T11:30:52.999Z</time></trkpt><trkpt lat="44.83544349555297" lon="12.06194924429143"><ele>-2.0</ele><time>2026-04-11T11:30:53.999Z</time></trkpt><trkpt lat="44.835448366578994" lon="12.06165585920314"><ele>-2.0</ele><time>2026-04-11T11:30:54.999Z</time></trkpt><trkpt lat="44.83548063979955" lon="12.06138616991828"><ele>-2.0</ele><time>2026-04-11T11:30:55.999Z</time></trkpt><trkpt lat="44.83549595764414" lon="12.06113534027154"><ele>-2.0</ele><time>2026-04-11T11:30:56.999Z</time></trkpt><trkpt lat="44.8355083129673" lon="12.060904741992447"><ele>-2.0</ele><time>2026-04-11T11:30:57.999Z</time></trkpt><trkpt lat="44.83551499516686" lon="12.060680117997899"><ele>-2.0</ele><time>2026-04-11T11:30:58.999Z</time></trkpt><trkpt lat="44.83552521010653" lon="12.060453522368284"><ele>-2.0</ele><time>2026-04-11T11:30:59.999Z</time></trkpt><trkpt lat="44.835538476306205" lon="12.060255269416723"><ele>-2.0</ele><time>2026-04-11T11:31:00.999Z</time></trkpt><trkpt lat="44.835547265903166" lon="12.060073508227767"><ele>-2.0</ele><time>2026-04-11T11:31:01.999Z</time></trkpt><trkpt lat="44.83555207041418" lon="12.05989833855732"><ele>-2.0</ele><time>2026-04-11T11:31:02.999Z</time></trkpt><trkpt lat="44.83555986335059" lon="12.059719110945991"><ele>-2.0</ele><time>2026-04-11T11:31:03.999Z</time></trkpt><trkpt lat="44.83556452569944" lon="12.059563605299713"><ele>-2.0</ele><time>2026-04-11T11:31:04.999Z</time></trkpt><trkpt lat="44.83556560312379" lon="12.059412820653353"><ele>-2.0</ele><time>2026-04-11T11:31:05.999Z</time></trkpt><trkpt lat="44.83557093563966" lon="12.059263797992823"><ele>-2.0</ele><time>2026-04-11T11:31:06.999Z</time></trkpt><trkpt lat="44.83557791300261" lon="12.059110445436461"><ele>-2.0</ele><time>2026-04-11T11:31:07.999Z</time></trkpt><trkpt lat="44.83558530381788" lon="12.058979558413734"><ele>-1.9999999999999998</ele><time>2026-04-11T11:31:08.999Z</time></trkpt><trkpt lat="44.83559087872233" lon="12.05886409535255"><ele>-2.0</ele><time>2026-04-11T11:31:10Z</time></trkpt><trkpt lat="44.83559445114723" lon="12.05875909254587"><ele>-2.0</ele><time>2026-04-11T11:31:11Z</time></trkpt><trkpt lat="44.83559702159386" lon="12.058651650316197"><ele>-2.0</ele><time>2026-04-11T11:31:12Z</time></trkpt><trkpt lat="44.83560289967265" lon="12.058542732822133"><ele>-1.9999999999999998</ele><time>2026-04-11T11:31:13Z</time></trkpt><trkpt lat="44.83561126482416" lon="12.058437291584797"><ele>-2.0</ele><time>2026-04-11T11:31:14Z</time></trkpt><trkpt lat="44.83561367810073" lon="12.058319963623658"><ele>-2.0</ele><time>2026-04-11T11:31:15Z</time></trkpt><trkpt lat="44.835622693848315" lon="12.058188569671465"><ele>-2.0</ele><time>2026-04-11T11:31:16Z</time></trkpt><trkpt lat="44.83563601989493" lon="12.058029836681696"><ele>-2.0</ele><time>2026-04-11T11:31:17Z</time></trkpt><trkpt lat="44.835651119949254" lon="12.057843304867115"><ele>-2.0</ele><time>2026-04-11T11:31:18Z</time></trkpt><trkpt lat="44.835666800583176" lon="12.057626149879741"><ele>-2.0</ele><time>2026-04-11T11:31:19Z</time></trkpt><trkpt lat="44.83568633090577" lon="12.057386620272785"><ele>-2.0</ele><time>2026-04-11T11:31:20Z</time></trkpt><trkpt lat="44.8357098911177" lon="12.057123899541507"><ele>-2.0</ele><time>2026-04-11T11:31:21Z</time></trkpt><trkpt lat="44.835735622879454" lon="12.05685710945501"><ele>-2.0</ele><time>2026-04-11T11:31:22Z</time></trkpt><trkpt lat="44.83575990060018" lon="12.0565731377606"><ele>-2.0</ele><time>2026-04-11T11:31:23Z</time></trkpt><trkpt lat="44.83579135422393" lon="12.056272717945737"><ele>-2.0</ele><time>2026-04-11T11:31:24Z</time></trkpt><trkpt lat="44.83582095237863" lon="12.055951729404402"><ele>-2.5</ele><time>2026-04-11T11:31:25Z</time></trkpt><trkpt lat="44.835852014228465" lon="12.055624865197382"><ele>-3.0</ele><time>2026-04-11T11:31:26Z</time></trkpt><trkpt lat="44.83587792452033" lon="12.055299168249977"><ele>-3.0</ele><time>2026-04-11T11:31:27Z</time></trkpt><trkpt lat="44.83589969643333" lon="12.054980205365807"><ele>-3.0</ele><time>2026-04-11T11:31:28Z</time></trkpt><trkpt lat="44.83589933828346" lon="12.054656300283737"><ele>-2.5</ele><time>2026-04-11T11:31:29Z</time></trkpt><trkpt lat="44.835872691197636" lon="12.054316143455507"><ele>-2.0</ele><time>2026-04-11T11:31:30Z</time></trkpt><trkpt lat="44.8358241441446" lon="12.053961598331986"><ele>-2.0</ele><time>2026-04-11T11:31:31Z</time></trkpt><trkpt lat="44.83576398497431" lon="12.053589744256795"><ele>-2.0</ele><time>2026-04-11T11:31:32Z</time></trkpt><trkpt lat="44.83570831513575" lon="12.053216533345477"><ele>-2.0</ele><time>2026-04-11T11:31:33Z</time></trkpt><trkpt lat="44.83565639508623" lon="12.052855897803123"><ele>-2.0</ele><time>2026-04-11T11:31:34Z</time></trkpt><trkpt lat="44.83560746568463" lon="12.052499486569305"><ele>-2.0</ele><time>2026-04-11T11:31:35Z</time></trkpt><trkpt lat="44.83554659122228" lon="12.05213722283988"><ele>-2.0</ele><time>2026-04-11T11:31:36Z</time></trkpt><trkpt lat="44.83546460374624" lon="12.051770238745853"><ele>-2.0</ele><time>2026-04-11T11:31:37Z</time></trkpt><trkpt lat="44.83536373939431" lon="12.051401978109018"><ele>-2.0</ele><time>2026-04-11T11:31:38Z</time></trkpt><trkpt lat="44.83524261696351" lon="12.05102355693526"><ele>-1.0</ele><time>2026-04-11T11:31:39Z</time></trkpt><trkpt lat="44.83513070640566" lon="12.050659478338186"><ele>0.0</ele><time>2026-04-11T11:31:40Z</time></trkpt><trkpt lat="44.83501848703105" lon="12.050311109234363"><ele>0.0</ele><time>2026-04-11T11:31:41Z</time></trkpt><trkpt lat="44.83489833674905" lon="12.049966720535032"><ele>0.0</ele><time>2026-04-11T11:31:42Z</time></trkpt><trkpt lat="44.83476089841369" lon="12.049629487043442"><ele>-0.5</ele><time>2026-04-11T11:31:43Z</time></trkpt><trkpt lat="44.83460178261662" lon="12.04929328757848"><ele>-1.0</ele><time>2026-04-11T11:31:44Z</time></trkpt><trkpt lat="44.83443151017708" lon="12.048951239469204"><ele>-1.0</ele><time>2026-04-11T11:31:45Z</time></trkpt><trkpt lat="44.83426204802416" lon="12.048609037684454"><ele>-1.0</ele><time>2026-04-11T11:31:46Z</time></trkpt><trkpt lat="44.83409496966526" lon="12.04826731358673"><ele>-1.5</ele><time>2026-04-11T11:31:47Z</time></trkpt><trkpt lat="44.833930420787006" lon="12.0479234328431"><ele>-2.0</ele><time>2026-04-11T11:31:48Z</time></trkpt><trkpt lat="44.833768090336456" lon="12.047571692010179"><ele>-2.0</ele><time>2026-04-11T11:31:49Z</time></trkpt><trkpt lat="44.83360979942419" lon="12.047207986000386"><ele>-2.0</ele><time>2026-04-11T11:31:50Z</time></trkpt><trkpt lat="44.83345447707379" lon="12.046854861244093"><ele>-1.5</ele><time>2026-04-11T11:31:51Z</time></trkpt><trkpt lat="44.833303082009564" lon="12.04649947978211"><ele>-1.0</ele><time>2026-04-11T11:31:52Z</time></trkpt><trkpt lat="44.83314197497674" lon="12.046158518813662"><ele>-1.0</ele><time>2026-04-11T11:31:53Z</time></trkpt><trkpt lat="44.83296778179293" lon="12.04582095702273"><ele>-1.0</ele><time>2026-04-11T11:31:54Z</time></trkpt><trkpt lat="44.83278544991049" lon="12.04548930515142"><ele>-1.0</ele><time>2026-04-11T11:31:55Z</time></trkpt><trkpt lat="44.83259712511102" lon="12.045153726255954"><ele>-1.0</ele><time>2026-04-11T11:31:56Z</time></trkpt><trkpt lat="44.832400853468535" lon="12.044826872544446"><ele>-1.5</ele><time>2026-04-11T11:31:57Z</time></trkpt><trkpt lat="44.83222020516404" lon="12.044470667924053"><ele>-2.0</ele><time>2026-04-11T11:31:58Z</time></trkpt><trkpt lat="44.832015667220624" lon="12.044141745505966"><ele>-2.0</ele><time>2026-04-11T11:31:59Z</time></trkpt><trkpt lat="44.831804507125405" lon="12.04381446555289"><ele>-2.0</ele><time>2026-04-11T11:32:00Z</time></trkpt><trkpt lat="44.831594352750415" lon="12.043494103520683"><ele>-2.5</ele><time>2026-04-11T11:32:01Z</time></trkpt><trkpt lat="44.83137930383804" lon="12.043166280221374"><ele>-3.0</ele><time>2026-04-11T11:32:02Z</time></trkpt><trkpt lat="44.83117081140441" lon="12.042848451755699"><ele>-2.0</ele><time>2026-04-11T11:32:03Z</time></trkpt><trkpt lat="44.830971247440374" lon="12.042544103101388"><ele>-1.0</ele><time>2026-04-11T11:32:04Z</time></trkpt><trkpt lat="44.830774577848736" lon="12.04224280271634"><ele>-1.0</ele><time>2026-04-11T11:32:05Z</time></trkpt><trkpt lat="44.830590445438816" lon="12.041960709446945"><ele>-1.0</ele><time>2026-04-11T11:32:06Z</time></trkpt><trkpt lat="44.83041328299292" lon="12.041689294324957"><ele>-1.0</ele><time>2026-04-11T11:32:07Z</time></trkpt><trkpt lat="44.83024459204713" lon="12.041430453503917"><ele>-1.0</ele><time>2026-04-11T11:32:08Z</time></trkpt><trkpt lat="44.83008093089824" lon="12.041165117076893"><ele>-1.0</ele><time>2026-04-11T11:32:09Z</time></trkpt><trkpt lat="44.829933321196634" lon="12.040893447846544"><ele>-1.0</ele><time>2026-04-11T11:32:10Z</time></trkpt><trkpt lat="44.82980585328949" lon="12.04059884452769"><ele>-1.5</ele><time>2026-04-11T11:32:11Z</time></trkpt><trkpt lat="44.82969362037206" lon="12.0402850024979"><ele>-2.0</ele><time>2026-04-11T11:32:12Z</time></trkpt><trkpt lat="44.829596933423076" lon="12.039951214654316"><ele>-2.0</ele><time>2026-04-11T11:32:13Z</time></trkpt><trkpt lat="44.82950667514983" lon="12.03960196878103"><ele>-2.0</ele><time>2026-04-11T11:32:14Z</time></trkpt><trkpt lat="44.829413671925515" lon="12.03924386626479"><ele>-1.5</ele><time>2026-04-11T11:32:15Z</time></trkpt><trkpt lat="44.82930842154216" lon="12.038882407695652"><ele>-1.0</ele><time>2026-04-11T11:32:16Z</time></trkpt><trkpt lat="44.82917065122904" lon="12.038537889546474"><ele>-1.5</ele><time>2026-04-11T11:32:17Z</time></trkpt><trkpt lat="44.82902998741166" lon="12.038188983457037"><ele>-2.0</ele><time>2026-04-11T11:32:18Z</time></trkpt><trkpt lat="44.82887005034893" lon="12.037839167918039"><ele>-2.0</ele><time>2026-04-11T11:32:19Z</time></trkpt><trkpt lat="44.82871327807874" lon="12.037502226593922"><ele>-2.0</ele><time>2026-04-11T11:32:20Z</time></trkpt><trkpt lat="44.82855938203993" lon="12.03716293855576"><ele>-1.5</ele><time>2026-04-11T11:32:21Z</time></trkpt><trkpt lat="44.82840995988103" lon="12.036841849972774"><ele>-1.0</ele><time>2026-04-11T11:32:22Z</time></trkpt><trkpt lat="44.82827167357604" lon="12.036538771416733"><ele>-1.0</ele><time>2026-04-11T11:32:22.999Z</time></trkpt><trkpt lat="44.82812730002025" lon="12.036239073406563"><ele>-1.0</ele><time>2026-04-11T11:32:23.999Z</time></trkpt><trkpt lat="44.827972833079485" lon="12.035960741875417"><ele>-1.5</ele><time>2026-04-11T11:32:24.999Z</time></trkpt><trkpt lat="44.82780097530262" lon="12.035685753748425"><ele>-2.0</ele><time>2026-04-11T11:32:25.999Z</time></trkpt><trkpt lat="44.827604859818074" lon="12.03543364057662"><ele>-2.5</ele><time>2026-04-11T11:32:26.999Z</time></trkpt><trkpt lat="44.8273864241652" lon="12.035183645905395"><ele>-3.0</ele><time>2026-04-11T11:32:27.999Z</time></trkpt><trkpt lat="44.82717184836242" lon="12.034959788257046"><ele>-3.5</ele><time>2026-04-11T11:32:28.999Z</time></trkpt><trkpt lat="44.82697082995567" lon="12.034754539255038"><ele>-4.0</ele><time>2026-04-11T11:32:29.999Z</time></trkpt><trkpt lat="44.826778229424995" lon="12.034565122231905"><ele>-3.333333333333333</ele><time>2026-04-11T11:32:30.999Z</time></trkpt><trkpt lat="44.82658755767859" lon="12.034406889772274"><ele>-2.6666666666666665</ele><time>2026-04-11T11:32:31.999Z</time></trkpt><trkpt lat="44.82639133790907" lon="12.034274287373156"><ele>-2.0</ele><time>2026-04-11T11:32:32.999Z</time></trkpt><trkpt lat="44.82618166204808" lon="12.034161034481714"><ele>-3.0</ele><time>2026-04-11T11:32:33.999Z</time></trkpt><trkpt lat="44.825940615796355" lon="12.03406323847798"><ele>-4.0</ele><time>2026-04-11T11:32:34.999Z</time></trkpt><trkpt lat="44.825696612428864" lon="12.033966257295912"><ele>-4.0</ele><time>2026-04-11T11:32:35.999Z</time></trkpt><trkpt lat="44.82543840922206" lon="12.033876838408787"><ele>-4.0</ele><time>2026-04-11T11:32:36.999Z</time></trkpt><trkpt lat="44.8251811936827" lon="12.033809525311675"><ele>-3.5</ele><time>2026-04-11T11:32:37.999Z</time></trkpt><trkpt lat="44.82492133588089" lon="12.033760801915477"><ele>-3.0</ele><time>2026-04-11T11:32:38.999Z</time></trkpt><trkpt lat="44.824662703972805" lon="12.033733708143313"><ele>-3.0</ele><time>2026-04-11T11:32:39.999Z</time></trkpt><trkpt lat="44.8244077552735" lon="12.033732613639382"><ele>-3.0</ele><time>2026-04-11T11:32:40.999Z</time></trkpt><trkpt lat="44.824153936211374" lon="12.033741777627998"><ele>-2.5</ele><time>2026-04-11T11:32:41.999Z</time></trkpt><trkpt lat="44.82391739755481" lon="12.033769623631411"><ele>-2.0</ele><time>2026-04-11T11:32:42.999Z</time></trkpt><trkpt lat="44.823686906344925" lon="12.0338176660168"><ele>-2.0</ele><time>2026-04-11T11:32:43.999Z</time></trkpt><trkpt lat="44.823455400638785" lon="12.033899702287242"><ele>-2.0</ele><time>2026-04-11T11:32:44.999Z</time></trkpt><trkpt lat="44.82324378027006" lon="12.034005921112668"><ele>-2.0</ele><time>2026-04-11T11:32:45.999Z</time></trkpt><trkpt lat="44.82306691645259" lon="12.034112575690152"><ele>-2.0</ele><time>2026-04-11T11:32:46.999Z</time></trkpt><trkpt lat="44.82290825061124" lon="12.034242052418124"><ele>-2.0</ele><time>2026-04-11T11:32:47.999Z</time></trkpt><trkpt lat="44.82276009617698" lon="12.03439980895176"><ele>-2.0</ele><time>2026-04-11T11:32:48.999Z</time></trkpt><trkpt lat="44.82263327293452" lon="12.034594803814617"><ele>-2.0</ele><time>2026-04-11T11:32:49.999Z</time></trkpt><trkpt lat="44.82252754132567" lon="12.034809427041349"><ele>-2.0</ele><time>2026-04-11T11:32:50.999Z</time></trkpt><trkpt lat="44.822420669222254" lon="12.034995209639572"><ele>-1.0</ele><time>2026-04-11T11:32:51.999Z</time></trkpt><trkpt lat="44.82232139175962" lon="12.035164736509858"><ele>0.0</ele><time>2026-04-11T11:32:52.999Z</time></trkpt><trkpt lat="44.82220570773276" lon="12.035321627377645"><ele>1.0</ele><time>2026-04-11T11:32:53.999Z</time></trkpt><trkpt lat="44.82206813077044" lon="12.035442952351252"><ele>1.0</ele><time>2026-04-11T11:32:54.999Z</time></trkpt><trkpt lat="44.821905901345616" lon="12.03553281458009"><ele>1.0</ele><time>2026-04-11T11:32:55.999Z</time></trkpt><trkpt lat="44.8217118083423" lon="12.035587096952927"><ele>1.0</ele><time>2026-04-11T11:32:56.999Z</time></trkpt><trkpt lat="44.82149839822487" lon="12.035610364057442"><ele>-0.5</ele><time>2026-04-11T11:32:57.999Z</time></trkpt><trkpt lat="44.82127370905008" lon="12.035609586778797"><ele>-2.0</ele><time>2026-04-11T11:32:58.999Z</time></trkpt><trkpt lat="44.821035951595675" lon="12.035580912531557"><ele>-2.0</ele><time>2026-04-11T11:32:59.999Z</time></trkpt><trkpt lat="44.82079072628867" lon="12.035557533805418"><ele>-2.0</ele><time>2026-04-11T11:33:00.999Z</time></trkpt><trkpt lat="44.82054076839879" lon="12.035518797059408"><ele>-2.0</ele><time>2026-04-11T11:33:01.999Z</time></trkpt><trkpt lat="44.8202884118992" lon="12.035460492860057"><ele>-2.0</ele><time>2026-04-11T11:33:02.999Z</time></trkpt><trkpt lat="44.82003144746377" lon="12.035384980713433"><ele>-2.5</ele><time>2026-04-11T11:33:03.999Z</time></trkpt><trkpt lat="44.8197733553244" lon="12.035300294889876"><ele>-3.0</ele><time>2026-04-11T11:33:04.999Z</time></trkpt><trkpt lat="44.8195113537487" lon="12.035191145462013"><ele>-3.0</ele><time>2026-04-11T11:33:05.999Z</time></trkpt><trkpt lat="44.81925815533367" lon="12.035059808752472"><ele>-3.0</ele><time>2026-04-11T11:33:06.999Z</time></trkpt><trkpt lat="44.81901874352207" lon="12.034879650859901"><ele>-3.0</ele><time>2026-04-11T11:33:07.999Z</time></trkpt><trkpt lat="44.81877776561076" lon="12.034707760020572"><ele>-3.0</ele><time>2026-04-11T11:33:08.999Z</time></trkpt><trkpt lat="44.818527874387776" lon="12.034544646752444"><ele>-2.0</ele><time>2026-04-11T11:33:09.999Z</time></trkpt><trkpt lat="44.81829179640788" lon="12.034354300916823"><ele>-1.0</ele><time>2026-04-11T11:33:10.999Z</time></trkpt><trkpt lat="44.8180610539927" lon="12.034157778490233"><ele>-1.0</ele><time>2026-04-11T11:33:11.999Z</time></trkpt><trkpt lat="44.81782692876409" lon="12.033961462840313"><ele>-1.0</ele><time>2026-04-11T11:33:12.999Z</time></trkpt><trkpt lat="44.817611775922025" lon="12.033753918805516"><ele>-1.0</ele><time>2026-04-11T11:33:13.999Z</time></trkpt><trkpt lat="44.81741420068568" lon="12.033547274901661"><ele>-1.0</ele><time>2026-04-11T11:33:14.999Z</time></trkpt><trkpt lat="44.81723382928762" lon="12.03331279717558"><ele>-1.0</ele><time>2026-04-11T11:33:16Z</time></trkpt><trkpt lat="44.81706695969507" lon="12.03304708652467"><ele>-1.0</ele><time>2026-04-11T11:33:17Z</time></trkpt><trkpt lat="44.816925433954616" lon="12.032745696270734"><ele>-1.0</ele><time>2026-04-11T11:33:18Z</time></trkpt><trkpt lat="44.81679126981672" lon="12.032427421494164"><ele>-1.0</ele><time>2026-04-11T11:33:19Z</time></trkpt><trkpt lat="44.81664275760317" lon="12.032108178943295"><ele>-1.0</ele><time>2026-04-11T11:33:20Z</time></trkpt><trkpt lat="44.816483635915006" lon="12.03178516253362"><ele>-1.0</ele><time>2026-04-11T11:33:21Z</time></trkpt><trkpt lat="44.81633370528857" lon="12.031491529235298"><ele>-1.0</ele><time>2026-04-11T11:33:22Z</time></trkpt><trkpt lat="44.816197370113606" lon="12.031233338744384"><ele>-1.0</ele><time>2026-04-11T11:33:23Z</time></trkpt><trkpt lat="44.81607548499922" lon="12.030974653305275"><ele>-1.0</ele><time>2026-04-11T11:33:24Z</time></trkpt><trkpt lat="44.81596920350034" lon="12.03070843282435"><ele>-1.0</ele><time>2026-04-11T11:33:25Z</time></trkpt><trkpt lat="44.81589465047603" lon="12.030424996584088"><ele>-1.0</ele><time>2026-04-11T11:33:26Z</time></trkpt><trkpt lat="44.8158308655678" lon="12.030123288171305"><ele>-1.0</ele><time>2026-04-11T11:33:27Z</time></trkpt><trkpt lat="44.815793037957846" lon="12.029787564405193"><ele>-1.0</ele><time>2026-04-11T11:33:28Z</time></trkpt><trkpt lat="44.815770812759986" lon="12.029418151377902"><ele>-1.0</ele><time>2026-04-11T11:33:29Z</time></trkpt><trkpt lat="44.81575602927279" lon="12.029026364841913"><ele>-1.0</ele><time>2026-04-11T11:33:30Z</time></trkpt><trkpt lat="44.815745145639724" lon="12.02861587670395"><ele>-1.0</ele><time>2026-04-11T11:33:31Z</time></trkpt><trkpt lat="44.81573706151712" lon="12.028212424131455"><ele>-1.0</ele><time>2026-04-11T11:33:32Z</time></trkpt><trkpt lat="44.81571748757944" lon="12.027814824323187"><ele>-1.0</ele><time>2026-04-11T11:33:33Z</time></trkpt><trkpt lat="44.81569485162945" lon="12.027429893911027"><ele>-1.0</ele><time>2026-04-11T11:33:34Z</time></trkpt><trkpt lat="44.81567423191115" lon="12.027050224125402"><ele>-1.0</ele><time>2026-04-11T11:33:35Z</time></trkpt><trkpt lat="44.815652999453995" lon="12.026677772994097"><ele>-1.0</ele><time>2026-04-11T11:33:36Z</time></trkpt><trkpt lat="44.81564253461544" lon="12.026312628008267"><ele>-1.0</ele><time>2026-04-11T11:33:37Z</time></trkpt><trkpt lat="44.8156226317526" lon="12.025949036244077"><ele>-0.5</ele><time>2026-04-11T11:33:38Z</time></trkpt><trkpt lat="44.81560455677391" lon="12.025580391067152"><ele>0.0</ele><time>2026-04-11T11:33:39Z</time></trkpt><trkpt lat="44.81557748814378" lon="12.025228394469895"><ele>0.0</ele><time>2026-04-11T11:33:40Z</time></trkpt><trkpt lat="44.815557294915436" lon="12.024874958933054"><ele>0.0</ele><time>2026-04-11T11:33:41Z</time></trkpt><trkpt lat="44.81553757586812" lon="12.024525705433165"><ele>0.0</ele><time>2026-04-11T11:33:42Z</time></trkpt><trkpt lat="44.81551812369958" lon="12.024178310816938"><ele>0.0</ele><time>2026-04-11T11:33:43Z</time></trkpt><trkpt lat="44.81548872498148" lon="12.023812107923858"><ele>-0.5</ele><time>2026-04-11T11:33:44Z</time></trkpt><trkpt lat="44.81545486788668" lon="12.023448365229774"><ele>-1.0</ele><time>2026-04-11T11:33:45Z</time></trkpt><trkpt lat="44.815417106151045" lon="12.023081240608944"><ele>-1.0</ele><time>2026-04-11T11:33:46Z</time></trkpt><trkpt lat="44.815372841794215" lon="12.022710811465378"><ele>-1.0</ele><time>2026-04-11T11:33:47Z</time></trkpt><trkpt lat="44.81531460320034" lon="12.022341994963288"><ele>-1.0</ele><time>2026-04-11T11:33:48Z</time></trkpt><trkpt lat="44.81523630669053" lon="12.021974339297843"><ele>-1.0</ele><time>2026-04-11T11:33:49Z</time></trkpt><trkpt lat="44.815133494447785" lon="12.021623909509472"><ele>-1.0</ele><time>2026-04-11T11:33:50Z</time></trkpt><trkpt lat="44.815007589867584" lon="12.021283762546004"><ele>-1.0</ele><time>2026-04-11T11:33:51Z</time></trkpt><trkpt lat="44.81485733211146" lon="12.02090675131427"><ele>-0.5</ele><time>2026-04-11T11:33:52Z</time></trkpt><trkpt lat="44.8147092483376" lon="12.020546219705889"><ele>0.0</ele><time>2026-04-11T11:33:53Z</time></trkpt><trkpt lat="44.814555552898426" lon="12.020181481884897"><ele>0.0</ele><time>2026-04-11T11:33:54Z</time></trkpt><trkpt lat="44.81439832825771" lon="12.01981113302941"><ele>0.0</ele><time>2026-04-11T11:33:55Z</time></trkpt><trkpt lat="44.814240762105904" lon="12.019443523043222"><ele>0.0</ele><time>2026-04-11T11:33:56Z</time></trkpt><trkpt lat="44.81408751243363" lon="12.019079813684186"><ele>0.0</ele><time>2026-04-11T11:33:57Z</time></trkpt><trkpt lat="44.81393519690515" lon="12.018714303962408"><ele>0.0</ele><time>2026-04-11T11:33:58Z</time></trkpt><trkpt lat="44.81378724331023" lon="12.018374618406094"><ele>0.0</ele><time>2026-04-11T11:33:59Z</time></trkpt><trkpt lat="44.813637986602906" lon="12.018049624611608"><ele>0.0</ele><time>2026-04-11T11:34:00Z</time></trkpt><trkpt lat="44.813492228608254" lon="12.01774600594075"><ele>0.0</ele><time>2026-04-11T11:34:01Z</time></trkpt><trkpt lat="44.81335574130424" lon="12.017447662438279"><ele>0.5</ele><time>2026-04-11T11:34:02Z</time></trkpt><trkpt lat="44.81323562502529" lon="12.017153444951315"><ele>1.0</ele><time>2026-04-11T11:34:03Z</time></trkpt><trkpt lat="44.8130923310713" lon="12.016897286613819"><ele>1.3333333333333333</ele><time>2026-04-11T11:34:04Z</time></trkpt><trkpt lat="44.812987295138534" lon="12.016646323195085"><ele>1.6666666666666665</ele><time>2026-04-11T11:34:05Z</time></trkpt><trkpt lat="44.81287674532833" lon="12.016434949177409"><ele>2.0</ele><time>2026-04-11T11:34:06Z</time></trkpt><trkpt lat="44.812772092096814" lon="12.01623873225742"><ele>2.0</ele><time>2026-04-11T11:34:07Z</time></trkpt><trkpt lat="44.81266951758558" lon="12.016050970878819"><ele>2.0</ele><time>2026-04-11T11:34:08Z</time></trkpt><trkpt lat="44.81257991055048" lon="12.015885897623022"><ele>2.0</ele><time>2026-04-11T11:34:09Z</time></trkpt><trkpt lat="44.81249282707858" lon="12.015744445951512"><ele>2.0</ele><time>2026-04-11T11:34:10Z</time></trkpt><trkpt lat="44.812428495688906" lon="12.015587742365675"><ele>2.0</ele><time>2026-04-11T11:34:11Z</time></trkpt><trkpt lat="44.8123940159035" lon="12.015422732724709"><ele>2.0</ele><time>2026-04-11T11:34:12Z</time></trkpt><trkpt lat="44.81235565059077" lon="12.015271974079278"><ele>2.0</ele><time>2026-04-11T11:34:13Z</time></trkpt><trkpt lat="44.81231823563448" lon="12.015130609398485"><ele>2.0</ele><time>2026-04-11T11:34:14Z</time></trkpt><trkpt lat="44.812266456985085" lon="12.014994201307484"><ele>2.25</ele><time>2026-04-11T11:34:15Z</time></trkpt><trkpt lat="44.81224660668518" lon="12.014829719357856"><ele>2.5</ele><time>2026-04-11T11:34:16Z</time></trkpt><trkpt lat="44.81221436378367" lon="12.01466432593953"><ele>2.75</ele><time>2026-04-11T11:34:17Z</time></trkpt><trkpt lat="44.81217779257265" lon="12.014498164621251"><ele>3.0</ele><time>2026-04-11T11:34:18Z</time></trkpt><trkpt lat="44.81214294276633" lon="12.014328691472272"><ele>2.6</ele><time>2026-04-11T11:34:19Z</time></trkpt><trkpt lat="44.812112178989835" lon="12.014153947537263"><ele>2.1999999999999997</ele><time>2026-04-11T11:34:20Z</time></trkpt><trkpt lat="44.81208757757183" lon="12.014001683879208"><ele>1.8</ele><time>2026-04-11T11:34:21Z</time></trkpt><trkpt lat="44.812070579506496" lon="12.013855257376731"><ele>1.4</ele><time>2026-04-11T11:34:22Z</time></trkpt><trkpt lat="44.8120625631601" lon="12.013739820529052"><ele>1.0</ele><time>2026-04-11T11:34:23Z</time></trkpt><trkpt lat="44.81207116424587" lon="12.013580444199697"><ele>0.9999999999999999</ele><time>2026-04-11T11:34:24.999Z</time></trkpt><trkpt lat="44.81210385067763" lon="12.01348090144831"><ele>1.0</ele><time>2026-04-11T11:34:26.999Z</time></trkpt><trkpt lat="44.81213775201772" lon="12.013375493632967"><ele>1.0</ele><time>2026-04-11T11:34:29.999Z</time></trkpt><trkpt lat="44.81213811376434" lon="12.013275633073206"><ele>1.0</ele><time>2026-04-11T11:34:33.999Z</time></trkpt><trkpt lat="44.81211450375511" lon="12.01316159156482"><ele>0.9999999999999999</ele><time>2026-04-11T11:34:37.999Z</time></trkpt><trkpt lat="44.81217806761348" lon="12.013136387613088"><ele>1.0</ele><time>2026-04-11T11:34:58.999Z</time></trkpt><trkpt lat="44.81224680814616" lon="12.013207795854951"><ele>0.9999999999999999</ele><time>2026-04-11T11:35:27Z</time></trkpt><trkpt lat="44.81215432373933" lon="12.013249848289405"><ele>1.0</ele><time>2026-04-11T11:39:44Z</time></trkpt><trkpt lat="44.81213364731287" lon="12.013164258936015"><ele>1.0</ele><time>2026-04-11T11:39:53Z</time></trkpt><trkpt lat="44.81216148917728" lon="12.013075715723865"><ele>1.0</ele><time>2026-04-11T11:40:04Z</time></trkpt><trkpt lat="44.81215674294374" lon="12.012966424297986"><ele>0.9999999999999999</ele><time>2026-04-11T11:40:07Z</time></trkpt><trkpt lat="44.81214231461674" lon="12.01283447784357"><ele>1.0</ele><time>2026-04-11T11:40:10Z</time></trkpt><trkpt lat="44.812170992636375" lon="12.012725817991434"><ele>1.0</ele><time>2026-04-11T11:40:11Z</time></trkpt><trkpt lat="44.81220205309059" lon="12.012604393548862"><ele>1.0</ele><time>2026-04-11T11:40:12Z</time></trkpt><trkpt lat="44.812252189612906" lon="12.012466125918184"><ele>1.0</ele><time>2026-04-11T11:40:13Z</time></trkpt><trkpt lat="44.812297118890235" lon="12.012309808181302"><ele>1.0</ele><time>2026-04-11T11:40:14Z</time></trkpt><trkpt lat="44.81236681127959" lon="12.01213099047743"><ele>1.0</ele><time>2026-04-11T11:40:15Z</time></trkpt><trkpt lat="44.81243534175723" lon="12.01193518477664"><ele>1.0</ele><time>2026-04-11T11:40:16Z</time></trkpt><trkpt lat="44.81250882349635" lon="12.011723043872344"><ele>1.0</ele><time>2026-04-11T11:40:17Z</time></trkpt><trkpt lat="44.81259327885982" lon="12.011485378953742"><ele>0.6666666666666666</ele><time>2026-04-11T11:40:18Z</time></trkpt><trkpt lat="44.81267608960231" lon="12.011247714376301"><ele>0.3333333333333333</ele><time>2026-04-11T11:40:19Z</time></trkpt><trkpt lat="44.81274922833788" lon="12.011007062637303"><ele>0.0</ele><time>2026-04-11T11:40:20Z</time></trkpt><trkpt lat="44.81282719525278" lon="12.010766111302996"><ele>0.0</ele><time>2026-04-11T11:40:21Z</time></trkpt><trkpt lat="44.81291685161295" lon="12.010529622804663"><ele>0.0</ele><time>2026-04-11T11:40:22Z</time></trkpt><trkpt lat="44.81301481219467" lon="12.010283228806818"><ele>0.0</ele><time>2026-04-11T11:40:23Z</time></trkpt><trkpt lat="44.8131474998061" lon="12.010073437453226"><ele>0.0</ele><time>2026-04-11T11:40:24Z</time></trkpt><trkpt lat="44.81329876457161" lon="12.009884688440025"><ele>0.0</ele><time>2026-04-11T11:40:25Z</time></trkpt><trkpt lat="44.81346168131126" lon="12.009720894841488"><ele>0.0</ele><time>2026-04-11T11:40:26Z</time></trkpt><trkpt lat="44.81363571977241" lon="12.009549181369872"><ele>0.0</ele><time>2026-04-11T11:40:27Z</time></trkpt><trkpt lat="44.81381537778772" lon="12.009373725946356"><ele>0.0</ele><time>2026-04-11T11:40:28Z</time></trkpt><trkpt lat="44.81398614213459" lon="12.00918860497411"><ele>0.0</ele><time>2026-04-11T11:40:29Z</time></trkpt><trkpt lat="44.81415887688552" lon="12.009007439768151"><ele>0.0</ele><time>2026-04-11T11:40:30Z</time></trkpt><trkpt lat="44.81433000633682" lon="12.008820829727165"><ele>0.0</ele><time>2026-04-11T11:40:31Z</time></trkpt><trkpt lat="44.81449623217326" lon="12.008641176322264"><ele>0.0</ele><time>2026-04-11T11:40:32Z</time></trkpt><trkpt lat="44.8146448258811" lon="12.008439792766048"><ele>0.0</ele><time>2026-04-11T11:40:33Z</time></trkpt><trkpt lat="44.81479163743582" lon="12.008190315017961"><ele>0.0</ele><time>2026-04-11T11:40:34Z</time></trkpt><trkpt lat="44.81491790394135" lon="12.007925837549761"><ele>0.0</ele><time>2026-04-11T11:40:35Z</time></trkpt><trkpt lat="44.81504261349712" lon="12.007652109300249"><ele>0.0</ele><time>2026-04-11T11:40:36Z</time></trkpt><trkpt lat="44.81515222571293" lon="12.007361180090484"><ele>-1.0</ele><time>2026-04-11T11:40:36.999Z</time></trkpt><trkpt lat="44.815257549493104" lon="12.00705459400235"><ele>-2.0</ele><time>2026-04-11T11:40:37.999Z</time></trkpt><trkpt lat="44.81536609114361" lon="12.006744207354652"><ele>-1.5</ele><time>2026-04-11T11:40:38.999Z</time></trkpt><trkpt lat="44.81546455140597" lon="12.006448612493502"><ele>-1.0</ele><time>2026-04-11T11:40:39.999Z</time></trkpt><trkpt lat="44.81556194748253" lon="12.006141200048317"><ele>-1.0</ele><time>2026-04-11T11:40:40.999Z</time></trkpt><trkpt lat="44.815656329317136" lon="12.005833787828529"><ele>-1.0</ele><time>2026-04-11T11:40:41.999Z</time></trkpt><trkpt lat="44.81573734676589" lon="12.005513213344637"><ele>0.5</ele><time>2026-04-11T11:40:42.999Z</time></trkpt><trkpt lat="44.81581391179192" lon="12.005191402281074"><ele>2.0</ele><time>2026-04-11T11:40:43.999Z</time></trkpt><trkpt lat="44.81588631905323" lon="12.004855586904162"><ele>2.0</ele><time>2026-04-11T11:40:44.999Z</time></trkpt><trkpt lat="44.815953101397376" lon="12.004506216801532"><ele>2.0</ele><time>2026-04-11T11:40:45.999Z</time></trkpt><trkpt lat="44.816021580048236" lon="12.00415864281182"><ele>0.5</ele><time>2026-04-11T11:40:46.999Z</time></trkpt><trkpt lat="44.81607914959626" lon="12.003801813442793"><ele>-1.0</ele><time>2026-04-11T11:40:47.999Z</time></trkpt><trkpt lat="44.816134458362605" lon="12.003448698219131"><ele>-0.5</ele><time>2026-04-11T11:40:48.999Z</time></trkpt><trkpt lat="44.816192245479414" lon="12.003095286608088"><ele>0.0</ele><time>2026-04-11T11:40:49.999Z</time></trkpt><trkpt lat="44.816249007982165" lon="12.002739911162873"><ele>-0.5</ele><time>2026-04-11T11:40:50.999Z</time></trkpt><trkpt lat="44.81630449915483" lon="12.002406392617058"><ele>-1.0</ele><time>2026-04-11T11:40:51.999Z</time></trkpt><trkpt lat="44.81636016107386" lon="12.002094808833045"><ele>-1.0</ele><time>2026-04-11T11:40:52.999Z</time></trkpt><trkpt lat="44.81640179405143" lon="12.0017914712606"><ele>-1.0</ele><time>2026-04-11T11:40:53.999Z</time></trkpt><trkpt lat="44.81646482963439" lon="12.001495958697658"><ele>-1.0</ele><time>2026-04-11T11:40:54.999Z</time></trkpt><trkpt lat="44.816514700877164" lon="12.00120438568799"><ele>0.0</ele><time>2026-04-11T11:40:55.999Z</time></trkpt><trkpt lat="44.816562538735226" lon="12.000924701071535"><ele>1.0</ele><time>2026-04-11T11:40:56.999Z</time></trkpt><trkpt lat="44.816609210596496" lon="12.000651833507236"><ele>2.0</ele><time>2026-04-11T11:40:57.999Z</time></trkpt><trkpt lat="44.816653003674105" lon="12.000395796733827"><ele>2.333333333333333</ele><time>2026-04-11T11:40:58.999Z</time></trkpt><trkpt lat="44.81669271405007" lon="12.000163629541449"><ele>2.6666666666666665</ele><time>2026-04-11T11:40:59.999Z</time></trkpt><trkpt lat="44.816730133877385" lon="11.999944853977196"><ele>3.0</ele><time>2026-04-11T11:41:00.999Z</time></trkpt><trkpt lat="44.816762828839664" lon="11.999753782015238"><ele>3.0</ele><time>2026-04-11T11:41:01.999Z</time></trkpt><trkpt lat="44.81679594820876" lon="11.9995602720657"><ele>3.0</ele><time>2026-04-11T11:41:02.999Z</time></trkpt><trkpt lat="44.816828870753504" lon="11.99936791211243"><ele>3.0</ele><time>2026-04-11T11:41:03.999Z</time></trkpt><trkpt lat="44.81677217249294" lon="11.999124646866788"><ele>2.6666666666666665</ele><time>2026-04-11T11:41:04.999Z</time></trkpt><trkpt lat="44.81675284681168" lon="11.998867854397052"><ele>2.333333333333333</ele><time>2026-04-11T11:41:05.999Z</time></trkpt><trkpt lat="44.81673372042053" lon="11.998582926258551"><ele>2.0</ele><time>2026-04-11T11:41:06.999Z</time></trkpt><trkpt lat="44.81670449640481" lon="11.998290467180977"><ele>1.6666666666666665</ele><time>2026-04-11T11:41:07.999Z</time></trkpt><trkpt lat="44.8166690910758" lon="11.997991703701155"><ele>1.3333333333333333</ele><time>2026-04-11T11:41:08.999Z</time></trkpt><trkpt lat="44.81662422754895" lon="11.997682368876514"><ele>1.0</ele><time>2026-04-11T11:41:09.999Z</time></trkpt><trkpt lat="44.81656679445169" lon="11.99736707138638"><ele>1.0</ele><time>2026-04-11T11:41:10.999Z</time></trkpt><trkpt lat="44.816515910442" lon="11.997045224303642"><ele>1.0</ele><time>2026-04-11T11:41:11.999Z</time></trkpt><trkpt lat="44.8164554927903" lon="11.996731490695531"><ele>0.5</ele><time>2026-04-11T11:41:12.999Z</time></trkpt><trkpt lat="44.81638060704251" lon="11.99642298661993"><ele>0.0</ele><time>2026-04-11T11:41:13.999Z</time></trkpt><trkpt lat="44.81629113174199" lon="11.996126338481757"><ele>-1.0</ele><time>2026-04-11T11:41:14.999Z</time></trkpt><trkpt lat="44.8161922703061" lon="11.995835886604922"><ele>-2.0</ele><time>2026-04-11T11:41:15.999Z</time></trkpt><trkpt lat="44.81608688273561" lon="11.995541041776328"><ele>-2.0</ele><time>2026-04-11T11:41:16.999Z</time></trkpt><trkpt lat="44.81596994974028" lon="11.995238215150355"><ele>-2.0</ele><time>2026-04-11T11:41:17.999Z</time></trkpt><trkpt lat="44.815869083576324" lon="11.994930224101454"><ele>-0.5</ele><time>2026-04-11T11:41:18.999Z</time></trkpt><trkpt lat="44.8157526302557" lon="11.994627578566503"><ele>1.0</ele><time>2026-04-11T11:41:19.999Z</time></trkpt><trkpt lat="44.81564072739401" lon="11.994329517598239"><ele>0.0</ele><time>2026-04-11T11:41:20.999Z</time></trkpt><trkpt lat="44.81552486174704" lon="11.994032812530554"><ele>-1.0</ele><time>2026-04-11T11:41:21.999Z</time></trkpt><trkpt lat="44.81540300502438" lon="11.993760112504598"><ele>-1.0</ele><time>2026-04-11T11:41:22.999Z</time></trkpt><trkpt lat="44.81526139277576" lon="11.993480530840053"><ele>-1.0</ele><time>2026-04-11T11:41:23.999Z</time></trkpt><trkpt lat="44.81511446564257" lon="11.9932114149288"><ele>-0.5</ele><time>2026-04-11T11:41:24.999Z</time></trkpt><trkpt lat="44.81496891976017" lon="11.992935830213586"><ele>0.0</ele><time>2026-04-11T11:41:25.999Z</time></trkpt><trkpt lat="44.814831434384885" lon="11.992654463516148"><ele>-0.5</ele><time>2026-04-11T11:41:26.999Z</time></trkpt><trkpt lat="44.81470039974404" lon="11.992383831267686"><ele>-1.0</ele><time>2026-04-11T11:41:27.999Z</time></trkpt><trkpt lat="44.8145652473272" lon="11.992116062101825"><ele>-1.0</ele><time>2026-04-11T11:41:28.999Z</time></trkpt><trkpt lat="44.81441795920514" lon="11.991861229304412"><ele>-1.0</ele><time>2026-04-11T11:41:29.999Z</time></trkpt><trkpt lat="44.81426652637531" lon="11.99163153388723"><ele>-1.0</ele><time>2026-04-11T11:41:30.999Z</time></trkpt><trkpt lat="44.814114662048745" lon="11.991437573531586"><ele>-1.0</ele><time>2026-04-11T11:41:31.999Z</time></trkpt><trkpt lat="44.8139607698203" lon="11.991292289610536"><ele>-1.0</ele><time>2026-04-11T11:41:32.999Z</time></trkpt><trkpt lat="44.81381513952665" lon="11.991179334290525"><ele>-1.0</ele><time>2026-04-11T11:41:33.999Z</time></trkpt><trkpt lat="44.81369053452251" lon="11.991048556899086"><ele>-1.0</ele><time>2026-04-11T11:41:34.999Z</time></trkpt><trkpt lat="44.813594853002584" lon="11.990886241994527"><ele>-1.0</ele><time>2026-04-11T11:41:35.999Z</time></trkpt><trkpt lat="44.81353845091508" lon="11.990658186542761"><ele>-1.0</ele><time>2026-04-11T11:41:36.999Z</time></trkpt><trkpt lat="44.81344920641606" lon="11.990413580272156"><ele>-1.0</ele><time>2026-04-11T11:41:37.999Z</time></trkpt><trkpt lat="44.81337642175183" lon="11.99012746073791"><ele>-1.0</ele><time>2026-04-11T11:41:38.999Z</time></trkpt><trkpt lat="44.813291033682226" lon="11.989827910173585"><ele>-1.5</ele><time>2026-04-11T11:41:39.999Z</time></trkpt><trkpt lat="44.813195500902836" lon="11.989519803121333"><ele>-2.0</ele><time>2026-04-11T11:41:40.999Z</time></trkpt><trkpt lat="44.81309176575418" lon="11.989199405775746"><ele>-2.5</ele><time>2026-04-11T11:41:41.999Z</time></trkpt><trkpt lat="44.81298875943716" lon="11.988883138117226"><ele>-3.0</ele><time>2026-04-11T11:41:42.999Z</time></trkpt><trkpt lat="44.812892847285795" lon="11.988568337812785"><ele>-2.5</ele><time>2026-04-11T11:41:43.999Z</time></trkpt><trkpt lat="44.81281524852033" lon="11.988249941242971"><ele>-2.0</ele><time>2026-04-11T11:41:44.999Z</time></trkpt><trkpt lat="44.812731108430214" lon="11.987949093960147"><ele>-1.5</ele><time>2026-04-11T11:41:45.999Z</time></trkpt><trkpt lat="44.81264706938568" lon="11.987648607892872"><ele>-1.0</ele><time>2026-04-11T11:41:46.999Z</time></trkpt><trkpt lat="44.81256467103416" lon="11.987353991039724"><ele>-1.0</ele><time>2026-04-11T11:41:47.999Z</time></trkpt><trkpt lat="44.81248115754015" lon="11.987055387998423"><ele>-1.0</ele><time>2026-04-11T11:41:48.999Z</time></trkpt><trkpt lat="44.81239304650001" lon="11.986747694914117"><ele>-0.5</ele><time>2026-04-11T11:41:49.999Z</time></trkpt><trkpt lat="44.81226156357842" lon="11.986468059954568"><ele>0.0</ele><time>2026-04-11T11:41:50.999Z</time></trkpt><trkpt lat="44.81217865490908" lon="11.986172702385089"><ele>0.0</ele><time>2026-04-11T11:41:51.999Z</time></trkpt><trkpt lat="44.81207663869368" lon="11.985887283871492"><ele>0.0</ele><time>2026-04-11T11:41:52.999Z</time></trkpt><trkpt lat="44.811973257320275" lon="11.985605988344552"><ele>-0.3333333333333333</ele><time>2026-04-11T11:41:53.999Z</time></trkpt><trkpt lat="44.81186372945425" lon="11.985336831251036"><ele>-0.6666666666666666</ele><time>2026-04-11T11:41:54.999Z</time></trkpt><trkpt lat="44.811741406345035" lon="11.985086200047588"><ele>-1.0</ele><time>2026-04-11T11:41:55.999Z</time></trkpt><trkpt lat="44.811603193802995" lon="11.984865302986325"><ele>-0.6666666666666666</ele><time>2026-04-11T11:41:56.998Z</time></trkpt><trkpt lat="44.811461099818395" lon="11.984655163852016"><ele>-0.3333333333333333</ele><time>2026-04-11T11:41:57.998Z</time></trkpt><trkpt lat="44.81132138260478" lon="11.984425496644448"><ele>0.0</ele><time>2026-04-11T11:41:58.998Z</time></trkpt><trkpt lat="44.81121429808716" lon="11.984160464614682"><ele>0.0</ele><time>2026-04-11T11:41:59.998Z</time></trkpt><trkpt lat="44.811117976329506" lon="11.98388386673567"><ele>0.0</ele><time>2026-04-11T11:42:00.998Z</time></trkpt><trkpt lat="44.810995676647124" lon="11.983613313083318"><ele>0.0</ele><time>2026-04-11T11:42:01.998Z</time></trkpt><trkpt lat="44.8108630316423" lon="11.983337869038152"><ele>-1.0</ele><time>2026-04-11T11:42:02.998Z</time></trkpt><trkpt lat="44.81072148524236" lon="11.983059900885562"><ele>-2.0</ele><time>2026-04-11T11:42:03.998Z</time></trkpt><trkpt lat="44.81057107768689" lon="11.982773400175827"><ele>-2.0</ele><time>2026-04-11T11:42:04.998Z</time></trkpt><trkpt lat="44.81042035568564" lon="11.982492889321518"><ele>-2.0</ele><time>2026-04-11T11:42:05.998Z</time></trkpt><trkpt lat="44.81026059655067" lon="11.982218986809233"><ele>-1.0</ele><time>2026-04-11T11:42:06.998Z</time></trkpt><trkpt lat="44.81009719648448" lon="11.981956235487306"><ele>0.0</ele><time>2026-04-11T11:42:07.998Z</time></trkpt><trkpt lat="44.809922204297436" lon="11.98168864337537"><ele>-0.5</ele><time>2026-04-11T11:42:08.998Z</time></trkpt><trkpt lat="44.80973015575125" lon="11.981418015026376"><ele>-1.0</ele><time>2026-04-11T11:42:09.998Z</time></trkpt><trkpt lat="44.80953444457219" lon="11.981164060319879"><ele>-1.0</ele><time>2026-04-11T11:42:10.998Z</time></trkpt><trkpt lat="44.80933481526571" lon="11.980914219868014"><ele>-1.0</ele><time>2026-04-11T11:42:11.998Z</time></trkpt><trkpt lat="44.80913184334417" lon="11.980667481596932"><ele>-0.5</ele><time>2026-04-11T11:42:12.998Z</time></trkpt><trkpt lat="44.808936265264514" lon="11.980413936857643"><ele>0.0</ele><time>2026-04-11T11:42:13.998Z</time></trkpt><trkpt lat="44.80874525881122" lon="11.98017169551418"><ele>-0.3333333333333333</ele><time>2026-04-11T11:42:14.998Z</time></trkpt><trkpt lat="44.808584093205404" lon="11.9799509463084"><ele>-0.6666666666666666</ele><time>2026-04-11T11:42:15.998Z</time></trkpt><trkpt lat="44.808420766383804" lon="11.979735938036347"><ele>-1.0</ele><time>2026-04-11T11:42:16.998Z</time></trkpt><trkpt lat="44.80824913686863" lon="11.979529123649865"><ele>-1.0</ele><time>2026-04-11T11:42:17.998Z</time></trkpt><trkpt lat="44.80807574427786" lon="11.979289052426742"><ele>-1.0</ele><time>2026-04-11T11:42:18.998Z</time></trkpt><trkpt lat="44.80791226271429" lon="11.979018115131872"><ele>-0.5</ele><time>2026-04-11T11:42:19.998Z</time></trkpt><trkpt lat="44.807753788033686" lon="11.978738294606897"><ele>0.0</ele><time>2026-04-11T11:42:20.998Z</time></trkpt><trkpt lat="44.80760215200117" lon="11.97847612069227"><ele>-0.5</ele><time>2026-04-11T11:42:21.998Z</time></trkpt><trkpt lat="44.8074585982643" lon="11.97822941605498"><ele>-1.0</ele><time>2026-04-11T11:42:22.998Z</time></trkpt><trkpt lat="44.80732162219768" lon="11.9779716553721"><ele>-1.0</ele><time>2026-04-11T11:42:23.998Z</time></trkpt><trkpt lat="44.807189550028035" lon="11.977689087387812"><ele>-1.0</ele><time>2026-04-11T11:42:24.998Z</time></trkpt><trkpt lat="44.807066564190116" lon="11.977386758944682"><ele>-1.0</ele><time>2026-04-11T11:42:25.998Z</time></trkpt><trkpt lat="44.80695439344332" lon="11.977072469539133"><ele>-1.0</ele><time>2026-04-11T11:42:26.998Z</time></trkpt><trkpt lat="44.80683935452044" lon="11.976759046527706"><ele>-1.0</ele><time>2026-04-11T11:42:27.998Z</time></trkpt><trkpt lat="44.8067271520274" lon="11.976444664721923"><ele>-1.0</ele><time>2026-04-11T11:42:28.998Z</time></trkpt><trkpt lat="44.80661886934479" lon="11.976126911475882"><ele>-1.0</ele><time>2026-04-11T11:42:29.998Z</time></trkpt><trkpt lat="44.806492755790494" lon="11.97581197696843"><ele>-1.0</ele><time>2026-04-11T11:42:30.998Z</time></trkpt><trkpt lat="44.806354895427226" lon="11.975514394394791"><ele>-1.0</ele><time>2026-04-11T11:42:31.998Z</time></trkpt><trkpt lat="44.806209410014084" lon="11.975220505539964"><ele>-1.0</ele><time>2026-04-11T11:42:32.998Z</time></trkpt><trkpt lat="44.80605916145823" lon="11.974926508134002"><ele>0.0</ele><time>2026-04-11T11:42:33.998Z</time></trkpt><trkpt lat="44.80590498209314" lon="11.974634391198618"><ele>1.0</ele><time>2026-04-11T11:42:34.998Z</time></trkpt><trkpt lat="44.80574411860648" lon="11.974355392541725"><ele>0.0</ele><time>2026-04-11T11:42:35.998Z</time></trkpt><trkpt lat="44.80557925137812" lon="11.974075862676148"><ele>-1.0</ele><time>2026-04-11T11:42:36.998Z</time></trkpt><trkpt lat="44.805415050594675" lon="11.973799176180801"><ele>-1.0</ele><time>2026-04-11T11:42:37.998Z</time></trkpt><trkpt lat="44.80526097778122" lon="11.973529809809184"><ele>-1.0</ele><time>2026-04-11T11:42:38.998Z</time></trkpt><trkpt lat="44.80510053534145" lon="11.973254989240958"><ele>-1.0</ele><time>2026-04-11T11:42:39.998Z</time></trkpt><trkpt lat="44.80495017433828" lon="11.972978623569743"><ele>-1.0</ele><time>2026-04-11T11:42:40.998Z</time></trkpt><trkpt lat="44.80480377737459" lon="11.972714715757691"><ele>-1.0</ele><time>2026-04-11T11:42:41.998Z</time></trkpt><trkpt lat="44.80464442682255" lon="11.972466780725098"><ele>-1.0</ele><time>2026-04-11T11:42:42.998Z</time></trkpt><trkpt lat="44.804478227244054" lon="11.972238635912307"><ele>-1.5</ele><time>2026-04-11T11:42:43.998Z</time></trkpt><trkpt lat="44.80429496313213" lon="11.972023379034042"><ele>-2.0</ele><time>2026-04-11T11:42:44.998Z</time></trkpt><trkpt lat="44.80409990670612" lon="11.97181876480068"><ele>-2.5</ele><time>2026-04-11T11:42:45.998Z</time></trkpt><trkpt lat="44.803908651899874" lon="11.97161118526835"><ele>-3.0</ele><time>2026-04-11T11:42:46.998Z</time></trkpt><trkpt lat="44.80370707526223" lon="11.9714163653727"><ele>-3.0</ele><time>2026-04-11T11:42:47.998Z</time></trkpt><trkpt lat="44.80350570681514" lon="11.971220163455284"><ele>-3.0</ele><time>2026-04-11T11:42:48.998Z</time></trkpt><trkpt lat="44.80329036188574" lon="11.971037058681118"><ele>-3.0</ele><time>2026-04-11T11:42:49.998Z</time></trkpt><trkpt lat="44.803073509369455" lon="11.970868798091178"><ele>-3.0</ele><time>2026-04-11T11:42:50.998Z</time></trkpt><trkpt lat="44.80285770549843" lon="11.97072175851997"><ele>-2.5</ele><time>2026-04-11T11:42:51.998Z</time></trkpt><trkpt lat="44.80263203811871" lon="11.97058621718557"><ele>-2.0</ele><time>2026-04-11T11:42:52.998Z</time></trkpt><trkpt lat="44.80240183494005" lon="11.970461737137423"><ele>-2.0</ele><time>2026-04-11T11:42:53.998Z</time></trkpt><trkpt lat="44.80214647188835" lon="11.970365047101922"><ele>-2.0</ele><time>2026-04-11T11:42:54.998Z</time></trkpt><trkpt lat="44.801884607005356" lon="11.97026395344874"><ele>-1.0</ele><time>2026-04-11T11:42:55.998Z</time></trkpt><trkpt lat="44.80163486132488" lon="11.970159670654207"><ele>0.0</ele><time>2026-04-11T11:42:56.998Z</time></trkpt><trkpt lat="44.801386050907304" lon="11.970048645831273"><ele>-1.0</ele><time>2026-04-11T11:42:57.998Z</time></trkpt><trkpt lat="44.801143656693974" lon="11.969946845401102"><ele>-2.0</ele><time>2026-04-11T11:42:58.998Z</time></trkpt><trkpt lat="44.80089609365396" lon="11.96986521693146"><ele>-3.0</ele><time>2026-04-11T11:42:59.998Z</time></trkpt><trkpt lat="44.80064255728435" lon="11.969797938733855"><ele>-4.0</ele><time>2026-04-11T11:43:00.998Z</time></trkpt><trkpt lat="44.800394467889824" lon="11.969742121017552"><ele>-2.5</ele><time>2026-04-11T11:43:01.998Z</time></trkpt><trkpt lat="44.8001549604247" lon="11.969700096679542"><ele>-1.0</ele><time>2026-04-11T11:43:02.998Z</time></trkpt><trkpt lat="44.79993678038894" lon="11.969664616415095"><ele>-1.0</ele><time>2026-04-11T11:43:03.998Z</time></trkpt><trkpt lat="44.799737050738784" lon="11.969624708552733"><ele>-1.0</ele><time>2026-04-11T11:43:04.998Z</time></trkpt><trkpt lat="44.79956212565229" lon="11.969592497801626"><ele>-1.0</ele><time>2026-04-11T11:43:05.998Z</time></trkpt><trkpt lat="44.799401362849004" lon="11.969566285596272"><ele>-0.75</ele><time>2026-04-11T11:43:06.998Z</time></trkpt><trkpt lat="44.799266797311134" lon="11.969542542929364"><ele>-0.5</ele><time>2026-04-11T11:43:07.998Z</time></trkpt><trkpt lat="44.799155881203035" lon="11.969532608822858"><ele>-0.25</ele><time>2026-04-11T11:43:08.998Z</time></trkpt><trkpt lat="44.799035476490324" lon="11.969521282403154"><ele>0.0</ele><time>2026-04-11T11:43:09.998Z</time></trkpt><trkpt lat="44.798907335558354" lon="11.969492329845224"><ele>0.0</ele><time>2026-04-11T11:43:10.998Z</time></trkpt><trkpt lat="44.79875613542516" lon="11.969448379280745"><ele>0.0</ele><time>2026-04-11T11:43:11.998Z</time></trkpt><trkpt lat="44.79859101035255" lon="11.969421942906578"><ele>0.0</ele><time>2026-04-11T11:43:12.998Z</time></trkpt><trkpt lat="44.79840819157911" lon="11.969401325650859"><ele>0.6666666666666666</ele><time>2026-04-11T11:43:13.998Z</time></trkpt><trkpt lat="44.79823904658289" lon="11.969383729855357"><ele>1.3333333333333333</ele><time>2026-04-11T11:43:14.998Z</time></trkpt><trkpt lat="44.79808451080709" lon="11.969362527249746"><ele>2.0</ele><time>2026-04-11T11:43:15.998Z</time></trkpt><trkpt lat="44.79795329419533" lon="11.969355885716206"><ele>2.0</ele><time>2026-04-11T11:43:16.998Z</time></trkpt><trkpt lat="44.7978379974174" lon="11.969318319049533"><ele>2.0</ele><time>2026-04-11T11:43:17.997Z</time></trkpt><trkpt lat="44.79773632375394" lon="11.969305082691415"><ele>2.0</ele><time>2026-04-11T11:43:18.997Z</time></trkpt><trkpt lat="44.79764144188219" lon="11.969292707034016"><ele>2.0</ele><time>2026-04-11T11:43:19.997Z</time></trkpt><trkpt lat="44.79757478072672" lon="11.96928400557695"><ele>2.0</ele><time>2026-04-11T11:43:20.997Z</time></trkpt><trkpt lat="44.79749089493036" lon="11.969267097722684"><ele>2.2</ele><time>2026-04-11T11:43:22.997Z</time></trkpt><trkpt lat="44.797451807144476" lon="11.969493678123989"><ele>2.4000000000000004</ele><time>2026-04-11T11:43:23.997Z</time></trkpt><trkpt lat="44.797444280716704" lon="11.969635124078392"><ele>2.5999999999999996</ele><time>2026-04-11T11:43:24.997Z</time></trkpt><trkpt lat="44.79744491499862" lon="11.969755014986305"><ele>2.8</ele><time>2026-04-11T11:43:25.997Z</time></trkpt><trkpt lat="44.79746166261963" lon="11.969883482946711"><ele>3.0</ele><time>2026-04-11T11:43:26.997Z</time></trkpt><trkpt lat="44.797477010202016" lon="11.970015635616685"><ele>2.6666666666666665</ele><time>2026-04-11T11:43:27.997Z</time></trkpt><trkpt lat="44.797479791571796" lon="11.9701282605641"><ele>2.3333333333333335</ele><time>2026-04-11T11:43:28.997Z</time></trkpt><trkpt lat="44.797493516042216" lon="11.970224361440785"><ele>2.0</ele><time>2026-04-11T11:43:29.997Z</time></trkpt><trkpt lat="44.797503551421464" lon="11.970334298506453"><ele>1.6666666666666665</ele><time>2026-04-11T11:43:30.997Z</time></trkpt><trkpt lat="44.797511221083056" lon="11.970443505687486"><ele>1.3333333333333333</ele><time>2026-04-11T11:43:31.997Z</time></trkpt><trkpt lat="44.797494126567685" lon="11.970603053503838"><ele>1.0</ele><time>2026-04-11T11:43:33.997Z</time></trkpt><trkpt lat="44.797501170110664" lon="11.970699837702607"><ele>1.0</ele><time>2026-04-11T11:43:35.997Z</time></trkpt><trkpt lat="44.79736833907516" lon="11.97074246648784"><ele>1.0</ele><time>2026-04-11T11:43:36.997Z</time></trkpt><trkpt lat="44.797292876076206" lon="11.970713244984417"><ele>1.0</ele><time>2026-04-11T11:43:37.997Z</time></trkpt><trkpt lat="44.79718795240501" lon="11.970690199001938"><ele>1.0</ele><time>2026-04-11T11:43:38.997Z</time></trkpt><trkpt lat="44.79705271831942" lon="11.97066124763987"><ele>1.0</ele><time>2026-04-11T11:43:39.997Z</time></trkpt><trkpt lat="44.79690628194896" lon="11.970654265328708"><ele>1.0</ele><time>2026-04-11T11:43:40.997Z</time></trkpt><trkpt lat="44.79674442335011" lon="11.970598298767436"><ele>1.0</ele><time>2026-04-11T11:43:41.997Z</time></trkpt><trkpt lat="44.796569195597044" lon="11.970557620743723"><ele>1.0</ele><time>2026-04-11T11:43:42.997Z</time></trkpt><trkpt lat="44.79637997298505" lon="11.97053463521489"><ele>1.0</ele><time>2026-04-11T11:43:43.997Z</time></trkpt><trkpt lat="44.796192188643516" lon="11.970526038837201"><ele>1.0</ele><time>2026-04-11T11:43:44.997Z</time></trkpt><trkpt lat="44.79598738224931" lon="11.970522243098653"><ele>1.0</ele><time>2026-04-11T11:43:45.997Z</time></trkpt><trkpt lat="44.79579119222892" lon="11.970497649643725"><ele>1.0</ele><time>2026-04-11T11:43:46.997Z</time></trkpt><trkpt lat="44.79559943694462" lon="11.97045453373573"><ele>1.0</ele><time>2026-04-11T11:43:47.997Z</time></trkpt><trkpt lat="44.795408230014644" lon="11.970413968696883"><ele>1.0</ele><time>2026-04-11T11:43:48.997Z</time></trkpt><trkpt lat="44.79520970733132" lon="11.970374296215802"><ele>1.0</ele><time>2026-04-11T11:43:49.997Z</time></trkpt><trkpt lat="44.795011146433886" lon="11.970330157073743"><ele>1.0</ele><time>2026-04-11T11:43:50.997Z</time></trkpt><trkpt lat="44.79480938315693" lon="11.97028875071407"><ele>0.6666666666666666</ele><time>2026-04-11T11:43:51.997Z</time></trkpt><trkpt lat="44.79460849132736" lon="11.970238636719872"><ele>0.3333333333333333</ele><time>2026-04-11T11:43:52.997Z</time></trkpt><trkpt lat="44.794399334360655" lon="11.970191175780327"><ele>0.0</ele><time>2026-04-11T11:43:53.997Z</time></trkpt><trkpt lat="44.79397427074155" lon="11.970091293558427"><ele>0.3333333333333333</ele><time>2026-04-11T11:43:55.997Z</time></trkpt><trkpt lat="44.79376162736276" lon="11.969997453597001"><ele>0.6666666666666666</ele><time>2026-04-11T11:43:56.997Z</time></trkpt><trkpt lat="44.79355534418403" lon="11.969934033475278"><ele>1.0</ele><time>2026-04-11T11:43:57.997Z</time></trkpt><trkpt lat="44.7933518396296" lon="11.969860027758973"><ele>1.0</ele><time>2026-04-11T11:43:58.997Z</time></trkpt><trkpt lat="44.793156013148725" lon="11.969770916292163"><ele>1.0</ele><time>2026-04-11T11:43:59.997Z</time></trkpt><trkpt lat="44.79296664924129" lon="11.969654507346267"><ele>1.0</ele><time>2026-04-11T11:44:00.997Z</time></trkpt><trkpt lat="44.79277680114914" lon="11.96950657551595"><ele>1.0</ele><time>2026-04-11T11:44:01.997Z</time></trkpt><trkpt lat="44.79258700980128" lon="11.969345692192688"><ele>1.0</ele><time>2026-04-11T11:44:02.997Z</time></trkpt><trkpt lat="44.79238654681005" lon="11.969185920476159"><ele>1.0</ele><time>2026-04-11T11:44:03.997Z</time></trkpt><trkpt lat="44.79218026339676" lon="11.969031845782593"><ele>1.0</ele><time>2026-04-11T11:44:04.997Z</time></trkpt><trkpt lat="44.7919718764809" lon="11.968887107824573"><ele>-0.5</ele><time>2026-04-11T11:44:05.997Z</time></trkpt><trkpt lat="44.79176384243693" lon="11.968749970661827"><ele>-2.0</ele><time>2026-04-11T11:44:06.997Z</time></trkpt><trkpt lat="44.791557957995856" lon="11.968607913785524"><ele>-2.0</ele><time>2026-04-11T11:44:07.997Z</time></trkpt><trkpt lat="44.791348645845574" lon="11.968448789268562"><ele>-2.0</ele><time>2026-04-11T11:44:08.997Z</time></trkpt><trkpt lat="44.7911434958437" lon="11.968273039701739"><ele>-1.5</ele><time>2026-04-11T11:44:09.997Z</time></trkpt><trkpt lat="44.790948723806004" lon="11.96807580554595"><ele>-1.0</ele><time>2026-04-11T11:44:10.997Z</time></trkpt><trkpt lat="44.790763993772174" lon="11.967848127519206"><ele>-1.0</ele><time>2026-04-11T11:44:11.997Z</time></trkpt><trkpt lat="44.79059157500527" lon="11.967620829106805"><ele>-1.0</ele><time>2026-04-11T11:44:12.997Z</time></trkpt><trkpt lat="44.79043650031801" lon="11.967375598980635"><ele>-0.5</ele><time>2026-04-11T11:44:13.997Z</time></trkpt><trkpt lat="44.79028866535537" lon="11.967117198063045"><ele>0.0</ele><time>2026-04-11T11:44:14.997Z</time></trkpt><trkpt lat="44.790163535736625" lon="11.966843252855089"><ele>1.5</ele><time>2026-04-11T11:44:15.997Z</time></trkpt><trkpt lat="44.790049914542365" lon="11.966551364750417"><ele>3.0</ele><time>2026-04-11T11:44:16.997Z</time></trkpt><trkpt lat="44.78993390082993" lon="11.966251578289647"><ele>3.0</ele><time>2026-04-11T11:44:17.997Z</time></trkpt><trkpt lat="44.78984149122443" lon="11.965927052108308"><ele>3.0</ele><time>2026-04-11T11:44:18.997Z</time></trkpt><trkpt lat="44.78972765299013" lon="11.965626298583352"><ele>3.0</ele><time>2026-04-11T11:44:19.997Z</time></trkpt><trkpt lat="44.78961212786678" lon="11.965326350079996"><ele>3.0</ele><time>2026-04-11T11:44:20.997Z</time></trkpt><trkpt lat="44.78949498442323" lon="11.965029458078456"><ele>2.5</ele><time>2026-04-11T11:44:21.997Z</time></trkpt><trkpt lat="44.78937840063284" lon="11.964726204108333"><ele>2.0</ele><time>2026-04-11T11:44:22.997Z</time></trkpt><trkpt lat="44.789261396222095" lon="11.9644188932904"><ele>1.5</ele><time>2026-04-11T11:44:23.997Z</time></trkpt><trkpt lat="44.789144938153804" lon="11.96409994483772"><ele>1.0</ele><time>2026-04-11T11:44:24.997Z</time></trkpt><trkpt lat="44.78903157119505" lon="11.96377381305358"><ele>1.0</ele><time>2026-04-11T11:44:25.997Z</time></trkpt><trkpt lat="44.78891992311983" lon="11.963440003823559"><ele>1.0</ele><time>2026-04-11T11:44:26.997Z</time></trkpt><trkpt lat="44.78881829550977" lon="11.963094855648043"><ele>2.0</ele><time>2026-04-11T11:44:27.997Z</time></trkpt><trkpt lat="44.78871778412973" lon="11.962750134249436"><ele>3.0</ele><time>2026-04-11T11:44:28.997Z</time></trkpt><trkpt lat="44.788612712645715" lon="11.962399040596702"><ele>3.5</ele><time>2026-04-11T11:44:29.997Z</time></trkpt><trkpt lat="44.78851592230125" lon="11.962044029819097"><ele>4.0</ele><time>2026-04-11T11:44:30.997Z</time></trkpt><trkpt lat="44.788411468252924" lon="11.961683198225757"><ele>4.5</ele><time>2026-04-11T11:44:31.997Z</time></trkpt><trkpt lat="44.78830948181233" lon="11.96132008217288"><ele>5.0</ele><time>2026-04-11T11:44:32.997Z</time></trkpt><trkpt lat="44.78820146371633" lon="11.960963238386746"><ele>4.5</ele><time>2026-04-11T11:44:33.997Z</time></trkpt><trkpt lat="44.78809314007253" lon="11.960609178377176"><ele>4.0</ele><time>2026-04-11T11:44:34.997Z</time></trkpt><trkpt lat="44.787983821213274" lon="11.960257140711406"><ele>2.5</ele><time>2026-04-11T11:44:35.997Z</time></trkpt><trkpt lat="44.78787528324248" lon="11.959915480747144"><ele>1.0</ele><time>2026-04-11T11:44:36.997Z</time></trkpt><trkpt lat="44.78776696543076" lon="11.959566045948538"><ele>1.5</ele><time>2026-04-11T11:44:37.996Z</time></trkpt><trkpt lat="44.78764863326152" lon="11.959217572719822"><ele>2.0</ele><time>2026-04-11T11:44:38.996Z</time></trkpt><trkpt lat="44.78752814258134" lon="11.95887348991279"><ele>2.0</ele><time>2026-04-11T11:44:39.996Z</time></trkpt><trkpt lat="44.78740991525708" lon="11.958527007630247"><ele>2.0</ele><time>2026-04-11T11:44:40.996Z</time></trkpt><trkpt lat="44.78728805686731" lon="11.95817605686148"><ele>2.0</ele><time>2026-04-11T11:44:41.996Z</time></trkpt><trkpt lat="44.78716725364866" lon="11.957834075410123"><ele>2.0</ele><time>2026-04-11T11:44:42.996Z</time></trkpt><trkpt lat="44.78704740662716" lon="11.957508840136468"><ele>1.5</ele><time>2026-04-11T11:44:43.996Z</time></trkpt><trkpt lat="44.78693197088171" lon="11.957187410647112"><ele>1.0</ele><time>2026-04-11T11:44:44.996Z</time></trkpt><trkpt lat="44.78681160575442" lon="11.956870348267866"><ele>1.5</ele><time>2026-04-11T11:44:45.996Z</time></trkpt><trkpt lat="44.786686928344835" lon="11.95655319893418"><ele>2.0</ele><time>2026-04-11T11:44:46.996Z</time></trkpt><trkpt lat="44.78654219473066" lon="11.956240003332105"><ele>2.0</ele><time>2026-04-11T11:44:47.996Z</time></trkpt><trkpt lat="44.78639520827935" lon="11.955916193707099"><ele>2.0</ele><time>2026-04-11T11:44:48.996Z</time></trkpt><trkpt lat="44.786235972393975" lon="11.955598353621465"><ele>1.5</ele><time>2026-04-11T11:44:49.996Z</time></trkpt><trkpt lat="44.78607426495355" lon="11.955292731894158"><ele>1.0</ele><time>2026-04-11T11:44:50.996Z</time></trkpt><trkpt lat="44.78590060848881" lon="11.954987198566972"><ele>2.0</ele><time>2026-04-11T11:44:51.996Z</time></trkpt><trkpt lat="44.7857350397006" lon="11.954693783120485"><ele>3.0</ele><time>2026-04-11T11:44:52.996Z</time></trkpt><trkpt lat="44.785568335466365" lon="11.954406848019401"><ele>3.0</ele><time>2026-04-11T11:44:53.996Z</time></trkpt><trkpt lat="44.78540489196242" lon="11.954129553488178"><ele>3.0</ele><time>2026-04-11T11:44:54.996Z</time></trkpt><trkpt lat="44.785249481554224" lon="11.953860503665465"><ele>3.5</ele><time>2026-04-11T11:44:55.996Z</time></trkpt><trkpt lat="44.78508883245769" lon="11.953601109977106"><ele>4.0</ele><time>2026-04-11T11:44:56.996Z</time></trkpt><trkpt lat="44.78493215706797" lon="11.953331274346194"><ele>3.0</ele><time>2026-04-11T11:44:57.996Z</time></trkpt><trkpt lat="44.784774327460205" lon="11.953073905335232"><ele>2.0</ele><time>2026-04-11T11:44:58.996Z</time></trkpt><trkpt lat="44.78461862121986" lon="11.952815942418802"><ele>2.0</ele><time>2026-04-11T11:44:59.996Z</time></trkpt><trkpt lat="44.78446482449753" lon="11.952552129214656"><ele>2.0</ele><time>2026-04-11T11:45:00.996Z</time></trkpt><trkpt lat="44.784312239180366" lon="11.952286996995737"><ele>2.5</ele><time>2026-04-11T11:45:01.996Z</time></trkpt><trkpt lat="44.78415989732493" lon="11.952022215648313"><ele>3.0</ele><time>2026-04-11T11:45:02.996Z</time></trkpt><trkpt lat="44.784014380230495" lon="11.95176023918657"><ele>4.5</ele><time>2026-04-11T11:45:03.996Z</time></trkpt><trkpt lat="44.78387021571498" lon="11.951515811457552"><ele>6.0</ele><time>2026-04-11T11:45:04.996Z</time></trkpt><trkpt lat="44.78372363308909" lon="11.951263631510898"><ele>6.0</ele><time>2026-04-11T11:45:05.996Z</time></trkpt><trkpt lat="44.78357898969451" lon="11.951011315067921"><ele>6.0</ele><time>2026-04-11T11:45:06.996Z</time></trkpt><trkpt lat="44.783433723228434" lon="11.95077025149409"><ele>5.666666666666667</ele><time>2026-04-11T11:45:07.996Z</time></trkpt><trkpt lat="44.783292078887335" lon="11.950546303308982"><ele>5.333333333333334</ele><time>2026-04-11T11:45:08.996Z</time></trkpt><trkpt lat="44.783148618098096" lon="11.950342759267985"><ele>5.0</ele><time>2026-04-11T11:45:09.996Z</time></trkpt><trkpt lat="44.78300237598013" lon="11.950153821295155"><ele>4.666666666666667</ele><time>2026-04-11T11:45:10.996Z</time></trkpt><trkpt lat="44.782840205680785" lon="11.949999098178331"><ele>4.333333333333333</ele><time>2026-04-11T11:45:11.996Z</time></trkpt><trkpt lat="44.78266053919276" lon="11.9498653698698"><ele>4.0</ele><time>2026-04-11T11:45:12.996Z</time></trkpt><trkpt lat="44.782470392389854" lon="11.949743203049229"><ele>3.333333333333333</ele><time>2026-04-11T11:45:13.996Z</time></trkpt><trkpt lat="44.78227989873883" lon="11.94962368902133"><ele>2.6666666666666665</ele><time>2026-04-11T11:45:14.996Z</time></trkpt><trkpt lat="44.782088368819295" lon="11.949498026199253"><ele>2.0</ele><time>2026-04-11T11:45:15.996Z</time></trkpt><trkpt lat="44.78190286779053" lon="11.949351267839024"><ele>2.333333333333333</ele><time>2026-04-11T11:45:16.996Z</time></trkpt><trkpt lat="44.7817299342487" lon="11.949203418473491"><ele>2.6666666666666665</ele><time>2026-04-11T11:45:17.996Z</time></trkpt><trkpt lat="44.781556472621304" lon="11.949057458254664"><ele>3.0</ele><time>2026-04-11T11:45:18.996Z</time></trkpt><trkpt lat="44.78138890623566" lon="11.948902834178398"><ele>3.0</ele><time>2026-04-11T11:45:19.996Z</time></trkpt><trkpt lat="44.78122904342048" lon="11.948743864312314"><ele>3.0</ele><time>2026-04-11T11:45:20.996Z</time></trkpt><trkpt lat="44.781077250541976" lon="11.948575581162501"><ele>3.0</ele><time>2026-04-11T11:45:21.996Z</time></trkpt><trkpt lat="44.78093557011718" lon="11.948394845388794"><ele>2.6666666666666665</ele><time>2026-04-11T11:45:22.996Z</time></trkpt><trkpt lat="44.780787971891506" lon="11.948212849809014"><ele>2.333333333333333</ele><time>2026-04-11T11:45:23.996Z</time></trkpt><trkpt lat="44.780644084052454" lon="11.948036782609046"><ele>2.0</ele><time>2026-04-11T11:45:24.996Z</time></trkpt><trkpt lat="44.780505754124476" lon="11.94787732363112"><ele>2.0</ele><time>2026-04-11T11:45:25.996Z</time></trkpt><trkpt lat="44.78036932997576" lon="11.947741187918217"><ele>2.0</ele><time>2026-04-11T11:45:26.996Z</time></trkpt><trkpt lat="44.780224559882384" lon="11.947612828567989"><ele>2.0</ele><time>2026-04-11T11:45:27.996Z</time></trkpt><trkpt lat="44.78007341872503" lon="11.947502801933792"><ele>1.6666666666666665</ele><time>2026-04-11T11:45:28.996Z</time></trkpt><trkpt lat="44.77990546695234" lon="11.947414029008671"><ele>1.3333333333333333</ele><time>2026-04-11T11:45:29.996Z</time></trkpt><trkpt lat="44.7797279824459" lon="11.947344857445389"><ele>1.0</ele><time>2026-04-11T11:45:30.996Z</time></trkpt><trkpt lat="44.77954028001962" lon="11.94729672729965"><ele>1.3333333333333333</ele><time>2026-04-11T11:45:31.996Z</time></trkpt><trkpt lat="44.77934654398495" lon="11.947247865728405"><ele>1.6666666666666665</ele><time>2026-04-11T11:45:32.996Z</time></trkpt><trkpt lat="44.7791539035357" lon="11.947190858313695"><ele>2.0</ele><time>2026-04-11T11:45:33.996Z</time></trkpt><trkpt lat="44.778957216904175" lon="11.947126500839792"><ele>2.0</ele><time>2026-04-11T11:45:34.996Z</time></trkpt><trkpt lat="44.77876118886818" lon="11.947038050439323"><ele>2.0</ele><time>2026-04-11T11:45:35.996Z</time></trkpt><trkpt lat="44.778565306785715" lon="11.946934703850768"><ele>2.0</ele><time>2026-04-11T11:45:36.996Z</time></trkpt><trkpt lat="44.77836656978915" lon="11.946817588990038"><ele>2.0</ele><time>2026-04-11T11:45:37.996Z</time></trkpt><trkpt lat="44.77816967374942" lon="11.946697048774919"><ele>2.0</ele><time>2026-04-11T11:45:38.996Z</time></trkpt><trkpt lat="44.77799468183465" lon="11.946543204673253"><ele>2.0</ele><time>2026-04-11T11:45:39.996Z</time></trkpt><trkpt lat="44.7778162996727" lon="11.946409785111307"><ele>2.0</ele><time>2026-04-11T11:45:40.996Z</time></trkpt><trkpt lat="44.777640966149086" lon="11.946280296124117"><ele>2.0</ele><time>2026-04-11T11:45:41.996Z</time></trkpt><trkpt lat="44.77746031941311" lon="11.94614829571991"><ele>2.0</ele><time>2026-04-11T11:45:42.996Z</time></trkpt><trkpt lat="44.777267910063166" lon="11.946028657784057"><ele>2.333333333333333</ele><time>2026-04-11T11:45:43.996Z</time></trkpt><trkpt lat="44.77709390723342" lon="11.945874930735739"><ele>2.6666666666666665</ele><time>2026-04-11T11:45:44.996Z</time></trkpt><trkpt lat="44.77693044739098" lon="11.945692433327094"><ele>3.0</ele><time>2026-04-11T11:45:45.996Z</time></trkpt><trkpt lat="44.77677903290086" lon="11.94553002210074"><ele>3.0</ele><time>2026-04-11T11:45:46.996Z</time></trkpt><trkpt lat="44.77662636415125" lon="11.945338904687716"><ele>3.0</ele><time>2026-04-11T11:45:47.996Z</time></trkpt><trkpt lat="44.77647611945312" lon="11.945132401741553"><ele>3.0</ele><time>2026-04-11T11:45:48.996Z</time></trkpt><trkpt lat="44.77633087043366" lon="11.944906813294834"><ele>3.0</ele><time>2026-04-11T11:45:49.996Z</time></trkpt><trkpt lat="44.77619335212467" lon="11.944668612249922"><ele>3.0</ele><time>2026-04-11T11:45:50.996Z</time></trkpt><trkpt lat="44.77606023383133" lon="11.944413885907666"><ele>3.0</ele><time>2026-04-11T11:45:51.996Z</time></trkpt><trkpt lat="44.7759302953676" lon="11.944165087281084"><ele>2.3333333333333335</ele><time>2026-04-11T11:45:52.996Z</time></trkpt><trkpt lat="44.7758038127233" lon="11.9439231180796"><ele>1.6666666666666665</ele><time>2026-04-11T11:45:53.996Z</time></trkpt><trkpt lat="44.77567518574567" lon="11.943689899780114"><ele>1.0</ele><time>2026-04-11T11:45:54.996Z</time></trkpt><trkpt lat="44.77552914688159" lon="11.94348998221025"><ele>1.0</ele><time>2026-04-11T11:45:55.996Z</time></trkpt><trkpt lat="44.77539071422245" lon="11.943301499927573"><ele>1.0</ele><time>2026-04-11T11:45:56.996Z</time></trkpt><trkpt lat="44.77523598843325" lon="11.943136479726888"><ele>1.0</ele><time>2026-04-11T11:45:57.996Z</time></trkpt><trkpt lat="44.77506999414677" lon="11.942990222854938"><ele>1.0</ele><time>2026-04-11T11:45:58.995Z</time></trkpt><trkpt lat="44.77489311933198" lon="11.942845353350366"><ele>1.0</ele><time>2026-04-11T11:45:59.995Z</time></trkpt><trkpt lat="44.77470194145271" lon="11.942691371587818"><ele>1.0</ele><time>2026-04-11T11:46:00.995Z</time></trkpt><trkpt lat="44.77452847271253" lon="11.94255293743276"><ele>1.0</ele><time>2026-04-11T11:46:01.995Z</time></trkpt><trkpt lat="44.774373780312835" lon="11.942423843864884"><ele>1.0</ele><time>2026-04-11T11:46:02.995Z</time></trkpt><trkpt lat="44.774235687523706" lon="11.942303066939935"><ele>1.0</ele><time>2026-04-11T11:46:03.995Z</time></trkpt><trkpt lat="44.77409583584465" lon="11.942197835139622"><ele>1.0</ele><time>2026-04-11T11:46:04.995Z</time></trkpt><trkpt lat="44.773973508447234" lon="11.94209959268885"><ele>1.0</ele><time>2026-04-11T11:46:05.995Z</time></trkpt><trkpt lat="44.77386783990724" lon="11.942009113714567"><ele>1.0</ele><time>2026-04-11T11:46:06.995Z</time></trkpt><trkpt lat="44.77378367878962" lon="11.941923914572708"><ele>1.0</ele><time>2026-04-11T11:46:07.995Z</time></trkpt><trkpt lat="44.77370848701769" lon="11.941844991994493"><ele>1.0</ele><time>2026-04-11T11:46:08.995Z</time></trkpt><trkpt lat="44.77364915028285" lon="11.941760283060619"><ele>1.0</ele><time>2026-04-11T11:46:09.995Z</time></trkpt><trkpt lat="44.773610777580245" lon="11.941676503042777"><ele>1.0</ele><time>2026-04-11T11:46:10.995Z</time></trkpt><trkpt lat="44.773577910778606" lon="11.941559554749333"><ele>1.0</ele><time>2026-04-11T11:46:11.995Z</time></trkpt><trkpt lat="44.77353158005667" lon="11.941426138824182"><ele>1.0</ele><time>2026-04-11T11:46:12.995Z</time></trkpt><trkpt lat="44.77349422797176" lon="11.941279197273946"><ele>1.0</ele><time>2026-04-11T11:46:13.995Z</time></trkpt><trkpt lat="44.773482378637915" lon="11.941126691727696"><ele>1.0</ele><time>2026-04-11T11:46:14.995Z</time></trkpt><trkpt lat="44.77348551576819" lon="11.940947833668998"><ele>1.0</ele><time>2026-04-11T11:46:15.995Z</time></trkpt><trkpt lat="44.77350560136627" lon="11.94076111875475"><ele>1.0</ele><time>2026-04-11T11:46:16.995Z</time></trkpt><trkpt lat="44.77353722824577" lon="11.940550675914942"><ele>1.5</ele><time>2026-04-11T11:46:17.995Z</time></trkpt><trkpt lat="44.77357889643516" lon="11.940331026177773"><ele>2.0</ele><time>2026-04-11T11:46:18.995Z</time></trkpt><trkpt lat="44.77362591178781" lon="11.940149771526116"><ele>2.5</ele><time>2026-04-11T11:46:19.995Z</time></trkpt><trkpt lat="44.77366349786208" lon="11.939987184701712"><ele>3.0</ele><time>2026-04-11T11:46:20.995Z</time></trkpt><trkpt lat="44.77368703591343" lon="11.939839844614534"><ele>3.4</ele><time>2026-04-11T11:46:21.995Z</time></trkpt><trkpt lat="44.77371088586673" lon="11.939706406367558"><ele>3.8</ele><time>2026-04-11T11:46:22.995Z</time></trkpt><trkpt lat="44.77373570395764" lon="11.939581841607287"><ele>4.2</ele><time>2026-04-11T11:46:23.995Z</time></trkpt><trkpt lat="44.77375641035924" lon="11.939464260484073"><ele>4.6</ele><time>2026-04-11T11:46:24.995Z</time></trkpt><trkpt lat="44.77378082602431" lon="11.939347855402783"><ele>5.0</ele><time>2026-04-11T11:46:25.995Z</time></trkpt><trkpt lat="44.77380510916315" lon="11.939216978484136"><ele>5.0</ele><time>2026-04-11T11:46:26.995Z</time></trkpt><trkpt lat="44.77382621495898" lon="11.939089627437205"><ele>5.0</ele><time>2026-04-11T11:46:27.995Z</time></trkpt><trkpt lat="44.77384661992935" lon="11.938945685153383"><ele>5.0</ele><time>2026-04-11T11:46:28.995Z</time></trkpt><trkpt lat="44.77385826577946" lon="11.938792633857128"><ele>5.0</ele><time>2026-04-11T11:46:29.995Z</time></trkpt><trkpt lat="44.773927546718845" lon="11.938656565596327"><ele>5.0</ele><time>2026-04-11T11:46:30.995Z</time></trkpt><trkpt lat="44.77401287518511" lon="11.938546471234709"><ele>5.0</ele><time>2026-04-11T11:46:31.995Z</time></trkpt><trkpt lat="44.77411975971607" lon="11.938430983564091"><ele>5.0</ele><time>2026-04-11T11:46:32.995Z</time></trkpt><trkpt lat="44.774231846323836" lon="11.938334406536724"><ele>5.0</ele><time>2026-04-11T11:46:33.995Z</time></trkpt><trkpt lat="44.774358722538" lon="11.938218367334109"><ele>5.0</ele><time>2026-04-11T11:46:34.995Z</time></trkpt><trkpt lat="44.774493207615066" lon="11.938093015133889"><ele>4.25</ele><time>2026-04-11T11:46:35.995Z</time></trkpt><trkpt lat="44.77463362265286" lon="11.937964211357134"><ele>3.5</ele><time>2026-04-11T11:46:36.995Z</time></trkpt><trkpt lat="44.77476112444598" lon="11.937843735579609"><ele>2.75</ele><time>2026-04-11T11:46:37.995Z</time></trkpt><trkpt lat="44.77486192478444" lon="11.937752759932996"><ele>2.0</ele><time>2026-04-11T11:46:38.995Z</time></trkpt><trkpt lat="44.774935671030164" lon="11.937682654221737"><ele>2.0</ele><time>2026-04-11T11:46:39.995Z</time></trkpt><trkpt lat="44.77499528126411" lon="11.937627423780546"><ele>2.0</ele><time>2026-04-11T11:46:40.995Z</time></trkpt><trkpt lat="44.7750747084722" lon="11.93756312606302"><ele>2.0</ele><time>2026-04-11T11:46:42.995Z</time></trkpt><trkpt lat="44.775057421627416" lon="11.937367005038073"><ele>2.0</ele><time>2026-04-11T11:46:44.995Z</time></trkpt><trkpt lat="44.77500687498556" lon="11.937248452931964"><ele>2.0</ele><time>2026-04-11T11:46:45.995Z</time></trkpt><trkpt lat="44.77493057802681" lon="11.937113781155341"><ele>2.0</ele><time>2026-04-11T11:46:46.995Z</time></trkpt><trkpt lat="44.77484849350138" lon="11.93695656673963"><ele>2.0</ele><time>2026-04-11T11:46:47.995Z</time></trkpt><trkpt lat="44.77475778392242" lon="11.936787681228157"><ele>2.0</ele><time>2026-04-11T11:46:48.995Z</time></trkpt><trkpt lat="44.774661985057136" lon="11.936602027007808"><ele>2.0</ele><time>2026-04-11T11:46:49.995Z</time></trkpt><trkpt lat="44.774566615297665" lon="11.936399944449276"><ele>2.0</ele><time>2026-04-11T11:46:50.995Z</time></trkpt><trkpt lat="44.77447936403126" lon="11.936163871702009"><ele>2.0</ele><time>2026-04-11T11:46:51.995Z</time></trkpt><trkpt lat="44.774369605340944" lon="11.935954845100621"><ele>2.333333333333333</ele><time>2026-04-11T11:46:52.995Z</time></trkpt><trkpt lat="44.7742640057929" lon="11.935742201209054"><ele>2.6666666666666665</ele><time>2026-04-11T11:46:53.995Z</time></trkpt><trkpt lat="44.7741588908023" lon="11.935529702547637"><ele>3.0</ele><time>2026-04-11T11:46:54.995Z</time></trkpt><trkpt lat="44.77405136316993" lon="11.935314322102586"><ele>3.0</ele><time>2026-04-11T11:46:55.995Z</time></trkpt><trkpt lat="44.77393982414015" lon="11.93510853263977"><ele>3.0</ele><time>2026-04-11T11:46:56.995Z</time></trkpt><trkpt lat="44.773830767737955" lon="11.934907003974308"><ele>3.0</ele><time>2026-04-11T11:46:57.995Z</time></trkpt><trkpt lat="44.773721604264324" lon="11.934698492355876"><ele>2.6666666666666665</ele><time>2026-04-11T11:46:58.995Z</time></trkpt><trkpt lat="44.77361136272885" lon="11.934483567344946"><ele>2.333333333333333</ele><time>2026-04-11T11:46:59.995Z</time></trkpt><trkpt lat="44.77349984248339" lon="11.93426704280214"><ele>2.0</ele><time>2026-04-11T11:47:00.995Z</time></trkpt><trkpt lat="44.77339340332718" lon="11.934056216837025"><ele>2.0</ele><time>2026-04-11T11:47:01.995Z</time></trkpt><trkpt lat="44.77329970487795" lon="11.933855859508382"><ele>2.0</ele><time>2026-04-11T11:47:02.995Z</time></trkpt><trkpt lat="44.773225279473536" lon="11.933687057863093"><ele>2.0</ele><time>2026-04-11T11:47:03.995Z</time></trkpt><trkpt lat="44.773170135372446" lon="11.933538130712781"><ele>2.0</ele><time>2026-04-11T11:47:04.995Z</time></trkpt><trkpt lat="44.773144804957596" lon="11.933381501540824"><ele>2.0</ele><time>2026-04-11T11:47:05.995Z</time></trkpt><trkpt lat="44.7731566613848" lon="11.93323624857684"><ele>2.0</ele><time>2026-04-11T11:47:06.995Z</time></trkpt><trkpt lat="44.773206192656126" lon="11.93309565339786"><ele>2.0</ele><time>2026-04-11T11:47:07.995Z</time></trkpt><trkpt lat="44.77328931857758" lon="11.932970432722867"><ele>2.0</ele><time>2026-04-11T11:47:08.995Z</time></trkpt><trkpt lat="44.77340713874867" lon="11.932856704438356"><ele>2.0</ele><time>2026-04-11T11:47:09.995Z</time></trkpt><trkpt lat="44.773542318726" lon="11.932742383423252"><ele>2.0</ele><time>2026-04-11T11:47:10.995Z</time></trkpt><trkpt lat="44.77370195094179" lon="11.932615648222972"><ele>2.0</ele><time>2026-04-11T11:47:11.995Z</time></trkpt><trkpt lat="44.77387074614205" lon="11.932473677414961"><ele>2.0</ele><time>2026-04-11T11:47:12.995Z</time></trkpt><trkpt lat="44.774063532122746" lon="11.932327937558581"><ele>2.0</ele><time>2026-04-11T11:47:13.995Z</time></trkpt><trkpt lat="44.774245691069176" lon="11.932160292336013"><ele>2.0</ele><time>2026-04-11T11:47:14.995Z</time></trkpt><trkpt lat="44.77444334729803" lon="11.931992334210223"><ele>0.5</ele><time>2026-04-11T11:47:15.995Z</time></trkpt><trkpt lat="44.77464924369897" lon="11.931819339261622"><ele>-1.0</ele><time>2026-04-11T11:47:16.995Z</time></trkpt><trkpt lat="44.774858912800006" lon="11.93165281155259"><ele>-1.0</ele><time>2026-04-11T11:47:17.995Z</time></trkpt><trkpt lat="44.775076485516635" lon="11.931489159793092"><ele>-1.0</ele><time>2026-04-11T11:47:18.994Z</time></trkpt><trkpt lat="44.77528862793231" lon="11.931297563670668"><ele>-1.0</ele><time>2026-04-11T11:47:19.994Z</time></trkpt><trkpt lat="44.7755099416109" lon="11.931111797686071"><ele>-1.0</ele><time>2026-04-11T11:47:20.994Z</time></trkpt><trkpt lat="44.775735872120464" lon="11.930935597594802"><ele>-1.0</ele><time>2026-04-11T11:47:21.994Z</time></trkpt><trkpt lat="44.77596394825053" lon="11.930750835119614"><ele>-1.0</ele><time>2026-04-11T11:47:22.994Z</time></trkpt><trkpt lat="44.77619348548312" lon="11.93056982763916"><ele>0.5</ele><time>2026-04-11T11:47:23.994Z</time></trkpt><trkpt lat="44.77642284426086" lon="11.930386133413476"><ele>2.0</ele><time>2026-04-11T11:47:24.994Z</time></trkpt><trkpt lat="44.77665288607271" lon="11.930199807935292"><ele>0.0</ele><time>2026-04-11T11:47:25.994Z</time></trkpt><trkpt lat="44.77688464975213" lon="11.930007163176302"><ele>-2.0</ele><time>2026-04-11T11:47:26.994Z</time></trkpt><trkpt lat="44.77711871548665" lon="11.929804149907564"><ele>-2.0</ele><time>2026-04-11T11:47:27.994Z</time></trkpt><trkpt lat="44.77736243840391" lon="11.929598518242864"><ele>-2.0</ele><time>2026-04-11T11:47:28.994Z</time></trkpt><trkpt lat="44.77760885366036" lon="11.92939043654057"><ele>-2.0</ele><time>2026-04-11T11:47:29.994Z</time></trkpt><trkpt lat="44.77785435537672" lon="11.929174729740446"><ele>-2.0</ele><time>2026-04-11T11:47:30.994Z</time></trkpt><trkpt lat="44.77810147076522" lon="11.928971087024554"><ele>-2.0</ele><time>2026-04-11T11:47:31.994Z</time></trkpt><trkpt lat="44.778343422973364" lon="11.928775698049815"><ele>-2.0</ele><time>2026-04-11T11:47:32.994Z</time></trkpt><trkpt lat="44.7785794892091" lon="11.928581436055557"><ele>-1.5</ele><time>2026-04-11T11:47:33.994Z</time></trkpt><trkpt lat="44.77880740492479" lon="11.928393971229495"><ele>-1.0</ele><time>2026-04-11T11:47:34.994Z</time></trkpt><trkpt lat="44.7790250427021" lon="11.928219839735373"><ele>-1.0</ele><time>2026-04-11T11:47:35.994Z</time></trkpt><trkpt lat="44.77923634898585" lon="11.928045373297472"><ele>-1.0</ele><time>2026-04-11T11:47:36.994Z</time></trkpt><trkpt lat="44.77943640794252" lon="11.927884832974208"><ele>-1.0</ele><time>2026-04-11T11:47:37.994Z</time></trkpt><trkpt lat="44.77962524654024" lon="11.927717796239678"><ele>-1.0</ele><time>2026-04-11T11:47:38.994Z</time></trkpt><trkpt lat="44.77981739347627" lon="11.927557456853206"><ele>-1.0</ele><time>2026-04-11T11:47:39.994Z</time></trkpt><trkpt lat="44.7800076328387" lon="11.927416178583302"><ele>-1.0</ele><time>2026-04-11T11:47:40.994Z</time></trkpt><trkpt lat="44.78019234107383" lon="11.92725918179335"><ele>-1.0</ele><time>2026-04-11T11:47:41.994Z</time></trkpt><trkpt lat="44.78035963366892" lon="11.927128792883037"><ele>-1.0</ele><time>2026-04-11T11:47:42.994Z</time></trkpt><trkpt lat="44.780511998680836" lon="11.927004858875783"><ele>-1.0</ele><time>2026-04-11T11:47:43.994Z</time></trkpt><trkpt lat="44.78065999679625" lon="11.92688486426261"><ele>-1.0</ele><time>2026-04-11T11:47:44.994Z</time></trkpt><trkpt lat="44.780795085862806" lon="11.926758761193268"><ele>-1.0</ele><time>2026-04-11T11:47:45.994Z</time></trkpt><trkpt lat="44.780913242933394" lon="11.926633317738704"><ele>-1.0</ele><time>2026-04-11T11:47:46.994Z</time></trkpt><trkpt lat="44.78100084736998" lon="11.92648739817079"><ele>-1.0</ele><time>2026-04-11T11:47:47.994Z</time></trkpt><trkpt lat="44.78105551039481" lon="11.926307457345183"><ele>-1.0</ele><time>2026-04-11T11:47:48.994Z</time></trkpt><trkpt lat="44.781070461557064" lon="11.926089655852318"><ele>-1.0</ele><time>2026-04-11T11:47:49.994Z</time></trkpt><trkpt lat="44.78107829823198" lon="11.925817160519498"><ele>-1.3333333333333333</ele><time>2026-04-11T11:47:50.994Z</time></trkpt><trkpt lat="44.781062765000165" lon="11.925510680608085"><ele>-1.6666666666666665</ele><time>2026-04-11T11:47:51.994Z</time></trkpt><trkpt lat="44.78104756481974" lon="11.925216944240493"><ele>-2.0</ele><time>2026-04-11T11:47:52.994Z</time></trkpt><trkpt lat="44.78102762932064" lon="11.924937267602207"><ele>-1.6666666666666665</ele><time>2026-04-11T11:47:53.994Z</time></trkpt><trkpt lat="44.78100879712442" lon="11.924670228843205"><ele>-1.3333333333333333</ele><time>2026-04-11T11:47:54.994Z</time></trkpt><trkpt lat="44.78099546092941" lon="11.924419906889193"><ele>-1.0</ele><time>2026-04-11T11:47:55.994Z</time></trkpt><trkpt lat="44.78098144896615" lon="11.924190127686895"><ele>-1.0</ele><time>2026-04-11T11:47:56.994Z</time></trkpt><trkpt lat="44.78096306312887" lon="11.923975140892122"><ele>-1.0</ele><time>2026-04-11T11:47:57.994Z</time></trkpt><trkpt lat="44.78093777538988" lon="11.923779147663959"><ele>-1.0</ele><time>2026-04-11T11:47:58.994Z</time></trkpt><trkpt lat="44.7809006381284" lon="11.923586515046887"><ele>-1.0</ele><time>2026-04-11T11:47:59.994Z</time></trkpt><trkpt lat="44.7808529730526" lon="11.923391805647913"><ele>-0.75</ele><time>2026-04-11T11:48:00.994Z</time></trkpt><trkpt lat="44.78081695358247" lon="11.923186528629703"><ele>-0.5</ele><time>2026-04-11T11:48:01.994Z</time></trkpt><trkpt lat="44.78075654138469" lon="11.923011633370333"><ele>-0.25</ele><time>2026-04-11T11:48:02.994Z</time></trkpt><trkpt lat="44.78069141160851" lon="11.922838852400446"><ele>0.0</ele><time>2026-04-11T11:48:03.994Z</time></trkpt><trkpt lat="44.78063277487437" lon="11.92266657977278"><ele>0.0</ele><time>2026-04-11T11:48:04.994Z</time></trkpt><trkpt lat="44.78057426482131" lon="11.92248497191844"><ele>0.0</ele><time>2026-04-11T11:48:05.994Z</time></trkpt><trkpt lat="44.78051402366696" lon="11.92230581042411"><ele>0.0</ele><time>2026-04-11T11:48:06.994Z</time></trkpt><trkpt lat="44.780454369505044" lon="11.922117434754822"><ele>0.0</ele><time>2026-04-11T11:48:07.994Z</time></trkpt><trkpt lat="44.780390391542596" lon="11.921920286299686"><ele>0.3333333333333333</ele><time>2026-04-11T11:48:08.994Z</time></trkpt><trkpt lat="44.78032936496289" lon="11.921722003608629"><ele>0.6666666666666666</ele><time>2026-04-11T11:48:09.994Z</time></trkpt><trkpt lat="44.780273352805594" lon="11.921520493426224"><ele>1.0</ele><time>2026-04-11T11:48:10.994Z</time></trkpt><trkpt lat="44.780229875030926" lon="11.921307369448792"><ele>1.0</ele><time>2026-04-11T11:48:11.994Z</time></trkpt><trkpt lat="44.78020519667838" lon="11.921084268029658"><ele>1.0</ele><time>2026-04-11T11:48:12.994Z</time></trkpt><trkpt lat="44.78019573614825" lon="11.920858538381635"><ele>1.0</ele><time>2026-04-11T11:48:13.994Z</time></trkpt><trkpt lat="44.78019957675903" lon="11.9205996375689"><ele>0.6666666666666666</ele><time>2026-04-11T11:48:14.994Z</time></trkpt><trkpt lat="44.7802232203486" lon="11.920323347890504"><ele>0.3333333333333333</ele><time>2026-04-11T11:48:15.994Z</time></trkpt><trkpt lat="44.78027605732521" lon="11.920029600088647"><ele>0.0</ele><time>2026-04-11T11:48:16.994Z</time></trkpt><trkpt lat="44.78034910428299" lon="11.91972418834837"><ele>-0.5</ele><time>2026-04-11T11:48:17.994Z</time></trkpt><trkpt lat="44.78043039062021" lon="11.91941471242456"><ele>-1.0</ele><time>2026-04-11T11:48:18.994Z</time></trkpt><trkpt lat="44.78053040884847" lon="11.919082280447693"><ele>-1.5</ele><time>2026-04-11T11:48:19.994Z</time></trkpt><trkpt lat="44.78063151256357" lon="11.918744271017681"><ele>-2.0</ele><time>2026-04-11T11:48:20.994Z</time></trkpt><trkpt lat="44.780738390787896" lon="11.918407109761263"><ele>-1.0</ele><time>2026-04-11T11:48:21.994Z</time></trkpt><trkpt lat="44.78085477594588" lon="11.918078778170806"><ele>0.0</ele><time>2026-04-11T11:48:22.994Z</time></trkpt><trkpt lat="44.78098594064482" lon="11.917759362853676"><ele>-1.0</ele><time>2026-04-11T11:48:23.994Z</time></trkpt><trkpt lat="44.781128948544655" lon="11.917454430429228"><ele>-2.0</ele><time>2026-04-11T11:48:24.994Z</time></trkpt><trkpt lat="44.78127018505094" lon="11.917150370849473"><ele>-2.0</ele><time>2026-04-11T11:48:25.994Z</time></trkpt><trkpt lat="44.781408645049794" lon="11.916845806474996"><ele>-2.0</ele><time>2026-04-11T11:48:26.994Z</time></trkpt><trkpt lat="44.781546643247104" lon="11.916541431496983"><ele>-2.0</ele><time>2026-04-11T11:48:27.994Z</time></trkpt><trkpt lat="44.78168469390906" lon="11.91623225233343"><ele>-2.0</ele><time>2026-04-11T11:48:28.994Z</time></trkpt><trkpt lat="44.78181846842045" lon="11.915926612434198"><ele>-2.0</ele><time>2026-04-11T11:48:29.994Z</time></trkpt><trkpt lat="44.781955093402686" lon="11.915620909634168"><ele>-2.0</ele><time>2026-04-11T11:48:30.994Z</time></trkpt><trkpt lat="44.782099999059255" lon="11.915305961457301"><ele>-1.0</ele><time>2026-04-11T11:48:31.994Z</time></trkpt><trkpt lat="44.78226130090709" lon="11.914993219314665"><ele>0.0</ele><time>2026-04-11T11:48:32.994Z</time></trkpt><trkpt lat="44.78244098933669" lon="11.914694384818748"><ele>0.0</ele><time>2026-04-11T11:48:33.994Z</time></trkpt><trkpt lat="44.78263241447138" lon="11.914405198757533"><ele>0.0</ele><time>2026-04-11T11:48:34.994Z</time></trkpt><trkpt lat="44.782822358427474" lon="11.914125008800365"><ele>0.0</ele><time>2026-04-11T11:48:35.994Z</time></trkpt><trkpt lat="44.783015814352645" lon="11.91384554749808"><ele>0.0</ele><time>2026-04-11T11:48:36.994Z</time></trkpt><trkpt lat="44.78321477489217" lon="11.913553743167512"><ele>-0.5</ele><time>2026-04-11T11:48:37.994Z</time></trkpt><trkpt lat="44.78340816534455" lon="11.913264477851532"><ele>-1.0</ele><time>2026-04-11T11:48:38.994Z</time></trkpt><trkpt lat="44.783598736019165" lon="11.912973269466578"><ele>-1.0</ele><time>2026-04-11T11:48:39.993Z</time></trkpt><trkpt lat="44.78378622491831" lon="11.912684382840489"><ele>-1.0</ele><time>2026-04-11T11:48:40.993Z</time></trkpt><trkpt lat="44.78396496461979" lon="11.912387688061294"><ele>-1.0</ele><time>2026-04-11T11:48:41.993Z</time></trkpt><trkpt lat="44.78413548098584" lon="11.912074729248179"><ele>-1.0</ele><time>2026-04-11T11:48:42.993Z</time></trkpt><trkpt lat="44.78430231012446" lon="11.911768535721087"><ele>-2.0</ele><time>2026-04-11T11:48:43.993Z</time></trkpt><trkpt lat="44.78446540785527" lon="11.911460874182907"><ele>-3.0</ele><time>2026-04-11T11:48:44.993Z</time></trkpt><trkpt lat="44.784632051141315" lon="11.911153568146805"><ele>-3.0</ele><time>2026-04-11T11:48:45.993Z</time></trkpt><trkpt lat="44.78479958932194" lon="11.910827297528678"><ele>-3.0</ele><time>2026-04-11T11:48:46.993Z</time></trkpt><trkpt lat="44.78497731095811" lon="11.910496373272057"><ele>-3.0</ele><time>2026-04-11T11:48:47.993Z</time></trkpt><trkpt lat="44.78515330785105" lon="11.910166813137792"><ele>-3.0</ele><time>2026-04-11T11:48:48.993Z</time></trkpt><trkpt lat="44.78532883678253" lon="11.90983213690344"><ele>-2.5</ele><time>2026-04-11T11:48:49.993Z</time></trkpt><trkpt lat="44.78551079874909" lon="11.909483639560008"><ele>-2.0</ele><time>2026-04-11T11:48:50.993Z</time></trkpt><trkpt lat="44.78570147943247" lon="11.909136837428186"><ele>-1.5</ele><time>2026-04-11T11:48:51.993Z</time></trkpt><trkpt lat="44.78589450827353" lon="11.90878841409944"><ele>-1.0</ele><time>2026-04-11T11:48:52.993Z</time></trkpt><trkpt lat="44.786087110542745" lon="11.908434123330295"><ele>-1.0</ele><time>2026-04-11T11:48:53.993Z</time></trkpt><trkpt lat="44.78627989294974" lon="11.908077166021839"><ele>-1.0</ele><time>2026-04-11T11:48:54.993Z</time></trkpt><trkpt lat="44.78648029281048" lon="11.907722403046709"><ele>-1.0</ele><time>2026-04-11T11:48:55.993Z</time></trkpt><trkpt lat="44.78667540176435" lon="11.907362431864835"><ele>-1.0</ele><time>2026-04-11T11:48:56.993Z</time></trkpt><trkpt lat="44.78687276854466" lon="11.906995291323264"><ele>-0.5</ele><time>2026-04-11T11:48:57.993Z</time></trkpt><trkpt lat="44.787072196510415" lon="11.906635807313142"><ele>0.0</ele><time>2026-04-11T11:48:58.993Z</time></trkpt><trkpt lat="44.787269691126546" lon="11.90627862663813"><ele>0.0</ele><time>2026-04-11T11:48:59.993Z</time></trkpt><trkpt lat="44.787469276173375" lon="11.9059253575879"><ele>0.0</ele><time>2026-04-11T11:49:00.993Z</time></trkpt><trkpt lat="44.78766131178201" lon="11.905575206229383"><ele>0.0</ele><time>2026-04-11T11:49:01.993Z</time></trkpt><trkpt lat="44.787847680148346" lon="11.905240262484035"><ele>0.0</ele><time>2026-04-11T11:49:02.993Z</time></trkpt><trkpt lat="44.788019161128304" lon="11.90492588524822"><ele>0.0</ele><time>2026-04-11T11:49:03.993Z</time></trkpt><trkpt lat="44.78818024910482" lon="11.904630941658954"><ele>0.0</ele><time>2026-04-11T11:49:04.993Z</time></trkpt><trkpt lat="44.78833223417313" lon="11.904348991530586"><ele>0.0</ele><time>2026-04-11T11:49:05.993Z</time></trkpt><trkpt lat="44.78846785819939" lon="11.904086629838567"><ele>0.0</ele><time>2026-04-11T11:49:06.993Z</time></trkpt><trkpt lat="44.788589477772554" lon="11.903812313152558"><ele>0.0</ele><time>2026-04-11T11:49:07.993Z</time></trkpt><trkpt lat="44.788694736772186" lon="11.90352339605764"><ele>0.0</ele><time>2026-04-11T11:49:08.993Z</time></trkpt><trkpt lat="44.788803394208806" lon="11.903229430022945"><ele>0.0</ele><time>2026-04-11T11:49:09.993Z</time></trkpt><trkpt lat="44.78892545772877" lon="11.902925694804493"><ele>0.0</ele><time>2026-04-11T11:49:10.993Z</time></trkpt><trkpt lat="44.78906832848079" lon="11.90262506599084"><ele>-0.5</ele><time>2026-04-11T11:49:11.993Z</time></trkpt><trkpt lat="44.789223972913256" lon="11.902326152838487"><ele>-1.0</ele><time>2026-04-11T11:49:12.993Z</time></trkpt><trkpt lat="44.78938667759301" lon="11.902027390280761"><ele>-0.5</ele><time>2026-04-11T11:49:13.993Z</time></trkpt><trkpt lat="44.78954389144558" lon="11.901735425302755"><ele>0.0</ele><time>2026-04-11T11:49:14.993Z</time></trkpt><trkpt lat="44.78969315867684" lon="11.901457768439935"><ele>0.0</ele><time>2026-04-11T11:49:15.993Z</time></trkpt><trkpt lat="44.78983703149963" lon="11.901193377800984"><ele>0.0</ele><time>2026-04-11T11:49:16.993Z</time></trkpt><trkpt lat="44.78997720874781" lon="11.900941990138115"><ele>0.0</ele><time>2026-04-11T11:49:17.993Z</time></trkpt><trkpt lat="44.79011748137878" lon="11.900706383714498"><ele>0.0</ele><time>2026-04-11T11:49:18.993Z</time></trkpt><trkpt lat="44.7902757633926" lon="11.900484410308197"><ele>0.0</ele><time>2026-04-11T11:49:19.993Z</time></trkpt><trkpt lat="44.790460357335576" lon="11.900281766400385"><ele>0.0</ele><time>2026-04-11T11:49:20.993Z</time></trkpt><trkpt lat="44.790665449040944" lon="11.900091880546249"><ele>0.0</ele><time>2026-04-11T11:49:21.993Z</time></trkpt><trkpt lat="44.790884864233625" lon="11.89991645997776"><ele>-1.0</ele><time>2026-04-11T11:49:22.993Z</time></trkpt><trkpt lat="44.79110124520271" lon="11.899736299343115"><ele>-2.0</ele><time>2026-04-11T11:49:23.993Z</time></trkpt><trkpt lat="44.79131872352042" lon="11.899557576804433"><ele>-2.0</ele><time>2026-04-11T11:49:24.993Z</time></trkpt><trkpt lat="44.79153209386304" lon="11.899381219701992"><ele>-2.0</ele><time>2026-04-11T11:49:25.993Z</time></trkpt><trkpt lat="44.79173498188796" lon="11.899213660235496"><ele>-1.6666666666666665</ele><time>2026-04-11T11:49:26.993Z</time></trkpt><trkpt lat="44.79192870626186" lon="11.899052710064991"><ele>-1.3333333333333333</ele><time>2026-04-11T11:49:27.993Z</time></trkpt><trkpt lat="44.79210954812125" lon="11.898865241252238"><ele>-1.0</ele><time>2026-04-11T11:49:28.993Z</time></trkpt><trkpt lat="44.792285485776176" lon="11.898635320641448"><ele>0.0</ele><time>2026-04-11T11:49:29.993Z</time></trkpt><trkpt lat="44.792460173068484" lon="11.898372171936188"><ele>1.0</ele><time>2026-04-11T11:49:30.993Z</time></trkpt><trkpt lat="44.792635947293356" lon="11.898078180419834"><ele>0.5</ele><time>2026-04-11T11:49:31.993Z</time></trkpt><trkpt lat="44.79280492840165" lon="11.89776710728041"><ele>0.0</ele><time>2026-04-11T11:49:32.993Z</time></trkpt><trkpt lat="44.792957837431864" lon="11.897447316736834"><ele>0.0</ele><time>2026-04-11T11:49:33.993Z</time></trkpt><trkpt lat="44.793106706282835" lon="11.897133006845081"><ele>0.0</ele><time>2026-04-11T11:49:34.993Z</time></trkpt><trkpt lat="44.79325480921553" lon="11.896821852386207"><ele>0.0</ele><time>2026-04-11T11:49:35.993Z</time></trkpt><trkpt lat="44.79340190667596" lon="11.896517207526898"><ele>0.0</ele><time>2026-04-11T11:49:36.993Z</time></trkpt><trkpt lat="44.793547632089144" lon="11.896214982696039"><ele>-0.5</ele><time>2026-04-11T11:49:37.993Z</time></trkpt><trkpt lat="44.793683210368386" lon="11.895925388602963"><ele>-1.0</ele><time>2026-04-11T11:49:38.993Z</time></trkpt><trkpt lat="44.79382590332526" lon="11.895655188299731"><ele>-1.5</ele><time>2026-04-11T11:49:39.993Z</time></trkpt><trkpt lat="44.793958530268284" lon="11.895363188563806"><ele>-2.0</ele><time>2026-04-11T11:49:40.993Z</time></trkpt><trkpt lat="44.794092472688504" lon="11.895063128976899"><ele>-1.0</ele><time>2026-04-11T11:49:41.993Z</time></trkpt><trkpt lat="44.79422225434771" lon="11.894767658283113"><ele>0.0</ele><time>2026-04-11T11:49:42.993Z</time></trkpt><trkpt lat="44.794349276961384" lon="11.894478469057198"><ele>0.5</ele><time>2026-04-11T11:49:43.993Z</time></trkpt><trkpt lat="44.7944465409577" lon="11.89416547267279"><ele>1.0</ele><time>2026-04-11T11:49:44.993Z</time></trkpt><trkpt lat="44.794585201216286" lon="11.893893701567075"><ele>1.0</ele><time>2026-04-11T11:49:45.993Z</time></trkpt><trkpt lat="44.79471765673002" lon="11.893627167086235"><ele>1.0</ele><time>2026-04-11T11:49:46.993Z</time></trkpt><trkpt lat="44.79484265960645" lon="11.893355045477428"><ele>1.5</ele><time>2026-04-11T11:49:47.993Z</time></trkpt><trkpt lat="44.79498914825181" lon="11.893105175325948"><ele>2.0</ele><time>2026-04-11T11:49:48.993Z</time></trkpt><trkpt lat="44.79513750923962" lon="11.892848886737738"><ele>1.5</ele><time>2026-04-11T11:49:49.993Z</time></trkpt><trkpt lat="44.79528907900119" lon="11.892592387128737"><ele>1.0</ele><time>2026-04-11T11:49:50.993Z</time></trkpt><trkpt lat="44.79544324235443" lon="11.892333883709837"><ele>1.0</ele><time>2026-04-11T11:49:51.993Z</time></trkpt><trkpt lat="44.79559569021116" lon="11.892070710266612"><ele>1.0</ele><time>2026-04-11T11:49:52.993Z</time></trkpt><trkpt lat="44.79574566224856" lon="11.89180363790268"><ele>0.5</ele><time>2026-04-11T11:49:53.993Z</time></trkpt><trkpt lat="44.7958912694748" lon="11.891537155893305"><ele>0.0</ele><time>2026-04-11T11:49:54.993Z</time></trkpt><trkpt lat="44.79602678898899" lon="11.891279055181162"><ele>-0.3333333333333333</ele><time>2026-04-11T11:49:55.993Z</time></trkpt><trkpt lat="44.79617266471648" lon="11.891052048632051"><ele>-0.6666666666666666</ele><time>2026-04-11T11:49:56.993Z</time></trkpt><trkpt lat="44.79629006149783" lon="11.890827660942168"><ele>-1.0</ele><time>2026-04-11T11:49:57.993Z</time></trkpt><trkpt lat="44.79639561883616" lon="11.890625902701617"><ele>-0.3333333333333333</ele><time>2026-04-11T11:49:58.993Z</time></trkpt><trkpt lat="44.79650028608142" lon="11.890429032004336"><ele>0.3333333333333333</ele><time>2026-04-11T11:49:59.992Z</time></trkpt><trkpt lat="44.79659315913826" lon="11.890256817605449"><ele>1.0</ele><time>2026-04-11T11:50:00.992Z</time></trkpt><trkpt lat="44.796696882803616" lon="11.89009293527488"><ele>1.4</ele><time>2026-04-11T11:50:01.992Z</time></trkpt><trkpt lat="44.79679024741571" lon="11.88998851302994"><ele>1.8</ele><time>2026-04-11T11:50:02.992Z</time></trkpt><trkpt lat="44.79687956295089" lon="11.889891680223137"><ele>2.1999999999999997</ele><time>2026-04-11T11:50:03.992Z</time></trkpt><trkpt lat="44.79696583734889" lon="11.889798144532461"><ele>2.6</ele><time>2026-04-11T11:50:04.992Z</time></trkpt><trkpt lat="44.7970418264557" lon="11.88973458557646"><ele>3.0</ele><time>2026-04-11T11:50:05.992Z</time></trkpt><trkpt lat="44.79712050767973" lon="11.889712571572485"><ele>3.25</ele><time>2026-04-11T11:50:06.992Z</time></trkpt><trkpt lat="44.79717748330544" lon="11.889770399655625"><ele>3.5</ele><time>2026-04-11T11:50:07.992Z</time></trkpt><trkpt lat="44.79725849599272" lon="11.889838770733306"><ele>3.75</ele><time>2026-04-11T11:50:08.992Z</time></trkpt><trkpt lat="44.797388587078856" lon="11.88993974162832"><ele>4.0</ele><time>2026-04-11T11:50:09.992Z</time></trkpt><trkpt lat="44.797540545730335" lon="11.890056046364666"><ele>3.333333333333333</ele><time>2026-04-11T11:50:10.992Z</time></trkpt><trkpt lat="44.79768741827935" lon="11.890168458239922"><ele>2.6666666666666665</ele><time>2026-04-11T11:50:11.992Z</time></trkpt><trkpt lat="44.79784462152366" lon="11.890283321483698"><ele>2.0</ele><time>2026-04-11T11:50:12.992Z</time></trkpt><trkpt lat="44.79800217432626" lon="11.890390642933138"><ele>2.0</ele><time>2026-04-11T11:50:13.992Z</time></trkpt><trkpt lat="44.79816032740913" lon="11.89049131843924"><ele>2.0</ele><time>2026-04-11T11:50:14.992Z</time></trkpt><trkpt lat="44.79833021559623" lon="11.890589405974431"><ele>2.0</ele><time>2026-04-11T11:50:15.992Z</time></trkpt><trkpt lat="44.79851880235608" lon="11.890689373366124"><ele>2.0</ele><time>2026-04-11T11:50:16.992Z</time></trkpt><trkpt lat="44.79869831104628" lon="11.890781045901942"><ele>2.0</ele><time>2026-04-11T11:50:17.992Z</time></trkpt><trkpt lat="44.79886933962918" lon="11.890868711766037"><ele>2.0</ele><time>2026-04-11T11:50:18.992Z</time></trkpt><trkpt lat="44.7990363096504" lon="11.890965729816635"><ele>1.6666666666666665</ele><time>2026-04-11T11:50:19.992Z</time></trkpt><trkpt lat="44.799190314104536" lon="11.891086386520627"><ele>1.3333333333333333</ele><time>2026-04-11T11:50:20.992Z</time></trkpt><trkpt lat="44.79931192353332" lon="11.891264185098585"><ele>1.0</ele><time>2026-04-11T11:50:21.992Z</time></trkpt><trkpt lat="44.79944090017925" lon="11.891477586064536"><ele>1.0</ele><time>2026-04-11T11:50:22.992Z</time></trkpt><trkpt lat="44.79958539956173" lon="11.891720030312499"><ele>1.0</ele><time>2026-04-11T11:50:23.992Z</time></trkpt><trkpt lat="44.79973457205509" lon="11.891970315257602"><ele>1.0</ele><time>2026-04-11T11:50:24.992Z</time></trkpt><trkpt lat="44.799878847640244" lon="11.89221238541116"><ele>1.0</ele><time>2026-04-11T11:50:25.992Z</time></trkpt><trkpt lat="44.80001544742451" lon="11.892441574971684"><ele>1.0</ele><time>2026-04-11T11:50:26.992Z</time></trkpt><trkpt lat="44.80014254878797" lon="11.89265482834807"><ele>1.0</ele><time>2026-04-11T11:50:27.992Z</time></trkpt><trkpt lat="44.80026244523185" lon="11.892855993686805"><ele>1.0</ele><time>2026-04-11T11:50:28.992Z</time></trkpt><trkpt lat="44.80037948093807" lon="11.893052359009195"><ele>1.0</ele><time>2026-04-11T11:50:29.992Z</time></trkpt><trkpt lat="44.80049044063311" lon="11.893234155093316"><ele>1.0</ele><time>2026-04-11T11:50:30.992Z</time></trkpt><trkpt lat="44.80059291342082" lon="11.893400157713575"><ele>1.0</ele><time>2026-04-11T11:50:31.992Z</time></trkpt><trkpt lat="44.80067340974625" lon="11.893551513008136"><ele>1.0</ele><time>2026-04-11T11:50:32.992Z</time></trkpt><trkpt lat="44.80075352468632" lon="11.893693846014253"><ele>1.0</ele><time>2026-04-11T11:50:33.992Z</time></trkpt><trkpt lat="44.80082812649487" lon="11.893813165819974"><ele>0.8</ele><time>2026-04-11T11:50:34.992Z</time></trkpt><trkpt lat="44.80090328696114" lon="11.89389293200739"><ele>0.6000000000000001</ele><time>2026-04-11T11:50:35.992Z</time></trkpt><trkpt lat="44.80097987367797" lon="11.893914072718802"><ele>0.4</ele><time>2026-04-11T11:50:36.992Z</time></trkpt><trkpt lat="44.801068474430586" lon="11.893870292217747"><ele>0.2</ele><time>2026-04-11T11:50:37.992Z</time></trkpt><trkpt lat="44.80115643116587" lon="11.89375637670453"><ele>0.0</ele><time>2026-04-11T11:50:38.992Z</time></trkpt><trkpt lat="44.80126174708259" lon="11.893594648904493"><ele>0.0</ele><time>2026-04-11T11:50:39.992Z</time></trkpt><trkpt lat="44.80139316341147" lon="11.893395377411755"><ele>0.0</ele><time>2026-04-11T11:50:40.992Z</time></trkpt><trkpt lat="44.80154464917382" lon="11.893192061271531"><ele>0.0</ele><time>2026-04-11T11:50:41.992Z</time></trkpt><trkpt lat="44.8016911742133" lon="11.892976912906807"><ele>-0.3333333333333333</ele><time>2026-04-11T11:50:42.992Z</time></trkpt><trkpt lat="44.80184253414961" lon="11.892754065050077"><ele>-0.6666666666666666</ele><time>2026-04-11T11:50:43.992Z</time></trkpt><trkpt lat="44.80200393855488" lon="11.89253166336723"><ele>-1.0</ele><time>2026-04-11T11:50:44.992Z</time></trkpt><trkpt lat="44.8021700562714" lon="11.892297401464855"><ele>-1.0</ele><time>2026-04-11T11:50:45.992Z</time></trkpt><trkpt lat="44.80234065567539" lon="11.892078423350997"><ele>-1.0</ele><time>2026-04-11T11:50:46.992Z</time></trkpt><trkpt lat="44.80251346091824" lon="11.891866195616648"><ele>-0.6666666666666666</ele><time>2026-04-11T11:50:47.992Z</time></trkpt><trkpt lat="44.8026828153927" lon="11.891664402537161"><ele>-0.3333333333333333</ele><time>2026-04-11T11:50:48.992Z</time></trkpt><trkpt lat="44.80284798243572" lon="11.89146652516789"><ele>0.0</ele><time>2026-04-11T11:50:49.992Z</time></trkpt><trkpt lat="44.80300714128066" lon="11.89127134429745"><ele>0.0</ele><time>2026-04-11T11:50:50.992Z</time></trkpt><trkpt lat="44.803160160495615" lon="11.891068300274434"><ele>0.0</ele><time>2026-04-11T11:50:51.992Z</time></trkpt><trkpt lat="44.80331849929153" lon="11.89086230866208"><ele>0.0</ele><time>2026-04-11T11:50:52.992Z</time></trkpt><trkpt lat="44.803456969110464" lon="11.890642361140438"><ele>0.0</ele><time>2026-04-11T11:50:53.992Z</time></trkpt><trkpt lat="44.80358981779859" lon="11.890392947815192"><ele>0.0</ele><time>2026-04-11T11:50:54.992Z</time></trkpt><trkpt lat="44.803704096676064" lon="11.890132732638014"><ele>0.0</ele><time>2026-04-11T11:50:55.992Z</time></trkpt><trkpt lat="44.80381493960662" lon="11.8898591532722"><ele>0.5</ele><time>2026-04-11T11:50:56.992Z</time></trkpt><trkpt lat="44.80391181616403" lon="11.889575586759891"><ele>1.0</ele><time>2026-04-11T11:50:57.992Z</time></trkpt><trkpt lat="44.803996441167406" lon="11.889269135798715"><ele>1.5</ele><time>2026-04-11T11:50:58.992Z</time></trkpt><trkpt lat="44.80406972492635" lon="11.888947759758663"><ele>2.0</ele><time>2026-04-11T11:50:59.992Z</time></trkpt><trkpt lat="44.80413486857488" lon="11.888622208310283"><ele>2.5</ele><time>2026-04-11T11:51:00.992Z</time></trkpt><trkpt lat="44.80420588465537" lon="11.888298967242408"><ele>3.0</ele><time>2026-04-11T11:51:01.992Z</time></trkpt><trkpt lat="44.80427777463875" lon="11.887982522752521"><ele>1.0</ele><time>2026-04-11T11:51:02.992Z</time></trkpt><trkpt lat="44.80435746700362" lon="11.887672573674232"><ele>-1.0</ele><time>2026-04-11T11:51:03.992Z</time></trkpt><trkpt lat="44.804441095735946" lon="11.887363397053594"><ele>-1.0</ele><time>2026-04-11T11:51:04.992Z</time></trkpt><trkpt lat="44.804529575684036" lon="11.88705953249598"><ele>-1.0</ele><time>2026-04-11T11:51:05.992Z</time></trkpt><trkpt lat="44.80462033189794" lon="11.886780608777894"><ele>-1.0</ele><time>2026-04-11T11:51:06.992Z</time></trkpt><trkpt lat="44.80472095323439" lon="11.886525791572328"><ele>-1.0</ele><time>2026-04-11T11:51:07.992Z</time></trkpt><trkpt lat="44.80484381211165" lon="11.886297537119964"><ele>-1.0</ele><time>2026-04-11T11:51:08.992Z</time></trkpt><trkpt lat="44.80493549437654" lon="11.886059550118487"><ele>-0.3333333333333333</ele><time>2026-04-11T11:51:09.992Z</time></trkpt><trkpt lat="44.80504648246086" lon="11.885818632232132"><ele>0.3333333333333333</ele><time>2026-04-11T11:51:10.992Z</time></trkpt><trkpt lat="44.805154132402286" lon="11.885576554626557"><ele>1.0</ele><time>2026-04-11T11:51:11.992Z</time></trkpt><trkpt lat="44.80528874438216" lon="11.88536171721707"><ele>1.3333333333333333</ele><time>2026-04-11T11:51:12.992Z</time></trkpt><trkpt lat="44.80543959124232" lon="11.885152351735885"><ele>1.6666666666666665</ele><time>2026-04-11T11:51:13.992Z</time></trkpt><trkpt lat="44.80559554580904" lon="11.884938476182333"><ele>2.0</ele><time>2026-04-11T11:51:14.992Z</time></trkpt><trkpt lat="44.80575050948204" lon="11.88470230211655"><ele>1.0</ele><time>2026-04-11T11:51:15.992Z</time></trkpt><trkpt lat="44.8059044699102" lon="11.884452718945855"><ele>0.0</ele><time>2026-04-11T11:51:16.992Z</time></trkpt><trkpt lat="44.806048306711254" lon="11.88418007933007"><ele>0.0</ele><time>2026-04-11T11:51:17.992Z</time></trkpt><trkpt lat="44.80618175136105" lon="11.883898445803254"><ele>0.0</ele><time>2026-04-11T11:51:18.992Z</time></trkpt><trkpt lat="44.806303493793955" lon="11.883625204579737"><ele>0.0</ele><time>2026-04-11T11:51:19.992Z</time></trkpt><trkpt lat="44.806404105789696" lon="11.883340195099894"><ele>0.0</ele><time>2026-04-11T11:51:20.991Z</time></trkpt><trkpt lat="44.80647901286044" lon="11.8830339332066"><ele>0.0</ele><time>2026-04-11T11:51:21.991Z</time></trkpt><trkpt lat="44.80654348051327" lon="11.882701712428373"><ele>0.0</ele><time>2026-04-11T11:51:22.991Z</time></trkpt><trkpt lat="44.80661183634865" lon="11.882365865953043"><ele>0.5</ele><time>2026-04-11T11:51:23.991Z</time></trkpt><trkpt lat="44.806683980556514" lon="11.882026463554755"><ele>1.0</ele><time>2026-04-11T11:51:24.991Z</time></trkpt><trkpt lat="44.80674940701252" lon="11.881685992678356"><ele>1.0</ele><time>2026-04-11T11:51:25.991Z</time></trkpt><trkpt lat="44.80681722496686" lon="11.881356441334624"><ele>1.0</ele><time>2026-04-11T11:51:26.991Z</time></trkpt><trkpt lat="44.806885572192485" lon="11.881039644232308"><ele>1.3333333333333333</ele><time>2026-04-11T11:51:27.991Z</time></trkpt><trkpt lat="44.806953961736426" lon="11.880735437479615"><ele>1.6666666666666665</ele><time>2026-04-11T11:51:28.991Z</time></trkpt><trkpt lat="44.80702041464426" lon="11.880443649158268"><ele>2.0</ele><time>2026-04-11T11:51:29.991Z</time></trkpt><trkpt lat="44.807082257407245" lon="11.880162586796873"><ele>1.6666666666666665</ele><time>2026-04-11T11:51:30.991Z</time></trkpt><trkpt lat="44.80713417033426" lon="11.879903941769673"><ele>1.3333333333333333</ele><time>2026-04-11T11:51:31.991Z</time></trkpt><trkpt lat="44.80716930616928" lon="11.879656356802125"><ele>1.0</ele><time>2026-04-11T11:51:32.991Z</time></trkpt><trkpt lat="44.80719432543424" lon="11.8794041088721"><ele>0.6666666666666666</ele><time>2026-04-11T11:51:33.991Z</time></trkpt><trkpt lat="44.807203355926966" lon="11.879142094175805"><ele>0.3333333333333333</ele><time>2026-04-11T11:51:34.991Z</time></trkpt><trkpt lat="44.807204164381844" lon="11.878882583155555"><ele>0.0</ele><time>2026-04-11T11:51:35.991Z</time></trkpt><trkpt lat="44.80720636246896" lon="11.878627861993008"><ele>0.3333333333333333</ele><time>2026-04-11T11:51:36.991Z</time></trkpt><trkpt lat="44.80720628307281" lon="11.878380575937406"><ele>0.6666666666666666</ele><time>2026-04-11T11:51:37.991Z</time></trkpt><trkpt lat="44.80720479826658" lon="11.87814049453683"><ele>1.0</ele><time>2026-04-11T11:51:38.991Z</time></trkpt><trkpt lat="44.80720340187028" lon="11.87790457232203"><ele>1.0</ele><time>2026-04-11T11:51:39.991Z</time></trkpt><trkpt lat="44.807204845196125" lon="11.877668639460293"><ele>1.0</ele><time>2026-04-11T11:51:40.991Z</time></trkpt><trkpt lat="44.807205886968944" lon="11.87743297247452"><ele>1.0</ele><time>2026-04-11T11:51:41.991Z</time></trkpt><trkpt lat="44.80721063347932" lon="11.877198538532866"><ele>1.3333333333333333</ele><time>2026-04-11T11:51:42.991Z</time></trkpt><trkpt lat="44.807209525977726" lon="11.876967825234207"><ele>1.6666666666666665</ele><time>2026-04-11T11:51:43.991Z</time></trkpt><trkpt lat="44.80719858529236" lon="11.876744626272554"><ele>2.0</ele><time>2026-04-11T11:51:44.991Z</time></trkpt><trkpt lat="44.80717288210296" lon="11.876537948427154"><ele>2.0</ele><time>2026-04-11T11:51:45.991Z</time></trkpt><trkpt lat="44.8071465447015" lon="11.87633885913956"><ele>2.0</ele><time>2026-04-11T11:51:46.991Z</time></trkpt><trkpt lat="44.807103729282055" lon="11.876169033672596"><ele>2.0</ele><time>2026-04-11T11:51:47.991Z</time></trkpt><trkpt lat="44.807066476699255" lon="11.876027754077898"><ele>2.0</ele><time>2026-04-11T11:51:48.991Z</time></trkpt><trkpt lat="44.80703967450665" lon="11.875926107244311"><ele>2.0</ele><time>2026-04-11T11:51:49.991Z</time></trkpt><trkpt lat="44.80701486093704" lon="11.875807462341449"><ele>2.0</ele><time>2026-04-11T11:51:51.991Z</time></trkpt><trkpt lat="44.80704157172479" lon="11.87572591911418"><ele>2.0</ele><time>2026-04-11T11:51:54.991Z</time></trkpt><trkpt lat="44.80703119437269" lon="11.875636462790435"><ele>2.0</ele><time>2026-04-11T11:51:58.991Z</time></trkpt><trkpt lat="44.80719107047066" lon="11.875541721300285"><ele>2.0</ele><time>2026-04-11T11:51:59.991Z</time></trkpt><trkpt lat="44.80724882058386" lon="11.875505020267337"><ele>2.0</ele><time>2026-04-11T11:52:01.991Z</time></trkpt><trkpt lat="44.80731728466444" lon="11.875489103906276"><ele>2.0</ele><time>2026-04-11T11:52:04.991Z</time></trkpt><trkpt lat="44.807404354227344" lon="11.875561137482775"><ele>2.0</ele><time>2026-04-11T11:52:08.991Z</time></trkpt><trkpt lat="44.807377741045514" lon="11.875445067435415"><ele>2.0</ele><time>2026-04-11T11:52:09.991Z</time></trkpt><trkpt lat="44.80736710088986" lon="11.875285354482573"><ele>2.0</ele><time>2026-04-11T11:54:40.989Z</time></trkpt><trkpt lat="44.8074267979824" lon="11.875169191540358"><ele>2.333333333333333</ele><time>2026-04-11T11:54:42.989Z</time></trkpt><trkpt lat="44.80747585592645" lon="11.875059624082498"><ele>2.6666666666666665</ele><time>2026-04-11T11:54:44.989Z</time></trkpt><trkpt lat="44.80751096201134" lon="11.874984527597618"><ele>3.0</ele><time>2026-04-11T11:54:45.989Z</time></trkpt><trkpt lat="44.807542314065714" lon="11.874900368423207"><ele>3.333333333333333</ele><time>2026-04-11T11:54:46.989Z</time></trkpt><trkpt lat="44.80757766331926" lon="11.874814975506712"><ele>3.6666666666666665</ele><time>2026-04-11T11:54:47.989Z</time></trkpt><trkpt lat="44.80754286533568" lon="11.874630084929743"><ele>4.0</ele><time>2026-04-11T11:54:49.989Z</time></trkpt><trkpt lat="44.80746104451999" lon="11.874592847474549"><ele>4.0</ele><time>2026-04-11T11:54:50.989Z</time></trkpt><trkpt lat="44.80739517990207" lon="11.87458216263026"><ele>4.0</ele><time>2026-04-11T11:54:51.989Z</time></trkpt><trkpt lat="44.80726421817874" lon="11.874713703717632"><ele>4.0</ele><time>2026-04-11T11:54:53.989Z</time></trkpt><trkpt lat="44.80719642264497" lon="11.874831115409258"><ele>4.0</ele><time>2026-04-11T11:54:54.989Z</time></trkpt><trkpt lat="44.807143150506256" lon="11.874953109157149"><ele>4.0</ele><time>2026-04-11T11:54:55.989Z</time></trkpt><trkpt lat="44.80710698345436" lon="11.8750736064569"><ele>3.6</ele><time>2026-04-11T11:54:56.989Z</time></trkpt><trkpt lat="44.80707924923596" lon="11.87517482426351"><ele>3.2</ele><time>2026-04-11T11:54:57.989Z</time></trkpt><trkpt lat="44.807040370629004" lon="11.875253161838346"><ele>2.8000000000000003</ele><time>2026-04-11T11:54:58.989Z</time></trkpt><trkpt lat="44.8069540870975" lon="11.875332992311659"><ele>2.4000000000000004</ele><time>2026-04-11T11:55:00.989Z</time></trkpt><trkpt lat="44.806857993936504" lon="11.875307983052112"><ele>2.0</ele><time>2026-04-11T11:55:01.989Z</time></trkpt><trkpt lat="44.806763859985494" lon="11.875233616494183"><ele>2.0</ele><time>2026-04-11T11:55:02.989Z</time></trkpt><trkpt lat="44.80666746598406" lon="11.875124468022427"><ele>2.0</ele><time>2026-04-11T11:55:03.989Z</time></trkpt><trkpt lat="44.80655937068465" lon="11.875016527338996"><ele>2.0</ele><time>2026-04-11T11:55:04.989Z</time></trkpt><trkpt lat="44.80644169066892" lon="11.87490926568786"><ele>2.0</ele><time>2026-04-11T11:55:05.989Z</time></trkpt><trkpt lat="44.80632279244276" lon="11.87479426044992"><ele>2.25</ele><time>2026-04-11T11:55:06.989Z</time></trkpt><trkpt lat="44.8061999909705" lon="11.874678850004925"><ele>2.5</ele><time>2026-04-11T11:55:07.989Z</time></trkpt><trkpt lat="44.80607365119726" lon="11.874562370752123"><ele>2.75</ele><time>2026-04-11T11:55:08.989Z</time></trkpt><trkpt lat="44.80595055648719" lon="11.874455302522277"><ele>3.0</ele><time>2026-04-11T11:55:09.989Z</time></trkpt><trkpt lat="44.805826584678265" lon="11.874333293570313"><ele>3.0</ele><time>2026-04-11T11:55:10.989Z</time></trkpt><trkpt lat="44.805715329961124" lon="11.874195093494414"><ele>3.0</ele><time>2026-04-11T11:55:11.989Z</time></trkpt><trkpt lat="44.80562666839449" lon="11.874029471500606"><ele>3.0</ele><time>2026-04-11T11:55:12.989Z</time></trkpt><trkpt lat="44.80553994076434" lon="11.873858799862168"><ele>3.0</ele><time>2026-04-11T11:55:13.989Z</time></trkpt><trkpt lat="44.8054702050105" lon="11.873663052140026"><ele>3.0</ele><time>2026-04-11T11:55:14.989Z</time></trkpt><trkpt lat="44.805415167583995" lon="11.873452043037808"><ele>3.0</ele><time>2026-04-11T11:55:15.989Z</time></trkpt><trkpt lat="44.80537701907403" lon="11.873226554058105"><ele>3.0</ele><time>2026-04-11T11:55:16.989Z</time></trkpt><trkpt lat="44.80546043594685" lon="11.873052577132274"><ele>3.0</ele><time>2026-04-11T11:55:17.989Z</time></trkpt><trkpt lat="44.805583058706105" lon="11.87261057562546"><ele>3.0</ele><time>2026-04-11T11:55:18.989Z</time></trkpt><trkpt lat="44.805514305015706" lon="11.872403788360177"><ele>3.0</ele><time>2026-04-11T11:55:19.989Z</time></trkpt><trkpt lat="44.80550791580287" lon="11.872259577116342"><ele>3.0</ele><time>2026-04-11T11:55:20.989Z</time></trkpt><trkpt lat="44.805476854211335" lon="11.872036151710374"><ele>3.0</ele><time>2026-04-11T11:55:21.988Z</time></trkpt><trkpt lat="44.805453591149345" lon="11.871832883536925"><ele>3.0</ele><time>2026-04-11T11:55:22.988Z</time></trkpt><trkpt lat="44.80543854744962" lon="11.87163529975025"><ele>3.333333333333333</ele><time>2026-04-11T11:55:23.988Z</time></trkpt><trkpt lat="44.80544489323075" lon="11.871413375048498"><ele>3.6666666666666665</ele><time>2026-04-11T11:55:24.988Z</time></trkpt><trkpt lat="44.80547071023029" lon="11.871183408091959"><ele>4.0</ele><time>2026-04-11T11:55:25.988Z</time></trkpt><trkpt lat="44.80551558685397" lon="11.870932065903734"><ele>4.333333333333333</ele><time>2026-04-11T11:55:26.988Z</time></trkpt><trkpt lat="44.80556930325702" lon="11.87066182352333"><ele>4.666666666666667</ele><time>2026-04-11T11:55:27.988Z</time></trkpt><trkpt lat="44.805627191743305" lon="11.87037059162573"><ele>5.0</ele><time>2026-04-11T11:55:28.988Z</time></trkpt><trkpt lat="44.80568156799799" lon="11.870098828148725"><ele>5.666666666666667</ele><time>2026-04-11T11:55:29.988Z</time></trkpt><trkpt lat="44.805745771091836" lon="11.869850356323003"><ele>6.333333333333334</ele><time>2026-04-11T11:55:30.988Z</time></trkpt><trkpt lat="44.805796508463935" lon="11.86964333742214"><ele>7.0</ele><time>2026-04-11T11:55:31.988Z</time></trkpt><trkpt lat="44.80583147844031" lon="11.869455771082688"><ele>7.0</ele><time>2026-04-11T11:55:32.988Z</time></trkpt><trkpt lat="44.80585831749417" lon="11.86929948493597"><ele>6.999999999999999</ele><time>2026-04-11T11:55:33.988Z</time></trkpt><trkpt lat="44.805878212029825" lon="11.869164018686046"><ele>6.999999999999999</ele><time>2026-04-11T11:55:34.988Z</time></trkpt><trkpt lat="44.805878171508525" lon="11.869054158425742"><ele>7.0</ele><time>2026-04-11T11:55:35.988Z</time></trkpt><trkpt lat="44.80590597346669" lon="11.868928341127187"><ele>7.0</ele><time>2026-04-11T11:55:37.988Z</time></trkpt><trkpt lat="44.80567420958676" lon="11.868857345370087"><ele>7.0</ele><time>2026-04-11T11:55:39.988Z</time></trkpt><trkpt lat="44.805578950360854" lon="11.868880349846572"><ele>7.0</ele><time>2026-04-11T11:55:40.988Z</time></trkpt><trkpt lat="44.80543851402017" lon="11.868910869305004"><ele>7.0</ele><time>2026-04-11T11:55:41.988Z</time></trkpt><trkpt lat="44.80526867329178" lon="11.868919573281072"><ele>7.0</ele><time>2026-04-11T11:55:42.988Z</time></trkpt><trkpt lat="44.80508208417927" lon="11.868892788445043"><ele>6.0</ele><time>2026-04-11T11:55:43.988Z</time></trkpt><trkpt lat="44.80488348519426" lon="11.868835265559936"><ele>5.0</ele><time>2026-04-11T11:55:44.988Z</time></trkpt><trkpt lat="44.80467993661613" lon="11.868784866346378"><ele>4.0</ele><time>2026-04-11T11:55:45.988Z</time></trkpt><trkpt lat="44.80446828640977" lon="11.868736285790414"><ele>3.0</ele><time>2026-04-11T11:55:46.988Z</time></trkpt><trkpt lat="44.80424068949389" lon="11.86869833131679"><ele>2.0</ele><time>2026-04-11T11:55:47.988Z</time></trkpt><trkpt lat="44.80401050802973" lon="11.868677459860653"><ele>2.0</ele><time>2026-04-11T11:55:48.988Z</time></trkpt><trkpt lat="44.80376858088931" lon="11.868640835129554"><ele>2.0</ele><time>2026-04-11T11:55:49.988Z</time></trkpt><trkpt lat="44.80352163305461" lon="11.868643876646008"><ele>2.0</ele><time>2026-04-11T11:55:50.988Z</time></trkpt><trkpt lat="44.80327901896206" lon="11.86862079765965"><ele>2.0</ele><time>2026-04-11T11:55:51.988Z</time></trkpt><trkpt lat="44.8030383149756" lon="11.868598667728591"><ele>2.0</ele><time>2026-04-11T11:55:52.988Z</time></trkpt><trkpt lat="44.80280810636273" lon="11.868580401568089"><ele>2.0</ele><time>2026-04-11T11:55:53.988Z</time></trkpt><trkpt lat="44.80258148038581" lon="11.868573793584748"><ele>2.333333333333333</ele><time>2026-04-11T11:55:54.988Z</time></trkpt><trkpt lat="44.80235742531298" lon="11.868594762008458"><ele>2.6666666666666665</ele><time>2026-04-11T11:55:55.988Z</time></trkpt><trkpt lat="44.80214042245115" lon="11.868661406756408"><ele>3.0</ele><time>2026-04-11T11:55:56.988Z</time></trkpt><trkpt lat="44.8019400541855" lon="11.868745343402656"><ele>2.3333333333333335</ele><time>2026-04-11T11:55:57.988Z</time></trkpt><trkpt lat="44.80175121843127" lon="11.868885212218537"><ele>1.6666666666666665</ele><time>2026-04-11T11:55:58.988Z</time></trkpt><trkpt lat="44.80157220481207" lon="11.869058911883094"><ele>1.0</ele><time>2026-04-11T11:55:59.988Z</time></trkpt><trkpt lat="44.8014005848055" lon="11.869243101501922"><ele>1.0</ele><time>2026-04-11T11:56:00.988Z</time></trkpt><trkpt lat="44.80123171267668" lon="11.869428672913413"><ele>1.0</ele><time>2026-04-11T11:56:01.988Z</time></trkpt><trkpt lat="44.801066019611426" lon="11.869607726402311"><ele>1.0</ele><time>2026-04-11T11:56:02.988Z</time></trkpt><trkpt lat="44.800898685673346" lon="11.8697668690955"><ele>1.0</ele><time>2026-04-11T11:56:03.988Z</time></trkpt><trkpt lat="44.800718632231344" lon="11.86989653004815"><ele>1.0</ele><time>2026-04-11T11:56:04.988Z</time></trkpt><trkpt lat="44.80053122137371" lon="11.86999525046014"><ele>1.0</ele><time>2026-04-11T11:56:05.988Z</time></trkpt><trkpt lat="44.800327936537975" lon="11.870057376629036"><ele>1.6666666666666665</ele><time>2026-04-11T11:56:06.988Z</time></trkpt><trkpt lat="44.80010675378493" lon="11.870073117990556"><ele>2.3333333333333335</ele><time>2026-04-11T11:56:07.988Z</time></trkpt><trkpt lat="44.79988450722362" lon="11.87004321162294"><ele>3.0</ele><time>2026-04-11T11:56:08.988Z</time></trkpt><trkpt lat="44.799647358996" lon="11.86999606495174"><ele>3.0</ele><time>2026-04-11T11:56:09.988Z</time></trkpt><trkpt lat="44.799410284363084" lon="11.869949182786135"><ele>3.0</ele><time>2026-04-11T11:56:10.988Z</time></trkpt><trkpt lat="44.79916313406363" lon="11.86990540687574"><ele>4.0</ele><time>2026-04-11T11:56:11.988Z</time></trkpt><trkpt lat="44.79890858167316" lon="11.869860319889868"><ele>5.0</ele><time>2026-04-11T11:56:12.988Z</time></trkpt><trkpt lat="44.79864712880624" lon="11.869856055024053"><ele>4.5</ele><time>2026-04-11T11:56:13.988Z</time></trkpt><trkpt lat="44.7983854626736" lon="11.869812582594133"><ele>4.0</ele><time>2026-04-11T11:56:14.988Z</time></trkpt><trkpt lat="44.79812185952587" lon="11.869768162014276"><ele>4.0</ele><time>2026-04-11T11:56:15.988Z</time></trkpt><trkpt lat="44.797855865519075" lon="11.86973000963509"><ele>4.0</ele><time>2026-04-11T11:56:16.988Z</time></trkpt><trkpt lat="44.79759140051341" lon="11.869687935917987"><ele>4.0</ele><time>2026-04-11T11:56:17.988Z</time></trkpt><trkpt lat="44.79732642398614" lon="11.869644990784337"><ele>4.0</ele><time>2026-04-11T11:56:18.988Z</time></trkpt><trkpt lat="44.79706988464603" lon="11.869596231956574"><ele>3.0</ele><time>2026-04-11T11:56:19.988Z</time></trkpt><trkpt lat="44.79681859478567" lon="11.869528593490227"><ele>2.0</ele><time>2026-04-11T11:56:20.988Z</time></trkpt><trkpt lat="44.79656945263175" lon="11.86943957510955"><ele>2.0</ele><time>2026-04-11T11:56:21.988Z</time></trkpt><trkpt lat="44.79634148664449" lon="11.869293949313759"><ele>2.0</ele><time>2026-04-11T11:56:22.988Z</time></trkpt><trkpt lat="44.79609246330805" lon="11.869206099472544"><ele>2.0</ele><time>2026-04-11T11:56:23.988Z</time></trkpt><trkpt lat="44.79582621935821" lon="11.869113710348596"><ele>2.0</ele><time>2026-04-11T11:56:24.988Z</time></trkpt><trkpt lat="44.795569434493395" lon="11.8690349757187"><ele>2.0</ele><time>2026-04-11T11:56:25.988Z</time></trkpt><trkpt lat="44.79530920654551" lon="11.868956763394095"><ele>2.0</ele><time>2026-04-11T11:56:26.988Z</time></trkpt><trkpt lat="44.79505010406782" lon="11.868892859648563"><ele>1.5</ele><time>2026-04-11T11:56:27.988Z</time></trkpt><trkpt lat="44.7947839598709" lon="11.868848432208338"><ele>1.0</ele><time>2026-04-11T11:56:28.988Z</time></trkpt><trkpt lat="44.79451765682463" lon="11.868826106005011"><ele>1.5</ele><time>2026-04-11T11:56:29.988Z</time></trkpt><trkpt lat="44.79424789782859" lon="11.868814636032898"><ele>2.0</ele><time>2026-04-11T11:56:30.988Z</time></trkpt><trkpt lat="44.79398608256323" lon="11.868803775403341"><ele>2.0</ele><time>2026-04-11T11:56:31.988Z</time></trkpt><trkpt lat="44.793722972500525" lon="11.868793217658563"><ele>2.0</ele><time>2026-04-11T11:56:32.988Z</time></trkpt><trkpt lat="44.793468717473026" lon="11.868784716617741"><ele>1.5</ele><time>2026-04-11T11:56:33.988Z</time></trkpt><trkpt lat="44.79321849732037" lon="11.868784119954661"><ele>1.0</ele><time>2026-04-11T11:56:34.988Z</time></trkpt><trkpt lat="44.79297448901358" lon="11.868790637112346"><ele>1.0</ele><time>2026-04-11T11:56:35.988Z</time></trkpt><trkpt lat="44.7927442400923" lon="11.868803701075272"><ele>1.0</ele><time>2026-04-11T11:56:36.988Z</time></trkpt><trkpt lat="44.7925182349073" lon="11.868826516238132"><ele>1.0</ele><time>2026-04-11T11:56:37.988Z</time></trkpt><trkpt lat="44.792284543819946" lon="11.868877511796713"><ele>1.0</ele><time>2026-04-11T11:56:38.988Z</time></trkpt><trkpt lat="44.79204370703995" lon="11.868948870688365"><ele>1.5</ele><time>2026-04-11T11:56:39.988Z</time></trkpt><trkpt lat="44.79180262498362" lon="11.869046683060176"><ele>2.0</ele><time>2026-04-11T11:56:40.988Z</time></trkpt><trkpt lat="44.791549795636925" lon="11.869102902203693"><ele>2.0</ele><time>2026-04-11T11:56:41.988Z</time></trkpt><trkpt lat="44.79129450993907" lon="11.869194312930356"><ele>2.0</ele><time>2026-04-11T11:56:42.987Z</time></trkpt><trkpt lat="44.79104430523997" lon="11.869275843168245"><ele>2.0</ele><time>2026-04-11T11:56:43.987Z</time></trkpt><trkpt lat="44.790791928816304" lon="11.869356398444207"><ele>2.0</ele><time>2026-04-11T11:56:44.987Z</time></trkpt><trkpt lat="44.79054367715793" lon="11.869433686317077"><ele>2.0</ele><time>2026-04-11T11:56:45.987Z</time></trkpt><trkpt lat="44.79030742583161" lon="11.86949876853734"><ele>2.0</ele><time>2026-04-11T11:56:46.987Z</time></trkpt><trkpt lat="44.79009095331916" lon="11.869544773282149"><ele>2.0</ele><time>2026-04-11T11:56:47.987Z</time></trkpt><trkpt lat="44.78988273961383" lon="11.869576016876822"><ele>2.0</ele><time>2026-04-11T11:56:48.987Z</time></trkpt><trkpt lat="44.7896723814559" lon="11.869528876644662"><ele>2.0</ele><time>2026-04-11T11:56:49.987Z</time></trkpt><trkpt lat="44.78946140165463" lon="11.869468298620218"><ele>2.333333333333333</ele><time>2026-04-11T11:56:50.987Z</time></trkpt><trkpt lat="44.78925410084724" lon="11.869401850680784"><ele>2.6666666666666665</ele><time>2026-04-11T11:56:51.987Z</time></trkpt><trkpt lat="44.78905529836885" lon="11.869345336517469"><ele>3.0</ele><time>2026-04-11T11:56:52.987Z</time></trkpt><trkpt lat="44.788865776448645" lon="11.869315601465681"><ele>3.0</ele><time>2026-04-11T11:56:53.987Z</time></trkpt><trkpt lat="44.788697208029504" lon="11.869335815085982"><ele>3.0</ele><time>2026-04-11T11:56:54.987Z</time></trkpt><trkpt lat="44.788536188687935" lon="11.869371704727829"><ele>3.0</ele><time>2026-04-11T11:56:55.987Z</time></trkpt><trkpt lat="44.788372380174906" lon="11.869462078519955"><ele>3.333333333333333</ele><time>2026-04-11T11:56:56.987Z</time></trkpt><trkpt lat="44.78820833991437" lon="11.86955987473994"><ele>3.6666666666666665</ele><time>2026-04-11T11:56:57.987Z</time></trkpt><trkpt lat="44.78803355261173" lon="11.869636836072553"><ele>4.0</ele><time>2026-04-11T11:56:58.987Z</time></trkpt><trkpt lat="44.787845481845025" lon="11.869669212085311"><ele>3.333333333333333</ele><time>2026-04-11T11:56:59.987Z</time></trkpt><trkpt lat="44.78765242607751" lon="11.869650843861553"><ele>2.6666666666666665</ele><time>2026-04-11T11:57:00.987Z</time></trkpt><trkpt lat="44.78745620915523" lon="11.86955888446373"><ele>2.0</ele><time>2026-04-11T11:57:01.987Z</time></trkpt><trkpt lat="44.78726455000044" lon="11.869445338569212"><ele>2.0</ele><time>2026-04-11T11:57:02.987Z</time></trkpt><trkpt lat="44.78705386038789" lon="11.86930750501921"><ele>2.0</ele><time>2026-04-11T11:57:03.987Z</time></trkpt><trkpt lat="44.78684245111414" lon="11.869169200645386"><ele>2.0</ele><time>2026-04-11T11:57:04.987Z</time></trkpt><trkpt lat="44.78662474744815" lon="11.869022905354647"><ele>2.0</ele><time>2026-04-11T11:57:05.987Z</time></trkpt><trkpt lat="44.786404077492364" lon="11.868872814036408"><ele>2.0</ele><time>2026-04-11T11:57:06.987Z</time></trkpt><trkpt lat="44.78619155832742" lon="11.868729934549865"><ele>2.0</ele><time>2026-04-11T11:57:07.987Z</time></trkpt><trkpt lat="44.78597928996849" lon="11.868588687183056"><ele>2.0</ele><time>2026-04-11T11:57:08.987Z</time></trkpt><trkpt lat="44.78577096461904" lon="11.868452814786568"><ele>2.0</ele><time>2026-04-11T11:57:09.987Z</time></trkpt><trkpt lat="44.78556392826434" lon="11.868320414252262"><ele>2.0</ele><time>2026-04-11T11:57:10.987Z</time></trkpt><trkpt lat="44.78535764369772" lon="11.868188517771362"><ele>2.0</ele><time>2026-04-11T11:57:11.987Z</time></trkpt><trkpt lat="44.7851448249441" lon="11.868058901454678"><ele>2.0</ele><time>2026-04-11T11:57:12.987Z</time></trkpt><trkpt lat="44.7848909739883" lon="11.868067230916203"><ele>2.0</ele><time>2026-04-11T11:57:13.987Z</time></trkpt><trkpt lat="44.78466921885486" lon="11.867987118655483"><ele>2.0</ele><time>2026-04-11T11:57:14.987Z</time></trkpt><trkpt lat="44.78444972490124" lon="11.86792706467384"><ele>2.0</ele><time>2026-04-11T11:57:15.987Z</time></trkpt><trkpt lat="44.78424988110845" lon="11.867880015618649"><ele>2.0</ele><time>2026-04-11T11:57:16.987Z</time></trkpt><trkpt lat="44.78405720078722" lon="11.867857082531355"><ele>2.333333333333333</ele><time>2026-04-11T11:57:17.987Z</time></trkpt><trkpt lat="44.783877501314045" lon="11.867873692071633"><ele>2.6666666666666665</ele><time>2026-04-11T11:57:18.987Z</time></trkpt><trkpt lat="44.783693261920675" lon="11.867923419773033"><ele>3.0</ele><time>2026-04-11T11:57:19.987Z</time></trkpt><trkpt lat="44.78348707701662" lon="11.868000744983439"><ele>3.0</ele><time>2026-04-11T11:57:20.987Z</time></trkpt><trkpt lat="44.78326996004664" lon="11.86805028641438"><ele>3.0</ele><time>2026-04-11T11:57:21.987Z</time></trkpt><trkpt lat="44.78304266107021" lon="11.868081984383378"><ele>3.0</ele><time>2026-04-11T11:57:22.987Z</time></trkpt><trkpt lat="44.78281638421776" lon="11.86810856505702"><ele>2.6666666666666665</ele><time>2026-04-11T11:57:23.987Z</time></trkpt><trkpt lat="44.782589802257576" lon="11.868130718710061"><ele>2.333333333333333</ele><time>2026-04-11T11:57:24.987Z</time></trkpt><trkpt lat="44.78237914055118" lon="11.868155918748338"><ele>2.0</ele><time>2026-04-11T11:57:25.987Z</time></trkpt><trkpt lat="44.78218009805828" lon="11.868205357270243"><ele>2.0</ele><time>2026-04-11T11:57:26.987Z</time></trkpt><trkpt lat="44.78199343887657" lon="11.868279090721243"><ele>2.0</ele><time>2026-04-11T11:57:27.987Z</time></trkpt><trkpt lat="44.78181015422619" lon="11.868399008675635"><ele>2.0</ele><time>2026-04-11T11:57:28.987Z</time></trkpt><trkpt lat="44.7816139079138" lon="11.86853451945676"><ele>2.0</ele><time>2026-04-11T11:57:29.987Z</time></trkpt><trkpt lat="44.78141372845345" lon="11.868656459661274"><ele>2.0</ele><time>2026-04-11T11:57:30.987Z</time></trkpt><trkpt lat="44.78119970537293" lon="11.868745197572268"><ele>2.0</ele><time>2026-04-11T11:57:31.987Z</time></trkpt><trkpt lat="44.78097817379816" lon="11.868793900494438"><ele>1.5</ele><time>2026-04-11T11:57:32.987Z</time></trkpt><trkpt lat="44.78075242143665" lon="11.868795584784369"><ele>1.0</ele><time>2026-04-11T11:57:33.987Z</time></trkpt><trkpt lat="44.78052637347782" lon="11.868766844745034"><ele>1.0</ele><time>2026-04-11T11:57:34.987Z</time></trkpt><trkpt lat="44.78029900236411" lon="11.868718692070571"><ele>1.0</ele><time>2026-04-11T11:57:35.987Z</time></trkpt><trkpt lat="44.780070353538356" lon="11.868657778242849"><ele>1.5</ele><time>2026-04-11T11:57:36.987Z</time></trkpt><trkpt lat="44.77984953021491" lon="11.8685906207276"><ele>2.0</ele><time>2026-04-11T11:57:37.987Z</time></trkpt><trkpt lat="44.779626366004685" lon="11.86851572896835"><ele>2.0</ele><time>2026-04-11T11:57:38.987Z</time></trkpt><trkpt lat="44.77940666364693" lon="11.868436445765758"><ele>2.0</ele><time>2026-04-11T11:57:39.987Z</time></trkpt><trkpt lat="44.77919141578334" lon="11.868358410268808"><ele>2.0</ele><time>2026-04-11T11:57:40.987Z</time></trkpt><trkpt lat="44.77898572590942" lon="11.868288274539319"><ele>2.0</ele><time>2026-04-11T11:57:41.987Z</time></trkpt><trkpt lat="44.77879238323391" lon="11.868229790716098"><ele>2.0</ele><time>2026-04-11T11:57:42.987Z</time></trkpt><trkpt lat="44.77861397636621" lon="11.868184582448672"><ele>2.0</ele><time>2026-04-11T11:57:43.987Z</time></trkpt><trkpt lat="44.77843415218305" lon="11.868165975726637"><ele>2.333333333333333</ele><time>2026-04-11T11:57:44.987Z</time></trkpt><trkpt lat="44.77825147244332" lon="11.86817688283272"><ele>2.6666666666666665</ele><time>2026-04-11T11:57:45.987Z</time></trkpt><trkpt lat="44.77806140487563" lon="11.86821748153555"><ele>3.0</ele><time>2026-04-11T11:57:46.987Z</time></trkpt><trkpt lat="44.777871439806" lon="11.868277145130987"><ele>3.0</ele><time>2026-04-11T11:57:47.987Z</time></trkpt><trkpt lat="44.77769440222598" lon="11.868362525594447"><ele>3.0</ele><time>2026-04-11T11:57:48.987Z</time></trkpt><trkpt lat="44.7775350406029" lon="11.868455163113115"><ele>3.0</ele><time>2026-04-11T11:57:49.987Z</time></trkpt><trkpt lat="44.77738920125651" lon="11.868572076391201"><ele>2.6666666666666665</ele><time>2026-04-11T11:57:50.987Z</time></trkpt><trkpt lat="44.77724768444614" lon="11.8687216476027"><ele>2.333333333333333</ele><time>2026-04-11T11:57:51.987Z</time></trkpt><trkpt lat="44.77711112494326" lon="11.868908970607436"><ele>2.0</ele><time>2026-04-11T11:57:52.987Z</time></trkpt><trkpt lat="44.77698609089041" lon="11.869104615212867"><ele>2.333333333333333</ele><time>2026-04-11T11:57:53.987Z</time></trkpt><trkpt lat="44.776869174490855" lon="11.869303919778343"><ele>2.6666666666666665</ele><time>2026-04-11T11:57:54.987Z</time></trkpt><trkpt lat="44.77676414656746" lon="11.869485278578532"><ele>3.0</ele><time>2026-04-11T11:57:55.987Z</time></trkpt><trkpt lat="44.7766537291707" lon="11.86966621282247"><ele>3.0</ele><time>2026-04-11T11:57:56.987Z</time></trkpt><trkpt lat="44.77654731467372" lon="11.869843721441274"><ele>3.0</ele><time>2026-04-11T11:57:57.987Z</time></trkpt><trkpt lat="44.776450309188334" lon="11.870001188314548"><ele>3.0</ele><time>2026-04-11T11:57:58.987Z</time></trkpt><trkpt lat="44.77635851677772" lon="11.870154434914449"><ele>3.0</ele><time>2026-04-11T11:57:59.987Z</time></trkpt><trkpt lat="44.77627616896008" lon="11.870296015867698"><ele>3.0</ele><time>2026-04-11T11:58:00.987Z</time></trkpt><trkpt lat="44.776195585791" lon="11.870438262858496"><ele>3.0</ele><time>2026-04-11T11:58:01.987Z</time></trkpt><trkpt lat="44.7761090212399" lon="11.870593048704148"><ele>3.0</ele><time>2026-04-11T11:58:02.986Z</time></trkpt><trkpt lat="44.77601488695361" lon="11.87076219628366"><ele>2.3333333333333335</ele><time>2026-04-11T11:58:03.986Z</time></trkpt><trkpt lat="44.77591057767385" lon="11.87094480527073"><ele>1.6666666666666665</ele><time>2026-04-11T11:58:04.986Z</time></trkpt><trkpt lat="44.775804388650414" lon="11.871139365259445"><ele>1.0</ele><time>2026-04-11T11:58:05.986Z</time></trkpt><trkpt lat="44.775699560143416" lon="11.87133677190029"><ele>1.0</ele><time>2026-04-11T11:58:06.986Z</time></trkpt><trkpt lat="44.77560103615145" lon="11.871508019711824"><ele>1.0</ele><time>2026-04-11T11:58:07.986Z</time></trkpt><trkpt lat="44.77550532884349" lon="11.871665181222202"><ele>1.0</ele><time>2026-04-11T11:58:08.986Z</time></trkpt><trkpt lat="44.77540373275379" lon="11.87181241284285"><ele>1.0</ele><time>2026-04-11T11:58:09.986Z</time></trkpt><trkpt lat="44.77529025393085" lon="11.871941808281495"><ele>1.25</ele><time>2026-04-11T11:58:10.986Z</time></trkpt><trkpt lat="44.77515490152834" lon="11.872033523952235"><ele>1.5</ele><time>2026-04-11T11:58:11.986Z</time></trkpt><trkpt lat="44.77501034437249" lon="11.872093260311619"><ele>1.75</ele><time>2026-04-11T11:58:12.986Z</time></trkpt><trkpt lat="44.77486354341234" lon="11.87211289378612"><ele>2.0</ele><time>2026-04-11T11:58:13.986Z</time></trkpt><trkpt lat="44.774748096823735" lon="11.872121082996525"><ele>1.9999999999999998</ele><time>2026-04-11T11:58:14.986Z</time></trkpt><trkpt lat="44.77465341392353" lon="11.872119718150318"><ele>2.0</ele><time>2026-04-11T11:58:15.986Z</time></trkpt><trkpt lat="44.77458637364639" lon="11.872122808062088"><ele>2.0</ele><time>2026-04-11T11:58:16.986Z</time></trkpt><trkpt lat="44.774517538458554" lon="11.872131715630385"><ele>2.0</ele><time>2026-04-11T11:58:18.986Z</time></trkpt><trkpt lat="44.77443022865932" lon="11.87216722643964"><ele>1.9999999999999998</ele><time>2026-04-11T11:58:34.986Z</time></trkpt><trkpt lat="44.7743679308374" lon="11.87220839170179"><ele>2.0</ele><time>2026-04-11T11:58:35.986Z</time></trkpt><trkpt lat="44.77427882765899" lon="11.872223602929077"><ele>2.0</ele><time>2026-04-11T11:58:36.986Z</time></trkpt><trkpt lat="44.77417952304517" lon="11.872270884389664"><ele>2.0</ele><time>2026-04-11T11:58:37.986Z</time></trkpt><trkpt lat="44.77406161171966" lon="11.872330447321461"><ele>2.0</ele><time>2026-04-11T11:58:38.986Z</time></trkpt><trkpt lat="44.77393496975615" lon="11.872402891207601"><ele>2.0</ele><time>2026-04-11T11:58:39.986Z</time></trkpt><trkpt lat="44.773794405691255" lon="11.872504197180563"><ele>2.0</ele><time>2026-04-11T11:58:40.986Z</time></trkpt><trkpt lat="44.77365928497525" lon="11.872648599793042"><ele>2.0</ele><time>2026-04-11T11:58:41.986Z</time></trkpt><trkpt lat="44.773523562743314" lon="11.87282663855369"><ele>2.0</ele><time>2026-04-11T11:58:42.986Z</time></trkpt><trkpt lat="44.77339739138148" lon="11.873042493650438"><ele>1.6666666666666665</ele><time>2026-04-11T11:58:43.986Z</time></trkpt><trkpt lat="44.773290196416575" lon="11.87327295042726"><ele>1.3333333333333333</ele><time>2026-04-11T11:58:44.986Z</time></trkpt><trkpt lat="44.773173906735266" lon="11.873466198384321"><ele>1.0</ele><time>2026-04-11T11:58:45.986Z</time></trkpt><trkpt lat="44.77308898367246" lon="11.873637719281607"><ele>1.5</ele><time>2026-04-11T11:58:46.986Z</time></trkpt><trkpt lat="44.77301384419758" lon="11.87378662641031"><ele>2.0</ele><time>2026-04-11T11:58:47.986Z</time></trkpt><trkpt lat="44.7729410132332" lon="11.873928863650004"><ele>2.5</ele><time>2026-04-11T11:58:48.986Z</time></trkpt><trkpt lat="44.77286557723919" lon="11.874072090799343"><ele>3.0</ele><time>2026-04-11T11:58:49.986Z</time></trkpt><trkpt lat="44.772786591387785" lon="11.874217928794936"><ele>3.0</ele><time>2026-04-11T11:58:50.986Z</time></trkpt><trkpt lat="44.77269026346258" lon="11.874376362521197"><ele>3.0</ele><time>2026-04-11T11:58:51.986Z</time></trkpt><trkpt lat="44.77257203495439" lon="11.874550312695996"><ele>3.0</ele><time>2026-04-11T11:58:52.986Z</time></trkpt><trkpt lat="44.772431953463624" lon="11.874728044787933"><ele>2.6666666666666665</ele><time>2026-04-11T11:58:53.986Z</time></trkpt><trkpt lat="44.77228622283493" lon="11.87489944379102"><ele>2.333333333333333</ele><time>2026-04-11T11:58:54.986Z</time></trkpt><trkpt lat="44.77214383776167" lon="11.875057579552402"><ele>2.0</ele><time>2026-04-11T11:58:55.986Z</time></trkpt><trkpt lat="44.77199542324624" lon="11.875211670549039"><ele>1.6666666666666665</ele><time>2026-04-11T11:58:56.986Z</time></trkpt><trkpt lat="44.77184073719379" lon="11.875364825140052"><ele>1.3333333333333333</ele><time>2026-04-11T11:58:57.986Z</time></trkpt><trkpt lat="44.771683690254946" lon="11.875512875346837"><ele>1.0</ele><time>2026-04-11T11:58:58.986Z</time></trkpt><trkpt lat="44.77152175800572" lon="11.875654809912394"><ele>1.0</ele><time>2026-04-11T11:58:59.986Z</time></trkpt><trkpt lat="44.77136678453934" lon="11.875791640413413"><ele>1.0</ele><time>2026-04-11T11:59:00.986Z</time></trkpt><trkpt lat="44.77120773238548" lon="11.875920025405653"><ele>1.0</ele><time>2026-04-11T11:59:01.986Z</time></trkpt><trkpt lat="44.77104067680155" lon="11.87602750321658"><ele>0.6666666666666666</ele><time>2026-04-11T11:59:02.986Z</time></trkpt><trkpt lat="44.770875313736965" lon="11.876116654950025"><ele>0.3333333333333333</ele><time>2026-04-11T11:59:03.986Z</time></trkpt><trkpt lat="44.77071020133727" lon="11.876184087083388"><ele>0.0</ele><time>2026-04-11T11:59:04.986Z</time></trkpt><trkpt lat="44.770546044205034" lon="11.876220584435876"><ele>0.0</ele><time>2026-04-11T11:59:05.986Z</time></trkpt><trkpt lat="44.77039165338995" lon="11.876220424093782"><ele>0.0</ele><time>2026-04-11T11:59:06.986Z</time></trkpt><trkpt lat="44.77024506235984" lon="11.876149929537872"><ele>0.0</ele><time>2026-04-11T11:59:07.986Z</time></trkpt><trkpt lat="44.77010286815311" lon="11.876069485852527"><ele>0.25</ele><time>2026-04-11T11:59:08.986Z</time></trkpt><trkpt lat="44.76997759748335" lon="11.875961834409432"><ele>0.5</ele><time>2026-04-11T11:59:09.986Z</time></trkpt><trkpt lat="44.769857496875964" lon="11.875855180599045"><ele>0.75</ele><time>2026-04-11T11:59:10.986Z</time></trkpt><trkpt lat="44.769738917300025" lon="11.875748907138602"><ele>1.0</ele><time>2026-04-11T11:59:11.986Z</time></trkpt><trkpt lat="44.76962850552702" lon="11.87564846255628"><ele>1.0</ele><time>2026-04-11T11:59:12.986Z</time></trkpt><trkpt lat="44.76952456995048" lon="11.875553636984078"><ele>1.0</ele><time>2026-04-11T11:59:13.986Z</time></trkpt><trkpt lat="44.76941287077497" lon="11.87545270814252"><ele>1.0</ele><time>2026-04-11T11:59:14.986Z</time></trkpt><trkpt lat="44.769289319698956" lon="11.875342193175848"><ele>1.0</ele><time>2026-04-11T11:59:15.986Z</time></trkpt><trkpt lat="44.769155698392545" lon="11.875223656855464"><ele>0.3333333333333333</ele><time>2026-04-11T11:59:16.986Z</time></trkpt><trkpt lat="44.769013745333865" lon="11.875096283710567"><ele>-0.3333333333333333</ele><time>2026-04-11T11:59:17.986Z</time></trkpt><trkpt lat="44.7688631574761" lon="11.87495939125832"><ele>-1.0</ele><time>2026-04-11T11:59:18.986Z</time></trkpt><trkpt lat="44.768704616923976" lon="11.874814372639655"><ele>-1.0</ele><time>2026-04-11T11:59:19.986Z</time></trkpt><trkpt lat="44.768542645291305" lon="11.874668066455074"><ele>-1.0</ele><time>2026-04-11T11:59:20.986Z</time></trkpt><trkpt lat="44.76838251947606" lon="11.874523463025197"><ele>-1.0</ele><time>2026-04-11T11:59:21.986Z</time></trkpt><trkpt lat="44.76823125353312" lon="11.874384798184522"><ele>-0.3333333333333333</ele><time>2026-04-11T11:59:22.986Z</time></trkpt><trkpt lat="44.76809191798048" lon="11.874253646247274"><ele>0.3333333333333333</ele><time>2026-04-11T11:59:23.985Z</time></trkpt><trkpt lat="44.76796271313972" lon="11.874131857131932"><ele>1.0</ele><time>2026-04-11T11:59:24.985Z</time></trkpt><trkpt lat="44.767831685184035" lon="11.874037775512031"><ele>1.0</ele><time>2026-04-11T11:59:25.985Z</time></trkpt><trkpt lat="44.76772021967375" lon="11.873913681412791"><ele>1.0</ele><time>2026-04-11T11:59:26.985Z</time></trkpt><trkpt lat="44.76759628230103" lon="11.873800711195031"><ele>1.0</ele><time>2026-04-11T11:59:27.985Z</time></trkpt><trkpt lat="44.76747488147176" lon="11.873682496580583"><ele>1.0</ele><time>2026-04-11T11:59:28.985Z</time></trkpt><trkpt lat="44.767350926884106" lon="11.873541439298968"><ele>0.6666666666666666</ele><time>2026-04-11T11:59:29.985Z</time></trkpt><trkpt lat="44.767231631234175" lon="11.873385648967982"><ele>0.3333333333333333</ele><time>2026-04-11T11:59:30.985Z</time></trkpt><trkpt lat="44.767126600248254" lon="11.87322792075431"><ele>0.0</ele><time>2026-04-11T11:59:31.985Z</time></trkpt><trkpt lat="44.76703774665256" lon="11.873076086966293"><ele>0.0</ele><time>2026-04-11T11:59:32.985Z</time></trkpt><trkpt lat="44.76695023030148" lon="11.872934993222252"><ele>0.0</ele><time>2026-04-11T11:59:33.985Z</time></trkpt><trkpt lat="44.76686831605052" lon="11.872801377977567"><ele>0.0</ele><time>2026-04-11T11:59:34.985Z</time></trkpt><trkpt lat="44.766788464233" lon="11.872686434801729"><ele>0.0</ele><time>2026-04-11T11:59:35.985Z</time></trkpt><trkpt lat="44.766719003648205" lon="11.872565151086121"><ele>0.0</ele><time>2026-04-11T11:59:36.985Z</time></trkpt><trkpt lat="44.76664983990429" lon="11.872446376020758"><ele>0.0</ele><time>2026-04-11T11:59:37.985Z</time></trkpt><trkpt lat="44.76656852047785" lon="11.87232609181298"><ele>0.0</ele><time>2026-04-11T11:59:38.985Z</time></trkpt><trkpt lat="44.76650441908172" lon="11.872164455209296"><ele>0.0</ele><time>2026-04-11T11:59:39.985Z</time></trkpt><trkpt lat="44.76641251203678" lon="11.872012277861657"><ele>0.0</ele><time>2026-04-11T11:59:40.985Z</time></trkpt><trkpt lat="44.76631100612572" lon="11.871867864602658"><ele>0.0</ele><time>2026-04-11T11:59:41.985Z</time></trkpt><trkpt lat="44.76619427961698" lon="11.871721597650115"><ele>0.0</ele><time>2026-04-11T11:59:42.985Z</time></trkpt><trkpt lat="44.76607639058172" lon="11.871584516233655"><ele>0.25</ele><time>2026-04-11T11:59:43.985Z</time></trkpt><trkpt lat="44.765962290127604" lon="11.871446377176701"><ele>0.5</ele><time>2026-04-11T11:59:44.985Z</time></trkpt><trkpt lat="44.76585346539338" lon="11.87131015534819"><ele>0.75</ele><time>2026-04-11T11:59:45.985Z</time></trkpt><trkpt lat="44.76574900387743" lon="11.871177212008456"><ele>1.0</ele><time>2026-04-11T11:59:47Z</time></trkpt><trkpt lat="44.76564796625765" lon="11.871057113906184"><ele>1.0</ele><time>2026-04-11T11:59:48Z</time></trkpt><trkpt lat="44.76556007219402" lon="11.870951688794984"><ele>1.0</ele><time>2026-04-11T11:59:49Z</time></trkpt><trkpt lat="44.765490427518706" lon="11.870868392521118"><ele>1.0</ele><time>2026-04-11T11:59:50Z</time></trkpt><trkpt lat="44.76543400312444" lon="11.870793228761345"><ele>1.0</ele><time>2026-04-11T11:59:51Z</time></trkpt><trkpt lat="44.76537069874772" lon="11.870655979546601"><ele>1.0</ele><time>2026-04-11T11:59:53Z</time></trkpt><trkpt lat="44.76536277599604" lon="11.870566146694566"><ele>1.25</ele><time>2026-04-11T11:59:54Z</time></trkpt><trkpt lat="44.765381385555315" lon="11.87042857272918"><ele>1.5</ele><time>2026-04-11T11:59:55Z</time></trkpt><trkpt lat="44.76541705407683" lon="11.870249845977895"><ele>1.75</ele><time>2026-04-11T11:59:56Z</time></trkpt><trkpt lat="44.76543938934124" lon="11.870027078094166"><ele>2.0</ele><time>2026-04-11T11:59:57Z</time></trkpt><trkpt lat="44.765503588616205" lon="11.869803649391654"><ele>2.333333333333333</ele><time>2026-04-11T11:59:58Z</time></trkpt><trkpt lat="44.76554054923944" lon="11.869550608540681"><ele>2.6666666666666665</ele><time>2026-04-11T11:59:58.999Z</time></trkpt><trkpt lat="44.76558425744874" lon="11.869272721930148"><ele>3.0</ele><time>2026-04-11T11:59:59.999Z</time></trkpt><trkpt lat="44.76563504200996" lon="11.868970728761672"><ele>3.0</ele><time>2026-04-11T12:00:00.999Z</time></trkpt><trkpt lat="44.76568173383807" lon="11.868647631661604"><ele>3.0</ele><time>2026-04-11T12:00:01.999Z</time></trkpt><trkpt lat="44.76572510893847" lon="11.86832880674127"><ele>2.0</ele><time>2026-04-11T12:00:02.999Z</time></trkpt><trkpt lat="44.76577675583508" lon="11.86800635122066"><ele>1.0</ele><time>2026-04-11T12:00:03.999Z</time></trkpt><trkpt lat="44.7658230341935" lon="11.867687627291787"><ele>0.5</ele><time>2026-04-11T12:00:04.999Z</time></trkpt><trkpt lat="44.76586769178799" lon="11.867343719238777"><ele>0.0</ele><time>2026-04-11T12:00:05.999Z</time></trkpt><trkpt lat="44.765918602764195" lon="11.867006311227524"><ele>0.0</ele><time>2026-04-11T12:00:06.999Z</time></trkpt><trkpt lat="44.76598031017614" lon="11.866652268533432"><ele>0.0</ele><time>2026-04-11T12:00:07.999Z</time></trkpt><trkpt lat="44.76603494153429" lon="11.86629652742727"><ele>0.0</ele><time>2026-04-11T12:00:08.999Z</time></trkpt><trkpt lat="44.76609158117561" lon="11.86593118532337"><ele>0.0</ele><time>2026-04-11T12:00:09.999Z</time></trkpt><trkpt lat="44.76615119886557" lon="11.86556171104333"><ele>0.0</ele><time>2026-04-11T12:00:10.999Z</time></trkpt><trkpt lat="44.76620823294068" lon="11.86519275791805"><ele>0.0</ele><time>2026-04-11T12:00:11.999Z</time></trkpt><trkpt lat="44.76626845917075" lon="11.864817783246453"><ele>0.0</ele><time>2026-04-11T12:00:12.999Z</time></trkpt><trkpt lat="44.766325294104625" lon="11.864438758973755"><ele>0.0</ele><time>2026-04-11T12:00:13.999Z</time></trkpt><trkpt lat="44.7663806536133" lon="11.864062474618366"><ele>0.0</ele><time>2026-04-11T12:00:14.999Z</time></trkpt><trkpt lat="44.766432477959576" lon="11.86369402495391"><ele>0.0</ele><time>2026-04-11T12:00:15.999Z</time></trkpt><trkpt lat="44.76648168168802" lon="11.863337677733167"><ele>0.0</ele><time>2026-04-11T12:00:16.999Z</time></trkpt><trkpt lat="44.76653394057183" lon="11.863001588769174"><ele>0.0</ele><time>2026-04-11T12:00:17.999Z</time></trkpt><trkpt lat="44.766577622918646" lon="11.862668328126409"><ele>0.0</ele><time>2026-04-11T12:00:18.999Z</time></trkpt><trkpt lat="44.76662190734767" lon="11.862324282418006"><ele>0.0</ele><time>2026-04-11T12:00:19.999Z</time></trkpt><trkpt lat="44.76666714631714" lon="11.861985969487211"><ele>0.0</ele><time>2026-04-11T12:00:20.999Z</time></trkpt><trkpt lat="44.76670666407718" lon="11.861644593247364"><ele>0.0</ele><time>2026-04-11T12:00:21.999Z</time></trkpt><trkpt lat="44.76673230905856" lon="11.861307710140856"><ele>0.0</ele><time>2026-04-11T12:00:22.999Z</time></trkpt><trkpt lat="44.766745499388044" lon="11.860966163052419"><ele>0.0</ele><time>2026-04-11T12:00:23.999Z</time></trkpt><trkpt lat="44.76674308970301" lon="11.86062424421459"><ele>1.0</ele><time>2026-04-11T12:00:24.999Z</time></trkpt><trkpt lat="44.766744435006714" lon="11.860280133863876"><ele>2.0</ele><time>2026-04-11T12:00:25.999Z</time></trkpt><trkpt lat="44.76674219330902" lon="11.859940354731831"><ele>2.333333333333333</ele><time>2026-04-11T12:00:26.999Z</time></trkpt><trkpt lat="44.76673698874168" lon="11.859616402881219"><ele>2.6666666666666665</ele><time>2026-04-11T12:00:27.999Z</time></trkpt><trkpt lat="44.766733558227145" lon="11.859308056299058"><ele>3.0</ele><time>2026-04-11T12:00:28.999Z</time></trkpt><trkpt lat="44.766733310502836" lon="11.859008832258105"><ele>3.0</ele><time>2026-04-11T12:00:29.999Z</time></trkpt><trkpt lat="44.76675664625491" lon="11.858722496311463"><ele>3.0</ele><time>2026-04-11T12:00:30.999Z</time></trkpt><trkpt lat="44.76679914881511" lon="11.858455440385509"><ele>3.0</ele><time>2026-04-11T12:00:31.999Z</time></trkpt><trkpt lat="44.7668887984764" lon="11.858221449612751"><ele>2.0</ele><time>2026-04-11T12:00:32.999Z</time></trkpt><trkpt lat="44.76698776717423" lon="11.857982764951489"><ele>1.0</ele><time>2026-04-11T12:00:34.001Z</time></trkpt><trkpt lat="44.76714472288633" lon="11.857795285955344"><ele>0.0</ele><time>2026-04-11T12:00:35Z</time></trkpt><trkpt lat="44.76731774254911" lon="11.857619388987432"><ele>0.0</ele><time>2026-04-11T12:00:36Z</time></trkpt><trkpt lat="44.76750356188033" lon="11.8574324377549"><ele>0.0</ele><time>2026-04-11T12:00:37.001Z</time></trkpt><trkpt lat="44.767697624810275" lon="11.857243686214327"><ele>0.0</ele><time>2026-04-11T12:00:38.001Z</time></trkpt><trkpt lat="44.767894179591735" lon="11.85705395332778"><ele>0.0</ele><time>2026-04-11T12:00:39.001Z</time></trkpt><trkpt lat="44.76809421712814" lon="11.856864361812066"><ele>-1.0</ele><time>2026-04-11T12:00:40.001Z</time></trkpt><trkpt lat="44.76830193223405" lon="11.856680231145548"><ele>-2.0</ele><time>2026-04-11T12:00:41.001Z</time></trkpt><trkpt lat="44.76851944462554" lon="11.856513908993414"><ele>-2.0</ele><time>2026-04-11T12:00:42.001Z</time></trkpt><trkpt lat="44.76875406705392" lon="11.856376524047933"><ele>-2.0</ele><time>2026-04-11T12:00:43.001Z</time></trkpt><trkpt lat="44.768994632492166" lon="11.85625483779853"><ele>-2.0</ele><time>2026-04-11T12:00:44Z</time></trkpt><trkpt lat="44.76923220141589" lon="11.85614312984783"><ele>-2.0</ele><time>2026-04-11T12:00:45Z</time></trkpt><trkpt lat="44.76946364047315" lon="11.856037010557221"><ele>-1.3333333333333333</ele><time>2026-04-11T12:00:46.001Z</time></trkpt><trkpt lat="44.76967753594242" lon="11.855927269475087"><ele>-0.6666666666666666</ele><time>2026-04-11T12:00:47.001Z</time></trkpt><trkpt lat="44.76987050849539" lon="11.85580687334515"><ele>0.0</ele><time>2026-04-11T12:00:48.001Z</time></trkpt><trkpt lat="44.7700481094999" lon="11.855652416521648"><ele>-0.5</ele><time>2026-04-11T12:00:49.001Z</time></trkpt><trkpt lat="44.77022757998388" lon="11.855463394100651"><ele>-1.0</ele><time>2026-04-11T12:00:50.001Z</time></trkpt><trkpt lat="44.77040600343864" lon="11.855255075727287"><ele>-0.5</ele><time>2026-04-11T12:00:51.001Z</time></trkpt><trkpt lat="44.77058202231669" lon="11.855037204453506"><ele>0.0</ele><time>2026-04-11T12:00:52.001Z</time></trkpt><trkpt lat="44.77076327088919" lon="11.854819842729448"><ele>0.0</ele><time>2026-04-11T12:00:53.001Z</time></trkpt><trkpt lat="44.77094340246166" lon="11.854609484797002"><ele>0.0</ele><time>2026-04-11T12:00:54.001Z</time></trkpt><trkpt lat="44.7711150800428" lon="11.854408280817033"><ele>0.0</ele><time>2026-04-11T12:00:55.001Z</time></trkpt><trkpt lat="44.7712831837992" lon="11.854224354049972"><ele>0.0</ele><time>2026-04-11T12:00:56.001Z</time></trkpt><trkpt lat="44.77144100453792" lon="11.854033839824506"><ele>0.0</ele><time>2026-04-11T12:00:57.001Z</time></trkpt><trkpt lat="44.77158265311371" lon="11.853816176642658"><ele>0.0</ele><time>2026-04-11T12:00:58.001Z</time></trkpt><trkpt lat="44.77170325453341" lon="11.853575330424054"><ele>0.0</ele><time>2026-04-11T12:00:59.001Z</time></trkpt><trkpt lat="44.77181192859726" lon="11.853294472148328"><ele>0.0</ele><time>2026-04-11T12:01:00.001Z</time></trkpt><trkpt lat="44.77190693854486" lon="11.852981369206633"><ele>0.5</ele><time>2026-04-11T12:01:01.001Z</time></trkpt><trkpt lat="44.77199926658178" lon="11.85264295915331"><ele>1.0</ele><time>2026-04-11T12:01:02.001Z</time></trkpt><trkpt lat="44.77209340402301" lon="11.852291808619857"><ele>1.0</ele><time>2026-04-11T12:01:03.001Z</time></trkpt><trkpt lat="44.77219750919868" lon="11.851934649563125"><ele>1.0</ele><time>2026-04-11T12:01:04.001Z</time></trkpt><trkpt lat="44.77230306702242" lon="11.851577688918637"><ele>1.0</ele><time>2026-04-11T12:01:05.001Z</time></trkpt><trkpt lat="44.772406457826" lon="11.851211452430512"><ele>1.0</ele><time>2026-04-11T12:01:06.001Z</time></trkpt><trkpt lat="44.772511635754555" lon="11.85084969860258"><ele>1.5</ele><time>2026-04-11T12:01:07.001Z</time></trkpt><trkpt lat="44.77261398087468" lon="11.85048676502206"><ele>2.0</ele><time>2026-04-11T12:01:08.001Z</time></trkpt><trkpt lat="44.77271665595041" lon="11.85011596162653"><ele>0.5</ele><time>2026-04-11T12:01:09.001Z</time></trkpt><trkpt lat="44.7728166887106" lon="11.849759169409255"><ele>-1.0</ele><time>2026-04-11T12:01:10.001Z</time></trkpt><trkpt lat="44.7729135512396" lon="11.849413141737259"><ele>-0.5</ele><time>2026-04-11T12:01:11.001Z</time></trkpt><trkpt lat="44.77300703042801" lon="11.849089336165578"><ele>0.0</ele><time>2026-04-11T12:01:12.001Z</time></trkpt><trkpt lat="44.77310314983682" lon="11.848786710014144"><ele>0.0</ele><time>2026-04-11T12:01:13.001Z</time></trkpt><trkpt lat="44.77320845360264" lon="11.848478961269272"><ele>0.0</ele><time>2026-04-11T12:01:14.001Z</time></trkpt><trkpt lat="44.77332554846319" lon="11.848164795623221"><ele>0.0</ele><time>2026-04-11T12:01:15.001Z</time></trkpt><trkpt lat="44.773457985785434" lon="11.847853185102704"><ele>0.0</ele><time>2026-04-11T12:01:16.001Z</time></trkpt><trkpt lat="44.773597313873545" lon="11.847529626013884"><ele>0.0</ele><time>2026-04-11T12:01:17.001Z</time></trkpt><trkpt lat="44.77374055850697" lon="11.847204268608897"><ele>0.0</ele><time>2026-04-11T12:01:18.001Z</time></trkpt><trkpt lat="44.77388458448972" lon="11.846871615848737"><ele>1.0</ele><time>2026-04-11T12:01:19.001Z</time></trkpt><trkpt lat="44.77402787968169" lon="11.84654256331469"><ele>2.0</ele><time>2026-04-11T12:01:20.001Z</time></trkpt><trkpt lat="44.77417130628211" lon="11.84621241709415"><ele>2.0</ele><time>2026-04-11T12:01:21.001Z</time></trkpt><trkpt lat="44.774311300593865" lon="11.84589242197419"><ele>2.0</ele><time>2026-04-11T12:01:22.001Z</time></trkpt><trkpt lat="44.77445269884087" lon="11.845576099922036"><ele>1.5</ele><time>2026-04-11T12:01:23.001Z</time></trkpt><trkpt lat="44.774590218854726" lon="11.845271007098923"><ele>1.0</ele><time>2026-04-11T12:01:24.001Z</time></trkpt><trkpt lat="44.77472323480316" lon="11.84498555743428"><ele>1.0</ele><time>2026-04-11T12:01:25.001Z</time></trkpt><trkpt lat="44.77485897029694" lon="11.84472518859303"><ele>1.0</ele><time>2026-04-11T12:01:26Z</time></trkpt><trkpt lat="44.77501035898319" lon="11.844488685372594"><ele>1.0</ele><time>2026-04-11T12:01:27Z</time></trkpt><trkpt lat="44.77517629250541" lon="11.84427341452547"><ele>1.0</ele><time>2026-04-11T12:01:28Z</time></trkpt><trkpt lat="44.775357818796394" lon="11.84407118575344"><ele>1.0</ele><time>2026-04-11T12:01:29Z</time></trkpt><trkpt lat="44.77554190971742" lon="11.843869875975646"><ele>1.0</ele><time>2026-04-11T12:01:30Z</time></trkpt><trkpt lat="44.77572225775814" lon="11.843669262724578"><ele>1.0</ele><time>2026-04-11T12:01:31Z</time></trkpt><trkpt lat="44.77589424879299" lon="11.843467425058941"><ele>1.0</ele><time>2026-04-11T12:01:32Z</time></trkpt><trkpt lat="44.77604740652066" lon="11.843253370723973"><ele>1.0</ele><time>2026-04-11T12:01:33Z</time></trkpt><trkpt lat="44.77618146795634" lon="11.843024479670708"><ele>1.0</ele><time>2026-04-11T12:01:34Z</time></trkpt><trkpt lat="44.77629977283017" lon="11.842767280851719"><ele>1.0</ele><time>2026-04-11T12:01:35Z</time></trkpt><trkpt lat="44.77641724216121" lon="11.842497923398998"><ele>1.0</ele><time>2026-04-11T12:01:36Z</time></trkpt><trkpt lat="44.77652783773564" lon="11.842212548096226"><ele>1.0</ele><time>2026-04-11T12:01:37Z</time></trkpt><trkpt lat="44.77663445674521" lon="11.841936683261643"><ele>1.0</ele><time>2026-04-11T12:01:38Z</time></trkpt><trkpt lat="44.7767414985863" lon="11.841682173443308"><ele>1.0</ele><time>2026-04-11T12:01:39Z</time></trkpt><trkpt lat="44.77685127270373" lon="11.841442961228854"><ele>1.0</ele><time>2026-04-11T12:01:40Z</time></trkpt><trkpt lat="44.77698812422459" lon="11.841228279069263"><ele>1.0</ele><time>2026-04-11T12:01:41Z</time></trkpt><trkpt lat="44.77713500003374" lon="11.841028968319288"><ele>1.0</ele><time>2026-04-11T12:01:42Z</time></trkpt><trkpt lat="44.77730956548622" lon="11.840845090876298"><ele>1.3333333333333333</ele><time>2026-04-11T12:01:43Z</time></trkpt><trkpt lat="44.7774946271591" lon="11.84068970815634"><ele>1.6666666666666665</ele><time>2026-04-11T12:01:44Z</time></trkpt><trkpt lat="44.777686867914255" lon="11.84056771482655"><ele>2.0</ele><time>2026-04-11T12:01:45Z</time></trkpt><trkpt lat="44.77790418977472" lon="11.840446507571274"><ele>1.0</ele><time>2026-04-11T12:01:46Z</time></trkpt><trkpt lat="44.778133508094" lon="11.840341568904012"><ele>0.0</ele><time>2026-04-11T12:01:47Z</time></trkpt><trkpt lat="44.77836946670043" lon="11.840249294722524"><ele>0.3333333333333333</ele><time>2026-04-11T12:01:48Z</time></trkpt><trkpt lat="44.77859295803993" lon="11.840150311770767"><ele>0.6666666666666666</ele><time>2026-04-11T12:01:49Z</time></trkpt><trkpt lat="44.7787964615914" lon="11.840058207549198"><ele>1.0</ele><time>2026-04-11T12:01:50Z</time></trkpt><trkpt lat="44.77897703781682" lon="11.839962430614873"><ele>1.0</ele><time>2026-04-11T12:01:51Z</time></trkpt><trkpt lat="44.779152670634154" lon="11.839850785614454"><ele>1.0</ele><time>2026-04-11T12:01:52Z</time></trkpt><trkpt lat="44.77931772924336" lon="11.83970686633556"><ele>1.0</ele><time>2026-04-11T12:01:53Z</time></trkpt><trkpt lat="44.77947667364672" lon="11.839518393896773"><ele>1.0</ele><time>2026-04-11T12:01:54Z</time></trkpt><trkpt lat="44.77962071342273" lon="11.839287629095764"><ele>1.0</ele><time>2026-04-11T12:01:55Z</time></trkpt><trkpt lat="44.77975429872915" lon="11.839028713281996"><ele>1.0</ele><time>2026-04-11T12:01:56Z</time></trkpt><trkpt lat="44.77987688988576" lon="11.838749095311483"><ele>1.0</ele><time>2026-04-11T12:01:57Z</time></trkpt><trkpt lat="44.77999524888033" lon="11.838469053300816"><ele>1.0</ele><time>2026-04-11T12:01:58Z</time></trkpt><trkpt lat="44.78010947644634" lon="11.838211512098592"><ele>1.0</ele><time>2026-04-11T12:01:59Z</time></trkpt><trkpt lat="44.78031793875096" lon="11.837735110272572"><ele>1.0</ele><time>2026-04-11T12:02:01Z</time></trkpt><trkpt lat="44.78040141271012" lon="11.837485422096572"><ele>1.0</ele><time>2026-04-11T12:02:02Z</time></trkpt><trkpt lat="44.780477847375344" lon="11.837230125710484"><ele>1.0</ele><time>2026-04-11T12:02:03Z</time></trkpt><trkpt lat="44.78054150459504" lon="11.836984610098963"><ele>1.0</ele><time>2026-04-11T12:02:04Z</time></trkpt><trkpt lat="44.78059568458861" lon="11.83671891070972"><ele>1.0</ele><time>2026-04-11T12:02:05Z</time></trkpt><trkpt lat="44.78064640816329" lon="11.83641536829338"><ele>1.0</ele><time>2026-04-11T12:02:06Z</time></trkpt><trkpt lat="44.78068849962653" lon="11.836088657075834"><ele>1.5</ele><time>2026-04-11T12:02:07Z</time></trkpt><trkpt lat="44.780718654559415" lon="11.835737907398876"><ele>2.0</ele><time>2026-04-11T12:02:08Z</time></trkpt><trkpt lat="44.78074654010282" lon="11.835388500893243"><ele>2.0</ele><time>2026-04-11T12:02:09Z</time></trkpt><trkpt lat="44.78077330606804" lon="11.835053122695673"><ele>2.0</ele><time>2026-04-11T12:02:10Z</time></trkpt><trkpt lat="44.7808001650926" lon="11.834718299922425"><ele>2.0</ele><time>2026-04-11T12:02:11Z</time></trkpt><trkpt lat="44.780829158371844" lon="11.834389992575348"><ele>2.0</ele><time>2026-04-11T12:02:12Z</time></trkpt><trkpt lat="44.780871786564404" lon="11.834070925510934"><ele>3.0</ele><time>2026-04-11T12:02:13Z</time></trkpt><trkpt lat="44.78093756021892" lon="11.833748076266836"><ele>4.0</ele><time>2026-04-11T12:02:14Z</time></trkpt><trkpt lat="44.78101734969083" lon="11.83343665844187"><ele>1.0</ele><time>2026-04-11T12:02:15Z</time></trkpt><trkpt lat="44.781096785060484" lon="11.83312491317827"><ele>-2.0</ele><time>2026-04-11T12:02:16Z</time></trkpt><trkpt lat="44.7811744624957" lon="11.83282467634403"><ele>-1.6666666666666665</ele><time>2026-04-11T12:02:17Z</time></trkpt><trkpt lat="44.78125069268512" lon="11.832542178897292"><ele>-1.3333333333333333</ele><time>2026-04-11T12:02:18Z</time></trkpt><trkpt lat="44.78132880124111" lon="11.832269388169266"><ele>-1.0</ele><time>2026-04-11T12:02:19Z</time></trkpt><trkpt lat="44.7814178372626" lon="11.832011686549539"><ele>-0.6666666666666666</ele><time>2026-04-11T12:02:20Z</time></trkpt><trkpt lat="44.7815248571349" lon="11.83175571240801"><ele>-0.3333333333333333</ele><time>2026-04-11T12:02:21Z</time></trkpt><trkpt lat="44.78164942966445" lon="11.831503359964607"><ele>0.0</ele><time>2026-04-11T12:02:22Z</time></trkpt><trkpt lat="44.78179259659779" lon="11.83126397443342"><ele>0.0</ele><time>2026-04-11T12:02:23Z</time></trkpt><trkpt lat="44.781948366377435" lon="11.831039062682262"><ele>0.0</ele><time>2026-04-11T12:02:24Z</time></trkpt><trkpt lat="44.782100019272875" lon="11.830856356852681"><ele>0.0</ele><time>2026-04-11T12:02:25Z</time></trkpt><trkpt lat="44.782237367057164" lon="11.830686872813075"><ele>0.0</ele><time>2026-04-11T12:02:26Z</time></trkpt><trkpt lat="44.78237956708297" lon="11.830580052303816"><ele>0.0</ele><time>2026-04-11T12:02:27Z</time></trkpt><trkpt lat="44.78251007609628" lon="11.83046948144858"><ele>0.0</ele><time>2026-04-11T12:02:28Z</time></trkpt><trkpt lat="44.78263857511982" lon="11.830365095855804"><ele>0.0</ele><time>2026-04-11T12:02:29Z</time></trkpt><trkpt lat="44.78277222559584" lon="11.83024023042081"><ele>0.0</ele><time>2026-04-11T12:02:30Z</time></trkpt><trkpt lat="44.782920847384496" lon="11.83008081162348"><ele>0.0</ele><time>2026-04-11T12:02:31Z</time></trkpt><trkpt lat="44.78308072538369" lon="11.82987287428186"><ele>0.0</ele><time>2026-04-11T12:02:32Z</time></trkpt><trkpt lat="44.78323664072782" lon="11.829608948281317"><ele>0.0</ele><time>2026-04-11T12:02:33Z</time></trkpt><trkpt lat="44.78342266387549" lon="11.829340745971315"><ele>0.0</ele><time>2026-04-11T12:02:34Z</time></trkpt><trkpt lat="44.783593757085725" lon="11.829051339424169"><ele>0.0</ele><time>2026-04-11T12:02:35Z</time></trkpt><trkpt lat="44.783760305006716" lon="11.828759737682553"><ele>0.5</ele><time>2026-04-11T12:02:36Z</time></trkpt><trkpt lat="44.78392757274057" lon="11.828467558548624"><ele>1.0</ele><time>2026-04-11T12:02:37Z</time></trkpt><trkpt lat="44.784095976740474" lon="11.828179958594717"><ele>1.0</ele><time>2026-04-11T12:02:38Z</time></trkpt><trkpt lat="44.784261145970774" lon="11.827885174004383"><ele>1.0</ele><time>2026-04-11T12:02:39Z</time></trkpt><trkpt lat="44.78442371158903" lon="11.827591309423324"><ele>0.5</ele><time>2026-04-11T12:02:40Z</time></trkpt><trkpt lat="44.78457623454386" lon="11.827306581131394"><ele>0.0</ele><time>2026-04-11T12:02:41.001Z</time></trkpt><trkpt lat="44.784725121781015" lon="11.827035423768299"><ele>0.5</ele><time>2026-04-11T12:02:42Z</time></trkpt><trkpt lat="44.78487053290402" lon="11.826780172272649"><ele>1.0</ele><time>2026-04-11T12:02:43Z</time></trkpt><trkpt lat="44.78500738856531" lon="11.826535926684043"><ele>1.0</ele><time>2026-04-11T12:02:44Z</time></trkpt><trkpt lat="44.78514340924546" lon="11.826321649856355"><ele>1.0</ele><time>2026-04-11T12:02:45Z</time></trkpt><trkpt lat="44.785280551648086" lon="11.826092212025952"><ele>1.0</ele><time>2026-04-11T12:02:46Z</time></trkpt><trkpt lat="44.785401295420954" lon="11.825859580028853"><ele>0.6666666666666666</ele><time>2026-04-11T12:02:47.001Z</time></trkpt><trkpt lat="44.785532138232476" lon="11.825618437240141"><ele>0.3333333333333333</ele><time>2026-04-11T12:02:48.001Z</time></trkpt><trkpt lat="44.785657565277035" lon="11.825395784743021"><ele>0.0</ele><time>2026-04-11T12:02:49Z</time></trkpt><trkpt lat="44.78577694996344" lon="11.825178461337746"><ele>0.6666666666666666</ele><time>2026-04-11T12:02:50Z</time></trkpt><trkpt lat="44.78589401729209" lon="11.824960234988863"><ele>1.3333333333333333</ele><time>2026-04-11T12:02:51Z</time></trkpt><trkpt lat="44.78602058856449" lon="11.824736145112277"><ele>2.0</ele><time>2026-04-11T12:02:52Z</time></trkpt><trkpt lat="44.786153182200486" lon="11.824508199231449"><ele>1.0</ele><time>2026-04-11T12:02:53Z</time></trkpt><trkpt lat="44.78629063323462" lon="11.824263957889631"><ele>0.0</ele><time>2026-04-11T12:02:54Z</time></trkpt><trkpt lat="44.78642389772287" lon="11.824024019366146"><ele>-1.0</ele><time>2026-04-11T12:02:55Z</time></trkpt><trkpt lat="44.78655488359511" lon="11.823790777867632"><ele>-1.0</ele><time>2026-04-11T12:02:56Z</time></trkpt><trkpt lat="44.78667774354377" lon="11.823556895231164"><ele>-1.0</ele><time>2026-04-11T12:02:57Z</time></trkpt><trkpt lat="44.78680458211876" lon="11.823346439648361"><ele>-1.0</ele><time>2026-04-11T12:02:58Z</time></trkpt><trkpt lat="44.786924490286324" lon="11.823131938110777"><ele>-0.3333333333333333</ele><time>2026-04-11T12:02:59Z</time></trkpt><trkpt lat="44.78705844448088" lon="11.822903532714948"><ele>0.3333333333333333</ele><time>2026-04-11T12:03:00Z</time></trkpt><trkpt lat="44.78720314978132" lon="11.822673575820074"><ele>1.0</ele><time>2026-04-11T12:03:01Z</time></trkpt><trkpt lat="44.787364687856964" lon="11.822437020949367"><ele>1.0</ele><time>2026-04-11T12:03:02Z</time></trkpt><trkpt lat="44.78755212453055" lon="11.822194084945872"><ele>1.0</ele><time>2026-04-11T12:03:03Z</time></trkpt><trkpt lat="44.78775286530708" lon="11.821932784881753"><ele>0.0</ele><time>2026-04-11T12:03:04Z</time></trkpt><trkpt lat="44.7879701484113" lon="11.821668749169906"><ele>-1.0</ele><time>2026-04-11T12:03:05Z</time></trkpt><trkpt lat="44.78819481925396" lon="11.821403036678571"><ele>-1.0</ele><time>2026-04-11T12:03:06Z</time></trkpt><trkpt lat="44.788414276574336" lon="11.821129785250712"><ele>-1.0</ele><time>2026-04-11T12:03:07Z</time></trkpt><trkpt lat="44.78863033119098" lon="11.820859466176513"><ele>-0.5</ele><time>2026-04-11T12:03:08Z</time></trkpt><trkpt lat="44.788840794981496" lon="11.820598600118236"><ele>0.0</ele><time>2026-04-11T12:03:09Z</time></trkpt><trkpt lat="44.78903693492238" lon="11.820326307931131"><ele>0.0</ele><time>2026-04-11T12:03:10Z</time></trkpt><trkpt lat="44.78922227250362" lon="11.820040563861742"><ele>0.0</ele><time>2026-04-11T12:03:11Z</time></trkpt><trkpt lat="44.78940872250493" lon="11.819742811299617"><ele>0.0</ele><time>2026-04-11T12:03:12Z</time></trkpt><trkpt lat="44.78958686439204" lon="11.819443553487671"><ele>0.0</ele><time>2026-04-11T12:03:13Z</time></trkpt><trkpt lat="44.78975732195708" lon="11.819154838741147"><ele>0.5</ele><time>2026-04-11T12:03:14Z</time></trkpt><trkpt lat="44.789920065519716" lon="11.818891941073352"><ele>1.0</ele><time>2026-04-11T12:03:15Z</time></trkpt><trkpt lat="44.79008590172228" lon="11.818642688945225"><ele>0.3333333333333333</ele><time>2026-04-11T12:03:16Z</time></trkpt><trkpt lat="44.79025169152147" lon="11.818410285859496"><ele>-0.3333333333333333</ele><time>2026-04-11T12:03:17Z</time></trkpt><trkpt lat="44.790403290366626" lon="11.81820692921996"><ele>-1.0</ele><time>2026-04-11T12:03:18Z</time></trkpt><trkpt lat="44.79057179100301" lon="11.818010616198976"><ele>-1.0</ele><time>2026-04-11T12:03:19Z</time></trkpt><trkpt lat="44.79075609537298" lon="11.817814535613966"><ele>-1.0</ele><time>2026-04-11T12:03:20Z</time></trkpt><trkpt lat="44.79093851258548" lon="11.817622423449954"><ele>0.0</ele><time>2026-04-11T12:03:21Z</time></trkpt><trkpt lat="44.79112601803887" lon="11.817421979844644"><ele>1.0</ele><time>2026-04-11T12:03:22Z</time></trkpt><trkpt lat="44.791316964994884" lon="11.817217022058616"><ele>1.0</ele><time>2026-04-11T12:03:23Z</time></trkpt><trkpt lat="44.79151176509685" lon="11.817001471393132"><ele>1.0</ele><time>2026-04-11T12:03:24Z</time></trkpt><trkpt lat="44.79169874574" lon="11.816779461082792"><ele>0.0</ele><time>2026-04-11T12:03:25Z</time></trkpt><trkpt lat="44.791874338938904" lon="11.816555720515277"><ele>-1.0</ele><time>2026-04-11T12:03:26Z</time></trkpt><trkpt lat="44.79204021744232" lon="11.81634014641733"><ele>-1.0</ele><time>2026-04-11T12:03:27Z</time></trkpt><trkpt lat="44.792205296053446" lon="11.816137409941598"><ele>-1.0</ele><time>2026-04-11T12:03:28Z</time></trkpt><trkpt lat="44.792380504484974" lon="11.815951047591797"><ele>-1.0</ele><time>2026-04-11T12:03:29Z</time></trkpt><trkpt lat="44.792566764934186" lon="11.815796523166576"><ele>-0.5</ele><time>2026-04-11T12:03:30Z</time></trkpt><trkpt lat="44.792771470574124" lon="11.815667735214713"><ele>0.0</ele><time>2026-04-11T12:03:31Z</time></trkpt><trkpt lat="44.79298921875343" lon="11.815564736132593"><ele>0.0</ele><time>2026-04-11T12:03:32Z</time></trkpt><trkpt lat="44.793198072729545" lon="11.815472369217042"><ele>0.0</ele><time>2026-04-11T12:03:33Z</time></trkpt><trkpt lat="44.79339566455376" lon="11.81536880352883"><ele>0.0</ele><time>2026-04-11T12:03:34Z</time></trkpt><trkpt lat="44.79358223834569" lon="11.81524180543125"><ele>-0.3333333333333333</ele><time>2026-04-11T12:03:35Z</time></trkpt><trkpt lat="44.79375131874333" lon="11.81508104319573"><ele>-0.6666666666666666</ele><time>2026-04-11T12:03:36Z</time></trkpt><trkpt lat="44.793908058841545" lon="11.814884983442818"><ele>-1.0</ele><time>2026-04-11T12:03:37Z</time></trkpt><trkpt lat="44.79405507932114" lon="11.814658820221704"><ele>-1.0</ele><time>2026-04-11T12:03:37.999Z</time></trkpt><trkpt lat="44.7941994231151" lon="11.81442043332464"><ele>-1.0</ele><time>2026-04-11T12:03:38.999Z</time></trkpt><trkpt lat="44.79433662148178" lon="11.81417742140422"><ele>-1.0</ele><time>2026-04-11T12:03:39.999Z</time></trkpt><trkpt lat="44.79445134096579" lon="11.813919565533288"><ele>-1.0</ele><time>2026-04-11T12:03:40.999Z</time></trkpt><trkpt lat="44.794565029874065" lon="11.81363451242484"><ele>-1.0</ele><time>2026-04-11T12:03:41.999Z</time></trkpt><trkpt lat="44.794668663016324" lon="11.81336004876728"><ele>-0.6666666666666666</ele><time>2026-04-11T12:03:42.999Z</time></trkpt><trkpt lat="44.79476953814184" lon="11.813094250092394"><ele>-0.3333333333333333</ele><time>2026-04-11T12:03:43.999Z</time></trkpt><trkpt lat="44.79484332411272" lon="11.812830520505948"><ele>0.0</ele><time>2026-04-11T12:03:44.999Z</time></trkpt><trkpt lat="44.79488382478277" lon="11.812553341021651"><ele>0.0</ele><time>2026-04-11T12:03:45.999Z</time></trkpt><trkpt lat="44.79491839093082" lon="11.812267820372739"><ele>0.0</ele><time>2026-04-11T12:03:46.999Z</time></trkpt><trkpt lat="44.794953042795576" lon="11.811987987696465"><ele>0.0</ele><time>2026-04-11T12:03:47.999Z</time></trkpt><trkpt lat="44.79497432523051" lon="11.811706362795876"><ele>0.6666666666666666</ele><time>2026-04-11T12:03:48.999Z</time></trkpt><trkpt lat="44.79498626905863" lon="11.811414624875137"><ele>1.3333333333333333</ele><time>2026-04-11T12:03:49.999Z</time></trkpt><trkpt lat="44.795001446802246" lon="11.81111698080481"><ele>2.0</ele><time>2026-04-11T12:03:50.999Z</time></trkpt><trkpt lat="44.79498506260503" lon="11.81082014221947"><ele>2.0</ele><time>2026-04-11T12:03:51.999Z</time></trkpt><trkpt lat="44.79496735874783" lon="11.810530738344012"><ele>2.0</ele><time>2026-04-11T12:03:52.999Z</time></trkpt><trkpt lat="44.79494995714853" lon="11.810244091683538"><ele>2.0</ele><time>2026-04-11T12:03:53.999Z</time></trkpt><trkpt lat="44.79493368540308" lon="11.809967433116519"><ele>2.0</ele><time>2026-04-11T12:03:54.999Z</time></trkpt><trkpt lat="44.79491763105664" lon="11.809694470849287"><ele>2.0</ele><time>2026-04-11T12:03:55.999Z</time></trkpt><trkpt lat="44.794901684063916" lon="11.809423333871823"><ele>2.0</ele><time>2026-04-11T12:03:56.999Z</time></trkpt><trkpt lat="44.79488607731024" lon="11.809157981754437"><ele>2.333333333333333</ele><time>2026-04-11T12:03:57.999Z</time></trkpt><trkpt lat="44.79484790993482" lon="11.808895631851849"><ele>2.6666666666666665</ele><time>2026-04-11T12:03:58.999Z</time></trkpt><trkpt lat="44.79483163916604" lon="11.808639494533523"><ele>3.0</ele><time>2026-04-11T12:03:59.999Z</time></trkpt><trkpt lat="44.794817776665084" lon="11.808392362896136"><ele>3.0</ele><time>2026-04-11T12:04:00.999Z</time></trkpt><trkpt lat="44.794803832093294" lon="11.808149393459368"><ele>3.0</ele><time>2026-04-11T12:04:01.999Z</time></trkpt><trkpt lat="44.794789628979814" lon="11.8079116279116"><ele>3.0</ele><time>2026-04-11T12:04:02.999Z</time></trkpt><trkpt lat="44.7947748138073" lon="11.807665479963159"><ele>3.0</ele><time>2026-04-11T12:04:03.999Z</time></trkpt><trkpt lat="44.794767164863124" lon="11.80741633196713"><ele>3.0</ele><time>2026-04-11T12:04:04.999Z</time></trkpt><trkpt lat="44.79476165701317" lon="11.807167943895738"><ele>3.0</ele><time>2026-04-11T12:04:05.999Z</time></trkpt><trkpt lat="44.79474955107508" lon="11.806907204226489"><ele>3.0</ele><time>2026-04-11T12:04:06.999Z</time></trkpt><trkpt lat="44.79472825676149" lon="11.806631534137416"><ele>3.0</ele><time>2026-04-11T12:04:07.999Z</time></trkpt><trkpt lat="44.794712060569545" lon="11.80636709821086"><ele>3.0</ele><time>2026-04-11T12:04:08.999Z</time></trkpt><trkpt lat="44.79469897978142" lon="11.806098180071317"><ele>2.3333333333333335</ele><time>2026-04-11T12:04:09.999Z</time></trkpt><trkpt lat="44.79468514432475" lon="11.80585428406666"><ele>1.6666666666666665</ele><time>2026-04-11T12:04:10.999Z</time></trkpt><trkpt lat="44.794680004394415" lon="11.805589335398464"><ele>1.0</ele><time>2026-04-11T12:04:11.999Z</time></trkpt><trkpt lat="44.79465086694057" lon="11.805326119556"><ele>1.0</ele><time>2026-04-11T12:04:12.999Z</time></trkpt><trkpt lat="44.794633653883366" lon="11.805059830741248"><ele>1.0</ele><time>2026-04-11T12:04:13.999Z</time></trkpt><trkpt lat="44.79463477206699" lon="11.804799127273474"><ele>1.0</ele><time>2026-04-11T12:04:14.999Z</time></trkpt><trkpt lat="44.794604537664775" lon="11.804538175102595"><ele>0.6666666666666666</ele><time>2026-04-11T12:04:15.999Z</time></trkpt><trkpt lat="44.79459231191769" lon="11.804273421984831"><ele>0.3333333333333333</ele><time>2026-04-11T12:04:16.999Z</time></trkpt><trkpt lat="44.79457834877518" lon="11.804031672557947"><ele>0.0</ele><time>2026-04-11T12:04:17.999Z</time></trkpt><trkpt lat="44.79456276458832" lon="11.803805156106073"><ele>0.0</ele><time>2026-04-11T12:04:18.999Z</time></trkpt><trkpt lat="44.794552704443475" lon="11.803591015026132"><ele>0.0</ele><time>2026-04-11T12:04:19.999Z</time></trkpt><trkpt lat="44.79453860771985" lon="11.803387504807123"><ele>0.0</ele><time>2026-04-11T12:04:20.999Z</time></trkpt><trkpt lat="44.794543238167606" lon="11.803207281189284"><ele>0.0</ele><time>2026-04-11T12:04:21.999Z</time></trkpt><trkpt lat="44.794516049741" lon="11.80302824081219"><ele>0.0</ele><time>2026-04-11T12:04:22.999Z</time></trkpt><trkpt lat="44.79453560472552" lon="11.802819315050506"><ele>0.0</ele><time>2026-04-11T12:04:23.999Z</time></trkpt><trkpt lat="44.794524736913466" lon="11.802637907386393"><ele>0.0</ele><time>2026-04-11T12:04:24.999Z</time></trkpt><trkpt lat="44.794509111831765" lon="11.802447881245902"><ele>0.0</ele><time>2026-04-11T12:04:25.999Z</time></trkpt><trkpt lat="44.794495779166745" lon="11.802259223148761"><ele>0.0</ele><time>2026-04-11T12:04:26.999Z</time></trkpt><trkpt lat="44.7944920044482" lon="11.802060917811094"><ele>0.0</ele><time>2026-04-11T12:04:27.999Z</time></trkpt><trkpt lat="44.79447976015594" lon="11.801846977198927"><ele>0.0</ele><time>2026-04-11T12:04:28.999Z</time></trkpt><trkpt lat="44.79446205661539" lon="11.801625777642162"><ele>1.0</ele><time>2026-04-11T12:04:29.999Z</time></trkpt><trkpt lat="44.79444409412488" lon="11.8013915624147"><ele>2.0</ele><time>2026-04-11T12:04:30.999Z</time></trkpt><trkpt lat="44.79443359251985" lon="11.801152396290034"><ele>3.0</ele><time>2026-04-11T12:04:31.999Z</time></trkpt><trkpt lat="44.79441578749026" lon="11.800907735322111"><ele>3.333333333333333</ele><time>2026-04-11T12:04:32.999Z</time></trkpt><trkpt lat="44.79440005714776" lon="11.800664853579192"><ele>3.6666666666666665</ele><time>2026-04-11T12:04:33.999Z</time></trkpt><trkpt lat="44.794384695054646" lon="11.800416560474174"><ele>4.0</ele><time>2026-04-11T12:04:34.999Z</time></trkpt><trkpt lat="44.794368973241184" lon="11.800168387873493"><ele>3.6666666666666665</ele><time>2026-04-11T12:04:35.999Z</time></trkpt><trkpt lat="44.79435438618656" lon="11.79992528631343"><ele>3.333333333333333</ele><time>2026-04-11T12:04:36.999Z</time></trkpt><trkpt lat="44.79433904328165" lon="11.799671927309051"><ele>3.0</ele><time>2026-04-11T12:04:37.999Z</time></trkpt><trkpt lat="44.79432407330889" lon="11.7994301972929"><ele>3.333333333333333</ele><time>2026-04-11T12:04:38.999Z</time></trkpt><trkpt lat="44.794306727611996" lon="11.799196921367306"><ele>3.6666666666666665</ele><time>2026-04-11T12:04:39.999Z</time></trkpt><trkpt lat="44.794291243102954" lon="11.798960541032052"><ele>4.0</ele><time>2026-04-11T12:04:40.999Z</time></trkpt><trkpt lat="44.79427934142196" lon="11.798733026465422"><ele>4.0</ele><time>2026-04-11T12:04:41.999Z</time></trkpt><trkpt lat="44.7942616720866" lon="11.798507322985596"><ele>4.0</ele><time>2026-04-11T12:04:42.999Z</time></trkpt><trkpt lat="44.794256403976306" lon="11.79828750092445"><ele>4.0</ele><time>2026-04-11T12:04:43.999Z</time></trkpt><trkpt lat="44.794245875124766" lon="11.798065105001882"><ele>3.6666666666666665</ele><time>2026-04-11T12:04:44.999Z</time></trkpt><trkpt lat="44.79422830779366" lon="11.797834303973824"><ele>3.333333333333333</ele><time>2026-04-11T12:04:46Z</time></trkpt><trkpt lat="44.79421669136902" lon="11.797613685849091"><ele>3.0</ele><time>2026-04-11T12:04:47Z</time></trkpt><trkpt lat="44.794196797689146" lon="11.797385204280852"><ele>3.0</ele><time>2026-04-11T12:04:48Z</time></trkpt><trkpt lat="44.79419504362559" lon="11.797153110824558"><ele>3.0</ele><time>2026-04-11T12:04:49Z</time></trkpt><trkpt lat="44.79418503631579" lon="11.796928477362345"><ele>3.0</ele><time>2026-04-11T12:04:50Z</time></trkpt><trkpt lat="44.79417876283003" lon="11.796720126621139"><ele>3.25</ele><time>2026-04-11T12:04:51Z</time></trkpt><trkpt lat="44.79418743744766" lon="11.796508659591264"><ele>3.5</ele><time>2026-04-11T12:04:52.001Z</time></trkpt><trkpt lat="44.794192958762295" lon="11.796297743413769"><ele>3.75</ele><time>2026-04-11T12:04:53.001Z</time></trkpt><trkpt lat="44.79420424535085" lon="11.796092379886794"><ele>4.0</ele><time>2026-04-11T12:04:54.001Z</time></trkpt><trkpt lat="44.79421819277694" lon="11.795905295278443"><ele>4.0</ele><time>2026-04-11T12:04:55Z</time></trkpt><trkpt lat="44.79422689504933" lon="11.795716218697091"><ele>4.0</ele><time>2026-04-11T12:04:56Z</time></trkpt><trkpt lat="44.794246092893" lon="11.795536233104114"><ele>4.0</ele><time>2026-04-11T12:04:57Z</time></trkpt><trkpt lat="44.794270366545824" lon="11.795347170512663"><ele>4.0</ele><time>2026-04-11T12:04:58.001Z</time></trkpt><trkpt lat="44.79430389367713" lon="11.795159284302192"><ele>3.25</ele><time>2026-04-11T12:04:59Z</time></trkpt><trkpt lat="44.79433944097434" lon="11.794966969713617"><ele>2.5</ele><time>2026-04-11T12:05:00Z</time></trkpt><trkpt lat="44.794379277933686" lon="11.79478451664877"><ele>1.75</ele><time>2026-04-11T12:05:01Z</time></trkpt><trkpt lat="44.79441871725106" lon="11.794612163893516"><ele>1.0</ele><time>2026-04-11T12:05:02Z</time></trkpt><trkpt lat="44.794480694614826" lon="11.794440390155527"><ele>1.25</ele><time>2026-04-11T12:05:03Z</time></trkpt><trkpt lat="44.7945757268224" lon="11.794289459273623"><ele>1.5</ele><time>2026-04-11T12:05:04Z</time></trkpt><trkpt lat="44.794662430307085" lon="11.794121552628457"><ele>1.75</ele><time>2026-04-11T12:05:05Z</time></trkpt><trkpt lat="44.79476260386648" lon="11.793950338953694"><ele>2.0</ele><time>2026-04-11T12:05:06Z</time></trkpt><trkpt lat="44.79488153998203" lon="11.793788275534375"><ele>2.0</ele><time>2026-04-11T12:05:07Z</time></trkpt><trkpt lat="44.79501695894672" lon="11.79363362972931"><ele>2.0</ele><time>2026-04-11T12:05:08Z</time></trkpt><trkpt lat="44.795160721345596" lon="11.793474923890052"><ele>2.0</ele><time>2026-04-11T12:05:09Z</time></trkpt><trkpt lat="44.79530831734005" lon="11.793311514443376"><ele>2.0</ele><time>2026-04-11T12:05:10Z</time></trkpt><trkpt lat="44.79545662068369" lon="11.79314696624588"><ele>2.0</ele><time>2026-04-11T12:05:11Z</time></trkpt><trkpt lat="44.79560699982842" lon="11.792982404235184"><ele>2.0</ele><time>2026-04-11T12:05:12Z</time></trkpt><trkpt lat="44.795752885989664" lon="11.792823451414206"><ele>2.0</ele><time>2026-04-11T12:05:13Z</time></trkpt><trkpt lat="44.79588796868281" lon="11.792676269706941"><ele>2.0</ele><time>2026-04-11T12:05:14Z</time></trkpt><trkpt lat="44.79601685822691" lon="11.792535835848481"><ele>2.0</ele><time>2026-04-11T12:05:15Z</time></trkpt><trkpt lat="44.79614457954969" lon="11.792396674841113"><ele>2.0</ele><time>2026-04-11T12:05:16Z</time></trkpt><trkpt lat="44.796274351515876" lon="11.792254219440558"><ele>2.0</ele><time>2026-04-11T12:05:17Z</time></trkpt><trkpt lat="44.79640933972727" lon="11.792102248511462"><ele>2.0</ele><time>2026-04-11T12:05:18Z</time></trkpt><trkpt lat="44.796547476025815" lon="11.791946733429231"><ele>2.0</ele><time>2026-04-11T12:05:19Z</time></trkpt><trkpt lat="44.796688013721436" lon="11.791788514841441"><ele>2.0</ele><time>2026-04-11T12:05:20Z</time></trkpt><trkpt lat="44.79682378674421" lon="11.791630899593565"><ele>2.0</ele><time>2026-04-11T12:05:21Z</time></trkpt><trkpt lat="44.79695752164626" lon="11.791469630963997"><ele>2.0</ele><time>2026-04-11T12:05:22Z</time></trkpt><trkpt lat="44.79708010664215" lon="11.791282327682525"><ele>2.0</ele><time>2026-04-11T12:05:23Z</time></trkpt><trkpt lat="44.79720036211943" lon="11.791090667867108"><ele>2.0</ele><time>2026-04-11T12:05:24Z</time></trkpt><trkpt lat="44.797310769229334" lon="11.79090451603817"><ele>2.333333333333333</ele><time>2026-04-11T12:05:25Z</time></trkpt><trkpt lat="44.79741453079926" lon="11.79072034830494"><ele>2.6666666666666665</ele><time>2026-04-11T12:05:26Z</time></trkpt><trkpt lat="44.797507495915504" lon="11.79054822525801"><ele>3.0</ele><time>2026-04-11T12:05:27Z</time></trkpt><trkpt lat="44.797595079276086" lon="11.790370576064442"><ele>2.6666666666666665</ele><time>2026-04-11T12:05:28Z</time></trkpt><trkpt lat="44.79767714546518" lon="11.790197191449096"><ele>2.333333333333333</ele><time>2026-04-11T12:05:29Z</time></trkpt><trkpt lat="44.797762646241644" lon="11.790018852695665"><ele>2.0</ele><time>2026-04-11T12:05:30Z</time></trkpt><trkpt lat="44.79784798767723" lon="11.789840846296114"><ele>2.0</ele><time>2026-04-11T12:05:31Z</time></trkpt><trkpt lat="44.79793004612149" lon="11.789669687624361"><ele>2.0</ele><time>2026-04-11T12:05:32Z</time></trkpt><trkpt lat="44.798005130043535" lon="11.789474142397127"><ele>2.0</ele><time>2026-04-11T12:05:33Z</time></trkpt><trkpt lat="44.798108405847564" lon="11.789289957918868"><ele>2.333333333333333</ele><time>2026-04-11T12:05:34Z</time></trkpt><trkpt lat="44.79821940396334" lon="11.789075214201475"><ele>2.6666666666666665</ele><time>2026-04-11T12:05:35Z</time></trkpt><trkpt lat="44.798338810009064" lon="11.78886179381312"><ele>3.0</ele><time>2026-04-11T12:05:36Z</time></trkpt><trkpt lat="44.79847678232768" lon="11.788637538937895"><ele>2.5</ele><time>2026-04-11T12:05:37Z</time></trkpt><trkpt lat="44.79864913712721" lon="11.788430878425842"><ele>2.0</ele><time>2026-04-11T12:05:38Z</time></trkpt><trkpt lat="44.798814633255716" lon="11.788195131991143"><ele>2.0</ele><time>2026-04-11T12:05:39Z</time></trkpt><trkpt lat="44.798948048129404" lon="11.787893327373425"><ele>2.0</ele><time>2026-04-11T12:05:40Z</time></trkpt><trkpt lat="44.79911653039002" lon="11.787616734410754"><ele>2.0</ele><time>2026-04-11T12:05:41Z</time></trkpt><trkpt lat="44.79928604055696" lon="11.787328632030615"><ele>2.0</ele><time>2026-04-11T12:05:42Z</time></trkpt><trkpt lat="44.79945440005347" lon="11.787036568871057"><ele>2.5</ele><time>2026-04-11T12:05:43Z</time></trkpt><trkpt lat="44.79968399260247" lon="11.786813146461823"><ele>3.0</ele><time>2026-04-11T12:05:44Z</time></trkpt><trkpt lat="44.79984882310351" lon="11.786523385077928"><ele>3.0</ele><time>2026-04-11T12:05:45Z</time></trkpt><trkpt lat="44.800002932082535" lon="11.786233208123104"><ele>3.0</ele><time>2026-04-11T12:05:46Z</time></trkpt><trkpt lat="44.800141459588104" lon="11.78593055161529"><ele>2.5</ele><time>2026-04-11T12:05:47Z</time></trkpt><trkpt lat="44.80026336205212" lon="11.785612776240455"><ele>2.0</ele><time>2026-04-11T12:05:48Z</time></trkpt><trkpt lat="44.80036974343387" lon="11.785290155655693"><ele>2.5</ele><time>2026-04-11T12:05:49Z</time></trkpt><trkpt lat="44.800464123166726" lon="11.784954948291814"><ele>3.0</ele><time>2026-04-11T12:05:50Z</time></trkpt><trkpt lat="44.8005419460453" lon="11.784607235264028"><ele>3.0</ele><time>2026-04-11T12:05:51Z</time></trkpt><trkpt lat="44.800616075277304" lon="11.784250303293145"><ele>3.0</ele><time>2026-04-11T12:05:52Z</time></trkpt><trkpt lat="44.800687975088145" lon="11.783894592885009"><ele>3.0</ele><time>2026-04-11T12:05:53Z</time></trkpt><trkpt lat="44.80076138531281" lon="11.783531410020846"><ele>3.0</ele><time>2026-04-11T12:05:54Z</time></trkpt><trkpt lat="44.80083597580245" lon="11.783162388017535"><ele>3.0</ele><time>2026-04-11T12:05:55Z</time></trkpt><trkpt lat="44.80091234050128" lon="11.782784588461032"><ele>3.0</ele><time>2026-04-11T12:05:55.999Z</time></trkpt><trkpt lat="44.80099044507809" lon="11.782399061081644"><ele>2.5</ele><time>2026-04-11T12:05:56.999Z</time></trkpt><trkpt lat="44.80106826864397" lon="11.782015061021568"><ele>2.0</ele><time>2026-04-11T12:05:57.999Z</time></trkpt><trkpt lat="44.80114556694208" lon="11.78163365279187"><ele>1.5</ele><time>2026-04-11T12:05:58.999Z</time></trkpt><trkpt lat="44.8012228106119" lon="11.781252514077762"><ele>1.0</ele><time>2026-04-11T12:05:59.999Z</time></trkpt><trkpt lat="44.8013002238693" lon="11.780870538601192"><ele>1.0</ele><time>2026-04-11T12:06:00.999Z</time></trkpt><trkpt lat="44.80137673123879" lon="11.780494329618406"><ele>1.0</ele><time>2026-04-11T12:06:01.999Z</time></trkpt><trkpt lat="44.80145016392561" lon="11.78013480221889"><ele>2.0</ele><time>2026-04-11T12:06:02.999Z</time></trkpt><trkpt lat="44.80152032968553" lon="11.779794400500395"><ele>3.0</ele><time>2026-04-11T12:06:03.999Z</time></trkpt><trkpt lat="44.80158287895384" lon="11.77948277528665"><ele>3.333333333333333</ele><time>2026-04-11T12:06:04.999Z</time></trkpt><trkpt lat="44.801642917884564" lon="11.779197376213244"><ele>3.6666666666666665</ele><time>2026-04-11T12:06:05.999Z</time></trkpt><trkpt lat="44.80169561952974" lon="11.778932436064379"><ele>4.0</ele><time>2026-04-11T12:06:06.999Z</time></trkpt><trkpt lat="44.801747363566776" lon="11.778674665737748"><ele>4.333333333333333</ele><time>2026-04-11T12:06:07.999Z</time></trkpt><trkpt lat="44.801784112278845" lon="11.778409139535615"><ele>4.666666666666667</ele><time>2026-04-11T12:06:08.999Z</time></trkpt><trkpt lat="44.801782608854374" lon="11.778142734396317"><ele>5.0</ele><time>2026-04-11T12:06:09.999Z</time></trkpt><trkpt lat="44.80174642582936" lon="11.777878988216983"><ele>5.0</ele><time>2026-04-11T12:06:10.999Z</time></trkpt><trkpt lat="44.80168424577789" lon="11.777614865217371"><ele>5.0</ele><time>2026-04-11T12:06:11.999Z</time></trkpt><trkpt lat="44.80161626389993" lon="11.777349814117102"><ele>5.0</ele><time>2026-04-11T12:06:12.999Z</time></trkpt><trkpt lat="44.801549117326225" lon="11.777063714716624"><ele>5.0</ele><time>2026-04-11T12:06:13.999Z</time></trkpt><trkpt lat="44.801508351557" lon="11.776765311193657"><ele>5.0</ele><time>2026-04-11T12:06:14.999Z</time></trkpt><trkpt lat="44.80145618589639" lon="11.776482488657406"><ele>5.0</ele><time>2026-04-11T12:06:15.999Z</time></trkpt><trkpt lat="44.80147169416786" lon="11.776172047455944"><ele>5.333333333333334</ele><time>2026-04-11T12:06:16.999Z</time></trkpt><trkpt lat="44.80145936258525" lon="11.775879054775485"><ele>5.666666666666667</ele><time>2026-04-11T12:06:17.999Z</time></trkpt><trkpt lat="44.801497536967126" lon="11.775579265857566"><ele>6.0</ele><time>2026-04-11T12:06:18.999Z</time></trkpt><trkpt lat="44.801536045202674" lon="11.775288108669521"><ele>6.0</ele><time>2026-04-11T12:06:19.999Z</time></trkpt><trkpt lat="44.80158002179948" lon="11.775018033527529"><ele>6.0</ele><time>2026-04-11T12:06:20.999Z</time></trkpt><trkpt lat="44.80162302820224" lon="11.774770257916018"><ele>6.0</ele><time>2026-04-11T12:06:21.999Z</time></trkpt><trkpt lat="44.80167199869523" lon="11.77453213576597"><ele>5.333333333333333</ele><time>2026-04-11T12:06:22.999Z</time></trkpt><trkpt lat="44.801740141835786" lon="11.774297941064344"><ele>4.666666666666666</ele><time>2026-04-11T12:06:23.999Z</time></trkpt><trkpt lat="44.80182971649263" lon="11.774075154708456"><ele>4.0</ele><time>2026-04-11T12:06:24.999Z</time></trkpt><trkpt lat="44.80194981904769" lon="11.773857850116569"><ele>3.5</ele><time>2026-04-11T12:06:25.999Z</time></trkpt><trkpt lat="44.80209146337206" lon="11.773628224482412"><ele>3.0</ele><time>2026-04-11T12:06:26.999Z</time></trkpt><trkpt lat="44.802247483548356" lon="11.773376279903026"><ele>3.0</ele><time>2026-04-11T12:06:27.999Z</time></trkpt><trkpt lat="44.80241822192616" lon="11.773099066450733"><ele>3.0</ele><time>2026-04-11T12:06:28.999Z</time></trkpt><trkpt lat="44.80260355714629" lon="11.772824311029163"><ele>3.0</ele><time>2026-04-11T12:06:29.999Z</time></trkpt><trkpt lat="44.802804975438505" lon="11.772548965444027"><ele>3.0</ele><time>2026-04-11T12:06:30.999Z</time></trkpt><trkpt lat="44.80300313489826" lon="11.77227611882103"><ele>3.0</ele><time>2026-04-11T12:06:31.999Z</time></trkpt><trkpt lat="44.80319296268024" lon="11.772011305670445"><ele>3.0</ele><time>2026-04-11T12:06:32.999Z</time></trkpt><trkpt lat="44.80336564621036" lon="11.771770221838056"><ele>3.0</ele><time>2026-04-11T12:06:33.999Z</time></trkpt><trkpt lat="44.803527465379716" lon="11.771519100399654"><ele>3.0</ele><time>2026-04-11T12:06:34.999Z</time></trkpt><trkpt lat="44.803672945079114" lon="11.771240801169794"><ele>3.0</ele><time>2026-04-11T12:06:35.999Z</time></trkpt><trkpt lat="44.80380446925917" lon="11.770931242148311"><ele>3.0</ele><time>2026-04-11T12:06:36.999Z</time></trkpt><trkpt lat="44.80392429111531" lon="11.770611146177261"><ele>3.0</ele><time>2026-04-11T12:06:37.999Z</time></trkpt><trkpt lat="44.80404028679895" lon="11.77028210059611"><ele>3.0</ele><time>2026-04-11T12:06:38.999Z</time></trkpt><trkpt lat="44.80414012110485" lon="11.769946602034445"><ele>3.0</ele><time>2026-04-11T12:06:39.999Z</time></trkpt><trkpt lat="44.804241990244044" lon="11.769609105391485"><ele>3.0</ele><time>2026-04-11T12:06:40.999Z</time></trkpt><trkpt lat="44.804340499671234" lon="11.769272461981544"><ele>3.0</ele><time>2026-04-11T12:06:41.999Z</time></trkpt><trkpt lat="44.80443576939533" lon="11.768934654711662"><ele>3.0</ele><time>2026-04-11T12:06:42.999Z</time></trkpt><trkpt lat="44.804529062619594" lon="11.768589591488848"><ele>2.5</ele><time>2026-04-11T12:06:43.999Z</time></trkpt><trkpt lat="44.80461725235469" lon="11.768258311515783"><ele>2.0</ele><time>2026-04-11T12:06:44.999Z</time></trkpt><trkpt lat="44.80469094852733" lon="11.767943303493963"><ele>2.333333333333333</ele><time>2026-04-11T12:06:45.999Z</time></trkpt><trkpt lat="44.80476572912934" lon="11.767650008543612"><ele>2.6666666666666665</ele><time>2026-04-11T12:06:46.999Z</time></trkpt><trkpt lat="44.804840706342674" lon="11.767375547027633"><ele>3.0</ele><time>2026-04-11T12:06:47.999Z</time></trkpt><trkpt lat="44.80494505967247" lon="11.767131296732511"><ele>3.0</ele><time>2026-04-11T12:06:48.999Z</time></trkpt><trkpt lat="44.80507512804647" lon="11.76689429964507"><ele>3.0</ele><time>2026-04-11T12:06:49.999Z</time></trkpt><trkpt lat="44.80520939997067" lon="11.76666027049745"><ele>3.0</ele><time>2026-04-11T12:06:50.999Z</time></trkpt><trkpt lat="44.80533529546403" lon="11.766428144527755"><ele>3.0</ele><time>2026-04-11T12:06:52Z</time></trkpt><trkpt lat="44.805430291038604" lon="11.766207114972621"><ele>3.0</ele><time>2026-04-11T12:06:53.001Z</time></trkpt><trkpt lat="44.80549462318527" lon="11.765974387203771"><ele>3.0</ele><time>2026-04-11T12:06:54.001Z</time></trkpt><trkpt lat="44.80553535330474" lon="11.76571951642124"><ele>3.666666666666667</ele><time>2026-04-11T12:06:55.001Z</time></trkpt><trkpt lat="44.80553200683525" lon="11.765440928154467"><ele>4.333333333333334</ele><time>2026-04-11T12:06:56.001Z</time></trkpt><trkpt lat="44.8054883413448" lon="11.765120550427548"><ele>5.0</ele><time>2026-04-11T12:06:57.001Z</time></trkpt><trkpt lat="44.8054617821272" lon="11.764775132068003"><ele>5.0</ele><time>2026-04-11T12:06:58Z</time></trkpt><trkpt lat="44.8054313881301" lon="11.764480910640883"><ele>5.0</ele><time>2026-04-11T12:06:59Z</time></trkpt><trkpt lat="44.80535766960838" lon="11.764201823051192"><ele>5.0</ele><time>2026-04-11T12:07:00Z</time></trkpt><trkpt lat="44.805258635014056" lon="11.763933306245312"><ele>4.666666666666667</ele><time>2026-04-11T12:07:01.001Z</time></trkpt><trkpt lat="44.80515668876463" lon="11.76365645018045"><ele>4.333333333333333</ele><time>2026-04-11T12:07:02Z</time></trkpt><trkpt lat="44.805061220685715" lon="11.763380712755673"><ele>4.0</ele><time>2026-04-11T12:07:03Z</time></trkpt><trkpt lat="44.804978908389025" lon="11.763117937849586"><ele>4.0</ele><time>2026-04-11T12:07:04Z</time></trkpt><trkpt lat="44.804915379338496" lon="11.762849597234858"><ele>4.0</ele><time>2026-04-11T12:07:05Z</time></trkpt><trkpt lat="44.8048857900167" lon="11.762585922965771"><ele>4.0</ele><time>2026-04-11T12:07:06Z</time></trkpt><trkpt lat="44.80489579429991" lon="11.76231546574659"><ele>3.6666666666666665</ele><time>2026-04-11T12:07:07Z</time></trkpt><trkpt lat="44.80493145394814" lon="11.762052457007504"><ele>3.333333333333333</ele><time>2026-04-11T12:07:08Z</time></trkpt><trkpt lat="44.80501384674558" lon="11.761757257946524"><ele>3.0</ele><time>2026-04-11T12:07:09Z</time></trkpt><trkpt lat="44.80509948102715" lon="11.761442406682328"><ele>3.0</ele><time>2026-04-11T12:07:10Z</time></trkpt><trkpt lat="44.80518629161351" lon="11.76111155244119"><ele>3.0</ele><time>2026-04-11T12:07:11Z</time></trkpt><trkpt lat="44.80527706168803" lon="11.760773101948685"><ele>3.0</ele><time>2026-04-11T12:07:12Z</time></trkpt><trkpt lat="44.80537137610915" lon="11.760432969674353"><ele>3.0</ele><time>2026-04-11T12:07:13Z</time></trkpt><trkpt lat="44.80547049152985" lon="11.760085493848782"><ele>2.0</ele><time>2026-04-11T12:07:14Z</time></trkpt><trkpt lat="44.8055793251202" lon="11.759748123537008"><ele>1.0</ele><time>2026-04-11T12:07:15Z</time></trkpt><trkpt lat="44.80569489151245" lon="11.759426318078052"><ele>2.0</ele><time>2026-04-11T12:07:16Z</time></trkpt><trkpt lat="44.80582162272175" lon="11.759108323560191"><ele>3.0</ele><time>2026-04-11T12:07:17Z</time></trkpt><trkpt lat="44.80595067170602" lon="11.758795200605366"><ele>3.0</ele><time>2026-04-11T12:07:18Z</time></trkpt><trkpt lat="44.806083816396686" lon="11.758494069184668"><ele>3.0</ele><time>2026-04-11T12:07:19Z</time></trkpt><trkpt lat="44.80621094318581" lon="11.758202108216482"><ele>3.0</ele><time>2026-04-11T12:07:20Z</time></trkpt><trkpt lat="44.80635505563007" lon="11.757938125879638"><ele>3.0</ele><time>2026-04-11T12:07:21Z</time></trkpt><trkpt lat="44.806477713455166" lon="11.757661564241355"><ele>3.5</ele><time>2026-04-11T12:07:22Z</time></trkpt><trkpt lat="44.80658568315072" lon="11.757375065591017"><ele>4.0</ele><time>2026-04-11T12:07:23Z</time></trkpt><trkpt lat="44.80670760805715" lon="11.757105100520874"><ele>4.333333333333333</ele><time>2026-04-11T12:07:24Z</time></trkpt><trkpt lat="44.806813075799504" lon="11.756856337427086"><ele>4.666666666666667</ele><time>2026-04-11T12:07:25Z</time></trkpt><trkpt lat="44.80690030125353" lon="11.756574869660083"><ele>5.0</ele><time>2026-04-11T12:07:26Z</time></trkpt><trkpt lat="44.80696268516498" lon="11.756302832381598"><ele>4.333333333333334</ele><time>2026-04-11T12:07:27Z</time></trkpt><trkpt lat="44.806992033826745" lon="11.756041978385166"><ele>3.666666666666667</ele><time>2026-04-11T12:07:28Z</time></trkpt><trkpt lat="44.807009137773335" lon="11.75577998813253"><ele>3.0</ele><time>2026-04-11T12:07:29Z</time></trkpt><trkpt lat="44.80700204419998" lon="11.755519843087624"><ele>3.0</ele><time>2026-04-11T12:07:30Z</time></trkpt><trkpt lat="44.80698459115596" lon="11.755300495895268"><ele>3.0</ele><time>2026-04-11T12:07:31Z</time></trkpt><trkpt lat="44.806961067840675" lon="11.755105712636544"><ele>3.0</ele><time>2026-04-11T12:07:32Z</time></trkpt><trkpt lat="44.806937966798685" lon="11.754944788577413"><ele>3.0</ele><time>2026-04-11T12:07:33Z</time></trkpt><trkpt lat="44.806923434369686" lon="11.754821298451755"><ele>3.0</ele><time>2026-04-11T12:07:34Z</time></trkpt><trkpt lat="44.806911952388845" lon="11.75472415426348"><ele>3.0</ele><time>2026-04-11T12:07:35Z</time></trkpt><trkpt lat="44.806901304470614" lon="11.75455865728624"><ele>3.0</ele><time>2026-04-11T12:07:37Z</time></trkpt><trkpt lat="44.80688155874716" lon="11.754356238866269"><ele>3.0</ele><time>2026-04-11T12:07:39Z</time></trkpt><trkpt lat="44.806895508279986" lon="11.754196072766959"><ele>3.0</ele><time>2026-04-11T12:07:40Z</time></trkpt><trkpt lat="44.80688136344789" lon="11.753990346868067"><ele>3.0</ele><time>2026-04-11T12:07:41Z</time></trkpt><trkpt lat="44.80686465823573" lon="11.753747382079556"><ele>3.0</ele><time>2026-04-11T12:07:42Z</time></trkpt><trkpt lat="44.80683703353302" lon="11.753500857363273"><ele>3.0</ele><time>2026-04-11T12:07:43Z</time></trkpt><trkpt lat="44.80682106451317" lon="11.753222915740489"><ele>3.333333333333333</ele><time>2026-04-11T12:07:43.999Z</time></trkpt><trkpt lat="44.806799502209685" lon="11.752925468461449"><ele>3.6666666666666665</ele><time>2026-04-11T12:07:44.999Z</time></trkpt><trkpt lat="44.80677832607345" lon="11.752610568670075"><ele>4.0</ele><time>2026-04-11T12:07:45.999Z</time></trkpt><trkpt lat="44.80675732404479" lon="11.75228310924452"><ele>4.0</ele><time>2026-04-11T12:07:46.999Z</time></trkpt><trkpt lat="44.8067354680967" lon="11.751952560277218"><ele>4.0</ele><time>2026-04-11T12:07:47.999Z</time></trkpt><trkpt lat="44.8067124109405" lon="11.751619474106548"><ele>4.5</ele><time>2026-04-11T12:07:48.999Z</time></trkpt><trkpt lat="44.806690100720324" lon="11.751283721610779"><ele>5.0</ele><time>2026-04-11T12:07:49.999Z</time></trkpt><trkpt lat="44.80666831862186" lon="11.750941538130803"><ele>5.5</ele><time>2026-04-11T12:07:50.999Z</time></trkpt><trkpt lat="44.806640732499076" lon="11.750614212980658"><ele>6.0</ele><time>2026-04-11T12:07:51.999Z</time></trkpt><trkpt lat="44.80661668345262" lon="11.750298869483279"><ele>5.333333333333333</ele><time>2026-04-11T12:07:52.999Z</time></trkpt><trkpt lat="44.80659809179862" lon="11.749998038510792"><ele>4.666666666666666</ele><time>2026-04-11T12:07:53.999Z</time></trkpt><trkpt lat="44.80657865011387" lon="11.749698229968129"><ele>4.0</ele><time>2026-04-11T12:07:54.999Z</time></trkpt><trkpt lat="44.80656054199824" lon="11.749402242689168"><ele>4.333333333333333</ele><time>2026-04-11T12:07:55.999Z</time></trkpt><trkpt lat="44.80653979770788" lon="11.749114069272913"><ele>4.666666666666667</ele><time>2026-04-11T12:07:56.999Z</time></trkpt><trkpt lat="44.80652648992776" lon="11.7488175540005"><ele>5.0</ele><time>2026-04-11T12:07:57.999Z</time></trkpt><trkpt lat="44.80651577843418" lon="11.748520585294633"><ele>5.0</ele><time>2026-04-11T12:07:58.999Z</time></trkpt><trkpt lat="44.806501987217494" lon="11.74823547476034"><ele>5.0</ele><time>2026-04-11T12:07:59.999Z</time></trkpt><trkpt lat="44.80648653475742" lon="11.747953080137858"><ele>5.0</ele><time>2026-04-11T12:08:00.999Z</time></trkpt><trkpt lat="44.80646824876546" lon="11.747671267010244"><ele>5.0</ele><time>2026-04-11T12:08:01.999Z</time></trkpt><trkpt lat="44.80644748402199" lon="11.747386773078711"><ele>5.0</ele><time>2026-04-11T12:08:02.999Z</time></trkpt><trkpt lat="44.806424713523946" lon="11.747119655958137"><ele>5.0</ele><time>2026-04-11T12:08:03.999Z</time></trkpt><trkpt lat="44.80640680675771" lon="11.746848234802904"><ele>5.0</ele><time>2026-04-11T12:08:04.999Z</time></trkpt><trkpt lat="44.80639567516755" lon="11.746576517054358"><ele>5.0</ele><time>2026-04-11T12:08:05.999Z</time></trkpt><trkpt lat="44.806374139478194" lon="11.746302067484764"><ele>5.0</ele><time>2026-04-11T12:08:06.999Z</time></trkpt><trkpt lat="44.80635469055384" lon="11.746028199830633"><ele>5.0</ele><time>2026-04-11T12:08:07.999Z</time></trkpt><trkpt lat="44.80633096596191" lon="11.745761301472006"><ele>5.0</ele><time>2026-04-11T12:08:08.999Z</time></trkpt><trkpt lat="44.80630561983432" lon="11.745504358986498"><ele>5.0</ele><time>2026-04-11T12:08:09.999Z</time></trkpt><trkpt lat="44.80628460610378" lon="11.74524247881105"><ele>4.666666666666667</ele><time>2026-04-11T12:08:10.999Z</time></trkpt><trkpt lat="44.80626543037486" lon="11.744981107748695"><ele>4.333333333333333</ele><time>2026-04-11T12:08:11.999Z</time></trkpt><trkpt lat="44.806247415044126" lon="11.744727855801456"><ele>4.0</ele><time>2026-04-11T12:08:12.999Z</time></trkpt><trkpt lat="44.80623191375342" lon="11.744491046419117"><ele>4.0</ele><time>2026-04-11T12:08:13.999Z</time></trkpt><trkpt lat="44.80621348721232" lon="11.744264084884387"><ele>4.0</ele><time>2026-04-11T12:08:14.999Z</time></trkpt><trkpt lat="44.80619066847584" lon="11.744043293950966"><ele>4.0</ele><time>2026-04-11T12:08:15.999Z</time></trkpt><trkpt lat="44.80616950503063" lon="11.743814993749783"><ele>4.0</ele><time>2026-04-11T12:08:16.999Z</time></trkpt><trkpt lat="44.8061524943096" lon="11.743589715223962"><ele>4.0</ele><time>2026-04-11T12:08:17.999Z</time></trkpt><trkpt lat="44.80616252731375" lon="11.743363568056683"><ele>4.0</ele><time>2026-04-11T12:08:18.999Z</time></trkpt><trkpt lat="44.80614546045918" lon="11.74315135798788"><ele>3.6666666666666665</ele><time>2026-04-11T12:08:19.999Z</time></trkpt><trkpt lat="44.80612920581477" lon="11.742936346294924"><ele>3.333333333333333</ele><time>2026-04-11T12:08:20.999Z</time></trkpt><trkpt lat="44.80611083855456" lon="11.742724786578073"><ele>3.0</ele><time>2026-04-11T12:08:21.999Z</time></trkpt><trkpt lat="44.80609511903722" lon="11.74251343902336"><ele>3.0</ele><time>2026-04-11T12:08:22.999Z</time></trkpt><trkpt lat="44.80608173132072" lon="11.742295606872569"><ele>3.0</ele><time>2026-04-11T12:08:23.999Z</time></trkpt><trkpt lat="44.80606929672523" lon="11.742077895884066"><ele>3.0</ele><time>2026-04-11T12:08:24.999Z</time></trkpt><trkpt lat="44.80605368344467" lon="11.74185958813941"><ele>3.25</ele><time>2026-04-11T12:08:25.999Z</time></trkpt><trkpt lat="44.80603980643397" lon="11.741650112039316"><ele>3.5</ele><time>2026-04-11T12:08:26.999Z</time></trkpt><trkpt lat="44.80602530165777" lon="11.741448472011523"><ele>3.75</ele><time>2026-04-11T12:08:27.999Z</time></trkpt><trkpt lat="44.80601275762064" lon="11.741260952122877"><ele>4.0</ele><time>2026-04-11T12:08:28.999Z</time></trkpt><trkpt lat="44.80599863960285" lon="11.741073999870247"><ele>4.75</ele><time>2026-04-11T12:08:29.999Z</time></trkpt><trkpt lat="44.80597193013312" lon="11.740887145110548"><ele>5.5</ele><time>2026-04-11T12:08:30.999Z</time></trkpt><trkpt lat="44.80593505498688" lon="11.740709629948732"><ele>6.25</ele><time>2026-04-11T12:08:31.999Z</time></trkpt><trkpt lat="44.80588768985298" lon="11.740539559707472"><ele>7.0</ele><time>2026-04-11T12:08:32.999Z</time></trkpt><trkpt lat="44.805827020292476" lon="11.740370863785664"><ele>7.0</ele><time>2026-04-11T12:08:33.999Z</time></trkpt><trkpt lat="44.80576161951897" lon="11.740206205422357"><ele>7.0</ele><time>2026-04-11T12:08:34.999Z</time></trkpt><trkpt lat="44.805697578616645" lon="11.740049293885605"><ele>7.0</ele><time>2026-04-11T12:08:35.999Z</time></trkpt><trkpt lat="44.805634346397575" lon="11.739902941056098"><ele>7.0</ele><time>2026-04-11T12:08:36.999Z</time></trkpt><trkpt lat="44.80558146143187" lon="11.73975383992572"><ele>7.0</ele><time>2026-04-11T12:08:37.999Z</time></trkpt><trkpt lat="44.80553994426302" lon="11.73958910037366"><ele>7.0</ele><time>2026-04-11T12:08:38.999Z</time></trkpt><trkpt lat="44.80550908529715" lon="11.739419678772318"><ele>7.0</ele><time>2026-04-11T12:08:39.999Z</time></trkpt><trkpt lat="44.80549785765214" lon="11.739251766951362"><ele>7.0</ele><time>2026-04-11T12:08:40.999Z</time></trkpt><trkpt lat="44.80549358644829" lon="11.739084396620088"><ele>6.6</ele><time>2026-04-11T12:08:41.999Z</time></trkpt><trkpt lat="44.80549484056005" lon="11.738922882530026"><ele>6.199999999999999</ele><time>2026-04-11T12:08:42.999Z</time></trkpt><trkpt lat="44.805514338475675" lon="11.738784517545987"><ele>5.8</ele><time>2026-04-11T12:08:43.999Z</time></trkpt><trkpt lat="44.80555236501138" lon="11.738658428049437"><ele>5.4</ele><time>2026-04-11T12:08:44.999Z</time></trkpt><trkpt lat="44.805569355761484" lon="11.738555169128611"><ele>5.0</ele><time>2026-04-11T12:08:45.999Z</time></trkpt><trkpt lat="44.80561915842526" lon="11.738440753142754"><ele>5.0</ele><time>2026-04-11T12:08:47.999Z</time></trkpt><trkpt lat="44.8056498753496" lon="11.738312236981841"><ele>5.0</ele><time>2026-04-11T12:09:57Z</time></trkpt><trkpt lat="44.805664427687965" lon="11.738185523009049"><ele>5.0</ele><time>2026-04-11T12:09:59Z</time></trkpt><trkpt lat="44.80569239239194" lon="11.738075189889258"><ele>5.0</ele><time>2026-04-11T12:10:00Z</time></trkpt><trkpt lat="44.80574946088231" lon="11.737952224207076"><ele>5.0</ele><time>2026-04-11T12:10:01Z</time></trkpt><trkpt lat="44.80581049435755" lon="11.73783351211425"><ele>5.0</ele><time>2026-04-11T12:10:02Z</time></trkpt><trkpt lat="44.80587006133389" lon="11.737689656044502"><ele>5.0</ele><time>2026-04-11T12:10:03Z</time></trkpt><trkpt lat="44.805942146657955" lon="11.737551058803914"><ele>5.0</ele><time>2026-04-11T12:10:04Z</time></trkpt><trkpt lat="44.80601392840991" lon="11.737386639582589"><ele>5.0</ele><time>2026-04-11T12:10:05Z</time></trkpt><trkpt lat="44.80608730742306" lon="11.737211430948081"><ele>5.0</ele><time>2026-04-11T12:10:06Z</time></trkpt><trkpt lat="44.80615162381884" lon="11.737058228447856"><ele>5.0</ele><time>2026-04-11T12:10:07Z</time></trkpt><trkpt lat="44.8062158016537" lon="11.73689615877575"><ele>5.0</ele><time>2026-04-11T12:10:08Z</time></trkpt><trkpt lat="44.80629881491476" lon="11.736715316890887"><ele>5.0</ele><time>2026-04-11T12:10:09Z</time></trkpt><trkpt lat="44.80639380113793" lon="11.736490380227675"><ele>6.0</ele><time>2026-04-11T12:10:09.999Z</time></trkpt><trkpt lat="44.806487771678" lon="11.736247352336752"><ele>7.0</ele><time>2026-04-11T12:10:10.999Z</time></trkpt><trkpt lat="44.806588195056314" lon="11.73599145661256"><ele>8.0</ele><time>2026-04-11T12:10:11.999Z</time></trkpt><trkpt lat="44.80669726168267" lon="11.735750417056083"><ele>8.0</ele><time>2026-04-11T12:10:12.999Z</time></trkpt><trkpt lat="44.80678898787745" lon="11.73551594656061"><ele>8.0</ele><time>2026-04-11T12:10:13.999Z</time></trkpt><trkpt lat="44.80687680208036" lon="11.735289105742034"><ele>8.0</ele><time>2026-04-11T12:10:14.999Z</time></trkpt><trkpt lat="44.80695966885331" lon="11.735088372273827"><ele>8.0</ele><time>2026-04-11T12:10:15.999Z</time></trkpt><trkpt lat="44.80701954601591" lon="11.734907668912841"><ele>8.0</ele><time>2026-04-11T12:10:16.999Z</time></trkpt><trkpt lat="44.807058975494535" lon="11.734702957644812"><ele>8.0</ele><time>2026-04-11T12:10:17.999Z</time></trkpt><trkpt lat="44.807061930369215" lon="11.734455175106698"><ele>8.5</ele><time>2026-04-11T12:10:18.999Z</time></trkpt><trkpt lat="44.80700792653652" lon="11.734159557652179"><ele>9.0</ele><time>2026-04-11T12:10:19.999Z</time></trkpt><trkpt lat="44.806925302967024" lon="11.733776769327255"><ele>7.5</ele><time>2026-04-11T12:10:20.999Z</time></trkpt><trkpt lat="44.806869749671485" lon="11.733399780887705"><ele>6.0</ele><time>2026-04-11T12:10:21.999Z</time></trkpt><trkpt lat="44.80680430473781" lon="11.733032431943785"><ele>6.0</ele><time>2026-04-11T12:10:22.999Z</time></trkpt><trkpt lat="44.80674732683666" lon="11.732653450141663"><ele>6.0</ele><time>2026-04-11T12:10:23.999Z</time></trkpt><trkpt lat="44.806694842092256" lon="11.732275825051884"><ele>6.0</ele><time>2026-04-11T12:10:24.999Z</time></trkpt><trkpt lat="44.80663989668044" lon="11.731904752347523"><ele>6.0</ele><time>2026-04-11T12:10:25.999Z</time></trkpt><trkpt lat="44.80658322947067" lon="11.731539303162013"><ele>6.0</ele><time>2026-04-11T12:10:26.999Z</time></trkpt><trkpt lat="44.806530526090356" lon="11.731180847334675"><ele>6.0</ele><time>2026-04-11T12:10:27.999Z</time></trkpt><trkpt lat="44.80648144129971" lon="11.730832848691138"><ele>6.0</ele><time>2026-04-11T12:10:28.999Z</time></trkpt><trkpt lat="44.80643034909406" lon="11.730509142880369"><ele>6.0</ele><time>2026-04-11T12:10:29.999Z</time></trkpt><trkpt lat="44.806375278292855" lon="11.73017685320935"><ele>5.5</ele><time>2026-04-11T12:10:30.999Z</time></trkpt><trkpt lat="44.80632148775548" lon="11.729852802910004"><ele>5.0</ele><time>2026-04-11T12:10:31.999Z</time></trkpt><trkpt lat="44.806269586638656" lon="11.729522801722668"><ele>4.5</ele><time>2026-04-11T12:10:32.999Z</time></trkpt><trkpt lat="44.806223442715414" lon="11.72918510914919"><ele>4.0</ele><time>2026-04-11T12:10:33.999Z</time></trkpt><trkpt lat="44.80618548480611" lon="11.72884740229322"><ele>4.5</ele><time>2026-04-11T12:10:34.999Z</time></trkpt><trkpt lat="44.806174311804256" lon="11.728505848020921"><ele>5.0</ele><time>2026-04-11T12:10:35.999Z</time></trkpt><trkpt lat="44.80618127664932" lon="11.728139158870862"><ele>5.0</ele><time>2026-04-11T12:10:36.999Z</time></trkpt><trkpt lat="44.806189166085986" lon="11.727774684847365"><ele>5.0</ele><time>2026-04-11T12:10:37.999Z</time></trkpt><trkpt lat="44.80619271439878" lon="11.727403729494855"><ele>4.5</ele><time>2026-04-11T12:10:38.999Z</time></trkpt><trkpt lat="44.80619237990703" lon="11.72703945346501"><ele>4.0</ele><time>2026-04-11T12:10:39.999Z</time></trkpt><trkpt lat="44.806195290908626" lon="11.726694401697559"><ele>4.0</ele><time>2026-04-11T12:10:40.999Z</time></trkpt><trkpt lat="44.80620497966185" lon="11.726353413344135"><ele>4.0</ele><time>2026-04-11T12:10:41.999Z</time></trkpt><trkpt lat="44.80623273773538" lon="11.726013018683274"><ele>4.0</ele><time>2026-04-11T12:10:42.999Z</time></trkpt><trkpt lat="44.806273843627714" lon="11.725686140015688"><ele>4.0</ele><time>2026-04-11T12:10:43.999Z</time></trkpt><trkpt lat="44.8063194676018" lon="11.72534851029803"><ele>4.0</ele><time>2026-04-11T12:10:44.999Z</time></trkpt><trkpt lat="44.80636180210285" lon="11.725019554206163"><ele>4.0</ele><time>2026-04-11T12:10:45.999Z</time></trkpt><trkpt lat="44.806394475420774" lon="11.724694969814282"><ele>5.0</ele><time>2026-04-11T12:10:46.999Z</time></trkpt><trkpt lat="44.80640114636626" lon="11.724369744695199"><ele>6.0</ele><time>2026-04-11T12:10:47.999Z</time></trkpt><trkpt lat="44.80638021147993" lon="11.724037410936303"><ele>6.0</ele><time>2026-04-11T12:10:48.999Z</time></trkpt><trkpt lat="44.80633556659561" lon="11.723706148010743"><ele>6.0</ele><time>2026-04-11T12:10:49.999Z</time></trkpt><trkpt lat="44.80628241719614" lon="11.723397631924044"><ele>5.333333333333333</ele><time>2026-04-11T12:10:50.999Z</time></trkpt><trkpt lat="44.806202093244224" lon="11.723098665587385"><ele>4.666666666666666</ele><time>2026-04-11T12:10:51.999Z</time></trkpt><trkpt lat="44.80614809513804" lon="11.72280144757646"><ele>4.0</ele><time>2026-04-11T12:10:52.999Z</time></trkpt><trkpt lat="44.80608672963734" lon="11.722516475561223"><ele>6.0</ele><time>2026-04-11T12:10:53.999Z</time></trkpt><trkpt lat="44.80594657077195" lon="11.7222721187522"><ele>8.0</ele><time>2026-04-11T12:10:54.999Z</time></trkpt><trkpt lat="44.80584434868869" lon="11.721984152610968"><ele>7.0</ele><time>2026-04-11T12:10:55.999Z</time></trkpt><trkpt lat="44.80571244109802" lon="11.721726404889665"><ele>6.0</ele><time>2026-04-11T12:10:56.999Z</time></trkpt><trkpt lat="44.80558543724779" lon="11.721495503213385"><ele>5.0</ele><time>2026-04-11T12:10:57.999Z</time></trkpt><trkpt lat="44.8054615750503" lon="11.721280783605813"><ele>5.0</ele><time>2026-04-11T12:10:58.999Z</time></trkpt><trkpt lat="44.80535997430712" lon="11.721090337166519"><ele>5.0</ele><time>2026-04-11T12:10:59.999Z</time></trkpt><trkpt lat="44.80528390339544" lon="11.720911816559997"><ele>5.0</ele><time>2026-04-11T12:11:00.999Z</time></trkpt><trkpt lat="44.80523709011046" lon="11.720756852334528"><ele>5.0</ele><time>2026-04-11T12:11:01.999Z</time></trkpt><trkpt lat="44.80521854687663" lon="11.720584205897449"><ele>4.8</ele><time>2026-04-11T12:11:02.999Z</time></trkpt><trkpt lat="44.80522228426708" lon="11.720442293795791"><ele>4.6</ele><time>2026-04-11T12:11:04Z</time></trkpt><trkpt lat="44.805242597287545" lon="11.720324057574933"><ele>4.4</ele><time>2026-04-11T12:11:05.001Z</time></trkpt><trkpt lat="44.80527995420978" lon="11.720227052877766"><ele>4.2</ele><time>2026-04-11T12:11:06.001Z</time></trkpt><trkpt lat="44.805338207251054" lon="11.720135497748927"><ele>4.0</ele><time>2026-04-11T12:11:07Z</time></trkpt><trkpt lat="44.805420622200664" lon="11.720040155293605"><ele>4.0</ele><time>2026-04-11T12:11:08Z</time></trkpt><trkpt lat="44.8055281677688" lon="11.719930004652884"><ele>4.0</ele><time>2026-04-11T12:11:09Z</time></trkpt><trkpt lat="44.805661095586586" lon="11.719801829425622"><ele>4.0</ele><time>2026-04-11T12:11:10.001Z</time></trkpt><trkpt lat="44.80581645715552" lon="11.719659404494012"><ele>4.0</ele><time>2026-04-11T12:11:11Z</time></trkpt><trkpt lat="44.80598196584972" lon="11.719535123495747"><ele>4.0</ele><time>2026-04-11T12:11:12Z</time></trkpt><trkpt lat="44.80616896570667" lon="11.719430525199664"><ele>4.0</ele><time>2026-04-11T12:11:13Z</time></trkpt><trkpt lat="44.80636665415279" lon="11.719342137207098"><ele>3.5</ele><time>2026-04-11T12:11:14.001Z</time></trkpt><trkpt lat="44.806579722928234" lon="11.719251344264977"><ele>3.0</ele><time>2026-04-11T12:11:15.001Z</time></trkpt><trkpt lat="44.80680006257653" lon="11.719161799361329"><ele>2.0</ele><time>2026-04-11T12:11:16.001Z</time></trkpt><trkpt lat="44.807025711993056" lon="11.71905290760685"><ele>1.0</ele><time>2026-04-11T12:11:17.001Z</time></trkpt><trkpt lat="44.807263069149705" lon="11.718940189911061"><ele>1.0</ele><time>2026-04-11T12:11:18.001Z</time></trkpt><trkpt lat="44.80750455666382" lon="11.718825300158283"><ele>1.0</ele><time>2026-04-11T12:11:19.001Z</time></trkpt><trkpt lat="44.807755436989474" lon="11.71871345168277"><ele>1.5</ele><time>2026-04-11T12:11:20.001Z</time></trkpt><trkpt lat="44.80800649397542" lon="11.718608012208506"><ele>2.0</ele><time>2026-04-11T12:11:21.001Z</time></trkpt><trkpt lat="44.808248869762735" lon="11.718502674821261"><ele>2.0</ele><time>2026-04-11T12:11:22.001Z</time></trkpt><trkpt lat="44.808492904077774" lon="11.718391619370085"><ele>2.0</ele><time>2026-04-11T12:11:23.001Z</time></trkpt><trkpt lat="44.8087382536631" lon="11.718267785585285"><ele>2.0</ele><time>2026-04-11T12:11:24.001Z</time></trkpt><trkpt lat="44.80897323894028" lon="11.718122589044132"><ele>2.0</ele><time>2026-04-11T12:11:25.001Z</time></trkpt><trkpt lat="44.809195000243015" lon="11.717947623168026"><ele>2.0</ele><time>2026-04-11T12:11:26.001Z</time></trkpt><trkpt lat="44.80941145265124" lon="11.717754421929724"><ele>2.0</ele><time>2026-04-11T12:11:27.001Z</time></trkpt><trkpt lat="44.80961033198977" lon="11.717529234946516"><ele>2.0</ele><time>2026-04-11T12:11:28.001Z</time></trkpt><trkpt lat="44.80980295449914" lon="11.717287539514468"><ele>2.0</ele><time>2026-04-11T12:11:29.001Z</time></trkpt><trkpt lat="44.80998666740011" lon="11.717036240932773"><ele>2.5</ele><time>2026-04-11T12:11:30.001Z</time></trkpt><trkpt lat="44.810161979410786" lon="11.71674637854063"><ele>3.0</ele><time>2026-04-11T12:11:31.001Z</time></trkpt><trkpt lat="44.810328962942656" lon="11.716451317711387"><ele>3.0</ele><time>2026-04-11T12:11:32.001Z</time></trkpt><trkpt lat="44.810494667618805" lon="11.716146662778433"><ele>3.0</ele><time>2026-04-11T12:11:33.001Z</time></trkpt><trkpt lat="44.81065941258843" lon="11.715843446707138"><ele>3.5</ele><time>2026-04-11T12:11:34.001Z</time></trkpt><trkpt lat="44.8108254481776" lon="11.715542267119796"><ele>4.0</ele><time>2026-04-11T12:11:35.001Z</time></trkpt><trkpt lat="44.81097649003908" lon="11.715246921004091"><ele>4.0</ele><time>2026-04-11T12:11:36.001Z</time></trkpt><trkpt lat="44.81112261064596" lon="11.71496785974403"><ele>4.0</ele><time>2026-04-11T12:11:37.001Z</time></trkpt><trkpt lat="44.81126760166179" lon="11.71468847948239"><ele>4.0</ele><time>2026-04-11T12:11:38.001Z</time></trkpt><trkpt lat="44.81141300402007" lon="11.7144209254905"><ele>4.0</ele><time>2026-04-11T12:11:39.001Z</time></trkpt><trkpt lat="44.81155609931432" lon="11.714151836340763"><ele>3.5</ele><time>2026-04-11T12:11:40.001Z</time></trkpt><trkpt lat="44.81169608754359" lon="11.713871133218056"><ele>3.0</ele><time>2026-04-11T12:11:41.001Z</time></trkpt><trkpt lat="44.81183417028849" lon="11.713608959547328"><ele>4.333333333333334</ele><time>2026-04-11T12:11:42.001Z</time></trkpt><trkpt lat="44.81197117506699" lon="11.713349213654029"><ele>5.666666666666667</ele><time>2026-04-11T12:11:43.001Z</time></trkpt><trkpt lat="44.81210164412173" lon="11.713106300494605"><ele>7.0</ele><time>2026-04-11T12:11:44Z</time></trkpt><trkpt lat="44.81222539687936" lon="11.71287367874325"><ele>6.333333333333334</ele><time>2026-04-11T12:11:45Z</time></trkpt><trkpt lat="44.812345910127526" lon="11.71263897259526"><ele>5.666666666666667</ele><time>2026-04-11T12:11:46Z</time></trkpt><trkpt lat="44.812466192111536" lon="11.712404177112743"><ele>5.0</ele><time>2026-04-11T12:11:47Z</time></trkpt><trkpt lat="44.8125798648092" lon="11.712178258156067"><ele>5.333333333333334</ele><time>2026-04-11T12:11:48Z</time></trkpt><trkpt lat="44.81269593357131" lon="11.711956037004166"><ele>5.666666666666667</ele><time>2026-04-11T12:11:49Z</time></trkpt><trkpt lat="44.812824240251196" lon="11.711750437273231"><ele>6.0</ele><time>2026-04-11T12:11:50Z</time></trkpt><trkpt lat="44.81296129406879" lon="11.711566125344824"><ele>6.0</ele><time>2026-04-11T12:11:51Z</time></trkpt><trkpt lat="44.81310358488523" lon="11.711399685150822"><ele>6.0</ele><time>2026-04-11T12:11:52Z</time></trkpt><trkpt lat="44.81325454030879" lon="11.711258899674057"><ele>6.0</ele><time>2026-04-11T12:11:53Z</time></trkpt><trkpt lat="44.81340877348735" lon="11.711126425729471"><ele>5.666666666666667</ele><time>2026-04-11T12:11:54Z</time></trkpt><trkpt lat="44.81356490738768" lon="11.71100756182573"><ele>5.333333333333334</ele><time>2026-04-11T12:11:55Z</time></trkpt><trkpt lat="44.81373293465306" lon="11.710914900605173"><ele>5.0</ele><time>2026-04-11T12:11:56Z</time></trkpt><trkpt lat="44.81391417961795" lon="11.7108311553603"><ele>5.0</ele><time>2026-04-11T12:11:57Z</time></trkpt><trkpt lat="44.814103943697525" lon="11.710768494771202"><ele>5.0</ele><time>2026-04-11T12:11:58Z</time></trkpt><trkpt lat="44.81429686960687" lon="11.710738105169485"><ele>5.0</ele><time>2026-04-11T12:11:59Z</time></trkpt><trkpt lat="44.81448037693233" lon="11.710718161578423"><ele>5.0</ele><time>2026-04-11T12:12:00Z</time></trkpt><trkpt lat="44.814662118895" lon="11.71071212079271"><ele>5.0</ele><time>2026-04-11T12:12:01Z</time></trkpt><trkpt lat="44.814865676245724" lon="11.71073327116881"><ele>5.0</ele><time>2026-04-11T12:12:02Z</time></trkpt><trkpt lat="44.8150854068842" lon="11.710767211188363"><ele>4.0</ele><time>2026-04-11T12:12:03Z</time></trkpt><trkpt lat="44.815322897355934" lon="11.710820280238702"><ele>3.0</ele><time>2026-04-11T12:12:04Z</time></trkpt><trkpt lat="44.815592592769285" lon="11.710875549219447"><ele>3.0</ele><time>2026-04-11T12:12:05Z</time></trkpt><trkpt lat="44.81586896966444" lon="11.710932078563207"><ele>3.0</ele><time>2026-04-11T12:12:06Z</time></trkpt><trkpt lat="44.81615409170656" lon="11.710988703994627"><ele>3.5</ele><time>2026-04-11T12:12:07Z</time></trkpt><trkpt lat="44.816428476904676" lon="11.711068422688145"><ele>4.0</ele><time>2026-04-11T12:12:08Z</time></trkpt><trkpt lat="44.8167069411403" lon="11.711143833930487"><ele>4.0</ele><time>2026-04-11T12:12:09Z</time></trkpt><trkpt lat="44.81699738534839" lon="11.711188590022957"><ele>4.0</ele><time>2026-04-11T12:12:10Z</time></trkpt><trkpt lat="44.81729008133337" lon="11.711231684577003"><ele>4.0</ele><time>2026-04-11T12:12:11Z</time></trkpt><trkpt lat="44.81757123266388" lon="11.71124560605158"><ele>4.0</ele><time>2026-04-11T12:12:12Z</time></trkpt><trkpt lat="44.8178503976786" lon="11.7112459852117"><ele>4.0</ele><time>2026-04-11T12:12:13Z</time></trkpt><trkpt lat="44.818146061970175" lon="11.711232291207052"><ele>4.0</ele><time>2026-04-11T12:12:14Z</time></trkpt><trkpt lat="44.818445786044094" lon="11.711200967048228"><ele>4.0</ele><time>2026-04-11T12:12:15Z</time></trkpt><trkpt lat="44.818761888199184" lon="11.711163257451053"><ele>4.0</ele><time>2026-04-11T12:12:16Z</time></trkpt><trkpt lat="44.819079044954435" lon="11.711132253971316"><ele>4.5</ele><time>2026-04-11T12:12:17Z</time></trkpt><trkpt lat="44.81938352063812" lon="11.711100561865251"><ele>5.0</ele><time>2026-04-11T12:12:18Z</time></trkpt><trkpt lat="44.81970465741817" lon="11.71107890394506"><ele>4.5</ele><time>2026-04-11T12:12:19Z</time></trkpt><trkpt lat="44.82001644286132" lon="11.71105360217708"><ele>4.0</ele><time>2026-04-11T12:12:20Z</time></trkpt><trkpt lat="44.82032271924838" lon="11.71102804917605"><ele>4.0</ele><time>2026-04-11T12:12:21Z</time></trkpt><trkpt lat="44.82063040016296" lon="11.711005273656069"><ele>4.0</ele><time>2026-04-11T12:12:22Z</time></trkpt><trkpt lat="44.82092222756199" lon="11.710983493315807"><ele>4.5</ele><time>2026-04-11T12:12:23Z</time></trkpt><trkpt lat="44.82122381514944" lon="11.710952387954018"><ele>5.0</ele><time>2026-04-11T12:12:24Z</time></trkpt><trkpt lat="44.821515990768354" lon="11.71094484181076"><ele>5.5</ele><time>2026-04-11T12:12:25Z</time></trkpt><trkpt lat="44.821815652439156" lon="11.710936297799309"><ele>6.0</ele><time>2026-04-11T12:12:26Z</time></trkpt><trkpt lat="44.82210578421213" lon="11.710931286756136"><ele>6.0</ele><time>2026-04-11T12:12:27Z</time></trkpt><trkpt lat="44.822402369573" lon="11.710940342785747"><ele>6.0</ele><time>2026-04-11T12:12:28Z</time></trkpt><trkpt lat="44.82269837786436" lon="11.710962090688849"><ele>6.0</ele><time>2026-04-11T12:12:29Z</time></trkpt><trkpt lat="44.82298497016691" lon="11.710984641683227"><ele>6.0</ele><time>2026-04-11T12:12:30Z</time></trkpt><trkpt lat="44.82327682721834" lon="11.711010972474707"><ele>5.0</ele><time>2026-04-11T12:12:31Z</time></trkpt><trkpt lat="44.82356334178841" lon="11.711029401062678"><ele>4.0</ele><time>2026-04-11T12:12:32Z</time></trkpt><trkpt lat="44.82381618162299" lon="11.711036229196047"><ele>4.0</ele><time>2026-04-11T12:12:33Z</time></trkpt><trkpt lat="44.82406612264932" lon="11.71106138603623"><ele>4.0</ele><time>2026-04-11T12:12:34Z</time></trkpt><trkpt lat="44.824305786640124" lon="11.71107845323226"><ele>4.0</ele><time>2026-04-11T12:12:35Z</time></trkpt><trkpt lat="44.82452845356641" lon="11.711095986901396"><ele>4.0</ele><time>2026-04-11T12:12:36Z</time></trkpt><trkpt lat="44.82474090025851" lon="11.711107556594214"><ele>4.0</ele><time>2026-04-11T12:12:37Z</time></trkpt><trkpt lat="44.8249382551788" lon="11.711119894161127"><ele>4.0</ele><time>2026-04-11T12:12:38Z</time></trkpt><trkpt lat="44.82514470991061" lon="11.711125836709023"><ele>4.0</ele><time>2026-04-11T12:12:39Z</time></trkpt><trkpt lat="44.82534456294725" lon="11.711132761873712"><ele>4.0</ele><time>2026-04-11T12:12:40Z</time></trkpt><trkpt lat="44.82553521146508" lon="11.71114136532065"><ele>4.333333333333333</ele><time>2026-04-11T12:12:41Z</time></trkpt><trkpt lat="44.825704900272385" lon="11.711144678496527"><ele>4.666666666666667</ele><time>2026-04-11T12:12:42Z</time></trkpt><trkpt lat="44.82585966827943" lon="11.711160701881438"><ele>5.0</ele><time>2026-04-11T12:12:43Z</time></trkpt><trkpt lat="44.826016001098466" lon="11.711180094773445"><ele>6.0</ele><time>2026-04-11T12:12:44Z</time></trkpt><trkpt lat="44.82615685109088" lon="11.711203438619009"><ele>7.0</ele><time>2026-04-11T12:12:45Z</time></trkpt><trkpt lat="44.82628339040656" lon="11.711239136650686"><ele>8.0</ele><time>2026-04-11T12:12:46Z</time></trkpt><trkpt lat="44.82639125982155" lon="11.711267716872495"><ele>9.0</ele><time>2026-04-11T12:12:47Z</time></trkpt><trkpt lat="44.82649672419161" lon="11.711269429559758"><ele>9.0</ele><time>2026-04-11T12:12:48Z</time></trkpt><trkpt lat="44.826587442475734" lon="11.711257700780958"><ele>9.0</ele><time>2026-04-11T12:12:49Z</time></trkpt><trkpt lat="44.82669052468408" lon="11.711283884827298"><ele>9.0</ele><time>2026-04-11T12:12:50Z</time></trkpt><trkpt lat="44.826780401804996" lon="11.711349431549396"><ele>9.0</ele><time>2026-04-11T12:12:51Z</time></trkpt><trkpt lat="44.82687300308446" lon="11.711418169136037"><ele>9.0</ele><time>2026-04-11T12:12:52Z</time></trkpt><trkpt lat="44.82697497718635" lon="11.711478331933973"><ele>7.666666666666667</ele><time>2026-04-11T12:12:53Z</time></trkpt><trkpt lat="44.827106313356566" lon="11.711523306406415"><ele>6.333333333333334</ele><time>2026-04-11T12:12:54Z</time></trkpt><trkpt lat="44.82726555617164" lon="11.711546234666766"><ele>5.0</ele><time>2026-04-11T12:12:55Z</time></trkpt><trkpt lat="44.82744512248983" lon="11.711537936252325"><ele>5.0</ele><time>2026-04-11T12:12:56Z</time></trkpt><trkpt lat="44.827635628600305" lon="11.71150980436005"><ele>5.0</ele><time>2026-04-11T12:12:57Z</time></trkpt><trkpt lat="44.82783898317434" lon="11.711477019611262"><ele>5.0</ele><time>2026-04-11T12:12:58Z</time></trkpt><trkpt lat="44.82804565003539" lon="11.711465029993894"><ele>5.0</ele><time>2026-04-11T12:12:59Z</time></trkpt><trkpt lat="44.82826766850282" lon="11.71148939440654"><ele>5.0</ele><time>2026-04-11T12:13:00Z</time></trkpt><trkpt lat="44.82850635947177" lon="11.711548271821272"><ele>5.0</ele><time>2026-04-11T12:13:01Z</time></trkpt><trkpt lat="44.828753305762376" lon="11.711613794739378"><ele>5.0</ele><time>2026-04-11T12:13:02Z</time></trkpt><trkpt lat="44.82901676972767" lon="11.711681588295423"><ele>5.0</ele><time>2026-04-11T12:13:03Z</time></trkpt><trkpt lat="44.829271517718276" lon="11.711757380114841"><ele>5.0</ele><time>2026-04-11T12:13:03.999Z</time></trkpt><trkpt lat="44.82952820147739" lon="11.711816146116087"><ele>5.0</ele><time>2026-04-11T12:13:04.999Z</time></trkpt><trkpt lat="44.82978106557355" lon="11.71187885655051"><ele>5.0</ele><time>2026-04-11T12:13:05.999Z</time></trkpt><trkpt lat="44.830039868657664" lon="11.711937132010934"><ele>5.0</ele><time>2026-04-11T12:13:06.999Z</time></trkpt><trkpt lat="44.8302962574248" lon="11.711999769269621"><ele>5.0</ele><time>2026-04-11T12:13:07.999Z</time></trkpt><trkpt lat="44.83055015117881" lon="11.712055991728407"><ele>5.0</ele><time>2026-04-11T12:13:08.999Z</time></trkpt><trkpt lat="44.830793773526025" lon="11.71211369805812"><ele>5.0</ele><time>2026-04-11T12:13:10Z</time></trkpt><trkpt lat="44.8310429462665" lon="11.71215168758114"><ele>5.0</ele><time>2026-04-11T12:13:11Z</time></trkpt><trkpt lat="44.831299219468946" lon="11.712177520101427"><ele>5.0</ele><time>2026-04-11T12:13:12Z</time></trkpt><trkpt lat="44.83157215062343" lon="11.712168172787413"><ele>5.0</ele><time>2026-04-11T12:13:13Z</time></trkpt><trkpt lat="44.83183977000012" lon="11.712151333856394"><ele>5.0</ele><time>2026-04-11T12:13:14Z</time></trkpt><trkpt lat="44.83211928427284" lon="11.712139469887738"><ele>5.0</ele><time>2026-04-11T12:13:15Z</time></trkpt><trkpt lat="44.832384266188896" lon="11.712092757467092"><ele>5.0</ele><time>2026-04-11T12:13:16.001Z</time></trkpt><trkpt lat="44.83266530665553" lon="11.712052627015948"><ele>5.0</ele><time>2026-04-11T12:13:17Z</time></trkpt><trkpt lat="44.83294323986712" lon="11.712006151286078"><ele>5.0</ele><time>2026-04-11T12:13:18Z</time></trkpt><trkpt lat="44.83322443275478" lon="11.711963814271115"><ele>5.0</ele><time>2026-04-11T12:13:19Z</time></trkpt><trkpt lat="44.83350775230814" lon="11.711926478879183"><ele>5.0</ele><time>2026-04-11T12:13:20Z</time></trkpt><trkpt lat="44.833784929565816" lon="11.711892695254662"><ele>4.0</ele><time>2026-04-11T12:13:21Z</time></trkpt><trkpt lat="44.83405711178249" lon="11.711860834453006"><ele>3.0</ele><time>2026-04-11T12:13:22Z</time></trkpt><trkpt lat="44.834328818775845" lon="11.711815170603924"><ele>3.0</ele><time>2026-04-11T12:13:23Z</time></trkpt><trkpt lat="44.83459275522719" lon="11.711771392418248"><ele>3.0</ele><time>2026-04-11T12:13:24Z</time></trkpt><trkpt lat="44.83485261643832" lon="11.711734407523076"><ele>3.0</ele><time>2026-04-11T12:13:25Z</time></trkpt><trkpt lat="44.83509680054107" lon="11.711700739038953"><ele>3.0</ele><time>2026-04-11T12:13:26Z</time></trkpt><trkpt lat="44.83533236929635" lon="11.711678655575168"><ele>3.0</ele><time>2026-04-11T12:13:27Z</time></trkpt><trkpt lat="44.83555797667394" lon="11.711667174007184"><ele>3.0</ele><time>2026-04-11T12:13:28Z</time></trkpt><trkpt lat="44.83578937389619" lon="11.71167716671542"><ele>3.333333333333333</ele><time>2026-04-11T12:13:29Z</time></trkpt><trkpt lat="44.83601602209203" lon="11.711698387618023"><ele>3.6666666666666665</ele><time>2026-04-11T12:13:30Z</time></trkpt><trkpt lat="44.83623311562073" lon="11.711746315950931"><ele>4.0</ele><time>2026-04-11T12:13:31Z</time></trkpt><trkpt lat="44.836447175016694" lon="11.711798454836055"><ele>4.0</ele><time>2026-04-11T12:13:32Z</time></trkpt><trkpt lat="44.83665301444946" lon="11.711866534807193"><ele>4.0</ele><time>2026-04-11T12:13:33Z</time></trkpt><trkpt lat="44.83685183106265" lon="11.711954203557722"><ele>4.0</ele><time>2026-04-11T12:13:34Z</time></trkpt><trkpt lat="44.83705373860595" lon="11.71204748669479"><ele>4.333333333333333</ele><time>2026-04-11T12:13:35Z</time></trkpt><trkpt lat="44.83724835685366" lon="11.712149803795663"><ele>4.666666666666667</ele><time>2026-04-11T12:13:36Z</time></trkpt><trkpt lat="44.837444479359114" lon="11.712256100844268"><ele>5.0</ele><time>2026-04-11T12:13:37Z</time></trkpt><trkpt lat="44.837626396147435" lon="11.712364356472717"><ele>4.666666666666667</ele><time>2026-04-11T12:13:38Z</time></trkpt><trkpt lat="44.83782014242072" lon="11.712468865153749"><ele>4.333333333333333</ele><time>2026-04-11T12:13:39Z</time></trkpt><trkpt lat="44.837989127126924" lon="11.71257823879319"><ele>4.0</ele><time>2026-04-11T12:13:40Z</time></trkpt><trkpt lat="44.838164265876124" lon="11.712680055989626"><ele>4.333333333333333</ele><time>2026-04-11T12:13:41Z</time></trkpt><trkpt lat="44.83833163891393" lon="11.712762806288609"><ele>4.666666666666667</ele><time>2026-04-11T12:13:42Z</time></trkpt><trkpt lat="44.83849501608772" lon="11.712859765583588"><ele>5.0</ele><time>2026-04-11T12:13:43Z</time></trkpt><trkpt lat="44.838660907257704" lon="11.712944038296584"><ele>5.0</ele><time>2026-04-11T12:13:44Z</time></trkpt><trkpt lat="44.83881433572694" lon="11.713032027081946"><ele>5.0</ele><time>2026-04-11T12:13:45Z</time></trkpt><trkpt lat="44.83896566871042" lon="11.713115291113844"><ele>5.0</ele><time>2026-04-11T12:13:46Z</time></trkpt><trkpt lat="44.83910637420245" lon="11.713202492905113"><ele>5.0</ele><time>2026-04-11T12:13:47Z</time></trkpt><trkpt lat="44.83924808604892" lon="11.713281925497398"><ele>5.0</ele><time>2026-04-11T12:13:48Z</time></trkpt><trkpt lat="44.839388993487596" lon="11.713362505806526"><ele>5.0</ele><time>2026-04-11T12:13:49Z</time></trkpt><trkpt lat="44.839523063612354" lon="11.713432651445634"><ele>5.0</ele><time>2026-04-11T12:13:50Z</time></trkpt><trkpt lat="44.83967127231203" lon="11.713508607397044"><ele>5.333333333333334</ele><time>2026-04-11T12:13:51Z</time></trkpt><trkpt lat="44.83980875025976" lon="11.713588337287321"><ele>5.666666666666667</ele><time>2026-04-11T12:13:52Z</time></trkpt><trkpt lat="44.839944488198526" lon="11.713669246200178"><ele>6.0</ele><time>2026-04-11T12:13:53Z</time></trkpt><trkpt lat="44.84009039714737" lon="11.713750942022747"><ele>6.0</ele><time>2026-04-11T12:13:54Z</time></trkpt><trkpt lat="44.84023472841579" lon="11.713829918272351"><ele>6.0</ele><time>2026-04-11T12:13:55Z</time></trkpt><trkpt lat="44.840377215148784" lon="11.7139139887873"><ele>6.0</ele><time>2026-04-11T12:13:56Z</time></trkpt><trkpt lat="44.84052346191166" lon="11.714000143062536"><ele>6.0</ele><time>2026-04-11T12:13:57Z</time></trkpt><trkpt lat="44.84067391332835" lon="11.714074838471932"><ele>6.0</ele><time>2026-04-11T12:13:58Z</time></trkpt><trkpt lat="44.84082326891559" lon="11.714161133207766"><ele>6.0</ele><time>2026-04-11T12:13:59Z</time></trkpt><trkpt lat="44.84098144533067" lon="11.7142522068101"><ele>6.0</ele><time>2026-04-11T12:14:00Z</time></trkpt><trkpt lat="44.84112569769253" lon="11.714336480068363"><ele>6.0</ele><time>2026-04-11T12:14:01Z</time></trkpt><trkpt lat="44.841270617760955" lon="11.714426203971575"><ele>6.0</ele><time>2026-04-11T12:14:02Z</time></trkpt><trkpt lat="44.8414152015262" lon="11.714515567370029"><ele>5.333333333333333</ele><time>2026-04-11T12:14:03Z</time></trkpt><trkpt lat="44.841576580364354" lon="11.714607416540451"><ele>4.666666666666666</ele><time>2026-04-11T12:14:04Z</time></trkpt><trkpt lat="44.84173017238332" lon="11.714689961924579"><ele>4.0</ele><time>2026-04-11T12:14:05Z</time></trkpt><trkpt lat="44.841877341886374" lon="11.71476453168107"><ele>4.0</ele><time>2026-04-11T12:14:06Z</time></trkpt><trkpt lat="44.842026508232586" lon="11.714847396330835"><ele>4.0</ele><time>2026-04-11T12:14:07Z</time></trkpt><trkpt lat="44.842170387667835" lon="11.714929565463489"><ele>4.0</ele><time>2026-04-11T12:14:08Z</time></trkpt><trkpt lat="44.842313110080944" lon="11.71501413249025"><ele>4.0</ele><time>2026-04-11T12:14:09Z</time></trkpt><trkpt lat="44.842460588357994" lon="11.715098173928604"><ele>4.0</ele><time>2026-04-11T12:14:10Z</time></trkpt><trkpt lat="44.84260484009231" lon="11.715192856608285"><ele>4.0</ele><time>2026-04-11T12:14:11Z</time></trkpt><trkpt lat="44.842731399700014" lon="11.715270461007728"><ele>4.25</ele><time>2026-04-11T12:14:12Z</time></trkpt><trkpt lat="44.84283989701784" lon="11.715357174340635"><ele>4.5</ele><time>2026-04-11T12:14:13Z</time></trkpt><trkpt lat="44.84294685470946" lon="11.715453421270508"><ele>4.75</ele><time>2026-04-11T12:14:14Z</time></trkpt><trkpt lat="44.84305884790539" lon="11.715555661440112"><ele>5.0</ele><time>2026-04-11T12:14:15Z</time></trkpt><trkpt lat="44.84318408468517" lon="11.715672418996787"><ele>5.0</ele><time>2026-04-11T12:14:16Z</time></trkpt><trkpt lat="44.84328196425224" lon="11.715784875876983"><ele>5.0</ele><time>2026-04-11T12:14:17Z</time></trkpt><trkpt lat="44.843366033424076" lon="11.715896752638724"><ele>5.0</ele><time>2026-04-11T12:14:18Z</time></trkpt><trkpt lat="44.843421218112354" lon="11.716006135012147"><ele>5.0</ele><time>2026-04-11T12:14:19Z</time></trkpt><trkpt lat="44.84344887420175" lon="11.716114635081096"><ele>5.0</ele><time>2026-04-11T12:14:20Z</time></trkpt><trkpt lat="44.843461243809244" lon="11.71622488246163"><ele>5.2</ele><time>2026-04-11T12:14:21Z</time></trkpt><trkpt lat="44.8434838484629" lon="11.716344788014828"><ele>5.4</ele><time>2026-04-11T12:14:22Z</time></trkpt><trkpt lat="44.843489434451286" lon="11.716491720763045"><ele>5.6</ele><time>2026-04-11T12:14:23Z</time></trkpt><trkpt lat="44.8434407916995" lon="11.716643858795381"><ele>5.8</ele><time>2026-04-11T12:14:24Z</time></trkpt><trkpt lat="44.84339072859645" lon="11.716804076280633"><ele>6.0</ele><time>2026-04-11T12:14:25Z</time></trkpt><trkpt lat="44.84333857716715" lon="11.716994246353527"><ele>6.0</ele><time>2026-04-11T12:14:26Z</time></trkpt><trkpt lat="44.84328221477491" lon="11.717212523877272"><ele>6.0</ele><time>2026-04-11T12:14:27Z</time></trkpt><trkpt lat="44.84321706519734" lon="11.717439802362621"><ele>6.0</ele><time>2026-04-11T12:14:28Z</time></trkpt><trkpt lat="44.84315557538583" lon="11.717665800304195"><ele>5.333333333333333</ele><time>2026-04-11T12:14:29Z</time></trkpt><trkpt lat="44.84308625489537" lon="11.717879494485835"><ele>4.666666666666666</ele><time>2026-04-11T12:14:30Z</time></trkpt><trkpt lat="44.84301815481377" lon="11.718124665635019"><ele>4.0</ele><time>2026-04-11T12:14:31Z</time></trkpt><trkpt lat="44.84294471131084" lon="11.718370943861702"><ele>4.333333333333333</ele><time>2026-04-11T12:14:32Z</time></trkpt><trkpt lat="44.842862238454046" lon="11.71860618950772"><ele>4.666666666666667</ele><time>2026-04-11T12:14:33Z</time></trkpt><trkpt lat="44.84277608562462" lon="11.71883952696555"><ele>5.0</ele><time>2026-04-11T12:14:33.999Z</time></trkpt><trkpt lat="44.84269307466887" lon="11.719064852072053"><ele>5.333333333333334</ele><time>2026-04-11T12:14:34.999Z</time></trkpt><trkpt lat="44.84261590200624" lon="11.719277262976203"><ele>5.666666666666667</ele><time>2026-04-11T12:14:35.999Z</time></trkpt><trkpt lat="44.84254250843294" lon="11.719479716194448"><ele>6.0</ele><time>2026-04-11T12:14:36.999Z</time></trkpt><trkpt lat="44.842472548916476" lon="11.719694182990477"><ele>6.0</ele><time>2026-04-11T12:14:37.999Z</time></trkpt><trkpt lat="44.842421539062656" lon="11.719929152978953"><ele>6.0</ele><time>2026-04-11T12:14:38.999Z</time></trkpt><trkpt lat="44.84240184581369" lon="11.720178813694439"><ele>6.0</ele><time>2026-04-11T12:14:39.999Z</time></trkpt><trkpt lat="44.842369559827915" lon="11.720430369457748"><ele>6.0</ele><time>2026-04-11T12:14:40.999Z</time></trkpt><trkpt lat="44.84234293718138" lon="11.720670740763286"><ele>6.0</ele><time>2026-04-11T12:14:41.999Z</time></trkpt><trkpt lat="44.84231810465909" lon="11.720912046107516"><ele>6.0</ele><time>2026-04-11T12:14:42.999Z</time></trkpt><trkpt lat="44.84229380028857" lon="11.721145998879294"><ele>5.666666666666667</ele><time>2026-04-11T12:14:43.999Z</time></trkpt><trkpt lat="44.84224369783318" lon="11.721378408892026"><ele>5.333333333333334</ele><time>2026-04-11T12:14:44.999Z</time></trkpt><trkpt lat="44.84222378835716" lon="11.72162122268835"><ele>5.0</ele><time>2026-04-11T12:14:45.999Z</time></trkpt><trkpt lat="44.8422074955276" lon="11.721850328626543"><ele>5.0</ele><time>2026-04-11T12:14:46.999Z</time></trkpt><trkpt lat="44.84219760640747" lon="11.722069573864832"><ele>5.0</ele><time>2026-04-11T12:14:47.999Z</time></trkpt><trkpt lat="44.84219138148103" lon="11.722286480158633"><ele>5.0</ele><time>2026-04-11T12:14:48.999Z</time></trkpt><trkpt lat="44.842176355896065" lon="11.722497958901599"><ele>5.0</ele><time>2026-04-11T12:14:49.999Z</time></trkpt><trkpt lat="44.842167974729676" lon="11.72270834788008"><ele>5.0</ele><time>2026-04-11T12:14:50.999Z</time></trkpt><trkpt lat="44.84216279057687" lon="11.722916337045266"><ele>5.0</ele><time>2026-04-11T12:14:51.999Z</time></trkpt><trkpt lat="44.84216567742696" lon="11.723117181144346"><ele>5.0</ele><time>2026-04-11T12:14:52.999Z</time></trkpt><trkpt lat="44.84217018176856" lon="11.72328214371496"><ele>4.75</ele><time>2026-04-11T12:14:53.999Z</time></trkpt><trkpt lat="44.842168672500165" lon="11.723442032861305"><ele>4.5</ele><time>2026-04-11T12:14:54.999Z</time></trkpt><trkpt lat="44.84217836027702" lon="11.72363045114536"><ele>4.25</ele><time>2026-04-11T12:14:55.999Z</time></trkpt><trkpt lat="44.8421841532261" lon="11.723859411012972"><ele>4.0</ele><time>2026-04-11T12:14:56.999Z</time></trkpt><trkpt lat="44.842183850682616" lon="11.724125177798117"><ele>3.6666666666666665</ele><time>2026-04-11T12:14:57.999Z</time></trkpt><trkpt lat="44.84218327207544" lon="11.724418384146043"><ele>3.333333333333333</ele><time>2026-04-11T12:14:58.999Z</time></trkpt><trkpt lat="44.8421888252736" lon="11.724708249607197"><ele>3.0</ele><time>2026-04-11T12:14:59.999Z</time></trkpt><trkpt lat="44.84219188713432" lon="11.725025491528553"><ele>3.5</ele><time>2026-04-11T12:15:00.999Z</time></trkpt><trkpt lat="44.842193644018764" lon="11.725341682821433"><ele>4.0</ele><time>2026-04-11T12:15:01.999Z</time></trkpt><trkpt lat="44.84219040456911" lon="11.725670622975697"><ele>4.0</ele><time>2026-04-11T12:15:02.999Z</time></trkpt><trkpt lat="44.84219251397542" lon="11.725990405883657"><ele>4.0</ele><time>2026-04-11T12:15:03.999Z</time></trkpt><trkpt lat="44.84219705349201" lon="11.726322274663223"><ele>4.0</ele><time>2026-04-11T12:15:04.999Z</time></trkpt><trkpt lat="44.842199054704395" lon="11.726659975901699"><ele>4.0</ele><time>2026-04-11T12:15:05.999Z</time></trkpt><trkpt lat="44.84220358337739" lon="11.726996530288252"><ele>4.5</ele><time>2026-04-11T12:15:06.999Z</time></trkpt><trkpt lat="44.842209953838214" lon="11.72733125379899"><ele>5.0</ele><time>2026-04-11T12:15:07.999Z</time></trkpt><trkpt lat="44.84221548896735" lon="11.72766790500306"><ele>5.0</ele><time>2026-04-11T12:15:08.999Z</time></trkpt><trkpt lat="44.84221815912443" lon="11.728017995357995"><ele>5.0</ele><time>2026-04-11T12:15:09.999Z</time></trkpt><trkpt lat="44.842207452967756" lon="11.728361751255807"><ele>4.5</ele><time>2026-04-11T12:15:10.999Z</time></trkpt><trkpt lat="44.84220821242764" lon="11.72870667061804"><ele>4.0</ele><time>2026-04-11T12:15:11.999Z</time></trkpt><trkpt lat="44.84220047404637" lon="11.72906548965335"><ele>3.0</ele><time>2026-04-11T12:15:12.999Z</time></trkpt><trkpt lat="44.842187151246776" lon="11.729428604262008"><ele>2.0</ele><time>2026-04-11T12:15:13.999Z</time></trkpt><trkpt lat="44.84217992254152" lon="11.729762803633092"><ele>2.0</ele><time>2026-04-11T12:15:14.999Z</time></trkpt><trkpt lat="44.842166291892156" lon="11.730098972224024"><ele>2.0</ele><time>2026-04-11T12:15:16Z</time></trkpt><trkpt lat="44.84214628583839" lon="11.7304301596728"><ele>2.0</ele><time>2026-04-11T12:15:17.001Z</time></trkpt><trkpt lat="44.842127457866" lon="11.73075078619561"><ele>2.0</ele><time>2026-04-11T12:15:18.001Z</time></trkpt><trkpt lat="44.84211003068206" lon="11.731054673561717"><ele>2.0</ele><time>2026-04-11T12:15:19.001Z</time></trkpt><trkpt lat="44.84208991715955" lon="11.731347303004098"><ele>2.0</ele><time>2026-04-11T12:15:20.001Z</time></trkpt><trkpt lat="44.84206080604987" lon="11.731602251634206"><ele>2.0</ele><time>2026-04-11T12:15:21.001Z</time></trkpt><trkpt lat="44.84200440281933" lon="11.73187954173435"><ele>2.0</ele><time>2026-04-11T12:15:22Z</time></trkpt><trkpt lat="44.841933078639244" lon="11.732146881730856"><ele>2.0</ele><time>2026-04-11T12:15:23Z</time></trkpt><trkpt lat="44.84185216426394" lon="11.73240911995766"><ele>2.0</ele><time>2026-04-11T12:15:24Z</time></trkpt><trkpt lat="44.84175522475614" lon="11.73265121258102"><ele>2.0</ele><time>2026-04-11T12:15:25.001Z</time></trkpt><trkpt lat="44.84167978730593" lon="11.73287395184073"><ele>2.4000000000000004</ele><time>2026-04-11T12:15:26Z</time></trkpt><trkpt lat="44.84161338892247" lon="11.733047052185702"><ele>2.8000000000000003</ele><time>2026-04-11T12:15:27Z</time></trkpt><trkpt lat="44.84155745380937" lon="11.733182474283577"><ele>3.2</ele><time>2026-04-11T12:15:28Z</time></trkpt><trkpt lat="44.841534772969844" lon="11.733296087817992"><ele>3.6</ele><time>2026-04-11T12:15:29Z</time></trkpt><trkpt lat="44.84156293746333" lon="11.733424466537963"><ele>4.0</ele><time>2026-04-11T12:15:30Z</time></trkpt><trkpt lat="44.84163041327381" lon="11.733574759113381"><ele>4.0</ele><time>2026-04-11T12:15:31Z</time></trkpt><trkpt lat="44.84172413230424" lon="11.733769135620179"><ele>4.0</ele><time>2026-04-11T12:15:32Z</time></trkpt><trkpt lat="44.841801396510114" lon="11.733979313510678"><ele>4.0</ele><time>2026-04-11T12:15:33Z</time></trkpt><trkpt lat="44.841898951363106" lon="11.734225146406825"><ele>3.333333333333333</ele><time>2026-04-11T12:15:34Z</time></trkpt><trkpt lat="44.84199051614076" lon="11.734492192864897"><ele>2.6666666666666665</ele><time>2026-04-11T12:15:35Z</time></trkpt><trkpt lat="44.84207929313903" lon="11.734758274048346"><ele>2.0</ele><time>2026-04-11T12:15:36Z</time></trkpt><trkpt lat="44.84215736641233" lon="11.735021843393412"><ele>2.0</ele><time>2026-04-11T12:15:37Z</time></trkpt><trkpt lat="44.84224370677938" lon="11.73530542899516"><ele>2.0</ele><time>2026-04-11T12:15:38Z</time></trkpt><trkpt lat="44.84233651870823" lon="11.73559984255003"><ele>2.0</ele><time>2026-04-11T12:15:39Z</time></trkpt><trkpt lat="44.84241389001247" lon="11.735898094462737"><ele>3.0</ele><time>2026-04-11T12:15:40Z</time></trkpt><trkpt lat="44.842494597521274" lon="11.736203159417258"><ele>4.0</ele><time>2026-04-11T12:15:41Z</time></trkpt><trkpt lat="44.84257384740745" lon="11.73650837849668"><ele>3.0</ele><time>2026-04-11T12:15:42Z</time></trkpt><trkpt lat="44.8426473698676" lon="11.736826154872027"><ele>2.0</ele><time>2026-04-11T12:15:43Z</time></trkpt><trkpt lat="44.84272802614998" lon="11.737115208823475"><ele>2.0</ele><time>2026-04-11T12:15:44Z</time></trkpt><trkpt lat="44.84281743611483" lon="11.7373979949452"><ele>2.0</ele><time>2026-04-11T12:15:45Z</time></trkpt><trkpt lat="44.842919913548045" lon="11.737665658447686"><ele>2.0</ele><time>2026-04-11T12:15:46Z</time></trkpt><trkpt lat="44.84302188360116" lon="11.737924020663677"><ele>2.0</ele><time>2026-04-11T12:15:47Z</time></trkpt><trkpt lat="44.843122385663044" lon="11.738169445205635"><ele>2.0</ele><time>2026-04-11T12:15:48Z</time></trkpt><trkpt lat="44.84321044739739" lon="11.738399818891265"><ele>2.0</ele><time>2026-04-11T12:15:49Z</time></trkpt><trkpt lat="44.84329447677849" lon="11.738610686435061"><ele>2.333333333333333</ele><time>2026-04-11T12:15:50Z</time></trkpt><trkpt lat="44.84338285099721" lon="11.738823442456061"><ele>2.6666666666666665</ele><time>2026-04-11T12:15:51Z</time></trkpt><trkpt lat="44.84347419002138" lon="11.739048754931957"><ele>3.0</ele><time>2026-04-11T12:15:52Z</time></trkpt><trkpt lat="44.84354876497007" lon="11.739293188676214"><ele>3.333333333333333</ele><time>2026-04-11T12:15:53Z</time></trkpt><trkpt lat="44.843606594877365" lon="11.739568227177097"><ele>3.6666666666666665</ele><time>2026-04-11T12:15:54Z</time></trkpt><trkpt lat="44.843658732205384" lon="11.739862991223454"><ele>4.0</ele><time>2026-04-11T12:15:55Z</time></trkpt><trkpt lat="44.84370997513901" lon="11.740178023323233"><ele>4.0</ele><time>2026-04-11T12:15:56Z</time></trkpt><trkpt lat="44.84375973346971" lon="11.740504919838656"><ele>4.0</ele><time>2026-04-11T12:15:57Z</time></trkpt><trkpt lat="44.84381217505007" lon="11.74085089262727"><ele>4.0</ele><time>2026-04-11T12:15:58Z</time></trkpt><trkpt lat="44.84386833993356" lon="11.741195297730041"><ele>4.0</ele><time>2026-04-11T12:15:59Z</time></trkpt><trkpt lat="44.843926618380316" lon="11.741539222891499"><ele>4.0</ele><time>2026-04-11T12:16:00Z</time></trkpt><trkpt lat="44.84398233702555" lon="11.74187795439619"><ele>4.0</ele><time>2026-04-11T12:16:01Z</time></trkpt><trkpt lat="44.84403199683584" lon="11.74221233918371"><ele>4.0</ele><time>2026-04-11T12:16:02Z</time></trkpt><trkpt lat="44.84409130169304" lon="11.74252450210289"><ele>4.0</ele><time>2026-04-11T12:16:03Z</time></trkpt><trkpt lat="44.8441477824441" lon="11.742830798494863"><ele>4.0</ele><time>2026-04-11T12:16:04Z</time></trkpt><trkpt lat="44.84420994924884" lon="11.743120314380965"><ele>4.0</ele><time>2026-04-11T12:16:05Z</time></trkpt><trkpt lat="44.844278755782945" lon="11.74342028141565"><ele>4.0</ele><time>2026-04-11T12:16:06Z</time></trkpt><trkpt lat="44.84435201155171" lon="11.743733962531385"><ele>4.0</ele><time>2026-04-11T12:16:06.999Z</time></trkpt><trkpt lat="44.84441874983935" lon="11.744055384042241"><ele>4.0</ele><time>2026-04-11T12:16:07.999Z</time></trkpt><trkpt lat="44.84447561640288" lon="11.744381610799477"><ele>4.5</ele><time>2026-04-11T12:16:08.999Z</time></trkpt><trkpt lat="44.844527858112286" lon="11.744720850371447"><ele>5.0</ele><time>2026-04-11T12:16:09.999Z</time></trkpt><trkpt lat="44.8445830161193" lon="11.74504926823983"><ele>5.0</ele><time>2026-04-11T12:16:10.999Z</time></trkpt><trkpt lat="44.84464345650421" lon="11.745347412156713"><ele>5.0</ele><time>2026-04-11T12:16:11.999Z</time></trkpt><trkpt lat="44.84468716767212" lon="11.745651765047144"><ele>5.0</ele><time>2026-04-11T12:16:12.999Z</time></trkpt><trkpt lat="44.844762476126824" lon="11.74593772193627"><ele>5.0</ele><time>2026-04-11T12:16:13.999Z</time></trkpt><trkpt lat="44.84485552492165" lon="11.746199570044284"><ele>5.0</ele><time>2026-04-11T12:16:14.999Z</time></trkpt><trkpt lat="44.844960624372796" lon="11.746454657002145"><ele>5.0</ele><time>2026-04-11T12:16:15.999Z</time></trkpt><trkpt lat="44.84507532504723" lon="11.74669264599859"><ele>5.333333333333334</ele><time>2026-04-11T12:16:16.999Z</time></trkpt><trkpt lat="44.84521588682226" lon="11.746906884057136"><ele>5.666666666666667</ele><time>2026-04-11T12:16:17.999Z</time></trkpt><trkpt lat="44.84536248952777" lon="11.747107375586394"><ele>6.0</ele><time>2026-04-11T12:16:18.999Z</time></trkpt><trkpt lat="44.8454747276118" lon="11.747303748141775"><ele>6.0</ele><time>2026-04-11T12:16:19.999Z</time></trkpt><trkpt lat="44.8455812096694" lon="11.74749211671038"><ele>6.0</ele><time>2026-04-11T12:16:20.999Z</time></trkpt><trkpt lat="44.84566756324887" lon="11.747668282044636"><ele>6.0</ele><time>2026-04-11T12:16:21.999Z</time></trkpt><trkpt lat="44.845722456140194" lon="11.747864544717407"><ele>5.333333333333333</ele><time>2026-04-11T12:16:22.999Z</time></trkpt><trkpt lat="44.84574681609645" lon="11.74812366940547"><ele>4.666666666666666</ele><time>2026-04-11T12:16:23.999Z</time></trkpt><trkpt lat="44.845765793584626" lon="11.748441316031826"><ele>4.0</ele><time>2026-04-11T12:16:24.999Z</time></trkpt><trkpt lat="44.84578313527633" lon="11.748805137831397"><ele>4.0</ele><time>2026-04-11T12:16:25.999Z</time></trkpt><trkpt lat="44.84580747501912" lon="11.749184189652809"><ele>4.0</ele><time>2026-04-11T12:16:26.999Z</time></trkpt><trkpt lat="44.84583357215512" lon="11.749580453202551"><ele>4.0</ele><time>2026-04-11T12:16:27.999Z</time></trkpt><trkpt lat="44.845859668521555" lon="11.749976282891168"><ele>4.0</ele><time>2026-04-11T12:16:28.999Z</time></trkpt><trkpt lat="44.84588375102421" lon="11.750372562863015"><ele>4.0</ele><time>2026-04-11T12:16:29.999Z</time></trkpt><trkpt lat="44.845911327486895" lon="11.750770898834762"><ele>4.0</ele><time>2026-04-11T12:16:30.999Z</time></trkpt><trkpt lat="44.845932827956" lon="11.751172957243996"><ele>3.5</ele><time>2026-04-11T12:16:31.999Z</time></trkpt><trkpt lat="44.8459565465368" lon="11.751576588891995"><ele>3.0</ele><time>2026-04-11T12:16:32.999Z</time></trkpt><trkpt lat="44.84599702296865" lon="11.751994651378215"><ele>3.0</ele><time>2026-04-11T12:16:33.999Z</time></trkpt><trkpt lat="44.84601924437349" lon="11.752419301440117"><ele>3.0</ele><time>2026-04-11T12:16:34.999Z</time></trkpt><trkpt lat="44.84605172672298" lon="11.752834410981084"><ele>3.0</ele><time>2026-04-11T12:16:35.999Z</time></trkpt><trkpt lat="44.84607966769153" lon="11.753269854509087"><ele>3.0</ele><time>2026-04-11T12:16:36.999Z</time></trkpt><trkpt lat="44.84610988350584" lon="11.753718024662763"><ele>2.5</ele><time>2026-04-11T12:16:37.999Z</time></trkpt><trkpt lat="44.84614181552684" lon="11.754163639187968"><ele>2.0</ele><time>2026-04-11T12:16:38.999Z</time></trkpt><trkpt lat="44.846168220584325" lon="11.754593650456274"><ele>2.0</ele><time>2026-04-11T12:16:39.999Z</time></trkpt><trkpt lat="44.84620149416247" lon="11.7550389099062"><ele>2.0</ele><time>2026-04-11T12:16:40.999Z</time></trkpt><trkpt lat="44.84623637438687" lon="11.755484498947403"><ele>2.0</ele><time>2026-04-11T12:16:41.999Z</time></trkpt><trkpt lat="44.84625860457001" lon="11.755927306875448"><ele>2.0</ele><time>2026-04-11T12:16:42.999Z</time></trkpt><trkpt lat="44.846290731970264" lon="11.756360377735252"><ele>2.0</ele><time>2026-04-11T12:16:43.999Z</time></trkpt><trkpt lat="44.84632016997992" lon="11.756778182756255"><ele>2.0</ele><time>2026-04-11T12:16:44.999Z</time></trkpt><trkpt lat="44.84634890961727" lon="11.757202308044983"><ele>2.0</ele><time>2026-04-11T12:16:45.999Z</time></trkpt><trkpt lat="44.84638457616739" lon="11.757611970063252"><ele>2.0</ele><time>2026-04-11T12:16:46.999Z</time></trkpt><trkpt lat="44.846408038456616" lon="11.758015629996947"><ele>2.0</ele><time>2026-04-11T12:16:47.999Z</time></trkpt><trkpt lat="44.84643547663322" lon="11.758411238792544"><ele>2.0</ele><time>2026-04-11T12:16:48.999Z</time></trkpt><trkpt lat="44.846461133751205" lon="11.758799679955365"><ele>2.0</ele><time>2026-04-11T12:16:49.999Z</time></trkpt><trkpt lat="44.84648287325513" lon="11.759180186787694"><ele>2.0</ele><time>2026-04-11T12:16:50.999Z</time></trkpt><trkpt lat="44.84650860059223" lon="11.759555378061666"><ele>2.5</ele><time>2026-04-11T12:16:51.999Z</time></trkpt><trkpt lat="44.846537740451765" lon="11.759927964767023"><ele>3.0</ele><time>2026-04-11T12:16:52.999Z</time></trkpt><trkpt lat="44.84656209374964" lon="11.760300387943204"><ele>2.0</ele><time>2026-04-11T12:16:53.999Z</time></trkpt><trkpt lat="44.84658612371733" lon="11.760674351965747"><ele>1.0</ele><time>2026-04-11T12:16:54.999Z</time></trkpt><trkpt lat="44.84661188488763" lon="11.761037044487313"><ele>-1.0</ele><time>2026-04-11T12:16:55.999Z</time></trkpt><trkpt lat="44.84666664812421" lon="11.761786172529149"><ele>0.5</ele><time>2026-04-11T12:16:57.999Z</time></trkpt><trkpt lat="44.84669340251454" lon="11.762141552023447"><ele>2.0</ele><time>2026-04-11T12:16:58.999Z</time></trkpt><trkpt lat="44.84672826591774" lon="11.762490106085526"><ele>2.333333333333333</ele><time>2026-04-11T12:16:59.999Z</time></trkpt><trkpt lat="44.8467487221521" lon="11.762804977728043"><ele>2.6666666666666665</ele><time>2026-04-11T12:17:00.999Z</time></trkpt><trkpt lat="44.84676845695797" lon="11.763101111739491"><ele>3.0</ele><time>2026-04-11T12:17:01.999Z</time></trkpt><trkpt lat="44.84678317335631" lon="11.76337607323101"><ele>3.0</ele><time>2026-04-11T12:17:02.999Z</time></trkpt><trkpt lat="44.84680603365768" lon="11.763641721337374"><ele>3.0</ele><time>2026-04-11T12:17:03.999Z</time></trkpt><trkpt lat="44.846827279378076" lon="11.763879345031143"><ele>3.0</ele><time>2026-04-11T12:17:04.999Z</time></trkpt><trkpt lat="44.84684613311332" lon="11.764103352438065"><ele>3.0</ele><time>2026-04-11T12:17:05.999Z</time></trkpt><trkpt lat="44.846851398861006" lon="11.764312986893565"><ele>3.0</ele><time>2026-04-11T12:17:06.999Z</time></trkpt><trkpt lat="44.846863833807014" lon="11.764506996292171"><ele>3.0</ele><time>2026-04-11T12:17:07.999Z</time></trkpt><trkpt lat="44.84686692147905" lon="11.764669493541566"><ele>3.0</ele><time>2026-04-11T12:17:08.999Z</time></trkpt><trkpt lat="44.84685727254032" lon="11.764805967768298"><ele>3.1666666666666665</ele><time>2026-04-11T12:17:09.999Z</time></trkpt><trkpt lat="44.84683656129139" lon="11.764910459220243"><ele>3.333333333333333</ele><time>2026-04-11T12:17:10.999Z</time></trkpt><trkpt lat="44.84681007954101" lon="11.765001076022813"><ele>3.5</ele><time>2026-04-11T12:17:11.999Z</time></trkpt><trkpt lat="44.846795443494464" lon="11.76515141018929"><ele>3.6666666666666665</ele><time>2026-04-11T12:17:13.999Z</time></trkpt><trkpt lat="44.846845064348585" lon="11.765231956478049"><ele>3.833333333333333</ele><time>2026-04-11T12:17:15.999Z</time></trkpt><trkpt lat="44.84692084853358" lon="11.76520671231107"><ele>4.0</ele><time>2026-04-11T12:17:16.999Z</time></trkpt><trkpt lat="44.846999272084965" lon="11.765242867444105"><ele>4.0</ele><time>2026-04-11T12:17:17.999Z</time></trkpt><trkpt lat="44.84708478387443" lon="11.765246933196602"><ele>4.0</ele><time>2026-04-11T12:17:18.999Z</time></trkpt><trkpt lat="44.847185829856286" lon="11.765258182776334"><ele>4.0</ele><time>2026-04-11T12:17:19.999Z</time></trkpt><trkpt lat="44.84728268620658" lon="11.765269125960153"><ele>4.0</ele><time>2026-04-11T12:17:20.999Z</time></trkpt><trkpt lat="44.847390089681944" lon="11.765272452259874"><ele>4.0</ele><time>2026-04-11T12:17:22.001Z</time></trkpt><trkpt lat="44.84750703468315" lon="11.76524864121533"><ele>4.25</ele><time>2026-04-11T12:17:23.001Z</time></trkpt><trkpt lat="44.847637703736204" lon="11.76518818614928"><ele>4.5</ele><time>2026-04-11T12:17:24.001Z</time></trkpt><trkpt lat="44.84776961150823" lon="11.765101798839732"><ele>4.75</ele><time>2026-04-11T12:17:25.001Z</time></trkpt><trkpt lat="44.84791165678864" lon="11.765003251856239"><ele>5.0</ele><time>2026-04-11T12:17:26Z</time></trkpt><trkpt lat="44.84806788981952" lon="11.764889227865734"><ele>5.0</ele><time>2026-04-11T12:17:27Z</time></trkpt><trkpt lat="44.848231850126346" lon="11.76478071185655"><ele>5.0</ele><time>2026-04-11T12:17:28.001Z</time></trkpt><trkpt lat="44.84839127856977" lon="11.764682759811032"><ele>5.0</ele><time>2026-04-11T12:17:29Z</time></trkpt><trkpt lat="44.848534629665224" lon="11.764593018797608"><ele>4.75</ele><time>2026-04-11T12:17:30Z</time></trkpt><trkpt lat="44.84866131743833" lon="11.76451139769934"><ele>4.5</ele><time>2026-04-11T12:17:31Z</time></trkpt><trkpt lat="44.848761941699685" lon="11.764435207026064"><ele>4.25</ele><time>2026-04-11T12:17:32.001Z</time></trkpt><trkpt lat="44.84885825943224" lon="11.764360559854088"><ele>4.0</ele><time>2026-04-11T12:17:33.001Z</time></trkpt><trkpt lat="44.84894359720995" lon="11.764305410934258"><ele>4.0</ele><time>2026-04-11T12:17:34Z</time></trkpt><trkpt lat="44.84903495543509" lon="11.764291098670059"><ele>4.0</ele><time>2026-04-11T12:17:35Z</time></trkpt><trkpt lat="44.84913656529639" lon="11.764310527337198"><ele>4.0</ele><time>2026-04-11T12:17:36Z</time></trkpt><trkpt lat="44.84922997158052" lon="11.764378786444256"><ele>4.0</ele><time>2026-04-11T12:17:37Z</time></trkpt><trkpt lat="44.84932569452269" lon="11.764516147875037"><ele>4.0</ele><time>2026-04-11T12:17:38Z</time></trkpt><trkpt lat="44.84941817950674" lon="11.764676210712237"><ele>4.0</ele><time>2026-04-11T12:17:39Z</time></trkpt><trkpt lat="44.84951147978498" lon="11.764837411987596"><ele>4.0</ele><time>2026-04-11T12:17:40Z</time></trkpt><trkpt lat="44.84961108334378" lon="11.765006080492538"><ele>4.0</ele><time>2026-04-11T12:17:41Z</time></trkpt><trkpt lat="44.84971030636807" lon="11.76517816035813"><ele>4.25</ele><time>2026-04-11T12:17:42Z</time></trkpt><trkpt lat="44.849812952430284" lon="11.765342138511203"><ele>4.5</ele><time>2026-04-11T12:17:43Z</time></trkpt><trkpt lat="44.84991775042528" lon="11.76548917176841"><ele>4.75</ele><time>2026-04-11T12:17:44Z</time></trkpt><trkpt lat="44.85001482467077" lon="11.765620799531126"><ele>5.0</ele><time>2026-04-11T12:17:45Z</time></trkpt><trkpt lat="44.850090858585524" lon="11.765752468925399"><ele>5.0</ele><time>2026-04-11T12:17:46Z</time></trkpt><trkpt lat="44.85016659567939" lon="11.765865548865753"><ele>5.0</ele><time>2026-04-11T12:17:47Z</time></trkpt><trkpt lat="44.850236417253825" lon="11.765956667825165"><ele>5.0</ele><time>2026-04-11T12:17:48Z</time></trkpt><trkpt lat="44.85029021114392" lon="11.766040669611499"><ele>5.0</ele><time>2026-04-11T12:17:49Z</time></trkpt><trkpt lat="44.85033622077046" lon="11.766121960366519"><ele>5.0</ele><time>2026-04-11T12:17:50Z</time></trkpt><trkpt lat="44.850391746222016" lon="11.766230015800394"><ele>5.0</ele><time>2026-04-11T12:17:52Z</time></trkpt><trkpt lat="44.850444080658285" lon="11.766315137297145"><ele>5.0</ele><time>2026-04-11T12:17:55Z</time></trkpt><trkpt lat="44.85033232356303" lon="11.766451187647208"><ele>5.0</ele><time>2026-04-11T12:17:56Z</time></trkpt><trkpt lat="44.85026491005062" lon="11.766541805053485"><ele>5.0</ele><time>2026-04-11T12:17:57Z</time></trkpt><trkpt lat="44.85019057280314" lon="11.766651586689933"><ele>5.0</ele><time>2026-04-11T12:17:58Z</time></trkpt><trkpt lat="44.85010887778301" lon="11.766784350315643"><ele>5.666666666666667</ele><time>2026-04-11T12:17:59Z</time></trkpt><trkpt lat="44.850018306660104" lon="11.766954076509291"><ele>6.333333333333334</ele><time>2026-04-11T12:18:00Z</time></trkpt><trkpt lat="44.84990991837622" lon="11.767149343304753"><ele>7.0</ele><time>2026-04-11T12:18:01Z</time></trkpt><trkpt lat="44.84978165944631" lon="11.767343535287669"><ele>7.0</ele><time>2026-04-11T12:18:02Z</time></trkpt><trkpt lat="44.84967085669541" lon="11.767573652068773"><ele>7.0</ele><time>2026-04-11T12:18:03Z</time></trkpt><trkpt lat="44.84954377052539" lon="11.76779857019671"><ele>7.0</ele><time>2026-04-11T12:18:04Z</time></trkpt><trkpt lat="44.849399839951964" lon="11.76801373539991"><ele>6.333333333333334</ele><time>2026-04-11T12:18:05Z</time></trkpt><trkpt lat="44.849276645254946" lon="11.768264302762553"><ele>5.666666666666667</ele><time>2026-04-11T12:18:06Z</time></trkpt><trkpt lat="44.84912509968942" lon="11.768500031789788"><ele>5.0</ele><time>2026-04-11T12:18:07Z</time></trkpt><trkpt lat="44.84898548679231" lon="11.768738984231154"><ele>4.666666666666667</ele><time>2026-04-11T12:18:08Z</time></trkpt><trkpt lat="44.84884667274657" lon="11.768980249707482"><ele>4.333333333333333</ele><time>2026-04-11T12:18:09Z</time></trkpt><trkpt lat="44.84871079265162" lon="11.769216774185766"><ele>4.0</ele><time>2026-04-11T12:18:10Z</time></trkpt><trkpt lat="44.8485795530647" lon="11.769454574369016"><ele>4.0</ele><time>2026-04-11T12:18:11Z</time></trkpt><trkpt lat="44.848444582851776" lon="11.76970009068837"><ele>4.0</ele><time>2026-04-11T12:18:12Z</time></trkpt><trkpt lat="44.84830851602202" lon="11.769951429022065"><ele>4.0</ele><time>2026-04-11T12:18:13Z</time></trkpt><trkpt lat="44.848179536656566" lon="11.770207831112891"><ele>3.6666666666666665</ele><time>2026-04-11T12:18:14Z</time></trkpt><trkpt lat="44.848060150185255" lon="11.770475081274162"><ele>3.333333333333333</ele><time>2026-04-11T12:18:15Z</time></trkpt><trkpt lat="44.84795611068891" lon="11.770752388726176"><ele>3.0</ele><time>2026-04-11T12:18:16Z</time></trkpt><trkpt lat="44.84785607548671" lon="11.77103258312151"><ele>3.0</ele><time>2026-04-11T12:18:17Z</time></trkpt><trkpt lat="44.84777602762757" lon="11.771330361844894"><ele>3.0</ele><time>2026-04-11T12:18:18Z</time></trkpt><trkpt lat="44.84769236792763" lon="11.771630047056714"><ele>3.5</ele><time>2026-04-11T12:18:19Z</time></trkpt><trkpt lat="44.847588638311876" lon="11.771922431508603"><ele>4.0</ele><time>2026-04-11T12:18:20Z</time></trkpt><trkpt lat="44.847474581884306" lon="11.772210014141388"><ele>4.0</ele><time>2026-04-11T12:18:21Z</time></trkpt><trkpt lat="44.847350716728556" lon="11.772503569409784"><ele>4.0</ele><time>2026-04-11T12:18:22Z</time></trkpt><trkpt lat="44.84722299731941" lon="11.77280872843954"><ele>4.0</ele><time>2026-04-11T12:18:23Z</time></trkpt><trkpt lat="44.84709549955618" lon="11.77312163337481"><ele>4.0</ele><time>2026-04-11T12:18:24Z</time></trkpt><trkpt lat="44.84696483449232" lon="11.773433624512151"><ele>3.5</ele><time>2026-04-11T12:18:25Z</time></trkpt><trkpt lat="44.84681709844389" lon="11.773735840828387"><ele>3.0</ele><time>2026-04-11T12:18:26Z</time></trkpt><trkpt lat="44.84669458016728" lon="11.774058098874562"><ele>3.0</ele><time>2026-04-11T12:18:27Z</time></trkpt><trkpt lat="44.846558493405155" lon="11.774370102630344"><ele>3.0</ele><time>2026-04-11T12:18:28Z</time></trkpt><trkpt lat="44.846422097364965" lon="11.77467123695418"><ele>3.0</ele><time>2026-04-11T12:18:29Z</time></trkpt><trkpt lat="44.84627300752704" lon="11.774992180310095"><ele>3.0</ele><time>2026-04-11T12:18:30Z</time></trkpt><trkpt lat="44.84612285889094" lon="11.775297436577695"><ele>3.0</ele><time>2026-04-11T12:18:30.999Z</time></trkpt><trkpt lat="44.845976347209366" lon="11.77559724448584"><ele>3.0</ele><time>2026-04-11T12:18:31.999Z</time></trkpt><trkpt lat="44.84583037022131" lon="11.77590391788333"><ele>3.0</ele><time>2026-04-11T12:18:32.998Z</time></trkpt><trkpt lat="44.84571184291537" lon="11.776214913925887"><ele>3.0</ele><time>2026-04-11T12:18:33.998Z</time></trkpt><trkpt lat="44.84559472958377" lon="11.776548003568662"><ele>3.0</ele><time>2026-04-11T12:18:34.997Z</time></trkpt><trkpt lat="44.84548604142705" lon="11.776885110308372"><ele>3.0</ele><time>2026-04-11T12:18:35.997Z</time></trkpt><trkpt lat="44.845388763539546" lon="11.777221547202672"><ele>3.0</ele><time>2026-04-11T12:18:36.997Z</time></trkpt><trkpt lat="44.84529395136274" lon="11.777559674906044"><ele>3.0</ele><time>2026-04-11T12:18:37.996Z</time></trkpt><trkpt lat="44.845213003666956" lon="11.777889628002667"><ele>3.5</ele><time>2026-04-11T12:18:38.996Z</time></trkpt><trkpt lat="44.84513382163934" lon="11.778240108161853"><ele>4.0</ele><time>2026-04-11T12:18:39.996Z</time></trkpt><trkpt lat="44.84507559670286" lon="11.778581427420566"><ele>4.0</ele><time>2026-04-11T12:18:40.996Z</time></trkpt><trkpt lat="44.84502638374771" lon="11.778915785699917"><ele>4.0</ele><time>2026-04-11T12:18:41.995Z</time></trkpt><trkpt lat="44.84498045610881" lon="11.779231100314915"><ele>3.5</ele><time>2026-04-11T12:18:42.995Z</time></trkpt><trkpt lat="44.84492291498191" lon="11.779530844931635"><ele>3.0</ele><time>2026-04-11T12:18:43.995Z</time></trkpt><trkpt lat="44.84484722282334" lon="11.779838339106004"><ele>3.0</ele><time>2026-04-11T12:18:44.995Z</time></trkpt><trkpt lat="44.844736268519846" lon="11.780146309319125"><ele>3.0</ele><time>2026-04-11T12:18:45.994Z</time></trkpt><trkpt lat="44.84462598251199" lon="11.780457164506167"><ele>3.0</ele><time>2026-04-11T12:18:46.994Z</time></trkpt><trkpt lat="44.84453427480468" lon="11.780777771448026"><ele>3.0</ele><time>2026-04-11T12:18:47.994Z</time></trkpt><trkpt lat="44.844441804409776" lon="11.78109132351904"><ele>2.5</ele><time>2026-04-11T12:18:48.994Z</time></trkpt><trkpt lat="44.84435021721712" lon="11.781406504436296"><ele>2.0</ele><time>2026-04-11T12:18:49.994Z</time></trkpt><trkpt lat="44.84427968141812" lon="11.781733145870131"><ele>3.0</ele><time>2026-04-11T12:18:50.994Z</time></trkpt><trkpt lat="44.84420491489659" lon="11.782071716983781"><ele>4.0</ele><time>2026-04-11T12:18:51.993Z</time></trkpt><trkpt lat="44.84415033898338" lon="11.782394896011446"><ele>3.5</ele><time>2026-04-11T12:18:52.993Z</time></trkpt><trkpt lat="44.844109135721226" lon="11.782721396124074"><ele>3.0</ele><time>2026-04-11T12:18:53.993Z</time></trkpt><trkpt lat="44.84409274494977" lon="11.783071251539283"><ele>3.0</ele><time>2026-04-11T12:18:54.993Z</time></trkpt><trkpt lat="44.84407762144113" lon="11.78344407128451"><ele>3.0</ele><time>2026-04-11T12:18:55.993Z</time></trkpt><trkpt lat="44.844063494707086" lon="11.78383192383877"><ele>3.0</ele><time>2026-04-11T12:18:56.993Z</time></trkpt><trkpt lat="44.84404387563151" lon="11.784231719704525"><ele>3.0</ele><time>2026-04-11T12:18:57.993Z</time></trkpt><trkpt lat="44.844017830059656" lon="11.784628726282062"><ele>3.5</ele><time>2026-04-11T12:18:58.993Z</time></trkpt><trkpt lat="44.84399710201617" lon="11.785001451340461"><ele>4.0</ele><time>2026-04-11T12:18:59.993Z</time></trkpt><trkpt lat="44.843972851542226" lon="11.78537925158826"><ele>3.0</ele><time>2026-04-11T12:19:00.992Z</time></trkpt><trkpt lat="44.84395729451831" lon="11.78578030669699"><ele>2.0</ele><time>2026-04-11T12:19:01.992Z</time></trkpt><trkpt lat="44.843948222738454" lon="11.786183709173134"><ele>2.0</ele><time>2026-04-11T12:19:02.992Z</time></trkpt><trkpt lat="44.84394721417039" lon="11.786610144613118"><ele>2.0</ele><time>2026-04-11T12:19:03.992Z</time></trkpt><trkpt lat="44.84393311457481" lon="11.787014257524577"><ele>2.0</ele><time>2026-04-11T12:19:04.992Z</time></trkpt><trkpt lat="44.8439205243163" lon="11.787422737828214"><ele>2.0</ele><time>2026-04-11T12:19:05.992Z</time></trkpt><trkpt lat="44.84391472209042" lon="11.787815093202507"><ele>2.5</ele><time>2026-04-11T12:19:06.992Z</time></trkpt><trkpt lat="44.8438964420514" lon="11.788190397766448"><ele>3.0</ele><time>2026-04-11T12:19:07.992Z</time></trkpt><trkpt lat="44.84388389771673" lon="11.788558337804565"><ele>3.0</ele><time>2026-04-11T12:19:08.992Z</time></trkpt><trkpt lat="44.8438607956075" lon="11.78891378911946"><ele>3.0</ele><time>2026-04-11T12:19:09.992Z</time></trkpt><trkpt lat="44.843806463399886" lon="11.789244804885495"><ele>3.0</ele><time>2026-04-11T12:19:10.992Z</time></trkpt><trkpt lat="44.843743081746894" lon="11.789595192466942"><ele>3.0</ele><time>2026-04-11T12:19:11.992Z</time></trkpt><trkpt lat="44.84367643627303" lon="11.78995763578379"><ele>2.5</ele><time>2026-04-11T12:19:12.992Z</time></trkpt><trkpt lat="44.84361146663025" lon="11.790310965296433"><ele>2.0</ele><time>2026-04-11T12:19:13.992Z</time></trkpt><trkpt lat="44.843558098068556" lon="11.790664863389225"><ele>1.5</ele><time>2026-04-11T12:19:14.992Z</time></trkpt><trkpt lat="44.84349503500513" lon="11.791010819018357"><ele>1.0</ele><time>2026-04-11T12:19:15.992Z</time></trkpt><trkpt lat="44.843425862680796" lon="11.791357528053659"><ele>2.5</ele><time>2026-04-11T12:19:16.991Z</time></trkpt><trkpt lat="44.84335098381539" lon="11.79169944841202"><ele>4.0</ele><time>2026-04-11T12:19:17.991Z</time></trkpt><trkpt lat="44.84324888321373" lon="11.792020509432794"><ele>4.0</ele><time>2026-04-11T12:19:18.991Z</time></trkpt><trkpt lat="44.84314101746463" lon="11.792358820502946"><ele>4.0</ele><time>2026-04-11T12:19:19.991Z</time></trkpt><trkpt lat="44.84302807884119" lon="11.792701711445437"><ele>3.5</ele><time>2026-04-11T12:19:20.991Z</time></trkpt><trkpt lat="44.84292924606544" lon="11.793055005714212"><ele>3.0</ele><time>2026-04-11T12:19:21.991Z</time></trkpt><trkpt lat="44.84279592271783" lon="11.793398706247789"><ele>3.0</ele><time>2026-04-11T12:19:22.991Z</time></trkpt><trkpt lat="44.84266676332192" lon="11.793750644457115"><ele>3.0</ele><time>2026-04-11T12:19:23.991Z</time></trkpt><trkpt lat="44.84253299941946" lon="11.794101805659944"><ele>3.5</ele><time>2026-04-11T12:19:24.991Z</time></trkpt><trkpt lat="44.84239812638691" lon="11.794454396404529"><ele>4.0</ele><time>2026-04-11T12:19:25.991Z</time></trkpt><trkpt lat="44.842256419515145" lon="11.794810839676364"><ele>4.0</ele><time>2026-04-11T12:19:26.991Z</time></trkpt><trkpt lat="44.84212076290938" lon="11.795161880842617"><ele>4.0</ele><time>2026-04-11T12:19:27.992Z</time></trkpt><trkpt lat="44.841979092650234" lon="11.795525274016418"><ele>3.5</ele><time>2026-04-11T12:19:28.992Z</time></trkpt><trkpt lat="44.841847402821145" lon="11.795883120200179"><ele>3.0</ele><time>2026-04-11T12:19:29.992Z</time></trkpt><trkpt lat="44.84171655083868" lon="11.796237828428014"><ele>3.0</ele><time>2026-04-11T12:19:30.992Z</time></trkpt><trkpt lat="44.84158523773205" lon="11.796585081247907"><ele>3.0</ele><time>2026-04-11T12:19:31.993Z</time></trkpt><trkpt lat="44.84144747359625" lon="11.796943651323792"><ele>2.5</ele><time>2026-04-11T12:19:32.993Z</time></trkpt><trkpt lat="44.84131209160455" lon="11.797299355818462"><ele>2.0</ele><time>2026-04-11T12:19:33.993Z</time></trkpt><trkpt lat="44.84116487723594" lon="11.797637864618359"><ele>2.5</ele><time>2026-04-11T12:19:34.992Z</time></trkpt><trkpt lat="44.841036903568245" lon="11.797995871344696"><ele>3.0</ele><time>2026-04-11T12:19:35.992Z</time></trkpt><trkpt lat="44.84090285142254" lon="11.798343559834851"><ele>3.5</ele><time>2026-04-11T12:19:36.992Z</time></trkpt><trkpt lat="44.840775889205666" lon="11.798692811026473"><ele>4.0</ele><time>2026-04-11T12:19:37.992Z</time></trkpt><trkpt lat="44.840643951023246" lon="11.799031581090347"><ele>3.0</ele><time>2026-04-11T12:19:38.992Z</time></trkpt><trkpt lat="44.84050627921108" lon="11.799358946231063"><ele>2.0</ele><time>2026-04-11T12:19:39.992Z</time></trkpt><trkpt lat="44.84036869390797" lon="11.799694159169386"><ele>2.0</ele><time>2026-04-11T12:19:40.992Z</time></trkpt><trkpt lat="44.84025251498891" lon="11.800003289749569"><ele>2.0</ele><time>2026-04-11T12:19:41.992Z</time></trkpt><trkpt lat="44.84013828161848" lon="11.800292036259517"><ele>2.5</ele><time>2026-04-11T12:19:42.992Z</time></trkpt><trkpt lat="44.84002368229383" lon="11.800575398943227"><ele>3.0</ele><time>2026-04-11T12:19:43.992Z</time></trkpt><trkpt lat="44.83990522630332" lon="11.800867867488899"><ele>2.5</ele><time>2026-04-11T12:19:44.992Z</time></trkpt><trkpt lat="44.839801906378405" lon="11.801159579050926"><ele>2.0</ele><time>2026-04-11T12:19:45.992Z</time></trkpt><trkpt lat="44.83970067073399" lon="11.801460146715675"><ele>2.0</ele><time>2026-04-11T12:19:46.992Z</time></trkpt><trkpt lat="44.839617610273514" lon="11.801757174446355"><ele>2.0</ele><time>2026-04-11T12:19:47.992Z</time></trkpt><trkpt lat="44.83955089819171" lon="11.802053293747322"><ele>2.0</ele><time>2026-04-11T12:19:48.992Z</time></trkpt><trkpt lat="44.839497651188886" lon="11.802336830608846"><ele>2.333333333333333</ele><time>2026-04-11T12:19:49.992Z</time></trkpt><trkpt lat="44.8394764670101" lon="11.802611449817286"><ele>2.6666666666666665</ele><time>2026-04-11T12:19:50.992Z</time></trkpt><trkpt lat="44.83950174422813" lon="11.802873112525068"><ele>3.0</ele><time>2026-04-11T12:19:51.992Z</time></trkpt><trkpt lat="44.8395432398439" lon="11.803187716410621"><ele>3.0</ele><time>2026-04-11T12:19:52.992Z</time></trkpt><trkpt lat="44.83957299432018" lon="11.80350458373189"><ele>3.0</ele><time>2026-04-11T12:19:53.992Z</time></trkpt><trkpt lat="44.839571363896034" lon="11.803830388214761"><ele>3.0</ele><time>2026-04-11T12:19:54.992Z</time></trkpt><trkpt lat="44.83956061174738" lon="11.804173099776307"><ele>3.0</ele><time>2026-04-11T12:19:55.992Z</time></trkpt><trkpt lat="44.83953918997896" lon="11.804526925611848"><ele>3.0</ele><time>2026-04-11T12:19:56.992Z</time></trkpt><trkpt lat="44.839499852441826" lon="11.804880311509134"><ele>3.0</ele><time>2026-04-11T12:19:57.992Z</time></trkpt><trkpt lat="44.83945790572333" lon="11.805256704265169"><ele>3.0</ele><time>2026-04-11T12:19:58.992Z</time></trkpt><trkpt lat="44.83941292863401" lon="11.805617513843995"><ele>3.0</ele><time>2026-04-11T12:19:59.992Z</time></trkpt><trkpt lat="44.839344384332364" lon="11.805973384982508"><ele>4.0</ele><time>2026-04-11T12:20:00.992Z</time></trkpt><trkpt lat="44.83926414295506" lon="11.806326284930899"><ele>5.0</ele><time>2026-04-11T12:20:01.992Z</time></trkpt><trkpt lat="44.839182957260256" lon="11.806693948233944"><ele>5.0</ele><time>2026-04-11T12:20:02.992Z</time></trkpt><trkpt lat="44.83911875665028" lon="11.807069547653757"><ele>5.0</ele><time>2026-04-11T12:20:03.992Z</time></trkpt><trkpt lat="44.83905055366004" lon="11.807440340191683"><ele>3.5</ele><time>2026-04-11T12:20:04.992Z</time></trkpt><trkpt lat="44.838978274751824" lon="11.807809382998949"><ele>2.0</ele><time>2026-04-11T12:20:05.992Z</time></trkpt><trkpt lat="44.83890320360503" lon="11.808135338377188"><ele>2.0</ele><time>2026-04-11T12:20:06.992Z</time></trkpt><trkpt lat="44.83884831036954" lon="11.808408741266183"><ele>2.0</ele><time>2026-04-11T12:20:07.992Z</time></trkpt><trkpt lat="44.83879568257319" lon="11.80866522587644"><ele>2.0</ele><time>2026-04-11T12:20:08.992Z</time></trkpt><trkpt lat="44.83874725694311" lon="11.808918608787913"><ele>2.0</ele><time>2026-04-11T12:20:09.992Z</time></trkpt><trkpt lat="44.83870460931802" lon="11.80916341112834"><ele>2.0</ele><time>2026-04-11T12:20:10.992Z</time></trkpt><trkpt lat="44.83864228734792" lon="11.809407843490773"><ele>2.0</ele><time>2026-04-11T12:20:11.992Z</time></trkpt><trkpt lat="44.83859275103611" lon="11.809689859603532"><ele>3.0</ele><time>2026-04-11T12:20:12.992Z</time></trkpt><trkpt lat="44.838548285843665" lon="11.809996631280555"><ele>4.0</ele><time>2026-04-11T12:20:13.992Z</time></trkpt><trkpt lat="44.83851605108686" lon="11.810322641757121"><ele>4.0</ele><time>2026-04-11T12:20:14.992Z</time></trkpt><trkpt lat="44.838474465952224" lon="11.810666366884849"><ele>4.0</ele><time>2026-04-11T12:20:15.992Z</time></trkpt><trkpt lat="44.838447722575516" lon="11.811028701474024"><ele>3.5</ele><time>2026-04-11T12:20:16.992Z</time></trkpt><trkpt lat="44.83842563881845" lon="11.81142087512837"><ele>3.0</ele><time>2026-04-11T12:20:17.992Z</time></trkpt><trkpt lat="44.83840356777179" lon="11.811782402004964"><ele>3.0</ele><time>2026-04-11T12:20:18.992Z</time></trkpt><trkpt lat="44.838360734113" lon="11.812114644908148"><ele>3.0</ele><time>2026-04-11T12:20:19.992Z</time></trkpt><trkpt lat="44.83833280102" lon="11.81242199290085"><ele>3.666666666666667</ele><time>2026-04-11T12:20:20.992Z</time></trkpt><trkpt lat="44.838306522312635" lon="11.812726165457516"><ele>4.333333333333334</ele><time>2026-04-11T12:20:21.992Z</time></trkpt><trkpt lat="44.838268113938284" lon="11.8130430214161"><ele>5.0</ele><time>2026-04-11T12:20:22.992Z</time></trkpt><trkpt lat="44.83818533005853" lon="11.813341045941351"><ele>4.5</ele><time>2026-04-11T12:20:23.992Z</time></trkpt><trkpt lat="44.83811744126231" lon="11.813671182238025"><ele>4.0</ele><time>2026-04-11T12:20:24.992Z</time></trkpt><trkpt lat="44.83801086538172" lon="11.813980449425657"><ele>4.0</ele><time>2026-04-11T12:20:25.992Z</time></trkpt><trkpt lat="44.83789263925888" lon="11.814289090844028"><ele>4.0</ele><time>2026-04-11T12:20:26.992Z</time></trkpt><trkpt lat="44.8377744258206" lon="11.814591520267427"><ele>3.5</ele><time>2026-04-11T12:20:27.992Z</time></trkpt><trkpt lat="44.837655108929305" lon="11.81488507407591"><ele>3.0</ele><time>2026-04-11T12:20:28.992Z</time></trkpt><trkpt lat="44.837516210119276" lon="11.815157755412834"><ele>3.666666666666667</ele><time>2026-04-11T12:20:29.992Z</time></trkpt><trkpt lat="44.83740502256898" lon="11.815430742661325"><ele>4.333333333333334</ele><time>2026-04-11T12:20:30.992Z</time></trkpt><trkpt lat="44.83729122587013" lon="11.815672230300438"><ele>5.0</ele><time>2026-04-11T12:20:31.991Z</time></trkpt><trkpt lat="44.83718785822077" lon="11.8159008033438"><ele>5.0</ele><time>2026-04-11T12:20:32.991Z</time></trkpt><trkpt lat="44.837096989618836" lon="11.816116652039787"><ele>5.0</ele><time>2026-04-11T12:20:33.991Z</time></trkpt><trkpt lat="44.83702695107987" lon="11.816341316200262"><ele>5.0</ele><time>2026-04-11T12:20:34.991Z</time></trkpt><trkpt lat="44.83699149980933" lon="11.816590446046463"><ele>4.666666666666667</ele><time>2026-04-11T12:20:35.991Z</time></trkpt><trkpt lat="44.83698820368702" lon="11.816862068394634"><ele>4.333333333333333</ele><time>2026-04-11T12:20:36.991Z</time></trkpt><trkpt lat="44.837017990213226" lon="11.81716223716461"><ele>4.0</ele><time>2026-04-11T12:20:37.991Z</time></trkpt><trkpt lat="44.837066244784985" lon="11.817485879085998"><ele>3.0</ele><time>2026-04-11T12:20:38.991Z</time></trkpt><trkpt lat="44.8371283683174" lon="11.81783018418605"><ele>2.0</ele><time>2026-04-11T12:20:39.991Z</time></trkpt><trkpt lat="44.8371966692708" lon="11.81816880159591"><ele>2.0</ele><time>2026-04-11T12:20:40.991Z</time></trkpt><trkpt lat="44.83726975190222" lon="11.818515153214461"><ele>2.0</ele><time>2026-04-11T12:20:41.991Z</time></trkpt><trkpt lat="44.837334210863574" lon="11.818866653737267"><ele>2.0</ele><time>2026-04-11T12:20:42.991Z</time></trkpt><trkpt lat="44.8373956106685" lon="11.819222861928274"><ele>2.0</ele><time>2026-04-11T12:20:43.991Z</time></trkpt><trkpt lat="44.837455213669045" lon="11.819574857856509"><ele>2.5</ele><time>2026-04-11T12:20:44.991Z</time></trkpt><trkpt lat="44.837506520904284" lon="11.819906993036494"><ele>3.0</ele><time>2026-04-11T12:20:45.991Z</time></trkpt><trkpt lat="44.83756176146352" lon="11.820238924924771"><ele>3.0</ele><time>2026-04-11T12:20:46.991Z</time></trkpt><trkpt lat="44.83761249818736" lon="11.82056274189677"><ele>3.0</ele><time>2026-04-11T12:20:47.991Z</time></trkpt><trkpt lat="44.8376612297353" lon="11.820885711376983"><ele>2.5</ele><time>2026-04-11T12:20:48.991Z</time></trkpt><trkpt lat="44.83770497044264" lon="11.821201300094424"><ele>2.0</ele><time>2026-04-11T12:20:49.991Z</time></trkpt><trkpt lat="44.83774210019882" lon="11.821512943823958"><ele>2.333333333333333</ele><time>2026-04-11T12:20:50.991Z</time></trkpt><trkpt lat="44.83778743065648" lon="11.821836742428745"><ele>2.6666666666666665</ele><time>2026-04-11T12:20:51.991Z</time></trkpt><trkpt lat="44.83779771522387" lon="11.82213842356631"><ele>3.0</ele><time>2026-04-11T12:20:52.991Z</time></trkpt><trkpt lat="44.83782225384836" lon="11.822424876017955"><ele>3.333333333333333</ele><time>2026-04-11T12:20:53.991Z</time></trkpt><trkpt lat="44.83786275256636" lon="11.822686155600904"><ele>3.6666666666666665</ele><time>2026-04-11T12:20:54.991Z</time></trkpt><trkpt lat="44.837876434264444" lon="11.822938116065838"><ele>4.0</ele><time>2026-04-11T12:20:55.991Z</time></trkpt><trkpt lat="44.8378877162862" lon="11.823177947635036"><ele>4.0</ele><time>2026-04-11T12:20:56.991Z</time></trkpt><trkpt lat="44.83791659963762" lon="11.823405653082629"><ele>4.0</ele><time>2026-04-11T12:20:57.991Z</time></trkpt><trkpt lat="44.837956016687926" lon="11.823635189155414"><ele>4.0</ele><time>2026-04-11T12:20:58.991Z</time></trkpt><trkpt lat="44.83798632880975" lon="11.82385241140087"><ele>4.0</ele><time>2026-04-11T12:20:59.991Z</time></trkpt><trkpt lat="44.8380078145538" lon="11.824077415266018"><ele>4.0</ele><time>2026-04-11T12:21:00.991Z</time></trkpt><trkpt lat="44.83802649108975" lon="11.82428283871481"><ele>4.0</ele><time>2026-04-11T12:21:01.991Z</time></trkpt><trkpt lat="44.83803717588303" lon="11.824463635138006"><ele>4.0</ele><time>2026-04-11T12:21:02.991Z</time></trkpt><trkpt lat="44.838054710537136" lon="11.824646783151609"><ele>4.5</ele><time>2026-04-11T12:21:03.991Z</time></trkpt><trkpt lat="44.838070433350495" lon="11.824816642779684"><ele>5.0</ele><time>2026-04-11T12:21:04.991Z</time></trkpt><trkpt lat="44.83808443637942" lon="11.824982105204342"><ele>5.5</ele><time>2026-04-11T12:21:05.991Z</time></trkpt><trkpt lat="44.838096086578446" lon="11.825141055699431"><ele>6.0</ele><time>2026-04-11T12:21:06.991Z</time></trkpt><trkpt lat="44.838111979389296" lon="11.825276470097604"><ele>6.166666666666667</ele><time>2026-04-11T12:21:07.991Z</time></trkpt><trkpt lat="44.83810759669362" lon="11.825386688658343"><ele>6.333333333333334</ele><time>2026-04-11T12:21:08.991Z</time></trkpt><trkpt lat="44.83811087771861" lon="11.825477148637722"><ele>6.5</ele><time>2026-04-11T12:21:09.991Z</time></trkpt><trkpt lat="44.83812181107294" lon="11.825578258168624"><ele>6.666666666666667</ele><time>2026-04-11T12:21:11.991Z</time></trkpt><trkpt lat="44.838189939379994" lon="11.825635997176526"><ele>6.833333333333334</ele><time>2026-04-11T12:21:21.991Z</time></trkpt><trkpt lat="44.838306175830496" lon="11.82563801656613"><ele>7.0</ele><time>2026-04-11T12:21:23.991Z</time></trkpt><trkpt lat="44.83838162988453" lon="11.825640490673663"><ele>7.0</ele><time>2026-04-11T12:21:24.991Z</time></trkpt><trkpt lat="44.83845100484834" lon="11.825639802884462"><ele>6.999999999999999</ele><time>2026-04-11T12:21:25.991Z</time></trkpt><trkpt lat="44.83856838030941" lon="11.825639258906888"><ele>6.999999999999999</ele><time>2026-04-11T12:21:27.991Z</time></trkpt><trkpt lat="44.83868363292608" lon="11.825656396766497"><ele>7.0</ele><time>2026-04-11T12:21:29.991Z</time></trkpt><trkpt lat="44.83878661179952" lon="11.825774898460052"><ele>7.0</ele><time>2026-04-11T12:21:31.99Z</time></trkpt><trkpt lat="44.83883805386648" lon="11.825894034079628"><ele>6.75</ele><time>2026-04-11T12:21:32.99Z</time></trkpt><trkpt lat="44.83888393722701" lon="11.826038093540705"><ele>6.5</ele><time>2026-04-11T12:21:33.992Z</time></trkpt><trkpt lat="44.83893146004156" lon="11.826215481052579"><ele>6.25</ele><time>2026-04-11T12:21:34.992Z</time></trkpt><trkpt lat="44.83897129854324" lon="11.826405961718494"><ele>6.0</ele><time>2026-04-11T12:21:35.992Z</time></trkpt><trkpt lat="44.83901785482306" lon="11.826608187493202"><ele>6.0</ele><time>2026-04-11T12:21:36.991Z</time></trkpt><trkpt lat="44.83905263266224" lon="11.826800272812088"><ele>6.0</ele><time>2026-04-11T12:21:37.992Z</time></trkpt><trkpt lat="44.83908266163664" lon="11.826997138067382"><ele>6.0</ele><time>2026-04-11T12:21:38.992Z</time></trkpt><trkpt lat="44.83910185840694" lon="11.827194893050054"><ele>6.0</ele><time>2026-04-11T12:21:39.992Z</time></trkpt><trkpt lat="44.839099776287014" lon="11.827406199905637"><ele>6.0</ele><time>2026-04-11T12:21:40.992Z</time></trkpt><trkpt lat="44.839092476671134" lon="11.82762313526187"><ele>6.0</ele><time>2026-04-11T12:21:41.992Z</time></trkpt><trkpt lat="44.83907998219113" lon="11.827861919331463"><ele>6.0</ele><time>2026-04-11T12:21:42.992Z</time></trkpt><trkpt lat="44.83904928259313" lon="11.82810839643104"><ele>5.0</ele><time>2026-04-11T12:21:43.992Z</time></trkpt><trkpt lat="44.83901823300958" lon="11.828358525372973"><ele>4.0</ele><time>2026-04-11T12:21:44.992Z</time></trkpt><trkpt lat="44.838984214919414" lon="11.828618371861705"><ele>3.0</ele><time>2026-04-11T12:21:45.992Z</time></trkpt><trkpt lat="44.83895738314951" lon="11.828863007480216"><ele>2.6666666666666665</ele><time>2026-04-11T12:21:46.991Z</time></trkpt><trkpt lat="44.83892478120159" lon="11.829116332207402"><ele>2.333333333333333</ele><time>2026-04-11T12:21:47.991Z</time></trkpt><trkpt lat="44.838906404787195" lon="11.829375139500593"><ele>2.0</ele><time>2026-04-11T12:21:48.991Z</time></trkpt><trkpt lat="44.838873564480764" lon="11.829630581643707"><ele>2.0</ele><time>2026-04-11T12:21:49.991Z</time></trkpt><trkpt lat="44.83881385097209" lon="11.829860846203411"><ele>2.0</ele><time>2026-04-11T12:21:50.991Z</time></trkpt><trkpt lat="44.83873320993301" lon="11.83008560084341"><ele>2.0</ele><time>2026-04-11T12:21:51.991Z</time></trkpt><trkpt lat="44.838636764508834" lon="11.830306116174441"><ele>1.6666666666666665</ele><time>2026-04-11T12:21:52.991Z</time></trkpt><trkpt lat="44.83854111871274" lon="11.830537895606627"><ele>1.3333333333333333</ele><time>2026-04-11T12:21:53.991Z</time></trkpt><trkpt lat="44.8384719685265" lon="11.830793776098686"><ele>1.0</ele><time>2026-04-11T12:21:54.991Z</time></trkpt><trkpt lat="44.8384128961798" lon="11.83106285071712"><ele>1.3333333333333333</ele><time>2026-04-11T12:21:55.991Z</time></trkpt><trkpt lat="44.838360312392545" lon="11.831335061766074"><ele>1.6666666666666665</ele><time>2026-04-11T12:21:56.991Z</time></trkpt><trkpt lat="44.8382914708993" lon="11.831608156389708"><ele>2.0</ele><time>2026-04-11T12:21:57.991Z</time></trkpt><trkpt lat="44.83820235773063" lon="11.83187020415153"><ele>2.0</ele><time>2026-04-11T12:21:58.991Z</time></trkpt><trkpt lat="44.83810706539978" lon="11.832135255642317"><ele>2.0</ele><time>2026-04-11T12:21:59.991Z</time></trkpt><trkpt lat="44.83801766719234" lon="11.832388823711256"><ele>2.0</ele><time>2026-04-11T12:22:00.991Z</time></trkpt><trkpt lat="44.83792323754752" lon="11.832642936441815"><ele>1.6666666666666665</ele><time>2026-04-11T12:22:01.991Z</time></trkpt><trkpt lat="44.83781594095956" lon="11.832888621757979"><ele>1.3333333333333333</ele><time>2026-04-11T12:22:02.991Z</time></trkpt><trkpt lat="44.83769963124613" lon="11.8331152506011"><ele>1.0</ele><time>2026-04-11T12:22:03.991Z</time></trkpt><trkpt lat="44.83756218870804" lon="11.833308417145354"><ele>1.0</ele><time>2026-04-11T12:22:04.991Z</time></trkpt><trkpt lat="44.83741322313439" lon="11.833490453704217"><ele>1.0</ele><time>2026-04-11T12:22:05.991Z</time></trkpt><trkpt lat="44.837213730099904" lon="11.83363916706046"><ele>1.0</ele><time>2026-04-11T12:22:06.991Z</time></trkpt><trkpt lat="44.83703040141437" lon="11.833830464833687"><ele>1.0</ele><time>2026-04-11T12:22:07.991Z</time></trkpt><trkpt lat="44.83684294221342" lon="11.83400757767236"><ele>1.0</ele><time>2026-04-11T12:22:08.991Z</time></trkpt><trkpt lat="44.836657303033604" lon="11.834179542510045"><ele>1.0</ele><time>2026-04-11T12:22:09.991Z</time></trkpt><trkpt lat="44.836482773292644" lon="11.834341516187513"><ele>1.3333333333333333</ele><time>2026-04-11T12:22:10.991Z</time></trkpt><trkpt lat="44.83634292470169" lon="11.834473225257469"><ele>1.6666666666666665</ele><time>2026-04-11T12:22:11.991Z</time></trkpt><trkpt lat="44.83621829039641" lon="11.834601559704296"><ele>2.0</ele><time>2026-04-11T12:22:12.991Z</time></trkpt><trkpt lat="44.83611267498744" lon="11.834751424820588"><ele>2.0</ele><time>2026-04-11T12:22:13.991Z</time></trkpt><trkpt lat="44.83604400748929" lon="11.834950032684509"><ele>2.0</ele><time>2026-04-11T12:22:14.991Z</time></trkpt><trkpt lat="44.83597520517182" lon="11.835186939955877"><ele>2.0</ele><time>2026-04-11T12:22:15.991Z</time></trkpt><trkpt lat="44.83590952841541" lon="11.835459999870643"><ele>1.5</ele><time>2026-04-11T12:22:16.991Z</time></trkpt><trkpt lat="44.8358380261778" lon="11.835756992875128"><ele>1.0</ele><time>2026-04-11T12:22:17.991Z</time></trkpt><trkpt lat="44.83574447807894" lon="11.836060760079812"><ele>0.5</ele><time>2026-04-11T12:22:18.991Z</time></trkpt><trkpt lat="44.83566137024325" lon="11.836372367235164"><ele>0.0</ele><time>2026-04-11T12:22:19.991Z</time></trkpt><trkpt lat="44.8356037199534" lon="11.836711608127045"><ele>0.5</ele><time>2026-04-11T12:22:20.991Z</time></trkpt><trkpt lat="44.83551907247862" lon="11.837032130206499"><ele>1.0</ele><time>2026-04-11T12:22:21.991Z</time></trkpt><trkpt lat="44.83543002681348" lon="11.837351831899243"><ele>1.5</ele><time>2026-04-11T12:22:22.991Z</time></trkpt><trkpt lat="44.835349666009535" lon="11.837666638339027"><ele>2.0</ele><time>2026-04-11T12:22:23.991Z</time></trkpt><trkpt lat="44.83526607241383" lon="11.837968381936566"><ele>2.0</ele><time>2026-04-11T12:22:24.991Z</time></trkpt><trkpt lat="44.83518882776607" lon="11.838259770567946"><ele>2.0</ele><time>2026-04-11T12:22:25.991Z</time></trkpt><trkpt lat="44.835114152668766" lon="11.838531998502411"><ele>2.0</ele><time>2026-04-11T12:22:26.991Z</time></trkpt><trkpt lat="44.83503344047797" lon="11.838792122869986"><ele>1.6666666666666665</ele><time>2026-04-11T12:22:27.991Z</time></trkpt><trkpt lat="44.83496716758774" lon="11.8390425961809"><ele>1.3333333333333333</ele><time>2026-04-11T12:22:28.991Z</time></trkpt><trkpt lat="44.83489920255693" lon="11.83928163117656"><ele>1.0</ele><time>2026-04-11T12:22:29.991Z</time></trkpt><trkpt lat="44.83484153757689" lon="11.839512599710126"><ele>1.0</ele><time>2026-04-11T12:22:30.991Z</time></trkpt><trkpt lat="44.83480036952018" lon="11.839733174877484"><ele>1.0</ele><time>2026-04-11T12:22:31.991Z</time></trkpt><trkpt lat="44.83477653113994" lon="11.839959942098291"><ele>1.0</ele><time>2026-04-11T12:22:32.99Z</time></trkpt><trkpt lat="44.834764212236394" lon="11.840188410269308"><ele>0.6666666666666666</ele><time>2026-04-11T12:22:33.99Z</time></trkpt><trkpt lat="44.83477068158077" lon="11.840411788748108"><ele>0.3333333333333333</ele><time>2026-04-11T12:22:34.99Z</time></trkpt><trkpt lat="44.83480057217094" lon="11.84063180821696"><ele>0.0</ele><time>2026-04-11T12:22:35.99Z</time></trkpt><trkpt lat="44.83485656103065" lon="11.840833283391769"><ele>0.3333333333333333</ele><time>2026-04-11T12:22:36.99Z</time></trkpt><trkpt lat="44.83493952065313" lon="11.84104746792854"><ele>0.6666666666666666</ele><time>2026-04-11T12:22:37.99Z</time></trkpt><trkpt lat="44.83507046732382" lon="11.84126293295686"><ele>1.0</ele><time>2026-04-11T12:22:38.99Z</time></trkpt><trkpt lat="44.83520331006482" lon="11.841516207694564"><ele>1.0</ele><time>2026-04-11T12:22:39.99Z</time></trkpt><trkpt lat="44.83535185695963" lon="11.841787025275183"><ele>1.0</ele><time>2026-04-11T12:22:40.99Z</time></trkpt><trkpt lat="44.83547790303858" lon="11.842068835896304"><ele>1.0</ele><time>2026-04-11T12:22:41.99Z</time></trkpt><trkpt lat="44.83561947517687" lon="11.84235057153519"><ele>1.0</ele><time>2026-04-11T12:22:42.99Z</time></trkpt><trkpt lat="44.83575514197361" lon="11.842615288218635"><ele>1.0</ele><time>2026-04-11T12:22:43.99Z</time></trkpt><trkpt lat="44.835895532174206" lon="11.842853574208878"><ele>1.0</ele><time>2026-04-11T12:22:44.99Z</time></trkpt><trkpt lat="44.83603186654007" lon="11.843073787587691"><ele>1.0</ele><time>2026-04-11T12:22:45.99Z</time></trkpt><trkpt lat="44.83617806836593" lon="11.843283095624487"><ele>1.0</ele><time>2026-04-11T12:22:46.99Z</time></trkpt><trkpt lat="44.8363557985399" lon="11.843470893606511"><ele>1.0</ele><time>2026-04-11T12:22:47.99Z</time></trkpt><trkpt lat="44.83656043069852" lon="11.843658752974477"><ele>1.0</ele><time>2026-04-11T12:22:48.99Z</time></trkpt><trkpt lat="44.83677433758026" lon="11.843861993927641"><ele>1.0</ele><time>2026-04-11T12:22:49.99Z</time></trkpt><trkpt lat="44.836990517445535" lon="11.844068168233344"><ele>1.0</ele><time>2026-04-11T12:22:50.99Z</time></trkpt><trkpt lat="44.83721497441516" lon="11.844266794841504"><ele>1.0</ele><time>2026-04-11T12:22:51.99Z</time></trkpt><trkpt lat="44.837434901598584" lon="11.844484638186259"><ele>1.0</ele><time>2026-04-11T12:22:52.99Z</time></trkpt><trkpt lat="44.83765452175883" lon="11.844696153013055"><ele>1.0</ele><time>2026-04-11T12:22:53.99Z</time></trkpt><trkpt lat="44.83787119769627" lon="11.844908380223439"><ele>1.0</ele><time>2026-04-11T12:22:54.99Z</time></trkpt><trkpt lat="44.83809177169744" lon="11.84511777427962"><ele>1.0</ele><time>2026-04-11T12:22:55.99Z</time></trkpt><trkpt lat="44.83830844830975" lon="11.845332575829053"><ele>1.0</ele><time>2026-04-11T12:22:56.99Z</time></trkpt><trkpt lat="44.8385299584484" lon="11.84554716805501"><ele>1.0</ele><time>2026-04-11T12:22:57.99Z</time></trkpt><trkpt lat="44.83875446012384" lon="11.845767530640426"><ele>-0.5</ele><time>2026-04-11T12:22:58.99Z</time></trkpt><trkpt lat="44.83897626435832" lon="11.845978522000346"><ele>-2.0</ele><time>2026-04-11T12:22:59.99Z</time></trkpt><trkpt lat="44.839195989119176" lon="11.846187487120467"><ele>-1.5</ele><time>2026-04-11T12:23:00.99Z</time></trkpt><trkpt lat="44.839415632710484" lon="11.846405252319467"><ele>-1.0</ele><time>2026-04-11T12:23:01.99Z</time></trkpt><trkpt lat="44.83963651330296" lon="11.846617787732168"><ele>0.0</ele><time>2026-04-11T12:23:02.99Z</time></trkpt><trkpt lat="44.839849559167305" lon="11.846823759109533"><ele>1.0</ele><time>2026-04-11T12:23:03.99Z</time></trkpt><trkpt lat="44.8400503860969" lon="11.847019208070897"><ele>1.0</ele><time>2026-04-11T12:23:04.99Z</time></trkpt><trkpt lat="44.84024032802169" lon="11.847215315626828"><ele>1.0</ele><time>2026-04-11T12:23:05.99Z</time></trkpt><trkpt lat="44.84041985560206" lon="11.847393224408957"><ele>1.0</ele><time>2026-04-11T12:23:06.99Z</time></trkpt><trkpt lat="44.84058733191013" lon="11.847560730862543"><ele>1.0</ele><time>2026-04-11T12:23:07.99Z</time></trkpt><trkpt lat="44.84074719388004" lon="11.847716697859894"><ele>1.0</ele><time>2026-04-11T12:23:08.99Z</time></trkpt><trkpt lat="44.84090723556693" lon="11.847865743099675"><ele>1.3333333333333333</ele><time>2026-04-11T12:23:09.99Z</time></trkpt><trkpt lat="44.84106198049251" lon="11.848014763630276"><ele>1.6666666666666665</ele><time>2026-04-11T12:23:10.99Z</time></trkpt><trkpt lat="44.8412125278486" lon="11.848157020974023"><ele>2.0</ele><time>2026-04-11T12:23:11.99Z</time></trkpt><trkpt lat="44.84134742694756" lon="11.848304138760746"><ele>2.0</ele><time>2026-04-11T12:23:12.99Z</time></trkpt><trkpt lat="44.841465074769665" lon="11.848455027923757"><ele>2.0</ele><time>2026-04-11T12:23:13.99Z</time></trkpt><trkpt lat="44.84156083517024" lon="11.848622935182235"><ele>2.0</ele><time>2026-04-11T12:23:14.99Z</time></trkpt><trkpt lat="44.84164286221159" lon="11.848779150864036"><ele>1.8</ele><time>2026-04-11T12:23:15.99Z</time></trkpt><trkpt lat="44.841721838678474" lon="11.84891858996694"><ele>1.6</ele><time>2026-04-11T12:23:16.99Z</time></trkpt><trkpt lat="44.84179056969991" lon="11.849044943998678"><ele>1.4000000000000001</ele><time>2026-04-11T12:23:17.99Z</time></trkpt><trkpt lat="44.84184977232611" lon="11.849157446827327"><ele>1.2000000000000002</ele><time>2026-04-11T12:23:18.99Z</time></trkpt><trkpt lat="44.8418989271938" lon="11.84924995400149"><ele>1.0</ele><time>2026-04-11T12:23:19.99Z</time></trkpt><trkpt lat="44.84194568642555" lon="11.849332801787398"><ele>0.8333333333333333</ele><time>2026-04-11T12:23:20.99Z</time></trkpt><trkpt lat="44.84200064678161" lon="11.849408828235282"><ele>0.6666666666666666</ele><time>2026-04-11T12:23:21.99Z</time></trkpt><trkpt lat="44.842024238076505" lon="11.84954197629649"><ele>0.5</ele><time>2026-04-11T12:23:22.99Z</time></trkpt><trkpt lat="44.842056629861254" lon="11.849649066455697"><ele>0.3333333333333333</ele><time>2026-04-11T12:23:23.99Z</time></trkpt><trkpt lat="44.842107040031216" lon="11.84974462751772"><ele>0.16666666666666666</ele><time>2026-04-11T12:23:24.99Z</time></trkpt><trkpt lat="44.84219219010224" lon="11.849809333555037"><ele>0.0</ele><time>2026-04-11T12:23:25.99Z</time></trkpt><trkpt lat="44.8422837663414" lon="11.849815507010288"><ele>0.0</ele><time>2026-04-11T12:23:26.99Z</time></trkpt><trkpt lat="44.84236384747864" lon="11.849771198705403"><ele>0.0</ele><time>2026-04-11T12:23:27.99Z</time></trkpt><trkpt lat="44.84242398991699" lon="11.849678828037938"><ele>0.0</ele><time>2026-04-11T12:23:28.99Z</time></trkpt><trkpt lat="44.842457131366864" lon="11.849547702067554"><ele>0.0</ele><time>2026-04-11T12:23:29.99Z</time></trkpt><trkpt lat="44.84245342186261" lon="11.849392828409211"><ele>0.0</ele><time>2026-04-11T12:23:30.99Z</time></trkpt><trkpt lat="44.84241807430911" lon="11.849212084941678"><ele>0.3333333333333333</ele><time>2026-04-11T12:23:31.989Z</time></trkpt><trkpt lat="44.842381487047405" lon="11.84899692266005"><ele>0.6666666666666666</ele><time>2026-04-11T12:23:32.989Z</time></trkpt><trkpt lat="44.8423690765901" lon="11.848755349468492"><ele>1.0</ele><time>2026-04-11T12:23:33.989Z</time></trkpt><trkpt lat="44.84235951806258" lon="11.848500534367348"><ele>2.0</ele><time>2026-04-11T12:23:34.989Z</time></trkpt><trkpt lat="44.8423451336524" lon="11.848232537113791"><ele>3.0</ele><time>2026-04-11T12:23:35.989Z</time></trkpt><trkpt lat="44.842333533574745" lon="11.847965278656902"><ele>4.0</ele><time>2026-04-11T12:23:36.989Z</time></trkpt><trkpt lat="44.84233445922077" lon="11.84770555227182"><ele>3.6666666666666665</ele><time>2026-04-11T12:23:37.989Z</time></trkpt><trkpt lat="44.84233242729699" lon="11.847441952661914"><ele>3.333333333333333</ele><time>2026-04-11T12:23:38.989Z</time></trkpt><trkpt lat="44.84236800749999" lon="11.8471738247443"><ele>3.0</ele><time>2026-04-11T12:23:39.991Z</time></trkpt><trkpt lat="44.84243610087691" lon="11.846902318895223"><ele>3.0</ele><time>2026-04-11T12:23:40.992Z</time></trkpt><trkpt lat="44.84253104767722" lon="11.846626834731147"><ele>3.0</ele><time>2026-04-11T12:23:41.992Z</time></trkpt><trkpt lat="44.842661708980465" lon="11.846370350866154"><ele>3.0</ele><time>2026-04-11T12:23:42.991Z</time></trkpt><trkpt lat="44.842818029413344" lon="11.846131833372556"><ele>3.0</ele><time>2026-04-11T12:23:43.991Z</time></trkpt><trkpt lat="44.84299813586568" lon="11.845917564960539"><ele>3.0</ele><time>2026-04-11T12:23:44.991Z</time></trkpt><trkpt lat="44.843188152522906" lon="11.84569475992391"><ele>3.0</ele><time>2026-04-11T12:23:45.991Z</time></trkpt><trkpt lat="44.84340226743519" lon="11.845483864821775"><ele>3.0</ele><time>2026-04-11T12:23:46.991Z</time></trkpt><trkpt lat="44.84360328774974" lon="11.845228629412043"><ele>4.5</ele><time>2026-04-11T12:23:47.991Z</time></trkpt><trkpt lat="44.84382170385056" lon="11.844984039095753"><ele>6.0</ele><time>2026-04-11T12:23:48.991Z</time></trkpt><trkpt lat="44.8440404078576" lon="11.844739491616375"><ele>6.0</ele><time>2026-04-11T12:23:49.991Z</time></trkpt><trkpt lat="44.84426318278957" lon="11.844486781626737"><ele>6.0</ele><time>2026-04-11T12:23:50.991Z</time></trkpt><trkpt lat="44.84448418387185" lon="11.844240995130942"><ele>4.5</ele><time>2026-04-11T12:23:51.992Z</time></trkpt><trkpt lat="44.84470485054394" lon="11.843993312500958"><ele>3.0</ele><time>2026-04-11T12:23:52.991Z</time></trkpt><trkpt lat="44.84491806369509" lon="11.843753070150788"><ele>3.0</ele><time>2026-04-11T12:23:53.991Z</time></trkpt><trkpt lat="44.84512031948631" lon="11.843524059150926"><ele>3.0</ele><time>2026-04-11T12:23:54.991Z</time></trkpt><trkpt lat="44.845314382592996" lon="11.843312029391539"><ele>0.0</ele><time>2026-04-11T12:23:55.991Z</time></trkpt><trkpt lat="44.84550062722709" lon="11.843104818664516"><ele>-3.0</ele><time>2026-04-11T12:23:56.991Z</time></trkpt><trkpt lat="44.84568352265081" lon="11.842900225814862"><ele>-3.0</ele><time>2026-04-11T12:23:57.99Z</time></trkpt><trkpt lat="44.84585894800649" lon="11.842700266168107"><ele>-3.0</ele><time>2026-04-11T12:23:58.99Z</time></trkpt><trkpt lat="44.84601701113461" lon="11.84249715011891"><ele>-3.0</ele><time>2026-04-11T12:23:59.99Z</time></trkpt><trkpt lat="44.84615574123291" lon="11.842276275039373"><ele>-3.0</ele><time>2026-04-11T12:24:00.99Z</time></trkpt><trkpt lat="44.84625474897803" lon="11.842028080507268"><ele>-3.0</ele><time>2026-04-11T12:24:01.99Z</time></trkpt><trkpt lat="44.84632912452445" lon="11.841760487280714"><ele>-3.0</ele><time>2026-04-11T12:24:02.99Z</time></trkpt><trkpt lat="44.84636594368129" lon="11.841467674762916"><ele>-3.0</ele><time>2026-04-11T12:24:03.99Z</time></trkpt><trkpt lat="44.84637644133044" lon="11.841145201954017"><ele>-3.0</ele><time>2026-04-11T12:24:04.99Z</time></trkpt><trkpt lat="44.846392528063475" lon="11.840805024272925"><ele>-1.5</ele><time>2026-04-11T12:24:05.99Z</time></trkpt><trkpt lat="44.8464132971807" lon="11.84044428910781"><ele>0.0</ele><time>2026-04-11T12:24:06.99Z</time></trkpt><trkpt lat="44.84643502986742" lon="11.840072899994974"><ele>0.5</ele><time>2026-04-11T12:24:07.99Z</time></trkpt><trkpt lat="44.84645576239422" lon="11.83968791530487"><ele>1.0</ele><time>2026-04-11T12:24:08.99Z</time></trkpt><trkpt lat="44.84648154934037" lon="11.83929433467238"><ele>1.0</ele><time>2026-04-11T12:24:09.99Z</time></trkpt><trkpt lat="44.846508401618586" lon="11.838898604701072"><ele>1.0</ele><time>2026-04-11T12:24:10.99Z</time></trkpt><trkpt lat="44.84653772398932" lon="11.83850372859061"><ele>1.5</ele><time>2026-04-11T12:24:11.99Z</time></trkpt><trkpt lat="44.84656387499088" lon="11.838105532778494"><ele>2.0</ele><time>2026-04-11T12:24:12.99Z</time></trkpt><trkpt lat="44.84657841959863" lon="11.837708606821415"><ele>2.0</ele><time>2026-04-11T12:24:13.99Z</time></trkpt><trkpt lat="44.846577867726495" lon="11.837308160276544"><ele>2.0</ele><time>2026-04-11T12:24:14.99Z</time></trkpt><trkpt lat="44.84656567257758" lon="11.836906154279832"><ele>1.0</ele><time>2026-04-11T12:24:15.99Z</time></trkpt><trkpt lat="44.84654605039964" lon="11.836498592829788"><ele>0.0</ele><time>2026-04-11T12:24:16.99Z</time></trkpt><trkpt lat="44.84652574262216" lon="11.836107082398282"><ele>-0.5</ele><time>2026-04-11T12:24:17.99Z</time></trkpt><trkpt lat="44.84650724216459" lon="11.835741247746089"><ele>-1.0</ele><time>2026-04-11T12:24:18.99Z</time></trkpt><trkpt lat="44.84648729431" lon="11.83539247241476"><ele>0.0</ele><time>2026-04-11T12:24:19.99Z</time></trkpt><trkpt lat="44.84647658330002" lon="11.835062131970457"><ele>1.0</ele><time>2026-04-11T12:24:20.99Z</time></trkpt><trkpt lat="44.84647225798831" lon="11.834733474560835"><ele>1.0</ele><time>2026-04-11T12:24:21.99Z</time></trkpt><trkpt lat="44.84650259877649" lon="11.834388007754406"><ele>1.0</ele><time>2026-04-11T12:24:22.99Z</time></trkpt><trkpt lat="44.846554368016875" lon="11.8340448258525"><ele>1.5</ele><time>2026-04-11T12:24:23.99Z</time></trkpt><trkpt lat="44.846628086074794" lon="11.833705174487866"><ele>2.0</ele><time>2026-04-11T12:24:24.99Z</time></trkpt><trkpt lat="44.84671412569525" lon="11.833386461037989"><ele>2.0</ele><time>2026-04-11T12:24:25.99Z</time></trkpt><trkpt lat="44.846805424106236" lon="11.833085739227112"><ele>2.0</ele><time>2026-04-11T12:24:26.99Z</time></trkpt><trkpt lat="44.846946869996046" lon="11.832840066867925"><ele>2.0</ele><time>2026-04-11T12:24:27.99Z</time></trkpt><trkpt lat="44.847107020357505" lon="11.832614523611912"><ele>2.0</ele><time>2026-04-11T12:24:28.99Z</time></trkpt><trkpt lat="44.84730831627475" lon="11.832430642131362"><ele>2.0</ele><time>2026-04-11T12:24:29.99Z</time></trkpt><trkpt lat="44.84750725655302" lon="11.83223246495482"><ele>2.0</ele><time>2026-04-11T12:24:30.99Z</time></trkpt><trkpt lat="44.84771264943814" lon="11.8320215224347"><ele>1.5</ele><time>2026-04-11T12:24:31.99Z</time></trkpt><trkpt lat="44.84793701246877" lon="11.831834841302378"><ele>1.0</ele><time>2026-04-11T12:24:32.99Z</time></trkpt><trkpt lat="44.84818053584909" lon="11.831662675818757"><ele>1.0</ele><time>2026-04-11T12:24:33.99Z</time></trkpt><trkpt lat="44.848435925795606" lon="11.831508855982982"><ele>1.0</ele><time>2026-04-11T12:24:34.99Z</time></trkpt><trkpt lat="44.84869010660068" lon="11.83136797454005"><ele>1.0</ele><time>2026-04-11T12:24:35.99Z</time></trkpt><trkpt lat="44.84894668909611" lon="11.831265129911777"><ele>1.0</ele><time>2026-04-11T12:24:36.99Z</time></trkpt><trkpt lat="44.84919693786601" lon="11.831132502982515"><ele>1.0</ele><time>2026-04-11T12:24:37.99Z</time></trkpt><trkpt lat="44.84943736008485" lon="11.831024792300843"><ele>1.0</ele><time>2026-04-11T12:24:38.99Z</time></trkpt><trkpt lat="44.8496623987294" lon="11.830930468876574"><ele>1.0</ele><time>2026-04-11T12:24:39.99Z</time></trkpt><trkpt lat="44.84987822691607" lon="11.830861695413484"><ele>1.0</ele><time>2026-04-11T12:24:40.99Z</time></trkpt><trkpt lat="44.85008243832979" lon="11.83079457526615"><ele>1.0</ele><time>2026-04-11T12:24:41.99Z</time></trkpt><trkpt lat="44.85029339624133" lon="11.830734416611921"><ele>1.0</ele><time>2026-04-11T12:24:42.99Z</time></trkpt><trkpt lat="44.85051317073057" lon="11.830756475532125"><ele>1.0</ele><time>2026-04-11T12:24:43.99Z</time></trkpt><trkpt lat="44.85073377136273" lon="11.830782692205704"><ele>1.0</ele><time>2026-04-11T12:24:44.99Z</time></trkpt><trkpt lat="44.850950112632965" lon="11.830851888586889"><ele>1.0</ele><time>2026-04-11T12:24:45.99Z</time></trkpt><trkpt lat="44.851166485736535" lon="11.830951130733466"><ele>1.0</ele><time>2026-04-11T12:24:46.99Z</time></trkpt><trkpt lat="44.851377519081815" lon="11.831094365321764"><ele>1.0</ele><time>2026-04-11T12:24:47.99Z</time></trkpt><trkpt lat="44.85159225459043" lon="11.831263519460824"><ele>1.0</ele><time>2026-04-11T12:24:48.99Z</time></trkpt><trkpt lat="44.85180890243217" lon="11.83144182170323"><ele>1.0</ele><time>2026-04-11T12:24:49.99Z</time></trkpt><trkpt lat="44.852024220937075" lon="11.831619029446465"><ele>1.0</ele><time>2026-04-11T12:24:50.99Z</time></trkpt><trkpt lat="44.85224925883366" lon="11.83180423654842"><ele>1.0</ele><time>2026-04-11T12:24:51.99Z</time></trkpt><trkpt lat="44.852477282822484" lon="11.831991902326825"><ele>1.0</ele><time>2026-04-11T12:24:52.99Z</time></trkpt><trkpt lat="44.852708888935545" lon="11.832182515776696"><ele>1.0</ele><time>2026-04-11T12:24:53.99Z</time></trkpt><trkpt lat="44.85294077838067" lon="11.83237279196991"><ele>1.0</ele><time>2026-04-11T12:24:54.99Z</time></trkpt><trkpt lat="44.853183995897815" lon="11.832547689309415"><ele>1.0</ele><time>2026-04-11T12:24:55.99Z</time></trkpt><trkpt lat="44.85341526093069" lon="11.83274881945091"><ele>1.0</ele><time>2026-04-11T12:24:56.989Z</time></trkpt><trkpt lat="44.85365233157042" lon="11.832938313096113"><ele>1.5</ele><time>2026-04-11T12:24:57.989Z</time></trkpt><trkpt lat="44.85389027546341" lon="11.833133627603004"><ele>2.0</ele><time>2026-04-11T12:24:58.989Z</time></trkpt><trkpt lat="44.854126347830885" lon="11.833327179325304"><ele>1.5</ele><time>2026-04-11T12:24:59.989Z</time></trkpt><trkpt lat="44.85435223960772" lon="11.83353518368083"><ele>1.0</ele><time>2026-04-11T12:25:00.989Z</time></trkpt><trkpt lat="44.85458495649058" lon="11.83372722929503"><ele>1.0</ele><time>2026-04-11T12:25:01.989Z</time></trkpt><trkpt lat="44.85482256678667" lon="11.833923566775976"><ele>1.0</ele><time>2026-04-11T12:25:02.989Z</time></trkpt><trkpt lat="44.85505879486283" lon="11.834117326470817"><ele>0.5</ele><time>2026-04-11T12:25:03.989Z</time></trkpt><trkpt lat="44.85529082870466" lon="11.834306941812391"><ele>0.0</ele><time>2026-04-11T12:25:04.989Z</time></trkpt><trkpt lat="44.855524956055866" lon="11.834479547400603"><ele>0.0</ele><time>2026-04-11T12:25:05.989Z</time></trkpt><trkpt lat="44.85573912073963" lon="11.834659396445529"><ele>0.0</ele><time>2026-04-11T12:25:06.989Z</time></trkpt><trkpt lat="44.85595166850649" lon="11.834828817072525"><ele>0.0</ele><time>2026-04-11T12:25:07.989Z</time></trkpt><trkpt lat="44.85616178860539" lon="11.834978496262387"><ele>0.0</ele><time>2026-04-11T12:25:08.989Z</time></trkpt><trkpt lat="44.85638287565132" lon="11.835098862338294"><ele>0.5</ele><time>2026-04-11T12:25:09.989Z</time></trkpt><trkpt lat="44.8566151287821" lon="11.835186205035166"><ele>1.0</ele><time>2026-04-11T12:25:10.989Z</time></trkpt><trkpt lat="44.856860313228964" lon="11.835242077871243"><ele>2.0</ele><time>2026-04-11T12:25:11.989Z</time></trkpt><trkpt lat="44.85711384282293" lon="11.835275143915634"><ele>3.0</ele><time>2026-04-11T12:25:12.989Z</time></trkpt><trkpt lat="44.85737059253083" lon="11.835272889770135"><ele>2.0</ele><time>2026-04-11T12:25:13.989Z</time></trkpt><trkpt lat="44.857627346107336" lon="11.835224777209408"><ele>1.0</ele><time>2026-04-11T12:25:14.989Z</time></trkpt><trkpt lat="44.857878948558344" lon="11.83515817935728"><ele>2.0</ele><time>2026-04-11T12:25:15.989Z</time></trkpt><trkpt lat="44.858115067831584" lon="11.835070012573157"><ele>3.0</ele><time>2026-04-11T12:25:16.989Z</time></trkpt><trkpt lat="44.858340673605944" lon="11.834941743941243"><ele>2.0</ele><time>2026-04-11T12:25:17.989Z</time></trkpt><trkpt lat="44.858561802137714" lon="11.834774550187731"><ele>1.0</ele><time>2026-04-11T12:25:18.989Z</time></trkpt><trkpt lat="44.85878239919964" lon="11.834588386718327"><ele>1.0</ele><time>2026-04-11T12:25:19.989Z</time></trkpt><trkpt lat="44.85900088810102" lon="11.83439486594828"><ele>1.0</ele><time>2026-04-11T12:25:20.989Z</time></trkpt><trkpt lat="44.85921536838257" lon="11.834200203149193"><ele>1.0</ele><time>2026-04-11T12:25:21.989Z</time></trkpt><trkpt lat="44.85943263751458" lon="11.834016865752984"><ele>1.0</ele><time>2026-04-11T12:25:22.989Z</time></trkpt><trkpt lat="44.85964548992959" lon="11.833824738041711"><ele>1.0</ele><time>2026-04-11T12:25:23.989Z</time></trkpt><trkpt lat="44.85985396383658" lon="11.833610596560137"><ele>1.0</ele><time>2026-04-11T12:25:24.989Z</time></trkpt><trkpt lat="44.860055252677355" lon="11.83335978101192"><ele>0.5</ele><time>2026-04-11T12:25:25.989Z</time></trkpt><trkpt lat="44.860251256061176" lon="11.833080373556886"><ele>0.0</ele><time>2026-04-11T12:25:26.989Z</time></trkpt><trkpt lat="44.86045085855383" lon="11.832801760350323"><ele>0.5</ele><time>2026-04-11T12:25:27.989Z</time></trkpt><trkpt lat="44.860643532556516" lon="11.832522803124585"><ele>1.0</ele><time>2026-04-11T12:25:28.989Z</time></trkpt><trkpt lat="44.860824651406155" lon="11.832275625099488"><ele>0.5</ele><time>2026-04-11T12:25:29.989Z</time></trkpt><trkpt lat="44.8610035301033" lon="11.832046842975366"><ele>0.0</ele><time>2026-04-11T12:25:30.989Z</time></trkpt><trkpt lat="44.86117797015308" lon="11.831837367200663"><ele>-0.3333333333333333</ele><time>2026-04-11T12:25:31.989Z</time></trkpt><trkpt lat="44.861357780394066" lon="11.831657898337175"><ele>-0.6666666666666666</ele><time>2026-04-11T12:25:32.989Z</time></trkpt><trkpt lat="44.861560296646" lon="11.831515097290008"><ele>-1.0</ele><time>2026-04-11T12:25:33.989Z</time></trkpt><trkpt lat="44.86177088668485" lon="11.831400505419843"><ele>-0.5</ele><time>2026-04-11T12:25:34.989Z</time></trkpt><trkpt lat="44.861999054318446" lon="11.831344854904476"><ele>0.0</ele><time>2026-04-11T12:25:35.989Z</time></trkpt><trkpt lat="44.862229660959635" lon="11.831306815549192"><ele>0.0</ele><time>2026-04-11T12:25:36.989Z</time></trkpt><trkpt lat="44.862455819272306" lon="11.831278085839223"><ele>0.0</ele><time>2026-04-11T12:25:37.989Z</time></trkpt><trkpt lat="44.86267927052796" lon="11.831288001052025"><ele>0.0</ele><time>2026-04-11T12:25:38.989Z</time></trkpt><trkpt lat="44.86288159495107" lon="11.831298268637509"><ele>0.0</ele><time>2026-04-11T12:25:39.989Z</time></trkpt><trkpt lat="44.86305780264494" lon="11.831303227112823"><ele>0.0</ele><time>2026-04-11T12:25:40.989Z</time></trkpt><trkpt lat="44.86321116501676" lon="11.831297376177252"><ele>0.0</ele><time>2026-04-11T12:25:41.989Z</time></trkpt><trkpt lat="44.86334615060552" lon="11.831298164780181"><ele>0.0</ele><time>2026-04-11T12:25:42.989Z</time></trkpt><trkpt lat="44.863461869652525" lon="11.831292956504466"><ele>0.0</ele><time>2026-04-11T12:25:43.989Z</time></trkpt><trkpt lat="44.86356039319367" lon="11.831295313569791"><ele>0.0</ele><time>2026-04-11T12:25:44.989Z</time></trkpt><trkpt lat="44.86365274813686" lon="11.831301715150339"><ele>0.0</ele><time>2026-04-11T12:25:45.991Z</time></trkpt><trkpt lat="44.86374193171755" lon="11.831298597754119"><ele>0.2</ele><time>2026-04-11T12:25:46.99Z</time></trkpt><trkpt lat="44.86386063102085" lon="11.831292033417215"><ele>0.4</ele><time>2026-04-11T12:25:48.99Z</time></trkpt><trkpt lat="44.86393909967387" lon="11.831285640537685"><ele>0.6000000000000001</ele><time>2026-04-11T12:25:50.99Z</time></trkpt><trkpt lat="44.8640256232528" lon="11.831269980617936"><ele>0.8</ele><time>2026-04-11T12:25:53.991Z</time></trkpt><trkpt lat="44.864138580971975" lon="11.831287552287941"><ele>1.0</ele><time>2026-04-11T12:25:55.991Z</time></trkpt><trkpt lat="44.86422209470579" lon="11.831272359947524"><ele>1.0</ele><time>2026-04-11T12:25:56.991Z</time></trkpt><trkpt lat="44.8642992923821" lon="11.831269744436826"><ele>1.0</ele><time>2026-04-11T12:25:57.991Z</time></trkpt><trkpt lat="44.86439658313288" lon="11.831273547777652"><ele>1.0</ele><time>2026-04-11T12:25:58.99Z</time></trkpt><trkpt lat="44.86451462375154" lon="11.831286465827146"><ele>1.0</ele><time>2026-04-11T12:25:59.99Z</time></trkpt><trkpt lat="44.86464607858672" lon="11.831290776074415"><ele>1.0</ele><time>2026-04-11T12:26:00.99Z</time></trkpt><trkpt lat="44.86478236225703" lon="11.831299435936554"><ele>1.0</ele><time>2026-04-11T12:26:01.99Z</time></trkpt><trkpt lat="44.86491962784865" lon="11.831311544128704"><ele>1.0</ele><time>2026-04-11T12:26:02.99Z</time></trkpt><trkpt lat="44.86506864003806" lon="11.83131304151946"><ele>1.0</ele><time>2026-04-11T12:26:03.99Z</time></trkpt><trkpt lat="44.865218197811636" lon="11.831289661226013"><ele>1.0</ele><time>2026-04-11T12:26:04.99Z</time></trkpt><trkpt lat="44.865366460711584" lon="11.83124795941753"><ele>0.6666666666666666</ele><time>2026-04-11T12:26:05.99Z</time></trkpt><trkpt lat="44.86551628867541" lon="11.83119755657797"><ele>0.3333333333333333</ele><time>2026-04-11T12:26:06.99Z</time></trkpt><trkpt lat="44.86566643604454" lon="11.831130627649031"><ele>0.0</ele><time>2026-04-11T12:26:07.99Z</time></trkpt><trkpt lat="44.8658202327063" lon="11.831057402731766"><ele>0.0</ele><time>2026-04-11T12:26:08.99Z</time></trkpt><trkpt lat="44.86597064536247" lon="11.830977670721767"><ele>0.0</ele><time>2026-04-11T12:26:09.99Z</time></trkpt><trkpt lat="44.86612177033463" lon="11.830899635827846"><ele>0.0</ele><time>2026-04-11T12:26:10.99Z</time></trkpt><trkpt lat="44.86627758492046" lon="11.830814842612028"><ele>0.3333333333333333</ele><time>2026-04-11T12:26:11.99Z</time></trkpt><trkpt lat="44.86643909324567" lon="11.83073967079955"><ele>0.6666666666666666</ele><time>2026-04-11T12:26:12.99Z</time></trkpt><trkpt lat="44.86661050660294" lon="11.83067959594832"><ele>1.0</ele><time>2026-04-11T12:26:13.99Z</time></trkpt><trkpt lat="44.866783978985765" lon="11.830610167158442"><ele>1.3333333333333333</ele><time>2026-04-11T12:26:14.99Z</time></trkpt><trkpt lat="44.86694818185887" lon="11.830563306715646"><ele>1.6666666666666665</ele><time>2026-04-11T12:26:15.99Z</time></trkpt><trkpt lat="44.86711394480267" lon="11.830537623653107"><ele>2.0</ele><time>2026-04-11T12:26:16.99Z</time></trkpt><trkpt lat="44.86727927555145" lon="11.830542451288196"><ele>2.0</ele><time>2026-04-11T12:26:17.99Z</time></trkpt><trkpt lat="44.86742968618416" lon="11.830617877140854"><ele>2.0</ele><time>2026-04-11T12:26:18.99Z</time></trkpt><trkpt lat="44.86757663276095" lon="11.83069637748395"><ele>2.0</ele><time>2026-04-11T12:26:19.99Z</time></trkpt><trkpt lat="44.86772281552275" lon="11.830778906193734"><ele>2.0</ele><time>2026-04-11T12:26:20.99Z</time></trkpt><trkpt lat="44.867845919524186" lon="11.83093349580213"><ele>2.0</ele><time>2026-04-11T12:26:21.99Z</time></trkpt><trkpt lat="44.86797917488886" lon="11.831089321381967"><ele>2.0</ele><time>2026-04-11T12:26:22.99Z</time></trkpt><trkpt lat="44.86810796905628" lon="11.83124595789032"><ele>2.0</ele><time>2026-04-11T12:26:23.99Z</time></trkpt><trkpt lat="44.86823135751914" lon="11.831396020063222"><ele>2.0</ele><time>2026-04-11T12:26:24.99Z</time></trkpt><trkpt lat="44.86835172992224" lon="11.831542414325288"><ele>2.0</ele><time>2026-04-11T12:26:25.99Z</time></trkpt><trkpt lat="44.86847984081397" lon="11.831698219708485"><ele>2.0</ele><time>2026-04-11T12:26:26.99Z</time></trkpt><trkpt lat="44.86861561787387" lon="11.831833671553742"><ele>2.0</ele><time>2026-04-11T12:26:27.99Z</time></trkpt><trkpt lat="44.86872358497367" lon="11.831998646223202"><ele>2.0</ele><time>2026-04-11T12:26:28.99Z</time></trkpt><trkpt lat="44.86885412094075" lon="11.83215030675185"><ele>2.0</ele><time>2026-04-11T12:26:29.99Z</time></trkpt><trkpt lat="44.868985702791086" lon="11.83228621011129"><ele>2.0</ele><time>2026-04-11T12:26:30.99Z</time></trkpt><trkpt lat="44.86912507863343" lon="11.832413041308435"><ele>2.0</ele><time>2026-04-11T12:26:31.99Z</time></trkpt><trkpt lat="44.86926165366111" lon="11.832538671156941"><ele>2.333333333333333</ele><time>2026-04-11T12:26:32.99Z</time></trkpt><trkpt lat="44.869401816675676" lon="11.832661365540105"><ele>2.6666666666666665</ele><time>2026-04-11T12:26:33.99Z</time></trkpt><trkpt lat="44.8695485386918" lon="11.832781549250505"><ele>3.0</ele><time>2026-04-11T12:26:34.99Z</time></trkpt><trkpt lat="44.86970065556721" lon="11.83290107947913"><ele>3.0</ele><time>2026-04-11T12:26:35.99Z</time></trkpt><trkpt lat="44.86985452483963" lon="11.8330278553803"><ele>3.0</ele><time>2026-04-11T12:26:36.99Z</time></trkpt><trkpt lat="44.870014649271106" lon="11.833147631993803"><ele>3.0</ele><time>2026-04-11T12:26:37.99Z</time></trkpt><trkpt lat="44.87017227454909" lon="11.833280803907902"><ele>3.0</ele><time>2026-04-11T12:26:38.99Z</time></trkpt><trkpt lat="44.87032816022967" lon="11.833414626643245"><ele>3.0</ele><time>2026-04-11T12:26:39.99Z</time></trkpt><trkpt lat="44.87047866282493" lon="11.833548140254882"><ele>3.0</ele><time>2026-04-11T12:26:40.99Z</time></trkpt><trkpt lat="44.87061856186105" lon="11.833684948239563"><ele>3.0</ele><time>2026-04-11T12:26:41.99Z</time></trkpt><trkpt lat="44.870761859192775" lon="11.833829267452447"><ele>3.0</ele><time>2026-04-11T12:26:42.99Z</time></trkpt><trkpt lat="44.87091595951204" lon="11.833967417129303"><ele>3.0</ele><time>2026-04-11T12:26:43.99Z</time></trkpt><trkpt lat="44.871070294345216" lon="11.83412132732785"><ele>2.6666666666666665</ele><time>2026-04-11T12:26:44.99Z</time></trkpt><trkpt lat="44.87124887705845" lon="11.834225788132937"><ele>2.333333333333333</ele><time>2026-04-11T12:26:45.99Z</time></trkpt><trkpt lat="44.87143855018581" lon="11.83431684439596"><ele>2.0</ele><time>2026-04-11T12:26:46.99Z</time></trkpt><trkpt lat="44.871628043002346" lon="11.834412881204198"><ele>1.3333333333333333</ele><time>2026-04-11T12:26:47.99Z</time></trkpt><trkpt lat="44.871819244207686" lon="11.83453211640191"><ele>0.6666666666666666</ele><time>2026-04-11T12:26:48.989Z</time></trkpt><trkpt lat="44.87199083414826" lon="11.834678007748538"><ele>0.0</ele><time>2026-04-11T12:26:49.989Z</time></trkpt><trkpt lat="44.87215120840581" lon="11.834843208544273"><ele>0.0</ele><time>2026-04-11T12:26:50.989Z</time></trkpt><trkpt lat="44.87231475273781" lon="11.835008548940767"><ele>0.0</ele><time>2026-04-11T12:26:51.989Z</time></trkpt><trkpt lat="44.87248200326903" lon="11.835183302988323"><ele>0.0</ele><time>2026-04-11T12:26:52.989Z</time></trkpt><trkpt lat="44.872652292134404" lon="11.835355746631864"><ele>0.0</ele><time>2026-04-11T12:26:53.989Z</time></trkpt><trkpt lat="44.872827791793036" lon="11.835533723801763"><ele>0.0</ele><time>2026-04-11T12:26:54.989Z</time></trkpt><trkpt lat="44.87300643203111" lon="11.835716248144648"><ele>0.0</ele><time>2026-04-11T12:26:55.989Z</time></trkpt><trkpt lat="44.87318931739009" lon="11.835898710648031"><ele>0.5</ele><time>2026-04-11T12:26:56.989Z</time></trkpt><trkpt lat="44.87337329007411" lon="11.83607918090748"><ele>1.0</ele><time>2026-04-11T12:26:57.989Z</time></trkpt><trkpt lat="44.87355598725941" lon="11.83626991628299"><ele>1.0</ele><time>2026-04-11T12:26:58.989Z</time></trkpt><trkpt lat="44.873743801122586" lon="11.83645935784495"><ele>1.0</ele><time>2026-04-11T12:26:59.989Z</time></trkpt><trkpt lat="44.87393340273196" lon="11.836652482857371"><ele>0.5</ele><time>2026-04-11T12:27:00.989Z</time></trkpt><trkpt lat="44.87412524245237" lon="11.836853987919715"><ele>0.0</ele><time>2026-04-11T12:27:01.989Z</time></trkpt><trkpt lat="44.874316871678644" lon="11.837059030942228"><ele>1.5</ele><time>2026-04-11T12:27:02.989Z</time></trkpt><trkpt lat="44.87450538543051" lon="11.837256069129156"><ele>3.0</ele><time>2026-04-11T12:27:03.989Z</time></trkpt><trkpt lat="44.874683874538974" lon="11.837453743574939"><ele>3.0</ele><time>2026-04-11T12:27:04.989Z</time></trkpt><trkpt lat="44.874853655405076" lon="11.83762446520421"><ele>3.0</ele><time>2026-04-11T12:27:05.989Z</time></trkpt><trkpt lat="44.87501607952044" lon="11.837793203989547"><ele>3.0</ele><time>2026-04-11T12:27:06.989Z</time></trkpt><trkpt lat="44.875145293042095" lon="11.837965674100339"><ele>2.3333333333333335</ele><time>2026-04-11T12:27:07.989Z</time></trkpt><trkpt lat="44.87526911507093" lon="11.838151546546403"><ele>1.6666666666666665</ele><time>2026-04-11T12:27:08.989Z</time></trkpt><trkpt lat="44.87538083847877" lon="11.838337681793144"><ele>1.0</ele><time>2026-04-11T12:27:09.989Z</time></trkpt><trkpt lat="44.87549922037675" lon="11.838527524122014"><ele>0.6666666666666666</ele><time>2026-04-11T12:27:10.989Z</time></trkpt><trkpt lat="44.87562437912187" lon="11.838667407326136"><ele>0.3333333333333333</ele><time>2026-04-11T12:27:11.989Z</time></trkpt><trkpt lat="44.87578222203763" lon="11.838763836292824"><ele>0.0</ele><time>2026-04-11T12:27:12.989Z</time></trkpt><trkpt lat="44.87595571743074" lon="11.838901344956467"><ele>0.6666666666666666</ele><time>2026-04-11T12:27:13.989Z</time></trkpt><trkpt lat="44.87613742851136" lon="11.838998972520642"><ele>1.3333333333333333</ele><time>2026-04-11T12:27:14.989Z</time></trkpt><trkpt lat="44.87633432001678" lon="11.839089667272374"><ele>2.0</ele><time>2026-04-11T12:27:15.989Z</time></trkpt><trkpt lat="44.87654666067222" lon="11.839162889741898"><ele>2.0</ele><time>2026-04-11T12:27:16.989Z</time></trkpt><trkpt lat="44.8767655802485" lon="11.839236967990344"><ele>2.0</ele><time>2026-04-11T12:27:17.989Z</time></trkpt><trkpt lat="44.876985730238395" lon="11.839314201304468"><ele>2.0</ele><time>2026-04-11T12:27:18.989Z</time></trkpt><trkpt lat="44.87719284551706" lon="11.839373343705606"><ele>2.0</ele><time>2026-04-11T12:27:19.989Z</time></trkpt><trkpt lat="44.87738839329208" lon="11.839480230400252"><ele>2.0</ele><time>2026-04-11T12:27:20.989Z</time></trkpt><trkpt lat="44.87758200502417" lon="11.839600933723242"><ele>1.6666666666666665</ele><time>2026-04-11T12:27:21.989Z</time></trkpt><trkpt lat="44.87777785619192" lon="11.839726833892646"><ele>1.3333333333333333</ele><time>2026-04-11T12:27:22.989Z</time></trkpt><trkpt lat="44.877974284970655" lon="11.839842192869595"><ele>1.0</ele><time>2026-04-11T12:27:23.989Z</time></trkpt><trkpt lat="44.87817010901258" lon="11.83995188475954"><ele>1.0</ele><time>2026-04-11T12:27:24.989Z</time></trkpt><trkpt lat="44.87836861559791" lon="11.840033706392031"><ele>1.0</ele><time>2026-04-11T12:27:25.989Z</time></trkpt><trkpt lat="44.87857401692336" lon="11.84008121581247"><ele>1.0</ele><time>2026-04-11T12:27:26.989Z</time></trkpt><trkpt lat="44.878788467205" lon="11.840086155252848"><ele>0.6666666666666666</ele><time>2026-04-11T12:27:27.989Z</time></trkpt><trkpt lat="44.87900770615147" lon="11.840058731209265"><ele>0.3333333333333333</ele><time>2026-04-11T12:27:28.989Z</time></trkpt><trkpt lat="44.87922514945633" lon="11.839991762414575"><ele>0.0</ele><time>2026-04-11T12:27:29.989Z</time></trkpt><trkpt lat="44.87943581663835" lon="11.83990717444794"><ele>0.0</ele><time>2026-04-11T12:27:30.989Z</time></trkpt><trkpt lat="44.87964624509883" lon="11.839824896035703"><ele>0.0</ele><time>2026-04-11T12:27:31.989Z</time></trkpt><trkpt lat="44.87985981053799" lon="11.83973758059227"><ele>0.0</ele><time>2026-04-11T12:27:32.989Z</time></trkpt><trkpt lat="44.88007235506871" lon="11.839635815767167"><ele>0.5</ele><time>2026-04-11T12:27:33.989Z</time></trkpt><trkpt lat="44.88028817834692" lon="11.839525901419142"><ele>1.0</ele><time>2026-04-11T12:27:34.989Z</time></trkpt><trkpt lat="44.880501333669336" lon="11.839411996052773"><ele>1.0</ele><time>2026-04-11T12:27:35.989Z</time></trkpt><trkpt lat="44.88071090576103" lon="11.83929835455591"><ele>1.0</ele><time>2026-04-11T12:27:36.989Z</time></trkpt><trkpt lat="44.88092817903092" lon="11.839191903438778"><ele>1.3333333333333333</ele><time>2026-04-11T12:27:37.989Z</time></trkpt><trkpt lat="44.88114228493874" lon="11.839086964936971"><ele>1.6666666666666665</ele><time>2026-04-11T12:27:38.989Z</time></trkpt><trkpt lat="44.88134685456824" lon="11.838981978582733"><ele>2.0</ele><time>2026-04-11T12:27:39.989Z</time></trkpt><trkpt lat="44.88156128404022" lon="11.83888049728905"><ele>1.5</ele><time>2026-04-11T12:27:40.989Z</time></trkpt><trkpt lat="44.88177791559462" lon="11.83877173499855"><ele>1.0</ele><time>2026-04-11T12:27:41.989Z</time></trkpt><trkpt lat="44.88199636270307" lon="11.838658907305554"><ele>1.0</ele><time>2026-04-11T12:27:42.989Z</time></trkpt><trkpt lat="44.88221487537629" lon="11.838545938769194"><ele>1.0</ele><time>2026-04-11T12:27:43.989Z</time></trkpt><trkpt lat="44.88243280983048" lon="11.838432572516057"><ele>1.5</ele><time>2026-04-11T12:27:44.989Z</time></trkpt><trkpt lat="44.88264641211782" lon="11.83832053927207"><ele>2.0</ele><time>2026-04-11T12:27:45.989Z</time></trkpt><trkpt lat="44.88286114601926" lon="11.838207231395554"><ele>2.0</ele><time>2026-04-11T12:27:46.989Z</time></trkpt><trkpt lat="44.883067727074824" lon="11.838106612984514"><ele>2.0</ele><time>2026-04-11T12:27:47.988Z</time></trkpt><trkpt lat="44.88327891129531" lon="11.838013279852976"><ele>2.0</ele><time>2026-04-11T12:27:48.988Z</time></trkpt><trkpt lat="44.8834925568062" lon="11.837931943404511"><ele>2.0</ele><time>2026-04-11T12:27:49.988Z</time></trkpt><trkpt lat="44.883714637255615" lon="11.837870099515738"><ele>2.0</ele><time>2026-04-11T12:27:50.988Z</time></trkpt><trkpt lat="44.88393826897404" lon="11.83781485731004"><ele>2.0</ele><time>2026-04-11T12:27:51.989Z</time></trkpt><trkpt lat="44.88415937417871" lon="11.837762739029449"><ele>2.0</ele><time>2026-04-11T12:27:52.99Z</time></trkpt><trkpt lat="44.88437466979197" lon="11.837716276252214"><ele>2.0</ele><time>2026-04-11T12:27:53.99Z</time></trkpt><trkpt lat="44.88458126906703" lon="11.837670315015718"><ele>1.3333333333333333</ele><time>2026-04-11T12:27:54.99Z</time></trkpt><trkpt lat="44.8847775258329" lon="11.837625314861047"><ele>0.6666666666666666</ele><time>2026-04-11T12:27:55.99Z</time></trkpt><trkpt lat="44.88496130729763" lon="11.83758499288012"><ele>0.0</ele><time>2026-04-11T12:27:56.99Z</time></trkpt><trkpt lat="44.885125683658394" lon="11.837549771420935"><ele>0.0</ele><time>2026-04-11T12:27:57.989Z</time></trkpt><trkpt lat="44.885285474922235" lon="11.837516419310214"><ele>0.0</ele><time>2026-04-11T12:27:58.99Z</time></trkpt><trkpt lat="44.88542151169203" lon="11.837486364246818"><ele>0.0</ele><time>2026-04-11T12:27:59.99Z</time></trkpt><trkpt lat="44.88553872487314" lon="11.83745491712318"><ele>0.0</ele><time>2026-04-11T12:28:00.99Z</time></trkpt><trkpt lat="44.88563812783705" lon="11.837430741365162"><ele>0.0</ele><time>2026-04-11T12:28:01.99Z</time></trkpt><trkpt lat="44.88571798227007" lon="11.83742830847056"><ele>0.0</ele><time>2026-04-11T12:28:02.99Z</time></trkpt><trkpt lat="44.88577450076017" lon="11.837355681682697"><ele>0.0</ele><time>2026-04-11T12:28:03.99Z</time></trkpt><trkpt lat="44.885855756841295" lon="11.837249549934812"><ele>0.0</ele><time>2026-04-11T12:28:05.99Z</time></trkpt><trkpt lat="44.885930599443554" lon="11.83720725664336"><ele>0.0</ele><time>2026-04-11T12:28:07.99Z</time></trkpt><trkpt lat="44.886027221819376" lon="11.837237429570388"><ele>0.0</ele><time>2026-04-11T12:29:10.989Z</time></trkpt><trkpt lat="44.88614882321714" lon="11.83719435669663"><ele>-0.2</ele><time>2026-04-11T12:31:40.988Z</time></trkpt><trkpt lat="44.886269674415765" lon="11.837242071048522"><ele>-0.4</ele><time>2026-04-11T12:31:51.988Z</time></trkpt><trkpt lat="44.88636179455312" lon="11.837222125563324"><ele>-0.6000000000000001</ele><time>2026-04-11T12:31:52.988Z</time></trkpt><trkpt lat="44.886454399109695" lon="11.837185033526676"><ele>-0.8</ele><time>2026-04-11T12:31:53.988Z</time></trkpt><trkpt lat="44.88655689184517" lon="11.837156972704832"><ele>-1.0</ele><time>2026-04-11T12:31:54.988Z</time></trkpt><trkpt lat="44.88666458054823" lon="11.837131635171945"><ele>-0.8</ele><time>2026-04-11T12:31:55.988Z</time></trkpt><trkpt lat="44.8867804081154" lon="11.837106852865936"><ele>-0.6000000000000001</ele><time>2026-04-11T12:31:56.988Z</time></trkpt><trkpt lat="44.88688991215643" lon="11.837088891891836"><ele>-0.4</ele><time>2026-04-11T12:31:57.988Z</time></trkpt><trkpt lat="44.88699796542736" lon="11.837136413582527"><ele>-0.2</ele><time>2026-04-11T12:31:58.988Z</time></trkpt><trkpt lat="44.8870799928115" lon="11.837135296947896"><ele>0.0</ele><time>2026-04-11T12:31:59.988Z</time></trkpt><trkpt lat="44.887273789426715" lon="11.83715376244987"><ele>0.0</ele><time>2026-04-11T12:32:01.988Z</time></trkpt><trkpt lat="44.88734814330352" lon="11.837169084354356"><ele>0.0</ele><time>2026-04-11T12:32:02.988Z</time></trkpt><trkpt lat="44.88741769860724" lon="11.837160454335715"><ele>0.0</ele><time>2026-04-11T12:32:03.988Z</time></trkpt><trkpt lat="44.88748018512208" lon="11.837117074799114"><ele>0.0</ele><time>2026-04-11T12:32:04.989Z</time></trkpt><trkpt lat="44.88750634526444" lon="11.83699728246533"><ele>0.0</ele><time>2026-04-11T12:32:05.989Z</time></trkpt><trkpt lat="44.88746552250101" lon="11.83686859526988"><ele>0.0</ele><time>2026-04-11T12:32:06.989Z</time></trkpt><trkpt lat="44.887428682564256" lon="11.836781579720402"><ele>0.25</ele><time>2026-04-11T12:32:07.989Z</time></trkpt><trkpt lat="44.88734908997025" lon="11.83669177495583"><ele>0.5</ele><time>2026-04-11T12:32:08.989Z</time></trkpt><trkpt lat="44.88724788516779" lon="11.83657477658299"><ele>0.75</ele><time>2026-04-11T12:32:09.989Z</time></trkpt><trkpt lat="44.88716778217864" lon="11.836424735398909"><ele>1.0</ele><time>2026-04-11T12:32:10.989Z</time></trkpt><trkpt lat="44.88710346156187" lon="11.836228744883021"><ele>1.0</ele><time>2026-04-11T12:32:11.989Z</time></trkpt><trkpt lat="44.887035958264896" lon="11.83599435571774"><ele>1.0</ele><time>2026-04-11T12:32:12.989Z</time></trkpt><trkpt lat="44.88696332852021" lon="11.83576128445474"><ele>1.0</ele><time>2026-04-11T12:32:13.989Z</time></trkpt><trkpt lat="44.8868913557638" lon="11.835512256961321"><ele>1.0</ele><time>2026-04-11T12:32:14.989Z</time></trkpt><trkpt lat="44.88682949152736" lon="11.835262869628838"><ele>1.0</ele><time>2026-04-11T12:32:15.989Z</time></trkpt><trkpt lat="44.886740031479974" lon="11.835016076491456"><ele>1.0</ele><time>2026-04-11T12:32:16.988Z</time></trkpt><trkpt lat="44.886679365617184" lon="11.83474866341152"><ele>1.0</ele><time>2026-04-11T12:32:17.988Z</time></trkpt><trkpt lat="44.88659061452364" lon="11.834494523759513"><ele>1.0</ele><time>2026-04-11T12:32:18.988Z</time></trkpt><trkpt lat="44.886516205954344" lon="11.834230287533336"><ele>1.0</ele><time>2026-04-11T12:32:19.988Z</time></trkpt><trkpt lat="44.88644084908843" lon="11.83396650335702"><ele>1.0</ele><time>2026-04-11T12:32:20.988Z</time></trkpt><trkpt lat="44.88636155888241" lon="11.833705722244362"><ele>1.0</ele><time>2026-04-11T12:32:21.988Z</time></trkpt><trkpt lat="44.886280881444684" lon="11.833447675706722"><ele>1.0</ele><time>2026-04-11T12:32:22.988Z</time></trkpt><trkpt lat="44.88620596553337" lon="11.83318800024259"><ele>0.6666666666666666</ele><time>2026-04-11T12:32:23.988Z</time></trkpt><trkpt lat="44.8861491382067" lon="11.83293940722437"><ele>0.3333333333333333</ele><time>2026-04-11T12:32:24.988Z</time></trkpt><trkpt lat="44.88607829019233" lon="11.832697455967446"><ele>0.0</ele><time>2026-04-11T12:32:25.988Z</time></trkpt><trkpt lat="44.88600037799919" lon="11.832431379787318"><ele>0.5</ele><time>2026-04-11T12:32:26.988Z</time></trkpt><trkpt lat="44.88591558367157" lon="11.832140708829336"><ele>1.0</ele><time>2026-04-11T12:32:27.988Z</time></trkpt><trkpt lat="44.8858204811109" lon="11.831814790656791"><ele>1.5</ele><time>2026-04-11T12:32:28.988Z</time></trkpt><trkpt lat="44.885720862881854" lon="11.831475217656541"><ele>2.0</ele><time>2026-04-11T12:32:29.988Z</time></trkpt><trkpt lat="44.88562225623717" lon="11.831139093173356"><ele>2.0</ele><time>2026-04-11T12:32:30.988Z</time></trkpt><trkpt lat="44.885520592592314" lon="11.830792548434138"><ele>2.0</ele><time>2026-04-11T12:32:31.988Z</time></trkpt><trkpt lat="44.88541719512859" lon="11.830440092846976"><ele>2.0</ele><time>2026-04-11T12:32:32.988Z</time></trkpt><trkpt lat="44.885313816689475" lon="11.830088711012175"><ele>2.0</ele><time>2026-04-11T12:32:33.988Z</time></trkpt><trkpt lat="44.8852090583753" lon="11.829732082953031"><ele>2.0</ele><time>2026-04-11T12:32:34.988Z</time></trkpt><trkpt lat="44.88510296275029" lon="11.82937658050263"><ele>2.0</ele><time>2026-04-11T12:32:35.988Z</time></trkpt><trkpt lat="44.88499999691873" lon="11.829020721194917"><ele>1.5</ele><time>2026-04-11T12:32:36.988Z</time></trkpt><trkpt lat="44.884903923373436" lon="11.828658852642633"><ele>1.0</ele><time>2026-04-11T12:32:37.988Z</time></trkpt><trkpt lat="44.884810034082484" lon="11.828288677449132"><ele>1.0</ele><time>2026-04-11T12:32:38.988Z</time></trkpt><trkpt lat="44.88474874016397" lon="11.827896206004816"><ele>1.0</ele><time>2026-04-11T12:32:39.988Z</time></trkpt><trkpt lat="44.88470490093562" lon="11.827495750242068"><ele>0.5</ele><time>2026-04-11T12:32:40.988Z</time></trkpt><trkpt lat="44.88467373015079" lon="11.827088980857262"><ele>0.0</ele><time>2026-04-11T12:32:41.988Z</time></trkpt><trkpt lat="44.884653234158584" lon="11.82668199151881"><ele>1.0</ele><time>2026-04-11T12:32:42.988Z</time></trkpt><trkpt lat="44.88463731568052" lon="11.826278584983633"><ele>2.0</ele><time>2026-04-11T12:32:43.988Z</time></trkpt><trkpt lat="44.884624062648804" lon="11.825869562199783"><ele>2.5</ele><time>2026-04-11T12:32:44.988Z</time></trkpt><trkpt lat="44.8846076393487" lon="11.825474413963157"><ele>3.0</ele><time>2026-04-11T12:32:45.988Z</time></trkpt><trkpt lat="44.88458801869056" lon="11.825083439626573"><ele>3.5</ele><time>2026-04-11T12:32:46.988Z</time></trkpt><trkpt lat="44.884568567509994" lon="11.824695280530477"><ele>4.0</ele><time>2026-04-11T12:32:47.988Z</time></trkpt><trkpt lat="44.88454819777007" lon="11.824314573936265"><ele>3.0</ele><time>2026-04-11T12:32:48.988Z</time></trkpt><trkpt lat="44.88453141302029" lon="11.82394207398911"><ele>2.0</ele><time>2026-04-11T12:32:49.988Z</time></trkpt><trkpt lat="44.8845156079069" lon="11.823580292909226"><ele>3.0</ele><time>2026-04-11T12:32:50.988Z</time></trkpt><trkpt lat="44.88450090081369" lon="11.823242803545122"><ele>4.0</ele><time>2026-04-11T12:32:51.988Z</time></trkpt><trkpt lat="44.88448398404975" lon="11.822919766574813"><ele>4.0</ele><time>2026-04-11T12:32:52.988Z</time></trkpt><trkpt lat="44.884471574351245" lon="11.822608236536698"><ele>4.0</ele><time>2026-04-11T12:32:53.988Z</time></trkpt><trkpt lat="44.884457110803204" lon="11.822309548871582"><ele>4.0</ele><time>2026-04-11T12:32:54.988Z</time></trkpt><trkpt lat="44.884440865215915" lon="11.822014551914002"><ele>3.6666666666666665</ele><time>2026-04-11T12:32:55.988Z</time></trkpt><trkpt lat="44.88442251177541" lon="11.821715642226883"><ele>3.333333333333333</ele><time>2026-04-11T12:32:56.988Z</time></trkpt><trkpt lat="44.88439721747654" lon="11.821429614193683"><ele>3.0</ele><time>2026-04-11T12:32:57.988Z</time></trkpt><trkpt lat="44.884368518748744" lon="11.821158829563144"><ele>3.0</ele><time>2026-04-11T12:32:58.988Z</time></trkpt><trkpt lat="44.88436811831917" lon="11.820873942875133"><ele>3.0</ele><time>2026-04-11T12:32:59.988Z</time></trkpt><trkpt lat="44.88435233674063" lon="11.82057714955883"><ele>3.0</ele><time>2026-04-11T12:33:00.987Z</time></trkpt><trkpt lat="44.88433603549432" lon="11.820272325553022"><ele>3.333333333333333</ele><time>2026-04-11T12:33:01.987Z</time></trkpt><trkpt lat="44.884319107416104" lon="11.819958463786884"><ele>3.6666666666666665</ele><time>2026-04-11T12:33:02.987Z</time></trkpt><trkpt lat="44.88430197873338" lon="11.819640882548075"><ele>4.0</ele><time>2026-04-11T12:33:03.987Z</time></trkpt><trkpt lat="44.884284550033065" lon="11.81931773878863"><ele>4.0</ele><time>2026-04-11T12:33:04.987Z</time></trkpt><trkpt lat="44.88426676629242" lon="11.818993462171198"><ele>4.0</ele><time>2026-04-11T12:33:05.987Z</time></trkpt><trkpt lat="44.88424945465674" lon="11.81866179276397"><ele>4.0</ele><time>2026-04-11T12:33:06.987Z</time></trkpt><trkpt lat="44.88423235229689" lon="11.818332947452822"><ele>4.0</ele><time>2026-04-11T12:33:07.987Z</time></trkpt><trkpt lat="44.884214887724745" lon="11.818009237998584"><ele>4.0</ele><time>2026-04-11T12:33:08.987Z</time></trkpt><trkpt lat="44.884197506558394" lon="11.817694484772908"><ele>4.0</ele><time>2026-04-11T12:33:09.987Z</time></trkpt><trkpt lat="44.88418038045422" lon="11.817396291845503"><ele>4.0</ele><time>2026-04-11T12:33:10.987Z</time></trkpt><trkpt lat="44.88416387476428" lon="11.817107442347513"><ele>3.6666666666666665</ele><time>2026-04-11T12:33:11.987Z</time></trkpt><trkpt lat="44.88414960145303" lon="11.81683964229115"><ele>3.333333333333333</ele><time>2026-04-11T12:33:12.987Z</time></trkpt><trkpt lat="44.88414304722753" lon="11.81657501483234"><ele>3.0</ele><time>2026-04-11T12:33:13.987Z</time></trkpt><trkpt lat="44.88416142785249" lon="11.816308079017343"><ele>3.0</ele><time>2026-04-11T12:33:14.987Z</time></trkpt><trkpt lat="44.88420806072386" lon="11.816038577837535"><ele>3.0</ele><time>2026-04-11T12:33:15.987Z</time></trkpt><trkpt lat="44.884281085030736" lon="11.815777543234523"><ele>3.0</ele><time>2026-04-11T12:33:16.987Z</time></trkpt><trkpt lat="44.88436847796005" lon="11.815515894451027"><ele>3.0</ele><time>2026-04-11T12:33:17.987Z</time></trkpt><trkpt lat="44.88451081514008" lon="11.81530473693012"><ele>3.0</ele><time>2026-04-11T12:33:18.987Z</time></trkpt><trkpt lat="44.88464976906828" lon="11.815093516968272"><ele>3.0</ele><time>2026-04-11T12:33:19.987Z</time></trkpt><trkpt lat="44.88481466353379" lon="11.814927886280321"><ele>2.3333333333333335</ele><time>2026-04-11T12:33:20.987Z</time></trkpt><trkpt lat="44.88498044068689" lon="11.814777744796215"><ele>1.6666666666666665</ele><time>2026-04-11T12:33:21.987Z</time></trkpt><trkpt lat="44.88514454592556" lon="11.814632203784642"><ele>1.0</ele><time>2026-04-11T12:33:22.987Z</time></trkpt><trkpt lat="44.88530504439222" lon="11.814481867001064"><ele>1.0</ele><time>2026-04-11T12:33:23.987Z</time></trkpt><trkpt lat="44.88546811921531" lon="11.814326665175207"><ele>1.0</ele><time>2026-04-11T12:33:24.987Z</time></trkpt><trkpt lat="44.88564500530433" lon="11.814197668622697"><ele>1.0</ele><time>2026-04-11T12:33:25.987Z</time></trkpt><trkpt lat="44.88581654388611" lon="11.814037534003678"><ele>0.6666666666666666</ele><time>2026-04-11T12:33:26.987Z</time></trkpt><trkpt lat="44.88598498166759" lon="11.813871336491784"><ele>0.3333333333333333</ele><time>2026-04-11T12:33:27.987Z</time></trkpt><trkpt lat="44.886157731528506" lon="11.813705863737756"><ele>0.0</ele><time>2026-04-11T12:33:28.987Z</time></trkpt><trkpt lat="44.88632828895324" lon="11.813538043482142"><ele>0.3333333333333333</ele><time>2026-04-11T12:33:29.987Z</time></trkpt><trkpt lat="44.88649728632822" lon="11.813366897795495"><ele>0.6666666666666666</ele><time>2026-04-11T12:33:30.987Z</time></trkpt><trkpt lat="44.88666865394091" lon="11.813205822731073"><ele>1.0</ele><time>2026-04-11T12:33:31.987Z</time></trkpt><trkpt lat="44.886838794148" lon="11.813052143392515"><ele>1.0</ele><time>2026-04-11T12:33:32.987Z</time></trkpt><trkpt lat="44.88700381119031" lon="11.812894142615184"><ele>1.0</ele><time>2026-04-11T12:33:33.987Z</time></trkpt><trkpt lat="44.88716958457747" lon="11.812738933536485"><ele>1.0</ele><time>2026-04-11T12:33:34.987Z</time></trkpt><trkpt lat="44.88733351857234" lon="11.812580136339548"><ele>1.0</ele><time>2026-04-11T12:33:35.987Z</time></trkpt><trkpt lat="44.88749418388771" lon="11.812415074495684"><ele>1.0</ele><time>2026-04-11T12:33:36.987Z</time></trkpt><trkpt lat="44.88765477138072" lon="11.812252317508152"><ele>1.0</ele><time>2026-04-11T12:33:37.987Z</time></trkpt><trkpt lat="44.88782472556713" lon="11.812112715070066"><ele>1.3333333333333333</ele><time>2026-04-11T12:33:38.987Z</time></trkpt><trkpt lat="44.88799918635595" lon="11.812017221491697"><ele>1.6666666666666665</ele><time>2026-04-11T12:33:39.987Z</time></trkpt><trkpt lat="44.88815400529451" lon="11.811924120540395"><ele>2.0</ele><time>2026-04-11T12:33:40.987Z</time></trkpt><trkpt lat="44.888297517402805" lon="11.811852057333747"><ele>1.8</ele><time>2026-04-11T12:33:41.987Z</time></trkpt><trkpt lat="44.888421051823926" lon="11.811800753945539"><ele>1.6</ele><time>2026-04-11T12:33:42.987Z</time></trkpt><trkpt lat="44.88852752647938" lon="11.811786638133796"><ele>1.4000000000000001</ele><time>2026-04-11T12:33:43.987Z</time></trkpt><trkpt lat="44.888592759509635" lon="11.811768522895992"><ele>1.2000000000000002</ele><time>2026-04-11T12:33:44.987Z</time></trkpt><trkpt lat="44.88867166742641" lon="11.811729827973044"><ele>1.0</ele><time>2026-04-11T12:33:46.987Z</time></trkpt><trkpt lat="44.888763294826106" lon="11.81170821043052"><ele>1.0</ele><time>2026-04-11T12:33:48.987Z</time></trkpt><trkpt lat="44.88883080997832" lon="11.81172267243362"><ele>1.0</ele><time>2026-04-11T12:33:49.987Z</time></trkpt><trkpt lat="44.8889047649648" lon="11.811765103991055"><ele>1.0</ele><time>2026-04-11T12:33:50.987Z</time></trkpt><trkpt lat="44.88898079935401" lon="11.811844418785537"><ele>1.0</ele><time>2026-04-11T12:33:51.987Z</time></trkpt><trkpt lat="44.88904235792055" lon="11.811964846712149"><ele>1.0</ele><time>2026-04-11T12:33:52.987Z</time></trkpt><trkpt lat="44.889089518198354" lon="11.812094850903774"><ele>1.25</ele><time>2026-04-11T12:33:53.987Z</time></trkpt><trkpt lat="44.88913777707085" lon="11.812252655776966"><ele>1.5</ele><time>2026-04-11T12:33:54.987Z</time></trkpt><trkpt lat="44.88917438719522" lon="11.81243804250699"><ele>1.75</ele><time>2026-04-11T12:33:55.987Z</time></trkpt><trkpt lat="44.889218588246116" lon="11.81263061891791"><ele>2.0</ele><time>2026-04-11T12:33:56.987Z</time></trkpt><trkpt lat="44.889270230589545" lon="11.812837408029006"><ele>2.333333333333333</ele><time>2026-04-11T12:33:57.987Z</time></trkpt><trkpt lat="44.889333411410206" lon="11.813053847244305"><ele>2.6666666666666665</ele><time>2026-04-11T12:33:58.987Z</time></trkpt><trkpt lat="44.889399760070354" lon="11.81326197695692"><ele>3.0</ele><time>2026-04-11T12:33:59.987Z</time></trkpt><trkpt lat="44.88946772427606" lon="11.813484516889456"><ele>2.6666666666666665</ele><time>2026-04-11T12:34:00.986Z</time></trkpt><trkpt lat="44.88954358792015" lon="11.813700493868279"><ele>2.333333333333333</ele><time>2026-04-11T12:34:01.986Z</time></trkpt><trkpt lat="44.88963591002504" lon="11.81390834225965"><ele>2.0</ele><time>2026-04-11T12:34:02.986Z</time></trkpt><trkpt lat="44.889738863519376" lon="11.814097272608839"><ele>2.0</ele><time>2026-04-11T12:34:03.986Z</time></trkpt><trkpt lat="44.88985542469006" lon="11.81426205216647"><ele>2.0</ele><time>2026-04-11T12:34:04.986Z</time></trkpt><trkpt lat="44.88996702230461" lon="11.814391710586417"><ele>2.0</ele><time>2026-04-11T12:34:05.986Z</time></trkpt><trkpt lat="44.89008062130271" lon="11.814497244361286"><ele>2.0</ele><time>2026-04-11T12:34:06.986Z</time></trkpt><trkpt lat="44.89019428617263" lon="11.814591541541713"><ele>2.25</ele><time>2026-04-11T12:34:07.986Z</time></trkpt><trkpt lat="44.890308295837535" lon="11.814674703289658"><ele>2.5</ele><time>2026-04-11T12:34:08.986Z</time></trkpt><trkpt lat="44.89042533314184" lon="11.814761880510535"><ele>2.75</ele><time>2026-04-11T12:34:09.988Z</time></trkpt><trkpt lat="44.890542686663025" lon="11.814854764924371"><ele>3.0</ele><time>2026-04-11T12:34:10.988Z</time></trkpt><trkpt lat="44.89065732909571" lon="11.814945503564216"><ele>3.0</ele><time>2026-04-11T12:34:11.988Z</time></trkpt><trkpt lat="44.89076314129956" lon="11.815030033723431"><ele>3.0</ele><time>2026-04-11T12:34:12.988Z</time></trkpt><trkpt lat="44.890869603794066" lon="11.815115369642216"><ele>3.0</ele><time>2026-04-11T12:34:13.988Z</time></trkpt><trkpt lat="44.89098658341686" lon="11.815156088531111"><ele>3.0</ele><time>2026-04-11T12:34:14.988Z</time></trkpt><trkpt lat="44.89108687882227" lon="11.8152218971942"><ele>3.0</ele><time>2026-04-11T12:34:15.989Z</time></trkpt><trkpt lat="44.8911842816195" lon="11.81529664137086"><ele>3.0</ele><time>2026-04-11T12:34:16.988Z</time></trkpt><trkpt lat="44.89127831352536" lon="11.815363170434289"><ele>3.0</ele><time>2026-04-11T12:34:17.988Z</time></trkpt><trkpt lat="44.89137911967657" lon="11.815440981772007"><ele>3.0</ele><time>2026-04-11T12:34:18.988Z</time></trkpt><trkpt lat="44.89144595557631" lon="11.815573759869466"><ele>3.0</ele><time>2026-04-11T12:34:19.989Z</time></trkpt><trkpt lat="44.891535591668124" lon="11.815644243611755"><ele>3.0</ele><time>2026-04-11T12:34:20.988Z</time></trkpt><trkpt lat="44.89163204375187" lon="11.815720066544193"><ele>3.0</ele><time>2026-04-11T12:34:21.988Z</time></trkpt><trkpt lat="44.891732669360835" lon="11.815798443653183"><ele>3.0</ele><time>2026-04-11T12:34:22.988Z</time></trkpt><trkpt lat="44.8918619719376" lon="11.815827088561054"><ele>3.0</ele><time>2026-04-11T12:34:23.988Z</time></trkpt><trkpt lat="44.89197102074691" lon="11.815903969658713"><ele>3.2</ele><time>2026-04-11T12:34:24.988Z</time></trkpt><trkpt lat="44.89206508872062" lon="11.81597999033956"><ele>3.4</ele><time>2026-04-11T12:34:25.988Z</time></trkpt><trkpt lat="44.89215701819652" lon="11.816058722817926"><ele>3.6000000000000005</ele><time>2026-04-11T12:34:26.988Z</time></trkpt><trkpt lat="44.89221554235171" lon="11.816186701723048"><ele>3.8000000000000003</ele><time>2026-04-11T12:34:27.988Z</time></trkpt><trkpt lat="44.89229482438218" lon="11.816250992384663"><ele>4.0</ele><time>2026-04-11T12:34:28.988Z</time></trkpt><trkpt lat="44.892389224045694" lon="11.816327577938225"><ele>4.0</ele><time>2026-04-11T12:34:29.988Z</time></trkpt><trkpt lat="44.89250704023348" lon="11.816423160028087"><ele>4.0</ele><time>2026-04-11T12:34:30.988Z</time></trkpt><trkpt lat="44.892641423214144" lon="11.81653118191384"><ele>4.0</ele><time>2026-04-11T12:34:31.988Z</time></trkpt><trkpt lat="44.89279824395125" lon="11.816657498787146"><ele>4.0</ele><time>2026-04-11T12:34:32.988Z</time></trkpt><trkpt lat="44.892973173223986" lon="11.816795030932528"><ele>4.0</ele><time>2026-04-11T12:34:33.988Z</time></trkpt><trkpt lat="44.89313726734123" lon="11.816897914453884"><ele>4.0</ele><time>2026-04-11T12:34:34.988Z</time></trkpt><trkpt lat="44.89328298012514" lon="11.817039322357497"><ele>4.0</ele><time>2026-04-11T12:34:35.988Z</time></trkpt><trkpt lat="44.89341598102583" lon="11.81714658628103"><ele>4.0</ele><time>2026-04-11T12:34:36.988Z</time></trkpt><trkpt lat="44.89354181275426" lon="11.817245420384884"><ele>4.0</ele><time>2026-04-11T12:34:37.988Z</time></trkpt><trkpt lat="44.89367463682226" lon="11.817350193536551"><ele>4.0</ele><time>2026-04-11T12:34:38.988Z</time></trkpt><trkpt lat="44.89381469436143" lon="11.817465353650821"><ele>4.0</ele><time>2026-04-11T12:34:39.988Z</time></trkpt><trkpt lat="44.893960403768794" lon="11.817572377036221"><ele>4.0</ele><time>2026-04-11T12:34:40.988Z</time></trkpt><trkpt lat="44.894109165915054" lon="11.817687788282075"><ele>4.0</ele><time>2026-04-11T12:34:41.988Z</time></trkpt><trkpt lat="44.894260302879765" lon="11.817797914948377"><ele>3.333333333333333</ele><time>2026-04-11T12:34:42.988Z</time></trkpt><trkpt lat="44.8944133513674" lon="11.81790836653016"><ele>2.6666666666666665</ele><time>2026-04-11T12:34:43.988Z</time></trkpt><trkpt lat="44.89455257086164" lon="11.818040414304518"><ele>2.0</ele><time>2026-04-11T12:34:44.988Z</time></trkpt><trkpt lat="44.894696886149404" lon="11.818158516454382"><ele>2.0</ele><time>2026-04-11T12:34:45.988Z</time></trkpt><trkpt lat="44.894833214676595" lon="11.81827514149075"><ele>2.0</ele><time>2026-04-11T12:34:46.988Z</time></trkpt><trkpt lat="44.894967295335434" lon="11.818399298619227"><ele>2.0</ele><time>2026-04-11T12:34:47.988Z</time></trkpt><trkpt lat="44.89507245529304" lon="11.818560289098299"><ele>2.0</ele><time>2026-04-11T12:34:48.988Z</time></trkpt><trkpt lat="44.89516201032153" lon="11.818745487616214"><ele>2.0</ele><time>2026-04-11T12:34:49.988Z</time></trkpt><trkpt lat="44.89523364752035" lon="11.818967348368165"><ele>2.0</ele><time>2026-04-11T12:34:50.988Z</time></trkpt><trkpt lat="44.89529295824897" lon="11.819193544078475"><ele>1.6666666666666665</ele><time>2026-04-11T12:34:51.988Z</time></trkpt><trkpt lat="44.895337148394326" lon="11.819434021738246"><ele>1.3333333333333333</ele><time>2026-04-11T12:34:52.988Z</time></trkpt><trkpt lat="44.89535754406517" lon="11.819662201356085"><ele>1.0</ele><time>2026-04-11T12:34:53.988Z</time></trkpt><trkpt lat="44.89539207992882" lon="11.819877693517206"><ele>1.0</ele><time>2026-04-11T12:34:54.988Z</time></trkpt><trkpt lat="44.89542449273904" lon="11.820079938408254"><ele>1.0</ele><time>2026-04-11T12:34:55.988Z</time></trkpt><trkpt lat="44.895456823076444" lon="11.820281358163873"><ele>1.0</ele><time>2026-04-11T12:34:56.988Z</time></trkpt><trkpt lat="44.8954900698946" lon="11.820488416677927"><ele>1.0</ele><time>2026-04-11T12:34:57.988Z</time></trkpt><trkpt lat="44.89552250884316" lon="11.820690443884533"><ele>1.6666666666666665</ele><time>2026-04-11T12:34:58.988Z</time></trkpt><trkpt lat="44.89555653487366" lon="11.820902355316935"><ele>2.3333333333333335</ele><time>2026-04-11T12:34:59.988Z</time></trkpt><trkpt lat="44.89559007213297" lon="11.82111122279941"><ele>3.0</ele><time>2026-04-11T12:35:00.988Z</time></trkpt><trkpt lat="44.89562363003581" lon="11.821320151385711"><ele>3.0</ele><time>2026-04-11T12:35:01.988Z</time></trkpt><trkpt lat="44.89565807136468" lon="11.821534092259677"><ele>3.0</ele><time>2026-04-11T12:35:02.988Z</time></trkpt><trkpt lat="44.89569341377276" lon="11.821753630187745"><ele>3.0</ele><time>2026-04-11T12:35:03.988Z</time></trkpt><trkpt lat="44.89572951999696" lon="11.821977176851291"><ele>2.6666666666666665</ele><time>2026-04-11T12:35:04.988Z</time></trkpt><trkpt lat="44.89576488659224" lon="11.822196158824894"><ele>2.333333333333333</ele><time>2026-04-11T12:35:05.988Z</time></trkpt><trkpt lat="44.895800474814486" lon="11.822416512905392"><ele>2.0</ele><time>2026-04-11T12:35:06.988Z</time></trkpt><trkpt lat="44.895835205023786" lon="11.822631554478601"><ele>2.333333333333333</ele><time>2026-04-11T12:35:07.988Z</time></trkpt><trkpt lat="44.89586953079791" lon="11.82284340004856"><ele>2.6666666666666665</ele><time>2026-04-11T12:35:08.988Z</time></trkpt><trkpt lat="44.895903129183395" lon="11.823050738894981"><ele>3.0</ele><time>2026-04-11T12:35:09.988Z</time></trkpt><trkpt lat="44.895936816297436" lon="11.823258622253068"><ele>3.0</ele><time>2026-04-11T12:35:10.987Z</time></trkpt><trkpt lat="44.89597050325174" lon="11.823464404906577"><ele>3.0</ele><time>2026-04-11T12:35:11.987Z</time></trkpt><trkpt lat="44.896004580249674" lon="11.823673196255191"><ele>3.0</ele><time>2026-04-11T12:35:12.987Z</time></trkpt><trkpt lat="44.89603919722803" lon="11.823883154723287"><ele>3.25</ele><time>2026-04-11T12:35:13.987Z</time></trkpt><trkpt lat="44.89607240179272" lon="11.82408525553687"><ele>3.5</ele><time>2026-04-11T12:35:14.987Z</time></trkpt><trkpt lat="44.896103503330174" lon="11.82427543368834"><ele>3.75</ele><time>2026-04-11T12:35:15.987Z</time></trkpt><trkpt lat="44.896132201225534" lon="11.824450898127566"><ele>4.0</ele><time>2026-04-11T12:35:16.987Z</time></trkpt><trkpt lat="44.896160619250914" lon="11.82462465101772"><ele>4.0</ele><time>2026-04-11T12:35:17.987Z</time></trkpt><trkpt lat="44.89618756096287" lon="11.824789376519"><ele>4.0</ele><time>2026-04-11T12:35:18.987Z</time></trkpt><trkpt lat="44.89621098234821" lon="11.824939045375274"><ele>4.0</ele><time>2026-04-11T12:35:19.987Z</time></trkpt><trkpt lat="44.8962328091857" lon="11.825068746765835"><ele>4.0</ele><time>2026-04-11T12:35:20.987Z</time></trkpt><trkpt lat="44.896251847383446" lon="11.825183993742124"><ele>4.0</ele><time>2026-04-11T12:35:21.987Z</time></trkpt><trkpt lat="44.896269531357326" lon="11.825291042113722"><ele>4.0</ele><time>2026-04-11T12:35:22.987Z</time></trkpt><trkpt lat="44.89628631117528" lon="11.825392614702983"><ele>4.0</ele><time>2026-04-11T12:35:23.987Z</time></trkpt><trkpt lat="44.89630030888343" lon="11.825479388019545"><ele>4.0</ele><time>2026-04-11T12:35:24.987Z</time></trkpt><trkpt lat="44.89631933409357" lon="11.825595700491679"><ele>4.0</ele><time>2026-04-11T12:35:26.987Z</time></trkpt><trkpt lat="44.896358090341366" lon="11.825819873492316"><ele>4.0</ele><time>2026-04-11T12:35:39.987Z</time></trkpt><trkpt lat="44.896379050566374" lon="11.8259348121943"><ele>3.8000000000000003</ele><time>2026-04-11T12:35:40.987Z</time></trkpt><trkpt lat="44.89639933440679" lon="11.826050068319368"><ele>3.6000000000000005</ele><time>2026-04-11T12:35:41.987Z</time></trkpt><trkpt lat="44.89642308727402" lon="11.826189351186176"><ele>3.4</ele><time>2026-04-11T12:35:42.987Z</time></trkpt><trkpt lat="44.8964501476761" lon="11.82635024158151"><ele>3.2</ele><time>2026-04-11T12:35:43.987Z</time></trkpt><trkpt lat="44.896478869775834" lon="11.826521011719631"><ele>3.0</ele><time>2026-04-11T12:35:44.987Z</time></trkpt><trkpt lat="44.896505686063094" lon="11.826681484734861"><ele>3.25</ele><time>2026-04-11T12:35:45.987Z</time></trkpt><trkpt lat="44.89654483508003" lon="11.82686286335942"><ele>3.5</ele><time>2026-04-11T12:35:46.987Z</time></trkpt><trkpt lat="44.896556075069164" lon="11.82705986783294"><ele>3.75</ele><time>2026-04-11T12:35:47.987Z</time></trkpt><trkpt lat="44.8965825411765" lon="11.827249697186824"><ele>4.0</ele><time>2026-04-11T12:35:48.987Z</time></trkpt><trkpt lat="44.89660748788547" lon="11.82743869752247"><ele>4.0</ele><time>2026-04-11T12:35:49.987Z</time></trkpt><trkpt lat="44.89663395181963" lon="11.827621806178458"><ele>4.0</ele><time>2026-04-11T12:35:50.987Z</time></trkpt><trkpt lat="44.896666774070475" lon="11.827806119859666"><ele>4.0</ele><time>2026-04-11T12:35:51.987Z</time></trkpt><trkpt lat="44.896702977144884" lon="11.827993167966927"><ele>4.0</ele><time>2026-04-11T12:35:52.987Z</time></trkpt><trkpt lat="44.89674165663695" lon="11.828184996505913"><ele>3.75</ele><time>2026-04-11T12:35:53.987Z</time></trkpt><trkpt lat="44.89677690579754" lon="11.828378940929287"><ele>3.5</ele><time>2026-04-11T12:35:54.987Z</time></trkpt><trkpt lat="44.89681498864016" lon="11.828574200931016"><ele>3.25</ele><time>2026-04-11T12:35:55.987Z</time></trkpt><trkpt lat="44.896851912035" lon="11.828764667097555"><ele>3.0</ele><time>2026-04-11T12:35:56.987Z</time></trkpt><trkpt lat="44.896885263202925" lon="11.828956028132168"><ele>3.0</ele><time>2026-04-11T12:35:57.987Z</time></trkpt><trkpt lat="44.896918355242065" lon="11.829144377428841"><ele>3.0</ele><time>2026-04-11T12:35:58.987Z</time></trkpt><trkpt lat="44.89695348332976" lon="11.829337135775052"><ele>3.0</ele><time>2026-04-11T12:35:59.987Z</time></trkpt><trkpt lat="44.89697339709507" lon="11.829527113078152"><ele>3.0</ele><time>2026-04-11T12:36:00.987Z</time></trkpt><trkpt lat="44.89700342665831" lon="11.829715425234093"><ele>3.25</ele><time>2026-04-11T12:36:01.987Z</time></trkpt><trkpt lat="44.897047174222706" lon="11.829884127941193"><ele>3.5</ele><time>2026-04-11T12:36:02.987Z</time></trkpt><trkpt lat="44.89707234094369" lon="11.83005641827823"><ele>3.75</ele><time>2026-04-11T12:36:03.987Z</time></trkpt><trkpt lat="44.89709649365579" lon="11.830228355309089"><ele>4.0</ele><time>2026-04-11T12:36:04.987Z</time></trkpt><trkpt lat="44.89712559251393" lon="11.830399454008234"><ele>4.0</ele><time>2026-04-11T12:36:05.987Z</time></trkpt><trkpt lat="44.89713940140821" lon="11.830569137608517"><ele>4.0</ele><time>2026-04-11T12:36:06.987Z</time></trkpt><trkpt lat="44.89716660146616" lon="11.830737919798645"><ele>4.0</ele><time>2026-04-11T12:36:07.987Z</time></trkpt><trkpt lat="44.89720938974961" lon="11.83089901245311"><ele>4.0</ele><time>2026-04-11T12:36:08.987Z</time></trkpt><trkpt lat="44.89723732014278" lon="11.83107217352892"><ele>3.8000000000000003</ele><time>2026-04-11T12:36:09.987Z</time></trkpt><trkpt lat="44.89725005368497" lon="11.831255759147696"><ele>3.6000000000000005</ele><time>2026-04-11T12:36:10.986Z</time></trkpt><trkpt lat="44.897276296667854" lon="11.831418602680444"><ele>3.4</ele><time>2026-04-11T12:36:11.986Z</time></trkpt><trkpt lat="44.897298824769045" lon="11.831558394318742"><ele>3.2</ele><time>2026-04-11T12:36:12.986Z</time></trkpt><trkpt lat="44.89731694674689" lon="11.831670845512742"><ele>3.0</ele><time>2026-04-11T12:36:13.986Z</time></trkpt><trkpt lat="44.89734718125439" lon="11.831752804450154"><ele>3.0</ele><time>2026-04-11T12:36:14.986Z</time></trkpt><trkpt lat="44.897336176263565" lon="11.831900565464787"><ele>3.0</ele><time>2026-04-11T12:36:16.988Z</time></trkpt><trkpt lat="44.8972630222213" lon="11.832000422230587"><ele>3.0</ele><time>2026-04-11T12:36:18.987Z</time></trkpt><trkpt lat="44.89715328454601" lon="11.832040652905285"><ele>3.0</ele><time>2026-04-11T12:36:20.987Z</time></trkpt><trkpt lat="44.897090685251285" lon="11.832060293835902"><ele>3.0</ele><time>2026-04-11T12:36:21.988Z</time></trkpt><trkpt lat="44.89702280775573" lon="11.83209101191344"><ele>3.0</ele><time>2026-04-11T12:36:22.988Z</time></trkpt><trkpt lat="44.89694884162441" lon="11.832106761566418"><ele>3.0</ele><time>2026-04-11T12:36:23.988Z</time></trkpt><trkpt lat="44.89687370935892" lon="11.83214359060098"><ele>3.0</ele><time>2026-04-11T12:36:24.987Z</time></trkpt><trkpt lat="44.89680975818022" lon="11.83218676490418"><ele>3.0</ele><time>2026-04-11T12:36:25.988Z</time></trkpt><trkpt lat="44.896715043874266" lon="11.832223351007872"><ele>3.0</ele><time>2026-04-11T12:36:27.988Z</time></trkpt><trkpt lat="44.89664753658973" lon="11.832278239632206"><ele>3.0</ele><time>2026-04-11T12:36:29.987Z</time></trkpt><trkpt lat="44.89657610374839" lon="11.83228313835705"><ele>4.0</ele><time>2026-04-11T12:36:32.987Z</time></trkpt><trkpt lat="44.89647186010921" lon="11.832221854411122"><ele>4.0</ele><time>2026-04-11T12:38:36.987Z</time></trkpt></trkseg></trk></gpx>